<?xml version='1.0' encoding='UTF-8'?><gpx version="1.1" creator="JPX - https://github.com/jenetics/jpx" xmlns="http://www.topografix.com/GPX/1/1"><trk><trkseg><trkpt lat="43.4275584" lon="12.9335283"><ele>246.00000000000003</ele><time>2026-04-18T07:18:40.02Z</time></trkpt><trkpt lat="43.4275749" lon="12.9334294"><ele>246.0</ele><time>2026-04-18T07:18:44.025Z</time></trkpt><trkpt lat="43.4275939" lon="12.9333464"><ele>246.00000000000003</ele><time>2026-04-18T07:18:47.012Z</time></trkpt><trkpt lat="43.427589" lon="12.933258"><ele>246.00000000000003</ele><time>2026-04-18T07:18:57.024Z</time></trkpt><trkpt lat="43.4275222" lon="12.9332964"><ele>246.0</ele><time>2026-04-18T07:19:16.016Z</time></trkpt><trkpt lat="43.4274928" lon="12.9333739"><ele>246.00000000000003</ele><time>2026-04-18T07:19:19.03Z</time></trkpt><trkpt lat="43.4274551" lon="12.9334617"><ele>246.00000000000003</ele><time>2026-04-18T07:19:23.022Z</time></trkpt><trkpt lat="43.4275146" lon="12.9335149"><ele>246.00000000000003</ele><time>2026-04-18T07:19:31.02Z</time></trkpt><trkpt lat="43.4275728" lon="12.9334357"><ele>246.0</ele><time>2026-04-18T07:19:35.018Z</time></trkpt><trkpt lat="43.4275694" lon="12.9333384"><ele>246.00000000000003</ele><time>2026-04-18T07:19:38.026Z</time></trkpt><trkpt lat="43.4275758" lon="12.9332462"><ele>246.00000000000003</ele><time>2026-04-18T07:19:41.011Z</time></trkpt><trkpt lat="43.4275833" lon="12.9331564"><ele>246.0</ele><time>2026-04-18T07:19:44.019Z</time></trkpt><trkpt lat="43.4276069" lon="12.933074"><ele>246.00000000000003</ele><time>2026-04-18T07:19:48.012Z</time></trkpt><trkpt lat="43.4276275" lon="12.9329897"><ele>246.00000000000003</ele><time>2026-04-18T07:19:55.019Z</time></trkpt><trkpt lat="43.4276525" lon="12.9328886"><ele>245.33333333333334</ele><time>2026-04-18T07:20:00.045Z</time></trkpt><trkpt lat="43.4276843" lon="12.9327971"><ele>244.66666666666669</ele><time>2026-04-18T07:20:03.044Z</time></trkpt><trkpt lat="43.4277179" lon="12.9326726"><ele>244.0</ele><time>2026-04-18T07:20:06.037Z</time></trkpt><trkpt lat="43.4277363" lon="12.9325794"><ele>243.33333333333334</ele><time>2026-04-18T07:20:08.02Z</time></trkpt><trkpt lat="43.4277397" lon="12.9324922"><ele>242.66666666666669</ele><time>2026-04-18T07:20:10.022Z</time></trkpt><trkpt lat="43.4276912" lon="12.9324114"><ele>242.0</ele><time>2026-04-18T07:20:14.022Z</time></trkpt><trkpt lat="43.4275881" lon="12.9323836"><ele>241.50000000000003</ele><time>2026-04-18T07:20:27.019Z</time></trkpt><trkpt lat="43.4274801" lon="12.9324225"><ele>241.0</ele><time>2026-04-18T07:20:29.01Z</time></trkpt><trkpt lat="43.4273572" lon="12.9324567"><ele>240.5</ele><time>2026-04-18T07:20:31.023Z</time></trkpt><trkpt lat="43.4272913" lon="12.932468"><ele>240.0</ele><time>2026-04-18T07:20:32.02Z</time></trkpt><trkpt lat="43.4272229" lon="12.9324749"><ele>239.50000000000003</ele><time>2026-04-18T07:20:33.021Z</time></trkpt><trkpt lat="43.4271567" lon="12.9324751"><ele>239.0</ele><time>2026-04-18T07:20:34.013Z</time></trkpt><trkpt lat="43.4270912" lon="12.9324708"><ele>238.66666666666669</ele><time>2026-04-18T07:20:35.017Z</time></trkpt><trkpt lat="43.4270236" lon="12.9324629"><ele>238.33333333333334</ele><time>2026-04-18T07:20:36.031Z</time></trkpt><trkpt lat="43.4269473" lon="12.9324457"><ele>238.0</ele><time>2026-04-18T07:20:37.02Z</time></trkpt><trkpt lat="43.4268688" lon="12.9324346"><ele>237.66666666666669</ele><time>2026-04-18T07:20:38.025Z</time></trkpt><trkpt lat="43.426786" lon="12.932418"><ele>237.33333333333334</ele><time>2026-04-18T07:20:39.025Z</time></trkpt><trkpt lat="43.4266976" lon="12.932405"><ele>237.0</ele><time>2026-04-18T07:20:40.02Z</time></trkpt><trkpt lat="43.4266118" lon="12.932389"><ele>237.0</ele><time>2026-04-18T07:20:41.024Z</time></trkpt><trkpt lat="43.4265229" lon="12.9323723"><ele>237.0</ele><time>2026-04-18T07:20:42.019Z</time></trkpt><trkpt lat="43.4264359" lon="12.9323632"><ele>237.0</ele><time>2026-04-18T07:20:43.015Z</time></trkpt><trkpt lat="43.4263525" lon="12.9323548"><ele>237.0</ele><time>2026-04-18T07:20:44.02Z</time></trkpt><trkpt lat="43.4262792" lon="12.932357"><ele>237.0</ele><time>2026-04-18T07:20:45.021Z</time></trkpt><trkpt lat="43.4261782" lon="12.9322914"><ele>237.0</ele><time>2026-04-18T07:20:47.028Z</time></trkpt><trkpt lat="43.4262077" lon="12.9321644"><ele>237.0</ele><time>2026-04-18T07:20:49.007Z</time></trkpt><trkpt lat="43.4262854" lon="12.9320508"><ele>237.0</ele><time>2026-04-18T07:20:51.012Z</time></trkpt><trkpt lat="43.4263236" lon="12.9319663"><ele>237.0</ele><time>2026-04-18T07:20:52.017Z</time></trkpt><trkpt lat="43.4263649" lon="12.9318804"><ele>237.0</ele><time>2026-04-18T07:20:53.009Z</time></trkpt><trkpt lat="43.4264106" lon="12.9317943"><ele>237.0</ele><time>2026-04-18T07:20:54.031Z</time></trkpt><trkpt lat="43.4264626" lon="12.9316991"><ele>237.0</ele><time>2026-04-18T07:20:55.017Z</time></trkpt><trkpt lat="43.4265164" lon="12.9315978"><ele>238.0</ele><time>2026-04-18T07:20:56.012Z</time></trkpt><trkpt lat="43.4265645" lon="12.9314855"><ele>239.0</ele><time>2026-04-18T07:20:57.015Z</time></trkpt><trkpt lat="43.4266149" lon="12.9313718"><ele>240.0</ele><time>2026-04-18T07:20:58.014Z</time></trkpt><trkpt lat="43.4266595" lon="12.9312537"><ele>241.0</ele><time>2026-04-18T07:20:59.013Z</time></trkpt><trkpt lat="43.4266981" lon="12.9311356"><ele>242.0</ele><time>2026-04-18T07:21:00.012Z</time></trkpt><trkpt lat="43.4267314" lon="12.9310194"><ele>242.0</ele><time>2026-04-18T07:21:01.012Z</time></trkpt><trkpt lat="43.4267681" lon="12.9308976"><ele>242.0</ele><time>2026-04-18T07:21:02.025Z</time></trkpt><trkpt lat="43.4268089" lon="12.9307808"><ele>242.0</ele><time>2026-04-18T07:21:03.022Z</time></trkpt><trkpt lat="43.426855" lon="12.9306645"><ele>242.0</ele><time>2026-04-18T07:21:04.018Z</time></trkpt><trkpt lat="43.4269042" lon="12.9305493"><ele>242.0</ele><time>2026-04-18T07:21:05.013Z</time></trkpt><trkpt lat="43.4269504" lon="12.9304354"><ele>244.6</ele><time>2026-04-18T07:21:06.033Z</time></trkpt><trkpt lat="43.4270009" lon="12.9303268"><ele>247.2</ele><time>2026-04-18T07:21:07.013Z</time></trkpt><trkpt lat="43.4270486" lon="12.9302173"><ele>249.8</ele><time>2026-04-18T07:21:08.015Z</time></trkpt><trkpt lat="43.4270834" lon="12.930097"><ele>252.4</ele><time>2026-04-18T07:21:09.009Z</time></trkpt><trkpt lat="43.4271063" lon="12.9299712"><ele>255.0</ele><time>2026-04-18T07:21:10.026Z</time></trkpt><trkpt lat="43.4271119" lon="12.9298362"><ele>256.2</ele><time>2026-04-18T07:21:11.012Z</time></trkpt><trkpt lat="43.4270937" lon="12.9296958"><ele>257.4</ele><time>2026-04-18T07:21:12.013Z</time></trkpt><trkpt lat="43.4270631" lon="12.9295449"><ele>258.6</ele><time>2026-04-18T07:21:13.011Z</time></trkpt><trkpt lat="43.4270321" lon="12.9294"><ele>259.8</ele><time>2026-04-18T07:21:14.009Z</time></trkpt><trkpt lat="43.4269997" lon="12.9292545"><ele>261.0</ele><time>2026-04-18T07:21:15.008Z</time></trkpt><trkpt lat="43.4269635" lon="12.9291121"><ele>261.0</ele><time>2026-04-18T07:21:16.017Z</time></trkpt><trkpt lat="43.4269296" lon="12.928967"><ele>261.0</ele><time>2026-04-18T07:21:17.011Z</time></trkpt><trkpt lat="43.4268956" lon="12.9288157"><ele>261.0</ele><time>2026-04-18T07:21:18.017Z</time></trkpt><trkpt lat="43.4268643" lon="12.9286645"><ele>261.0</ele><time>2026-04-18T07:21:19.016Z</time></trkpt><trkpt lat="43.4268311" lon="12.928511"><ele>259.25</ele><time>2026-04-18T07:21:20.006Z</time></trkpt><trkpt lat="43.4267967" lon="12.928362"><ele>257.5</ele><time>2026-04-18T07:21:21.009Z</time></trkpt><trkpt lat="43.4267638" lon="12.9282019"><ele>255.75</ele><time>2026-04-18T07:21:22.014Z</time></trkpt><trkpt lat="43.4267219" lon="12.9280553"><ele>254.0</ele><time>2026-04-18T07:21:23.015Z</time></trkpt><trkpt lat="43.4266778" lon="12.9279103"><ele>254.0</ele><time>2026-04-18T07:21:24.012Z</time></trkpt><trkpt lat="43.4266348" lon="12.9277715"><ele>254.0</ele><time>2026-04-18T07:21:25.013Z</time></trkpt><trkpt lat="43.4265889" lon="12.9276332"><ele>254.0</ele><time>2026-04-18T07:21:26.017Z</time></trkpt><trkpt lat="43.4265313" lon="12.927497"><ele>254.0</ele><time>2026-04-18T07:21:27.012Z</time></trkpt><trkpt lat="43.4264704" lon="12.9273601"><ele>253.0</ele><time>2026-04-18T07:21:28.012Z</time></trkpt><trkpt lat="43.4264115" lon="12.9272259"><ele>251.99999999999997</ele><time>2026-04-18T07:21:29.014Z</time></trkpt><trkpt lat="43.4263549" lon="12.9270895"><ele>250.99999999999997</ele><time>2026-04-18T07:21:30.022Z</time></trkpt><trkpt lat="43.4263055" lon="12.9269542"><ele>250.0</ele><time>2026-04-18T07:21:31.002Z</time></trkpt><trkpt lat="43.4262543" lon="12.9268225"><ele>249.0</ele><time>2026-04-18T07:21:32.035Z</time></trkpt><trkpt lat="43.4261984" lon="12.9266866"><ele>253.75</ele><time>2026-04-18T07:21:33.007Z</time></trkpt><trkpt lat="43.4261427" lon="12.9265294"><ele>258.5</ele><time>2026-04-18T07:21:34.018Z</time></trkpt><trkpt lat="43.4260877" lon="12.9263597"><ele>263.25</ele><time>2026-04-18T07:21:35.015Z</time></trkpt><trkpt lat="43.4260331" lon="12.9261928"><ele>268.0</ele><time>2026-04-18T07:21:36.01Z</time></trkpt><trkpt lat="43.4259787" lon="12.9260527"><ele>268.0</ele><time>2026-04-18T07:21:37.015Z</time></trkpt><trkpt lat="43.4259257" lon="12.9259052"><ele>268.0</ele><time>2026-04-18T07:21:38.015Z</time></trkpt><trkpt lat="43.4258789" lon="12.925733"><ele>268.0</ele><time>2026-04-18T07:21:39.004Z</time></trkpt><trkpt lat="43.4258102" lon="12.9255732"><ele>268.0</ele><time>2026-04-18T07:21:40.016Z</time></trkpt><trkpt lat="43.4257546" lon="12.9254273"><ele>264.75</ele><time>2026-04-18T07:21:41.011Z</time></trkpt><trkpt lat="43.4257068" lon="12.9252843"><ele>261.5</ele><time>2026-04-18T07:21:42.005Z</time></trkpt><trkpt lat="43.425656" lon="12.9251321"><ele>258.25</ele><time>2026-04-18T07:21:43.005Z</time></trkpt><trkpt lat="43.4256076" lon="12.9249914"><ele>255.0</ele><time>2026-04-18T07:21:44.012Z</time></trkpt><trkpt lat="43.4255605" lon="12.9248441"><ele>253.75</ele><time>2026-04-18T07:21:45.009Z</time></trkpt><trkpt lat="43.4255069" lon="12.924704"><ele>252.5</ele><time>2026-04-18T07:21:46.011Z</time></trkpt><trkpt lat="43.4254555" lon="12.9245585"><ele>251.25</ele><time>2026-04-18T07:21:47.008Z</time></trkpt><trkpt lat="43.4254017" lon="12.924404"><ele>250.0</ele><time>2026-04-18T07:21:48.012Z</time></trkpt><trkpt lat="43.4253487" lon="12.9242488"><ele>254.5</ele><time>2026-04-18T07:21:49.006Z</time></trkpt><trkpt lat="43.4252866" lon="12.924093"><ele>259.0</ele><time>2026-04-18T07:21:50.008Z</time></trkpt><trkpt lat="43.4252219" lon="12.9239376"><ele>263.5</ele><time>2026-04-18T07:21:51.008Z</time></trkpt><trkpt lat="43.425157" lon="12.9237869"><ele>268.0</ele><time>2026-04-18T07:21:52.008Z</time></trkpt><trkpt lat="43.4250936" lon="12.9236324"><ele>268.0</ele><time>2026-04-18T07:21:53.01Z</time></trkpt><trkpt lat="43.4250313" lon="12.9234796"><ele>268.0</ele><time>2026-04-18T07:21:54.008Z</time></trkpt><trkpt lat="43.4249711" lon="12.9233161"><ele>268.0</ele><time>2026-04-18T07:21:55.008Z</time></trkpt><trkpt lat="43.4249063" lon="12.9231556"><ele>268.0</ele><time>2026-04-18T07:21:56.011Z</time></trkpt><trkpt lat="43.4248533" lon="12.9230011"><ele>264.75</ele><time>2026-04-18T07:21:57.007Z</time></trkpt><trkpt lat="43.4247988" lon="12.9228471"><ele>261.5</ele><time>2026-04-18T07:21:58.014Z</time></trkpt><trkpt lat="43.4247474" lon="12.9227034"><ele>258.25</ele><time>2026-04-18T07:21:59.006Z</time></trkpt><trkpt lat="43.4247003" lon="12.9225699"><ele>255.0</ele><time>2026-04-18T07:22:00.015Z</time></trkpt><trkpt lat="43.4246594" lon="12.9224403"><ele>258.4</ele><time>2026-04-18T07:22:01.008Z</time></trkpt><trkpt lat="43.4246226" lon="12.9223031"><ele>261.8</ele><time>2026-04-18T07:22:02.018Z</time></trkpt><trkpt lat="43.4245953" lon="12.9221569"><ele>265.2</ele><time>2026-04-18T07:22:03.014Z</time></trkpt><trkpt lat="43.4245854" lon="12.9220141"><ele>268.6</ele><time>2026-04-18T07:22:04.023Z</time></trkpt><trkpt lat="43.4245978" lon="12.9218629"><ele>272.0</ele><time>2026-04-18T07:22:05.024Z</time></trkpt><trkpt lat="43.4246193" lon="12.9217236"><ele>272.0</ele><time>2026-04-18T07:22:06.02Z</time></trkpt><trkpt lat="43.4246413" lon="12.9215942"><ele>272.0</ele><time>2026-04-18T07:22:07.029Z</time></trkpt><trkpt lat="43.4246633" lon="12.9214641"><ele>272.0</ele><time>2026-04-18T07:22:08.015Z</time></trkpt><trkpt lat="43.4246764" lon="12.9213419"><ele>272.0</ele><time>2026-04-18T07:22:09.021Z</time></trkpt><trkpt lat="43.4246568" lon="12.9212069"><ele>272.0</ele><time>2026-04-18T07:22:10.018Z</time></trkpt><trkpt lat="43.4246137" lon="12.921063"><ele>272.0</ele><time>2026-04-18T07:22:11.013Z</time></trkpt><trkpt lat="43.4245534" lon="12.9209163"><ele>272.0</ele><time>2026-04-18T07:22:12.019Z</time></trkpt><trkpt lat="43.4244996" lon="12.9207828"><ele>272.0</ele><time>2026-04-18T07:22:13.006Z</time></trkpt><trkpt lat="43.4244502" lon="12.9206477"><ele>272.0</ele><time>2026-04-18T07:22:14.022Z</time></trkpt><trkpt lat="43.4244268" lon="12.920488"><ele>271.0</ele><time>2026-04-18T07:22:15.026Z</time></trkpt><trkpt lat="43.4244317" lon="12.9203132"><ele>270.0</ele><time>2026-04-18T07:22:16.017Z</time></trkpt><trkpt lat="43.4244488" lon="12.920137"><ele>269.0</ele><time>2026-04-18T07:22:17.011Z</time></trkpt><trkpt lat="43.4244666" lon="12.9199527"><ele>268.0</ele><time>2026-04-18T07:22:18.022Z</time></trkpt><trkpt lat="43.4244829" lon="12.9197647"><ele>268.0</ele><time>2026-04-18T07:22:19.017Z</time></trkpt><trkpt lat="43.4245028" lon="12.9195868"><ele>268.0</ele><time>2026-04-18T07:22:20.01Z</time></trkpt><trkpt lat="43.4245255" lon="12.9194014"><ele>268.0</ele><time>2026-04-18T07:22:21.013Z</time></trkpt><trkpt lat="43.4245466" lon="12.9192134"><ele>268.0</ele><time>2026-04-18T07:22:22.016Z</time></trkpt><trkpt lat="43.424571" lon="12.9190253"><ele>270.25</ele><time>2026-04-18T07:22:23.019Z</time></trkpt><trkpt lat="43.4245876" lon="12.9188538"><ele>272.5</ele><time>2026-04-18T07:22:24.013Z</time></trkpt><trkpt lat="43.4246048" lon="12.9186877"><ele>274.75</ele><time>2026-04-18T07:22:25.011Z</time></trkpt><trkpt lat="43.4246248" lon="12.9185273"><ele>277.0</ele><time>2026-04-18T07:22:26.019Z</time></trkpt><trkpt lat="43.4246469" lon="12.9183638"><ele>269.25</ele><time>2026-04-18T07:22:27.011Z</time></trkpt><trkpt lat="43.4246759" lon="12.9181984"><ele>261.5</ele><time>2026-04-18T07:22:28.014Z</time></trkpt><trkpt lat="43.4247143" lon="12.9180376"><ele>253.75</ele><time>2026-04-18T07:22:29.005Z</time></trkpt><trkpt lat="43.4247511" lon="12.9178723"><ele>246.0</ele><time>2026-04-18T07:22:30.01Z</time></trkpt><trkpt lat="43.4247923" lon="12.9177051"><ele>246.5</ele><time>2026-04-18T07:22:31.017Z</time></trkpt><trkpt lat="43.4248324" lon="12.9175402"><ele>247.0</ele><time>2026-04-18T07:22:32.018Z</time></trkpt><trkpt lat="43.4248697" lon="12.9173906"><ele>247.5</ele><time>2026-04-18T07:22:33.023Z</time></trkpt><trkpt lat="43.4249149" lon="12.9172403"><ele>248.0</ele><time>2026-04-18T07:22:34.013Z</time></trkpt><trkpt lat="43.4249513" lon="12.9170818"><ele>248.0</ele><time>2026-04-18T07:22:35.018Z</time></trkpt><trkpt lat="43.4250052" lon="12.9169112"><ele>248.0</ele><time>2026-04-18T07:22:36.015Z</time></trkpt><trkpt lat="43.4250623" lon="12.9167338"><ele>248.0</ele><time>2026-04-18T07:22:37.015Z</time></trkpt><trkpt lat="43.4251222" lon="12.9165567"><ele>248.0</ele><time>2026-04-18T07:22:38.018Z</time></trkpt><trkpt lat="43.4251837" lon="12.9163882"><ele>250.0</ele><time>2026-04-18T07:22:39.015Z</time></trkpt><trkpt lat="43.4252406" lon="12.9162291"><ele>252.0</ele><time>2026-04-18T07:22:40.029Z</time></trkpt><trkpt lat="43.4252986" lon="12.9160863"><ele>254.0</ele><time>2026-04-18T07:22:41.013Z</time></trkpt><trkpt lat="43.4253558" lon="12.9159401"><ele>256.0</ele><time>2026-04-18T07:22:42.027Z</time></trkpt><trkpt lat="43.4254197" lon="12.9157865"><ele>253.0</ele><time>2026-04-18T07:22:43.016Z</time></trkpt><trkpt lat="43.4254857" lon="12.9156359"><ele>250.0</ele><time>2026-04-18T07:22:44.023Z</time></trkpt><trkpt lat="43.4255584" lon="12.9154978"><ele>247.0</ele><time>2026-04-18T07:22:45.022Z</time></trkpt><trkpt lat="43.4256407" lon="12.9153741"><ele>244.0</ele><time>2026-04-18T07:22:46.02Z</time></trkpt><trkpt lat="43.4257286" lon="12.9152496"><ele>244.0</ele><time>2026-04-18T07:22:47.015Z</time></trkpt><trkpt lat="43.4258058" lon="12.9151265"><ele>243.99999999999997</ele><time>2026-04-18T07:22:48.015Z</time></trkpt><trkpt lat="43.4258797" lon="12.9150104"><ele>243.99999999999997</ele><time>2026-04-18T07:22:49.011Z</time></trkpt><trkpt lat="43.4259385" lon="12.9149047"><ele>244.0</ele><time>2026-04-18T07:22:50.016Z</time></trkpt><trkpt lat="43.4259916" lon="12.9148014"><ele>244.0</ele><time>2026-04-18T07:22:51.017Z</time></trkpt><trkpt lat="43.4260425" lon="12.914688"><ele>245.16666666666666</ele><time>2026-04-18T07:22:52.017Z</time></trkpt><trkpt lat="43.4260837" lon="12.9145631"><ele>246.33333333333331</ele><time>2026-04-18T07:22:53.01Z</time></trkpt><trkpt lat="43.4261013" lon="12.9144543"><ele>247.5</ele><time>2026-04-18T07:22:54.016Z</time></trkpt><trkpt lat="43.4260867" lon="12.9143555"><ele>248.66666666666669</ele><time>2026-04-18T07:22:55.033Z</time></trkpt><trkpt lat="43.4260468" lon="12.9142623"><ele>249.83333333333334</ele><time>2026-04-18T07:22:56.029Z</time></trkpt><trkpt lat="43.4259979" lon="12.9141751"><ele>251.0</ele><time>2026-04-18T07:22:57.025Z</time></trkpt><trkpt lat="43.4259427" lon="12.914085"><ele>251.33333333333334</ele><time>2026-04-18T07:22:58.023Z</time></trkpt><trkpt lat="43.4258843" lon="12.9139998"><ele>251.66666666666669</ele><time>2026-04-18T07:22:59.016Z</time></trkpt><trkpt lat="43.4258292" lon="12.9139143"><ele>252.0</ele><time>2026-04-18T07:23:00.028Z</time></trkpt><trkpt lat="43.4257754" lon="12.9138308"><ele>252.33333333333331</ele><time>2026-04-18T07:23:01.02Z</time></trkpt><trkpt lat="43.425726" lon="12.9137489"><ele>252.66666666666666</ele><time>2026-04-18T07:23:02.024Z</time></trkpt><trkpt lat="43.4256721" lon="12.9136686"><ele>253.0</ele><time>2026-04-18T07:23:03.02Z</time></trkpt><trkpt lat="43.4256199" lon="12.9135935"><ele>252.99999999999997</ele><time>2026-04-18T07:23:04.028Z</time></trkpt><trkpt lat="43.425569" lon="12.9135198"><ele>253.0</ele><time>2026-04-18T07:23:05.03Z</time></trkpt><trkpt lat="43.4254716" lon="12.913436"><ele>253.0</ele><time>2026-04-18T07:23:07.027Z</time></trkpt><trkpt lat="43.4253719" lon="12.9134027"><ele>253.0</ele><time>2026-04-18T07:23:09.017Z</time></trkpt><trkpt lat="43.4253007" lon="12.9134079"><ele>252.99999999999997</ele><time>2026-04-18T07:23:12.019Z</time></trkpt><trkpt lat="43.4253553" lon="12.9134544"><ele>253.0</ele><time>2026-04-18T07:23:56.016Z</time></trkpt><trkpt lat="43.4254555" lon="12.9134482"><ele>252.99999999999997</ele><time>2026-04-18T07:23:58.014Z</time></trkpt><trkpt lat="43.4255161" lon="12.9134976"><ele>253.0</ele><time>2026-04-18T07:23:59.017Z</time></trkpt><trkpt lat="43.4255727" lon="12.9135774"><ele>253.0</ele><time>2026-04-18T07:24:00.011Z</time></trkpt><trkpt lat="43.4256433" lon="12.9136669"><ele>253.0</ele><time>2026-04-18T07:24:01.024Z</time></trkpt><trkpt lat="43.4257174" lon="12.9137639"><ele>252.99999999999997</ele><time>2026-04-18T07:24:02.029Z</time></trkpt><trkpt lat="43.4257841" lon="12.913856"><ele>253.0</ele><time>2026-04-18T07:24:03.023Z</time></trkpt><trkpt lat="43.4258406" lon="12.9139432"><ele>252.99999999999997</ele><time>2026-04-18T07:24:04.037Z</time></trkpt><trkpt lat="43.4258933" lon="12.9140241"><ele>253.0</ele><time>2026-04-18T07:24:05.019Z</time></trkpt><trkpt lat="43.4259477" lon="12.914108"><ele>253.0</ele><time>2026-04-18T07:24:06.021Z</time></trkpt><trkpt lat="43.4259982" lon="12.9141853"><ele>253.0</ele><time>2026-04-18T07:24:07.016Z</time></trkpt><trkpt lat="43.4260378" lon="12.9142634"><ele>252.99999999999997</ele><time>2026-04-18T07:24:08.023Z</time></trkpt><trkpt lat="43.4260781" lon="12.9143703"><ele>253.0</ele><time>2026-04-18T07:24:10.038Z</time></trkpt><trkpt lat="43.4260775" lon="12.9144591"><ele>252.66666666666666</ele><time>2026-04-18T07:24:18.031Z</time></trkpt><trkpt lat="43.4260696" lon="12.9145875"><ele>252.33333333333331</ele><time>2026-04-18T07:24:20.035Z</time></trkpt><trkpt lat="43.4260344" lon="12.914677"><ele>252.0</ele><time>2026-04-18T07:24:21.023Z</time></trkpt><trkpt lat="43.4259855" lon="12.9147638"><ele>251.66666666666669</ele><time>2026-04-18T07:24:22.027Z</time></trkpt><trkpt lat="43.4259333" lon="12.9148497"><ele>251.33333333333334</ele><time>2026-04-18T07:24:23.024Z</time></trkpt><trkpt lat="43.4258804" lon="12.9149459"><ele>251.0</ele><time>2026-04-18T07:24:24.021Z</time></trkpt><trkpt lat="43.4258304" lon="12.9150358"><ele>249.83333333333334</ele><time>2026-04-18T07:24:25.017Z</time></trkpt><trkpt lat="43.4257829" lon="12.9151227"><ele>248.66666666666669</ele><time>2026-04-18T07:24:26.026Z</time></trkpt><trkpt lat="43.4257287" lon="12.9152053"><ele>247.5</ele><time>2026-04-18T07:24:27.026Z</time></trkpt><trkpt lat="43.4256723" lon="12.9152984"><ele>246.33333333333331</ele><time>2026-04-18T07:24:28.028Z</time></trkpt><trkpt lat="43.4256117" lon="12.9153943"><ele>245.16666666666666</ele><time>2026-04-18T07:24:29.029Z</time></trkpt><trkpt lat="43.4255466" lon="12.9154873"><ele>244.0</ele><time>2026-04-18T07:24:30.019Z</time></trkpt><trkpt lat="43.4254891" lon="12.9155894"><ele>246.39999999999998</ele><time>2026-04-18T07:24:31.014Z</time></trkpt><trkpt lat="43.4254356" lon="12.9157033"><ele>248.79999999999998</ele><time>2026-04-18T07:24:32.031Z</time></trkpt><trkpt lat="43.4253852" lon="12.915825"><ele>251.20000000000002</ele><time>2026-04-18T07:24:33.028Z</time></trkpt><trkpt lat="43.4253429" lon="12.9159385"><ele>253.60000000000002</ele><time>2026-04-18T07:24:34.023Z</time></trkpt><trkpt lat="43.4253007" lon="12.9160433"><ele>256.0</ele><time>2026-04-18T07:24:35.025Z</time></trkpt><trkpt lat="43.4252593" lon="12.916139"><ele>255.99999999999997</ele><time>2026-04-18T07:24:36.033Z</time></trkpt><trkpt lat="43.4252258" lon="12.9162271"><ele>256.0</ele><time>2026-04-18T07:24:37.025Z</time></trkpt><trkpt lat="43.4251698" lon="12.9163652"><ele>256.0</ele><time>2026-04-18T07:24:39.027Z</time></trkpt><trkpt lat="43.4251115" lon="12.9164104"><ele>256.0</ele><time>2026-04-18T07:24:41.03Z</time></trkpt><trkpt lat="43.4250386" lon="12.9163827"><ele>255.99999999999997</ele><time>2026-04-18T07:24:43.038Z</time></trkpt><trkpt lat="43.4249638" lon="12.9163068"><ele>256.0</ele><time>2026-04-18T07:24:45.02Z</time></trkpt><trkpt lat="43.4249421" lon="12.9161855"><ele>256.0</ele><time>2026-04-18T07:24:47.023Z</time></trkpt><trkpt lat="43.4249552" lon="12.9160511"><ele>256.0</ele><time>2026-04-18T07:24:49.029Z</time></trkpt><trkpt lat="43.424979" lon="12.9158934"><ele>256.0</ele><time>2026-04-18T07:24:51.024Z</time></trkpt><trkpt lat="43.4249973" lon="12.9157319"><ele>256.0</ele><time>2026-04-18T07:24:53.029Z</time></trkpt><trkpt lat="43.424984" lon="12.915607"><ele>256.0</ele><time>2026-04-18T07:24:55.022Z</time></trkpt><trkpt lat="43.4249052" lon="12.9155383"><ele>257.2</ele><time>2026-04-18T07:24:57.022Z</time></trkpt><trkpt lat="43.4248116" lon="12.9155695"><ele>258.40000000000003</ele><time>2026-04-18T07:24:59.036Z</time></trkpt><trkpt lat="43.4247166" lon="12.9156117"><ele>259.6</ele><time>2026-04-18T07:25:01.02Z</time></trkpt><trkpt lat="43.4246063" lon="12.915636"><ele>260.8</ele><time>2026-04-18T07:25:03.021Z</time></trkpt><trkpt lat="43.4244788" lon="12.9156618"><ele>262.0</ele><time>2026-04-18T07:25:05.029Z</time></trkpt><trkpt lat="43.4244156" lon="12.9156619"><ele>265.8</ele><time>2026-04-18T07:25:06.026Z</time></trkpt><trkpt lat="43.4242966" lon="12.9156438"><ele>269.6</ele><time>2026-04-18T07:25:08.031Z</time></trkpt><trkpt lat="43.4241758" lon="12.9156306"><ele>273.40000000000003</ele><time>2026-04-18T07:25:10.03Z</time></trkpt><trkpt lat="43.4240643" lon="12.9156056"><ele>277.2</ele><time>2026-04-18T07:25:12.017Z</time></trkpt><trkpt lat="43.4239732" lon="12.9155863"><ele>281.0</ele><time>2026-04-18T07:25:14.014Z</time></trkpt><trkpt lat="43.4239112" lon="12.9156029"><ele>281.0</ele><time>2026-04-18T07:25:17.037Z</time></trkpt><trkpt lat="43.4239457" lon="12.9156869"><ele>281.0</ele><time>2026-04-18T07:25:20.025Z</time></trkpt><trkpt lat="43.4240143" lon="12.9157477"><ele>281.0</ele><time>2026-04-18T07:25:22.013Z</time></trkpt><trkpt lat="43.4241047" lon="12.9158386"><ele>281.0</ele><time>2026-04-18T07:25:24.017Z</time></trkpt><trkpt lat="43.4242095" lon="12.9159223"><ele>281.0</ele><time>2026-04-18T07:25:26.014Z</time></trkpt><trkpt lat="43.4243278" lon="12.9159959"><ele>282.83333333333337</ele><time>2026-04-18T07:25:28.019Z</time></trkpt><trkpt lat="43.4243907" lon="12.9160414"><ele>284.6666666666667</ele><time>2026-04-18T07:25:29.011Z</time></trkpt><trkpt lat="43.4244498" lon="12.9160886"><ele>286.5</ele><time>2026-04-18T07:25:30.025Z</time></trkpt><trkpt lat="43.4245036" lon="12.9161388"><ele>288.3333333333333</ele><time>2026-04-18T07:25:31.02Z</time></trkpt><trkpt lat="43.4245412" lon="12.9162616"><ele>290.16666666666663</ele><time>2026-04-18T07:25:33.012Z</time></trkpt><trkpt lat="43.4245155" lon="12.9163792"><ele>292.0</ele><time>2026-04-18T07:25:35.028Z</time></trkpt><trkpt lat="43.4244544" lon="12.9164062"><ele>292.0</ele><time>2026-04-18T07:25:38.028Z</time></trkpt><trkpt lat="43.4243843" lon="12.916411"><ele>292.0</ele><time>2026-04-18T07:25:41.023Z</time></trkpt><trkpt lat="43.4243052" lon="12.9164555"><ele>292.0</ele><time>2026-04-18T07:25:43.018Z</time></trkpt><trkpt lat="43.424246" lon="12.9165451"><ele>292.0</ele><time>2026-04-18T07:25:45.012Z</time></trkpt><trkpt lat="43.4242223" lon="12.9167119"><ele>292.0</ele><time>2026-04-18T07:25:47.007Z</time></trkpt><trkpt lat="43.4242051" lon="12.9168013"><ele>292.0</ele><time>2026-04-18T07:25:48.03Z</time></trkpt><trkpt lat="43.4241657" lon="12.9168914"><ele>291.16666666666663</ele><time>2026-04-18T07:25:49.02Z</time></trkpt><trkpt lat="43.4241217" lon="12.9169609"><ele>290.3333333333333</ele><time>2026-04-18T07:25:50.023Z</time></trkpt><trkpt lat="43.4240048" lon="12.9169958"><ele>289.5</ele><time>2026-04-18T07:25:52.016Z</time></trkpt><trkpt lat="43.423934" lon="12.9169928"><ele>288.6666666666667</ele><time>2026-04-18T07:25:53.028Z</time></trkpt><trkpt lat="43.4238661" lon="12.9169857"><ele>287.83333333333337</ele><time>2026-04-18T07:25:54.015Z</time></trkpt><trkpt lat="43.4238031" lon="12.9169689"><ele>287.0</ele><time>2026-04-18T07:25:55.02Z</time></trkpt><trkpt lat="43.4237394" lon="12.9169407"><ele>292.5</ele><time>2026-04-18T07:25:56.023Z</time></trkpt><trkpt lat="43.4236781" lon="12.9169006"><ele>298.0</ele><time>2026-04-18T07:25:57.02Z</time></trkpt><trkpt lat="43.4236114" lon="12.9168481"><ele>303.5</ele><time>2026-04-18T07:25:58.046Z</time></trkpt><trkpt lat="43.4235372" lon="12.9167913"><ele>309.0</ele><time>2026-04-18T07:25:59.022Z</time></trkpt><trkpt lat="43.4234203" lon="12.9167683"><ele>314.5</ele><time>2026-04-18T07:26:01.022Z</time></trkpt><trkpt lat="43.4233435" lon="12.9168496"><ele>320.0</ele><time>2026-04-18T07:26:03.03Z</time></trkpt><trkpt lat="43.4232998" lon="12.9169469"><ele>320.0</ele><time>2026-04-18T07:26:04.011Z</time></trkpt><trkpt lat="43.4232493" lon="12.9170597"><ele>320.0</ele><time>2026-04-18T07:26:05.015Z</time></trkpt><trkpt lat="43.4231965" lon="12.9171715"><ele>320.0</ele><time>2026-04-18T07:26:06.024Z</time></trkpt><trkpt lat="43.4231408" lon="12.9172877"><ele>320.0</ele><time>2026-04-18T07:26:07.014Z</time></trkpt><trkpt lat="43.4230849" lon="12.9173931"><ele>320.0</ele><time>2026-04-18T07:26:08.016Z</time></trkpt><trkpt lat="43.4230158" lon="12.9174749"><ele>321.1666666666667</ele><time>2026-04-18T07:26:09.01Z</time></trkpt><trkpt lat="43.4229342" lon="12.9175411"><ele>322.33333333333337</ele><time>2026-04-18T07:26:10.017Z</time></trkpt><trkpt lat="43.4228474" lon="12.9176185"><ele>323.5</ele><time>2026-04-18T07:26:11.018Z</time></trkpt><trkpt lat="43.4227785" lon="12.9177072"><ele>324.6666666666667</ele><time>2026-04-18T07:26:12.019Z</time></trkpt><trkpt lat="43.4227444" lon="12.9177974"><ele>325.8333333333333</ele><time>2026-04-18T07:26:13.014Z</time></trkpt><trkpt lat="43.4227113" lon="12.9178887"><ele>327.0</ele><time>2026-04-18T07:26:14.019Z</time></trkpt><trkpt lat="43.4226793" lon="12.9179919"><ele>330.1666666666667</ele><time>2026-04-18T07:26:15.007Z</time></trkpt><trkpt lat="43.422641" lon="12.9180755"><ele>333.3333333333333</ele><time>2026-04-18T07:26:16.019Z</time></trkpt><trkpt lat="43.4225324" lon="12.9181502"><ele>336.5</ele><time>2026-04-18T07:26:18.015Z</time></trkpt><trkpt lat="43.4224558" lon="12.9181526"><ele>339.66666666666663</ele><time>2026-04-18T07:26:19.008Z</time></trkpt><trkpt lat="43.4223905" lon="12.9181509"><ele>342.8333333333333</ele><time>2026-04-18T07:26:20.018Z</time></trkpt><trkpt lat="43.422316" lon="12.9182385"><ele>346.0</ele><time>2026-04-18T07:26:22.017Z</time></trkpt><trkpt lat="43.4222947" lon="12.9183392"><ele>348.3333333333333</ele><time>2026-04-18T07:26:23.013Z</time></trkpt><trkpt lat="43.4222796" lon="12.918457"><ele>350.66666666666663</ele><time>2026-04-18T07:26:24.014Z</time></trkpt><trkpt lat="43.4222612" lon="12.9185563"><ele>353.0</ele><time>2026-04-18T07:26:25.02Z</time></trkpt><trkpt lat="43.4222068" lon="12.9187195"><ele>355.3333333333333</ele><time>2026-04-18T07:26:27.008Z</time></trkpt><trkpt lat="43.4221714" lon="12.9188062"><ele>357.6666666666667</ele><time>2026-04-18T07:26:28.018Z</time></trkpt><trkpt lat="43.4221471" lon="12.9188923"><ele>360.0</ele><time>2026-04-18T07:26:29.017Z</time></trkpt><trkpt lat="43.4221041" lon="12.9190552"><ele>360.8</ele><time>2026-04-18T07:26:31.024Z</time></trkpt><trkpt lat="43.4220126" lon="12.9191674"><ele>361.6</ele><time>2026-04-18T07:26:33.021Z</time></trkpt><trkpt lat="43.4219466" lon="12.9192242"><ele>362.4</ele><time>2026-04-18T07:26:34.022Z</time></trkpt><trkpt lat="43.4218817" lon="12.9192897"><ele>363.2</ele><time>2026-04-18T07:26:35.035Z</time></trkpt><trkpt lat="43.4218165" lon="12.9193836"><ele>364.0</ele><time>2026-04-18T07:26:36.029Z</time></trkpt><trkpt lat="43.4217657" lon="12.9194957"><ele>366.4</ele><time>2026-04-18T07:26:37.019Z</time></trkpt><trkpt lat="43.4217212" lon="12.9196228"><ele>368.79999999999995</ele><time>2026-04-18T07:26:38.039Z</time></trkpt><trkpt lat="43.4216605" lon="12.9197443"><ele>371.20000000000005</ele><time>2026-04-18T07:26:39.024Z</time></trkpt><trkpt lat="43.4215886" lon="12.9198475"><ele>373.6</ele><time>2026-04-18T07:26:40.029Z</time></trkpt><trkpt lat="43.421521" lon="12.9199385"><ele>376.0</ele><time>2026-04-18T07:26:41.009Z</time></trkpt><trkpt lat="43.4214622" lon="12.9200102"><ele>376.0</ele><time>2026-04-18T07:26:42.028Z</time></trkpt><trkpt lat="43.4214166" lon="12.9200852"><ele>376.0</ele><time>2026-04-18T07:26:43.017Z</time></trkpt><trkpt lat="43.4213829" lon="12.9201587"><ele>376.0</ele><time>2026-04-18T07:26:44.022Z</time></trkpt><trkpt lat="43.4213287" lon="12.9203162"><ele>376.0</ele><time>2026-04-18T07:26:46.022Z</time></trkpt><trkpt lat="43.4212935" lon="12.9203967"><ele>376.0</ele><time>2026-04-18T07:26:47.024Z</time></trkpt><trkpt lat="43.4212233" lon="12.9205299"><ele>376.0</ele><time>2026-04-18T07:26:49.031Z</time></trkpt><trkpt lat="43.4211329" lon="12.9206509"><ele>379.4</ele><time>2026-04-18T07:26:51.023Z</time></trkpt><trkpt lat="43.4210297" lon="12.9207399"><ele>382.8</ele><time>2026-04-18T07:26:53.011Z</time></trkpt><trkpt lat="43.4209688" lon="12.9207674"><ele>386.2</ele><time>2026-04-18T07:26:54.02Z</time></trkpt><trkpt lat="43.4208446" lon="12.9207762"><ele>389.59999999999997</ele><time>2026-04-18T07:26:56.034Z</time></trkpt><trkpt lat="43.4207238" lon="12.9207566"><ele>393.0</ele><time>2026-04-18T07:26:58.016Z</time></trkpt><trkpt lat="43.4206616" lon="12.9207385"><ele>393.0</ele><time>2026-04-18T07:26:59.038Z</time></trkpt><trkpt lat="43.4205954" lon="12.9207073"><ele>393.0</ele><time>2026-04-18T07:27:01.035Z</time></trkpt><trkpt lat="43.4205426" lon="12.9206464"><ele>393.0</ele><time>2026-04-18T07:27:05.029Z</time></trkpt><trkpt lat="43.4205052" lon="12.9205604"><ele>393.0</ele><time>2026-04-18T07:27:08.025Z</time></trkpt><trkpt lat="43.4204467" lon="12.9204963"><ele>393.0</ele><time>2026-04-18T07:27:10.004Z</time></trkpt><trkpt lat="43.4203522" lon="12.9204226"><ele>393.0</ele><time>2026-04-18T07:27:12.009Z</time></trkpt><trkpt lat="43.4202187" lon="12.9203792"><ele>393.5</ele><time>2026-04-18T07:27:14.019Z</time></trkpt><trkpt lat="43.420149" lon="12.9203609"><ele>394.0</ele><time>2026-04-18T07:27:15.014Z</time></trkpt><trkpt lat="43.4200714" lon="12.9203324"><ele>394.5</ele><time>2026-04-18T07:27:16.012Z</time></trkpt><trkpt lat="43.4200013" lon="12.9202823"><ele>395.0</ele><time>2026-04-18T07:27:17.021Z</time></trkpt><trkpt lat="43.4199344" lon="12.9202326"><ele>395.5</ele><time>2026-04-18T07:27:18.018Z</time></trkpt><trkpt lat="43.4198536" lon="12.9201808"><ele>396.0</ele><time>2026-04-18T07:27:19.013Z</time></trkpt><trkpt lat="43.4197662" lon="12.9201157"><ele>395.8</ele><time>2026-04-18T07:27:20.02Z</time></trkpt><trkpt lat="43.4196857" lon="12.9200597"><ele>395.6</ele><time>2026-04-18T07:27:21.016Z</time></trkpt><trkpt lat="43.4195965" lon="12.9200045"><ele>395.4</ele><time>2026-04-18T07:27:22.029Z</time></trkpt><trkpt lat="43.4195077" lon="12.9199482"><ele>395.2</ele><time>2026-04-18T07:27:23.035Z</time></trkpt><trkpt lat="43.4194139" lon="12.9198857"><ele>395.0</ele><time>2026-04-18T07:27:24.004Z</time></trkpt><trkpt lat="43.4193233" lon="12.9198257"><ele>395.0</ele><time>2026-04-18T07:27:25.013Z</time></trkpt><trkpt lat="43.4192268" lon="12.9197718"><ele>395.0</ele><time>2026-04-18T07:27:26.011Z</time></trkpt><trkpt lat="43.4191211" lon="12.9197423"><ele>395.0</ele><time>2026-04-18T07:27:27.022Z</time></trkpt><trkpt lat="43.4190238" lon="12.9197014"><ele>395.0</ele><time>2026-04-18T07:27:28.015Z</time></trkpt><trkpt lat="43.4189206" lon="12.9196449"><ele>395.0</ele><time>2026-04-18T07:27:29.031Z</time></trkpt><trkpt lat="43.4188276" lon="12.9195942"><ele>396.4</ele><time>2026-04-18T07:27:30.02Z</time></trkpt><trkpt lat="43.4187315" lon="12.9195374"><ele>397.8</ele><time>2026-04-18T07:27:31.019Z</time></trkpt><trkpt lat="43.4186315" lon="12.919495"><ele>399.20000000000005</ele><time>2026-04-18T07:27:32.018Z</time></trkpt><trkpt lat="43.4185276" lon="12.9194787"><ele>400.6</ele><time>2026-04-18T07:27:33.029Z</time></trkpt><trkpt lat="43.4184187" lon="12.9194816"><ele>402.0</ele><time>2026-04-18T07:27:34.025Z</time></trkpt><trkpt lat="43.4183057" lon="12.9195164"><ele>402.0</ele><time>2026-04-18T07:27:35.011Z</time></trkpt><trkpt lat="43.4181896" lon="12.9195507"><ele>402.0</ele><time>2026-04-18T07:27:36.027Z</time></trkpt><trkpt lat="43.418074" lon="12.9195875"><ele>402.0</ele><time>2026-04-18T07:27:37.01Z</time></trkpt><trkpt lat="43.4179579" lon="12.9196216"><ele>402.0</ele><time>2026-04-18T07:27:38.014Z</time></trkpt><trkpt lat="43.4178506" lon="12.9196546"><ele>404.8</ele><time>2026-04-18T07:27:39.013Z</time></trkpt><trkpt lat="43.4177465" lon="12.9196871"><ele>407.6</ele><time>2026-04-18T07:27:40.018Z</time></trkpt><trkpt lat="43.4176438" lon="12.9197055"><ele>410.40000000000003</ele><time>2026-04-18T07:27:41.012Z</time></trkpt><trkpt lat="43.4175516" lon="12.9196792"><ele>413.20000000000005</ele><time>2026-04-18T07:27:42.012Z</time></trkpt><trkpt lat="43.4174612" lon="12.9196315"><ele>416.0</ele><time>2026-04-18T07:27:43.027Z</time></trkpt><trkpt lat="43.4173648" lon="12.919563"><ele>416.0</ele><time>2026-04-18T07:27:44.014Z</time></trkpt><trkpt lat="43.4172732" lon="12.9194917"><ele>416.0</ele><time>2026-04-18T07:27:45.02Z</time></trkpt><trkpt lat="43.4171917" lon="12.9194175"><ele>416.0</ele><time>2026-04-18T07:27:46.016Z</time></trkpt><trkpt lat="43.4171076" lon="12.9193458"><ele>416.0</ele><time>2026-04-18T07:27:47.009Z</time></trkpt><trkpt lat="43.41702" lon="12.9192715"><ele>416.0</ele><time>2026-04-18T07:27:48.006Z</time></trkpt><trkpt lat="43.4169375" lon="12.9192219"><ele>415.4</ele><time>2026-04-18T07:27:49.032Z</time></trkpt><trkpt lat="43.416856" lon="12.9191855"><ele>414.8</ele><time>2026-04-18T07:27:50.017Z</time></trkpt><trkpt lat="43.4167755" lon="12.9191711"><ele>414.2</ele><time>2026-04-18T07:27:51.037Z</time></trkpt><trkpt lat="43.4166863" lon="12.9191842"><ele>413.59999999999997</ele><time>2026-04-18T07:27:52.028Z</time></trkpt><trkpt lat="43.4165874" lon="12.9192154"><ele>413.0</ele><time>2026-04-18T07:27:53.017Z</time></trkpt><trkpt lat="43.4164751" lon="12.919241"><ele>413.0</ele><time>2026-04-18T07:27:54.023Z</time></trkpt><trkpt lat="43.416358" lon="12.9192597"><ele>413.0</ele><time>2026-04-18T07:27:55.045Z</time></trkpt><trkpt lat="43.4162311" lon="12.9192539"><ele>413.0</ele><time>2026-04-18T07:27:56.047Z</time></trkpt><trkpt lat="43.4161138" lon="12.9192191"><ele>413.0</ele><time>2026-04-18T07:27:57.059Z</time></trkpt><trkpt lat="43.4159867" lon="12.9191926"><ele>414.4</ele><time>2026-04-18T07:27:58.024Z</time></trkpt><trkpt lat="43.4158708" lon="12.919188"><ele>415.79999999999995</ele><time>2026-04-18T07:27:59.035Z</time></trkpt><trkpt lat="43.4157677" lon="12.9191953"><ele>417.2</ele><time>2026-04-18T07:28:00.031Z</time></trkpt><trkpt lat="43.4156684" lon="12.9192033"><ele>418.6</ele><time>2026-04-18T07:28:01.031Z</time></trkpt><trkpt lat="43.4155763" lon="12.9192168"><ele>420.0</ele><time>2026-04-18T07:28:02.047Z</time></trkpt><trkpt lat="43.4154979" lon="12.9192533"><ele>420.8333333333333</ele><time>2026-04-18T07:28:03.039Z</time></trkpt><trkpt lat="43.4153926" lon="12.9193175"><ele>421.66666666666663</ele><time>2026-04-18T07:28:05.007Z</time></trkpt><trkpt lat="43.415331" lon="12.9193486"><ele>422.5</ele><time>2026-04-18T07:28:06.029Z</time></trkpt><trkpt lat="43.4152581" lon="12.9193891"><ele>423.3333333333333</ele><time>2026-04-18T07:28:07.036Z</time></trkpt><trkpt lat="43.4151829" lon="12.9194255"><ele>424.16666666666663</ele><time>2026-04-18T07:28:08.036Z</time></trkpt><trkpt lat="43.4151061" lon="12.919471"><ele>425.0</ele><time>2026-04-18T07:28:09.024Z</time></trkpt><trkpt lat="43.4150235" lon="12.9195239"><ele>425.0</ele><time>2026-04-18T07:28:10.029Z</time></trkpt><trkpt lat="43.4149329" lon="12.9195897"><ele>425.0</ele><time>2026-04-18T07:28:11.037Z</time></trkpt><trkpt lat="43.4148509" lon="12.9196497"><ele>425.0</ele><time>2026-04-18T07:28:12.034Z</time></trkpt><trkpt lat="43.4147676" lon="12.9197072"><ele>425.0</ele><time>2026-04-18T07:28:13.042Z</time></trkpt><trkpt lat="43.4146778" lon="12.9197527"><ele>425.0</ele><time>2026-04-18T07:28:14.019Z</time></trkpt><trkpt lat="43.4145914" lon="12.9197966"><ele>425.2</ele><time>2026-04-18T07:28:15.005Z</time></trkpt><trkpt lat="43.4145084" lon="12.9198429"><ele>425.4</ele><time>2026-04-18T07:28:16.035Z</time></trkpt><trkpt lat="43.4144275" lon="12.9199016"><ele>425.6</ele><time>2026-04-18T07:28:17.028Z</time></trkpt><trkpt lat="43.4143512" lon="12.9199779"><ele>425.8</ele><time>2026-04-18T07:28:18.028Z</time></trkpt><trkpt lat="43.4142703" lon="12.9200524"><ele>426.0</ele><time>2026-04-18T07:28:19.029Z</time></trkpt><trkpt lat="43.4141912" lon="12.9201198"><ele>424.8</ele><time>2026-04-18T07:28:20.025Z</time></trkpt><trkpt lat="43.4141115" lon="12.9201908"><ele>423.6</ele><time>2026-04-18T07:28:21.018Z</time></trkpt><trkpt lat="43.414027" lon="12.9202655"><ele>422.4</ele><time>2026-04-18T07:28:22.022Z</time></trkpt><trkpt lat="43.4139392" lon="12.9203522"><ele>421.2</ele><time>2026-04-18T07:28:23.027Z</time></trkpt><trkpt lat="43.4138482" lon="12.920426"><ele>420.0</ele><time>2026-04-18T07:28:24.04Z</time></trkpt><trkpt lat="43.4137659" lon="12.9204959"><ele>420.0</ele><time>2026-04-18T07:28:25.023Z</time></trkpt><trkpt lat="43.4136851" lon="12.920564"><ele>420.0</ele><time>2026-04-18T07:28:26.013Z</time></trkpt><trkpt lat="43.4136256" lon="12.9206268"><ele>420.0</ele><time>2026-04-18T07:28:27.034Z</time></trkpt><trkpt lat="43.41358" lon="12.9206887"><ele>420.0</ele><time>2026-04-18T07:28:28.02Z</time></trkpt><trkpt lat="43.4134746" lon="12.9207885"><ele>420.0</ele><time>2026-04-18T07:28:30.028Z</time></trkpt><trkpt lat="43.4134076" lon="12.9208361"><ele>420.0</ele><time>2026-04-18T07:28:31.023Z</time></trkpt><trkpt lat="43.4133398" lon="12.9209051"><ele>418.1666666666667</ele><time>2026-04-18T07:28:32.016Z</time></trkpt><trkpt lat="43.4132575" lon="12.920966"><ele>416.33333333333337</ele><time>2026-04-18T07:28:33.025Z</time></trkpt><trkpt lat="43.4131899" lon="12.9210295"><ele>414.5</ele><time>2026-04-18T07:28:34.018Z</time></trkpt><trkpt lat="43.4131239" lon="12.9210989"><ele>412.6666666666667</ele><time>2026-04-18T07:28:35.005Z</time></trkpt><trkpt lat="43.4130692" lon="12.9211478"><ele>410.83333333333337</ele><time>2026-04-18T07:28:36.011Z</time></trkpt><trkpt lat="43.4129731" lon="12.9211949"><ele>409.0</ele><time>2026-04-18T07:28:38.028Z</time></trkpt><trkpt lat="43.4128964" lon="12.9211323"><ele>409.0</ele><time>2026-04-18T07:28:40.014Z</time></trkpt><trkpt lat="43.4128787" lon="12.9209841"><ele>409.0</ele><time>2026-04-18T07:28:42.034Z</time></trkpt><trkpt lat="43.4128453" lon="12.9208372"><ele>409.0</ele><time>2026-04-18T07:28:44.026Z</time></trkpt><trkpt lat="43.4127739" lon="12.9208333"><ele>409.0</ele><time>2026-04-18T07:28:45.026Z</time></trkpt><trkpt lat="43.4127097" lon="12.9208514"><ele>409.0</ele><time>2026-04-18T07:28:46.024Z</time></trkpt><trkpt lat="43.412603" lon="12.9209673"><ele>409.0</ele><time>2026-04-18T07:28:48.011Z</time></trkpt><trkpt lat="43.4125343" lon="12.9210488"><ele>409.0</ele><time>2026-04-18T07:28:49.012Z</time></trkpt><trkpt lat="43.4124573" lon="12.9211377"><ele>409.0</ele><time>2026-04-18T07:28:50.024Z</time></trkpt><trkpt lat="43.4123793" lon="12.9212271"><ele>409.0</ele><time>2026-04-18T07:28:51.033Z</time></trkpt><trkpt lat="43.4123038" lon="12.9213175"><ele>409.0</ele><time>2026-04-18T07:28:52.024Z</time></trkpt><trkpt lat="43.412229" lon="12.9214086"><ele>409.0</ele><time>2026-04-18T07:28:53.006Z</time></trkpt><trkpt lat="43.4121626" lon="12.9215034"><ele>409.0</ele><time>2026-04-18T07:28:54.021Z</time></trkpt><trkpt lat="43.4120994" lon="12.921599"><ele>409.0</ele><time>2026-04-18T07:28:55.02Z</time></trkpt><trkpt lat="43.4120615" lon="12.921717"><ele>409.0</ele><time>2026-04-18T07:28:56.016Z</time></trkpt><trkpt lat="43.4120531" lon="12.9218437"><ele>409.0</ele><time>2026-04-18T07:28:57.021Z</time></trkpt><trkpt lat="43.4120563" lon="12.9219743"><ele>407.6666666666667</ele><time>2026-04-18T07:28:58.012Z</time></trkpt><trkpt lat="43.4120829" lon="12.9220986"><ele>406.33333333333337</ele><time>2026-04-18T07:28:59.018Z</time></trkpt><trkpt lat="43.4121267" lon="12.9222017"><ele>405.0</ele><time>2026-04-18T07:29:00.017Z</time></trkpt><trkpt lat="43.4121829" lon="12.9222835"><ele>403.66666666666663</ele><time>2026-04-18T07:29:01.007Z</time></trkpt><trkpt lat="43.4122565" lon="12.9223396"><ele>402.3333333333333</ele><time>2026-04-18T07:29:02.021Z</time></trkpt><trkpt lat="43.4123274" lon="12.9223895"><ele>401.0</ele><time>2026-04-18T07:29:03.025Z</time></trkpt><trkpt lat="43.4123857" lon="12.922449"><ele>401.0</ele><time>2026-04-18T07:29:04.025Z</time></trkpt><trkpt lat="43.4124231" lon="12.9225321"><ele>401.0</ele><time>2026-04-18T07:29:05.018Z</time></trkpt><trkpt lat="43.4124176" lon="12.9226271"><ele>401.0</ele><time>2026-04-18T07:29:06.02Z</time></trkpt><trkpt lat="43.4123781" lon="12.9227146"><ele>401.0</ele><time>2026-04-18T07:29:07.012Z</time></trkpt><trkpt lat="43.4123062" lon="12.9227648"><ele>401.0</ele><time>2026-04-18T07:29:08.019Z</time></trkpt><trkpt lat="43.4122355" lon="12.9228037"><ele>401.0</ele><time>2026-04-18T07:29:09.025Z</time></trkpt><trkpt lat="43.4121599" lon="12.9228222"><ele>401.0</ele><time>2026-04-18T07:29:10.031Z</time></trkpt><trkpt lat="43.4120794" lon="12.9228402"><ele>397.6</ele><time>2026-04-18T07:29:11.051Z</time></trkpt><trkpt lat="43.4119944" lon="12.9228768"><ele>394.20000000000005</ele><time>2026-04-18T07:29:12.02Z</time></trkpt><trkpt lat="43.4119032" lon="12.9229161"><ele>390.79999999999995</ele><time>2026-04-18T07:29:13.026Z</time></trkpt><trkpt lat="43.4118202" lon="12.9229618"><ele>387.4</ele><time>2026-04-18T07:29:14.035Z</time></trkpt><trkpt lat="43.4117332" lon="12.9230018"><ele>384.0</ele><time>2026-04-18T07:29:15.03Z</time></trkpt><trkpt lat="43.4116453" lon="12.9230285"><ele>384.0</ele><time>2026-04-18T07:29:16.027Z</time></trkpt><trkpt lat="43.4115547" lon="12.9230497"><ele>384.0</ele><time>2026-04-18T07:29:17.018Z</time></trkpt><trkpt lat="43.4114563" lon="12.9230707"><ele>384.0</ele><time>2026-04-18T07:29:18.017Z</time></trkpt><trkpt lat="43.4113519" lon="12.9230847"><ele>384.0</ele><time>2026-04-18T07:29:19.036Z</time></trkpt><trkpt lat="43.4112476" lon="12.9231059"><ele>384.0</ele><time>2026-04-18T07:29:20.037Z</time></trkpt><trkpt lat="43.4111476" lon="12.9231402"><ele>383.5</ele><time>2026-04-18T07:29:21.02Z</time></trkpt><trkpt lat="43.4110557" lon="12.9231839"><ele>383.0</ele><time>2026-04-18T07:29:22.017Z</time></trkpt><trkpt lat="43.4109655" lon="12.9232334"><ele>382.5</ele><time>2026-04-18T07:29:23.022Z</time></trkpt><trkpt lat="43.4108854" lon="12.9232932"><ele>382.0</ele><time>2026-04-18T07:29:24.023Z</time></trkpt><trkpt lat="43.4108135" lon="12.9233538"><ele>381.5</ele><time>2026-04-18T07:29:25.023Z</time></trkpt><trkpt lat="43.4107549" lon="12.9234052"><ele>381.0</ele><time>2026-04-18T07:29:26.015Z</time></trkpt><trkpt lat="43.410656" lon="12.9234663"><ele>379.8</ele><time>2026-04-18T07:29:28.01Z</time></trkpt><trkpt lat="43.4105755" lon="12.9234979"><ele>378.6</ele><time>2026-04-18T07:29:30.019Z</time></trkpt><trkpt lat="43.4104965" lon="12.9234992"><ele>377.4</ele><time>2026-04-18T07:29:32.016Z</time></trkpt><trkpt lat="43.4104043" lon="12.9234688"><ele>376.2</ele><time>2026-04-18T07:29:34.021Z</time></trkpt><trkpt lat="43.4102993" lon="12.9234823"><ele>375.0</ele><time>2026-04-18T07:29:36.015Z</time></trkpt><trkpt lat="43.4101949" lon="12.9235105"><ele>375.0</ele><time>2026-04-18T07:29:38.034Z</time></trkpt><trkpt lat="43.4100815" lon="12.9235205"><ele>375.0</ele><time>2026-04-18T07:29:40.017Z</time></trkpt><trkpt lat="43.4099571" lon="12.9235395"><ele>375.0</ele><time>2026-04-18T07:29:42.035Z</time></trkpt><trkpt lat="43.4098891" lon="12.9235503"><ele>375.0</ele><time>2026-04-18T07:29:43.022Z</time></trkpt><trkpt lat="43.4098243" lon="12.9235511"><ele>375.0</ele><time>2026-04-18T07:29:44.018Z</time></trkpt><trkpt lat="43.4097219" lon="12.9235631"><ele>370.8333333333333</ele><time>2026-04-18T07:29:46.015Z</time></trkpt><trkpt lat="43.4096393" lon="12.9235625"><ele>366.6666666666667</ele><time>2026-04-18T07:29:48.018Z</time></trkpt><trkpt lat="43.4095712" lon="12.9235728"><ele>362.5</ele><time>2026-04-18T07:29:50.027Z</time></trkpt><trkpt lat="43.4094875" lon="12.923561"><ele>358.33333333333337</ele><time>2026-04-18T07:29:52.013Z</time></trkpt><trkpt lat="43.409397" lon="12.923537"><ele>354.1666666666667</ele><time>2026-04-18T07:29:54.016Z</time></trkpt><trkpt lat="43.4093039" lon="12.9235145"><ele>350.0</ele><time>2026-04-18T07:29:56.018Z</time></trkpt><trkpt lat="43.4091952" lon="12.9234752"><ele>350.0</ele><time>2026-04-18T07:29:58.018Z</time></trkpt><trkpt lat="43.4090924" lon="12.9234199"><ele>350.0</ele><time>2026-04-18T07:30:00.016Z</time></trkpt><trkpt lat="43.4089933" lon="12.9233795"><ele>350.0</ele><time>2026-04-18T07:30:02.012Z</time></trkpt><trkpt lat="43.4089" lon="12.9233369"><ele>350.0</ele><time>2026-04-18T07:30:04.011Z</time></trkpt><trkpt lat="43.4088406" lon="12.923297"><ele>350.0</ele><time>2026-04-18T07:30:05.017Z</time></trkpt><trkpt lat="43.4087401" lon="12.9232459"><ele>348.8</ele><time>2026-04-18T07:30:07.008Z</time></trkpt><trkpt lat="43.4086377" lon="12.9232011"><ele>347.6</ele><time>2026-04-18T07:30:09.013Z</time></trkpt><trkpt lat="43.4085429" lon="12.9231603"><ele>346.4</ele><time>2026-04-18T07:30:11.013Z</time></trkpt><trkpt lat="43.4084341" lon="12.9231312"><ele>345.2</ele><time>2026-04-18T07:30:13.02Z</time></trkpt><trkpt lat="43.4083119" lon="12.923117"><ele>344.0</ele><time>2026-04-18T07:30:15.011Z</time></trkpt><trkpt lat="43.4081977" lon="12.9231118"><ele>344.0</ele><time>2026-04-18T07:30:17.007Z</time></trkpt><trkpt lat="43.408075" lon="12.9231487"><ele>344.0</ele><time>2026-04-18T07:30:19.019Z</time></trkpt><trkpt lat="43.4079615" lon="12.9232222"><ele>344.0</ele><time>2026-04-18T07:30:21.014Z</time></trkpt><trkpt lat="43.407896" lon="12.9232718"><ele>344.0</ele><time>2026-04-18T07:30:22.018Z</time></trkpt><trkpt lat="43.4078003" lon="12.9233524"><ele>344.0</ele><time>2026-04-18T07:30:24.009Z</time></trkpt><trkpt lat="43.407726" lon="12.9234391"><ele>338.59999999999997</ele><time>2026-04-18T07:30:26.01Z</time></trkpt><trkpt lat="43.4076264" lon="12.9235196"><ele>333.2</ele><time>2026-04-18T07:30:28.027Z</time></trkpt><trkpt lat="43.4075171" lon="12.9235819"><ele>327.79999999999995</ele><time>2026-04-18T07:30:30.013Z</time></trkpt><trkpt lat="43.4074564" lon="12.923617"><ele>322.4</ele><time>2026-04-18T07:30:31.021Z</time></trkpt><trkpt lat="43.4073481" lon="12.9236772"><ele>317.0</ele><time>2026-04-18T07:30:33.015Z</time></trkpt><trkpt lat="43.4072342" lon="12.9237434"><ele>317.0</ele><time>2026-04-18T07:30:35.03Z</time></trkpt><trkpt lat="43.4071725" lon="12.923768"><ele>317.0</ele><time>2026-04-18T07:30:36.02Z</time></trkpt><trkpt lat="43.4070566" lon="12.9238069"><ele>317.0</ele><time>2026-04-18T07:30:38.01Z</time></trkpt><trkpt lat="43.4069387" lon="12.923832"><ele>317.0</ele><time>2026-04-18T07:30:40.015Z</time></trkpt><trkpt lat="43.4068193" lon="12.923872"><ele>317.0</ele><time>2026-04-18T07:30:42.021Z</time></trkpt><trkpt lat="43.406707" lon="12.9239008"><ele>315.83333333333337</ele><time>2026-04-18T07:30:44.016Z</time></trkpt><trkpt lat="43.4066443" lon="12.9239172"><ele>314.6666666666667</ele><time>2026-04-18T07:30:45.02Z</time></trkpt><trkpt lat="43.4065792" lon="12.9239353"><ele>313.5</ele><time>2026-04-18T07:30:46.017Z</time></trkpt><trkpt lat="43.4065086" lon="12.9239505"><ele>312.3333333333333</ele><time>2026-04-18T07:30:47.012Z</time></trkpt><trkpt lat="43.4064436" lon="12.9239239"><ele>311.16666666666663</ele><time>2026-04-18T07:30:48.018Z</time></trkpt><trkpt lat="43.4063532" lon="12.9238156"><ele>310.0</ele><time>2026-04-18T07:30:50.022Z</time></trkpt><trkpt lat="43.4062815" lon="12.9237064"><ele>306.8333333333333</ele><time>2026-04-18T07:30:52.02Z</time></trkpt><trkpt lat="43.4062008" lon="12.9235836"><ele>303.66666666666663</ele><time>2026-04-18T07:30:54.013Z</time></trkpt><trkpt lat="43.4061467" lon="12.923477"><ele>300.5</ele><time>2026-04-18T07:30:56.013Z</time></trkpt><trkpt lat="43.4060859" lon="12.9234268"><ele>297.3333333333333</ele><time>2026-04-18T07:30:59.02Z</time></trkpt><trkpt lat="43.4060463" lon="12.9234986"><ele>294.1666666666667</ele><time>2026-04-18T07:31:01.019Z</time></trkpt><trkpt lat="43.4060341" lon="12.9235863"><ele>291.0</ele><time>2026-04-18T07:31:02.016Z</time></trkpt><trkpt lat="43.406019" lon="12.9236905"><ele>291.0</ele><time>2026-04-18T07:31:03.011Z</time></trkpt><trkpt lat="43.4060206" lon="12.9238002"><ele>291.0</ele><time>2026-04-18T07:31:04.014Z</time></trkpt><trkpt lat="43.406045" lon="12.9239105"><ele>291.0</ele><time>2026-04-18T07:31:05.008Z</time></trkpt><trkpt lat="43.4060825" lon="12.9240254"><ele>291.0</ele><time>2026-04-18T07:31:06.025Z</time></trkpt><trkpt lat="43.4061277" lon="12.9241354"><ele>291.0</ele><time>2026-04-18T07:31:07.013Z</time></trkpt><trkpt lat="43.4061675" lon="12.9242474"><ele>291.0</ele><time>2026-04-18T07:31:08.015Z</time></trkpt><trkpt lat="43.4061916" lon="12.9243799"><ele>289.25</ele><time>2026-04-18T07:31:09.009Z</time></trkpt><trkpt lat="43.4061967" lon="12.9245198"><ele>287.5</ele><time>2026-04-18T07:31:10.016Z</time></trkpt><trkpt lat="43.4061869" lon="12.9246869"><ele>285.75</ele><time>2026-04-18T07:31:11.024Z</time></trkpt><trkpt lat="43.4061747" lon="12.9248597"><ele>284.0</ele><time>2026-04-18T07:31:12.017Z</time></trkpt><trkpt lat="43.4061625" lon="12.925026"><ele>284.2</ele><time>2026-04-18T07:31:13.007Z</time></trkpt><trkpt lat="43.4061498" lon="12.925174"><ele>284.4</ele><time>2026-04-18T07:31:14.019Z</time></trkpt><trkpt lat="43.4061343" lon="12.9253155"><ele>284.6</ele><time>2026-04-18T07:31:15.034Z</time></trkpt><trkpt lat="43.4061217" lon="12.9254518"><ele>284.8</ele><time>2026-04-18T07:31:16.023Z</time></trkpt><trkpt lat="43.406109" lon="12.925584"><ele>285.0</ele><time>2026-04-18T07:31:17.018Z</time></trkpt><trkpt lat="43.4060937" lon="12.9257076"><ele>285.0</ele><time>2026-04-18T07:31:18.025Z</time></trkpt><trkpt lat="43.4060768" lon="12.9258077"><ele>285.0</ele><time>2026-04-18T07:31:19.017Z</time></trkpt><trkpt lat="43.4060414" lon="12.9259195"><ele>285.0</ele><time>2026-04-18T07:31:21.011Z</time></trkpt><trkpt lat="43.4059665" lon="12.9259045"><ele>285.0</ele><time>2026-04-18T07:31:23.019Z</time></trkpt><trkpt lat="43.4058984" lon="12.9257894"><ele>285.0</ele><time>2026-04-18T07:31:25.013Z</time></trkpt><trkpt lat="43.4058676" lon="12.9257098"><ele>285.0</ele><time>2026-04-18T07:31:26.016Z</time></trkpt><trkpt lat="43.4058367" lon="12.9256173"><ele>285.0</ele><time>2026-04-18T07:31:27.006Z</time></trkpt><trkpt lat="43.4057921" lon="12.925536"><ele>285.0</ele><time>2026-04-18T07:31:28.014Z</time></trkpt><trkpt lat="43.4057376" lon="12.9254653"><ele>285.0</ele><time>2026-04-18T07:31:29.024Z</time></trkpt><trkpt lat="43.4056774" lon="12.9254097"><ele>285.0</ele><time>2026-04-18T07:31:30.01Z</time></trkpt><trkpt lat="43.4055823" lon="12.9253272"><ele>285.0</ele><time>2026-04-18T07:31:32.027Z</time></trkpt><trkpt lat="43.4054819" lon="12.9252316"><ele>282.8</ele><time>2026-04-18T07:31:34.025Z</time></trkpt><trkpt lat="43.4054481" lon="12.9251535"><ele>280.6</ele><time>2026-04-18T07:31:35.016Z</time></trkpt><trkpt lat="43.4054554" lon="12.9250539"><ele>278.4</ele><time>2026-04-18T07:31:36.021Z</time></trkpt><trkpt lat="43.4054577" lon="12.92488"><ele>276.2</ele><time>2026-04-18T07:31:38.011Z</time></trkpt><trkpt lat="43.4054353" lon="12.9247295"><ele>274.0</ele><time>2026-04-18T07:31:40.008Z</time></trkpt><trkpt lat="43.405379" lon="12.9245933"><ele>274.0</ele><time>2026-04-18T07:31:42.019Z</time></trkpt><trkpt lat="43.4053239" lon="12.9245414"><ele>274.0</ele><time>2026-04-18T07:31:45.011Z</time></trkpt><trkpt lat="43.4052646" lon="12.9246055"><ele>274.0</ele><time>2026-04-18T07:31:57.016Z</time></trkpt><trkpt lat="43.4051677" lon="12.9246439"><ele>274.0</ele><time>2026-04-18T07:32:00.019Z</time></trkpt><trkpt lat="43.4050811" lon="12.9247492"><ele>274.0</ele><time>2026-04-18T07:32:02.014Z</time></trkpt><trkpt lat="43.4049906" lon="12.9248517"><ele>274.0</ele><time>2026-04-18T07:32:04.024Z</time></trkpt><trkpt lat="43.4049048" lon="12.9249732"><ele>274.0</ele><time>2026-04-18T07:32:06.013Z</time></trkpt><trkpt lat="43.4048517" lon="12.9250333"><ele>274.0</ele><time>2026-04-18T07:32:07.014Z</time></trkpt><trkpt lat="43.4047966" lon="12.9250972"><ele>274.0</ele><time>2026-04-18T07:32:08.019Z</time></trkpt><trkpt lat="43.4047448" lon="12.9251591"><ele>274.0</ele><time>2026-04-18T07:32:09.019Z</time></trkpt><trkpt lat="43.4046883" lon="12.9252243"><ele>274.0</ele><time>2026-04-18T07:32:10.024Z</time></trkpt><trkpt lat="43.4046328" lon="12.9252793"><ele>273.0</ele><time>2026-04-18T07:32:11.016Z</time></trkpt><trkpt lat="43.4045793" lon="12.9253262"><ele>272.0</ele><time>2026-04-18T07:32:12.065Z</time></trkpt><trkpt lat="43.4044813" lon="12.9254085"><ele>271.0</ele><time>2026-04-18T07:32:14.018Z</time></trkpt><trkpt lat="43.4043982" lon="12.9254798"><ele>270.0</ele><time>2026-04-18T07:32:16.021Z</time></trkpt><trkpt lat="43.4043192" lon="12.9255448"><ele>269.0</ele><time>2026-04-18T07:32:18.027Z</time></trkpt><trkpt lat="43.4042566" lon="12.9256237"><ele>269.0</ele><time>2026-04-18T07:32:20.026Z</time></trkpt><trkpt lat="43.4042004" lon="12.9256733"><ele>269.0</ele><time>2026-04-18T07:32:22.021Z</time></trkpt><trkpt lat="43.4041315" lon="12.9256442"><ele>269.0</ele><time>2026-04-18T07:32:28.027Z</time></trkpt><trkpt lat="43.4040645" lon="12.9256362"><ele>269.0</ele><time>2026-04-18T07:32:32.031Z</time></trkpt><trkpt lat="43.4040412" lon="12.9257381"><ele>269.0</ele><time>2026-04-18T07:32:35.013Z</time></trkpt><trkpt lat="43.404022" lon="12.9258333"><ele>269.0</ele><time>2026-04-18T07:32:37.019Z</time></trkpt><trkpt lat="43.4039682" lon="12.92597"><ele>268.4</ele><time>2026-04-18T07:32:39.011Z</time></trkpt><trkpt lat="43.403919" lon="12.926106"><ele>267.79999999999995</ele><time>2026-04-18T07:32:41.013Z</time></trkpt><trkpt lat="43.4038948" lon="12.9262464"><ele>267.20000000000005</ele><time>2026-04-18T07:32:43.03Z</time></trkpt><trkpt lat="43.4038996" lon="12.92638"><ele>266.6</ele><time>2026-04-18T07:32:45.014Z</time></trkpt><trkpt lat="43.4038826" lon="12.9264751"><ele>266.0</ele><time>2026-04-18T07:32:47.018Z</time></trkpt><trkpt lat="43.4038024" lon="12.92645"><ele>267.6666666666667</ele><time>2026-04-18T07:32:50.024Z</time></trkpt><trkpt lat="43.4037644" lon="12.92636"><ele>269.33333333333337</ele><time>2026-04-18T07:32:52.016Z</time></trkpt><trkpt lat="43.4037041" lon="12.9262363"><ele>271.0</ele><time>2026-04-18T07:32:54.011Z</time></trkpt><trkpt lat="43.4036683" lon="12.9261598"><ele>272.6666666666667</ele><time>2026-04-18T07:32:55.013Z</time></trkpt><trkpt lat="43.4036285" lon="12.9260846"><ele>274.3333333333333</ele><time>2026-04-18T07:32:56.022Z</time></trkpt><trkpt lat="43.4035875" lon="12.9260169"><ele>276.0</ele><time>2026-04-18T07:32:57.008Z</time></trkpt><trkpt lat="43.4035323" lon="12.9258647"><ele>278.1666666666667</ele><time>2026-04-18T07:32:59.015Z</time></trkpt><trkpt lat="43.4034989" lon="12.9257049"><ele>280.3333333333333</ele><time>2026-04-18T07:33:01.012Z</time></trkpt><trkpt lat="43.4034518" lon="12.9256377"><ele>282.5</ele><time>2026-04-18T07:33:02.027Z</time></trkpt><trkpt lat="43.4033961" lon="12.9255811"><ele>284.66666666666663</ele><time>2026-04-18T07:33:03.015Z</time></trkpt><trkpt lat="43.4033349" lon="12.9255213"><ele>286.8333333333333</ele><time>2026-04-18T07:33:04.01Z</time></trkpt><trkpt lat="43.403276" lon="12.9254566"><ele>289.0</ele><time>2026-04-18T07:33:05.014Z</time></trkpt><trkpt lat="43.4032216" lon="12.9253901"><ele>289.0</ele><time>2026-04-18T07:33:06.017Z</time></trkpt><trkpt lat="43.403167" lon="12.9253289"><ele>289.0</ele><time>2026-04-18T07:33:07.014Z</time></trkpt><trkpt lat="43.403107" lon="12.9252896"><ele>289.0</ele><time>2026-04-18T07:33:08.007Z</time></trkpt><trkpt lat="43.4029913" lon="12.9252704"><ele>289.0</ele><time>2026-04-18T07:33:10.017Z</time></trkpt><trkpt lat="43.4028827" lon="12.9253304"><ele>289.0</ele><time>2026-04-18T07:33:12.017Z</time></trkpt><trkpt lat="43.4028066" lon="12.9253689"><ele>289.8333333333333</ele><time>2026-04-18T07:33:14.023Z</time></trkpt><trkpt lat="43.4027299" lon="12.9253726"><ele>290.66666666666663</ele><time>2026-04-18T07:33:17.019Z</time></trkpt><trkpt lat="43.4026564" lon="12.9253675"><ele>291.5</ele><time>2026-04-18T07:33:20.021Z</time></trkpt><trkpt lat="43.4025795" lon="12.9254095"><ele>292.3333333333333</ele><time>2026-04-18T07:33:23.015Z</time></trkpt><trkpt lat="43.4025191" lon="12.9254388"><ele>293.1666666666667</ele><time>2026-04-18T07:33:25.016Z</time></trkpt><trkpt lat="43.4024447" lon="12.9254766"><ele>294.0</ele><time>2026-04-18T07:33:27.002Z</time></trkpt><trkpt lat="43.4023595" lon="12.9255267"><ele>294.0</ele><time>2026-04-18T07:33:29.016Z</time></trkpt><trkpt lat="43.4022451" lon="12.9255786"><ele>294.0</ele><time>2026-04-18T07:33:31.017Z</time></trkpt><trkpt lat="43.4021425" lon="12.9255722"><ele>294.0</ele><time>2026-04-18T07:33:33.02Z</time></trkpt><trkpt lat="43.4020656" lon="12.9254681"><ele>294.0</ele><time>2026-04-18T07:33:35.024Z</time></trkpt><trkpt lat="43.4019946" lon="12.9253324"><ele>295.0</ele><time>2026-04-18T07:33:37.014Z</time></trkpt><trkpt lat="43.4019333" lon="12.9252379"><ele>296.0</ele><time>2026-04-18T07:33:39.015Z</time></trkpt><trkpt lat="43.401856" lon="12.9251487"><ele>297.0</ele><time>2026-04-18T07:33:41.008Z</time></trkpt><trkpt lat="43.4017541" lon="12.9250793"><ele>298.0</ele><time>2026-04-18T07:33:43.01Z</time></trkpt><trkpt lat="43.4016928" lon="12.9250501"><ele>299.0</ele><time>2026-04-18T07:33:44.016Z</time></trkpt><trkpt lat="43.4016273" lon="12.9250453"><ele>300.0</ele><time>2026-04-18T07:33:45.015Z</time></trkpt><trkpt lat="43.4015229" lon="12.9250938"><ele>300.0</ele><time>2026-04-18T07:33:47.011Z</time></trkpt><trkpt lat="43.4014237" lon="12.9251548"><ele>300.0</ele><time>2026-04-18T07:33:49.013Z</time></trkpt><trkpt lat="43.4013204" lon="12.9252052"><ele>300.0</ele><time>2026-04-18T07:33:51.017Z</time></trkpt><trkpt lat="43.4012041" lon="12.9252688"><ele>300.0</ele><time>2026-04-18T07:33:53.014Z</time></trkpt><trkpt lat="43.4011409" lon="12.9253153"><ele>300.0</ele><time>2026-04-18T07:33:54.019Z</time></trkpt><trkpt lat="43.4010914" lon="12.9253807"><ele>300.6</ele><time>2026-04-18T07:33:55.021Z</time></trkpt><trkpt lat="43.4010443" lon="12.9255085"><ele>301.2</ele><time>2026-04-18T07:33:57.011Z</time></trkpt><trkpt lat="43.4009906" lon="12.9256023"><ele>301.8</ele><time>2026-04-18T07:33:59.017Z</time></trkpt><trkpt lat="43.4008882" lon="12.9256237"><ele>302.4</ele><time>2026-04-18T07:34:01.016Z</time></trkpt><trkpt lat="43.4007846" lon="12.925591"><ele>303.0</ele><time>2026-04-18T07:34:03.027Z</time></trkpt><trkpt lat="43.4007192" lon="12.9255245"><ele>303.0</ele><time>2026-04-18T07:34:05.008Z</time></trkpt><trkpt lat="43.4006267" lon="12.9254238"><ele>303.0</ele><time>2026-04-18T07:34:07.009Z</time></trkpt><trkpt lat="43.4005304" lon="12.9253584"><ele>303.0</ele><time>2026-04-18T07:34:09.023Z</time></trkpt><trkpt lat="43.4004457" lon="12.9253927"><ele>303.0</ele><time>2026-04-18T07:34:11.012Z</time></trkpt><trkpt lat="43.4003968" lon="12.9254911"><ele>303.0</ele><time>2026-04-18T07:34:13.012Z</time></trkpt><trkpt lat="43.4003726" lon="12.9255755"><ele>304.6666666666667</ele><time>2026-04-18T07:34:14.017Z</time></trkpt><trkpt lat="43.4003516" lon="12.9256647"><ele>306.3333333333333</ele><time>2026-04-18T07:34:15.012Z</time></trkpt><trkpt lat="43.4003585" lon="12.9258227"><ele>308.0</ele><time>2026-04-18T07:34:17.025Z</time></trkpt><trkpt lat="43.4003618" lon="12.9259199"><ele>309.66666666666663</ele><time>2026-04-18T07:34:18.022Z</time></trkpt><trkpt lat="43.4003569" lon="12.926021"><ele>311.3333333333333</ele><time>2026-04-18T07:34:19.012Z</time></trkpt><trkpt lat="43.4003399" lon="12.926116"><ele>313.0</ele><time>2026-04-18T07:34:20.022Z</time></trkpt><trkpt lat="43.4003225" lon="12.9262146"><ele>313.2</ele><time>2026-04-18T07:34:21.023Z</time></trkpt><trkpt lat="43.4003037" lon="12.9263117"><ele>313.4</ele><time>2026-04-18T07:34:22.015Z</time></trkpt><trkpt lat="43.4002632" lon="12.9264577"><ele>313.59999999999997</ele><time>2026-04-18T07:34:24.02Z</time></trkpt><trkpt lat="43.4002308" lon="12.9265795"><ele>313.8</ele><time>2026-04-18T07:34:26.012Z</time></trkpt><trkpt lat="43.4002033" lon="12.9267047"><ele>314.0</ele><time>2026-04-18T07:34:28.019Z</time></trkpt><trkpt lat="43.4002248" lon="12.9268374"><ele>316.79999999999995</ele><time>2026-04-18T07:34:30.015Z</time></trkpt><trkpt lat="43.4002919" lon="12.9269685"><ele>319.59999999999997</ele><time>2026-04-18T07:34:32.015Z</time></trkpt><trkpt lat="43.4003244" lon="12.9271401"><ele>322.4</ele><time>2026-04-18T07:34:34.021Z</time></trkpt><trkpt lat="43.4003223" lon="12.9272515"><ele>325.2</ele><time>2026-04-18T07:34:35.013Z</time></trkpt><trkpt lat="43.4003315" lon="12.9273534"><ele>328.0</ele><time>2026-04-18T07:34:36.014Z</time></trkpt><trkpt lat="43.4003546" lon="12.9274741"><ele>327.5</ele><time>2026-04-18T07:34:37.015Z</time></trkpt><trkpt lat="43.4003693" lon="12.9275854"><ele>327.0</ele><time>2026-04-18T07:34:38.013Z</time></trkpt><trkpt lat="43.40039" lon="12.9276912"><ele>326.5</ele><time>2026-04-18T07:34:39.012Z</time></trkpt><trkpt lat="43.400425" lon="12.9278059"><ele>326.0</ele><time>2026-04-18T07:34:40.017Z</time></trkpt><trkpt lat="43.4004659" lon="12.9279201"><ele>325.5</ele><time>2026-04-18T07:34:41.016Z</time></trkpt><trkpt lat="43.4005176" lon="12.9280365"><ele>325.0</ele><time>2026-04-18T07:34:42.01Z</time></trkpt><trkpt lat="43.4005749" lon="12.9281459"><ele>325.0</ele><time>2026-04-18T07:34:43.008Z</time></trkpt><trkpt lat="43.4006362" lon="12.9282585"><ele>325.0</ele><time>2026-04-18T07:34:44.014Z</time></trkpt><trkpt lat="43.400693" lon="12.9283665"><ele>325.0</ele><time>2026-04-18T07:34:45.015Z</time></trkpt><trkpt lat="43.4007506" lon="12.9284524"><ele>325.0</ele><time>2026-04-18T07:34:46.015Z</time></trkpt><trkpt lat="43.4008135" lon="12.9285175"><ele>325.0</ele><time>2026-04-18T07:34:47.016Z</time></trkpt><trkpt lat="43.4008841" lon="12.9285744"><ele>325.0</ele><time>2026-04-18T07:34:48.012Z</time></trkpt><trkpt lat="43.4009624" lon="12.9286122"><ele>325.66666666666663</ele><time>2026-04-18T07:34:49.018Z</time></trkpt><trkpt lat="43.4010389" lon="12.9286544"><ele>326.3333333333333</ele><time>2026-04-18T07:34:50.013Z</time></trkpt><trkpt lat="43.4011155" lon="12.9287066"><ele>327.0</ele><time>2026-04-18T07:34:51.005Z</time></trkpt><trkpt lat="43.4011879" lon="12.9287717"><ele>327.6666666666667</ele><time>2026-04-18T07:34:52.013Z</time></trkpt><trkpt lat="43.4012597" lon="12.9288481"><ele>328.33333333333337</ele><time>2026-04-18T07:34:53.014Z</time></trkpt><trkpt lat="43.4013304" lon="12.9289383"><ele>329.0</ele><time>2026-04-18T07:34:54.009Z</time></trkpt><trkpt lat="43.4013872" lon="12.9290296"><ele>329.0</ele><time>2026-04-18T07:34:55.023Z</time></trkpt><trkpt lat="43.4014264" lon="12.9291304"><ele>329.0</ele><time>2026-04-18T07:34:56.013Z</time></trkpt><trkpt lat="43.401438" lon="12.9292295"><ele>329.0</ele><time>2026-04-18T07:34:57.023Z</time></trkpt><trkpt lat="43.4014355" lon="12.9293494"><ele>329.0</ele><time>2026-04-18T07:34:59.008Z</time></trkpt><trkpt lat="43.4013831" lon="12.9294094"><ele>329.0</ele><time>2026-04-18T07:35:01.014Z</time></trkpt><trkpt lat="43.40128" lon="12.9294396"><ele>329.0</ele><time>2026-04-18T07:35:03.019Z</time></trkpt><trkpt lat="43.4011647" lon="12.9294467"><ele>334.2</ele><time>2026-04-18T07:35:05.018Z</time></trkpt><trkpt lat="43.4010958" lon="12.9294633"><ele>339.4</ele><time>2026-04-18T07:35:06.014Z</time></trkpt><trkpt lat="43.4010155" lon="12.9294951"><ele>344.6</ele><time>2026-04-18T07:35:07.016Z</time></trkpt><trkpt lat="43.4009179" lon="12.9295322"><ele>349.8</ele><time>2026-04-18T07:35:08.021Z</time></trkpt><trkpt lat="43.4008248" lon="12.9295632"><ele>355.0</ele><time>2026-04-18T07:35:09.022Z</time></trkpt><trkpt lat="43.4007229" lon="12.9295868"><ele>355.0</ele><time>2026-04-18T07:35:10.015Z</time></trkpt><trkpt lat="43.4006173" lon="12.9296225"><ele>355.0</ele><time>2026-04-18T07:35:11.014Z</time></trkpt><trkpt lat="43.4005131" lon="12.9296734"><ele>355.0</ele><time>2026-04-18T07:35:12.018Z</time></trkpt><trkpt lat="43.4004069" lon="12.9297324"><ele>355.0</ele><time>2026-04-18T07:35:13.016Z</time></trkpt><trkpt lat="43.4003094" lon="12.9297879"><ele>355.0</ele><time>2026-04-18T07:35:14.012Z</time></trkpt><trkpt lat="43.4002194" lon="12.9298413"><ele>357.2857142857143</ele><time>2026-04-18T07:35:15.015Z</time></trkpt><trkpt lat="43.4001422" lon="12.9298885"><ele>359.57142857142856</ele><time>2026-04-18T07:35:16.022Z</time></trkpt><trkpt lat="43.4000712" lon="12.9299267"><ele>361.8571428571429</ele><time>2026-04-18T07:35:17.012Z</time></trkpt><trkpt lat="43.4000061" lon="12.9299263"><ele>364.1428571428571</ele><time>2026-04-18T07:35:18.018Z</time></trkpt><trkpt lat="43.3999419" lon="12.929899"><ele>366.42857142857144</ele><time>2026-04-18T07:35:19.016Z</time></trkpt><trkpt lat="43.3998801" lon="12.9298648"><ele>368.7142857142857</ele><time>2026-04-18T07:35:20.017Z</time></trkpt><trkpt lat="43.3998259" lon="12.9298095"><ele>371.0</ele><time>2026-04-18T07:35:21.011Z</time></trkpt><trkpt lat="43.3997332" lon="12.9297107"><ele>373.0</ele><time>2026-04-18T07:35:23.011Z</time></trkpt><trkpt lat="43.399632" lon="12.9296316"><ele>375.0</ele><time>2026-04-18T07:35:25.013Z</time></trkpt><trkpt lat="43.3995688" lon="12.9296063"><ele>377.0</ele><time>2026-04-18T07:35:26.015Z</time></trkpt><trkpt lat="43.3994706" lon="12.9296305"><ele>379.0</ele><time>2026-04-18T07:35:28.028Z</time></trkpt><trkpt lat="43.3993692" lon="12.9296093"><ele>381.0</ele><time>2026-04-18T07:35:30.025Z</time></trkpt><trkpt lat="43.3992849" lon="12.9295714"><ele>381.0</ele><time>2026-04-18T07:35:32.021Z</time></trkpt><trkpt lat="43.3992194" lon="12.9295196"><ele>381.0</ele><time>2026-04-18T07:35:34.012Z</time></trkpt><trkpt lat="43.3991504" lon="12.9295057"><ele>381.0</ele><time>2026-04-18T07:35:36.03Z</time></trkpt><trkpt lat="43.3990391" lon="12.9294706"><ele>381.0</ele><time>2026-04-18T07:35:38.021Z</time></trkpt><trkpt lat="43.3989722" lon="12.9294366"><ele>381.0</ele><time>2026-04-18T07:35:39.012Z</time></trkpt><trkpt lat="43.3988981" lon="12.9293839"><ele>381.0</ele><time>2026-04-18T07:35:40.019Z</time></trkpt><trkpt lat="43.3988124" lon="12.9293337"><ele>379.6</ele><time>2026-04-18T07:35:41.02Z</time></trkpt><trkpt lat="43.3987197" lon="12.9292747"><ele>378.20000000000005</ele><time>2026-04-18T07:35:42.012Z</time></trkpt><trkpt lat="43.3986327" lon="12.9292013"><ele>376.79999999999995</ele><time>2026-04-18T07:35:43.009Z</time></trkpt><trkpt lat="43.398552" lon="12.9291232"><ele>375.4</ele><time>2026-04-18T07:35:44.015Z</time></trkpt><trkpt lat="43.3984627" lon="12.9290604"><ele>374.0</ele><time>2026-04-18T07:35:45.02Z</time></trkpt><trkpt lat="43.3983766" lon="12.9290141"><ele>374.0</ele><time>2026-04-18T07:35:46.018Z</time></trkpt><trkpt lat="43.3983038" lon="12.9289783"><ele>374.0</ele><time>2026-04-18T07:35:47.018Z</time></trkpt><trkpt lat="43.3982384" lon="12.9289578"><ele>374.0</ele><time>2026-04-18T07:35:48.018Z</time></trkpt><trkpt lat="43.3981389" lon="12.9289685"><ele>374.0</ele><time>2026-04-18T07:35:50.02Z</time></trkpt><trkpt lat="43.3980989" lon="12.9291228"><ele>374.0</ele><time>2026-04-18T07:35:52.029Z</time></trkpt><trkpt lat="43.3980865" lon="12.9292244"><ele>374.0</ele><time>2026-04-18T07:35:53.006Z</time></trkpt><trkpt lat="43.398077" lon="12.9293423"><ele>372.83333333333337</ele><time>2026-04-18T07:35:54.013Z</time></trkpt><trkpt lat="43.3980657" lon="12.9294813"><ele>371.6666666666667</ele><time>2026-04-18T07:35:55.015Z</time></trkpt><trkpt lat="43.3980426" lon="12.9296103"><ele>370.5</ele><time>2026-04-18T07:35:56.014Z</time></trkpt><trkpt lat="43.3979992" lon="12.9297215"><ele>369.3333333333333</ele><time>2026-04-18T07:35:57.018Z</time></trkpt><trkpt lat="43.3979313" lon="12.9297878"><ele>368.16666666666663</ele><time>2026-04-18T07:35:58.022Z</time></trkpt><trkpt lat="43.3978564" lon="12.9297974"><ele>367.0</ele><time>2026-04-18T07:35:59.007Z</time></trkpt><trkpt lat="43.397782" lon="12.9297572"><ele>363.40000000000003</ele><time>2026-04-18T07:36:00.016Z</time></trkpt><trkpt lat="43.3977195" lon="12.9296595"><ele>359.8</ele><time>2026-04-18T07:36:01Z</time></trkpt><trkpt lat="43.3976454" lon="12.9295574"><ele>356.2</ele><time>2026-04-18T07:36:02.037Z</time></trkpt><trkpt lat="43.3975568" lon="12.9294563"><ele>352.6</ele><time>2026-04-18T07:36:03.023Z</time></trkpt><trkpt lat="43.3974672" lon="12.9293564"><ele>349.0</ele><time>2026-04-18T07:36:04.011Z</time></trkpt><trkpt lat="43.3973798" lon="12.9292628"><ele>350.79999999999995</ele><time>2026-04-18T07:36:05.016Z</time></trkpt><trkpt lat="43.3972934" lon="12.9291837"><ele>352.59999999999997</ele><time>2026-04-18T07:36:06.01Z</time></trkpt><trkpt lat="43.3972053" lon="12.9291121"><ele>354.4</ele><time>2026-04-18T07:36:07.01Z</time></trkpt><trkpt lat="43.3971257" lon="12.9290398"><ele>356.2</ele><time>2026-04-18T07:36:08.011Z</time></trkpt><trkpt lat="43.397052" lon="12.9289779"><ele>358.0</ele><time>2026-04-18T07:36:09.019Z</time></trkpt><trkpt lat="43.3969843" lon="12.9289224"><ele>353.79999999999995</ele><time>2026-04-18T07:36:10.012Z</time></trkpt><trkpt lat="43.3968853" lon="12.928881"><ele>349.6</ele><time>2026-04-18T07:36:12.019Z</time></trkpt><trkpt lat="43.3968433" lon="12.9290072"><ele>345.4</ele><time>2026-04-18T07:36:14.018Z</time></trkpt><trkpt lat="43.3968657" lon="12.9291061"><ele>341.20000000000005</ele><time>2026-04-18T07:36:15.007Z</time></trkpt><trkpt lat="43.396916" lon="12.9292119"><ele>337.0</ele><time>2026-04-18T07:36:16.011Z</time></trkpt><trkpt lat="43.3969598" lon="12.9293502"><ele>334.20000000000005</ele><time>2026-04-18T07:36:17.005Z</time></trkpt><trkpt lat="43.3969797" lon="12.929502"><ele>331.4</ele><time>2026-04-18T07:36:18.01Z</time></trkpt><trkpt lat="43.3969808" lon="12.9296489"><ele>328.6</ele><time>2026-04-18T07:36:19.017Z</time></trkpt><trkpt lat="43.3969856" lon="12.9297894"><ele>325.79999999999995</ele><time>2026-04-18T07:36:20.061Z</time></trkpt><trkpt lat="43.3970038" lon="12.9299183"><ele>323.0</ele><time>2026-04-18T07:36:21.017Z</time></trkpt><trkpt lat="43.397045" lon="12.9300449"><ele>323.59999999999997</ele><time>2026-04-18T07:36:22.021Z</time></trkpt><trkpt lat="43.3971124" lon="12.9301531"><ele>324.2</ele><time>2026-04-18T07:36:23.015Z</time></trkpt><trkpt lat="43.3971858" lon="12.9302618"><ele>324.8</ele><time>2026-04-18T07:36:24.01Z</time></trkpt><trkpt lat="43.3972589" lon="12.9303862"><ele>325.4</ele><time>2026-04-18T07:36:25.016Z</time></trkpt><trkpt lat="43.3973232" lon="12.9305191"><ele>326.0</ele><time>2026-04-18T07:36:26.013Z</time></trkpt><trkpt lat="43.3973814" lon="12.9306655"><ele>326.0</ele><time>2026-04-18T07:36:27.017Z</time></trkpt><trkpt lat="43.397426" lon="12.9308101"><ele>326.0</ele><time>2026-04-18T07:36:28.008Z</time></trkpt><trkpt lat="43.3974583" lon="12.9309589"><ele>326.0</ele><time>2026-04-18T07:36:29.006Z</time></trkpt><trkpt lat="43.3974785" lon="12.9310989"><ele>326.0</ele><time>2026-04-18T07:36:30.012Z</time></trkpt><trkpt lat="43.3974959" lon="12.9312312"><ele>326.0</ele><time>2026-04-18T07:36:31.012Z</time></trkpt><trkpt lat="43.397497" lon="12.9313675"><ele>322.2</ele><time>2026-04-18T07:36:32.01Z</time></trkpt><trkpt lat="43.397459" lon="12.9314987"><ele>318.40000000000003</ele><time>2026-04-18T07:36:33.007Z</time></trkpt><trkpt lat="43.3973814" lon="12.9315925"><ele>314.6</ele><time>2026-04-18T07:36:34.008Z</time></trkpt><trkpt lat="43.3972973" lon="12.9316749"><ele>310.8</ele><time>2026-04-18T07:36:35.009Z</time></trkpt><trkpt lat="43.3972137" lon="12.9317424"><ele>307.0</ele><time>2026-04-18T07:36:36.02Z</time></trkpt><trkpt lat="43.3971193" lon="12.9317955"><ele>300.6</ele><time>2026-04-18T07:36:37.018Z</time></trkpt><trkpt lat="43.3970254" lon="12.9318465"><ele>294.2</ele><time>2026-04-18T07:36:38.017Z</time></trkpt><trkpt lat="43.3969188" lon="12.9318939"><ele>287.8</ele><time>2026-04-18T07:36:39.015Z</time></trkpt><trkpt lat="43.3968126" lon="12.9319185"><ele>281.4</ele><time>2026-04-18T07:36:40.018Z</time></trkpt><trkpt lat="43.3967114" lon="12.9319143"><ele>275.0</ele><time>2026-04-18T07:36:41.012Z</time></trkpt><trkpt lat="43.3966273" lon="12.9318827"><ele>275.0</ele><time>2026-04-18T07:36:42.025Z</time></trkpt><trkpt lat="43.3965781" lon="12.9318205"><ele>275.0</ele><time>2026-04-18T07:36:43.006Z</time></trkpt><trkpt lat="43.3965854" lon="12.931706"><ele>275.0</ele><time>2026-04-18T07:36:44.019Z</time></trkpt><trkpt lat="43.3966198" lon="12.931602"><ele>275.0</ele><time>2026-04-18T07:36:45.015Z</time></trkpt><trkpt lat="43.3966228" lon="12.931506"><ele>275.0</ele><time>2026-04-18T07:36:46.01Z</time></trkpt><trkpt lat="43.3965939" lon="12.9313963"><ele>275.0</ele><time>2026-04-18T07:36:47.016Z</time></trkpt><trkpt lat="43.396537" lon="12.9313099"><ele>274.6666666666667</ele><time>2026-04-18T07:36:48.004Z</time></trkpt><trkpt lat="43.3964743" lon="12.9312379"><ele>274.33333333333337</ele><time>2026-04-18T07:36:49.009Z</time></trkpt><trkpt lat="43.3964098" lon="12.931177"><ele>274.0</ele><time>2026-04-18T07:36:50.016Z</time></trkpt><trkpt lat="43.3963419" lon="12.931167"><ele>273.6666666666667</ele><time>2026-04-18T07:36:51.014Z</time></trkpt><trkpt lat="43.3962753" lon="12.9312059"><ele>273.3333333333333</ele><time>2026-04-18T07:36:52.017Z</time></trkpt><trkpt lat="43.3962136" lon="12.9312868"><ele>273.0</ele><time>2026-04-18T07:36:53.014Z</time></trkpt><trkpt lat="43.3961696" lon="12.9313883"><ele>273.0</ele><time>2026-04-18T07:36:54.012Z</time></trkpt><trkpt lat="43.3961178" lon="12.9314906"><ele>273.0</ele><time>2026-04-18T07:36:55.014Z</time></trkpt><trkpt lat="43.3960599" lon="12.9315809"><ele>273.0</ele><time>2026-04-18T07:36:56.017Z</time></trkpt><trkpt lat="43.3959902" lon="12.9316603"><ele>273.0</ele><time>2026-04-18T07:36:57.003Z</time></trkpt><trkpt lat="43.3959119" lon="12.9317043"><ele>273.0</ele><time>2026-04-18T07:36:58.011Z</time></trkpt><trkpt lat="43.3958312" lon="12.931715"><ele>273.0</ele><time>2026-04-18T07:36:59.012Z</time></trkpt><trkpt lat="43.3957485" lon="12.9317192"><ele>273.0</ele><time>2026-04-18T07:37:00.002Z</time></trkpt><trkpt lat="43.3956647" lon="12.9317021"><ele>273.0</ele><time>2026-04-18T07:37:01.005Z</time></trkpt><trkpt lat="43.395578" lon="12.9316896"><ele>273.0</ele><time>2026-04-18T07:37:02.027Z</time></trkpt><trkpt lat="43.3954894" lon="12.9317056"><ele>273.0</ele><time>2026-04-18T07:37:03.007Z</time></trkpt><trkpt lat="43.3954049" lon="12.9317563"><ele>273.0</ele><time>2026-04-18T07:37:04.011Z</time></trkpt><trkpt lat="43.3953441" lon="12.9318385"><ele>273.0</ele><time>2026-04-18T07:37:05.015Z</time></trkpt><trkpt lat="43.3953109" lon="12.9319326"><ele>269.4</ele><time>2026-04-18T07:37:06.007Z</time></trkpt><trkpt lat="43.3952072" lon="12.9320218"><ele>265.8</ele><time>2026-04-18T07:37:08.017Z</time></trkpt><trkpt lat="43.3951322" lon="12.9319858"><ele>262.2</ele><time>2026-04-18T07:37:09.012Z</time></trkpt><trkpt lat="43.395049" lon="12.9319129"><ele>258.6</ele><time>2026-04-18T07:37:10.022Z</time></trkpt><trkpt lat="43.3949689" lon="12.931867"><ele>255.0</ele><time>2026-04-18T07:37:11.009Z</time></trkpt><trkpt lat="43.3948842" lon="12.9318153"><ele>255.0</ele><time>2026-04-18T07:37:12.018Z</time></trkpt><trkpt lat="43.3948111" lon="12.9317756"><ele>255.0</ele><time>2026-04-18T07:37:13.014Z</time></trkpt><trkpt lat="43.3947245" lon="12.9317628"><ele>255.0</ele><time>2026-04-18T07:37:15.008Z</time></trkpt><trkpt lat="43.3946894" lon="12.9318433"><ele>255.0</ele><time>2026-04-18T07:37:17.013Z</time></trkpt><trkpt lat="43.3947375" lon="12.9319917"><ele>255.0</ele><time>2026-04-18T07:37:19.013Z</time></trkpt><trkpt lat="43.3947919" lon="12.9320963"><ele>255.0</ele><time>2026-04-18T07:37:20.017Z</time></trkpt><trkpt lat="43.3948314" lon="12.9321885"><ele>255.0</ele><time>2026-04-18T07:37:21.021Z</time></trkpt><trkpt lat="43.3947995" lon="12.9323351"><ele>255.0</ele><time>2026-04-18T07:37:23.005Z</time></trkpt><trkpt lat="43.3947312" lon="12.9323917"><ele>255.0</ele><time>2026-04-18T07:37:24.009Z</time></trkpt><trkpt lat="43.3946367" lon="12.9324413"><ele>255.0</ele><time>2026-04-18T07:37:25.013Z</time></trkpt><trkpt lat="43.3945262" lon="12.9324843"><ele>255.0</ele><time>2026-04-18T07:37:26.014Z</time></trkpt><trkpt lat="43.3944084" lon="12.9325006"><ele>255.0</ele><time>2026-04-18T07:37:27.007Z</time></trkpt><trkpt lat="43.3943011" lon="12.9324719"><ele>255.0</ele><time>2026-04-18T07:37:28.018Z</time></trkpt><trkpt lat="43.3942179" lon="12.9324058"><ele>255.0</ele><time>2026-04-18T07:37:29.025Z</time></trkpt><trkpt lat="43.3941545" lon="12.9323608"><ele>255.0</ele><time>2026-04-18T07:37:30.01Z</time></trkpt><trkpt lat="43.3941153" lon="12.9324345"><ele>255.0</ele><time>2026-04-18T07:37:32.006Z</time></trkpt><trkpt lat="43.3941462" lon="12.9325179"><ele>255.0</ele><time>2026-04-18T07:37:33.011Z</time></trkpt><trkpt lat="43.3942014" lon="12.9326117"><ele>258.6</ele><time>2026-04-18T07:37:34.015Z</time></trkpt><trkpt lat="43.3942686" lon="12.9327117"><ele>262.2</ele><time>2026-04-18T07:37:35.019Z</time></trkpt><trkpt lat="43.3943333" lon="12.9328281"><ele>265.8</ele><time>2026-04-18T07:37:36.012Z</time></trkpt><trkpt lat="43.3943998" lon="12.932951"><ele>269.4</ele><time>2026-04-18T07:37:37.008Z</time></trkpt><trkpt lat="43.3944803" lon="12.9330656"><ele>273.0</ele><time>2026-04-18T07:37:38.014Z</time></trkpt><trkpt lat="43.394556" lon="12.9331566"><ele>273.0</ele><time>2026-04-18T07:37:39.007Z</time></trkpt><trkpt lat="43.3946171" lon="12.9332259"><ele>273.0</ele><time>2026-04-18T07:37:40.018Z</time></trkpt><trkpt lat="43.3946745" lon="12.933272"><ele>273.0</ele><time>2026-04-18T07:37:41.015Z</time></trkpt><trkpt lat="43.3947496" lon="12.9333314"><ele>273.0</ele><time>2026-04-18T07:37:43.017Z</time></trkpt><trkpt lat="43.3948526" lon="12.9334333"><ele>273.0</ele><time>2026-04-18T07:37:45.01Z</time></trkpt><trkpt lat="43.3949169" lon="12.9334875"><ele>273.0</ele><time>2026-04-18T07:37:46.017Z</time></trkpt><trkpt lat="43.3949856" lon="12.9335348"><ele>278.8</ele><time>2026-04-18T07:37:47.017Z</time></trkpt><trkpt lat="43.3950623" lon="12.9335828"><ele>284.6</ele><time>2026-04-18T07:37:48.011Z</time></trkpt><trkpt lat="43.3951462" lon="12.9336267"><ele>290.4</ele><time>2026-04-18T07:37:49.016Z</time></trkpt><trkpt lat="43.3952481" lon="12.9336544"><ele>296.2</ele><time>2026-04-18T07:37:50.017Z</time></trkpt><trkpt lat="43.3953457" lon="12.9336776"><ele>302.0</ele><time>2026-04-18T07:37:51.012Z</time></trkpt><trkpt lat="43.3954252" lon="12.9337248"><ele>302.0</ele><time>2026-04-18T07:37:52.018Z</time></trkpt><trkpt lat="43.3954844" lon="12.9338189"><ele>302.0</ele><time>2026-04-18T07:37:53.002Z</time></trkpt><trkpt lat="43.395543" lon="12.9339286"><ele>302.0</ele><time>2026-04-18T07:37:54.016Z</time></trkpt><trkpt lat="43.3956026" lon="12.9340446"><ele>302.0</ele><time>2026-04-18T07:37:55.017Z</time></trkpt><trkpt lat="43.3956701" lon="12.9341702"><ele>302.0</ele><time>2026-04-18T07:37:56.011Z</time></trkpt><trkpt lat="43.3957405" lon="12.9342933"><ele>303.0</ele><time>2026-04-18T07:37:57.015Z</time></trkpt><trkpt lat="43.3958233" lon="12.9344076"><ele>304.0</ele><time>2026-04-18T07:37:58.016Z</time></trkpt><trkpt lat="43.3959148" lon="12.9345313"><ele>305.0</ele><time>2026-04-18T07:37:59.008Z</time></trkpt><trkpt lat="43.3960101" lon="12.9346586"><ele>306.0</ele><time>2026-04-18T07:38:00.012Z</time></trkpt><trkpt lat="43.3961096" lon="12.9347793"><ele>306.0</ele><time>2026-04-18T07:38:01.016Z</time></trkpt><trkpt lat="43.3962085" lon="12.9348906"><ele>306.0</ele><time>2026-04-18T07:38:02.011Z</time></trkpt><trkpt lat="43.3963102" lon="12.9349946"><ele>306.0</ele><time>2026-04-18T07:38:03.006Z</time></trkpt><trkpt lat="43.3964167" lon="12.9350961"><ele>306.0</ele><time>2026-04-18T07:38:04.008Z</time></trkpt><trkpt lat="43.3965262" lon="12.9351957"><ele>308.6</ele><time>2026-04-18T07:38:05.01Z</time></trkpt><trkpt lat="43.3966362" lon="12.93528"><ele>311.20000000000005</ele><time>2026-04-18T07:38:06.012Z</time></trkpt><trkpt lat="43.3967518" lon="12.9353403"><ele>313.79999999999995</ele><time>2026-04-18T07:38:07.011Z</time></trkpt><trkpt lat="43.3968497" lon="12.9353758"><ele>316.4</ele><time>2026-04-18T07:38:08.014Z</time></trkpt><trkpt lat="43.3969329" lon="12.9354063"><ele>319.0</ele><time>2026-04-18T07:38:09.002Z</time></trkpt><trkpt lat="43.3970109" lon="12.9354274"><ele>319.0</ele><time>2026-04-18T07:38:10.016Z</time></trkpt><trkpt lat="43.3970785" lon="12.9354596"><ele>319.0</ele><time>2026-04-18T07:38:11.015Z</time></trkpt><trkpt lat="43.3971421" lon="12.9355126"><ele>319.0</ele><time>2026-04-18T07:38:12.016Z</time></trkpt><trkpt lat="43.3971975" lon="12.9355779"><ele>319.0</ele><time>2026-04-18T07:38:13.009Z</time></trkpt><trkpt lat="43.3972436" lon="12.9356391"><ele>319.0</ele><time>2026-04-18T07:38:14.012Z</time></trkpt><trkpt lat="43.3972652" lon="12.9357623"><ele>319.0</ele><time>2026-04-18T07:38:16.006Z</time></trkpt><trkpt lat="43.3972555" lon="12.9358529"><ele>319.0</ele><time>2026-04-18T07:38:18.009Z</time></trkpt><trkpt lat="43.3972768" lon="12.9359879"><ele>318.59999999999997</ele><time>2026-04-18T07:38:20.033Z</time></trkpt><trkpt lat="43.3973194" lon="12.9361297"><ele>318.2</ele><time>2026-04-18T07:38:22.017Z</time></trkpt><trkpt lat="43.3973554" lon="12.9362947"><ele>317.79999999999995</ele><time>2026-04-18T07:38:24.011Z</time></trkpt><trkpt lat="43.3973443" lon="12.9363915"><ele>317.4</ele><time>2026-04-18T07:38:25.009Z</time></trkpt><trkpt lat="43.3973144" lon="12.9364839"><ele>317.0</ele><time>2026-04-18T07:38:26.017Z</time></trkpt><trkpt lat="43.3972701" lon="12.9365789"><ele>317.0</ele><time>2026-04-18T07:38:27.001Z</time></trkpt><trkpt lat="43.3972242" lon="12.9366855"><ele>317.0</ele><time>2026-04-18T07:38:28.009Z</time></trkpt><trkpt lat="43.3971888" lon="12.9368105"><ele>317.0</ele><time>2026-04-18T07:38:29.004Z</time></trkpt><trkpt lat="43.3971687" lon="12.9369228"><ele>317.0</ele><time>2026-04-18T07:38:30.01Z</time></trkpt><trkpt lat="43.3971569" lon="12.9370324"><ele>317.0</ele><time>2026-04-18T07:38:31.009Z</time></trkpt><trkpt lat="43.3971595" lon="12.9371269"><ele>317.0</ele><time>2026-04-18T07:38:32.004Z</time></trkpt><trkpt lat="43.3971729" lon="12.9372165"><ele>319.0</ele><time>2026-04-18T07:38:33.001Z</time></trkpt><trkpt lat="43.3972678" lon="12.9373275"><ele>321.0</ele><time>2026-04-18T07:38:35.008Z</time></trkpt><trkpt lat="43.3973343" lon="12.9373546"><ele>323.0</ele><time>2026-04-18T07:38:36.001Z</time></trkpt><trkpt lat="43.3974116" lon="12.9373795"><ele>325.0</ele><time>2026-04-18T07:38:37.008Z</time></trkpt><trkpt lat="43.3975029" lon="12.9373969"><ele>327.0</ele><time>2026-04-18T07:38:38.006Z</time></trkpt><trkpt lat="43.3975998" lon="12.9374296"><ele>327.0</ele><time>2026-04-18T07:38:39.001Z</time></trkpt><trkpt lat="43.397701" lon="12.9374882"><ele>327.0</ele><time>2026-04-18T07:38:40.01Z</time></trkpt><trkpt lat="43.3977973" lon="12.9375528"><ele>327.0</ele><time>2026-04-18T07:38:41.014Z</time></trkpt><trkpt lat="43.3978873" lon="12.9375908"><ele>327.0</ele><time>2026-04-18T07:38:42.008Z</time></trkpt><trkpt lat="43.3979728" lon="12.9376031"><ele>327.0</ele><time>2026-04-18T07:38:43.014Z</time></trkpt><trkpt lat="43.3980499" lon="12.9376411"><ele>330.5</ele><time>2026-04-18T07:38:44.007Z</time></trkpt><trkpt lat="43.3981178" lon="12.9376818"><ele>334.0</ele><time>2026-04-18T07:38:45.014Z</time></trkpt><trkpt lat="43.3982134" lon="12.937733"><ele>337.5</ele><time>2026-04-18T07:38:47.009Z</time></trkpt><trkpt lat="43.3981939" lon="12.9378397"><ele>341.0</ele><time>2026-04-18T07:38:50.019Z</time></trkpt><trkpt lat="43.3981101" lon="12.9378576"><ele>344.5</ele><time>2026-04-18T07:38:52.01Z</time></trkpt><trkpt lat="43.3980236" lon="12.9377746"><ele>348.0</ele><time>2026-04-18T07:38:54.013Z</time></trkpt><trkpt lat="43.3979653" lon="12.937664"><ele>348.0</ele><time>2026-04-18T07:38:56.01Z</time></trkpt><trkpt lat="43.3979316" lon="12.9375825"><ele>348.0</ele><time>2026-04-18T07:39:01.01Z</time></trkpt><trkpt lat="43.3980031" lon="12.9375504"><ele>348.0</ele><time>2026-04-18T07:39:10.003Z</time></trkpt><trkpt lat="43.3980665" lon="12.9375975"><ele>348.0</ele><time>2026-04-18T07:39:12.01Z</time></trkpt><trkpt lat="43.3981486" lon="12.9376322"><ele>348.0</ele><time>2026-04-18T07:39:14.013Z</time></trkpt><trkpt lat="43.3982209" lon="12.937645"><ele>348.0</ele><time>2026-04-18T07:39:15.018Z</time></trkpt><trkpt lat="43.398293" lon="12.9376538"><ele>348.0</ele><time>2026-04-18T07:39:16.008Z</time></trkpt><trkpt lat="43.3983627" lon="12.9376669"><ele>348.3333333333333</ele><time>2026-04-18T07:39:17.01Z</time></trkpt><trkpt lat="43.3984343" lon="12.9376881"><ele>348.6666666666667</ele><time>2026-04-18T07:39:18.01Z</time></trkpt><trkpt lat="43.3984999" lon="12.9377127"><ele>349.0</ele><time>2026-04-18T07:39:19.012Z</time></trkpt><trkpt lat="43.3986295" lon="12.9377426"><ele>349.33333333333337</ele><time>2026-04-18T07:39:21.023Z</time></trkpt><trkpt lat="43.3986991" lon="12.9377647"><ele>349.6666666666667</ele><time>2026-04-18T07:39:22.012Z</time></trkpt><trkpt lat="43.3987784" lon="12.9377908"><ele>350.0</ele><time>2026-04-18T07:39:22.997Z</time></trkpt><trkpt lat="43.3988642" lon="12.9378228"><ele>350.6</ele><time>2026-04-18T07:39:24.003Z</time></trkpt><trkpt lat="43.3989655" lon="12.9378506"><ele>351.2</ele><time>2026-04-18T07:39:25.013Z</time></trkpt><trkpt lat="43.3990616" lon="12.9379089"><ele>351.79999999999995</ele><time>2026-04-18T07:39:26.01Z</time></trkpt><trkpt lat="43.3991499" lon="12.9379607"><ele>352.4</ele><time>2026-04-18T07:39:27.014Z</time></trkpt><trkpt lat="43.3992261" lon="12.9380245"><ele>353.0</ele><time>2026-04-18T07:39:28.011Z</time></trkpt><trkpt lat="43.3993136" lon="12.9380588"><ele>353.0</ele><time>2026-04-18T07:39:29.001Z</time></trkpt><trkpt lat="43.3994097" lon="12.9380942"><ele>353.0</ele><time>2026-04-18T07:39:30.015Z</time></trkpt><trkpt lat="43.3995077" lon="12.9381244"><ele>353.0</ele><time>2026-04-18T07:39:31.013Z</time></trkpt><trkpt lat="43.3995991" lon="12.9381613"><ele>353.0</ele><time>2026-04-18T07:39:32.007Z</time></trkpt><trkpt lat="43.3996962" lon="12.9381917"><ele>353.0</ele><time>2026-04-18T07:39:33.005Z</time></trkpt><trkpt lat="43.3997971" lon="12.9382228"><ele>353.33333333333337</ele><time>2026-04-18T07:39:34.01Z</time></trkpt><trkpt lat="43.3998973" lon="12.9382399"><ele>353.6666666666667</ele><time>2026-04-18T07:39:35.008Z</time></trkpt><trkpt lat="43.3999922" lon="12.9382474"><ele>354.0</ele><time>2026-04-18T07:39:36.01Z</time></trkpt><trkpt lat="43.4000794" lon="12.938246"><ele>354.3333333333333</ele><time>2026-04-18T07:39:37.007Z</time></trkpt><trkpt lat="43.4001531" lon="12.9382333"><ele>354.66666666666663</ele><time>2026-04-18T07:39:38Z</time></trkpt><trkpt lat="43.4002212" lon="12.938219"><ele>355.0</ele><time>2026-04-18T07:39:39.004Z</time></trkpt><trkpt lat="43.4002815" lon="12.9381933"><ele>355.0</ele><time>2026-04-18T07:39:40.01Z</time></trkpt><trkpt lat="43.4003419" lon="12.9381645"><ele>355.0</ele><time>2026-04-18T07:39:41.014Z</time></trkpt><trkpt lat="43.4004401" lon="12.9381868"><ele>355.0</ele><time>2026-04-18T07:39:43.015Z</time></trkpt><trkpt lat="43.4005493" lon="12.9382868"><ele>355.0</ele><time>2026-04-18T07:39:45.011Z</time></trkpt><trkpt lat="43.4006141" lon="12.938359"><ele>355.0</ele><time>2026-04-18T07:39:46.015Z</time></trkpt><trkpt lat="43.4006764" lon="12.9384521"><ele>357.2</ele><time>2026-04-18T07:39:47.018Z</time></trkpt><trkpt lat="43.4007394" lon="12.9385412"><ele>359.4</ele><time>2026-04-18T07:39:48.017Z</time></trkpt><trkpt lat="43.4007969" lon="12.9386393"><ele>361.6</ele><time>2026-04-18T07:39:49.017Z</time></trkpt><trkpt lat="43.4008565" lon="12.9387404"><ele>363.8</ele><time>2026-04-18T07:39:50.017Z</time></trkpt><trkpt lat="43.4009187" lon="12.9388408"><ele>366.0</ele><time>2026-04-18T07:39:51.018Z</time></trkpt><trkpt lat="43.4009947" lon="12.9389393"><ele>366.0</ele><time>2026-04-18T07:39:52.015Z</time></trkpt><trkpt lat="43.4010623" lon="12.9390464"><ele>366.0</ele><time>2026-04-18T07:39:53.013Z</time></trkpt><trkpt lat="43.4011104" lon="12.9391575"><ele>366.0</ele><time>2026-04-18T07:39:54.019Z</time></trkpt><trkpt lat="43.401146" lon="12.9392482"><ele>366.0</ele><time>2026-04-18T07:39:55.012Z</time></trkpt><trkpt lat="43.4011665" lon="12.9393316"><ele>366.0</ele><time>2026-04-18T07:39:56.012Z</time></trkpt><trkpt lat="43.4011877" lon="12.9394277"><ele>366.0</ele><time>2026-04-18T07:39:57.012Z</time></trkpt><trkpt lat="43.4012012" lon="12.9395387"><ele>369.1666666666667</ele><time>2026-04-18T07:39:58.008Z</time></trkpt><trkpt lat="43.4012179" lon="12.939652"><ele>372.33333333333337</ele><time>2026-04-18T07:39:59.006Z</time></trkpt><trkpt lat="43.4012428" lon="12.9397685"><ele>375.5</ele><time>2026-04-18T07:40:00.029Z</time></trkpt><trkpt lat="43.4012561" lon="12.9398818"><ele>378.6666666666667</ele><time>2026-04-18T07:40:01.017Z</time></trkpt><trkpt lat="43.4012673" lon="12.9400181"><ele>381.83333333333337</ele><time>2026-04-18T07:40:02.011Z</time></trkpt><trkpt lat="43.4012675" lon="12.9401443"><ele>385.0</ele><time>2026-04-18T07:40:03.024Z</time></trkpt><trkpt lat="43.4012576" lon="12.9402853"><ele>386.0</ele><time>2026-04-18T07:40:04.017Z</time></trkpt><trkpt lat="43.4012462" lon="12.9404311"><ele>387.0</ele><time>2026-04-18T07:40:05.013Z</time></trkpt><trkpt lat="43.4012243" lon="12.9405647"><ele>388.0</ele><time>2026-04-18T07:40:06.017Z</time></trkpt><trkpt lat="43.4011942" lon="12.9406969"><ele>389.0</ele><time>2026-04-18T07:40:07.009Z</time></trkpt><trkpt lat="43.4011663" lon="12.9408312"><ele>390.0</ele><time>2026-04-18T07:40:08.023Z</time></trkpt><trkpt lat="43.4011335" lon="12.9409606"><ele>390.0</ele><time>2026-04-18T07:40:09.014Z</time></trkpt><trkpt lat="43.4010968" lon="12.9410951"><ele>390.0</ele><time>2026-04-18T07:40:10.014Z</time></trkpt><trkpt lat="43.4010589" lon="12.9412237"><ele>390.0</ele><time>2026-04-18T07:40:11.009Z</time></trkpt><trkpt lat="43.4010228" lon="12.9413547"><ele>390.0</ele><time>2026-04-18T07:40:12.021Z</time></trkpt><trkpt lat="43.4009936" lon="12.9414844"><ele>390.0</ele><time>2026-04-18T07:40:13.007Z</time></trkpt><trkpt lat="43.4009639" lon="12.941613"><ele>390.0</ele><time>2026-04-18T07:40:14.015Z</time></trkpt><trkpt lat="43.4009383" lon="12.9417655"><ele>390.0</ele><time>2026-04-18T07:40:15.01Z</time></trkpt><trkpt lat="43.4009149" lon="12.9419313"><ele>390.0</ele><time>2026-04-18T07:40:16.01Z</time></trkpt><trkpt lat="43.40089" lon="12.9420937"><ele>390.0</ele><time>2026-04-18T07:40:17.013Z</time></trkpt><trkpt lat="43.4008622" lon="12.9422458"><ele>390.0</ele><time>2026-04-18T07:40:18.011Z</time></trkpt><trkpt lat="43.4008363" lon="12.942361"><ele>390.0</ele><time>2026-04-18T07:40:19.012Z</time></trkpt><trkpt lat="43.4008234" lon="12.942465"><ele>390.0</ele><time>2026-04-18T07:40:20.017Z</time></trkpt><trkpt lat="43.4007969" lon="12.9425655"><ele>390.0</ele><time>2026-04-18T07:40:21.025Z</time></trkpt><trkpt lat="43.400773" lon="12.9426701"><ele>390.0</ele><time>2026-04-18T07:40:22.009Z</time></trkpt><trkpt lat="43.4007428" lon="12.9427912"><ele>390.0</ele><time>2026-04-18T07:40:23.011Z</time></trkpt><trkpt lat="43.4007099" lon="12.9428792"><ele>392.0</ele><time>2026-04-18T07:40:24.013Z</time></trkpt><trkpt lat="43.4006737" lon="12.9429685"><ele>394.0</ele><time>2026-04-18T07:40:25.001Z</time></trkpt><trkpt lat="43.400675" lon="12.9431053"><ele>396.0</ele><time>2026-04-18T07:40:27.004Z</time></trkpt><trkpt lat="43.4007395" lon="12.9432238"><ele>398.0</ele><time>2026-04-18T07:40:29.005Z</time></trkpt><trkpt lat="43.4008245" lon="12.9433133"><ele>400.0</ele><time>2026-04-18T07:40:31.015Z</time></trkpt><trkpt lat="43.4008906" lon="12.9433829"><ele>403.83333333333337</ele><time>2026-04-18T07:40:34.006Z</time></trkpt><trkpt lat="43.4009529" lon="12.9434189"><ele>407.6666666666667</ele><time>2026-04-18T07:41:01.01Z</time></trkpt><trkpt lat="43.4009818" lon="12.943512"><ele>411.5</ele><time>2026-04-18T07:41:04.027Z</time></trkpt><trkpt lat="43.4009262" lon="12.9436192"><ele>415.33333333333337</ele><time>2026-04-18T07:41:06.005Z</time></trkpt><trkpt lat="43.400836" lon="12.9436463"><ele>419.1666666666667</ele><time>2026-04-18T07:41:08.03Z</time></trkpt><trkpt lat="43.4007708" lon="12.9436522"><ele>423.0</ele><time>2026-04-18T07:41:10.009Z</time></trkpt><trkpt lat="43.40069" lon="12.9436953"><ele>423.0</ele><time>2026-04-18T07:41:12.002Z</time></trkpt><trkpt lat="43.4005996" lon="12.9437403"><ele>423.0</ele><time>2026-04-18T07:41:14.005Z</time></trkpt><trkpt lat="43.4005212" lon="12.9437054"><ele>423.0</ele><time>2026-04-18T07:41:16.013Z</time></trkpt><trkpt lat="43.4004476" lon="12.9436806"><ele>423.0</ele><time>2026-04-18T07:41:18.003Z</time></trkpt><trkpt lat="43.4003731" lon="12.9437565"><ele>423.0</ele><time>2026-04-18T07:41:21.011Z</time></trkpt><trkpt lat="43.4003283" lon="12.9438651"><ele>423.0</ele><time>2026-04-18T07:41:22.998Z</time></trkpt><trkpt lat="43.400268" lon="12.9439157"><ele>427.59999999999997</ele><time>2026-04-18T07:41:24.022Z</time></trkpt><trkpt lat="43.4001857" lon="12.9440252"><ele>432.2</ele><time>2026-04-18T07:41:26.001Z</time></trkpt><trkpt lat="43.400106" lon="12.9441758"><ele>436.8</ele><time>2026-04-18T07:41:28.009Z</time></trkpt><trkpt lat="43.4000775" lon="12.9442655"><ele>441.4</ele><time>2026-04-18T07:41:29.001Z</time></trkpt><trkpt lat="43.4000348" lon="12.9444114"><ele>446.0</ele><time>2026-04-18T07:41:31.001Z</time></trkpt><trkpt lat="43.4000212" lon="12.9444962"><ele>447.99999999999994</ele><time>2026-04-18T07:41:31.999Z</time></trkpt><trkpt lat="43.4000178" lon="12.944594"><ele>450.0</ele><time>2026-04-18T07:41:32.995Z</time></trkpt><trkpt lat="43.4000127" lon="12.9447101"><ele>452.0</ele><time>2026-04-18T07:41:34.017Z</time></trkpt><trkpt lat="43.4000052" lon="12.94481"><ele>454.0</ele><time>2026-04-18T07:41:34.997Z</time></trkpt><trkpt lat="43.3999583" lon="12.9449244"><ele>455.99999999999994</ele><time>2026-04-18T07:41:37.011Z</time></trkpt><trkpt lat="43.3999145" lon="12.9450031"><ele>458.0</ele><time>2026-04-18T07:41:39.004Z</time></trkpt><trkpt lat="43.3998468" lon="12.9450481"><ele>460.49999999999994</ele><time>2026-04-18T07:41:40.016Z</time></trkpt><trkpt lat="43.3997591" lon="12.9450992"><ele>463.0</ele><time>2026-04-18T07:41:41.004Z</time></trkpt><trkpt lat="43.3996761" lon="12.9451578"><ele>465.5</ele><time>2026-04-18T07:41:42.003Z</time></trkpt><trkpt lat="43.3995994" lon="12.9452111"><ele>468.0</ele><time>2026-04-18T07:41:43.005Z</time></trkpt><trkpt lat="43.3995291" lon="12.9452661"><ele>470.49999999999994</ele><time>2026-04-18T07:41:44.002Z</time></trkpt><trkpt lat="43.3994738" lon="12.9453179"><ele>473.0</ele><time>2026-04-18T07:41:45.024Z</time></trkpt><trkpt lat="43.3994257" lon="12.9453738"><ele>478.2</ele><time>2026-04-18T07:41:46.014Z</time></trkpt><trkpt lat="43.3993793" lon="12.9455607"><ele>483.4</ele><time>2026-04-18T07:41:48.003Z</time></trkpt><trkpt lat="43.3993701" lon="12.9456951"><ele>488.59999999999997</ele><time>2026-04-18T07:41:49.001Z</time></trkpt><trkpt lat="43.3993781" lon="12.9458228"><ele>493.79999999999995</ele><time>2026-04-18T07:41:50.01Z</time></trkpt><trkpt lat="43.3993942" lon="12.9459401"><ele>499.0</ele><time>2026-04-18T07:41:51.01Z</time></trkpt><trkpt lat="43.3994142" lon="12.9460507"><ele>499.0</ele><time>2026-04-18T07:41:53.005Z</time></trkpt><trkpt lat="43.3993515" lon="12.9460986"><ele>499.0</ele><time>2026-04-18T07:41:57.021Z</time></trkpt><trkpt lat="43.3992489" lon="12.9460525"><ele>499.0</ele><time>2026-04-18T07:41:59.016Z</time></trkpt><trkpt lat="43.3991642" lon="12.9459971"><ele>499.0</ele><time>2026-04-18T07:42:01.015Z</time></trkpt><trkpt lat="43.3990784" lon="12.9460161"><ele>499.0</ele><time>2026-04-18T07:42:03.02Z</time></trkpt><trkpt lat="43.39898" lon="12.9460453"><ele>499.0</ele><time>2026-04-18T07:42:05.007Z</time></trkpt><trkpt lat="43.3989485" lon="12.9461672"><ele>499.0</ele><time>2026-04-18T07:42:08.02Z</time></trkpt><trkpt lat="43.3989559" lon="12.9462846"><ele>499.0</ele><time>2026-04-18T07:42:10.016Z</time></trkpt><trkpt lat="43.3989254" lon="12.9464022"><ele>499.0</ele><time>2026-04-18T07:42:12.027Z</time></trkpt><trkpt lat="43.3988246" lon="12.9464544"><ele>499.0</ele><time>2026-04-18T07:42:14.013Z</time></trkpt><trkpt lat="43.3987556" lon="12.9464841"><ele>502.83333333333337</ele><time>2026-04-18T07:42:15.009Z</time></trkpt><trkpt lat="43.3986756" lon="12.9464855"><ele>506.6666666666667</ele><time>2026-04-18T07:42:16.024Z</time></trkpt><trkpt lat="43.398587" lon="12.9464768"><ele>510.5</ele><time>2026-04-18T07:42:17.025Z</time></trkpt><trkpt lat="43.3985121" lon="12.9464659"><ele>514.3333333333334</ele><time>2026-04-18T07:42:18.015Z</time></trkpt><trkpt lat="43.3984473" lon="12.9464639"><ele>518.1666666666666</ele><time>2026-04-18T07:42:19.016Z</time></trkpt><trkpt lat="43.3983787" lon="12.9464719"><ele>522.0</ele><time>2026-04-18T07:42:20.035Z</time></trkpt><trkpt lat="43.398301" lon="12.9464789"><ele>522.0</ele><time>2026-04-18T07:42:21.045Z</time></trkpt><trkpt lat="43.3982207" lon="12.9464835"><ele>522.0</ele><time>2026-04-18T07:42:22.023Z</time></trkpt><trkpt lat="43.3981305" lon="12.9464867"><ele>522.0</ele><time>2026-04-18T07:42:23.009Z</time></trkpt><trkpt lat="43.3980645" lon="12.9464947"><ele>522.0</ele><time>2026-04-18T07:42:24.019Z</time></trkpt><trkpt lat="43.397985" lon="12.9465032"><ele>522.0</ele><time>2026-04-18T07:42:26.031Z</time></trkpt><trkpt lat="43.3978789" lon="12.9464636"><ele>522.0</ele><time>2026-04-18T07:42:28.012Z</time></trkpt><trkpt lat="43.3977831" lon="12.9464244"><ele>522.0</ele><time>2026-04-18T07:42:30.036Z</time></trkpt><trkpt lat="43.3978565" lon="12.9464254"><ele>522.0</ele><time>2026-04-18T07:42:36.014Z</time></trkpt><trkpt lat="43.397935" lon="12.9463706"><ele>522.0</ele><time>2026-04-18T07:42:38.031Z</time></trkpt><trkpt lat="43.3980403" lon="12.946284"><ele>522.0</ele><time>2026-04-18T07:42:40.012Z</time></trkpt><trkpt lat="43.3980869" lon="12.9462241"><ele>522.0</ele><time>2026-04-18T07:42:41.013Z</time></trkpt><trkpt lat="43.3981315" lon="12.9461546"><ele>522.0</ele><time>2026-04-18T07:42:42.016Z</time></trkpt><trkpt lat="43.3981722" lon="12.9460824"><ele>522.0</ele><time>2026-04-18T07:42:43.009Z</time></trkpt><trkpt lat="43.3982328" lon="12.9459477"><ele>522.0</ele><time>2026-04-18T07:42:45.006Z</time></trkpt><trkpt lat="43.3982427" lon="12.9458147"><ele>522.0</ele><time>2026-04-18T07:42:47.008Z</time></trkpt><trkpt lat="43.3981798" lon="12.9456513"><ele>522.0</ele><time>2026-04-18T07:42:49.015Z</time></trkpt><trkpt lat="43.398108" lon="12.9455544"><ele>522.0</ele><time>2026-04-18T07:42:50.007Z</time></trkpt><trkpt lat="43.3980335" lon="12.945466"><ele>529.5</ele><time>2026-04-18T07:42:51.005Z</time></trkpt><trkpt lat="43.3979583" lon="12.945371"><ele>537.0</ele><time>2026-04-18T07:42:52.006Z</time></trkpt><trkpt lat="43.3978894" lon="12.945284"><ele>544.5</ele><time>2026-04-18T07:42:53.01Z</time></trkpt><trkpt lat="43.3978342" lon="12.9451999"><ele>552.0</ele><time>2026-04-18T07:42:54.012Z</time></trkpt><trkpt lat="43.3977829" lon="12.9451277"><ele>559.5</ele><time>2026-04-18T07:42:55.016Z</time></trkpt><trkpt lat="43.3977055" lon="12.9450698"><ele>567.0</ele><time>2026-04-18T07:42:56.015Z</time></trkpt><trkpt lat="43.397612" lon="12.9450204"><ele>567.0</ele><time>2026-04-18T07:42:57.007Z</time></trkpt><trkpt lat="43.3975136" lon="12.9449702"><ele>567.0</ele><time>2026-04-18T07:42:58.014Z</time></trkpt><trkpt lat="43.3973983" lon="12.9449132"><ele>567.0</ele><time>2026-04-18T07:42:59.012Z</time></trkpt><trkpt lat="43.3972946" lon="12.9448637"><ele>567.0</ele><time>2026-04-18T07:43:00.016Z</time></trkpt><trkpt lat="43.3971907" lon="12.944817"><ele>567.0</ele><time>2026-04-18T07:43:01.01Z</time></trkpt><trkpt lat="43.3970828" lon="12.9447843"><ele>570.0</ele><time>2026-04-18T07:43:02.023Z</time></trkpt><trkpt lat="43.3969735" lon="12.9447729"><ele>573.0</ele><time>2026-04-18T07:43:03.011Z</time></trkpt><trkpt lat="43.3968857" lon="12.9447557"><ele>576.0</ele><time>2026-04-18T07:43:04.012Z</time></trkpt><trkpt lat="43.3968181" lon="12.944743"><ele>579.0</ele><time>2026-04-18T07:43:05.036Z</time></trkpt><trkpt lat="43.3966925" lon="12.9447238"><ele>582.0</ele><time>2026-04-18T07:43:07.024Z</time></trkpt><trkpt lat="43.3966027" lon="12.9447238"><ele>582.0</ele><time>2026-04-18T07:43:08.014Z</time></trkpt><trkpt lat="43.3965077" lon="12.9447277"><ele>582.0</ele><time>2026-04-18T07:43:09.027Z</time></trkpt><trkpt lat="43.3964162" lon="12.9447409"><ele>582.0</ele><time>2026-04-18T07:43:10.017Z</time></trkpt><trkpt lat="43.3963358" lon="12.9447575"><ele>582.0</ele><time>2026-04-18T07:43:11.016Z</time></trkpt><trkpt lat="43.3962499" lon="12.9447938"><ele>582.0</ele><time>2026-04-18T07:43:12.02Z</time></trkpt><trkpt lat="43.3961504" lon="12.9448435"><ele>583.4</ele><time>2026-04-18T07:43:13.016Z</time></trkpt><trkpt lat="43.396044" lon="12.9448941"><ele>584.8000000000001</ele><time>2026-04-18T07:43:14.015Z</time></trkpt><trkpt lat="43.3959361" lon="12.9449414"><ele>586.2</ele><time>2026-04-18T07:43:15.008Z</time></trkpt><trkpt lat="43.3958461" lon="12.9449704"><ele>587.6</ele><time>2026-04-18T07:43:16.034Z</time></trkpt><trkpt lat="43.3957672" lon="12.9449878"><ele>589.0</ele><time>2026-04-18T07:43:17.015Z</time></trkpt><trkpt lat="43.3956741" lon="12.9449831"><ele>589.0</ele><time>2026-04-18T07:43:18.015Z</time></trkpt><trkpt lat="43.3955828" lon="12.9449626"><ele>589.0</ele><time>2026-04-18T07:43:19.026Z</time></trkpt><trkpt lat="43.3954959" lon="12.944926"><ele>589.0</ele><time>2026-04-18T07:43:20.029Z</time></trkpt><trkpt lat="43.3954049" lon="12.9448776"><ele>589.0</ele><time>2026-04-18T07:43:21.026Z</time></trkpt><trkpt lat="43.3953165" lon="12.9448212"><ele>589.0</ele><time>2026-04-18T07:43:22.012Z</time></trkpt><trkpt lat="43.3952219" lon="12.9447557"><ele>589.0</ele><time>2026-04-18T07:43:24.005Z</time></trkpt><trkpt lat="43.3952561" lon="12.9448672"><ele>589.0</ele><time>2026-04-18T07:44:00.023Z</time></trkpt><trkpt lat="43.3953635" lon="12.9449227"><ele>589.0</ele><time>2026-04-18T07:44:02.021Z</time></trkpt><trkpt lat="43.3954372" lon="12.9449725"><ele>589.0</ele><time>2026-04-18T07:44:03.018Z</time></trkpt><trkpt lat="43.3955283" lon="12.945017"><ele>589.0</ele><time>2026-04-18T07:44:04.004Z</time></trkpt><trkpt lat="43.3956181" lon="12.9450608"><ele>593.0</ele><time>2026-04-18T07:44:05.009Z</time></trkpt><trkpt lat="43.3956906" lon="12.945104"><ele>597.0</ele><time>2026-04-18T07:44:06.019Z</time></trkpt><trkpt lat="43.395775" lon="12.9452186"><ele>601.0</ele><time>2026-04-18T07:44:08.013Z</time></trkpt><trkpt lat="43.3958307" lon="12.9453561"><ele>605.0</ele><time>2026-04-18T07:44:10.009Z</time></trkpt><trkpt lat="43.3959055" lon="12.9454169"><ele>609.0</ele><time>2026-04-18T07:44:11.014Z</time></trkpt><trkpt lat="43.3959836" lon="12.9454885"><ele>609.0</ele><time>2026-04-18T07:44:12.013Z</time></trkpt><trkpt lat="43.3960649" lon="12.9455814"><ele>609.0</ele><time>2026-04-18T07:44:13.009Z</time></trkpt><trkpt lat="43.3961427" lon="12.9456578"><ele>609.0</ele><time>2026-04-18T07:44:14.022Z</time></trkpt><trkpt lat="43.3961946" lon="12.9457163"><ele>609.0</ele><time>2026-04-18T07:44:15.013Z</time></trkpt><trkpt lat="43.3962318" lon="12.9458314"><ele>609.0</ele><time>2026-04-18T07:44:17.013Z</time></trkpt><trkpt lat="43.3961727" lon="12.9459399"><ele>612.5</ele><time>2026-04-18T07:44:20.031Z</time></trkpt><trkpt lat="43.3961235" lon="12.9460499"><ele>616.0</ele><time>2026-04-18T07:44:22.013Z</time></trkpt><trkpt lat="43.3960979" lon="12.9462091"><ele>619.5</ele><time>2026-04-18T07:44:24.014Z</time></trkpt><trkpt lat="43.3960831" lon="12.9463138"><ele>623.0</ele><time>2026-04-18T07:44:25.016Z</time></trkpt><trkpt lat="43.3960719" lon="12.9464076"><ele>626.5</ele><time>2026-04-18T07:44:26.023Z</time></trkpt><trkpt lat="43.3960622" lon="12.946506"><ele>630.0</ele><time>2026-04-18T07:44:27.017Z</time></trkpt><trkpt lat="43.3960398" lon="12.9465952"><ele>630.0</ele><time>2026-04-18T07:44:28.01Z</time></trkpt><trkpt lat="43.3960175" lon="12.9466853"><ele>630.0</ele><time>2026-04-18T07:44:29.02Z</time></trkpt><trkpt lat="43.3959975" lon="12.9467727"><ele>630.0</ele><time>2026-04-18T07:44:30.031Z</time></trkpt><trkpt lat="43.3959978" lon="12.9468824"><ele>630.0</ele><time>2026-04-18T07:44:31.033Z</time></trkpt><trkpt lat="43.3959954" lon="12.9469962"><ele>630.0</ele><time>2026-04-18T07:44:32.022Z</time></trkpt><trkpt lat="43.3959841" lon="12.9470961"><ele>630.0</ele><time>2026-04-18T07:44:33.033Z</time></trkpt><trkpt lat="43.3959694" lon="12.9472219"><ele>632.6</ele><time>2026-04-18T07:44:34.015Z</time></trkpt><trkpt lat="43.3959432" lon="12.9473408"><ele>635.2</ele><time>2026-04-18T07:44:35.02Z</time></trkpt><trkpt lat="43.3959115" lon="12.9474613"><ele>637.8</ele><time>2026-04-18T07:44:36.014Z</time></trkpt><trkpt lat="43.3958846" lon="12.9476022"><ele>640.4</ele><time>2026-04-18T07:44:36.998Z</time></trkpt><trkpt lat="43.395855" lon="12.9477815"><ele>643.0</ele><time>2026-04-18T07:44:38.015Z</time></trkpt><trkpt lat="43.3958135" lon="12.9479699"><ele>644.75</ele><time>2026-04-18T07:44:39.011Z</time></trkpt><trkpt lat="43.3957696" lon="12.9481624"><ele>646.5</ele><time>2026-04-18T07:44:40.012Z</time></trkpt><trkpt lat="43.3957327" lon="12.9483478"><ele>648.25</ele><time>2026-04-18T07:44:41.006Z</time></trkpt><trkpt lat="43.3957014" lon="12.9485154"><ele>650.0</ele><time>2026-04-18T07:44:42.015Z</time></trkpt><trkpt lat="43.3956738" lon="12.9486885"><ele>650.0</ele><time>2026-04-18T07:44:43.007Z</time></trkpt><trkpt lat="43.3956517" lon="12.9488351"><ele>650.0</ele><time>2026-04-18T07:44:44.011Z</time></trkpt><trkpt lat="43.3956393" lon="12.948957"><ele>650.0</ele><time>2026-04-18T07:44:45.013Z</time></trkpt><trkpt lat="43.3956227" lon="12.9490922"><ele>650.0</ele><time>2026-04-18T07:44:46.009Z</time></trkpt><trkpt lat="43.3955915" lon="12.9492334"><ele>650.0</ele><time>2026-04-18T07:44:47.014Z</time></trkpt><trkpt lat="43.3955651" lon="12.9493885"><ele>649.6</ele><time>2026-04-18T07:44:48.004Z</time></trkpt><trkpt lat="43.39552" lon="12.9495252"><ele>649.2</ele><time>2026-04-18T07:44:49.008Z</time></trkpt><trkpt lat="43.3954599" lon="12.949645"><ele>648.8</ele><time>2026-04-18T07:44:50.009Z</time></trkpt><trkpt lat="43.3954028" lon="12.9497622"><ele>648.4</ele><time>2026-04-18T07:44:51.013Z</time></trkpt><trkpt lat="43.3953574" lon="12.9498552"><ele>648.0</ele><time>2026-04-18T07:44:52.01Z</time></trkpt><trkpt lat="43.3953212" lon="12.9499366"><ele>646.8</ele><time>2026-04-18T07:44:53.007Z</time></trkpt><trkpt lat="43.3952643" lon="12.9500174"><ele>645.5999999999999</ele><time>2026-04-18T07:44:54.012Z</time></trkpt><trkpt lat="43.3951893" lon="12.9500739"><ele>644.4000000000001</ele><time>2026-04-18T07:44:55.01Z</time></trkpt><trkpt lat="43.3951084" lon="12.9501265"><ele>643.2</ele><time>2026-04-18T07:44:56.014Z</time></trkpt><trkpt lat="43.3950227" lon="12.950166"><ele>642.0</ele><time>2026-04-18T07:44:57.014Z</time></trkpt><trkpt lat="43.39492" lon="12.9501805"><ele>642.0</ele><time>2026-04-18T07:44:58.011Z</time></trkpt><trkpt lat="43.394811" lon="12.9501818"><ele>642.0</ele><time>2026-04-18T07:44:59.016Z</time></trkpt><trkpt lat="43.3946939" lon="12.9501802"><ele>642.0</ele><time>2026-04-18T07:45:00.012Z</time></trkpt><trkpt lat="43.3945645" lon="12.9501761"><ele>642.0</ele><time>2026-04-18T07:45:01.009Z</time></trkpt><trkpt lat="43.3944116" lon="12.9501867"><ele>642.25</ele><time>2026-04-18T07:45:02.01Z</time></trkpt><trkpt lat="43.3942508" lon="12.950191"><ele>642.5</ele><time>2026-04-18T07:45:03.01Z</time></trkpt><trkpt lat="43.3941252" lon="12.9501955"><ele>642.75</ele><time>2026-04-18T07:45:04.015Z</time></trkpt><trkpt lat="43.3940049" lon="12.9501917"><ele>643.0</ele><time>2026-04-18T07:45:05.018Z</time></trkpt><trkpt lat="43.3938993" lon="12.9501888"><ele>644.8</ele><time>2026-04-18T07:45:06.021Z</time></trkpt><trkpt lat="43.3937935" lon="12.950214"><ele>646.5999999999999</ele><time>2026-04-18T07:45:07.021Z</time></trkpt><trkpt lat="43.3936909" lon="12.9502423"><ele>648.4000000000001</ele><time>2026-04-18T07:45:08.018Z</time></trkpt><trkpt lat="43.3935962" lon="12.9502991"><ele>650.2</ele><time>2026-04-18T07:45:09.022Z</time></trkpt><trkpt lat="43.39351" lon="12.950364"><ele>652.0</ele><time>2026-04-18T07:45:10.015Z</time></trkpt><trkpt lat="43.3934228" lon="12.9504349"><ele>652.0</ele><time>2026-04-18T07:45:11.022Z</time></trkpt><trkpt lat="43.3933305" lon="12.9505164"><ele>652.0</ele><time>2026-04-18T07:45:12.013Z</time></trkpt><trkpt lat="43.3932348" lon="12.9506073"><ele>652.0</ele><time>2026-04-18T07:45:13.015Z</time></trkpt><trkpt lat="43.3931374" lon="12.9506975"><ele>652.0</ele><time>2026-04-18T07:45:14.012Z</time></trkpt><trkpt lat="43.393038" lon="12.9507849"><ele>652.0</ele><time>2026-04-18T07:45:15.013Z</time></trkpt><trkpt lat="43.3929408" lon="12.9508574"><ele>652.0</ele><time>2026-04-18T07:45:16.02Z</time></trkpt><trkpt lat="43.3928362" lon="12.9509192"><ele>652.0</ele><time>2026-04-18T07:45:17.018Z</time></trkpt><trkpt lat="43.3927391" lon="12.950984"><ele>652.0</ele><time>2026-04-18T07:45:18.009Z</time></trkpt><trkpt lat="43.3926529" lon="12.9510259"><ele>652.0</ele><time>2026-04-18T07:45:19.016Z</time></trkpt><trkpt lat="43.3925556" lon="12.9510628"><ele>652.0</ele><time>2026-04-18T07:45:20.03Z</time></trkpt><trkpt lat="43.3924481" lon="12.9510961"><ele>652.0</ele><time>2026-04-18T07:45:21.012Z</time></trkpt><trkpt lat="43.3923389" lon="12.9511199"><ele>652.0</ele><time>2026-04-18T07:45:22.018Z</time></trkpt><trkpt lat="43.3922316" lon="12.9511282"><ele>652.0</ele><time>2026-04-18T07:45:23.027Z</time></trkpt><trkpt lat="43.3921439" lon="12.9511161"><ele>652.0</ele><time>2026-04-18T07:45:24.022Z</time></trkpt><trkpt lat="43.3920756" lon="12.9511152"><ele>654.2</ele><time>2026-04-18T07:45:25.009Z</time></trkpt><trkpt lat="43.3920004" lon="12.9511088"><ele>656.4000000000001</ele><time>2026-04-18T07:45:27.009Z</time></trkpt><trkpt lat="43.391906" lon="12.9510735"><ele>658.5999999999999</ele><time>2026-04-18T07:45:37.022Z</time></trkpt><trkpt lat="43.3918406" lon="12.9509779"><ele>660.8</ele><time>2026-04-18T07:45:39.021Z</time></trkpt><trkpt lat="43.3917322" lon="12.9508947"><ele>663.0</ele><time>2026-04-18T07:45:41.01Z</time></trkpt><trkpt lat="43.3916729" lon="12.9508539"><ele>663.0</ele><time>2026-04-18T07:45:42.007Z</time></trkpt><trkpt lat="43.391606" lon="12.9508156"><ele>663.0</ele><time>2026-04-18T07:45:43.012Z</time></trkpt><trkpt lat="43.3915383" lon="12.9507788"><ele>663.0</ele><time>2026-04-18T07:45:44.012Z</time></trkpt><trkpt lat="43.3914763" lon="12.9507405"><ele>663.0</ele><time>2026-04-18T07:45:45.004Z</time></trkpt><trkpt lat="43.3913778" lon="12.9506607"><ele>663.0</ele><time>2026-04-18T07:45:46.993Z</time></trkpt><trkpt lat="43.3913359" lon="12.9507354"><ele>663.0</ele><time>2026-04-18T07:45:50.998Z</time></trkpt><trkpt lat="43.3913805" lon="12.9508292"><ele>665.4</ele><time>2026-04-18T07:45:53.014Z</time></trkpt><trkpt lat="43.3914437" lon="12.9509311"><ele>667.8</ele><time>2026-04-18T07:45:55.008Z</time></trkpt><trkpt lat="43.3914854" lon="12.9510099"><ele>670.2</ele><time>2026-04-18T07:45:56.005Z</time></trkpt><trkpt lat="43.3915309" lon="12.9511185"><ele>672.6</ele><time>2026-04-18T07:45:57.012Z</time></trkpt><trkpt lat="43.3915808" lon="12.9512343"><ele>675.0</ele><time>2026-04-18T07:45:58.001Z</time></trkpt><trkpt lat="43.3916265" lon="12.9513472"><ele>675.0</ele><time>2026-04-18T07:45:59.001Z</time></trkpt><trkpt lat="43.3916678" lon="12.9514781"><ele>675.0</ele><time>2026-04-18T07:45:59.999Z</time></trkpt><trkpt lat="43.3917125" lon="12.9516244"><ele>675.0</ele><time>2026-04-18T07:46:01.004Z</time></trkpt><trkpt lat="43.3917745" lon="12.9517834"><ele>675.0</ele><time>2026-04-18T07:46:02.014Z</time></trkpt><trkpt lat="43.3918333" lon="12.9519452"><ele>681.25</ele><time>2026-04-18T07:46:03.011Z</time></trkpt><trkpt lat="43.391907" lon="12.9520899"><ele>687.5</ele><time>2026-04-18T07:46:04.024Z</time></trkpt><trkpt lat="43.3919905" lon="12.9522121"><ele>693.75</ele><time>2026-04-18T07:46:05.017Z</time></trkpt><trkpt lat="43.3920693" lon="12.9523273"><ele>700.0</ele><time>2026-04-18T07:46:06.008Z</time></trkpt><trkpt lat="43.3921484" lon="12.9524403"><ele>700.4</ele><time>2026-04-18T07:46:07.013Z</time></trkpt><trkpt lat="43.3922259" lon="12.952557"><ele>700.8</ele><time>2026-04-18T07:46:08.018Z</time></trkpt><trkpt lat="43.392292" lon="12.952672"><ele>701.2</ele><time>2026-04-18T07:46:09.015Z</time></trkpt><trkpt lat="43.3923428" lon="12.9527966"><ele>701.6</ele><time>2026-04-18T07:46:10.007Z</time></trkpt><trkpt lat="43.3923875" lon="12.9529316"><ele>702.0</ele><time>2026-04-18T07:46:11.017Z</time></trkpt><trkpt lat="43.3924151" lon="12.9530643"><ele>702.0</ele><time>2026-04-18T07:46:12.01Z</time></trkpt><trkpt lat="43.3924535" lon="12.9531915"><ele>702.0</ele><time>2026-04-18T07:46:13.009Z</time></trkpt><trkpt lat="43.3925141" lon="12.9533022"><ele>702.0</ele><time>2026-04-18T07:46:14.008Z</time></trkpt><trkpt lat="43.3925759" lon="12.953426"><ele>702.0</ele><time>2026-04-18T07:46:15.012Z</time></trkpt><trkpt lat="43.3926506" lon="12.9535507"><ele>702.0</ele><time>2026-04-18T07:46:16.007Z</time></trkpt><trkpt lat="43.3927199" lon="12.9536769"><ele>704.6</ele><time>2026-04-18T07:46:17.004Z</time></trkpt><trkpt lat="43.3927966" lon="12.9537589"><ele>707.2</ele><time>2026-04-18T07:46:18.01Z</time></trkpt><trkpt lat="43.3928807" lon="12.9538274"><ele>709.8</ele><time>2026-04-18T07:46:19.004Z</time></trkpt><trkpt lat="43.392982" lon="12.9538851"><ele>712.4</ele><time>2026-04-18T07:46:20.007Z</time></trkpt><trkpt lat="43.3931013" lon="12.9539432"><ele>715.0</ele><time>2026-04-18T07:46:21.01Z</time></trkpt><trkpt lat="43.3932085" lon="12.9540164"><ele>715.0</ele><time>2026-04-18T07:46:22.005Z</time></trkpt><trkpt lat="43.3932853" lon="12.9540975"><ele>715.0</ele><time>2026-04-18T07:46:23.002Z</time></trkpt><trkpt lat="43.3933648" lon="12.9541939"><ele>715.0</ele><time>2026-04-18T07:46:24.003Z</time></trkpt><trkpt lat="43.3934409" lon="12.9543046"><ele>715.0</ele><time>2026-04-18T07:46:25.013Z</time></trkpt><trkpt lat="43.3934994" lon="12.9544189"><ele>715.0</ele><time>2026-04-18T07:46:26.007Z</time></trkpt><trkpt lat="43.3935593" lon="12.9545294"><ele>719.2</ele><time>2026-04-18T07:46:27.005Z</time></trkpt><trkpt lat="43.3936149" lon="12.9546493"><ele>723.4</ele><time>2026-04-18T07:46:28.01Z</time></trkpt><trkpt lat="43.3936708" lon="12.9547687"><ele>727.5999999999999</ele><time>2026-04-18T07:46:29.012Z</time></trkpt><trkpt lat="43.3937332" lon="12.9548901"><ele>731.8</ele><time>2026-04-18T07:46:30.015Z</time></trkpt><trkpt lat="43.39379" lon="12.955022"><ele>736.0</ele><time>2026-04-18T07:46:31.019Z</time></trkpt><trkpt lat="43.3938528" lon="12.9551581"><ele>736.0</ele><time>2026-04-18T07:46:32.019Z</time></trkpt><trkpt lat="43.3939062" lon="12.955299"><ele>736.0</ele><time>2026-04-18T07:46:33.014Z</time></trkpt><trkpt lat="43.3939515" lon="12.9554471"><ele>736.0</ele><time>2026-04-18T07:46:34.014Z</time></trkpt><trkpt lat="43.3939786" lon="12.9555875"><ele>736.0</ele><time>2026-04-18T07:46:35.013Z</time></trkpt><trkpt lat="43.3939994" lon="12.9557393"><ele>737.8</ele><time>2026-04-18T07:46:36.025Z</time></trkpt><trkpt lat="43.3940138" lon="12.9558834"><ele>739.5999999999999</ele><time>2026-04-18T07:46:37.019Z</time></trkpt><trkpt lat="43.3940331" lon="12.9560188"><ele>741.4</ele><time>2026-04-18T07:46:38.02Z</time></trkpt><trkpt lat="43.3940535" lon="12.9561527"><ele>743.2</ele><time>2026-04-18T07:46:39.008Z</time></trkpt><trkpt lat="43.3940763" lon="12.956288"><ele>745.0</ele><time>2026-04-18T07:46:40.025Z</time></trkpt><trkpt lat="43.3941206" lon="12.9564377"><ele>745.0</ele><time>2026-04-18T07:46:41.022Z</time></trkpt><trkpt lat="43.3941576" lon="12.9565742"><ele>745.0</ele><time>2026-04-18T07:46:42.019Z</time></trkpt><trkpt lat="43.3941956" lon="12.956679"><ele>745.0</ele><time>2026-04-18T07:46:43.01Z</time></trkpt><trkpt lat="43.3942606" lon="12.9568097"><ele>745.0</ele><time>2026-04-18T07:46:45.016Z</time></trkpt><trkpt lat="43.3942933" lon="12.9569152"><ele>745.0</ele><time>2026-04-18T07:46:47.013Z</time></trkpt><trkpt lat="43.3942399" lon="12.9570167"><ele>745.0</ele><time>2026-04-18T07:46:50.044Z</time></trkpt><trkpt lat="43.394168" lon="12.9569649"><ele>745.0</ele><time>2026-04-18T07:46:52.021Z</time></trkpt><trkpt lat="43.39409" lon="12.9568555"><ele>745.0</ele><time>2026-04-18T07:46:54.019Z</time></trkpt><trkpt lat="43.393999" lon="12.9567496"><ele>745.0</ele><time>2026-04-18T07:46:56.019Z</time></trkpt><trkpt lat="43.393922" lon="12.956651"><ele>745.0</ele><time>2026-04-18T07:46:58.014Z</time></trkpt><trkpt lat="43.3938321" lon="12.9565236"><ele>747.2857142857142</ele><time>2026-04-18T07:47:00.014Z</time></trkpt><trkpt lat="43.3937807" lon="12.9564427"><ele>749.5714285714286</ele><time>2026-04-18T07:47:01.012Z</time></trkpt><trkpt lat="43.3937278" lon="12.9563657"><ele>751.8571428571429</ele><time>2026-04-18T07:47:02.023Z</time></trkpt><trkpt lat="43.3936776" lon="12.9562964"><ele>754.1428571428571</ele><time>2026-04-18T07:47:03.011Z</time></trkpt><trkpt lat="43.3936277" lon="12.9562352"><ele>756.4285714285714</ele><time>2026-04-18T07:47:04.016Z</time></trkpt><trkpt lat="43.3935734" lon="12.9561743"><ele>758.7142857142857</ele><time>2026-04-18T07:47:05.003Z</time></trkpt><trkpt lat="43.3935231" lon="12.9561097"><ele>761.0</ele><time>2026-04-18T07:47:06.018Z</time></trkpt><trkpt lat="43.3934738" lon="12.9560449"><ele>761.0</ele><time>2026-04-18T07:47:07.013Z</time></trkpt><trkpt lat="43.3934222" lon="12.9559935"><ele>761.0</ele><time>2026-04-18T07:47:08.009Z</time></trkpt><trkpt lat="43.3933642" lon="12.9559561"><ele>761.0</ele><time>2026-04-18T07:47:09.011Z</time></trkpt><trkpt lat="43.3932584" lon="12.9559809"><ele>761.0</ele><time>2026-04-18T07:47:11.007Z</time></trkpt><trkpt lat="43.3932257" lon="12.9561587"><ele>761.0</ele><time>2026-04-18T07:47:13.013Z</time></trkpt><trkpt lat="43.3932502" lon="12.9562811"><ele>761.0</ele><time>2026-04-18T07:47:14.009Z</time></trkpt><trkpt lat="43.3932964" lon="12.9564131"><ele>761.0</ele><time>2026-04-18T07:47:15.007Z</time></trkpt><trkpt lat="43.3933405" lon="12.9565642"><ele>761.0</ele><time>2026-04-18T07:47:16.021Z</time></trkpt><trkpt lat="43.3933856" lon="12.956717"><ele>761.0</ele><time>2026-04-18T07:47:17.006Z</time></trkpt><trkpt lat="43.3934224" lon="12.9568686"><ele>763.75</ele><time>2026-04-18T07:47:18.011Z</time></trkpt><trkpt lat="43.3934603" lon="12.9570218"><ele>766.5</ele><time>2026-04-18T07:47:19.008Z</time></trkpt><trkpt lat="43.3935032" lon="12.9571628"><ele>769.25</ele><time>2026-04-18T07:47:20.014Z</time></trkpt><trkpt lat="43.3935548" lon="12.957311"><ele>772.0</ele><time>2026-04-18T07:47:21.019Z</time></trkpt><trkpt lat="43.393621" lon="12.957462"><ele>771.75</ele><time>2026-04-18T07:47:22.012Z</time></trkpt><trkpt lat="43.3936944" lon="12.9576043"><ele>771.5</ele><time>2026-04-18T07:47:23.02Z</time></trkpt><trkpt lat="43.3937676" lon="12.9577459"><ele>771.25</ele><time>2026-04-18T07:47:24.019Z</time></trkpt><trkpt lat="43.3938336" lon="12.9578785"><ele>771.0</ele><time>2026-04-18T07:47:25.02Z</time></trkpt><trkpt lat="43.3938863" lon="12.957996"><ele>771.0</ele><time>2026-04-18T07:47:26.026Z</time></trkpt><trkpt lat="43.3939339" lon="12.9581063"><ele>771.0</ele><time>2026-04-18T07:47:27.02Z</time></trkpt><trkpt lat="43.3939772" lon="12.9582107"><ele>771.0</ele><time>2026-04-18T07:47:28.023Z</time></trkpt><trkpt lat="43.3940254" lon="12.9582981"><ele>771.0</ele><time>2026-04-18T07:47:29.01Z</time></trkpt><trkpt lat="43.3940817" lon="12.9583765"><ele>771.0</ele><time>2026-04-18T07:47:30.015Z</time></trkpt><trkpt lat="43.394144" lon="12.9584459"><ele>771.0</ele><time>2026-04-18T07:47:31.013Z</time></trkpt><trkpt lat="43.394214" lon="12.9585051"><ele>773.4</ele><time>2026-04-18T07:47:32.02Z</time></trkpt><trkpt lat="43.3943012" lon="12.9585614"><ele>775.8</ele><time>2026-04-18T07:47:33.012Z</time></trkpt><trkpt lat="43.3943952" lon="12.958604"><ele>778.1999999999999</ele><time>2026-04-18T07:47:34.021Z</time></trkpt><trkpt lat="43.3944798" lon="12.9586282"><ele>780.5999999999999</ele><time>2026-04-18T07:47:35.021Z</time></trkpt><trkpt lat="43.3945775" lon="12.958668"><ele>783.0</ele><time>2026-04-18T07:47:37.01Z</time></trkpt><trkpt lat="43.3945558" lon="12.958759"><ele>783.0</ele><time>2026-04-18T07:47:39.01Z</time></trkpt><trkpt lat="43.3944965" lon="12.9587907"><ele>783.0</ele><time>2026-04-18T07:47:40.018Z</time></trkpt><trkpt lat="43.3944228" lon="12.9587887"><ele>783.0</ele><time>2026-04-18T07:47:41.011Z</time></trkpt><trkpt lat="43.3943386" lon="12.9587903"><ele>783.0</ele><time>2026-04-18T07:47:42.026Z</time></trkpt><trkpt lat="43.3942553" lon="12.9588087"><ele>783.0</ele><time>2026-04-18T07:47:43.02Z</time></trkpt><trkpt lat="43.3941786" lon="12.9588292"><ele>783.0</ele><time>2026-04-18T07:47:44.022Z</time></trkpt><trkpt lat="43.39412" lon="12.958879"><ele>783.0</ele><time>2026-04-18T07:47:45.022Z</time></trkpt><trkpt lat="43.3940756" lon="12.958964"><ele>783.0</ele><time>2026-04-18T07:47:46.003Z</time></trkpt><trkpt lat="43.3940398" lon="12.9591015"><ele>783.0</ele><time>2026-04-18T07:47:48.009Z</time></trkpt><trkpt lat="43.3939969" lon="12.9591721"><ele>783.0</ele><time>2026-04-18T07:47:50.009Z</time></trkpt><trkpt lat="43.39394" lon="12.9592338"><ele>783.0</ele><time>2026-04-18T07:47:53.021Z</time></trkpt><trkpt lat="43.3938725" lon="12.959305"><ele>783.0</ele><time>2026-04-18T07:48:13.012Z</time></trkpt><trkpt lat="43.3938126" lon="12.9593906"><ele>784.6666666666666</ele><time>2026-04-18T07:48:40.023Z</time></trkpt><trkpt lat="43.3937298" lon="12.9594697"><ele>786.3333333333333</ele><time>2026-04-18T07:48:42.018Z</time></trkpt><trkpt lat="43.3936808" lon="12.9595264"><ele>788.0</ele><time>2026-04-18T07:48:43.008Z</time></trkpt><trkpt lat="43.3936278" lon="12.959611"><ele>789.6666666666666</ele><time>2026-04-18T07:48:44.01Z</time></trkpt><trkpt lat="43.3935748" lon="12.9597072"><ele>791.3333333333333</ele><time>2026-04-18T07:48:45.025Z</time></trkpt><trkpt lat="43.3935299" lon="12.9598106"><ele>793.0</ele><time>2026-04-18T07:48:46.01Z</time></trkpt><trkpt lat="43.3934906" lon="12.9599217"><ele>793.9999999999999</ele><time>2026-04-18T07:48:47.018Z</time></trkpt><trkpt lat="43.3934518" lon="12.960049"><ele>795.0</ele><time>2026-04-18T07:48:48.007Z</time></trkpt><trkpt lat="43.3934126" lon="12.9601792"><ele>796.0</ele><time>2026-04-18T07:48:49.006Z</time></trkpt><trkpt lat="43.3933854" lon="12.9602912"><ele>797.0</ele><time>2026-04-18T07:48:50.003Z</time></trkpt><trkpt lat="43.393359" lon="12.9603812"><ele>797.9999999999999</ele><time>2026-04-18T07:48:51.004Z</time></trkpt><trkpt lat="43.3933455" lon="12.9604774"><ele>799.0</ele><time>2026-04-18T07:48:52.031Z</time></trkpt><trkpt lat="43.3933324" lon="12.9605775"><ele>799.0</ele><time>2026-04-18T07:48:53.008Z</time></trkpt><trkpt lat="43.39332" lon="12.9606878"><ele>799.0</ele><time>2026-04-18T07:48:54.027Z</time></trkpt><trkpt lat="43.3933019" lon="12.9608241"><ele>799.0</ele><time>2026-04-18T07:48:55.029Z</time></trkpt><trkpt lat="43.3932844" lon="12.9609649"><ele>799.0</ele><time>2026-04-18T07:48:56.019Z</time></trkpt><trkpt lat="43.3932525" lon="12.9611154"><ele>799.0</ele><time>2026-04-18T07:48:57.012Z</time></trkpt><trkpt lat="43.3932159" lon="12.9612528"><ele>799.2</ele><time>2026-04-18T07:48:58.016Z</time></trkpt><trkpt lat="43.3931786" lon="12.961385"><ele>799.4000000000001</ele><time>2026-04-18T07:48:59.029Z</time></trkpt><trkpt lat="43.3931403" lon="12.9615197"><ele>799.6</ele><time>2026-04-18T07:49:00.016Z</time></trkpt><trkpt lat="43.3931044" lon="12.9616509"><ele>799.8</ele><time>2026-04-18T07:49:01.025Z</time></trkpt><trkpt lat="43.3930694" lon="12.9617849"><ele>800.0</ele><time>2026-04-18T07:49:02.024Z</time></trkpt><trkpt lat="43.3930368" lon="12.9619163"><ele>801.4</ele><time>2026-04-18T07:49:03.006Z</time></trkpt><trkpt lat="43.3930074" lon="12.9620482"><ele>802.8</ele><time>2026-04-18T07:49:04.011Z</time></trkpt><trkpt lat="43.3929744" lon="12.962181"><ele>804.2</ele><time>2026-04-18T07:49:05.014Z</time></trkpt><trkpt lat="43.3929357" lon="12.9623201"><ele>805.6</ele><time>2026-04-18T07:49:06.019Z</time></trkpt><trkpt lat="43.3929046" lon="12.9624558"><ele>807.0</ele><time>2026-04-18T07:49:07.01Z</time></trkpt><trkpt lat="43.3928762" lon="12.9625884"><ele>809.0</ele><time>2026-04-18T07:49:08.009Z</time></trkpt><trkpt lat="43.3928413" lon="12.9627198"><ele>811.0</ele><time>2026-04-18T07:49:09.008Z</time></trkpt><trkpt lat="43.3928032" lon="12.962832"><ele>813.0</ele><time>2026-04-18T07:49:10.016Z</time></trkpt><trkpt lat="43.3927638" lon="12.9629269"><ele>815.0</ele><time>2026-04-18T07:49:11.011Z</time></trkpt><trkpt lat="43.3927153" lon="12.9630215"><ele>817.0</ele><time>2026-04-18T07:49:12.009Z</time></trkpt><trkpt lat="43.3926569" lon="12.9631121"><ele>819.0</ele><time>2026-04-18T07:49:13.008Z</time></trkpt><trkpt lat="43.3925907" lon="12.9631807"><ele>819.0</ele><time>2026-04-18T07:49:14.009Z</time></trkpt><trkpt lat="43.3925247" lon="12.9632331"><ele>819.0</ele><time>2026-04-18T07:49:15.003Z</time></trkpt><trkpt lat="43.3924467" lon="12.9632763"><ele>819.0</ele><time>2026-04-18T07:49:16.024Z</time></trkpt><trkpt lat="43.3923663" lon="12.9633088"><ele>819.0</ele><time>2026-04-18T07:49:17.005Z</time></trkpt><trkpt lat="43.3922779" lon="12.9633399"><ele>819.0</ele><time>2026-04-18T07:49:18.017Z</time></trkpt><trkpt lat="43.3921822" lon="12.9633732"><ele>819.0</ele><time>2026-04-18T07:49:19.012Z</time></trkpt><trkpt lat="43.3920819" lon="12.9634043"><ele>816.0</ele><time>2026-04-18T07:49:20.02Z</time></trkpt><trkpt lat="43.3919753" lon="12.9634397"><ele>813.0</ele><time>2026-04-18T07:49:21.003Z</time></trkpt><trkpt lat="43.391864" lon="12.9634772"><ele>810.0</ele><time>2026-04-18T07:49:22.006Z</time></trkpt><trkpt lat="43.3917551" lon="12.9635058"><ele>807.0</ele><time>2026-04-18T07:49:23.014Z</time></trkpt><trkpt lat="43.3916493" lon="12.9635334"><ele>804.0</ele><time>2026-04-18T07:49:24.013Z</time></trkpt><trkpt lat="43.3915534" lon="12.9635644"><ele>804.0</ele><time>2026-04-18T07:49:25.015Z</time></trkpt><trkpt lat="43.3914624" lon="12.9635905"><ele>804.0</ele><time>2026-04-18T07:49:26.006Z</time></trkpt><trkpt lat="43.3913705" lon="12.96362"><ele>804.0</ele><time>2026-04-18T07:49:27.014Z</time></trkpt><trkpt lat="43.3912726" lon="12.9636488"><ele>804.0</ele><time>2026-04-18T07:49:28.018Z</time></trkpt><trkpt lat="43.3911793" lon="12.9636882"><ele>804.0</ele><time>2026-04-18T07:49:29.015Z</time></trkpt><trkpt lat="43.3910825" lon="12.9637232"><ele>805.2</ele><time>2026-04-18T07:49:30.03Z</time></trkpt><trkpt lat="43.3909786" lon="12.9637467"><ele>806.4000000000001</ele><time>2026-04-18T07:49:31.007Z</time></trkpt><trkpt lat="43.3908732" lon="12.9637705"><ele>807.6</ele><time>2026-04-18T07:49:32.013Z</time></trkpt><trkpt lat="43.3907679" lon="12.9637965"><ele>808.8</ele><time>2026-04-18T07:49:33.013Z</time></trkpt><trkpt lat="43.3906711" lon="12.9638198"><ele>810.0</ele><time>2026-04-18T07:49:34.012Z</time></trkpt><trkpt lat="43.3905857" lon="12.9638452"><ele>810.6</ele><time>2026-04-18T07:49:35.013Z</time></trkpt><trkpt lat="43.3905076" lon="12.9638699"><ele>811.2</ele><time>2026-04-18T07:49:36.012Z</time></trkpt><trkpt lat="43.3904335" lon="12.963895"><ele>811.8</ele><time>2026-04-18T07:49:37.006Z</time></trkpt><trkpt lat="43.3903123" lon="12.9639432"><ele>812.4</ele><time>2026-04-18T07:49:39.001Z</time></trkpt><trkpt lat="43.3902055" lon="12.9639846"><ele>813.0</ele><time>2026-04-18T07:49:41.015Z</time></trkpt><trkpt lat="43.390116" lon="12.9640166"><ele>813.0</ele><time>2026-04-18T07:49:43.017Z</time></trkpt><trkpt lat="43.3900448" lon="12.9640324"><ele>813.0</ele><time>2026-04-18T07:49:45.001Z</time></trkpt><trkpt lat="43.3899805" lon="12.964053"><ele>813.0</ele><time>2026-04-18T07:49:47.015Z</time></trkpt><trkpt lat="43.3899113" lon="12.9640724"><ele>813.0</ele><time>2026-04-18T07:49:49.003Z</time></trkpt><trkpt lat="43.3898427" lon="12.9640906"><ele>813.0</ele><time>2026-04-18T07:49:51.005Z</time></trkpt><trkpt lat="43.3897538" lon="12.9640939"><ele>813.0</ele><time>2026-04-18T07:49:52.999Z</time></trkpt><trkpt lat="43.3896448" lon="12.9640993"><ele>813.1666666666666</ele><time>2026-04-18T07:49:55.009Z</time></trkpt><trkpt lat="43.389522" lon="12.9640938"><ele>813.3333333333333</ele><time>2026-04-18T07:49:57.012Z</time></trkpt><trkpt lat="43.3894519" lon="12.9640857"><ele>813.5</ele><time>2026-04-18T07:49:58.022Z</time></trkpt><trkpt lat="43.389375" lon="12.9640728"><ele>813.6666666666666</ele><time>2026-04-18T07:49:59.015Z</time></trkpt><trkpt lat="43.3892985" lon="12.9640569"><ele>813.8333333333333</ele><time>2026-04-18T07:50:00.015Z</time></trkpt><trkpt lat="43.3892164" lon="12.9640377"><ele>814.0</ele><time>2026-04-18T07:50:01.019Z</time></trkpt><trkpt lat="43.3891443" lon="12.9640202"><ele>813.9999999999999</ele><time>2026-04-18T07:50:02.015Z</time></trkpt><trkpt lat="43.3890733" lon="12.9639919"><ele>814.0</ele><time>2026-04-18T07:50:03.018Z</time></trkpt><trkpt lat="43.3889943" lon="12.9639604"><ele>814.0</ele><time>2026-04-18T07:50:04.015Z</time></trkpt><trkpt lat="43.3889117" lon="12.9639326"><ele>814.0</ele><time>2026-04-18T07:50:05.017Z</time></trkpt><trkpt lat="43.3888354" lon="12.9639026"><ele>813.9999999999999</ele><time>2026-04-18T07:50:06.01Z</time></trkpt><trkpt lat="43.3887585" lon="12.9638607"><ele>814.0</ele><time>2026-04-18T07:50:07.013Z</time></trkpt><trkpt lat="43.3886809" lon="12.9638125"><ele>812.6666666666666</ele><time>2026-04-18T07:50:08.012Z</time></trkpt><trkpt lat="43.3886102" lon="12.9637645"><ele>811.3333333333333</ele><time>2026-04-18T07:50:09.017Z</time></trkpt><trkpt lat="43.3885344" lon="12.9637116"><ele>810.0</ele><time>2026-04-18T07:50:10.011Z</time></trkpt><trkpt lat="43.3884549" lon="12.963661"><ele>808.6666666666667</ele><time>2026-04-18T07:50:11.014Z</time></trkpt><trkpt lat="43.3883757" lon="12.963612"><ele>807.3333333333334</ele><time>2026-04-18T07:50:12.015Z</time></trkpt><trkpt lat="43.3882949" lon="12.9635553"><ele>806.0</ele><time>2026-04-18T07:50:13.013Z</time></trkpt><trkpt lat="43.3882083" lon="12.9634929"><ele>806.0000000000001</ele><time>2026-04-18T07:50:14.015Z</time></trkpt><trkpt lat="43.3881236" lon="12.96344"><ele>806.0</ele><time>2026-04-18T07:50:15.006Z</time></trkpt><trkpt lat="43.3880386" lon="12.9633903"><ele>806.0</ele><time>2026-04-18T07:50:16.017Z</time></trkpt><trkpt lat="43.3879633" lon="12.9633331"><ele>806.0</ele><time>2026-04-18T07:50:17.012Z</time></trkpt><trkpt lat="43.3878881" lon="12.9632745"><ele>806.0000000000001</ele><time>2026-04-18T07:50:18.034Z</time></trkpt><trkpt lat="43.3878088" lon="12.9632133"><ele>806.0</ele><time>2026-04-18T07:50:19.023Z</time></trkpt><trkpt lat="43.3877369" lon="12.9631404"><ele>806.0</ele><time>2026-04-18T07:50:20.019Z</time></trkpt><trkpt lat="43.3876673" lon="12.9630424"><ele>806.0</ele><time>2026-04-18T07:50:21.015Z</time></trkpt><trkpt lat="43.3876069" lon="12.9629345"><ele>806.0</ele><time>2026-04-18T07:50:22.017Z</time></trkpt><trkpt lat="43.3875387" lon="12.9628251"><ele>806.0</ele><time>2026-04-18T07:50:23.016Z</time></trkpt><trkpt lat="43.3874666" lon="12.9627284"><ele>806.0</ele><time>2026-04-18T07:50:24.019Z</time></trkpt><trkpt lat="43.3873842" lon="12.9626559"><ele>806.0</ele><time>2026-04-18T07:50:25.012Z</time></trkpt><trkpt lat="43.3873039" lon="12.9625885"><ele>806.0</ele><time>2026-04-18T07:50:26.025Z</time></trkpt><trkpt lat="43.3872346" lon="12.962509"><ele>806.0</ele><time>2026-04-18T07:50:27.016Z</time></trkpt><trkpt lat="43.3871851" lon="12.9624077"><ele>806.0</ele><time>2026-04-18T07:50:28.018Z</time></trkpt><trkpt lat="43.3871377" lon="12.9622921"><ele>806.0</ele><time>2026-04-18T07:50:29.015Z</time></trkpt><trkpt lat="43.3870951" lon="12.9621688"><ele>806.8333333333334</ele><time>2026-04-18T07:50:30.02Z</time></trkpt><trkpt lat="43.3870533" lon="12.9620517"><ele>807.6666666666667</ele><time>2026-04-18T07:50:31.015Z</time></trkpt><trkpt lat="43.3870162" lon="12.9619435"><ele>808.5</ele><time>2026-04-18T07:50:32.024Z</time></trkpt><trkpt lat="43.3869868" lon="12.9618471"><ele>809.3333333333333</ele><time>2026-04-18T07:50:33.02Z</time></trkpt><trkpt lat="43.3869558" lon="12.9617072"><ele>810.1666666666666</ele><time>2026-04-18T07:50:35.017Z</time></trkpt><trkpt lat="43.3870199" lon="12.9616688"><ele>811.0</ele><time>2026-04-18T07:51:17.023Z</time></trkpt><trkpt lat="43.3870837" lon="12.9617055"><ele>812.1999999999999</ele><time>2026-04-18T07:51:19.02Z</time></trkpt><trkpt lat="43.3871834" lon="12.961789"><ele>813.4</ele><time>2026-04-18T07:51:21.021Z</time></trkpt><trkpt lat="43.3872558" lon="12.961843"><ele>814.6</ele><time>2026-04-18T07:51:22.022Z</time></trkpt><trkpt lat="43.3873418" lon="12.9618864"><ele>815.8</ele><time>2026-04-18T07:51:23.009Z</time></trkpt><trkpt lat="43.3874293" lon="12.9619304"><ele>817.0</ele><time>2026-04-18T07:51:24.02Z</time></trkpt><trkpt lat="43.3875246" lon="12.9619699"><ele>817.0</ele><time>2026-04-18T07:51:25.017Z</time></trkpt><trkpt lat="43.3876268" lon="12.9620034"><ele>817.0</ele><time>2026-04-18T07:51:26.013Z</time></trkpt><trkpt lat="43.3877289" lon="12.9620326"><ele>817.0</ele><time>2026-04-18T07:51:27.009Z</time></trkpt><trkpt lat="43.3878235" lon="12.9620499"><ele>817.0</ele><time>2026-04-18T07:51:28.017Z</time></trkpt><trkpt lat="43.3879074" lon="12.9620632"><ele>817.0</ele><time>2026-04-18T07:51:29.008Z</time></trkpt><trkpt lat="43.3879867" lon="12.9620778"><ele>819.8333333333333</ele><time>2026-04-18T07:51:30.012Z</time></trkpt><trkpt lat="43.3880693" lon="12.9620974"><ele>822.6666666666666</ele><time>2026-04-18T07:51:31.014Z</time></trkpt><trkpt lat="43.3881509" lon="12.9621229"><ele>825.5</ele><time>2026-04-18T07:51:32.019Z</time></trkpt><trkpt lat="43.3882402" lon="12.9621443"><ele>828.3333333333333</ele><time>2026-04-18T07:51:33.017Z</time></trkpt><trkpt lat="43.3883264" lon="12.9621559"><ele>831.1666666666666</ele><time>2026-04-18T07:51:34.015Z</time></trkpt><trkpt lat="43.3884088" lon="12.9621662"><ele>834.0</ele><time>2026-04-18T07:51:35.02Z</time></trkpt><trkpt lat="43.3884849" lon="12.962172"><ele>834.0</ele><time>2026-04-18T07:51:36.011Z</time></trkpt><trkpt lat="43.3885614" lon="12.9621599"><ele>834.0</ele><time>2026-04-18T07:51:37.016Z</time></trkpt><trkpt lat="43.3886639" lon="12.9621005"><ele>834.0</ele><time>2026-04-18T07:51:39.007Z</time></trkpt><trkpt lat="43.3887572" lon="12.9620361"><ele>834.0</ele><time>2026-04-18T07:51:41.01Z</time></trkpt><trkpt lat="43.3888416" lon="12.9619352"><ele>834.0</ele><time>2026-04-18T07:51:43.019Z</time></trkpt><trkpt lat="43.3888787" lon="12.9617893"><ele>837.4000000000001</ele><time>2026-04-18T07:51:45.022Z</time></trkpt><trkpt lat="43.3888637" lon="12.9616624"><ele>840.8</ele><time>2026-04-18T07:51:47.011Z</time></trkpt><trkpt lat="43.3888159" lon="12.9615642"><ele>844.2</ele><time>2026-04-18T07:51:49.006Z</time></trkpt><trkpt lat="43.3887932" lon="12.9614474"><ele>847.5999999999999</ele><time>2026-04-18T07:51:51.011Z</time></trkpt><trkpt lat="43.3887351" lon="12.9613357"><ele>851.0</ele><time>2026-04-18T07:51:52.999Z</time></trkpt><trkpt lat="43.3886378" lon="12.9612302"><ele>851.0000000000001</ele><time>2026-04-18T07:51:55.017Z</time></trkpt><trkpt lat="43.3885809" lon="12.9611725"><ele>851.0</ele><time>2026-04-18T07:51:56.014Z</time></trkpt><trkpt lat="43.3885157" lon="12.9611159"><ele>851.0</ele><time>2026-04-18T07:51:57.01Z</time></trkpt><trkpt lat="43.3884514" lon="12.9610582"><ele>851.0</ele><time>2026-04-18T07:51:58.015Z</time></trkpt><trkpt lat="43.3883849" lon="12.9609959"><ele>851.0000000000001</ele><time>2026-04-18T07:51:59.007Z</time></trkpt><trkpt lat="43.388306" lon="12.9609369"><ele>851.0</ele><time>2026-04-18T07:52:00.007Z</time></trkpt><trkpt lat="43.3882267" lon="12.9608795"><ele>851.0000000000001</ele><time>2026-04-18T07:52:01.009Z</time></trkpt><trkpt lat="43.3881529" lon="12.9608256"><ele>851.0</ele><time>2026-04-18T07:52:02.016Z</time></trkpt><trkpt lat="43.3880902" lon="12.9607708"><ele>851.0</ele><time>2026-04-18T07:52:03.011Z</time></trkpt><trkpt lat="43.3880331" lon="12.9607192"><ele>851.0</ele><time>2026-04-18T07:52:04.019Z</time></trkpt><trkpt lat="43.3879765" lon="12.9606671"><ele>851.0000000000001</ele><time>2026-04-18T07:52:05.005Z</time></trkpt><trkpt lat="43.3878728" lon="12.9605827"><ele>851.0</ele><time>2026-04-18T07:52:07.001Z</time></trkpt><trkpt lat="43.3877932" lon="12.9604946"><ele>851.0</ele><time>2026-04-18T07:52:09.012Z</time></trkpt><trkpt lat="43.3877646" lon="12.9603862"><ele>851.0</ele><time>2026-04-18T07:52:11.027Z</time></trkpt><trkpt lat="43.3878014" lon="12.960293"><ele>851.0</ele><time>2026-04-18T07:52:13.016Z</time></trkpt><trkpt lat="43.3878856" lon="12.9602023"><ele>851.0</ele><time>2026-04-18T07:52:15.026Z</time></trkpt><trkpt lat="43.3880047" lon="12.9601486"><ele>851.0</ele><time>2026-04-18T07:52:17.016Z</time></trkpt><trkpt lat="43.388077" lon="12.9601174"><ele>855.1999999999999</ele><time>2026-04-18T07:52:18.023Z</time></trkpt><trkpt lat="43.3881643" lon="12.9600879"><ele>859.4</ele><time>2026-04-18T07:52:19.018Z</time></trkpt><trkpt lat="43.3882547" lon="12.9600623"><ele>863.6</ele><time>2026-04-18T07:52:20.022Z</time></trkpt><trkpt lat="43.3883487" lon="12.9600479"><ele>867.8</ele><time>2026-04-18T07:52:21.02Z</time></trkpt><trkpt lat="43.3884393" lon="12.9600445"><ele>872.0</ele><time>2026-04-18T07:52:22.017Z</time></trkpt><trkpt lat="43.3885297" lon="12.9600431"><ele>872.0</ele><time>2026-04-18T07:52:23.017Z</time></trkpt><trkpt lat="43.3886224" lon="12.9600398"><ele>872.0</ele><time>2026-04-18T07:52:24.01Z</time></trkpt><trkpt lat="43.3887112" lon="12.960032"><ele>872.0</ele><time>2026-04-18T07:52:25.003Z</time></trkpt><trkpt lat="43.3888006" lon="12.9600226"><ele>872.0</ele><time>2026-04-18T07:52:26.015Z</time></trkpt><trkpt lat="43.3888942" lon="12.9600212"><ele>872.0</ele><time>2026-04-18T07:52:27.027Z</time></trkpt><trkpt lat="43.3889915" lon="12.9600169"><ele>876.6666666666667</ele><time>2026-04-18T07:52:28.015Z</time></trkpt><trkpt lat="43.3890787" lon="12.9600035"><ele>881.3333333333334</ele><time>2026-04-18T07:52:29.018Z</time></trkpt><trkpt lat="43.3891604" lon="12.9599882"><ele>886.0</ele><time>2026-04-18T07:52:30.011Z</time></trkpt><trkpt lat="43.3892455" lon="12.9599839"><ele>890.6666666666667</ele><time>2026-04-18T07:52:31.017Z</time></trkpt><trkpt lat="43.389337" lon="12.9599849"><ele>895.3333333333334</ele><time>2026-04-18T07:52:32.011Z</time></trkpt><trkpt lat="43.3894188" lon="12.9599865"><ele>900.0</ele><time>2026-04-18T07:52:33.008Z</time></trkpt><trkpt lat="43.3894951" lon="12.9599778"><ele>900.0000000000001</ele><time>2026-04-18T07:52:34.017Z</time></trkpt><trkpt lat="43.3895647" lon="12.9599704"><ele>900.0</ele><time>2026-04-18T07:52:35.007Z</time></trkpt><trkpt lat="43.3896349" lon="12.9599707"><ele>900.0000000000001</ele><time>2026-04-18T07:52:36.009Z</time></trkpt><trkpt lat="43.3897168" lon="12.9599714"><ele>900.0000000000001</ele><time>2026-04-18T07:52:38.011Z</time></trkpt><trkpt lat="43.3897794" lon="12.9599994"><ele>900.0</ele><time>2026-04-18T07:52:41.006Z</time></trkpt><trkpt lat="43.389827" lon="12.9600881"><ele>900.0000000000001</ele><time>2026-04-18T07:59:33.014Z</time></trkpt><trkpt lat="43.3898511" lon="12.9600061"><ele>900.0000000000001</ele><time>2026-04-18T07:59:38.019Z</time></trkpt><trkpt lat="43.3897857" lon="12.9599638"><ele>900.0</ele><time>2026-04-18T07:59:41.012Z</time></trkpt><trkpt lat="43.3897225" lon="12.9599569"><ele>900.0</ele><time>2026-04-18T07:59:44.013Z</time></trkpt><trkpt lat="43.3896523" lon="12.9599798"><ele>900.0</ele><time>2026-04-18T07:59:47.016Z</time></trkpt><trkpt lat="43.3895858" lon="12.9599838"><ele>900.0</ele><time>2026-04-18T07:59:49.014Z</time></trkpt><trkpt lat="43.3895109" lon="12.9599804"><ele>900.0</ele><time>2026-04-18T07:59:51.01Z</time></trkpt><trkpt lat="43.389421" lon="12.9599865"><ele>900.0</ele><time>2026-04-18T07:59:53.023Z</time></trkpt><trkpt lat="43.3893104" lon="12.9599928"><ele>900.0</ele><time>2026-04-18T07:59:55.01Z</time></trkpt><trkpt lat="43.3891921" lon="12.9599725"><ele>900.0</ele><time>2026-04-18T07:59:57.027Z</time></trkpt><trkpt lat="43.3891292" lon="12.9599792"><ele>900.0</ele><time>2026-04-18T07:59:58.017Z</time></trkpt><trkpt lat="43.3890634" lon="12.959997"><ele>900.0</ele><time>2026-04-18T07:59:59.014Z</time></trkpt><trkpt lat="43.3889969" lon="12.960009"><ele>900.0</ele><time>2026-04-18T08:00:00.021Z</time></trkpt><trkpt lat="43.3889231" lon="12.9600154"><ele>900.0</ele><time>2026-04-18T08:00:01.01Z</time></trkpt><trkpt lat="43.3888457" lon="12.9600144"><ele>896.3333333333334</ele><time>2026-04-18T08:00:02.02Z</time></trkpt><trkpt lat="43.3887712" lon="12.9600005"><ele>892.6666666666667</ele><time>2026-04-18T08:00:03.007Z</time></trkpt><trkpt lat="43.3886875" lon="12.9599954"><ele>889.0</ele><time>2026-04-18T08:00:04.024Z</time></trkpt><trkpt lat="43.3885989" lon="12.96"><ele>885.3333333333334</ele><time>2026-04-18T08:00:05.006Z</time></trkpt><trkpt lat="43.3885024" lon="12.9600066"><ele>881.6666666666667</ele><time>2026-04-18T08:00:06.01Z</time></trkpt><trkpt lat="43.3884082" lon="12.9600037"><ele>878.0</ele><time>2026-04-18T08:00:07.024Z</time></trkpt><trkpt lat="43.3883088" lon="12.9600024"><ele>878.0</ele><time>2026-04-18T08:00:08.008Z</time></trkpt><trkpt lat="43.3882119" lon="12.9599948"><ele>878.0</ele><time>2026-04-18T08:00:09.017Z</time></trkpt><trkpt lat="43.3881148" lon="12.959983"><ele>878.0</ele><time>2026-04-18T08:00:10.026Z</time></trkpt><trkpt lat="43.3880096" lon="12.9599743"><ele>878.0</ele><time>2026-04-18T08:00:11.011Z</time></trkpt><trkpt lat="43.3878948" lon="12.9599747"><ele>878.0</ele><time>2026-04-18T08:00:12.014Z</time></trkpt><trkpt lat="43.3877913" lon="12.9599769"><ele>875.3333333333334</ele><time>2026-04-18T08:00:13.017Z</time></trkpt><trkpt lat="43.3876948" lon="12.9599606"><ele>872.6666666666667</ele><time>2026-04-18T08:00:14.024Z</time></trkpt><trkpt lat="43.387598" lon="12.9599551"><ele>870.0</ele><time>2026-04-18T08:00:15.011Z</time></trkpt><trkpt lat="43.3875085" lon="12.9599532"><ele>867.3333333333333</ele><time>2026-04-18T08:00:16.014Z</time></trkpt><trkpt lat="43.3874257" lon="12.9599595"><ele>864.6666666666666</ele><time>2026-04-18T08:00:17.017Z</time></trkpt><trkpt lat="43.3873506" lon="12.9599678"><ele>862.0</ele><time>2026-04-18T08:00:18.014Z</time></trkpt><trkpt lat="43.3872751" lon="12.9599661"><ele>859.1666666666666</ele><time>2026-04-18T08:00:19.03Z</time></trkpt><trkpt lat="43.3871521" lon="12.9599633"><ele>856.3333333333333</ele><time>2026-04-18T08:00:21.023Z</time></trkpt><trkpt lat="43.3870609" lon="12.9599574"><ele>853.5</ele><time>2026-04-18T08:00:23.02Z</time></trkpt><trkpt lat="43.3869806" lon="12.9599847"><ele>850.6666666666667</ele><time>2026-04-18T08:00:25.015Z</time></trkpt><trkpt lat="43.3869071" lon="12.9600063"><ele>847.8333333333334</ele><time>2026-04-18T08:00:30.022Z</time></trkpt><trkpt lat="43.3868338" lon="12.9600163"><ele>845.0</ele><time>2026-04-18T08:00:38.016Z</time></trkpt><trkpt lat="43.3868294" lon="12.9601217"><ele>845.0000000000001</ele><time>2026-04-18T08:00:47.022Z</time></trkpt><trkpt lat="43.3869073" lon="12.9601525"><ele>845.0</ele><time>2026-04-18T08:00:49.014Z</time></trkpt><trkpt lat="43.386962" lon="12.9601957"><ele>845.0</ele><time>2026-04-18T08:00:51.036Z</time></trkpt><trkpt lat="43.3869434" lon="12.9601074"><ele>845.0</ele><time>2026-04-18T08:01:07.007Z</time></trkpt><trkpt lat="43.3868757" lon="12.9600419"><ele>845.0000000000001</ele><time>2026-04-18T08:01:09.009Z</time></trkpt><trkpt lat="43.3867669" lon="12.9599756"><ele>845.0</ele><time>2026-04-18T08:01:11.013Z</time></trkpt><trkpt lat="43.3866535" lon="12.9599291"><ele>845.0000000000001</ele><time>2026-04-18T08:01:13.014Z</time></trkpt><trkpt lat="43.3865641" lon="12.959916"><ele>845.0</ele><time>2026-04-18T08:01:15.013Z</time></trkpt><trkpt lat="43.3864973" lon="12.9599005"><ele>845.0</ele><time>2026-04-18T08:01:17.017Z</time></trkpt><trkpt lat="43.386427" lon="12.9598755"><ele>845.0</ele><time>2026-04-18T08:01:20.03Z</time></trkpt><trkpt lat="43.3863557" lon="12.9598678"><ele>845.0000000000001</ele><time>2026-04-18T08:01:25.011Z</time></trkpt><trkpt lat="43.3862716" lon="12.9599067"><ele>845.0</ele><time>2026-04-18T08:01:29.007Z</time></trkpt><trkpt lat="43.3861761" lon="12.959877"><ele>842.0</ele><time>2026-04-18T08:01:31.015Z</time></trkpt><trkpt lat="43.3860885" lon="12.9598641"><ele>839.0</ele><time>2026-04-18T08:01:33.02Z</time></trkpt><trkpt lat="43.3859903" lon="12.9598877"><ele>836.0</ele><time>2026-04-18T08:01:35.019Z</time></trkpt><trkpt lat="43.385877" lon="12.9599163"><ele>833.0</ele><time>2026-04-18T08:01:37.02Z</time></trkpt><trkpt lat="43.3857793" lon="12.9599335"><ele>830.0</ele><time>2026-04-18T08:01:39.014Z</time></trkpt><trkpt lat="43.3856889" lon="12.9599245"><ele>830.0000000000001</ele><time>2026-04-18T08:01:41.014Z</time></trkpt><trkpt lat="43.385612" lon="12.9599196"><ele>830.0</ele><time>2026-04-18T08:01:43.013Z</time></trkpt><trkpt lat="43.3855472" lon="12.9599276"><ele>830.0</ele><time>2026-04-18T08:01:45.019Z</time></trkpt><trkpt lat="43.3854634" lon="12.9599449"><ele>830.0</ele><time>2026-04-18T08:01:48.015Z</time></trkpt><trkpt lat="43.3854258" lon="12.960019"><ele>830.0000000000001</ele><time>2026-04-18T08:01:50.019Z</time></trkpt><trkpt lat="43.3853924" lon="12.9601256"><ele>830.0</ele><time>2026-04-18T08:01:52.021Z</time></trkpt><trkpt lat="43.3853771" lon="12.9602759"><ele>828.6</ele><time>2026-04-18T08:01:54.027Z</time></trkpt><trkpt lat="43.3854028" lon="12.9604272"><ele>827.2</ele><time>2026-04-18T08:01:56.017Z</time></trkpt><trkpt lat="43.3854304" lon="12.9605679"><ele>825.8</ele><time>2026-04-18T08:01:58.025Z</time></trkpt><trkpt lat="43.3854354" lon="12.9607005"><ele>824.4</ele><time>2026-04-18T08:02:00.034Z</time></trkpt><trkpt lat="43.3854406" lon="12.9607909"><ele>823.0</ele><time>2026-04-18T08:02:02.015Z</time></trkpt><trkpt lat="43.3854887" lon="12.9608798"><ele>819.9999999999999</ele><time>2026-04-18T08:02:05.017Z</time></trkpt><trkpt lat="43.3854413" lon="12.9609652"><ele>817.0</ele><time>2026-04-18T08:02:08.019Z</time></trkpt><trkpt lat="43.3853801" lon="12.9610601"><ele>814.0</ele><time>2026-04-18T08:02:10.009Z</time></trkpt><trkpt lat="43.3853266" lon="12.961197"><ele>811.0</ele><time>2026-04-18T08:02:12.009Z</time></trkpt><trkpt lat="43.3852906" lon="12.9612716"><ele>807.9999999999999</ele><time>2026-04-18T08:02:13Z</time></trkpt><trkpt lat="43.3852637" lon="12.9613523"><ele>805.0</ele><time>2026-04-18T08:02:14.014Z</time></trkpt><trkpt lat="43.3852354" lon="12.9614329"><ele>805.0</ele><time>2026-04-18T08:02:15.004Z</time></trkpt><trkpt lat="43.3852018" lon="12.9615145"><ele>805.0</ele><time>2026-04-18T08:02:16.013Z</time></trkpt><trkpt lat="43.3851619" lon="12.9615985"><ele>805.0</ele><time>2026-04-18T08:02:17.014Z</time></trkpt><trkpt lat="43.3850797" lon="12.9617183"><ele>805.0</ele><time>2026-04-18T08:02:19.008Z</time></trkpt><trkpt lat="43.3849757" lon="12.9618098"><ele>805.0</ele><time>2026-04-18T08:02:21.009Z</time></trkpt><trkpt lat="43.384911" lon="12.961855"><ele>805.9999999999999</ele><time>2026-04-18T08:02:22.016Z</time></trkpt><trkpt lat="43.3848445" lon="12.9619026"><ele>807.0</ele><time>2026-04-18T08:02:23.017Z</time></trkpt><trkpt lat="43.3847827" lon="12.9619487"><ele>808.0</ele><time>2026-04-18T08:02:24.026Z</time></trkpt><trkpt lat="43.3847224" lon="12.9619866"><ele>809.0</ele><time>2026-04-18T08:02:25.022Z</time></trkpt><trkpt lat="43.3846665" lon="12.9620298"><ele>809.9999999999999</ele><time>2026-04-18T08:02:26.012Z</time></trkpt><trkpt lat="43.3845755" lon="12.9621098"><ele>811.0</ele><time>2026-04-18T08:02:28.013Z</time></trkpt><trkpt lat="43.3844913" lon="12.9621833"><ele>810.9999999999999</ele><time>2026-04-18T08:02:30.011Z</time></trkpt><trkpt lat="43.3843951" lon="12.9622753"><ele>811.0</ele><time>2026-04-18T08:02:32.004Z</time></trkpt><trkpt lat="43.3843225" lon="12.9623584"><ele>811.0</ele><time>2026-04-18T08:02:34.009Z</time></trkpt><trkpt lat="43.3842827" lon="12.9624387"><ele>811.0</ele><time>2026-04-18T08:02:36.002Z</time></trkpt><trkpt lat="43.384266" lon="12.9625289"><ele>810.9999999999999</ele><time>2026-04-18T08:03:01.009Z</time></trkpt><trkpt lat="43.3842809" lon="12.9626323"><ele>811.0</ele><time>2026-04-18T08:03:03.007Z</time></trkpt><trkpt lat="43.3843315" lon="12.9627652"><ele>811.8333333333333</ele><time>2026-04-18T08:03:05.002Z</time></trkpt><trkpt lat="43.3843795" lon="12.9628288"><ele>812.6666666666666</ele><time>2026-04-18T08:03:06.004Z</time></trkpt><trkpt lat="43.3844263" lon="12.9628941"><ele>813.5</ele><time>2026-04-18T08:03:07.005Z</time></trkpt><trkpt lat="43.3844664" lon="12.9629617"><ele>814.3333333333333</ele><time>2026-04-18T08:03:08.009Z</time></trkpt><trkpt lat="43.3845148" lon="12.9631313"><ele>815.1666666666666</ele><time>2026-04-18T08:03:10.004Z</time></trkpt><trkpt lat="43.3845416" lon="12.9632285"><ele>816.0</ele><time>2026-04-18T08:03:11.006Z</time></trkpt><trkpt lat="43.3845662" lon="12.9633335"><ele>815.0</ele><time>2026-04-18T08:03:12.004Z</time></trkpt><trkpt lat="43.3845854" lon="12.9634392"><ele>814.0</ele><time>2026-04-18T08:03:13.006Z</time></trkpt><trkpt lat="43.3845979" lon="12.9635392"><ele>813.0</ele><time>2026-04-18T08:03:14.003Z</time></trkpt><trkpt lat="43.3845993" lon="12.9636379"><ele>812.0</ele><time>2026-04-18T08:03:14.999Z</time></trkpt><trkpt lat="43.384577" lon="12.9637292"><ele>811.0</ele><time>2026-04-18T08:03:16.016Z</time></trkpt><trkpt lat="43.3845341" lon="12.9638238"><ele>810.0</ele><time>2026-04-18T08:03:17.011Z</time></trkpt><trkpt lat="43.3844708" lon="12.9639058"><ele>810.0</ele><time>2026-04-18T08:03:18.012Z</time></trkpt><trkpt lat="43.3844028" lon="12.9639646"><ele>810.0</ele><time>2026-04-18T08:03:19.011Z</time></trkpt><trkpt lat="43.3843243" lon="12.9640076"><ele>810.0</ele><time>2026-04-18T08:03:20.016Z</time></trkpt><trkpt lat="43.3842425" lon="12.9640297"><ele>810.0</ele><time>2026-04-18T08:03:21.01Z</time></trkpt><trkpt lat="43.3841588" lon="12.9640211"><ele>810.0</ele><time>2026-04-18T08:03:22.02Z</time></trkpt><trkpt lat="43.3840711" lon="12.9639884"><ele>810.0</ele><time>2026-04-18T08:03:23.01Z</time></trkpt><trkpt lat="43.3839901" lon="12.963964"><ele>810.0</ele><time>2026-04-18T08:03:24.006Z</time></trkpt><trkpt lat="43.3839085" lon="12.9639742"><ele>810.0</ele><time>2026-04-18T08:03:25.011Z</time></trkpt><trkpt lat="43.3838336" lon="12.9640118"><ele>810.0</ele><time>2026-04-18T08:03:26.013Z</time></trkpt><trkpt lat="43.3837539" lon="12.9640529"><ele>810.0</ele><time>2026-04-18T08:03:27.014Z</time></trkpt><trkpt lat="43.3836698" lon="12.9640782"><ele>810.0</ele><time>2026-04-18T08:03:28.021Z</time></trkpt><trkpt lat="43.3835774" lon="12.9641162"><ele>810.0</ele><time>2026-04-18T08:03:29.008Z</time></trkpt><trkpt lat="43.3834813" lon="12.9641567"><ele>809.8</ele><time>2026-04-18T08:03:30.006Z</time></trkpt><trkpt lat="43.3833913" lon="12.9641936"><ele>809.6</ele><time>2026-04-18T08:03:31.01Z</time></trkpt><trkpt lat="43.3833229" lon="12.9642247"><ele>809.4000000000001</ele><time>2026-04-18T08:03:32.008Z</time></trkpt><trkpt lat="43.3832002" lon="12.9642523"><ele>809.2</ele><time>2026-04-18T08:03:34.018Z</time></trkpt><trkpt lat="43.3830587" lon="12.9642403"><ele>809.0</ele><time>2026-04-18T08:03:36.015Z</time></trkpt><trkpt lat="43.3829805" lon="12.9642196"><ele>809.0000000000001</ele><time>2026-04-18T08:03:37.029Z</time></trkpt><trkpt lat="43.3828973" lon="12.9642029"><ele>809.0</ele><time>2026-04-18T08:03:38.008Z</time></trkpt><trkpt lat="43.3828089" lon="12.9642124"><ele>809.0</ele><time>2026-04-18T08:03:38.997Z</time></trkpt><trkpt lat="43.3827139" lon="12.9642417"><ele>809.0</ele><time>2026-04-18T08:03:40.01Z</time></trkpt><trkpt lat="43.3826315" lon="12.9642714"><ele>809.0000000000001</ele><time>2026-04-18T08:03:41.006Z</time></trkpt><trkpt lat="43.3825552" lon="12.9643012"><ele>809.0</ele><time>2026-04-18T08:03:42.009Z</time></trkpt><trkpt lat="43.382485" lon="12.9643394"><ele>809.0</ele><time>2026-04-18T08:03:43.005Z</time></trkpt><trkpt lat="43.3824249" lon="12.9643843"><ele>809.0</ele><time>2026-04-18T08:03:44.012Z</time></trkpt><trkpt lat="43.3823665" lon="12.9644283"><ele>809.0</ele><time>2026-04-18T08:03:45.017Z</time></trkpt><trkpt lat="43.3823149" lon="12.964481"><ele>809.0</ele><time>2026-04-18T08:03:46.009Z</time></trkpt><trkpt lat="43.3822592" lon="12.964525"><ele>809.0</ele><time>2026-04-18T08:03:47.003Z</time></trkpt><trkpt lat="43.3821924" lon="12.964567"><ele>809.0</ele><time>2026-04-18T08:03:48.017Z</time></trkpt><trkpt lat="43.3821224" lon="12.9646063"><ele>809.0</ele><time>2026-04-18T08:03:49.009Z</time></trkpt><trkpt lat="43.3820462" lon="12.9646506"><ele>809.1666666666667</ele><time>2026-04-18T08:03:50.018Z</time></trkpt><trkpt lat="43.3819714" lon="12.9647029"><ele>809.3333333333334</ele><time>2026-04-18T08:03:51.015Z</time></trkpt><trkpt lat="43.3818948" lon="12.9647453"><ele>809.5</ele><time>2026-04-18T08:03:52.038Z</time></trkpt><trkpt lat="43.3818192" lon="12.9647874"><ele>809.6666666666667</ele><time>2026-04-18T08:03:53.005Z</time></trkpt><trkpt lat="43.381736" lon="12.9648265"><ele>809.8333333333334</ele><time>2026-04-18T08:03:54.008Z</time></trkpt><trkpt lat="43.3816455" lon="12.9648755"><ele>810.0</ele><time>2026-04-18T08:03:55.015Z</time></trkpt><trkpt lat="43.3815503" lon="12.9649267"><ele>810.0</ele><time>2026-04-18T08:03:56.008Z</time></trkpt><trkpt lat="43.3814635" lon="12.9649775"><ele>810.0</ele><time>2026-04-18T08:03:57.014Z</time></trkpt><trkpt lat="43.3813955" lon="12.9650433"><ele>810.0</ele><time>2026-04-18T08:03:58.011Z</time></trkpt><trkpt lat="43.3813331" lon="12.9651289"><ele>810.0</ele><time>2026-04-18T08:03:59.007Z</time></trkpt><trkpt lat="43.3812667" lon="12.9652082"><ele>810.0</ele><time>2026-04-18T08:04:00.006Z</time></trkpt><trkpt lat="43.3811976" lon="12.9652692"><ele>810.0</ele><time>2026-04-18T08:04:01.019Z</time></trkpt><trkpt lat="43.3811131" lon="12.9653396"><ele>805.75</ele><time>2026-04-18T08:04:02.008Z</time></trkpt><trkpt lat="43.3810195" lon="12.9654165"><ele>801.5</ele><time>2026-04-18T08:04:03.009Z</time></trkpt><trkpt lat="43.3809188" lon="12.965497"><ele>797.25</ele><time>2026-04-18T08:04:04.012Z</time></trkpt><trkpt lat="43.3808105" lon="12.9655753"><ele>793.0</ele><time>2026-04-18T08:04:05.011Z</time></trkpt><trkpt lat="43.3807072" lon="12.9656584"><ele>793.0</ele><time>2026-04-18T08:04:06.008Z</time></trkpt><trkpt lat="43.3806187" lon="12.9657365"><ele>793.0</ele><time>2026-04-18T08:04:07.003Z</time></trkpt><trkpt lat="43.380551" lon="12.9658146"><ele>793.0</ele><time>2026-04-18T08:04:08.007Z</time></trkpt><trkpt lat="43.3804937" lon="12.9658701"><ele>793.0</ele><time>2026-04-18T08:04:09.011Z</time></trkpt><trkpt lat="43.3803865" lon="12.9659739"><ele>793.0</ele><time>2026-04-18T08:04:11.015Z</time></trkpt><trkpt lat="43.3803175" lon="12.9660399"><ele>792.8333333333333</ele><time>2026-04-18T08:04:12.006Z</time></trkpt><trkpt lat="43.3802425" lon="12.9661016"><ele>792.6666666666666</ele><time>2026-04-18T08:04:13.006Z</time></trkpt><trkpt lat="43.3801662" lon="12.9661805"><ele>792.5</ele><time>2026-04-18T08:04:14.002Z</time></trkpt><trkpt lat="43.3800953" lon="12.966246"><ele>792.3333333333333</ele><time>2026-04-18T08:04:15.014Z</time></trkpt><trkpt lat="43.3800219" lon="12.9663038"><ele>792.1666666666666</ele><time>2026-04-18T08:04:16.011Z</time></trkpt><trkpt lat="43.3799464" lon="12.9663526"><ele>792.0</ele><time>2026-04-18T08:04:17.007Z</time></trkpt><trkpt lat="43.3798709" lon="12.9664016"><ele>792.0</ele><time>2026-04-18T08:04:18.003Z</time></trkpt><trkpt lat="43.3798006" lon="12.9664737"><ele>792.0</ele><time>2026-04-18T08:04:19.002Z</time></trkpt><trkpt lat="43.3797279" lon="12.9665217"><ele>792.0</ele><time>2026-04-18T08:04:20.016Z</time></trkpt><trkpt lat="43.3796553" lon="12.966586"><ele>792.0</ele><time>2026-04-18T08:04:21.001Z</time></trkpt><trkpt lat="43.3795845" lon="12.9666312"><ele>792.0</ele><time>2026-04-18T08:04:22.016Z</time></trkpt><trkpt lat="43.3795101" lon="12.9666943"><ele>792.0</ele><time>2026-04-18T08:04:23.006Z</time></trkpt><trkpt lat="43.3794386" lon="12.9667512"><ele>793.4000000000001</ele><time>2026-04-18T08:04:24.006Z</time></trkpt><trkpt lat="43.3793599" lon="12.9668221"><ele>794.8000000000001</ele><time>2026-04-18T08:04:25.008Z</time></trkpt><trkpt lat="43.3792931" lon="12.9669112"><ele>796.2</ele><time>2026-04-18T08:04:26.003Z</time></trkpt><trkpt lat="43.3792338" lon="12.9670084"><ele>797.6</ele><time>2026-04-18T08:04:27.021Z</time></trkpt><trkpt lat="43.3791606" lon="12.9670941"><ele>799.0</ele><time>2026-04-18T08:04:28.006Z</time></trkpt><trkpt lat="43.3790827" lon="12.9671823"><ele>799.0</ele><time>2026-04-18T08:04:29.008Z</time></trkpt><trkpt lat="43.3789943" lon="12.9672573"><ele>799.0</ele><time>2026-04-18T08:04:30.008Z</time></trkpt><trkpt lat="43.3789105" lon="12.9673055"><ele>799.0</ele><time>2026-04-18T08:04:31.003Z</time></trkpt><trkpt lat="43.378821" lon="12.967379"><ele>799.0</ele><time>2026-04-18T08:04:32.006Z</time></trkpt><trkpt lat="43.3787249" lon="12.9674592"><ele>799.0</ele><time>2026-04-18T08:04:33.003Z</time></trkpt><trkpt lat="43.3786326" lon="12.9675284"><ele>796.4000000000001</ele><time>2026-04-18T08:04:34.004Z</time></trkpt><trkpt lat="43.3785403" lon="12.9675829"><ele>793.8</ele><time>2026-04-18T08:04:35.011Z</time></trkpt><trkpt lat="43.3784501" lon="12.9676263"><ele>791.2</ele><time>2026-04-18T08:04:36.013Z</time></trkpt><trkpt lat="43.3783545" lon="12.9676701"><ele>788.5999999999999</ele><time>2026-04-18T08:04:37.017Z</time></trkpt><trkpt lat="43.3782535" lon="12.9676934"><ele>786.0</ele><time>2026-04-18T08:04:38.015Z</time></trkpt><trkpt lat="43.3781415" lon="12.9677128"><ele>786.0</ele><time>2026-04-18T08:04:39.014Z</time></trkpt><trkpt lat="43.378032" lon="12.9677363"><ele>786.0</ele><time>2026-04-18T08:04:40.003Z</time></trkpt><trkpt lat="43.3779246" lon="12.967764"><ele>786.0</ele><time>2026-04-18T08:04:41.012Z</time></trkpt><trkpt lat="43.3778167" lon="12.9677987"><ele>786.0</ele><time>2026-04-18T08:04:42.019Z</time></trkpt><trkpt lat="43.3777122" lon="12.9678055"><ele>786.0</ele><time>2026-04-18T08:04:43.003Z</time></trkpt><trkpt lat="43.3776162" lon="12.9678035"><ele>786.0</ele><time>2026-04-18T08:04:44.018Z</time></trkpt><trkpt lat="43.3775129" lon="12.9677851"><ele>786.0</ele><time>2026-04-18T08:04:45.005Z</time></trkpt><trkpt lat="43.3774063" lon="12.9677689"><ele>786.0</ele><time>2026-04-18T08:04:46.013Z</time></trkpt><trkpt lat="43.3772933" lon="12.9677432"><ele>786.0</ele><time>2026-04-18T08:04:47.013Z</time></trkpt><trkpt lat="43.3771805" lon="12.967704"><ele>786.0</ele><time>2026-04-18T08:04:48.005Z</time></trkpt><trkpt lat="43.3770747" lon="12.9676606"><ele>786.0</ele><time>2026-04-18T08:04:48.999Z</time></trkpt><trkpt lat="43.3769641" lon="12.9676176"><ele>786.0</ele><time>2026-04-18T08:04:49.996Z</time></trkpt><trkpt lat="43.3768568" lon="12.9675745"><ele>786.0</ele><time>2026-04-18T08:04:51.003Z</time></trkpt><trkpt lat="43.3767395" lon="12.9675546"><ele>786.0</ele><time>2026-04-18T08:04:52.004Z</time></trkpt><trkpt lat="43.3766301" lon="12.9675511"><ele>786.0</ele><time>2026-04-18T08:04:53.001Z</time></trkpt><trkpt lat="43.376533" lon="12.9675412"><ele>786.0</ele><time>2026-04-18T08:04:54.008Z</time></trkpt><trkpt lat="43.3764457" lon="12.9675358"><ele>786.0</ele><time>2026-04-18T08:04:54.998Z</time></trkpt><trkpt lat="43.3763603" lon="12.967511"><ele>786.0</ele><time>2026-04-18T08:04:56.007Z</time></trkpt><trkpt lat="43.3762668" lon="12.96748"><ele>786.0</ele><time>2026-04-18T08:04:57.001Z</time></trkpt><trkpt lat="43.3761685" lon="12.9674439"><ele>790.5</ele><time>2026-04-18T08:04:58.001Z</time></trkpt><trkpt lat="43.3760757" lon="12.9674089"><ele>795.0</ele><time>2026-04-18T08:04:58.998Z</time></trkpt><trkpt lat="43.3759939" lon="12.9673703"><ele>799.5</ele><time>2026-04-18T08:05:00.008Z</time></trkpt><trkpt lat="43.3759201" lon="12.9673309"><ele>804.0</ele><time>2026-04-18T08:05:01.016Z</time></trkpt><trkpt lat="43.3758478" lon="12.9672918"><ele>808.5</ele><time>2026-04-18T08:05:02.003Z</time></trkpt><trkpt lat="43.3757776" lon="12.9672391"><ele>813.0</ele><time>2026-04-18T08:05:03.004Z</time></trkpt><trkpt lat="43.3757041" lon="12.9672049"><ele>813.0</ele><time>2026-04-18T08:05:04.012Z</time></trkpt><trkpt lat="43.3756454" lon="12.9671667"><ele>813.0</ele><time>2026-04-18T08:05:05.023Z</time></trkpt><trkpt lat="43.3755695" lon="12.9671182"><ele>813.0</ele><time>2026-04-18T08:05:07.007Z</time></trkpt><trkpt lat="43.3754734" lon="12.9670688"><ele>813.0</ele><time>2026-04-18T08:05:10.012Z</time></trkpt><trkpt lat="43.3754216" lon="12.96696"><ele>813.0</ele><time>2026-04-18T08:05:12.01Z</time></trkpt><trkpt lat="43.3753545" lon="12.9668272"><ele>813.5999999999999</ele><time>2026-04-18T08:05:14.009Z</time></trkpt><trkpt lat="43.3752622" lon="12.9666861"><ele>814.1999999999999</ele><time>2026-04-18T08:05:16Z</time></trkpt><trkpt lat="43.3751987" lon="12.9666209"><ele>814.8</ele><time>2026-04-18T08:05:16.997Z</time></trkpt><trkpt lat="43.3751442" lon="12.966519"><ele>815.4</ele><time>2026-04-18T08:05:18.005Z</time></trkpt><trkpt lat="43.3750905" lon="12.9664253"><ele>816.0</ele><time>2026-04-18T08:05:19.011Z</time></trkpt><trkpt lat="43.3750352" lon="12.9663378"><ele>816.0</ele><time>2026-04-18T08:05:19.998Z</time></trkpt><trkpt lat="43.3749726" lon="12.9662642"><ele>816.0</ele><time>2026-04-18T08:05:21.004Z</time></trkpt><trkpt lat="43.374914" lon="12.9661835"><ele>816.0</ele><time>2026-04-18T08:05:21.998Z</time></trkpt><trkpt lat="43.3748553" lon="12.9661095"><ele>816.0</ele><time>2026-04-18T08:05:23.005Z</time></trkpt><trkpt lat="43.3747882" lon="12.9660283"><ele>816.0</ele><time>2026-04-18T08:05:23.998Z</time></trkpt><trkpt lat="43.3747297" lon="12.9659473"><ele>816.0</ele><time>2026-04-18T08:05:24.996Z</time></trkpt><trkpt lat="43.3746699" lon="12.9658712"><ele>812.8571428571429</ele><time>2026-04-18T08:05:26.003Z</time></trkpt><trkpt lat="43.3746041" lon="12.9657902"><ele>809.7142857142858</ele><time>2026-04-18T08:05:26.996Z</time></trkpt><trkpt lat="43.3745472" lon="12.965724"><ele>806.5714285714286</ele><time>2026-04-18T08:05:27.997Z</time></trkpt><trkpt lat="43.3744916" lon="12.9656733"><ele>803.4285714285714</ele><time>2026-04-18T08:05:28.996Z</time></trkpt><trkpt lat="43.3744246" lon="12.965642"><ele>800.2857142857142</ele><time>2026-04-18T08:05:30.005Z</time></trkpt><trkpt lat="43.3743622" lon="12.9656216"><ele>797.1428571428571</ele><time>2026-04-18T08:05:31.004Z</time></trkpt><trkpt lat="43.3742963" lon="12.9655643"><ele>794.0</ele><time>2026-04-18T08:05:33.005Z</time></trkpt><trkpt lat="43.3743536" lon="12.9654782"><ele>794.0</ele><time>2026-04-18T08:05:35.006Z</time></trkpt><trkpt lat="43.3744672" lon="12.9654204"><ele>794.0</ele><time>2026-04-18T08:05:36.996Z</time></trkpt><trkpt lat="43.3745492" lon="12.9653486"><ele>794.0</ele><time>2026-04-18T08:05:38.995Z</time></trkpt><trkpt lat="43.3745672" lon="12.9652549"><ele>794.0</ele><time>2026-04-18T08:05:41.002Z</time></trkpt><trkpt lat="43.3745313" lon="12.9651202"><ele>794.0</ele><time>2026-04-18T08:05:43Z</time></trkpt><trkpt lat="43.3744789" lon="12.964966"><ele>790.2857142857142</ele><time>2026-04-18T08:05:45.014Z</time></trkpt><trkpt lat="43.3744517" lon="12.964878"><ele>786.5714285714286</ele><time>2026-04-18T08:05:46.007Z</time></trkpt><trkpt lat="43.3744155" lon="12.9647901"><ele>782.8571428571429</ele><time>2026-04-18T08:05:47Z</time></trkpt><trkpt lat="43.3743751" lon="12.9647102"><ele>779.1428571428571</ele><time>2026-04-18T08:05:48.017Z</time></trkpt><trkpt lat="43.3743368" lon="12.9646287"><ele>775.4285714285714</ele><time>2026-04-18T08:05:48.997Z</time></trkpt><trkpt lat="43.3742968" lon="12.964545"><ele>771.7142857142857</ele><time>2026-04-18T08:05:50.006Z</time></trkpt><trkpt lat="43.3742787" lon="12.9644553"><ele>768.0</ele><time>2026-04-18T08:05:50.996Z</time></trkpt><trkpt lat="43.3742872" lon="12.9643482"><ele>768.0</ele><time>2026-04-18T08:05:52Z</time></trkpt><trkpt lat="43.3743055" lon="12.9642477"><ele>768.0</ele><time>2026-04-18T08:05:52.989Z</time></trkpt><trkpt lat="43.3743304" lon="12.9641414"><ele>768.0</ele><time>2026-04-18T08:05:54.007Z</time></trkpt><trkpt lat="43.3743495" lon="12.9640184"><ele>768.0</ele><time>2026-04-18T08:05:55.001Z</time></trkpt><trkpt lat="43.3743692" lon="12.9638906"><ele>768.0</ele><time>2026-04-18T08:05:56.01Z</time></trkpt><trkpt lat="43.3743831" lon="12.9637647"><ele>768.0</ele><time>2026-04-18T08:05:57.013Z</time></trkpt><trkpt lat="43.3743952" lon="12.9636436"><ele>763.2</ele><time>2026-04-18T08:05:58.009Z</time></trkpt><trkpt lat="43.3744207" lon="12.9635424"><ele>758.4</ele><time>2026-04-18T08:05:59.002Z</time></trkpt><trkpt lat="43.3744721" lon="12.9634276"><ele>753.6</ele><time>2026-04-18T08:06:01.001Z</time></trkpt><trkpt lat="43.3744984" lon="12.963283"><ele>748.8000000000001</ele><time>2026-04-18T08:06:03Z</time></trkpt><trkpt lat="43.3744868" lon="12.9631891"><ele>744.0</ele><time>2026-04-18T08:06:04.013Z</time></trkpt><trkpt lat="43.3744267" lon="12.9630647"><ele>740.6666666666666</ele><time>2026-04-18T08:06:06.001Z</time></trkpt><trkpt lat="43.3743396" lon="12.962984"><ele>737.3333333333334</ele><time>2026-04-18T08:06:08.008Z</time></trkpt><trkpt lat="43.374285" lon="12.9629189"><ele>734.0</ele><time>2026-04-18T08:06:08.994Z</time></trkpt><trkpt lat="43.374236" lon="12.9628516"><ele>730.6666666666667</ele><time>2026-04-18T08:06:09.999Z</time></trkpt><trkpt lat="43.3741929" lon="12.9627642"><ele>727.3333333333334</ele><time>2026-04-18T08:06:11.012Z</time></trkpt><trkpt lat="43.3741464" lon="12.9626627"><ele>724.0</ele><time>2026-04-18T08:06:11.999Z</time></trkpt><trkpt lat="43.3741146" lon="12.9625561"><ele>724.5</ele><time>2026-04-18T08:06:12.992Z</time></trkpt><trkpt lat="43.3741011" lon="12.9624561"><ele>725.0</ele><time>2026-04-18T08:06:13.997Z</time></trkpt><trkpt lat="43.374084" lon="12.9623489"><ele>725.5</ele><time>2026-04-18T08:06:14.996Z</time></trkpt><trkpt lat="43.3740576" lon="12.962245"><ele>726.0</ele><time>2026-04-18T08:06:16.01Z</time></trkpt><trkpt lat="43.3740292" lon="12.9621377"><ele>726.5</ele><time>2026-04-18T08:06:17.005Z</time></trkpt><trkpt lat="43.3739847" lon="12.9620457"><ele>727.0</ele><time>2026-04-18T08:06:18.007Z</time></trkpt><trkpt lat="43.373933" lon="12.9619509"><ele>727.0</ele><time>2026-04-18T08:06:19Z</time></trkpt><trkpt lat="43.3738956" lon="12.961854"><ele>727.0</ele><time>2026-04-18T08:06:20.006Z</time></trkpt><trkpt lat="43.3738674" lon="12.9617637"><ele>727.0</ele><time>2026-04-18T08:06:21.01Z</time></trkpt><trkpt lat="43.3738442" lon="12.9616761"><ele>727.0</ele><time>2026-04-18T08:06:22.001Z</time></trkpt><trkpt lat="43.3738068" lon="12.9615914"><ele>727.0</ele><time>2026-04-18T08:06:22.998Z</time></trkpt><trkpt lat="43.3737467" lon="12.9615251"><ele>727.0</ele><time>2026-04-18T08:06:23.996Z</time></trkpt><trkpt lat="43.3736834" lon="12.9614522"><ele>720.8571428571428</ele><time>2026-04-18T08:06:25Z</time></trkpt><trkpt lat="43.3736189" lon="12.961381"><ele>714.7142857142858</ele><time>2026-04-18T08:06:25.999Z</time></trkpt><trkpt lat="43.3735636" lon="12.9613149"><ele>708.5714285714286</ele><time>2026-04-18T08:06:26.994Z</time></trkpt><trkpt lat="43.3735069" lon="12.9612539"><ele>702.4285714285713</ele><time>2026-04-18T08:06:28.015Z</time></trkpt><trkpt lat="43.3734625" lon="12.9611861"><ele>696.2857142857142</ele><time>2026-04-18T08:06:28.998Z</time></trkpt><trkpt lat="43.3734374" lon="12.9610937"><ele>690.1428571428571</ele><time>2026-04-18T08:06:30.002Z</time></trkpt><trkpt lat="43.3734335" lon="12.9609909"><ele>684.0</ele><time>2026-04-18T08:06:30.999Z</time></trkpt><trkpt lat="43.3734139" lon="12.9608882"><ele>686.5</ele><time>2026-04-18T08:06:32Z</time></trkpt><trkpt lat="43.373395" lon="12.9607763"><ele>689.0</ele><time>2026-04-18T08:06:33.008Z</time></trkpt><trkpt lat="43.373381" lon="12.9606609"><ele>691.5</ele><time>2026-04-18T08:06:34.004Z</time></trkpt><trkpt lat="43.3733795" lon="12.9605376"><ele>694.0</ele><time>2026-04-18T08:06:35.001Z</time></trkpt><trkpt lat="43.3733891" lon="12.960444"><ele>696.5</ele><time>2026-04-18T08:06:36.016Z</time></trkpt><trkpt lat="43.3734442" lon="12.9603125"><ele>699.0</ele><time>2026-04-18T08:06:38.001Z</time></trkpt><trkpt lat="43.3735088" lon="12.9602335"><ele>699.0</ele><time>2026-04-18T08:06:40.011Z</time></trkpt><trkpt lat="43.3735981" lon="12.9601321"><ele>699.0</ele><time>2026-04-18T08:06:42.005Z</time></trkpt><trkpt lat="43.3737145" lon="12.9600553"><ele>699.0</ele><time>2026-04-18T08:06:44.002Z</time></trkpt><trkpt lat="43.373786" lon="12.9600219"><ele>699.0</ele><time>2026-04-18T08:06:45.001Z</time></trkpt><trkpt lat="43.3738545" lon="12.9599865"><ele>699.0</ele><time>2026-04-18T08:06:46Z</time></trkpt><trkpt lat="43.37393" lon="12.9599417"><ele>702.6666666666666</ele><time>2026-04-18T08:06:47.005Z</time></trkpt><trkpt lat="43.3740077" lon="12.9599015"><ele>706.3333333333334</ele><time>2026-04-18T08:06:48.001Z</time></trkpt><trkpt lat="43.3740794" lon="12.9598593"><ele>710.0</ele><time>2026-04-18T08:06:48.998Z</time></trkpt><trkpt lat="43.3741586" lon="12.959813"><ele>713.6666666666667</ele><time>2026-04-18T08:06:49.999Z</time></trkpt><trkpt lat="43.3742329" lon="12.9597761"><ele>717.3333333333334</ele><time>2026-04-18T08:06:51.001Z</time></trkpt><trkpt lat="43.3743009" lon="12.9597362"><ele>721.0</ele><time>2026-04-18T08:06:51.996Z</time></trkpt><trkpt lat="43.374368" lon="12.9596944"><ele>721.0</ele><time>2026-04-18T08:06:52.996Z</time></trkpt><trkpt lat="43.374426" lon="12.9596433"><ele>721.0</ele><time>2026-04-18T08:06:53.996Z</time></trkpt><trkpt lat="43.3744836" lon="12.9595026"><ele>721.0</ele><time>2026-04-18T08:06:55.995Z</time></trkpt><trkpt lat="43.3745072" lon="12.9594188"><ele>721.0</ele><time>2026-04-18T08:06:56.997Z</time></trkpt><trkpt lat="43.3745384" lon="12.9593248"><ele>721.0</ele><time>2026-04-18T08:06:57.993Z</time></trkpt><trkpt lat="43.3745824" lon="12.9592241"><ele>721.0</ele><time>2026-04-18T08:06:58.993Z</time></trkpt><trkpt lat="43.3746283" lon="12.9591292"><ele>720.0</ele><time>2026-04-18T08:06:59.997Z</time></trkpt><trkpt lat="43.3746684" lon="12.9590294"><ele>719.0</ele><time>2026-04-18T08:07:00.997Z</time></trkpt><trkpt lat="43.374716" lon="12.958925"><ele>718.0</ele><time>2026-04-18T08:07:02.004Z</time></trkpt><trkpt lat="43.3747663" lon="12.9588407"><ele>717.0</ele><time>2026-04-18T08:07:02.996Z</time></trkpt><trkpt lat="43.3748234" lon="12.9587595"><ele>716.0</ele><time>2026-04-18T08:07:03.997Z</time></trkpt><trkpt lat="43.3748848" lon="12.9586777"><ele>715.0</ele><time>2026-04-18T08:07:04.995Z</time></trkpt><trkpt lat="43.3749524" lon="12.958593"><ele>715.0</ele><time>2026-04-18T08:07:05.994Z</time></trkpt><trkpt lat="43.3750181" lon="12.958503"><ele>715.0</ele><time>2026-04-18T08:07:06.995Z</time></trkpt><trkpt lat="43.3750785" lon="12.9584051"><ele>715.0</ele><time>2026-04-18T08:07:07.998Z</time></trkpt><trkpt lat="43.3751439" lon="12.9583088"><ele>715.0</ele><time>2026-04-18T08:07:08.994Z</time></trkpt><trkpt lat="43.3752105" lon="12.958221"><ele>715.0</ele><time>2026-04-18T08:07:09.996Z</time></trkpt><trkpt lat="43.3752764" lon="12.9581157"><ele>712.8333333333334</ele><time>2026-04-18T08:07:11.001Z</time></trkpt><trkpt lat="43.3753386" lon="12.9580118"><ele>710.6666666666667</ele><time>2026-04-18T08:07:11.996Z</time></trkpt><trkpt lat="43.3753927" lon="12.9579163"><ele>708.5</ele><time>2026-04-18T08:07:13.002Z</time></trkpt><trkpt lat="43.3754365" lon="12.9578201"><ele>706.3333333333334</ele><time>2026-04-18T08:07:13.995Z</time></trkpt><trkpt lat="43.3754765" lon="12.9577283"><ele>704.1666666666666</ele><time>2026-04-18T08:07:14.994Z</time></trkpt><trkpt lat="43.3755135" lon="12.9576429"><ele>702.0</ele><time>2026-04-18T08:07:15.994Z</time></trkpt><trkpt lat="43.3755609" lon="12.9575849"><ele>695.8</ele><time>2026-04-18T08:07:16.999Z</time></trkpt><trkpt lat="43.375625" lon="12.9575192"><ele>689.6</ele><time>2026-04-18T08:07:18.006Z</time></trkpt><trkpt lat="43.3756836" lon="12.9574427"><ele>683.4</ele><time>2026-04-18T08:07:19.005Z</time></trkpt><trkpt lat="43.3757275" lon="12.9573682"><ele>677.1999999999999</ele><time>2026-04-18T08:07:19.999Z</time></trkpt><trkpt lat="43.3758124" lon="12.9572279"><ele>671.0</ele><time>2026-04-18T08:07:22.005Z</time></trkpt><trkpt lat="43.3759218" lon="12.9571649"><ele>671.0</ele><time>2026-04-18T08:07:24.002Z</time></trkpt><trkpt lat="43.3759888" lon="12.9571744"><ele>671.0</ele><time>2026-04-18T08:07:25.001Z</time></trkpt><trkpt lat="43.3760927" lon="12.9572171"><ele>671.0</ele><time>2026-04-18T08:07:26.992Z</time></trkpt><trkpt lat="43.3762121" lon="12.9572606"><ele>671.0</ele><time>2026-04-18T08:07:28.998Z</time></trkpt><trkpt lat="43.3763042" lon="12.9572274"><ele>671.0</ele><time>2026-04-18T08:07:31.012Z</time></trkpt><trkpt lat="43.3763774" lon="12.9571312"><ele>670.0</ele><time>2026-04-18T08:07:33.005Z</time></trkpt><trkpt lat="43.3763938" lon="12.9570472"><ele>669.0</ele><time>2026-04-18T08:07:34.008Z</time></trkpt><trkpt lat="43.3764062" lon="12.9569453"><ele>668.0</ele><time>2026-04-18T08:07:34.997Z</time></trkpt><trkpt lat="43.3764113" lon="12.9568357"><ele>667.0</ele><time>2026-04-18T08:07:35.999Z</time></trkpt><trkpt lat="43.3764125" lon="12.9567332"><ele>666.0</ele><time>2026-04-18T08:07:36.992Z</time></trkpt><trkpt lat="43.376417" lon="12.9566428"><ele>665.0</ele><time>2026-04-18T08:07:38.005Z</time></trkpt><trkpt lat="43.3764228" lon="12.956549"><ele>664.0</ele><time>2026-04-18T08:07:38.994Z</time></trkpt><trkpt lat="43.3764588" lon="12.9563919"><ele>664.0</ele><time>2026-04-18T08:07:41.002Z</time></trkpt><trkpt lat="43.3764912" lon="12.9563148"><ele>664.0</ele><time>2026-04-18T08:07:42.003Z</time></trkpt><trkpt lat="43.3765272" lon="12.9562409"><ele>664.0</ele><time>2026-04-18T08:07:42.999Z</time></trkpt><trkpt lat="43.3765634" lon="12.9561568"><ele>664.0</ele><time>2026-04-18T08:07:44.002Z</time></trkpt><trkpt lat="43.3766003" lon="12.9560758"><ele>664.0</ele><time>2026-04-18T08:07:44.996Z</time></trkpt><trkpt lat="43.3766438" lon="12.9559781"><ele>664.0</ele><time>2026-04-18T08:07:46Z</time></trkpt><trkpt lat="43.3766836" lon="12.9558786"><ele>664.0</ele><time>2026-04-18T08:07:46.993Z</time></trkpt><trkpt lat="43.3767321" lon="12.9557824"><ele>660.1666666666667</ele><time>2026-04-18T08:07:48.005Z</time></trkpt><trkpt lat="43.3767743" lon="12.9556844"><ele>656.3333333333334</ele><time>2026-04-18T08:07:49.003Z</time></trkpt><trkpt lat="43.3768176" lon="12.9555942"><ele>652.5</ele><time>2026-04-18T08:07:50.006Z</time></trkpt><trkpt lat="43.3768597" lon="12.9555072"><ele>648.6666666666666</ele><time>2026-04-18T08:07:50.995Z</time></trkpt><trkpt lat="43.3769118" lon="12.955399"><ele>644.8333333333333</ele><time>2026-04-18T08:07:52.999Z</time></trkpt><trkpt lat="43.3769656" lon="12.9553"><ele>641.0</ele><time>2026-04-18T08:07:56.995Z</time></trkpt><trkpt lat="43.3770377" lon="12.9552363"><ele>641.0</ele><time>2026-04-18T08:07:58.996Z</time></trkpt><trkpt lat="43.3771282" lon="12.9551951"><ele>641.0</ele><time>2026-04-18T08:08:00.999Z</time></trkpt><trkpt lat="43.3771926" lon="12.9551752"><ele>641.0</ele><time>2026-04-18T08:08:01.998Z</time></trkpt><trkpt lat="43.3772671" lon="12.9551449"><ele>641.0</ele><time>2026-04-18T08:08:03.004Z</time></trkpt><trkpt lat="43.3773375" lon="12.955114"><ele>641.0</ele><time>2026-04-18T08:08:04Z</time></trkpt><trkpt lat="43.377451" lon="12.9550629"><ele>641.0</ele><time>2026-04-18T08:08:06.01Z</time></trkpt><trkpt lat="43.3775552" lon="12.9550285"><ele>642.8</ele><time>2026-04-18T08:08:07.998Z</time></trkpt><trkpt lat="43.3776539" lon="12.954998"><ele>644.5999999999999</ele><time>2026-04-18T08:08:09.999Z</time></trkpt><trkpt lat="43.3777639" lon="12.9549742"><ele>646.4</ele><time>2026-04-18T08:08:12.002Z</time></trkpt><trkpt lat="43.3778752" lon="12.9549235"><ele>648.2</ele><time>2026-04-18T08:08:14.005Z</time></trkpt><trkpt lat="43.3779359" lon="12.9548834"><ele>650.0</ele><time>2026-04-18T08:08:14.995Z</time></trkpt><trkpt lat="43.3780403" lon="12.9548132"><ele>650.3333333333333</ele><time>2026-04-18T08:08:16.998Z</time></trkpt><trkpt lat="43.3780939" lon="12.9547648"><ele>650.6666666666666</ele><time>2026-04-18T08:09:07.01Z</time></trkpt><trkpt lat="43.3781092" lon="12.9546675"><ele>651.0</ele><time>2026-04-18T08:09:10.01Z</time></trkpt><trkpt lat="43.3781265" lon="12.9545619"><ele>651.3333333333334</ele><time>2026-04-18T08:09:12.001Z</time></trkpt><trkpt lat="43.3781632" lon="12.9544406"><ele>651.6666666666667</ele><time>2026-04-18T08:09:13.994Z</time></trkpt><trkpt lat="43.3782029" lon="12.9543054"><ele>652.0</ele><time>2026-04-18T08:09:16Z</time></trkpt><trkpt lat="43.3782313" lon="12.9541513"><ele>652.0</ele><time>2026-04-18T08:09:18.006Z</time></trkpt><trkpt lat="43.3782399" lon="12.9540128"><ele>652.0</ele><time>2026-04-18T08:09:19.998Z</time></trkpt><trkpt lat="43.3782803" lon="12.953883"><ele>652.0</ele><time>2026-04-18T08:09:22.003Z</time></trkpt><trkpt lat="43.3783102" lon="12.9537448"><ele>652.0</ele><time>2026-04-18T08:09:24.014Z</time></trkpt><trkpt lat="43.3783256" lon="12.9535864"><ele>652.0</ele><time>2026-04-18T08:09:26.006Z</time></trkpt><trkpt lat="43.3783623" lon="12.9534541"><ele>647.4</ele><time>2026-04-18T08:09:28.003Z</time></trkpt><trkpt lat="43.3783961" lon="12.953324"><ele>642.8000000000001</ele><time>2026-04-18T08:09:30.006Z</time></trkpt><trkpt lat="43.3784671" lon="12.953227"><ele>638.2</ele><time>2026-04-18T08:09:32.006Z</time></trkpt><trkpt lat="43.3785381" lon="12.9530996"><ele>633.6</ele><time>2026-04-18T08:09:34.01Z</time></trkpt><trkpt lat="43.3785811" lon="12.9529921"><ele>629.0</ele><time>2026-04-18T08:09:36.002Z</time></trkpt><trkpt lat="43.3786106" lon="12.9528982"><ele>629.0</ele><time>2026-04-18T08:09:39.004Z</time></trkpt><trkpt lat="43.3785564" lon="12.9528167"><ele>629.0</ele><time>2026-04-18T08:09:41.002Z</time></trkpt><trkpt lat="43.3784904" lon="12.9526924"><ele>629.0</ele><time>2026-04-18T08:09:43.009Z</time></trkpt><trkpt lat="43.3784145" lon="12.9525767"><ele>629.0</ele><time>2026-04-18T08:09:44.994Z</time></trkpt><trkpt lat="43.378345" lon="12.9524706"><ele>629.0</ele><time>2026-04-18T08:09:46.999Z</time></trkpt><trkpt lat="43.3782807" lon="12.9523721"><ele>625.2</ele><time>2026-04-18T08:09:49.009Z</time></trkpt><trkpt lat="43.3782161" lon="12.9522649"><ele>621.4</ele><time>2026-04-18T08:09:51.009Z</time></trkpt><trkpt lat="43.3781405" lon="12.9521338"><ele>617.6</ele><time>2026-04-18T08:09:53Z</time></trkpt><trkpt lat="43.3780688" lon="12.9521119"><ele>613.8</ele><time>2026-04-18T08:09:55.01Z</time></trkpt><trkpt lat="43.3780023" lon="12.9521222"><ele>610.0</ele><time>2026-04-18T08:09:57.007Z</time></trkpt><trkpt lat="43.3779131" lon="12.9520995"><ele>607.0</ele><time>2026-04-18T08:09:59.004Z</time></trkpt><trkpt lat="43.3778263" lon="12.9520469"><ele>604.0</ele><time>2026-04-18T08:10:01.012Z</time></trkpt><trkpt lat="43.3777427" lon="12.9519992"><ele>601.0</ele><time>2026-04-18T08:10:03.026Z</time></trkpt><trkpt lat="43.3776348" lon="12.9519357"><ele>598.0</ele><time>2026-04-18T08:10:05.014Z</time></trkpt><trkpt lat="43.3775831" lon="12.9518739"><ele>595.0</ele><time>2026-04-18T08:10:06.036Z</time></trkpt><trkpt lat="43.3775432" lon="12.9518048"><ele>592.0</ele><time>2026-04-18T08:10:07.017Z</time></trkpt><trkpt lat="43.3774508" lon="12.9516854"><ele>591.0</ele><time>2026-04-18T08:10:09.016Z</time></trkpt><trkpt lat="43.3774128" lon="12.9516163"><ele>590.0</ele><time>2026-04-18T08:10:10.007Z</time></trkpt><trkpt lat="43.3773887" lon="12.9515348"><ele>589.0</ele><time>2026-04-18T08:10:11.003Z</time></trkpt><trkpt lat="43.377369" lon="12.9514495"><ele>588.0</ele><time>2026-04-18T08:10:12.003Z</time></trkpt><trkpt lat="43.3773287" lon="12.9513577"><ele>587.0</ele><time>2026-04-18T08:10:13.01Z</time></trkpt><trkpt lat="43.3772916" lon="12.9512769"><ele>586.0</ele><time>2026-04-18T08:10:14.002Z</time></trkpt><trkpt lat="43.3772652" lon="12.9511486"><ele>585.0</ele><time>2026-04-18T08:10:16.011Z</time></trkpt><trkpt lat="43.3772309" lon="12.9510274"><ele>585.0</ele><time>2026-04-18T08:10:18.002Z</time></trkpt><trkpt lat="43.3771968" lon="12.9509194"><ele>585.0</ele><time>2026-04-18T08:10:20.009Z</time></trkpt><trkpt lat="43.3771697" lon="12.9508215"><ele>585.0</ele><time>2026-04-18T08:10:22.011Z</time></trkpt><trkpt lat="43.3771322" lon="12.9507046"><ele>585.0</ele><time>2026-04-18T08:10:25.002Z</time></trkpt><trkpt lat="43.3770945" lon="12.9505859"><ele>585.0</ele><time>2026-04-18T08:10:27.004Z</time></trkpt><trkpt lat="43.3770833" lon="12.950439"><ele>578.4</ele><time>2026-04-18T08:10:29.001Z</time></trkpt><trkpt lat="43.3770772" lon="12.9503009"><ele>571.8</ele><time>2026-04-18T08:10:31.007Z</time></trkpt><trkpt lat="43.3770716" lon="12.9501469"><ele>565.2</ele><time>2026-04-18T08:10:33.018Z</time></trkpt><trkpt lat="43.3770636" lon="12.950008"><ele>558.6</ele><time>2026-04-18T08:10:35.004Z</time></trkpt><trkpt lat="43.3770126" lon="12.9499448"><ele>552.0</ele><time>2026-04-18T08:10:45.01Z</time></trkpt><trkpt lat="43.3770484" lon="12.9498513"><ele>553.2</ele><time>2026-04-18T08:10:55.008Z</time></trkpt><trkpt lat="43.3771067" lon="12.9498112"><ele>554.4000000000001</ele><time>2026-04-18T08:11:04.005Z</time></trkpt><trkpt lat="43.3771809" lon="12.9497731"><ele>555.5999999999999</ele><time>2026-04-18T08:11:06.017Z</time></trkpt><trkpt lat="43.3772749" lon="12.9497071"><ele>556.8</ele><time>2026-04-18T08:11:08.008Z</time></trkpt><trkpt lat="43.3773647" lon="12.9496144"><ele>558.0</ele><time>2026-04-18T08:11:10.006Z</time></trkpt><trkpt lat="43.3774528" lon="12.9494876"><ele>558.0</ele><time>2026-04-18T08:11:12.004Z</time></trkpt><trkpt lat="43.3775116" lon="12.9494247"><ele>558.0</ele><time>2026-04-18T08:11:13.003Z</time></trkpt><trkpt lat="43.377562" lon="12.9493711"><ele>558.0</ele><time>2026-04-18T08:11:14.009Z</time></trkpt><trkpt lat="43.3776346" lon="12.9493235"><ele>558.0</ele><time>2026-04-18T08:11:16.004Z</time></trkpt><trkpt lat="43.3775722" lon="12.94923"><ele>558.0</ele><time>2026-04-18T08:11:21.014Z</time></trkpt><trkpt lat="43.3775032" lon="12.9491948"><ele>558.0</ele><time>2026-04-18T08:11:22.004Z</time></trkpt><trkpt lat="43.3774368" lon="12.9491755"><ele>555.5</ele><time>2026-04-18T08:11:23.011Z</time></trkpt><trkpt lat="43.3773604" lon="12.9491576"><ele>553.0</ele><time>2026-04-18T08:11:24.001Z</time></trkpt><trkpt lat="43.3772864" lon="12.9491445"><ele>550.5</ele><time>2026-04-18T08:11:25.002Z</time></trkpt><trkpt lat="43.3772097" lon="12.9491329"><ele>548.0</ele><time>2026-04-18T08:11:25.999Z</time></trkpt><trkpt lat="43.3771338" lon="12.9491072"><ele>545.5</ele><time>2026-04-18T08:11:27.002Z</time></trkpt><trkpt lat="43.3770589" lon="12.9490566"><ele>543.0</ele><time>2026-04-18T08:11:28.003Z</time></trkpt><trkpt lat="43.3769833" lon="12.9489753"><ele>541.0</ele><time>2026-04-18T08:11:29.002Z</time></trkpt><trkpt lat="43.3769262" lon="12.9488835"><ele>539.0</ele><time>2026-04-18T08:11:30.008Z</time></trkpt><trkpt lat="43.3768801" lon="12.9487732"><ele>537.0</ele><time>2026-04-18T08:11:31.018Z</time></trkpt><trkpt lat="43.3768267" lon="12.9486512"><ele>535.0</ele><time>2026-04-18T08:11:32.003Z</time></trkpt><trkpt lat="43.3767707" lon="12.9485374"><ele>533.0</ele><time>2026-04-18T08:11:33Z</time></trkpt><trkpt lat="43.3767168" lon="12.9484214"><ele>532.1999999999999</ele><time>2026-04-18T08:11:34.005Z</time></trkpt><trkpt lat="43.376676" lon="12.9483099"><ele>531.4</ele><time>2026-04-18T08:11:34.999Z</time></trkpt><trkpt lat="43.3766373" lon="12.9482002"><ele>530.5999999999999</ele><time>2026-04-18T08:11:35.998Z</time></trkpt><trkpt lat="43.3765951" lon="12.9480898"><ele>529.8</ele><time>2026-04-18T08:11:37.01Z</time></trkpt><trkpt lat="43.3765539" lon="12.9479762"><ele>529.0</ele><time>2026-04-18T08:11:38.004Z</time></trkpt><trkpt lat="43.3765109" lon="12.9478558"><ele>529.0</ele><time>2026-04-18T08:11:39.003Z</time></trkpt><trkpt lat="43.3764699" lon="12.9477267"><ele>529.0</ele><time>2026-04-18T08:11:40.013Z</time></trkpt><trkpt lat="43.3764382" lon="12.9475812"><ele>529.0</ele><time>2026-04-18T08:11:41.006Z</time></trkpt><trkpt lat="43.3764103" lon="12.9474459"><ele>529.0</ele><time>2026-04-18T08:11:42.009Z</time></trkpt><trkpt lat="43.3763706" lon="12.9473145"><ele>529.0</ele><time>2026-04-18T08:11:43.001Z</time></trkpt><trkpt lat="43.3763191" lon="12.9471935"><ele>527.8</ele><time>2026-04-18T08:11:44.01Z</time></trkpt><trkpt lat="43.3762615" lon="12.947071"><ele>526.5999999999999</ele><time>2026-04-18T08:11:45.002Z</time></trkpt><trkpt lat="43.3761962" lon="12.9469522"><ele>525.4</ele><time>2026-04-18T08:11:46.008Z</time></trkpt><trkpt lat="43.3761215" lon="12.946844"><ele>524.1999999999999</ele><time>2026-04-18T08:11:47Z</time></trkpt><trkpt lat="43.3760348" lon="12.9467445"><ele>523.0</ele><time>2026-04-18T08:11:47.999Z</time></trkpt><trkpt lat="43.3759507" lon="12.9466342"><ele>520.5</ele><time>2026-04-18T08:11:49.002Z</time></trkpt><trkpt lat="43.3758706" lon="12.9465249"><ele>518.0</ele><time>2026-04-18T08:11:50.006Z</time></trkpt><trkpt lat="43.3758004" lon="12.9464126"><ele>515.5</ele><time>2026-04-18T08:11:51.013Z</time></trkpt><trkpt lat="43.3757258" lon="12.946297"><ele>513.0</ele><time>2026-04-18T08:11:52.001Z</time></trkpt><trkpt lat="43.3756611" lon="12.9461557"><ele>513.0</ele><time>2026-04-18T08:11:52.992Z</time></trkpt><trkpt lat="43.3756207" lon="12.9459898"><ele>513.0</ele><time>2026-04-18T08:11:54.004Z</time></trkpt><trkpt lat="43.3755958" lon="12.9458096"><ele>513.0</ele><time>2026-04-18T08:11:55.001Z</time></trkpt><trkpt lat="43.3755798" lon="12.9456353"><ele>513.0</ele><time>2026-04-18T08:11:56.009Z</time></trkpt><trkpt lat="43.375556" lon="12.9454769"><ele>511.25</ele><time>2026-04-18T08:11:57Z</time></trkpt><trkpt lat="43.3755236" lon="12.9453299"><ele>509.5</ele><time>2026-04-18T08:11:58.005Z</time></trkpt><trkpt lat="43.3754848" lon="12.9452003"><ele>507.75</ele><time>2026-04-18T08:11:58.999Z</time></trkpt><trkpt lat="43.3754374" lon="12.945058"><ele>506.0</ele><time>2026-04-18T08:12:00.001Z</time></trkpt><trkpt lat="43.3753639" lon="12.9449208"><ele>505.5</ele><time>2026-04-18T08:12:01.003Z</time></trkpt><trkpt lat="43.375264" lon="12.9448082"><ele>505.0</ele><time>2026-04-18T08:12:01.999Z</time></trkpt><trkpt lat="43.3751488" lon="12.9447156"><ele>504.5</ele><time>2026-04-18T08:12:02.998Z</time></trkpt><trkpt lat="43.3750321" lon="12.9446318"><ele>504.0</ele><time>2026-04-18T08:12:03.999Z</time></trkpt><trkpt lat="43.3749154" lon="12.9445443"><ele>504.0</ele><time>2026-04-18T08:12:04.999Z</time></trkpt><trkpt lat="43.3747972" lon="12.9444536"><ele>504.0</ele><time>2026-04-18T08:12:06.007Z</time></trkpt><trkpt lat="43.3746924" lon="12.9443669"><ele>504.0</ele><time>2026-04-18T08:12:07.003Z</time></trkpt><trkpt lat="43.3745965" lon="12.9442756"><ele>504.0</ele><time>2026-04-18T08:12:08.006Z</time></trkpt><trkpt lat="43.3745048" lon="12.9441733"><ele>502.4</ele><time>2026-04-18T08:12:08.999Z</time></trkpt><trkpt lat="43.3744243" lon="12.944069"><ele>500.79999999999995</ele><time>2026-04-18T08:12:10.004Z</time></trkpt><trkpt lat="43.374354" lon="12.9439634"><ele>499.20000000000005</ele><time>2026-04-18T08:12:11Z</time></trkpt><trkpt lat="43.3742907" lon="12.943858"><ele>497.6</ele><time>2026-04-18T08:12:12.005Z</time></trkpt><trkpt lat="43.3742336" lon="12.9437572"><ele>496.0</ele><time>2026-04-18T08:12:13.013Z</time></trkpt><trkpt lat="43.3741796" lon="12.9436501"><ele>496.0</ele><time>2026-04-18T08:12:14.005Z</time></trkpt><trkpt lat="43.3741285" lon="12.9435391"><ele>496.0</ele><time>2026-04-18T08:12:15.001Z</time></trkpt><trkpt lat="43.3740808" lon="12.9434178"><ele>496.0</ele><time>2026-04-18T08:12:16.005Z</time></trkpt><trkpt lat="43.374035" lon="12.9433027"><ele>496.0</ele><time>2026-04-18T08:12:16.997Z</time></trkpt><trkpt lat="43.3739931" lon="12.9432128"><ele>496.0</ele><time>2026-04-18T08:12:18.005Z</time></trkpt><trkpt lat="43.3739401" lon="12.9430996"><ele>496.33333333333337</ele><time>2026-04-18T08:12:20.003Z</time></trkpt><trkpt lat="43.3739069" lon="12.9430178"><ele>496.6666666666667</ele><time>2026-04-18T08:15:06.002Z</time></trkpt><trkpt lat="43.3738743" lon="12.9429112"><ele>497.0</ele><time>2026-04-18T08:15:08.004Z</time></trkpt><trkpt lat="43.3738149" lon="12.942753"><ele>497.33333333333337</ele><time>2026-04-18T08:15:10.005Z</time></trkpt><trkpt lat="43.3737831" lon="12.9426544"><ele>497.6666666666667</ele><time>2026-04-18T08:15:11.004Z</time></trkpt><trkpt lat="43.3737499" lon="12.9425632"><ele>498.0</ele><time>2026-04-18T08:15:12.004Z</time></trkpt><trkpt lat="43.3737143" lon="12.9424685"><ele>495.79999999999995</ele><time>2026-04-18T08:15:13.007Z</time></trkpt><trkpt lat="43.3736716" lon="12.9423591"><ele>493.59999999999997</ele><time>2026-04-18T08:15:14.01Z</time></trkpt><trkpt lat="43.3736327" lon="12.9422459"><ele>491.40000000000003</ele><time>2026-04-18T08:15:15.017Z</time></trkpt><trkpt lat="43.373596" lon="12.9421229"><ele>489.20000000000005</ele><time>2026-04-18T08:15:16.005Z</time></trkpt><trkpt lat="43.3735549" lon="12.9420027"><ele>487.0</ele><time>2026-04-18T08:15:17.019Z</time></trkpt><trkpt lat="43.3735114" lon="12.9418779"><ele>487.0</ele><time>2026-04-18T08:15:18.007Z</time></trkpt><trkpt lat="43.3734684" lon="12.9417565"><ele>487.00000000000006</ele><time>2026-04-18T08:15:19.021Z</time></trkpt><trkpt lat="43.3734184" lon="12.9416284"><ele>487.00000000000006</ele><time>2026-04-18T08:15:20.018Z</time></trkpt><trkpt lat="43.3733599" lon="12.9414933"><ele>487.0</ele><time>2026-04-18T08:15:21.018Z</time></trkpt><trkpt lat="43.3732978" lon="12.9413685"><ele>487.0</ele><time>2026-04-18T08:15:22.005Z</time></trkpt><trkpt lat="43.3732336" lon="12.9412552"><ele>487.6</ele><time>2026-04-18T08:15:23.015Z</time></trkpt><trkpt lat="43.3731652" lon="12.9411586"><ele>488.20000000000005</ele><time>2026-04-18T08:15:24.022Z</time></trkpt><trkpt lat="43.3730846" lon="12.9410838"><ele>488.8</ele><time>2026-04-18T08:15:25.018Z</time></trkpt><trkpt lat="43.3729938" lon="12.9410273"><ele>489.4</ele><time>2026-04-18T08:15:26.008Z</time></trkpt><trkpt lat="43.3729071" lon="12.9409978"><ele>490.0</ele><time>2026-04-18T08:15:27.006Z</time></trkpt><trkpt lat="43.3728238" lon="12.9409828"><ele>488.0</ele><time>2026-04-18T08:15:28.01Z</time></trkpt><trkpt lat="43.3727417" lon="12.9409837"><ele>486.0</ele><time>2026-04-18T08:15:29.009Z</time></trkpt><trkpt lat="43.3726527" lon="12.940993"><ele>484.0</ele><time>2026-04-18T08:15:30.009Z</time></trkpt><trkpt lat="43.3725568" lon="12.941012"><ele>482.0</ele><time>2026-04-18T08:15:31.012Z</time></trkpt><trkpt lat="43.3724618" lon="12.9410319"><ele>480.0</ele><time>2026-04-18T08:15:32.011Z</time></trkpt><trkpt lat="43.3723659" lon="12.941057"><ele>480.0</ele><time>2026-04-18T08:15:33.018Z</time></trkpt><trkpt lat="43.3722715" lon="12.9410789"><ele>480.0</ele><time>2026-04-18T08:15:34.014Z</time></trkpt><trkpt lat="43.3721822" lon="12.9411014"><ele>480.0</ele><time>2026-04-18T08:15:35.009Z</time></trkpt><trkpt lat="43.3721131" lon="12.9411235"><ele>480.0</ele><time>2026-04-18T08:15:36.008Z</time></trkpt><trkpt lat="43.3720405" lon="12.9411486"><ele>480.0</ele><time>2026-04-18T08:15:37.006Z</time></trkpt><trkpt lat="43.3719584" lon="12.941175"><ele>480.0</ele><time>2026-04-18T08:15:38.007Z</time></trkpt><trkpt lat="43.3718685" lon="12.9412223"><ele>479.0</ele><time>2026-04-18T08:15:38.997Z</time></trkpt><trkpt lat="43.3717595" lon="12.9412826"><ele>478.0</ele><time>2026-04-18T08:15:40Z</time></trkpt><trkpt lat="43.3716475" lon="12.9413415"><ele>477.0</ele><time>2026-04-18T08:15:40.999Z</time></trkpt><trkpt lat="43.3715398" lon="12.9413995"><ele>476.0</ele><time>2026-04-18T08:15:42.001Z</time></trkpt><trkpt lat="43.3714333" lon="12.9414554"><ele>475.3333333333333</ele><time>2026-04-18T08:15:43.011Z</time></trkpt><trkpt lat="43.3713328" lon="12.9415145"><ele>474.66666666666663</ele><time>2026-04-18T08:15:44.011Z</time></trkpt><trkpt lat="43.3712407" lon="12.9415659"><ele>474.0</ele><time>2026-04-18T08:15:45.01Z</time></trkpt><trkpt lat="43.3711559" lon="12.9416139"><ele>473.33333333333337</ele><time>2026-04-18T08:15:46.009Z</time></trkpt><trkpt lat="43.3710842" lon="12.9416496"><ele>472.6666666666667</ele><time>2026-04-18T08:15:47.004Z</time></trkpt><trkpt lat="43.3710221" lon="12.941683"><ele>472.0</ele><time>2026-04-18T08:15:48.009Z</time></trkpt><trkpt lat="43.3709563" lon="12.941727"><ele>472.0</ele><time>2026-04-18T08:15:50.003Z</time></trkpt><trkpt lat="43.3708986" lon="12.9417898"><ele>472.00000000000006</ele><time>2026-04-18T08:16:00.011Z</time></trkpt><trkpt lat="43.3709973" lon="12.9417222"><ele>472.00000000000006</ele><time>2026-04-18T08:16:04.02Z</time></trkpt><trkpt lat="43.37112" lon="12.9416502"><ele>472.0</ele><time>2026-04-18T08:16:06.014Z</time></trkpt><trkpt lat="43.3711978" lon="12.9416124"><ele>472.0</ele><time>2026-04-18T08:16:07Z</time></trkpt><trkpt lat="43.3712798" lon="12.9415701"><ele>472.8</ele><time>2026-04-18T08:16:08.008Z</time></trkpt><trkpt lat="43.3713605" lon="12.9415315"><ele>473.6</ele><time>2026-04-18T08:16:09.004Z</time></trkpt><trkpt lat="43.3714465" lon="12.9414818"><ele>474.40000000000003</ele><time>2026-04-18T08:16:10.023Z</time></trkpt><trkpt lat="43.3715356" lon="12.9414309"><ele>475.20000000000005</ele><time>2026-04-18T08:16:11.007Z</time></trkpt><trkpt lat="43.3716262" lon="12.9413791"><ele>476.0</ele><time>2026-04-18T08:16:12.013Z</time></trkpt><trkpt lat="43.3717115" lon="12.9413251"><ele>475.99999999999994</ele><time>2026-04-18T08:16:13.001Z</time></trkpt><trkpt lat="43.3717979" lon="12.9412737"><ele>476.0</ele><time>2026-04-18T08:16:14.01Z</time></trkpt><trkpt lat="43.3718841" lon="12.941234"><ele>476.0</ele><time>2026-04-18T08:16:15Z</time></trkpt><trkpt lat="43.3719655" lon="12.9411959"><ele>476.0</ele><time>2026-04-18T08:16:16.017Z</time></trkpt><trkpt lat="43.3720406" lon="12.9411616"><ele>475.99999999999994</ele><time>2026-04-18T08:16:17.008Z</time></trkpt><trkpt lat="43.3720935" lon="12.9411059"><ele>476.0</ele><time>2026-04-18T08:16:18.015Z</time></trkpt><trkpt lat="43.3721505" lon="12.9410122"><ele>476.8</ele><time>2026-04-18T08:16:19.01Z</time></trkpt><trkpt lat="43.372201" lon="12.9409139"><ele>477.6</ele><time>2026-04-18T08:16:20.014Z</time></trkpt><trkpt lat="43.3722553" lon="12.9408132"><ele>478.4</ele><time>2026-04-18T08:16:21Z</time></trkpt><trkpt lat="43.3723192" lon="12.9407097"><ele>479.2</ele><time>2026-04-18T08:16:22.006Z</time></trkpt><trkpt lat="43.3723888" lon="12.9406134"><ele>480.0</ele><time>2026-04-18T08:16:23.01Z</time></trkpt><trkpt lat="43.372473" lon="12.9405168"><ele>481.75</ele><time>2026-04-18T08:16:24.011Z</time></trkpt><trkpt lat="43.3725698" lon="12.9404105"><ele>483.5</ele><time>2026-04-18T08:16:25.008Z</time></trkpt><trkpt lat="43.3726709" lon="12.9403057"><ele>485.25</ele><time>2026-04-18T08:16:26.002Z</time></trkpt><trkpt lat="43.3727751" lon="12.940197"><ele>487.0</ele><time>2026-04-18T08:16:27.001Z</time></trkpt><trkpt lat="43.3728799" lon="12.9400778"><ele>488.75</ele><time>2026-04-18T08:16:28.014Z</time></trkpt><trkpt lat="43.3729726" lon="12.9399478"><ele>490.5</ele><time>2026-04-18T08:16:29.001Z</time></trkpt><trkpt lat="43.3730554" lon="12.9398283"><ele>492.25</ele><time>2026-04-18T08:16:30.009Z</time></trkpt><trkpt lat="43.3731221" lon="12.9396994"><ele>494.0</ele><time>2026-04-18T08:16:31.002Z</time></trkpt><trkpt lat="43.3731777" lon="12.939554"><ele>494.0</ele><time>2026-04-18T08:16:32.006Z</time></trkpt><trkpt lat="43.3732301" lon="12.939407"><ele>494.0</ele><time>2026-04-18T08:16:33Z</time></trkpt><trkpt lat="43.3732911" lon="12.9392744"><ele>494.0</ele><time>2026-04-18T08:16:34.009Z</time></trkpt><trkpt lat="43.3733716" lon="12.9391647"><ele>494.0</ele><time>2026-04-18T08:16:35.005Z</time></trkpt><trkpt lat="43.3734515" lon="12.9390579"><ele>494.2</ele><time>2026-04-18T08:16:36.004Z</time></trkpt><trkpt lat="43.3735336" lon="12.9389666"><ele>494.4</ele><time>2026-04-18T08:16:37.005Z</time></trkpt><trkpt lat="43.3736246" lon="12.9388962"><ele>494.6</ele><time>2026-04-18T08:16:38.014Z</time></trkpt><trkpt lat="43.3737193" lon="12.93883"><ele>494.8</ele><time>2026-04-18T08:16:38.999Z</time></trkpt><trkpt lat="43.3738201" lon="12.9387542"><ele>495.0</ele><time>2026-04-18T08:16:39.998Z</time></trkpt><trkpt lat="43.373923" lon="12.9386621"><ele>495.0</ele><time>2026-04-18T08:16:41.007Z</time></trkpt><trkpt lat="43.3740151" lon="12.9385585"><ele>495.0</ele><time>2026-04-18T08:16:42.005Z</time></trkpt><trkpt lat="43.3740995" lon="12.9384466"><ele>495.0</ele><time>2026-04-18T08:16:43.001Z</time></trkpt><trkpt lat="43.3741772" lon="12.9383085"><ele>495.0</ele><time>2026-04-18T08:16:44.001Z</time></trkpt><trkpt lat="43.3742404" lon="12.9381811"><ele>491.4</ele><time>2026-04-18T08:16:45.007Z</time></trkpt><trkpt lat="43.3742961" lon="12.9380614"><ele>487.8</ele><time>2026-04-18T08:16:46.011Z</time></trkpt><trkpt lat="43.374341" lon="12.9379508"><ele>484.20000000000005</ele><time>2026-04-18T08:16:47.014Z</time></trkpt><trkpt lat="43.3743688" lon="12.9378239"><ele>480.6</ele><time>2026-04-18T08:16:48.023Z</time></trkpt><trkpt lat="43.3743858" lon="12.9376763"><ele>477.0</ele><time>2026-04-18T08:16:49.014Z</time></trkpt><trkpt lat="43.3743849" lon="12.9375298"><ele>475.0</ele><time>2026-04-18T08:16:49.999Z</time></trkpt><trkpt lat="43.3743454" lon="12.9374005"><ele>473.00000000000006</ele><time>2026-04-18T08:16:51.007Z</time></trkpt><trkpt lat="43.3742715" lon="12.9372982"><ele>471.00000000000006</ele><time>2026-04-18T08:16:52.012Z</time></trkpt><trkpt lat="43.3741821" lon="12.9372022"><ele>469.0</ele><time>2026-04-18T08:16:53.006Z</time></trkpt><trkpt lat="43.3740861" lon="12.9370967"><ele>467.0</ele><time>2026-04-18T08:16:54.014Z</time></trkpt><trkpt lat="43.3739954" lon="12.9369702"><ele>467.0</ele><time>2026-04-18T08:16:55.003Z</time></trkpt><trkpt lat="43.3739156" lon="12.9368199"><ele>467.0</ele><time>2026-04-18T08:16:56.005Z</time></trkpt><trkpt lat="43.3738403" lon="12.936659"><ele>467.0</ele><time>2026-04-18T08:16:57.014Z</time></trkpt><trkpt lat="43.3737674" lon="12.9364941"><ele>467.0</ele><time>2026-04-18T08:16:58.006Z</time></trkpt><trkpt lat="43.3736864" lon="12.9363306"><ele>467.0</ele><time>2026-04-18T08:16:59.007Z</time></trkpt><trkpt lat="43.373611" lon="12.9361924"><ele>467.00000000000006</ele><time>2026-04-18T08:17:00.014Z</time></trkpt><trkpt lat="43.3735501" lon="12.9360736"><ele>467.00000000000006</ele><time>2026-04-18T08:17:01.007Z</time></trkpt><trkpt lat="43.373518" lon="12.9359308"><ele>467.0</ele><time>2026-04-18T08:17:02.007Z</time></trkpt><trkpt lat="43.3734958" lon="12.9357893"><ele>467.0</ele><time>2026-04-18T08:17:03.004Z</time></trkpt><trkpt lat="43.3735069" lon="12.9356708"><ele>469.0</ele><time>2026-04-18T08:17:04.013Z</time></trkpt><trkpt lat="43.3735614" lon="12.9355663"><ele>471.00000000000006</ele><time>2026-04-18T08:17:05.021Z</time></trkpt><trkpt lat="43.373618" lon="12.9354856"><ele>473.00000000000006</ele><time>2026-04-18T08:17:06.006Z</time></trkpt><trkpt lat="43.3736751" lon="12.935439"><ele>475.0</ele><time>2026-04-18T08:17:07.003Z</time></trkpt><trkpt lat="43.3737494" lon="12.9353159"><ele>477.0</ele><time>2026-04-18T08:17:09.005Z</time></trkpt><trkpt lat="43.3737908" lon="12.935138"><ele>477.6</ele><time>2026-04-18T08:17:10.999Z</time></trkpt><trkpt lat="43.373808" lon="12.9350124"><ele>478.20000000000005</ele><time>2026-04-18T08:17:12.01Z</time></trkpt><trkpt lat="43.3738293" lon="12.9348723"><ele>478.8</ele><time>2026-04-18T08:17:13.004Z</time></trkpt><trkpt lat="43.3738564" lon="12.9347185"><ele>479.4</ele><time>2026-04-18T08:17:14.014Z</time></trkpt><trkpt lat="43.3738889" lon="12.9345693"><ele>480.0</ele><time>2026-04-18T08:17:14.993Z</time></trkpt><trkpt lat="43.373932" lon="12.9344413"><ele>480.0</ele><time>2026-04-18T08:17:16.005Z</time></trkpt><trkpt lat="43.3739733" lon="12.9343237"><ele>480.0</ele><time>2026-04-18T08:17:16.996Z</time></trkpt><trkpt lat="43.3740161" lon="12.9341937"><ele>480.0</ele><time>2026-04-18T08:17:18.002Z</time></trkpt><trkpt lat="43.3740707" lon="12.9340532"><ele>480.0</ele><time>2026-04-18T08:17:19.005Z</time></trkpt><trkpt lat="43.3741336" lon="12.933911"><ele>480.0</ele><time>2026-04-18T08:17:20.012Z</time></trkpt><trkpt lat="43.3741989" lon="12.9337793"><ele>481.0</ele><time>2026-04-18T08:17:21.002Z</time></trkpt><trkpt lat="43.3742622" lon="12.9336633"><ele>482.0</ele><time>2026-04-18T08:17:22.011Z</time></trkpt><trkpt lat="43.3743217" lon="12.9335638"><ele>483.0</ele><time>2026-04-18T08:17:23.01Z</time></trkpt><trkpt lat="43.3743684" lon="12.9334716"><ele>484.0</ele><time>2026-04-18T08:17:24.015Z</time></trkpt><trkpt lat="43.3743818" lon="12.9333693"><ele>485.0</ele><time>2026-04-18T08:17:24.999Z</time></trkpt><trkpt lat="43.3743062" lon="12.9332472"><ele>486.4</ele><time>2026-04-18T08:17:26.997Z</time></trkpt><trkpt lat="43.374243" lon="12.9332221"><ele>487.8</ele><time>2026-04-18T08:17:28Z</time></trkpt><trkpt lat="43.3741594" lon="12.9332121"><ele>489.20000000000005</ele><time>2026-04-18T08:17:29.001Z</time></trkpt><trkpt lat="43.3740555" lon="12.9332157"><ele>490.6</ele><time>2026-04-18T08:17:30.006Z</time></trkpt><trkpt lat="43.373941" lon="12.9332169"><ele>492.0</ele><time>2026-04-18T08:17:31.006Z</time></trkpt><trkpt lat="43.3738354" lon="12.9331952"><ele>493.25</ele><time>2026-04-18T08:17:32.01Z</time></trkpt><trkpt lat="43.3737171" lon="12.9331426"><ele>494.5</ele><time>2026-04-18T08:17:33.003Z</time></trkpt><trkpt lat="43.3735923" lon="12.9330655"><ele>495.75</ele><time>2026-04-18T08:17:34.01Z</time></trkpt><trkpt lat="43.3734783" lon="12.9329795"><ele>497.0</ele><time>2026-04-18T08:17:35.003Z</time></trkpt><trkpt lat="43.3733665" lon="12.9328873"><ele>497.0</ele><time>2026-04-18T08:17:36.001Z</time></trkpt><trkpt lat="43.3732543" lon="12.9327887"><ele>497.0</ele><time>2026-04-18T08:17:37.013Z</time></trkpt><trkpt lat="43.3731464" lon="12.9326814"><ele>497.0</ele><time>2026-04-18T08:17:38.012Z</time></trkpt><trkpt lat="43.3730332" lon="12.9325683"><ele>497.0</ele><time>2026-04-18T08:17:39.016Z</time></trkpt><trkpt lat="43.3729259" lon="12.9324511"><ele>495.0</ele><time>2026-04-18T08:17:40.004Z</time></trkpt><trkpt lat="43.3728211" lon="12.9323263"><ele>493.0</ele><time>2026-04-18T08:17:41.001Z</time></trkpt><trkpt lat="43.3727206" lon="12.9321842"><ele>491.0</ele><time>2026-04-18T08:17:42.004Z</time></trkpt><trkpt lat="43.3726315" lon="12.9320278"><ele>489.0</ele><time>2026-04-18T08:17:43.009Z</time></trkpt><trkpt lat="43.3725481" lon="12.9318727"><ele>489.0</ele><time>2026-04-18T08:17:44.017Z</time></trkpt><trkpt lat="43.372468" lon="12.9317276"><ele>489.0</ele><time>2026-04-18T08:17:45.013Z</time></trkpt><trkpt lat="43.3723944" lon="12.9315884"><ele>489.0</ele><time>2026-04-18T08:17:46.011Z</time></trkpt><trkpt lat="43.3723174" lon="12.9314451"><ele>489.0</ele><time>2026-04-18T08:17:47.012Z</time></trkpt><trkpt lat="43.3722287" lon="12.931308"><ele>488.75</ele><time>2026-04-18T08:17:48.019Z</time></trkpt><trkpt lat="43.3721495" lon="12.9311706"><ele>488.5</ele><time>2026-04-18T08:17:49.014Z</time></trkpt><trkpt lat="43.3720835" lon="12.9310274"><ele>488.25</ele><time>2026-04-18T08:17:50.012Z</time></trkpt><trkpt lat="43.3720318" lon="12.9308903"><ele>488.0</ele><time>2026-04-18T08:17:51.012Z</time></trkpt><trkpt lat="43.372007" lon="12.9307733"><ele>487.59999999999997</ele><time>2026-04-18T08:17:52.01Z</time></trkpt><trkpt lat="43.3719899" lon="12.9306633"><ele>487.19999999999993</ele><time>2026-04-18T08:17:53.002Z</time></trkpt><trkpt lat="43.3719406" lon="12.9305651"><ele>486.8</ele><time>2026-04-18T08:17:54.013Z</time></trkpt><trkpt lat="43.371853" lon="12.9304951"><ele>486.4</ele><time>2026-04-18T08:17:55.016Z</time></trkpt><trkpt lat="43.3717621" lon="12.930434"><ele>486.0</ele><time>2026-04-18T08:17:56.01Z</time></trkpt><trkpt lat="43.3716619" lon="12.9303695"><ele>486.0</ele><time>2026-04-18T08:17:57.007Z</time></trkpt><trkpt lat="43.3715658" lon="12.9303096"><ele>486.0</ele><time>2026-04-18T08:17:58.011Z</time></trkpt><trkpt lat="43.3714901" lon="12.930251"><ele>486.0</ele><time>2026-04-18T08:17:59.006Z</time></trkpt><trkpt lat="43.3714268" lon="12.9302003"><ele>486.0</ele><time>2026-04-18T08:18:00.005Z</time></trkpt><trkpt lat="43.3713447" lon="12.9301351"><ele>486.0</ele><time>2026-04-18T08:18:02.013Z</time></trkpt><trkpt lat="43.3712851" lon="12.9300997"><ele>486.0</ele><time>2026-04-18T08:18:05.011Z</time></trkpt><trkpt lat="43.3712473" lon="12.9300299"><ele>484.5</ele><time>2026-04-18T08:18:08.004Z</time></trkpt><trkpt lat="43.3712858" lon="12.9299137"><ele>483.0</ele><time>2026-04-18T08:18:11.014Z</time></trkpt><trkpt lat="43.3712692" lon="12.9298072"><ele>481.5</ele><time>2026-04-18T08:18:13.001Z</time></trkpt><trkpt lat="43.3712075" lon="12.9297243"><ele>480.0</ele><time>2026-04-18T08:18:15.009Z</time></trkpt><trkpt lat="43.3711707" lon="12.929623"><ele>478.5</ele><time>2026-04-18T08:18:17.014Z</time></trkpt><trkpt lat="43.371137" lon="12.929505"><ele>477.0</ele><time>2026-04-18T08:18:19.006Z</time></trkpt><trkpt lat="43.3710886" lon="12.92936"><ele>477.0</ele><time>2026-04-18T08:18:21.02Z</time></trkpt><trkpt lat="43.371023" lon="12.9292296"><ele>477.0</ele><time>2026-04-18T08:18:23.003Z</time></trkpt><trkpt lat="43.3709559" lon="12.9291006"><ele>477.0</ele><time>2026-04-18T08:18:25.005Z</time></trkpt><trkpt lat="43.3709181" lon="12.9290251"><ele>477.0</ele><time>2026-04-18T08:18:26.007Z</time></trkpt><trkpt lat="43.3708809" lon="12.9289446"><ele>477.0</ele><time>2026-04-18T08:18:27.007Z</time></trkpt><trkpt lat="43.370838" lon="12.9288658"><ele>477.0</ele><time>2026-04-18T08:18:28.008Z</time></trkpt><trkpt lat="43.3707848" lon="12.9287779"><ele>477.1666666666667</ele><time>2026-04-18T08:18:29.021Z</time></trkpt><trkpt lat="43.370733" lon="12.9286779"><ele>477.33333333333337</ele><time>2026-04-18T08:18:30.033Z</time></trkpt><trkpt lat="43.3706787" lon="12.9285862"><ele>477.5</ele><time>2026-04-18T08:18:31.026Z</time></trkpt><trkpt lat="43.3706232" lon="12.9284931"><ele>477.6666666666667</ele><time>2026-04-18T08:18:32.007Z</time></trkpt><trkpt lat="43.3705713" lon="12.9284005"><ele>477.83333333333337</ele><time>2026-04-18T08:18:33.011Z</time></trkpt><trkpt lat="43.3705231" lon="12.9283203"><ele>478.0</ele><time>2026-04-18T08:18:34.015Z</time></trkpt><trkpt lat="43.3704882" lon="12.9282445"><ele>479.1428571428572</ele><time>2026-04-18T08:18:35.021Z</time></trkpt><trkpt lat="43.3704647" lon="12.9281482"><ele>480.28571428571433</ele><time>2026-04-18T08:18:36.003Z</time></trkpt><trkpt lat="43.3704631" lon="12.9280376"><ele>481.42857142857144</ele><time>2026-04-18T08:18:37.018Z</time></trkpt><trkpt lat="43.3704661" lon="12.927926"><ele>482.5714285714286</ele><time>2026-04-18T08:18:38.017Z</time></trkpt><trkpt lat="43.3704609" lon="12.9278303"><ele>483.7142857142858</ele><time>2026-04-18T08:18:39.002Z</time></trkpt><trkpt lat="43.3704485" lon="12.9277368"><ele>484.85714285714283</ele><time>2026-04-18T08:18:40.013Z</time></trkpt><trkpt lat="43.370421" lon="12.9276449"><ele>486.0</ele><time>2026-04-18T08:18:41.012Z</time></trkpt><trkpt lat="43.3703844" lon="12.9275471"><ele>483.71428571428567</ele><time>2026-04-18T08:18:42.019Z</time></trkpt><trkpt lat="43.3703498" lon="12.927445"><ele>481.42857142857144</ele><time>2026-04-18T08:18:42.992Z</time></trkpt><trkpt lat="43.3703202" lon="12.9273472"><ele>479.1428571428571</ele><time>2026-04-18T08:18:44.005Z</time></trkpt><trkpt lat="43.3702778" lon="12.9272716"><ele>476.85714285714283</ele><time>2026-04-18T08:18:44.998Z</time></trkpt><trkpt lat="43.3702194" lon="12.9272006"><ele>474.57142857142856</ele><time>2026-04-18T08:18:46.007Z</time></trkpt><trkpt lat="43.3701621" lon="12.9271384"><ele>472.2857142857143</ele><time>2026-04-18T08:18:47.005Z</time></trkpt><trkpt lat="43.3701071" lon="12.9270809"><ele>470.0</ele><time>2026-04-18T08:18:48.012Z</time></trkpt><trkpt lat="43.3700569" lon="12.9270245"><ele>470.0</ele><time>2026-04-18T08:18:49.009Z</time></trkpt><trkpt lat="43.3700083" lon="12.9269504"><ele>469.99999999999994</ele><time>2026-04-18T08:18:50.013Z</time></trkpt><trkpt lat="43.3699663" lon="12.926871"><ele>470.0</ele><time>2026-04-18T08:18:51.014Z</time></trkpt><trkpt lat="43.3699303" lon="12.9267934"><ele>470.0</ele><time>2026-04-18T08:18:52.006Z</time></trkpt><trkpt lat="43.3698879" lon="12.9267175"><ele>469.99999999999994</ele><time>2026-04-18T08:18:53.007Z</time></trkpt><trkpt lat="43.3698395" lon="12.9266551"><ele>470.0</ele><time>2026-04-18T08:18:54.018Z</time></trkpt><trkpt lat="43.3697797" lon="12.9266168"><ele>470.0</ele><time>2026-04-18T08:18:55.003Z</time></trkpt><trkpt lat="43.3696772" lon="12.9265946"><ele>467.2</ele><time>2026-04-18T08:18:57.007Z</time></trkpt><trkpt lat="43.3695996" lon="12.9265624"><ele>464.4</ele><time>2026-04-18T08:18:59.006Z</time></trkpt><trkpt lat="43.3696902" lon="12.9264622"><ele>461.6</ele><time>2026-04-18T08:19:02.011Z</time></trkpt><trkpt lat="43.3697601" lon="12.9264153"><ele>458.8</ele><time>2026-04-18T08:19:02.995Z</time></trkpt><trkpt lat="43.3698522" lon="12.92638"><ele>456.0</ele><time>2026-04-18T08:19:04.002Z</time></trkpt><trkpt lat="43.3699444" lon="12.9263644"><ele>456.0</ele><time>2026-04-18T08:19:05Z</time></trkpt><trkpt lat="43.3700498" lon="12.926346"><ele>456.0</ele><time>2026-04-18T08:19:05.998Z</time></trkpt><trkpt lat="43.3701598" lon="12.9263138"><ele>456.0</ele><time>2026-04-18T08:19:07.003Z</time></trkpt><trkpt lat="43.3702783" lon="12.9262575"><ele>456.0</ele><time>2026-04-18T08:19:08.009Z</time></trkpt><trkpt lat="43.3703963" lon="12.926172"><ele>456.0</ele><time>2026-04-18T08:19:08.997Z</time></trkpt><trkpt lat="43.3705034" lon="12.9260625"><ele>456.0</ele><time>2026-04-18T08:19:10.009Z</time></trkpt><trkpt lat="43.3705957" lon="12.9259602"><ele>456.0</ele><time>2026-04-18T08:19:10.999Z</time></trkpt><trkpt lat="43.3706757" lon="12.925859"><ele>456.0</ele><time>2026-04-18T08:19:12.007Z</time></trkpt><trkpt lat="43.370762" lon="12.9257644"><ele>452.0</ele><time>2026-04-18T08:19:13.008Z</time></trkpt><trkpt lat="43.3708607" lon="12.9256828"><ele>448.0</ele><time>2026-04-18T08:19:13.997Z</time></trkpt><trkpt lat="43.3709638" lon="12.9256191"><ele>444.0</ele><time>2026-04-18T08:19:15Z</time></trkpt><trkpt lat="43.3710755" lon="12.9255705"><ele>440.0</ele><time>2026-04-18T08:19:16.002Z</time></trkpt><trkpt lat="43.3712002" lon="12.9255289"><ele>440.0</ele><time>2026-04-18T08:19:16.993Z</time></trkpt><trkpt lat="43.37132" lon="12.9254766"><ele>440.0</ele><time>2026-04-18T08:19:18.013Z</time></trkpt><trkpt lat="43.3714374" lon="12.9254254"><ele>440.0</ele><time>2026-04-18T08:19:19.006Z</time></trkpt><trkpt lat="43.3715504" lon="12.9253741"><ele>440.0</ele><time>2026-04-18T08:19:20Z</time></trkpt><trkpt lat="43.3716557" lon="12.9253193"><ele>439.25</ele><time>2026-04-18T08:19:20.995Z</time></trkpt><trkpt lat="43.3717583" lon="12.9252279"><ele>438.5</ele><time>2026-04-18T08:19:21.999Z</time></trkpt><trkpt lat="43.3718668" lon="12.925111"><ele>437.75</ele><time>2026-04-18T08:19:23.002Z</time></trkpt><trkpt lat="43.371978" lon="12.9249931"><ele>437.0</ele><time>2026-04-18T08:19:24.002Z</time></trkpt><trkpt lat="43.3720964" lon="12.9248757"><ele>434.5</ele><time>2026-04-18T08:19:25.006Z</time></trkpt><trkpt lat="43.3722258" lon="12.9247805"><ele>432.0</ele><time>2026-04-18T08:19:26.017Z</time></trkpt><trkpt lat="43.3723577" lon="12.9246996"><ele>429.5</ele><time>2026-04-18T08:19:27.01Z</time></trkpt><trkpt lat="43.3724992" lon="12.9246266"><ele>427.0</ele><time>2026-04-18T08:19:28.005Z</time></trkpt><trkpt lat="43.3726268" lon="12.9245505"><ele>427.0</ele><time>2026-04-18T08:19:29.009Z</time></trkpt><trkpt lat="43.3727548" lon="12.924467"><ele>427.0</ele><time>2026-04-18T08:19:30Z</time></trkpt><trkpt lat="43.3728717" lon="12.9243779"><ele>427.0</ele><time>2026-04-18T08:19:31.013Z</time></trkpt><trkpt lat="43.3729779" lon="12.9242726"><ele>427.0</ele><time>2026-04-18T08:19:32.013Z</time></trkpt><trkpt lat="43.3730731" lon="12.9241734"><ele>426.5</ele><time>2026-04-18T08:19:33.005Z</time></trkpt><trkpt lat="43.3731636" lon="12.9240778"><ele>426.0</ele><time>2026-04-18T08:19:34.009Z</time></trkpt><trkpt lat="43.3732485" lon="12.9239781"><ele>425.5</ele><time>2026-04-18T08:19:35.01Z</time></trkpt><trkpt lat="43.3733353" lon="12.9238777"><ele>425.0</ele><time>2026-04-18T08:19:36.006Z</time></trkpt><trkpt lat="43.3734233" lon="12.9237744"><ele>425.0</ele><time>2026-04-18T08:19:37.005Z</time></trkpt><trkpt lat="43.3735167" lon="12.9236791"><ele>425.0</ele><time>2026-04-18T08:19:38.008Z</time></trkpt><trkpt lat="43.3736156" lon="12.9235862"><ele>425.0</ele><time>2026-04-18T08:19:39.01Z</time></trkpt><trkpt lat="43.3737182" lon="12.9235004"><ele>425.0</ele><time>2026-04-18T08:19:40.004Z</time></trkpt><trkpt lat="43.3738258" lon="12.923417"><ele>428.25</ele><time>2026-04-18T08:19:41.024Z</time></trkpt><trkpt lat="43.3739392" lon="12.9233269"><ele>431.5</ele><time>2026-04-18T08:19:42.01Z</time></trkpt><trkpt lat="43.3740376" lon="12.9232176"><ele>434.75</ele><time>2026-04-18T08:19:43.004Z</time></trkpt><trkpt lat="43.3741249" lon="12.9231062"><ele>438.0</ele><time>2026-04-18T08:19:44.006Z</time></trkpt><trkpt lat="43.3741943" lon="12.922963"><ele>438.0</ele><time>2026-04-18T08:19:45.01Z</time></trkpt><trkpt lat="43.3742481" lon="12.9228278"><ele>437.99999999999994</ele><time>2026-04-18T08:19:46.013Z</time></trkpt><trkpt lat="43.3742943" lon="12.9226969"><ele>437.99999999999994</ele><time>2026-04-18T08:19:47.015Z</time></trkpt><trkpt lat="43.3743404" lon="12.9225714"><ele>438.0</ele><time>2026-04-18T08:19:48.013Z</time></trkpt><trkpt lat="43.3743841" lon="12.9224463"><ele>438.0</ele><time>2026-04-18T08:19:49.01Z</time></trkpt><trkpt lat="43.3744196" lon="12.9223313"><ele>439.0</ele><time>2026-04-18T08:19:50.013Z</time></trkpt><trkpt lat="43.3744519" lon="12.9222119"><ele>439.99999999999994</ele><time>2026-04-18T08:19:51.022Z</time></trkpt><trkpt lat="43.3744917" lon="12.9221012"><ele>440.99999999999994</ele><time>2026-04-18T08:19:52.02Z</time></trkpt><trkpt lat="43.3745327" lon="12.921988"><ele>442.0</ele><time>2026-04-18T08:19:53.004Z</time></trkpt><trkpt lat="43.3745806" lon="12.9218617"><ele>443.0</ele><time>2026-04-18T08:19:54.012Z</time></trkpt><trkpt lat="43.3746251" lon="12.9217258"><ele>443.0</ele><time>2026-04-18T08:19:55.015Z</time></trkpt><trkpt lat="43.3746584" lon="12.9216037"><ele>442.99999999999994</ele><time>2026-04-18T08:19:56.007Z</time></trkpt><trkpt lat="43.3746886" lon="12.921474"><ele>442.99999999999994</ele><time>2026-04-18T08:19:57.013Z</time></trkpt><trkpt lat="43.3747135" lon="12.9213389"><ele>443.0</ele><time>2026-04-18T08:19:58.013Z</time></trkpt><trkpt lat="43.3747442" lon="12.9212095"><ele>443.0</ele><time>2026-04-18T08:19:59.017Z</time></trkpt><trkpt lat="43.37479" lon="12.9211103"><ele>442.3333333333333</ele><time>2026-04-18T08:20:00.014Z</time></trkpt><trkpt lat="43.3748623" lon="12.9210074"><ele>441.66666666666663</ele><time>2026-04-18T08:20:02.013Z</time></trkpt><trkpt lat="43.374884" lon="12.9209244"><ele>441.0</ele><time>2026-04-18T08:20:05.009Z</time></trkpt><trkpt lat="43.3749275" lon="12.9208156"><ele>440.33333333333337</ele><time>2026-04-18T08:20:08.018Z</time></trkpt><trkpt lat="43.3749591" lon="12.9206989"><ele>439.6666666666667</ele><time>2026-04-18T08:20:11.01Z</time></trkpt><trkpt lat="43.3749674" lon="12.9205931"><ele>439.0</ele><time>2026-04-18T08:20:13.014Z</time></trkpt><trkpt lat="43.3749283" lon="12.9204198"><ele>439.2</ele><time>2026-04-18T08:20:14.999Z</time></trkpt><trkpt lat="43.3748951" lon="12.9203144"><ele>439.4</ele><time>2026-04-18T08:20:16.003Z</time></trkpt><trkpt lat="43.3748576" lon="12.9202048"><ele>439.6</ele><time>2026-04-18T08:20:17.003Z</time></trkpt><trkpt lat="43.3748174" lon="12.92008"><ele>439.8</ele><time>2026-04-18T08:20:18Z</time></trkpt><trkpt lat="43.3747683" lon="12.9199481"><ele>440.0</ele><time>2026-04-18T08:20:19.015Z</time></trkpt><trkpt lat="43.3747214" lon="12.9198096"><ele>439.8</ele><time>2026-04-18T08:20:20.006Z</time></trkpt><trkpt lat="43.3746728" lon="12.9196783"><ele>439.6</ele><time>2026-04-18T08:20:20.994Z</time></trkpt><trkpt lat="43.3746272" lon="12.9195484"><ele>439.4</ele><time>2026-04-18T08:20:22.01Z</time></trkpt><trkpt lat="43.3745827" lon="12.919425"><ele>439.2</ele><time>2026-04-18T08:20:22.996Z</time></trkpt><trkpt lat="43.3745357" lon="12.9193116"><ele>439.0</ele><time>2026-04-18T08:20:24.004Z</time></trkpt><trkpt lat="43.3744873" lon="12.9191951"><ele>439.0</ele><time>2026-04-18T08:20:25.004Z</time></trkpt><trkpt lat="43.3744392" lon="12.9190894"><ele>439.0</ele><time>2026-04-18T08:20:26.006Z</time></trkpt><trkpt lat="43.3743835" lon="12.9189907"><ele>439.0</ele><time>2026-04-18T08:20:26.995Z</time></trkpt><trkpt lat="43.3743135" lon="12.918922"><ele>439.0</ele><time>2026-04-18T08:20:27.997Z</time></trkpt><trkpt lat="43.3742217" lon="12.918908"><ele>439.0</ele><time>2026-04-18T08:20:28.997Z</time></trkpt><trkpt lat="43.3741173" lon="12.9189088"><ele>439.0</ele><time>2026-04-18T08:20:30.009Z</time></trkpt><trkpt lat="43.3740125" lon="12.9188916"><ele>439.0</ele><time>2026-04-18T08:20:30.997Z</time></trkpt><trkpt lat="43.3739373" lon="12.9188151"><ele>439.0</ele><time>2026-04-18T08:20:32.005Z</time></trkpt><trkpt lat="43.3739002" lon="12.9187006"><ele>439.0</ele><time>2026-04-18T08:20:32.997Z</time></trkpt><trkpt lat="43.3739042" lon="12.9185823"><ele>439.0</ele><time>2026-04-18T08:20:34.002Z</time></trkpt><trkpt lat="43.3739272" lon="12.9184666"><ele>442.2</ele><time>2026-04-18T08:20:34.996Z</time></trkpt><trkpt lat="43.3739659" lon="12.9183328"><ele>445.4</ele><time>2026-04-18T08:20:36.004Z</time></trkpt><trkpt lat="43.3740169" lon="12.9181908"><ele>448.6</ele><time>2026-04-18T08:20:36.997Z</time></trkpt><trkpt lat="43.3740731" lon="12.9180567"><ele>451.8</ele><time>2026-04-18T08:20:38.003Z</time></trkpt><trkpt lat="43.3741339" lon="12.9179195"><ele>455.0</ele><time>2026-04-18T08:20:39.015Z</time></trkpt><trkpt lat="43.3742005" lon="12.9177775"><ele>455.0</ele><time>2026-04-18T08:20:40.002Z</time></trkpt><trkpt lat="43.3742746" lon="12.9176438"><ele>455.0</ele><time>2026-04-18T08:20:41.005Z</time></trkpt><trkpt lat="43.3743483" lon="12.9175222"><ele>455.0</ele><time>2026-04-18T08:20:42.011Z</time></trkpt><trkpt lat="43.3744317" lon="12.9174048"><ele>455.0</ele><time>2026-04-18T08:20:43.001Z</time></trkpt><trkpt lat="43.3745222" lon="12.9172922"><ele>455.0</ele><time>2026-04-18T08:20:44.021Z</time></trkpt><trkpt lat="43.3746103" lon="12.9171723"><ele>455.0</ele><time>2026-04-18T08:20:45.001Z</time></trkpt><trkpt lat="43.3746919" lon="12.9170366"><ele>455.0</ele><time>2026-04-18T08:20:46.008Z</time></trkpt><trkpt lat="43.3747667" lon="12.916888"><ele>455.0</ele><time>2026-04-18T08:20:47Z</time></trkpt><trkpt lat="43.3748385" lon="12.9167385"><ele>455.25</ele><time>2026-04-18T08:20:48.011Z</time></trkpt><trkpt lat="43.3749033" lon="12.9165917"><ele>455.5</ele><time>2026-04-18T08:20:48.994Z</time></trkpt><trkpt lat="43.3749633" lon="12.9164462"><ele>455.75</ele><time>2026-04-18T08:20:50.002Z</time></trkpt><trkpt lat="43.375026" lon="12.9163012"><ele>456.0</ele><time>2026-04-18T08:20:51.013Z</time></trkpt><trkpt lat="43.3750837" lon="12.9161691"><ele>456.0</ele><time>2026-04-18T08:20:52.009Z</time></trkpt><trkpt lat="43.375145" lon="12.9160317"><ele>456.0</ele><time>2026-04-18T08:20:53.009Z</time></trkpt><trkpt lat="43.3752087" lon="12.9158904"><ele>456.0</ele><time>2026-04-18T08:20:54.017Z</time></trkpt><trkpt lat="43.375277" lon="12.91575"><ele>456.0</ele><time>2026-04-18T08:20:55.004Z</time></trkpt><trkpt lat="43.3753624" lon="12.9156086"><ele>456.25</ele><time>2026-04-18T08:20:56.008Z</time></trkpt><trkpt lat="43.3754616" lon="12.9154717"><ele>456.5</ele><time>2026-04-18T08:20:57.011Z</time></trkpt><trkpt lat="43.3755602" lon="12.9153331"><ele>456.75</ele><time>2026-04-18T08:20:58.013Z</time></trkpt><trkpt lat="43.375662" lon="12.9152139"><ele>457.0</ele><time>2026-04-18T08:20:59.019Z</time></trkpt><trkpt lat="43.3757652" lon="12.915094"><ele>457.0</ele><time>2026-04-18T08:21:00.01Z</time></trkpt><trkpt lat="43.3758794" lon="12.9149749"><ele>457.0</ele><time>2026-04-18T08:21:00.999Z</time></trkpt><trkpt lat="43.3759851" lon="12.9148559"><ele>457.0</ele><time>2026-04-18T08:21:02.014Z</time></trkpt><trkpt lat="43.3760936" lon="12.9147576"><ele>457.0</ele><time>2026-04-18T08:21:03.006Z</time></trkpt><trkpt lat="43.3762057" lon="12.914679"><ele>457.0</ele><time>2026-04-18T08:21:04.006Z</time></trkpt><trkpt lat="43.3763176" lon="12.9146279"><ele>457.0</ele><time>2026-04-18T08:21:05.011Z</time></trkpt><trkpt lat="43.3764305" lon="12.9145956"><ele>457.0</ele><time>2026-04-18T08:21:06.013Z</time></trkpt><trkpt lat="43.3765415" lon="12.9145611"><ele>457.0</ele><time>2026-04-18T08:21:07.012Z</time></trkpt><trkpt lat="43.3766545" lon="12.9145315"><ele>457.33333333333337</ele><time>2026-04-18T08:21:08.003Z</time></trkpt><trkpt lat="43.3767585" lon="12.9145021"><ele>457.6666666666667</ele><time>2026-04-18T08:21:09.006Z</time></trkpt><trkpt lat="43.3768317" lon="12.9144466"><ele>458.0</ele><time>2026-04-18T08:21:10.006Z</time></trkpt><trkpt lat="43.376866" lon="12.9143477"><ele>458.33333333333337</ele><time>2026-04-18T08:21:11.002Z</time></trkpt><trkpt lat="43.3768885" lon="12.9142348"><ele>458.6666666666667</ele><time>2026-04-18T08:21:12.011Z</time></trkpt><trkpt lat="43.3769046" lon="12.9141079"><ele>459.0</ele><time>2026-04-18T08:21:13.009Z</time></trkpt><trkpt lat="43.3769241" lon="12.9139815"><ele>459.0</ele><time>2026-04-18T08:21:14.002Z</time></trkpt><trkpt lat="43.3769519" lon="12.9138481"><ele>459.0</ele><time>2026-04-18T08:21:15.015Z</time></trkpt><trkpt lat="43.3770049" lon="12.9137256"><ele>459.0</ele><time>2026-04-18T08:21:16.006Z</time></trkpt><trkpt lat="43.3770867" lon="12.9136047"><ele>459.0</ele><time>2026-04-18T08:21:17.007Z</time></trkpt><trkpt lat="43.3771841" lon="12.9134958"><ele>460.0</ele><time>2026-04-18T08:21:18.004Z</time></trkpt><trkpt lat="43.3772968" lon="12.9134193"><ele>461.0</ele><time>2026-04-18T08:21:19.004Z</time></trkpt><trkpt lat="43.377421" lon="12.9133818"><ele>462.0</ele><time>2026-04-18T08:21:20.012Z</time></trkpt><trkpt lat="43.3775552" lon="12.9133707"><ele>463.0</ele><time>2026-04-18T08:21:21.011Z</time></trkpt><trkpt lat="43.377703" lon="12.9133747"><ele>459.75</ele><time>2026-04-18T08:21:22.018Z</time></trkpt><trkpt lat="43.3778461" lon="12.9134118"><ele>456.5</ele><time>2026-04-18T08:21:23.016Z</time></trkpt><trkpt lat="43.3779895" lon="12.9134702"><ele>453.25</ele><time>2026-04-18T08:21:24.015Z</time></trkpt><trkpt lat="43.3781291" lon="12.9135382"><ele>450.0</ele><time>2026-04-18T08:21:25.029Z</time></trkpt><trkpt lat="43.378266" lon="12.9136006"><ele>450.0</ele><time>2026-04-18T08:21:26.024Z</time></trkpt><trkpt lat="43.3783997" lon="12.9136464"><ele>450.0</ele><time>2026-04-18T08:21:27.006Z</time></trkpt><trkpt lat="43.3785381" lon="12.9136731"><ele>450.0</ele><time>2026-04-18T08:21:28.012Z</time></trkpt><trkpt lat="43.378679" lon="12.9136895"><ele>450.0</ele><time>2026-04-18T08:21:28.998Z</time></trkpt><trkpt lat="43.3788204" lon="12.913709"><ele>451.75</ele><time>2026-04-18T08:21:30.012Z</time></trkpt><trkpt lat="43.3789582" lon="12.9137356"><ele>453.5</ele><time>2026-04-18T08:21:31.002Z</time></trkpt><trkpt lat="43.3790886" lon="12.913756"><ele>455.25</ele><time>2026-04-18T08:21:32.009Z</time></trkpt><trkpt lat="43.3792236" lon="12.9137645"><ele>457.0</ele><time>2026-04-18T08:21:33.01Z</time></trkpt><trkpt lat="43.3793593" lon="12.9137344"><ele>457.0</ele><time>2026-04-18T08:21:34.008Z</time></trkpt><trkpt lat="43.3795027" lon="12.9136715"><ele>457.0</ele><time>2026-04-18T08:21:35.017Z</time></trkpt><trkpt lat="43.3796388" lon="12.9135925"><ele>457.0</ele><time>2026-04-18T08:21:36.009Z</time></trkpt><trkpt lat="43.3797716" lon="12.9135027"><ele>457.0</ele><time>2026-04-18T08:21:37.005Z</time></trkpt><trkpt lat="43.3798967" lon="12.9134089"><ele>461.75</ele><time>2026-04-18T08:21:37.994Z</time></trkpt><trkpt lat="43.3800184" lon="12.9133224"><ele>466.5</ele><time>2026-04-18T08:21:39.001Z</time></trkpt><trkpt lat="43.3801313" lon="12.9132335"><ele>471.25</ele><time>2026-04-18T08:21:40.014Z</time></trkpt><trkpt lat="43.380233" lon="12.9131522"><ele>476.0</ele><time>2026-04-18T08:21:41.007Z</time></trkpt><trkpt lat="43.380336" lon="12.9130855"><ele>476.0</ele><time>2026-04-18T08:21:42.016Z</time></trkpt><trkpt lat="43.3804341" lon="12.9130316"><ele>476.0</ele><time>2026-04-18T08:21:43.007Z</time></trkpt><trkpt lat="43.3805331" lon="12.9129807"><ele>476.0</ele><time>2026-04-18T08:21:44.011Z</time></trkpt><trkpt lat="43.3806272" lon="12.9129189"><ele>476.0</ele><time>2026-04-18T08:21:44.991Z</time></trkpt><trkpt lat="43.3807201" lon="12.9128391"><ele>476.0</ele><time>2026-04-18T08:21:46.003Z</time></trkpt><trkpt lat="43.3808062" lon="12.9127455"><ele>476.75</ele><time>2026-04-18T08:21:47.004Z</time></trkpt><trkpt lat="43.3808935" lon="12.912647"><ele>477.5</ele><time>2026-04-18T08:21:48.008Z</time></trkpt><trkpt lat="43.3809717" lon="12.9125361"><ele>478.25</ele><time>2026-04-18T08:21:48.995Z</time></trkpt><trkpt lat="43.3810512" lon="12.9123996"><ele>479.0</ele><time>2026-04-18T08:21:50.001Z</time></trkpt><trkpt lat="43.3811184" lon="12.912245"><ele>479.0</ele><time>2026-04-18T08:21:50.994Z</time></trkpt><trkpt lat="43.3811715" lon="12.9120923"><ele>479.0</ele><time>2026-04-18T08:21:52.011Z</time></trkpt><trkpt lat="43.3812097" lon="12.9119287"><ele>479.0</ele><time>2026-04-18T08:21:53.006Z</time></trkpt><trkpt lat="43.3812424" lon="12.9117504"><ele>479.0</ele><time>2026-04-18T08:21:54.007Z</time></trkpt><trkpt lat="43.3812686" lon="12.9115664"><ele>480.25</ele><time>2026-04-18T08:21:54.999Z</time></trkpt><trkpt lat="43.3812956" lon="12.911395"><ele>481.5</ele><time>2026-04-18T08:21:56.008Z</time></trkpt><trkpt lat="43.3813075" lon="12.9112113"><ele>482.75</ele><time>2026-04-18T08:21:56.996Z</time></trkpt><trkpt lat="43.381319" lon="12.9110247"><ele>484.0</ele><time>2026-04-18T08:21:58.011Z</time></trkpt><trkpt lat="43.3813293" lon="12.9108482"><ele>484.0</ele><time>2026-04-18T08:21:59.001Z</time></trkpt><trkpt lat="43.3813341" lon="12.9106693"><ele>484.0</ele><time>2026-04-18T08:22:00.018Z</time></trkpt><trkpt lat="43.3813517" lon="12.910503"><ele>484.0</ele><time>2026-04-18T08:22:01.013Z</time></trkpt><trkpt lat="43.3813982" lon="12.9103255"><ele>484.0</ele><time>2026-04-18T08:22:02.002Z</time></trkpt><trkpt lat="43.3814687" lon="12.9101691"><ele>481.75</ele><time>2026-04-18T08:22:03.006Z</time></trkpt><trkpt lat="43.3815408" lon="12.910029"><ele>479.5</ele><time>2026-04-18T08:22:04.01Z</time></trkpt><trkpt lat="43.3816143" lon="12.909882"><ele>477.25</ele><time>2026-04-18T08:22:05Z</time></trkpt><trkpt lat="43.3816827" lon="12.909741"><ele>475.0</ele><time>2026-04-18T08:22:06.012Z</time></trkpt><trkpt lat="43.3817563" lon="12.9096023"><ele>475.0</ele><time>2026-04-18T08:22:07.008Z</time></trkpt><trkpt lat="43.381844" lon="12.909479"><ele>475.0</ele><time>2026-04-18T08:22:08.002Z</time></trkpt><trkpt lat="43.3819402" lon="12.9093762"><ele>475.0</ele><time>2026-04-18T08:22:09.014Z</time></trkpt><trkpt lat="43.3820484" lon="12.9092862"><ele>475.0</ele><time>2026-04-18T08:22:10.008Z</time></trkpt><trkpt lat="43.382166" lon="12.9092039"><ele>477.75</ele><time>2026-04-18T08:22:11.015Z</time></trkpt><trkpt lat="43.3822857" lon="12.9091016"><ele>480.5</ele><time>2026-04-18T08:22:12.007Z</time></trkpt><trkpt lat="43.3823993" lon="12.9089958"><ele>483.25</ele><time>2026-04-18T08:22:12.997Z</time></trkpt><trkpt lat="43.3825031" lon="12.9088887"><ele>486.0</ele><time>2026-04-18T08:22:14.01Z</time></trkpt><trkpt lat="43.3826092" lon="12.9087729"><ele>486.0</ele><time>2026-04-18T08:22:15.003Z</time></trkpt><trkpt lat="43.3827019" lon="12.9086716"><ele>486.0</ele><time>2026-04-18T08:22:16.011Z</time></trkpt><trkpt lat="43.3827868" lon="12.9085696"><ele>486.0</ele><time>2026-04-18T08:22:17.005Z</time></trkpt><trkpt lat="43.3828596" lon="12.9084741"><ele>486.0</ele><time>2026-04-18T08:22:18.002Z</time></trkpt><trkpt lat="43.382925" lon="12.9083702"><ele>486.0</ele><time>2026-04-18T08:22:19.007Z</time></trkpt><trkpt lat="43.3829798" lon="12.9082691"><ele>485.0</ele><time>2026-04-18T08:22:20.003Z</time></trkpt><trkpt lat="43.3830244" lon="12.9081756"><ele>484.0</ele><time>2026-04-18T08:22:20.997Z</time></trkpt><trkpt lat="43.3830458" lon="12.9080823"><ele>483.0</ele><time>2026-04-18T08:22:22.017Z</time></trkpt><trkpt lat="43.3830088" lon="12.9079247"><ele>482.0</ele><time>2026-04-18T08:22:23.989Z</time></trkpt><trkpt lat="43.3829445" lon="12.9078602"><ele>481.0</ele><time>2026-04-18T08:22:24.989Z</time></trkpt><trkpt lat="43.382866" lon="12.9077943"><ele>480.0</ele><time>2026-04-18T08:22:25.993Z</time></trkpt><trkpt lat="43.3827947" lon="12.9077211"><ele>478.75</ele><time>2026-04-18T08:22:26.985Z</time></trkpt><trkpt lat="43.3827011" lon="12.9076375"><ele>477.5</ele><time>2026-04-18T08:22:27.994Z</time></trkpt><trkpt lat="43.3826099" lon="12.9075341"><ele>476.25</ele><time>2026-04-18T08:22:28.986Z</time></trkpt><trkpt lat="43.382513" lon="12.9074241"><ele>475.0</ele><time>2026-04-18T08:22:29.995Z</time></trkpt><trkpt lat="43.382417" lon="12.9073105"><ele>475.0</ele><time>2026-04-18T08:22:31.001Z</time></trkpt><trkpt lat="43.3823155" lon="12.9071972"><ele>475.0</ele><time>2026-04-18T08:22:31.988Z</time></trkpt><trkpt lat="43.3822105" lon="12.9071067"><ele>475.0</ele><time>2026-04-18T08:22:32.998Z</time></trkpt><trkpt lat="43.3821002" lon="12.9070452"><ele>475.0</ele><time>2026-04-18T08:22:33.997Z</time></trkpt><trkpt lat="43.3819832" lon="12.9069899"><ele>474.0</ele><time>2026-04-18T08:22:35.011Z</time></trkpt><trkpt lat="43.3818684" lon="12.906934"><ele>473.0</ele><time>2026-04-18T08:22:36.017Z</time></trkpt><trkpt lat="43.3817679" lon="12.9068556"><ele>472.0</ele><time>2026-04-18T08:22:37.003Z</time></trkpt><trkpt lat="43.3816696" lon="12.9067478"><ele>471.0</ele><time>2026-04-18T08:22:38.012Z</time></trkpt><trkpt lat="43.3815777" lon="12.9066285"><ele>471.0</ele><time>2026-04-18T08:22:39.018Z</time></trkpt><trkpt lat="43.3814836" lon="12.906509"><ele>471.0</ele><time>2026-04-18T08:22:40.011Z</time></trkpt><trkpt lat="43.3813915" lon="12.9063982"><ele>471.0</ele><time>2026-04-18T08:22:41.014Z</time></trkpt><trkpt lat="43.3813076" lon="12.906297"><ele>471.0</ele><time>2026-04-18T08:22:42.028Z</time></trkpt><trkpt lat="43.381224" lon="12.9062049"><ele>470.6</ele><time>2026-04-18T08:22:42.988Z</time></trkpt><trkpt lat="43.3811442" lon="12.9061124"><ele>470.20000000000005</ele><time>2026-04-18T08:22:44.008Z</time></trkpt><trkpt lat="43.3810742" lon="12.9060186"><ele>469.79999999999995</ele><time>2026-04-18T08:22:44.989Z</time></trkpt><trkpt lat="43.3810099" lon="12.9059124"><ele>469.4</ele><time>2026-04-18T08:22:46.018Z</time></trkpt><trkpt lat="43.3809796" lon="12.9057932"><ele>469.0</ele><time>2026-04-18T08:22:47.018Z</time></trkpt><trkpt lat="43.3809756" lon="12.9056619"><ele>469.0</ele><time>2026-04-18T08:22:48.003Z</time></trkpt><trkpt lat="43.3809786" lon="12.9055202"><ele>469.0</ele><time>2026-04-18T08:22:48.992Z</time></trkpt><trkpt lat="43.3809698" lon="12.9053857"><ele>469.0</ele><time>2026-04-18T08:22:50.007Z</time></trkpt><trkpt lat="43.3809755" lon="12.9052467"><ele>469.0</ele><time>2026-04-18T08:22:50.989Z</time></trkpt><trkpt lat="43.381002" lon="12.9051065"><ele>469.0</ele><time>2026-04-18T08:22:51.995Z</time></trkpt><trkpt lat="43.3810657" lon="12.9049984"><ele>468.6</ele><time>2026-04-18T08:22:53.007Z</time></trkpt><trkpt lat="43.3811531" lon="12.904927"><ele>468.2</ele><time>2026-04-18T08:22:53.987Z</time></trkpt><trkpt lat="43.3812566" lon="12.9048997"><ele>467.80000000000007</ele><time>2026-04-18T08:22:54.987Z</time></trkpt><trkpt lat="43.3813615" lon="12.9049118"><ele>467.40000000000003</ele><time>2026-04-18T08:22:55.998Z</time></trkpt><trkpt lat="43.3814587" lon="12.9049248"><ele>467.0</ele><time>2026-04-18T08:22:56.998Z</time></trkpt><trkpt lat="43.381555" lon="12.9049354"><ele>467.0</ele><time>2026-04-18T08:22:58.018Z</time></trkpt><trkpt lat="43.3816441" lon="12.9049355"><ele>467.00000000000006</ele><time>2026-04-18T08:22:59.004Z</time></trkpt><trkpt lat="43.3817214" lon="12.904932"><ele>467.00000000000006</ele><time>2026-04-18T08:23:00.013Z</time></trkpt><trkpt lat="43.3818443" lon="12.9049066"><ele>467.0</ele><time>2026-04-18T08:23:02.009Z</time></trkpt><trkpt lat="43.3819266" lon="12.9049142"><ele>467.0</ele><time>2026-04-18T08:23:04.006Z</time></trkpt><trkpt lat="43.3819898" lon="12.9049747"><ele>466.99999999999994</ele><time>2026-04-18T08:23:06.004Z</time></trkpt><trkpt lat="43.3820883" lon="12.9050678"><ele>467.0</ele><time>2026-04-18T08:23:08.011Z</time></trkpt><trkpt lat="43.38214" lon="12.9051372"><ele>467.0</ele><time>2026-04-18T08:23:08.998Z</time></trkpt><trkpt lat="43.3821922" lon="12.9052157"><ele>467.0</ele><time>2026-04-18T08:23:10.004Z</time></trkpt><trkpt lat="43.3822369" lon="12.9053053"><ele>466.99999999999994</ele><time>2026-04-18T08:23:11.011Z</time></trkpt><trkpt lat="43.3822878" lon="12.9053948"><ele>467.0</ele><time>2026-04-18T08:23:12.016Z</time></trkpt><trkpt lat="43.3823434" lon="12.9054685"><ele>469.5714285714285</ele><time>2026-04-18T08:23:13.012Z</time></trkpt><trkpt lat="43.3824039" lon="12.9055073"><ele>472.1428571428571</ele><time>2026-04-18T08:23:14.009Z</time></trkpt><trkpt lat="43.3824796" lon="12.9055149"><ele>474.7142857142857</ele><time>2026-04-18T08:23:15.007Z</time></trkpt><trkpt lat="43.3825467" lon="12.9055173"><ele>477.2857142857143</ele><time>2026-04-18T08:23:15.992Z</time></trkpt><trkpt lat="43.3826136" lon="12.9055165"><ele>479.8571428571429</ele><time>2026-04-18T08:23:17.001Z</time></trkpt><trkpt lat="43.3826902" lon="12.9055144"><ele>482.4285714285715</ele><time>2026-04-18T08:23:18.011Z</time></trkpt><trkpt lat="43.3827636" lon="12.9055005"><ele>485.00000000000006</ele><time>2026-04-18T08:23:19.013Z</time></trkpt><trkpt lat="43.3828353" lon="12.9054761"><ele>484.99999999999994</ele><time>2026-04-18T08:23:20.009Z</time></trkpt><trkpt lat="43.3829118" lon="12.9054578"><ele>485.0</ele><time>2026-04-18T08:23:21.005Z</time></trkpt><trkpt lat="43.3829924" lon="12.905439"><ele>485.0</ele><time>2026-04-18T08:23:22.009Z</time></trkpt><trkpt lat="43.3830741" lon="12.9054144"><ele>485.0</ele><time>2026-04-18T08:23:23.002Z</time></trkpt><trkpt lat="43.3831551" lon="12.905383"><ele>484.99999999999994</ele><time>2026-04-18T08:23:24.008Z</time></trkpt><trkpt lat="43.3832393" lon="12.905357"><ele>485.0</ele><time>2026-04-18T08:23:25.014Z</time></trkpt><trkpt lat="43.3833387" lon="12.9053395"><ele>485.2</ele><time>2026-04-18T08:23:26.01Z</time></trkpt><trkpt lat="43.3834382" lon="12.905317"><ele>485.4</ele><time>2026-04-18T08:23:27.027Z</time></trkpt><trkpt lat="43.3835444" lon="12.9052925"><ele>485.6</ele><time>2026-04-18T08:23:28.008Z</time></trkpt><trkpt lat="43.3836514" lon="12.9052672"><ele>485.8</ele><time>2026-04-18T08:23:29.04Z</time></trkpt><trkpt lat="43.3837626" lon="12.9052447"><ele>486.0</ele><time>2026-04-18T08:23:29.994Z</time></trkpt><trkpt lat="43.3838702" lon="12.9052266"><ele>485.0</ele><time>2026-04-18T08:23:31.019Z</time></trkpt><trkpt lat="43.3839598" lon="12.9052189"><ele>484.0</ele><time>2026-04-18T08:23:32.01Z</time></trkpt><trkpt lat="43.3840418" lon="12.9052126"><ele>483.0</ele><time>2026-04-18T08:23:33.009Z</time></trkpt><trkpt lat="43.3841098" lon="12.9052049"><ele>482.0</ele><time>2026-04-18T08:23:34.025Z</time></trkpt><trkpt lat="43.3842227" lon="12.9051738"><ele>481.0</ele><time>2026-04-18T08:23:36.015Z</time></trkpt><trkpt lat="43.3843388" lon="12.9051411"><ele>481.00000000000006</ele><time>2026-04-18T08:23:38.021Z</time></trkpt><trkpt lat="43.384402" lon="12.9051303"><ele>481.0</ele><time>2026-04-18T08:23:38.991Z</time></trkpt><trkpt lat="43.3844926" lon="12.9051072"><ele>481.0</ele><time>2026-04-18T08:23:41.017Z</time></trkpt><trkpt lat="43.3845575" lon="12.9050893"><ele>481.0</ele><time>2026-04-18T08:23:42.999Z</time></trkpt><trkpt lat="43.3846484" lon="12.905049"><ele>481.00000000000006</ele><time>2026-04-18T08:23:45.009Z</time></trkpt><trkpt lat="43.3847096" lon="12.9050163"><ele>481.0</ele><time>2026-04-18T08:23:46.041Z</time></trkpt><trkpt lat="43.3847784" lon="12.9049779"><ele>484.8</ele><time>2026-04-18T08:23:47.003Z</time></trkpt><trkpt lat="43.3848588" lon="12.9049338"><ele>488.6</ele><time>2026-04-18T08:23:48.01Z</time></trkpt><trkpt lat="43.3849505" lon="12.9048908"><ele>492.4</ele><time>2026-04-18T08:23:49.029Z</time></trkpt><trkpt lat="43.3850539" lon="12.9048411"><ele>496.2</ele><time>2026-04-18T08:23:50.012Z</time></trkpt><trkpt lat="43.3851662" lon="12.9047924"><ele>500.0</ele><time>2026-04-18T08:23:51.012Z</time></trkpt><trkpt lat="43.3852711" lon="12.9047405"><ele>500.0</ele><time>2026-04-18T08:23:52.012Z</time></trkpt><trkpt lat="43.3853744" lon="12.9046824"><ele>500.0</ele><time>2026-04-18T08:23:53.006Z</time></trkpt><trkpt lat="43.3854781" lon="12.9046153"><ele>500.0</ele><time>2026-04-18T08:23:54.007Z</time></trkpt><trkpt lat="43.3855758" lon="12.9045514"><ele>500.0</ele><time>2026-04-18T08:23:55.006Z</time></trkpt><trkpt lat="43.38566" lon="12.9044862"><ele>500.0</ele><time>2026-04-18T08:23:55.994Z</time></trkpt><trkpt lat="43.3857324" lon="12.9044226"><ele>498.8</ele><time>2026-04-18T08:23:57Z</time></trkpt><trkpt lat="43.3858007" lon="12.9043634"><ele>497.6</ele><time>2026-04-18T08:23:58Z</time></trkpt><trkpt lat="43.3858839" lon="12.9043133"><ele>496.4</ele><time>2026-04-18T08:23:59.014Z</time></trkpt><trkpt lat="43.3859834" lon="12.9042677"><ele>495.2</ele><time>2026-04-18T08:23:59.993Z</time></trkpt><trkpt lat="43.3860869" lon="12.904228"><ele>494.0</ele><time>2026-04-18T08:24:00.997Z</time></trkpt><trkpt lat="43.3862043" lon="12.9042257"><ele>494.6</ele><time>2026-04-18T08:24:01.993Z</time></trkpt><trkpt lat="43.3863077" lon="12.9042331"><ele>495.2</ele><time>2026-04-18T08:24:02.993Z</time></trkpt><trkpt lat="43.3864124" lon="12.9042566"><ele>495.80000000000007</ele><time>2026-04-18T08:24:04Z</time></trkpt><trkpt lat="43.3865205" lon="12.9042962"><ele>496.40000000000003</ele><time>2026-04-18T08:24:04.991Z</time></trkpt><trkpt lat="43.3866247" lon="12.9043475"><ele>497.0</ele><time>2026-04-18T08:24:05.993Z</time></trkpt><trkpt lat="43.3867173" lon="12.9043833"><ele>497.0</ele><time>2026-04-18T08:24:06.991Z</time></trkpt><trkpt lat="43.3868092" lon="12.904407"><ele>497.00000000000006</ele><time>2026-04-18T08:24:08.015Z</time></trkpt><trkpt lat="43.3869085" lon="12.9044151"><ele>497.00000000000006</ele><time>2026-04-18T08:24:09.009Z</time></trkpt><trkpt lat="43.3870052" lon="12.9043884"><ele>497.0</ele><time>2026-04-18T08:24:09.987Z</time></trkpt><trkpt lat="43.387107" lon="12.9043382"><ele>497.0</ele><time>2026-04-18T08:24:10.994Z</time></trkpt><trkpt lat="43.3872155" lon="12.9042826"><ele>503.5</ele><time>2026-04-18T08:24:12.001Z</time></trkpt><trkpt lat="43.3873323" lon="12.9042389"><ele>510.0</ele><time>2026-04-18T08:24:12.997Z</time></trkpt><trkpt lat="43.3874607" lon="12.9041977"><ele>516.5</ele><time>2026-04-18T08:24:13.993Z</time></trkpt><trkpt lat="43.3876003" lon="12.9041747"><ele>523.0</ele><time>2026-04-18T08:24:14.999Z</time></trkpt><trkpt lat="43.3877385" lon="12.9041252"><ele>523.0</ele><time>2026-04-18T08:24:16.008Z</time></trkpt><trkpt lat="43.387881" lon="12.9040685"><ele>523.0</ele><time>2026-04-18T08:24:16.992Z</time></trkpt><trkpt lat="43.3880113" lon="12.9040034"><ele>523.0</ele><time>2026-04-18T08:24:18.02Z</time></trkpt><trkpt lat="43.3881395" lon="12.9039369"><ele>523.0</ele><time>2026-04-18T08:24:19.028Z</time></trkpt><trkpt lat="43.3882538" lon="12.9038672"><ele>520.0</ele><time>2026-04-18T08:24:20.009Z</time></trkpt><trkpt lat="43.3883712" lon="12.9038105"><ele>517.0</ele><time>2026-04-18T08:24:20.984Z</time></trkpt><trkpt lat="43.3884877" lon="12.9037709"><ele>514.0</ele><time>2026-04-18T08:24:22.001Z</time></trkpt><trkpt lat="43.3885953" lon="12.9037579"><ele>511.0</ele><time>2026-04-18T08:24:22.99Z</time></trkpt><trkpt lat="43.3887027" lon="12.9037653"><ele>511.0</ele><time>2026-04-18T08:24:23.994Z</time></trkpt><trkpt lat="43.3887923" lon="12.9037943"><ele>511.0</ele><time>2026-04-18T08:24:24.995Z</time></trkpt><trkpt lat="43.388881" lon="12.9038241"><ele>511.0</ele><time>2026-04-18T08:24:25.997Z</time></trkpt><trkpt lat="43.3889658" lon="12.9038375"><ele>511.0</ele><time>2026-04-18T08:24:26.995Z</time></trkpt><trkpt lat="43.3890617" lon="12.9038432"><ele>511.0</ele><time>2026-04-18T08:24:27.992Z</time></trkpt><trkpt lat="43.3891673" lon="12.9038265"><ele>511.25</ele><time>2026-04-18T08:24:28.993Z</time></trkpt><trkpt lat="43.3892704" lon="12.9038013"><ele>511.5</ele><time>2026-04-18T08:24:29.999Z</time></trkpt><trkpt lat="43.3893776" lon="12.9037742"><ele>511.75</ele><time>2026-04-18T08:24:30.992Z</time></trkpt><trkpt lat="43.3894958" lon="12.9037399"><ele>512.0</ele><time>2026-04-18T08:24:31.99Z</time></trkpt><trkpt lat="43.3896108" lon="12.903717"><ele>513.25</ele><time>2026-04-18T08:24:32.983Z</time></trkpt><trkpt lat="43.3897272" lon="12.9036984"><ele>514.5</ele><time>2026-04-18T08:24:34.005Z</time></trkpt><trkpt lat="43.3898438" lon="12.9036823"><ele>515.75</ele><time>2026-04-18T08:24:34.986Z</time></trkpt><trkpt lat="43.3899538" lon="12.9036503"><ele>517.0</ele><time>2026-04-18T08:24:36.005Z</time></trkpt><trkpt lat="43.3900554" lon="12.903609"><ele>517.0</ele><time>2026-04-18T08:24:36.997Z</time></trkpt><trkpt lat="43.3901485" lon="12.9035288"><ele>517.0</ele><time>2026-04-18T08:24:37.999Z</time></trkpt><trkpt lat="43.3902597" lon="12.9034421"><ele>517.0</ele><time>2026-04-18T08:24:39.003Z</time></trkpt><trkpt lat="43.3903609" lon="12.9033612"><ele>517.0</ele><time>2026-04-18T08:24:40.003Z</time></trkpt><trkpt lat="43.3904622" lon="12.9032916"><ele>523.5</ele><time>2026-04-18T08:24:41.009Z</time></trkpt><trkpt lat="43.3905745" lon="12.903232"><ele>530.0</ele><time>2026-04-18T08:24:42.002Z</time></trkpt><trkpt lat="43.390691" lon="12.9031683"><ele>536.5</ele><time>2026-04-18T08:24:43.007Z</time></trkpt><trkpt lat="43.3907966" lon="12.9031147"><ele>543.0</ele><time>2026-04-18T08:24:44.001Z</time></trkpt><trkpt lat="43.3908993" lon="12.9030688"><ele>543.0</ele><time>2026-04-18T08:24:45.007Z</time></trkpt><trkpt lat="43.3909962" lon="12.9030232"><ele>543.0</ele><time>2026-04-18T08:24:46.003Z</time></trkpt><trkpt lat="43.3910877" lon="12.9029762"><ele>543.0</ele><time>2026-04-18T08:24:46.997Z</time></trkpt><trkpt lat="43.3911874" lon="12.9029069"><ele>543.0</ele><time>2026-04-18T08:24:48.002Z</time></trkpt><trkpt lat="43.3912878" lon="12.9028297"><ele>543.0</ele><time>2026-04-18T08:24:49.01Z</time></trkpt><trkpt lat="43.3913843" lon="12.9027578"><ele>545.4</ele><time>2026-04-18T08:24:50.008Z</time></trkpt><trkpt lat="43.3914841" lon="12.9026803"><ele>547.8</ele><time>2026-04-18T08:24:51.004Z</time></trkpt><trkpt lat="43.3915814" lon="12.9026127"><ele>550.2</ele><time>2026-04-18T08:24:52.008Z</time></trkpt><trkpt lat="43.3916745" lon="12.9025345"><ele>552.6</ele><time>2026-04-18T08:24:53.011Z</time></trkpt><trkpt lat="43.3917648" lon="12.9024478"><ele>555.0</ele><time>2026-04-18T08:24:53.999Z</time></trkpt><trkpt lat="43.3918497" lon="12.9023625"><ele>555.0</ele><time>2026-04-18T08:24:55.018Z</time></trkpt><trkpt lat="43.3919329" lon="12.9022826"><ele>555.0</ele><time>2026-04-18T08:24:56.017Z</time></trkpt><trkpt lat="43.3920224" lon="12.9021995"><ele>555.0</ele><time>2026-04-18T08:24:57.009Z</time></trkpt><trkpt lat="43.3921171" lon="12.9021264"><ele>555.0</ele><time>2026-04-18T08:24:58.015Z</time></trkpt><trkpt lat="43.3922084" lon="12.9020495"><ele>555.0</ele><time>2026-04-18T08:24:59.001Z</time></trkpt><trkpt lat="43.3923002" lon="12.9019589"><ele>555.0</ele><time>2026-04-18T08:25:00.015Z</time></trkpt><trkpt lat="43.3923925" lon="12.9018747"><ele>555.0</ele><time>2026-04-18T08:25:01.006Z</time></trkpt><trkpt lat="43.3924855" lon="12.9017832"><ele>555.0</ele><time>2026-04-18T08:25:02.013Z</time></trkpt><trkpt lat="43.392565" lon="12.901695"><ele>555.0</ele><time>2026-04-18T08:25:03.023Z</time></trkpt><trkpt lat="43.392633" lon="12.9016122"><ele>555.0</ele><time>2026-04-18T08:25:03.997Z</time></trkpt><trkpt lat="43.3926913" lon="12.9015318"><ele>555.0</ele><time>2026-04-18T08:25:04.996Z</time></trkpt><trkpt lat="43.3927439" lon="12.9014682"><ele>555.0</ele><time>2026-04-18T08:25:06.023Z</time></trkpt><trkpt lat="43.3927926" lon="12.9014056"><ele>555.0</ele><time>2026-04-18T08:25:07.01Z</time></trkpt><trkpt lat="43.3928354" lon="12.9012874"><ele>555.0</ele><time>2026-04-18T08:25:09.008Z</time></trkpt><trkpt lat="43.3928579" lon="12.9011763"><ele>555.0</ele><time>2026-04-18T08:25:12.005Z</time></trkpt><trkpt lat="43.3927846" lon="12.9011636"><ele>555.0</ele><time>2026-04-18T08:25:15.003Z</time></trkpt><trkpt lat="43.3927185" lon="12.9011912"><ele>555.0</ele><time>2026-04-18T08:25:18.015Z</time></trkpt><trkpt lat="43.3926268" lon="12.9011864"><ele>555.0</ele><time>2026-04-18T08:25:53.991Z</time></trkpt><trkpt lat="43.3925152" lon="12.9011951"><ele>555.0</ele><time>2026-04-18T08:25:56.027Z</time></trkpt><trkpt lat="43.3924576" lon="12.9012327"><ele>555.0</ele><time>2026-04-18T08:25:57.007Z</time></trkpt><trkpt lat="43.3923574" lon="12.9013232"><ele>555.0</ele><time>2026-04-18T08:25:59.011Z</time></trkpt><trkpt lat="43.392284" lon="12.9013765"><ele>555.0</ele><time>2026-04-18T08:26:00.005Z</time></trkpt><trkpt lat="43.3922073" lon="12.9014323"><ele>555.0</ele><time>2026-04-18T08:26:01.025Z</time></trkpt><trkpt lat="43.3921334" lon="12.901484"><ele>555.0</ele><time>2026-04-18T08:26:02.007Z</time></trkpt><trkpt lat="43.3920584" lon="12.9015257"><ele>555.0</ele><time>2026-04-18T08:26:03.02Z</time></trkpt><trkpt lat="43.3919809" lon="12.9015728"><ele>555.0</ele><time>2026-04-18T08:26:04.004Z</time></trkpt><trkpt lat="43.3918987" lon="12.9016238"><ele>555.0</ele><time>2026-04-18T08:26:05Z</time></trkpt><trkpt lat="43.3918201" lon="12.901679"><ele>555.0</ele><time>2026-04-18T08:26:06.009Z</time></trkpt><trkpt lat="43.391748" lon="12.9017253"><ele>555.0</ele><time>2026-04-18T08:26:06.993Z</time></trkpt><trkpt lat="43.3916696" lon="12.9017632"><ele>555.0</ele><time>2026-04-18T08:26:08.01Z</time></trkpt><trkpt lat="43.3915825" lon="12.9017901"><ele>555.0</ele><time>2026-04-18T08:26:09.002Z</time></trkpt><trkpt lat="43.3914937" lon="12.9018018"><ele>555.0</ele><time>2026-04-18T08:26:10Z</time></trkpt><trkpt lat="43.3913995" lon="12.9018052"><ele>555.0</ele><time>2026-04-18T08:26:10.992Z</time></trkpt><trkpt lat="43.391304" lon="12.9017974"><ele>556.6666666666666</ele><time>2026-04-18T08:26:11.992Z</time></trkpt><trkpt lat="43.3912286" lon="12.9017759"><ele>558.3333333333334</ele><time>2026-04-18T08:26:13.012Z</time></trkpt><trkpt lat="43.3911618" lon="12.9017647"><ele>560.0</ele><time>2026-04-18T08:26:14.008Z</time></trkpt><trkpt lat="43.3910842" lon="12.9017695"><ele>561.6666666666667</ele><time>2026-04-18T08:26:15.013Z</time></trkpt><trkpt lat="43.3910017" lon="12.901786"><ele>563.3333333333334</ele><time>2026-04-18T08:26:16.002Z</time></trkpt><trkpt lat="43.3908981" lon="12.9017953"><ele>565.0</ele><time>2026-04-18T08:26:17.002Z</time></trkpt><trkpt lat="43.3907958" lon="12.9017893"><ele>565.0</ele><time>2026-04-18T08:26:18.016Z</time></trkpt><trkpt lat="43.3907028" lon="12.9017844"><ele>565.0</ele><time>2026-04-18T08:26:19.008Z</time></trkpt><trkpt lat="43.3906184" lon="12.9017959"><ele>565.0</ele><time>2026-04-18T08:26:20.008Z</time></trkpt><trkpt lat="43.3905311" lon="12.9018294"><ele>565.0</ele><time>2026-04-18T08:26:21.004Z</time></trkpt><trkpt lat="43.3904393" lon="12.901859"><ele>565.0</ele><time>2026-04-18T08:26:21.998Z</time></trkpt><trkpt lat="43.3903336" lon="12.901886"><ele>567.0</ele><time>2026-04-18T08:26:23.005Z</time></trkpt><trkpt lat="43.3902121" lon="12.9018988"><ele>569.0</ele><time>2026-04-18T08:26:24.009Z</time></trkpt><trkpt lat="43.3901011" lon="12.9019111"><ele>571.0</ele><time>2026-04-18T08:26:25.012Z</time></trkpt><trkpt lat="43.3899918" lon="12.9019318"><ele>573.0</ele><time>2026-04-18T08:26:26.008Z</time></trkpt><trkpt lat="43.389898" lon="12.9019475"><ele>575.0</ele><time>2026-04-18T08:26:27.01Z</time></trkpt><trkpt lat="43.3898133" lon="12.9019471"><ele>575.0</ele><time>2026-04-18T08:26:28.003Z</time></trkpt><trkpt lat="43.3897332" lon="12.9019381"><ele>575.0</ele><time>2026-04-18T08:26:29.01Z</time></trkpt><trkpt lat="43.3896389" lon="12.9019243"><ele>575.0</ele><time>2026-04-18T08:26:30.004Z</time></trkpt><trkpt lat="43.3895365" lon="12.9018989"><ele>575.0</ele><time>2026-04-18T08:26:31.005Z</time></trkpt><trkpt lat="43.3894189" lon="12.9018833"><ele>575.0</ele><time>2026-04-18T08:26:32.004Z</time></trkpt><trkpt lat="43.3893076" lon="12.9018741"><ele>576.6</ele><time>2026-04-18T08:26:32.994Z</time></trkpt><trkpt lat="43.3892163" lon="12.9018653"><ele>578.2</ele><time>2026-04-18T08:26:34.005Z</time></trkpt><trkpt lat="43.3891267" lon="12.9018611"><ele>579.8</ele><time>2026-04-18T08:26:35.002Z</time></trkpt><trkpt lat="43.389045" lon="12.9018343"><ele>581.4</ele><time>2026-04-18T08:26:36.001Z</time></trkpt><trkpt lat="43.388947" lon="12.9017879"><ele>583.0</ele><time>2026-04-18T08:26:37Z</time></trkpt><trkpt lat="43.38884" lon="12.9017474"><ele>587.8</ele><time>2026-04-18T08:26:38.004Z</time></trkpt><trkpt lat="43.3887385" lon="12.9016952"><ele>592.5999999999999</ele><time>2026-04-18T08:26:39.013Z</time></trkpt><trkpt lat="43.3886447" lon="12.9016506"><ele>597.4000000000001</ele><time>2026-04-18T08:26:39.99Z</time></trkpt><trkpt lat="43.3885589" lon="12.9016243"><ele>602.2</ele><time>2026-04-18T08:26:40.999Z</time></trkpt><trkpt lat="43.3884756" lon="12.9015978"><ele>607.0</ele><time>2026-04-18T08:26:42.008Z</time></trkpt><trkpt lat="43.3883982" lon="12.9015728"><ele>607.0</ele><time>2026-04-18T08:26:43.011Z</time></trkpt><trkpt lat="43.3883219" lon="12.9015416"><ele>607.0</ele><time>2026-04-18T08:26:44.009Z</time></trkpt><trkpt lat="43.3882583" lon="12.9015092"><ele>607.0</ele><time>2026-04-18T08:26:45.017Z</time></trkpt><trkpt lat="43.3881445" lon="12.901499"><ele>607.0</ele><time>2026-04-18T08:26:47.001Z</time></trkpt><trkpt lat="43.3880791" lon="12.9015129"><ele>607.0</ele><time>2026-04-18T08:26:47.998Z</time></trkpt><trkpt lat="43.3880141" lon="12.9015239"><ele>607.0</ele><time>2026-04-18T08:26:49.002Z</time></trkpt><trkpt lat="43.3879448" lon="12.9015335"><ele>606.0</ele><time>2026-04-18T08:26:50Z</time></trkpt><trkpt lat="43.3878809" lon="12.9015414"><ele>605.0</ele><time>2026-04-18T08:26:51.019Z</time></trkpt><trkpt lat="43.3878149" lon="12.9015333"><ele>604.0</ele><time>2026-04-18T08:26:52.008Z</time></trkpt><trkpt lat="43.387744" lon="12.9015102"><ele>603.0</ele><time>2026-04-18T08:26:53.003Z</time></trkpt><trkpt lat="43.3876815" lon="12.9014868"><ele>602.0</ele><time>2026-04-18T08:26:54.015Z</time></trkpt><trkpt lat="43.3875711" lon="12.9014445"><ele>601.0</ele><time>2026-04-18T08:26:55.997Z</time></trkpt><trkpt lat="43.3874753" lon="12.9013662"><ele>601.0</ele><time>2026-04-18T08:26:57.99Z</time></trkpt><trkpt lat="43.3873813" lon="12.9012772"><ele>601.0</ele><time>2026-04-18T08:26:59.999Z</time></trkpt><trkpt lat="43.3873088" lon="12.9011757"><ele>601.0</ele><time>2026-04-18T08:27:02.003Z</time></trkpt><trkpt lat="43.3872961" lon="12.9010803"><ele>601.0</ele><time>2026-04-18T08:27:04.027Z</time></trkpt><trkpt lat="43.3873262" lon="12.900956"><ele>601.0</ele><time>2026-04-18T08:27:06.009Z</time></trkpt><trkpt lat="43.3873992" lon="12.9008302"><ele>605.0</ele><time>2026-04-18T08:27:08.009Z</time></trkpt><trkpt lat="43.3874995" lon="12.9007321"><ele>609.0</ele><time>2026-04-18T08:27:10.012Z</time></trkpt><trkpt lat="43.3876129" lon="12.900648"><ele>613.0</ele><time>2026-04-18T08:27:12.006Z</time></trkpt><trkpt lat="43.3876773" lon="12.9005858"><ele>617.0</ele><time>2026-04-18T08:27:12.998Z</time></trkpt><trkpt lat="43.3877453" lon="12.9005147"><ele>621.0</ele><time>2026-04-18T08:27:13.999Z</time></trkpt><trkpt lat="43.3878155" lon="12.9004454"><ele>621.0</ele><time>2026-04-18T08:27:15.003Z</time></trkpt><trkpt lat="43.3878844" lon="12.9003775"><ele>621.0</ele><time>2026-04-18T08:27:16.01Z</time></trkpt><trkpt lat="43.3879519" lon="12.9003143"><ele>621.0</ele><time>2026-04-18T08:27:17Z</time></trkpt><trkpt lat="43.3880229" lon="12.9002456"><ele>621.0</ele><time>2026-04-18T08:27:18.013Z</time></trkpt><trkpt lat="43.3880941" lon="12.9002016"><ele>621.0</ele><time>2026-04-18T08:27:19.01Z</time></trkpt><trkpt lat="43.3881614" lon="12.9001693"><ele>621.0</ele><time>2026-04-18T08:27:20.006Z</time></trkpt><trkpt lat="43.3882226" lon="12.9001325"><ele>622.1666666666666</ele><time>2026-04-18T08:27:21.009Z</time></trkpt><trkpt lat="43.3882832" lon="12.9001022"><ele>623.3333333333334</ele><time>2026-04-18T08:27:22.009Z</time></trkpt><trkpt lat="43.3883458" lon="12.9000666"><ele>624.5</ele><time>2026-04-18T08:27:22.995Z</time></trkpt><trkpt lat="43.3884139" lon="12.9000141"><ele>625.6666666666667</ele><time>2026-04-18T08:27:24.01Z</time></trkpt><trkpt lat="43.3884732" lon="12.8999502"><ele>626.8333333333334</ele><time>2026-04-18T08:27:25.012Z</time></trkpt><trkpt lat="43.3885226" lon="12.8998168"><ele>628.0</ele><time>2026-04-18T08:27:27.016Z</time></trkpt><trkpt lat="43.3885124" lon="12.8997242"><ele>631.3333333333334</ele><time>2026-04-18T08:27:27.999Z</time></trkpt><trkpt lat="43.3885087" lon="12.89961"><ele>634.6666666666667</ele><time>2026-04-18T08:27:28.998Z</time></trkpt><trkpt lat="43.3885147" lon="12.8995114"><ele>638.0</ele><time>2026-04-18T08:27:30.013Z</time></trkpt><trkpt lat="43.3884386" lon="12.8994028"><ele>641.3333333333334</ele><time>2026-04-18T08:27:32.008Z</time></trkpt><trkpt lat="43.3883606" lon="12.8993949"><ele>644.6666666666666</ele><time>2026-04-18T08:27:32.995Z</time></trkpt><trkpt lat="43.3882816" lon="12.8993824"><ele>648.0</ele><time>2026-04-18T08:27:34.009Z</time></trkpt><trkpt lat="43.3881967" lon="12.8993521"><ele>648.0</ele><time>2026-04-18T08:27:34.999Z</time></trkpt><trkpt lat="43.3881237" lon="12.8993175"><ele>648.0</ele><time>2026-04-18T08:27:36.003Z</time></trkpt><trkpt lat="43.3880173" lon="12.8992382"><ele>648.0</ele><time>2026-04-18T08:27:38.009Z</time></trkpt><trkpt lat="43.3879225" lon="12.8991313"><ele>648.0</ele><time>2026-04-18T08:27:40.005Z</time></trkpt><trkpt lat="43.3878965" lon="12.8990074"><ele>648.0</ele><time>2026-04-18T08:27:42.002Z</time></trkpt><trkpt lat="43.3879421" lon="12.8988921"><ele>650.6666666666666</ele><time>2026-04-18T08:27:44.012Z</time></trkpt><trkpt lat="43.3880075" lon="12.8987774"><ele>653.3333333333334</ele><time>2026-04-18T08:27:46.011Z</time></trkpt><trkpt lat="43.3880671" lon="12.8986499"><ele>656.0</ele><time>2026-04-18T08:27:48.008Z</time></trkpt><trkpt lat="43.3881158" lon="12.898569"><ele>658.6666666666667</ele><time>2026-04-18T08:27:49.006Z</time></trkpt><trkpt lat="43.3881463" lon="12.8984717"><ele>661.3333333333334</ele><time>2026-04-18T08:27:50.002Z</time></trkpt><trkpt lat="43.3881617" lon="12.8983873"><ele>664.0</ele><time>2026-04-18T08:27:51.002Z</time></trkpt><trkpt lat="43.3881568" lon="12.8982749"><ele>667.0</ele><time>2026-04-18T08:27:54.009Z</time></trkpt><trkpt lat="43.3881182" lon="12.8981691"><ele>670.0</ele><time>2026-04-18T08:27:56.018Z</time></trkpt><trkpt lat="43.3880632" lon="12.8980995"><ele>673.0</ele><time>2026-04-18T08:27:58.006Z</time></trkpt><trkpt lat="43.3879991" lon="12.898004"><ele>676.0</ele><time>2026-04-18T08:28:00.007Z</time></trkpt><trkpt lat="43.3879426" lon="12.8978581"><ele>679.0</ele><time>2026-04-18T08:28:01.999Z</time></trkpt><trkpt lat="43.3878888" lon="12.8976924"><ele>680.3333333333334</ele><time>2026-04-18T08:28:04.005Z</time></trkpt><trkpt lat="43.3878568" lon="12.8975931"><ele>681.6666666666667</ele><time>2026-04-18T08:28:05Z</time></trkpt><trkpt lat="43.3878328" lon="12.8974974"><ele>683.0</ele><time>2026-04-18T08:28:06.005Z</time></trkpt><trkpt lat="43.3878144" lon="12.8974131"><ele>684.3333333333334</ele><time>2026-04-18T08:28:06.999Z</time></trkpt><trkpt lat="43.3877963" lon="12.8973207"><ele>685.6666666666666</ele><time>2026-04-18T08:28:07.994Z</time></trkpt><trkpt lat="43.3877678" lon="12.8972351"><ele>687.0</ele><time>2026-04-18T08:28:09.004Z</time></trkpt><trkpt lat="43.3876725" lon="12.8971197"><ele>689.8333333333334</ele><time>2026-04-18T08:28:11.012Z</time></trkpt><trkpt lat="43.3876086" lon="12.8970643"><ele>692.6666666666666</ele><time>2026-04-18T08:28:11.999Z</time></trkpt><trkpt lat="43.3875485" lon="12.8970004"><ele>695.5</ele><time>2026-04-18T08:28:12.999Z</time></trkpt><trkpt lat="43.3874961" lon="12.896937"><ele>698.3333333333333</ele><time>2026-04-18T08:28:14.012Z</time></trkpt><trkpt lat="43.3874358" lon="12.8968563"><ele>701.1666666666666</ele><time>2026-04-18T08:28:15.014Z</time></trkpt><trkpt lat="43.3873633" lon="12.8967763"><ele>704.0</ele><time>2026-04-18T08:28:16.011Z</time></trkpt><trkpt lat="43.3872948" lon="12.8967037"><ele>706.8333333333333</ele><time>2026-04-18T08:28:16.999Z</time></trkpt><trkpt lat="43.3872262" lon="12.8966258"><ele>709.6666666666666</ele><time>2026-04-18T08:28:18.003Z</time></trkpt><trkpt lat="43.3871493" lon="12.8965349"><ele>712.5</ele><time>2026-04-18T08:28:19Z</time></trkpt><trkpt lat="43.3870604" lon="12.8964631"><ele>715.3333333333334</ele><time>2026-04-18T08:28:20.001Z</time></trkpt><trkpt lat="43.387" lon="12.896423"><ele>718.1666666666667</ele><time>2026-04-18T08:28:21.002Z</time></trkpt><trkpt lat="43.3870263" lon="12.8963402"><ele>721.0</ele><time>2026-04-18T08:28:23.006Z</time></trkpt><trkpt lat="43.3871137" lon="12.8963026"><ele>721.1999999999999</ele><time>2026-04-18T08:28:25.012Z</time></trkpt><trkpt lat="43.3872277" lon="12.8962105"><ele>721.4</ele><time>2026-04-18T08:28:26.994Z</time></trkpt><trkpt lat="43.3872895" lon="12.8961288"><ele>721.6</ele><time>2026-04-18T08:28:28.003Z</time></trkpt><trkpt lat="43.3873468" lon="12.896045"><ele>721.8</ele><time>2026-04-18T08:28:28.996Z</time></trkpt><trkpt lat="43.3873904" lon="12.8959577"><ele>722.0</ele><time>2026-04-18T08:28:30.004Z</time></trkpt><trkpt lat="43.3874248" lon="12.8958607"><ele>724.6666666666666</ele><time>2026-04-18T08:28:31.002Z</time></trkpt><trkpt lat="43.3874529" lon="12.8957613"><ele>727.3333333333333</ele><time>2026-04-18T08:28:32.014Z</time></trkpt><trkpt lat="43.3874705" lon="12.895632"><ele>730.0</ele><time>2026-04-18T08:28:34.007Z</time></trkpt><trkpt lat="43.38741" lon="12.8955705"><ele>732.6666666666666</ele><time>2026-04-18T08:28:36.016Z</time></trkpt><trkpt lat="43.3873289" lon="12.8955686"><ele>735.3333333333334</ele><time>2026-04-18T08:28:38.007Z</time></trkpt><trkpt lat="43.387257" lon="12.8955977"><ele>738.0</ele><time>2026-04-18T08:28:41.007Z</time></trkpt><trkpt lat="43.387169" lon="12.8955945"><ele>740.0</ele><time>2026-04-18T08:31:44.994Z</time></trkpt><trkpt lat="43.3870687" lon="12.8955973"><ele>742.0</ele><time>2026-04-18T08:31:47.002Z</time></trkpt><trkpt lat="43.3869552" lon="12.8955854"><ele>744.0</ele><time>2026-04-18T08:31:48.991Z</time></trkpt><trkpt lat="43.3868923" lon="12.8955803"><ele>746.0</ele><time>2026-04-18T08:31:50.009Z</time></trkpt><trkpt lat="43.3867592" lon="12.8955515"><ele>748.0</ele><time>2026-04-18T08:31:51.996Z</time></trkpt><trkpt lat="43.3866785" lon="12.8955303"><ele>748.0</ele><time>2026-04-18T08:31:53.004Z</time></trkpt><trkpt lat="43.3866057" lon="12.895518"><ele>748.0</ele><time>2026-04-18T08:31:54.003Z</time></trkpt><trkpt lat="43.3865401" lon="12.8955077"><ele>748.0</ele><time>2026-04-18T08:31:55.013Z</time></trkpt><trkpt lat="43.3864588" lon="12.8954326"><ele>748.0</ele><time>2026-04-18T08:31:57.008Z</time></trkpt><trkpt lat="43.3864696" lon="12.8953209"><ele>748.0</ele><time>2026-04-18T08:31:59.999Z</time></trkpt><trkpt lat="43.3865333" lon="12.89521"><ele>748.0</ele><time>2026-04-18T08:32:02.002Z</time></trkpt><trkpt lat="43.3865809" lon="12.895137"><ele>751.8333333333334</ele><time>2026-04-18T08:32:03.001Z</time></trkpt><trkpt lat="43.3866248" lon="12.8950617"><ele>755.6666666666667</ele><time>2026-04-18T08:32:04.01Z</time></trkpt><trkpt lat="43.3866704" lon="12.8949841"><ele>759.5</ele><time>2026-04-18T08:32:05.004Z</time></trkpt><trkpt lat="43.386711" lon="12.8949128"><ele>763.3333333333334</ele><time>2026-04-18T08:32:06.004Z</time></trkpt><trkpt lat="43.3867961" lon="12.8947929"><ele>767.1666666666666</ele><time>2026-04-18T08:32:08.012Z</time></trkpt><trkpt lat="43.3868419" lon="12.8946762"><ele>771.0</ele><time>2026-04-18T08:32:10.029Z</time></trkpt><trkpt lat="43.3868086" lon="12.8945877"><ele>771.0</ele><time>2026-04-18T08:32:13.998Z</time></trkpt><trkpt lat="43.3867336" lon="12.8945662"><ele>771.0</ele><time>2026-04-18T08:32:19.01Z</time></trkpt><trkpt lat="43.3866657" lon="12.8945917"><ele>771.0</ele><time>2026-04-18T08:32:21.002Z</time></trkpt><trkpt lat="43.386595" lon="12.8946095"><ele>771.0</ele><time>2026-04-18T08:32:22.009Z</time></trkpt><trkpt lat="43.386502" lon="12.894634"><ele>771.0</ele><time>2026-04-18T08:32:23.009Z</time></trkpt><trkpt lat="43.3864103" lon="12.8946557"><ele>771.0</ele><time>2026-04-18T08:32:23.999Z</time></trkpt><trkpt lat="43.386317" lon="12.894685"><ele>771.0</ele><time>2026-04-18T08:32:25.016Z</time></trkpt><trkpt lat="43.3862269" lon="12.8947154"><ele>771.0</ele><time>2026-04-18T08:32:26.012Z</time></trkpt><trkpt lat="43.3861417" lon="12.8947284"><ele>771.0</ele><time>2026-04-18T08:32:27.001Z</time></trkpt><trkpt lat="43.3860705" lon="12.8947435"><ele>771.0</ele><time>2026-04-18T08:32:28.018Z</time></trkpt><trkpt lat="43.3859928" lon="12.8947536"><ele>771.0</ele><time>2026-04-18T08:32:28.993Z</time></trkpt><trkpt lat="43.3859173" lon="12.894777"><ele>771.0</ele><time>2026-04-18T08:32:30.001Z</time></trkpt><trkpt lat="43.385847" lon="12.8947978"><ele>771.0</ele><time>2026-04-18T08:32:31.012Z</time></trkpt><trkpt lat="43.3857782" lon="12.8948079"><ele>771.0</ele><time>2026-04-18T08:32:31.999Z</time></trkpt><trkpt lat="43.3856555" lon="12.8948291"><ele>771.0</ele><time>2026-04-18T08:32:33.995Z</time></trkpt><trkpt lat="43.3855571" lon="12.8948523"><ele>771.0</ele><time>2026-04-18T08:32:36.003Z</time></trkpt><trkpt lat="43.3854687" lon="12.8948813"><ele>771.0</ele><time>2026-04-18T08:32:37.996Z</time></trkpt><trkpt lat="43.3853959" lon="12.8949228"><ele>770.8333333333334</ele><time>2026-04-18T08:32:38.997Z</time></trkpt><trkpt lat="43.3853291" lon="12.8949631"><ele>770.6666666666667</ele><time>2026-04-18T08:32:40.001Z</time></trkpt><trkpt lat="43.3852695" lon="12.8949991"><ele>770.5</ele><time>2026-04-18T08:32:41Z</time></trkpt><trkpt lat="43.3851588" lon="12.8950363"><ele>770.3333333333334</ele><time>2026-04-18T08:32:42.998Z</time></trkpt><trkpt lat="43.385076" lon="12.8950299"><ele>770.1666666666667</ele><time>2026-04-18T08:32:45Z</time></trkpt><trkpt lat="43.3850006" lon="12.8950203"><ele>770.0</ele><time>2026-04-18T08:32:48.004Z</time></trkpt><trkpt lat="43.3849659" lon="12.8951021"><ele>770.0</ele><time>2026-04-18T08:32:51.006Z</time></trkpt><trkpt lat="43.3850541" lon="12.8951105"><ele>770.0</ele><time>2026-04-18T08:32:54.998Z</time></trkpt><trkpt lat="43.3851309" lon="12.895053"><ele>770.0</ele><time>2026-04-18T08:32:57.001Z</time></trkpt><trkpt lat="43.3852372" lon="12.8950225"><ele>770.0</ele><time>2026-04-18T08:32:59Z</time></trkpt><trkpt lat="43.3853473" lon="12.8949399"><ele>770.0</ele><time>2026-04-18T08:33:01.008Z</time></trkpt><trkpt lat="43.3854618" lon="12.8948751"><ele>770.1666666666667</ele><time>2026-04-18T08:33:02.999Z</time></trkpt><trkpt lat="43.3855858" lon="12.894843"><ele>770.3333333333334</ele><time>2026-04-18T08:33:04.999Z</time></trkpt><trkpt lat="43.3856483" lon="12.8948318"><ele>770.5</ele><time>2026-04-18T08:33:05.997Z</time></trkpt><trkpt lat="43.3857112" lon="12.8948216"><ele>770.6666666666667</ele><time>2026-04-18T08:33:06.993Z</time></trkpt><trkpt lat="43.3857879" lon="12.8948104"><ele>770.8333333333334</ele><time>2026-04-18T08:33:08.013Z</time></trkpt><trkpt lat="43.3858611" lon="12.8947936"><ele>771.0</ele><time>2026-04-18T08:33:08.998Z</time></trkpt><trkpt lat="43.3859377" lon="12.8947765"><ele>771.0</ele><time>2026-04-18T08:33:10.005Z</time></trkpt><trkpt lat="43.3860022" lon="12.8947574"><ele>771.0</ele><time>2026-04-18T08:33:10.995Z</time></trkpt><trkpt lat="43.3861149" lon="12.8947309"><ele>771.0</ele><time>2026-04-18T08:33:13Z</time></trkpt><trkpt lat="43.3861825" lon="12.8947096"><ele>771.0</ele><time>2026-04-18T08:33:14.004Z</time></trkpt><trkpt lat="43.3862462" lon="12.8946872"><ele>771.0</ele><time>2026-04-18T08:33:15.011Z</time></trkpt><trkpt lat="43.3863155" lon="12.8946653"><ele>771.0</ele><time>2026-04-18T08:33:16.004Z</time></trkpt><trkpt lat="43.3863807" lon="12.8946469"><ele>771.0</ele><time>2026-04-18T08:33:16.996Z</time></trkpt><trkpt lat="43.3864463" lon="12.8946323"><ele>771.0</ele><time>2026-04-18T08:33:17.998Z</time></trkpt><trkpt lat="43.3865168" lon="12.8946146"><ele>771.0</ele><time>2026-04-18T08:33:19Z</time></trkpt><trkpt lat="43.3865803" lon="12.8945978"><ele>771.0</ele><time>2026-04-18T08:33:20.002Z</time></trkpt><trkpt lat="43.3866452" lon="12.8945769"><ele>771.0</ele><time>2026-04-18T08:33:20.995Z</time></trkpt><trkpt lat="43.3867556" lon="12.8945383"><ele>771.0</ele><time>2026-04-18T08:33:23.005Z</time></trkpt><trkpt lat="43.3868361" lon="12.8945245"><ele>771.0</ele><time>2026-04-18T08:33:25.001Z</time></trkpt><trkpt lat="43.3869103" lon="12.8944646"><ele>771.0</ele><time>2026-04-18T08:33:29.996Z</time></trkpt><trkpt lat="43.3869696" lon="12.8943831"><ele>771.0</ele><time>2026-04-18T08:33:32.01Z</time></trkpt><trkpt lat="43.3870377" lon="12.894224"><ele>771.0</ele><time>2026-04-18T08:33:34.027Z</time></trkpt><trkpt lat="43.387103" lon="12.8941336"><ele>771.0</ele><time>2026-04-18T08:33:36.007Z</time></trkpt><trkpt lat="43.3871791" lon="12.894115"><ele>769.4</ele><time>2026-04-18T08:33:38.004Z</time></trkpt><trkpt lat="43.3872315" lon="12.8940192"><ele>767.8</ele><time>2026-04-18T08:33:40.997Z</time></trkpt><trkpt lat="43.3872273" lon="12.8939229"><ele>766.1999999999999</ele><time>2026-04-18T08:33:43Z</time></trkpt><trkpt lat="43.3872142" lon="12.8938164"><ele>764.5999999999999</ele><time>2026-04-18T08:33:44.997Z</time></trkpt><trkpt lat="43.3872109" lon="12.893656"><ele>763.0</ele><time>2026-04-18T08:33:47Z</time></trkpt><trkpt lat="43.3872065" lon="12.8934845"><ele>763.1666666666667</ele><time>2026-04-18T08:33:49.002Z</time></trkpt><trkpt lat="43.3872116" lon="12.893393"><ele>763.3333333333334</ele><time>2026-04-18T08:33:50.002Z</time></trkpt><trkpt lat="43.3872186" lon="12.8932968"><ele>763.5</ele><time>2026-04-18T08:33:51.001Z</time></trkpt><trkpt lat="43.3872286" lon="12.8932019"><ele>763.6666666666666</ele><time>2026-04-18T08:33:51.993Z</time></trkpt><trkpt lat="43.3872365" lon="12.8931115"><ele>763.8333333333333</ele><time>2026-04-18T08:33:52.997Z</time></trkpt><trkpt lat="43.3872454" lon="12.892938"><ele>764.0</ele><time>2026-04-18T08:33:54.992Z</time></trkpt><trkpt lat="43.3872592" lon="12.8928498"><ele>764.0</ele><time>2026-04-18T08:33:56Z</time></trkpt><trkpt lat="43.3872681" lon="12.8927462"><ele>764.0</ele><time>2026-04-18T08:33:57.002Z</time></trkpt><trkpt lat="43.3872672" lon="12.8926373"><ele>764.0</ele><time>2026-04-18T08:33:58.008Z</time></trkpt><trkpt lat="43.3872682" lon="12.89253"><ele>764.0</ele><time>2026-04-18T08:33:59.009Z</time></trkpt><trkpt lat="43.3872753" lon="12.8924218"><ele>764.0</ele><time>2026-04-18T08:33:59.999Z</time></trkpt><trkpt lat="43.387282" lon="12.8923035"><ele>764.0</ele><time>2026-04-18T08:34:00.995Z</time></trkpt><trkpt lat="43.387293" lon="12.892195"><ele>762.8333333333333</ele><time>2026-04-18T08:34:02.005Z</time></trkpt><trkpt lat="43.3873007" lon="12.8920907"><ele>761.6666666666666</ele><time>2026-04-18T08:34:03.006Z</time></trkpt><trkpt lat="43.3873004" lon="12.8919745"><ele>760.5</ele><time>2026-04-18T08:34:04.008Z</time></trkpt><trkpt lat="43.3873072" lon="12.8918685"><ele>759.3333333333334</ele><time>2026-04-18T08:34:04.997Z</time></trkpt><trkpt lat="43.387311" lon="12.8917736"><ele>758.1666666666667</ele><time>2026-04-18T08:34:06.012Z</time></trkpt><trkpt lat="43.3873264" lon="12.891656"><ele>757.0</ele><time>2026-04-18T08:34:08.008Z</time></trkpt><trkpt lat="43.3873366" lon="12.8915412"><ele>755.5</ele><time>2026-04-18T08:34:11Z</time></trkpt><trkpt lat="43.3873444" lon="12.8914287"><ele>754.0</ele><time>2026-04-18T08:34:14.004Z</time></trkpt><trkpt lat="43.3873401" lon="12.8913317"><ele>752.5</ele><time>2026-04-18T08:34:16.003Z</time></trkpt><trkpt lat="43.3874015" lon="12.8912495"><ele>751.0</ele><time>2026-04-18T08:34:18.991Z</time></trkpt><trkpt lat="43.3874671" lon="12.8912429"><ele>749.5</ele><time>2026-04-18T08:34:23.001Z</time></trkpt><trkpt lat="43.3875206" lon="12.8911813"><ele>748.0</ele><time>2026-04-18T08:34:26.009Z</time></trkpt><trkpt lat="43.3875668" lon="12.8910717"><ele>748.0</ele><time>2026-04-18T08:34:29.003Z</time></trkpt><trkpt lat="43.3876051" lon="12.8909815"><ele>748.0</ele><time>2026-04-18T08:34:30.998Z</time></trkpt><trkpt lat="43.3876309" lon="12.8908941"><ele>748.0</ele><time>2026-04-18T08:34:33.001Z</time></trkpt><trkpt lat="43.3876772" lon="12.8908042"><ele>748.0</ele><time>2026-04-18T08:34:36.006Z</time></trkpt><trkpt lat="43.3877112" lon="12.8907262"><ele>748.0</ele><time>2026-04-18T08:34:38.003Z</time></trkpt><trkpt lat="43.3877715" lon="12.8906546"><ele>748.0</ele><time>2026-04-18T08:34:40.003Z</time></trkpt><trkpt lat="43.3878566" lon="12.8905795"><ele>745.3333333333334</ele><time>2026-04-18T08:34:42.002Z</time></trkpt><trkpt lat="43.3879338" lon="12.8905187"><ele>742.6666666666667</ele><time>2026-04-18T08:34:44.005Z</time></trkpt><trkpt lat="43.3879988" lon="12.890482"><ele>740.0</ele><time>2026-04-18T08:34:46.996Z</time></trkpt><trkpt lat="43.3880837" lon="12.8904334"><ele>737.3333333333334</ele><time>2026-04-18T08:34:50.008Z</time></trkpt><trkpt lat="43.3881536" lon="12.8904194"><ele>734.6666666666666</ele><time>2026-04-18T08:34:52.011Z</time></trkpt><trkpt lat="43.3882425" lon="12.8904017"><ele>732.0</ele><time>2026-04-18T08:34:54.004Z</time></trkpt><trkpt lat="43.3883327" lon="12.8903718"><ele>732.0</ele><time>2026-04-18T08:34:56.009Z</time></trkpt><trkpt lat="43.3883929" lon="12.8903154"><ele>732.0</ele><time>2026-04-18T08:34:59.002Z</time></trkpt><trkpt lat="43.3884722" lon="12.8902639"><ele>732.0</ele><time>2026-04-18T08:35:01.002Z</time></trkpt><trkpt lat="43.3885409" lon="12.8902608"><ele>732.0</ele><time>2026-04-18T08:35:02.995Z</time></trkpt><trkpt lat="43.3886036" lon="12.8902321"><ele>732.0</ele><time>2026-04-18T08:35:04.998Z</time></trkpt><trkpt lat="43.3886766" lon="12.8902446"><ele>732.0</ele><time>2026-04-18T08:35:07.004Z</time></trkpt><trkpt lat="43.3887592" lon="12.8902603"><ele>732.0</ele><time>2026-04-18T08:35:09.008Z</time></trkpt><trkpt lat="43.3888233" lon="12.8902317"><ele>732.0</ele><time>2026-04-18T08:35:11.005Z</time></trkpt><trkpt lat="43.388875" lon="12.8901304"><ele>732.0</ele><time>2026-04-18T08:35:14.007Z</time></trkpt><trkpt lat="43.3888924" lon="12.8900289"><ele>732.0</ele><time>2026-04-18T08:35:16.01Z</time></trkpt><trkpt lat="43.3888274" lon="12.8899455"><ele>732.0</ele><time>2026-04-18T08:35:19.004Z</time></trkpt><trkpt lat="43.3887542" lon="12.8899152"><ele>732.0</ele><time>2026-04-18T08:35:21.006Z</time></trkpt><trkpt lat="43.3886724" lon="12.8898902"><ele>729.6666666666666</ele><time>2026-04-18T08:35:23.007Z</time></trkpt><trkpt lat="43.3885983" lon="12.8898401"><ele>727.3333333333334</ele><time>2026-04-18T08:35:24.999Z</time></trkpt><trkpt lat="43.3885369" lon="12.8897739"><ele>725.0</ele><time>2026-04-18T08:35:26.993Z</time></trkpt><trkpt lat="43.3884601" lon="12.8896764"><ele>722.6666666666667</ele><time>2026-04-18T08:35:28.992Z</time></trkpt><trkpt lat="43.3883897" lon="12.8895744"><ele>720.3333333333334</ele><time>2026-04-18T08:35:31.997Z</time></trkpt><trkpt lat="43.3883934" lon="12.8894651"><ele>718.0</ele><time>2026-04-18T08:35:34Z</time></trkpt><trkpt lat="43.388401" lon="12.8893258"><ele>714.3333333333334</ele><time>2026-04-18T08:35:35.998Z</time></trkpt><trkpt lat="43.3884171" lon="12.8892209"><ele>710.6666666666667</ele><time>2026-04-18T08:35:38.927Z</time></trkpt><trkpt lat="43.3884926" lon="12.8891482"><ele>707.0</ele><time>2026-04-18T08:35:42.005Z</time></trkpt><trkpt lat="43.3885442" lon="12.8890923"><ele>703.3333333333334</ele><time>2026-04-18T08:35:44.994Z</time></trkpt><trkpt lat="43.3886072" lon="12.889051"><ele>699.6666666666666</ele><time>2026-04-18T08:35:46.924Z</time></trkpt><trkpt lat="43.3886784" lon="12.8890051"><ele>696.0</ele><time>2026-04-18T08:35:50.001Z</time></trkpt><trkpt lat="43.388733" lon="12.8889547"><ele>696.0</ele><time>2026-04-18T08:35:51.998Z</time></trkpt><trkpt lat="43.3887799" lon="12.8888962"><ele>696.0</ele><time>2026-04-18T08:35:53.993Z</time></trkpt><trkpt lat="43.3888801" lon="12.8888871"><ele>696.0</ele><time>2026-04-18T08:35:57.051Z</time></trkpt><trkpt lat="43.3889718" lon="12.8888818"><ele>696.0</ele><time>2026-04-18T08:35:59.01Z</time></trkpt><trkpt lat="43.3890591" lon="12.8888758"><ele>696.0</ele><time>2026-04-18T08:36:02.007Z</time></trkpt><trkpt lat="43.3891126" lon="12.8887891"><ele>696.0</ele><time>2026-04-18T08:36:04.998Z</time></trkpt><trkpt lat="43.3891139" lon="12.8886891"><ele>695.1666666666666</ele><time>2026-04-18T08:36:08.017Z</time></trkpt><trkpt lat="43.3891586" lon="12.8885834"><ele>694.3333333333334</ele><time>2026-04-18T08:36:11.017Z</time></trkpt><trkpt lat="43.3891679" lon="12.8884959"><ele>693.5</ele><time>2026-04-18T08:36:13.003Z</time></trkpt><trkpt lat="43.3891638" lon="12.8883367"><ele>692.6666666666667</ele><time>2026-04-18T08:36:15.029Z</time></trkpt><trkpt lat="43.3891326" lon="12.8882295"><ele>691.8333333333334</ele><time>2026-04-18T08:36:18.009Z</time></trkpt><trkpt lat="43.3890869" lon="12.8881511"><ele>691.0</ele><time>2026-04-18T08:36:20.016Z</time></trkpt><trkpt lat="43.389071" lon="12.8880631"><ele>686.8</ele><time>2026-04-18T08:36:23.005Z</time></trkpt><trkpt lat="43.3891266" lon="12.8879846"><ele>682.5999999999999</ele><time>2026-04-18T08:36:25.011Z</time></trkpt><trkpt lat="43.3891861" lon="12.8878681"><ele>678.4</ele><time>2026-04-18T08:36:27.011Z</time></trkpt><trkpt lat="43.3891744" lon="12.8877492"><ele>674.2</ele><time>2026-04-18T08:36:30.026Z</time></trkpt><trkpt lat="43.3891335" lon="12.8876279"><ele>670.0</ele><time>2026-04-18T08:36:33Z</time></trkpt><trkpt lat="43.3890957" lon="12.8875272"><ele>666.8571428571428</ele><time>2026-04-18T08:36:36.025Z</time></trkpt><trkpt lat="43.3890628" lon="12.8874262"><ele>663.7142857142857</ele><time>2026-04-18T08:36:38.013Z</time></trkpt><trkpt lat="43.3890357" lon="12.8873245"><ele>660.5714285714286</ele><time>2026-04-18T08:36:39.995Z</time></trkpt><trkpt lat="43.3890119" lon="12.8872376"><ele>657.4285714285713</ele><time>2026-04-18T08:36:43.017Z</time></trkpt><trkpt lat="43.389019" lon="12.8871478"><ele>654.2857142857142</ele><time>2026-04-18T08:36:46.008Z</time></trkpt><trkpt lat="43.3890256" lon="12.8870266"><ele>651.1428571428571</ele><time>2026-04-18T08:36:49.013Z</time></trkpt><trkpt lat="43.3890721" lon="12.8869642"><ele>648.0</ele><time>2026-04-18T08:36:52.009Z</time></trkpt><trkpt lat="43.3891448" lon="12.8869764"><ele>648.0</ele><time>2026-04-18T08:36:54.993Z</time></trkpt><trkpt lat="43.3892041" lon="12.8869013"><ele>648.0</ele><time>2026-04-18T08:36:58.008Z</time></trkpt><trkpt lat="43.3892365" lon="12.8868078"><ele>648.0</ele><time>2026-04-18T08:37:01.011Z</time></trkpt><trkpt lat="43.3892967" lon="12.8867623"><ele>648.0</ele><time>2026-04-18T08:37:04.01Z</time></trkpt><trkpt lat="43.3893793" lon="12.8867375"><ele>648.0</ele><time>2026-04-18T08:37:06.023Z</time></trkpt><trkpt lat="43.3894455" lon="12.8867596"><ele>648.0</ele><time>2026-04-18T08:37:10.011Z</time></trkpt><trkpt lat="43.3895881" lon="12.8867573"><ele>648.0</ele><time>2026-04-18T08:39:00.011Z</time></trkpt><trkpt lat="43.3896631" lon="12.8867821"><ele>648.0</ele><time>2026-04-18T08:39:01.001Z</time></trkpt><trkpt lat="43.3897304" lon="12.8868043"><ele>648.0</ele><time>2026-04-18T08:39:01.999Z</time></trkpt><trkpt lat="43.3897906" lon="12.8868322"><ele>648.0</ele><time>2026-04-18T08:39:02.995Z</time></trkpt><trkpt lat="43.38989" lon="12.8868926"><ele>648.0</ele><time>2026-04-18T08:39:05.001Z</time></trkpt><trkpt lat="43.3899693" lon="12.8868745"><ele>648.0</ele><time>2026-04-18T08:39:06.996Z</time></trkpt><trkpt lat="43.3899841" lon="12.8867573"><ele>643.7142857142858</ele><time>2026-04-18T08:39:10.001Z</time></trkpt><trkpt lat="43.3899422" lon="12.8866859"><ele>639.4285714285714</ele><time>2026-04-18T08:39:10.996Z</time></trkpt><trkpt lat="43.389897" lon="12.886609"><ele>635.1428571428571</ele><time>2026-04-18T08:39:11.995Z</time></trkpt><trkpt lat="43.3898543" lon="12.8865348"><ele>630.8571428571429</ele><time>2026-04-18T08:39:12.986Z</time></trkpt><trkpt lat="43.3898149" lon="12.8864561"><ele>626.5714285714286</ele><time>2026-04-18T08:39:13.994Z</time></trkpt><trkpt lat="43.3897796" lon="12.8863783"><ele>622.2857142857143</ele><time>2026-04-18T08:39:14.997Z</time></trkpt><trkpt lat="43.3897471" lon="12.8862956"><ele>618.0</ele><time>2026-04-18T08:39:15.994Z</time></trkpt><trkpt lat="43.3897053" lon="12.8862104"><ele>619.4285714285714</ele><time>2026-04-18T08:39:16.993Z</time></trkpt><trkpt lat="43.3896598" lon="12.8861177"><ele>620.8571428571429</ele><time>2026-04-18T08:39:18.008Z</time></trkpt><trkpt lat="43.3896177" lon="12.8860328"><ele>622.2857142857142</ele><time>2026-04-18T08:39:18.99Z</time></trkpt><trkpt lat="43.3895744" lon="12.8859558"><ele>623.7142857142858</ele><time>2026-04-18T08:39:19.995Z</time></trkpt><trkpt lat="43.389527" lon="12.8858911"><ele>625.1428571428571</ele><time>2026-04-18T08:39:21Z</time></trkpt><trkpt lat="43.389472" lon="12.8858318"><ele>626.5714285714286</ele><time>2026-04-18T08:39:21.996Z</time></trkpt><trkpt lat="43.389413" lon="12.8857857"><ele>628.0</ele><time>2026-04-18T08:39:23.002Z</time></trkpt><trkpt lat="43.3893547" lon="12.8857487"><ele>624.5</ele><time>2026-04-18T08:39:24.006Z</time></trkpt><trkpt lat="43.3892883" lon="12.8857158"><ele>621.0</ele><time>2026-04-18T08:39:25.004Z</time></trkpt><trkpt lat="43.3892206" lon="12.8856852"><ele>617.5</ele><time>2026-04-18T08:39:25.999Z</time></trkpt><trkpt lat="43.3891498" lon="12.8856593"><ele>614.0</ele><time>2026-04-18T08:39:27.018Z</time></trkpt><trkpt lat="43.3890711" lon="12.8856451"><ele>610.5</ele><time>2026-04-18T08:39:27.997Z</time></trkpt><trkpt lat="43.3889834" lon="12.8856364"><ele>607.0</ele><time>2026-04-18T08:39:29.01Z</time></trkpt><trkpt lat="43.3888775" lon="12.8856069"><ele>607.0</ele><time>2026-04-18T08:39:31.007Z</time></trkpt><trkpt lat="43.388927" lon="12.8855215"><ele>607.0</ele><time>2026-04-18T08:39:33.996Z</time></trkpt><trkpt lat="43.3890221" lon="12.8854482"><ele>607.0</ele><time>2026-04-18T08:39:36.007Z</time></trkpt><trkpt lat="43.3890982" lon="12.8853938"><ele>607.0</ele><time>2026-04-18T08:39:37.003Z</time></trkpt><trkpt lat="43.3891691" lon="12.8853351"><ele>607.0</ele><time>2026-04-18T08:39:37.992Z</time></trkpt><trkpt lat="43.3892399" lon="12.8853023"><ele>607.0</ele><time>2026-04-18T08:39:38.997Z</time></trkpt><trkpt lat="43.3893047" lon="12.8852661"><ele>606.9999999999999</ele><time>2026-04-18T08:39:39.998Z</time></trkpt><trkpt lat="43.3893728" lon="12.8852369"><ele>607.0</ele><time>2026-04-18T08:39:40.999Z</time></trkpt><trkpt lat="43.3894443" lon="12.8852147"><ele>607.0</ele><time>2026-04-18T08:39:42.005Z</time></trkpt><trkpt lat="43.3895193" lon="12.8851961"><ele>607.0</ele><time>2026-04-18T08:39:42.996Z</time></trkpt><trkpt lat="43.3895917" lon="12.8851778"><ele>607.0</ele><time>2026-04-18T08:39:44.005Z</time></trkpt><trkpt lat="43.3896645" lon="12.8851816"><ele>606.9999999999999</ele><time>2026-04-18T08:39:44.998Z</time></trkpt><trkpt lat="43.3897325" lon="12.8851834"><ele>607.0</ele><time>2026-04-18T08:39:46.002Z</time></trkpt><trkpt lat="43.3898082" lon="12.8852106"><ele>605.6666666666667</ele><time>2026-04-18T08:39:47.006Z</time></trkpt><trkpt lat="43.3898886" lon="12.8852452"><ele>604.3333333333334</ele><time>2026-04-18T08:39:47.99Z</time></trkpt><trkpt lat="43.3899576" lon="12.8852875"><ele>603.0</ele><time>2026-04-18T08:39:48.99Z</time></trkpt><trkpt lat="43.3900352" lon="12.8852958"><ele>601.6666666666666</ele><time>2026-04-18T08:39:52.009Z</time></trkpt><trkpt lat="43.3900054" lon="12.8852124"><ele>600.3333333333333</ele><time>2026-04-18T08:39:54.006Z</time></trkpt><trkpt lat="43.3899753" lon="12.8851238"><ele>599.0</ele><time>2026-04-18T08:39:55.006Z</time></trkpt><trkpt lat="43.3899397" lon="12.8850216"><ele>596.6666666666666</ele><time>2026-04-18T08:39:56.02Z</time></trkpt><trkpt lat="43.3898994" lon="12.8849279"><ele>594.3333333333333</ele><time>2026-04-18T08:39:57.011Z</time></trkpt><trkpt lat="43.389846" lon="12.8848393"><ele>592.0</ele><time>2026-04-18T08:39:58.014Z</time></trkpt><trkpt lat="43.3897969" lon="12.8847544"><ele>589.6666666666666</ele><time>2026-04-18T08:39:58.992Z</time></trkpt><trkpt lat="43.3897499" lon="12.8846669"><ele>587.3333333333334</ele><time>2026-04-18T08:40:00.008Z</time></trkpt><trkpt lat="43.3897082" lon="12.8845896"><ele>585.0</ele><time>2026-04-18T08:40:01.002Z</time></trkpt><trkpt lat="43.3896649" lon="12.8845"><ele>585.0</ele><time>2026-04-18T08:40:02.004Z</time></trkpt><trkpt lat="43.3896158" lon="12.8844254"><ele>585.0</ele><time>2026-04-18T08:40:03.017Z</time></trkpt><trkpt lat="43.3895484" lon="12.8843569"><ele>585.0</ele><time>2026-04-18T08:40:04.018Z</time></trkpt><trkpt lat="43.389473" lon="12.884299"><ele>585.0</ele><time>2026-04-18T08:40:05.015Z</time></trkpt><trkpt lat="43.3894042" lon="12.8842515"><ele>585.0</ele><time>2026-04-18T08:40:06.005Z</time></trkpt><trkpt lat="43.3893425" lon="12.8842223"><ele>585.0</ele><time>2026-04-18T08:40:07.006Z</time></trkpt><trkpt lat="43.3892556" lon="12.884171"><ele>581.8333333333334</ele><time>2026-04-18T08:40:09.012Z</time></trkpt><trkpt lat="43.3892838" lon="12.8840702"><ele>578.6666666666666</ele><time>2026-04-18T08:40:10.991Z</time></trkpt><trkpt lat="43.3893792" lon="12.8839753"><ele>575.5</ele><time>2026-04-18T08:40:12.996Z</time></trkpt><trkpt lat="43.3894423" lon="12.8839256"><ele>572.3333333333333</ele><time>2026-04-18T08:40:14.002Z</time></trkpt><trkpt lat="43.3895043" lon="12.8838654"><ele>569.1666666666666</ele><time>2026-04-18T08:40:15.012Z</time></trkpt><trkpt lat="43.3895624" lon="12.8838063"><ele>566.0</ele><time>2026-04-18T08:40:16.024Z</time></trkpt><trkpt lat="43.3896656" lon="12.8837545"><ele>565.3333333333333</ele><time>2026-04-18T08:40:17.991Z</time></trkpt><trkpt lat="43.389731" lon="12.8837485"><ele>564.6666666666666</ele><time>2026-04-18T08:40:19.007Z</time></trkpt><trkpt lat="43.3898067" lon="12.8837654"><ele>564.0</ele><time>2026-04-18T08:40:19.994Z</time></trkpt><trkpt lat="43.3898804" lon="12.883808"><ele>563.3333333333334</ele><time>2026-04-18T08:40:20.998Z</time></trkpt><trkpt lat="43.3899505" lon="12.8838778"><ele>562.6666666666667</ele><time>2026-04-18T08:40:22.01Z</time></trkpt><trkpt lat="43.3900309" lon="12.8839478"><ele>562.0</ele><time>2026-04-18T08:40:24.005Z</time></trkpt><trkpt lat="43.3900361" lon="12.883843"><ele>562.0</ele><time>2026-04-18T08:40:27.999Z</time></trkpt><trkpt lat="43.3899733" lon="12.8837077"><ele>562.0</ele><time>2026-04-18T08:40:29.997Z</time></trkpt><trkpt lat="43.3899351" lon="12.883619"><ele>562.0</ele><time>2026-04-18T08:40:31Z</time></trkpt><trkpt lat="43.3898999" lon="12.8835277"><ele>562.0</ele><time>2026-04-18T08:40:32.001Z</time></trkpt><trkpt lat="43.3898583" lon="12.8834281"><ele>562.0</ele><time>2026-04-18T08:40:33.01Z</time></trkpt><trkpt lat="43.3898163" lon="12.8833282"><ele>562.0</ele><time>2026-04-18T08:40:34.02Z</time></trkpt><trkpt lat="43.3897696" lon="12.8832297"><ele>560.1666666666667</ele><time>2026-04-18T08:40:35.004Z</time></trkpt><trkpt lat="43.3897312" lon="12.8831306"><ele>558.3333333333334</ele><time>2026-04-18T08:40:36.011Z</time></trkpt><trkpt lat="43.3896886" lon="12.8830327"><ele>556.5</ele><time>2026-04-18T08:40:37.019Z</time></trkpt><trkpt lat="43.3896606" lon="12.8829367"><ele>554.6666666666666</ele><time>2026-04-18T08:40:38.017Z</time></trkpt><trkpt lat="43.389613" lon="12.8828557"><ele>552.8333333333333</ele><time>2026-04-18T08:40:39.011Z</time></trkpt><trkpt lat="43.3895634" lon="12.8827789"><ele>551.0</ele><time>2026-04-18T08:40:40.002Z</time></trkpt><trkpt lat="43.3895125" lon="12.8827139"><ele>550.9999999999999</ele><time>2026-04-18T08:40:41.011Z</time></trkpt><trkpt lat="43.3894628" lon="12.8826566"><ele>551.0</ele><time>2026-04-18T08:40:42.017Z</time></trkpt><trkpt lat="43.3894008" lon="12.882604"><ele>551.0</ele><time>2026-04-18T08:40:43.011Z</time></trkpt><trkpt lat="43.3893417" lon="12.8825532"><ele>551.0</ele><time>2026-04-18T08:40:43.995Z</time></trkpt><trkpt lat="43.3892782" lon="12.8825136"><ele>551.0</ele><time>2026-04-18T08:40:45.006Z</time></trkpt><trkpt lat="43.3892114" lon="12.8824911"><ele>550.9999999999999</ele><time>2026-04-18T08:40:46.004Z</time></trkpt><trkpt lat="43.3891358" lon="12.8824813"><ele>551.0</ele><time>2026-04-18T08:40:47.008Z</time></trkpt><trkpt lat="43.389059" lon="12.8824744"><ele>547.8333333333333</ele><time>2026-04-18T08:40:48.009Z</time></trkpt><trkpt lat="43.3889866" lon="12.8824755"><ele>544.6666666666666</ele><time>2026-04-18T08:40:49.002Z</time></trkpt><trkpt lat="43.3889219" lon="12.8824835"><ele>541.5</ele><time>2026-04-18T08:40:49.998Z</time></trkpt><trkpt lat="43.3888181" lon="12.8824788"><ele>538.3333333333334</ele><time>2026-04-18T08:40:52.006Z</time></trkpt><trkpt lat="43.3888336" lon="12.882366"><ele>535.1666666666667</ele><time>2026-04-18T08:40:55.004Z</time></trkpt><trkpt lat="43.38887" lon="12.8822953"><ele>532.0</ele><time>2026-04-18T08:40:55.99Z</time></trkpt><trkpt lat="43.3889214" lon="12.8822259"><ele>532.0</ele><time>2026-04-18T08:40:57.001Z</time></trkpt><trkpt lat="43.3889777" lon="12.8821599"><ele>532.0</ele><time>2026-04-18T08:40:57.999Z</time></trkpt><trkpt lat="43.3890379" lon="12.8820913"><ele>532.0</ele><time>2026-04-18T08:40:58.999Z</time></trkpt><trkpt lat="43.3890987" lon="12.882035"><ele>532.0</ele><time>2026-04-18T08:41:00.006Z</time></trkpt><trkpt lat="43.3891577" lon="12.8819795"><ele>532.0</ele><time>2026-04-18T08:41:01.025Z</time></trkpt><trkpt lat="43.389259" lon="12.8819396"><ele>532.0</ele><time>2026-04-18T08:41:03.019Z</time></trkpt><trkpt lat="43.3891701" lon="12.8818925"><ele>532.0</ele><time>2026-04-18T08:41:08.01Z</time></trkpt><trkpt lat="43.3890437" lon="12.8818746"><ele>532.0</ele><time>2026-04-18T08:41:10.007Z</time></trkpt><trkpt lat="43.3889668" lon="12.8818721"><ele>532.0</ele><time>2026-04-18T08:41:11.016Z</time></trkpt><trkpt lat="43.3889004" lon="12.8818599"><ele>532.0</ele><time>2026-04-18T08:41:12Z</time></trkpt><trkpt lat="43.3888333" lon="12.8818453"><ele>532.0</ele><time>2026-04-18T08:41:13.001Z</time></trkpt><trkpt lat="43.3887601" lon="12.8818463"><ele>532.0</ele><time>2026-04-18T08:41:14.005Z</time></trkpt><trkpt lat="43.3886828" lon="12.881849"><ele>530.3333333333334</ele><time>2026-04-18T08:41:14.998Z</time></trkpt><trkpt lat="43.3886009" lon="12.8818571"><ele>528.6666666666667</ele><time>2026-04-18T08:41:16.001Z</time></trkpt><trkpt lat="43.3885199" lon="12.8818633"><ele>527.0</ele><time>2026-04-18T08:41:17.014Z</time></trkpt><trkpt lat="43.388434" lon="12.8818717"><ele>525.3333333333334</ele><time>2026-04-18T08:41:18.001Z</time></trkpt><trkpt lat="43.3883479" lon="12.8818902"><ele>523.6666666666666</ele><time>2026-04-18T08:41:19.009Z</time></trkpt><trkpt lat="43.3882571" lon="12.8819182"><ele>522.0</ele><time>2026-04-18T08:41:20.005Z</time></trkpt><trkpt lat="43.3881719" lon="12.8819545"><ele>522.0</ele><time>2026-04-18T08:41:21.005Z</time></trkpt><trkpt lat="43.3880999" lon="12.8820114"><ele>522.0</ele><time>2026-04-18T08:41:22.001Z</time></trkpt><trkpt lat="43.3880153" lon="12.8820803"><ele>522.0</ele><time>2026-04-18T08:41:22.991Z</time></trkpt><trkpt lat="43.3879323" lon="12.8821555"><ele>522.0</ele><time>2026-04-18T08:41:23.989Z</time></trkpt><trkpt lat="43.3878594" lon="12.8822259"><ele>522.0</ele><time>2026-04-18T08:41:24.991Z</time></trkpt><trkpt lat="43.3877985" lon="12.8822769"><ele>522.0</ele><time>2026-04-18T08:41:25.999Z</time></trkpt><trkpt lat="43.387723" lon="12.8823253"><ele>522.0</ele><time>2026-04-18T08:41:27.993Z</time></trkpt><trkpt lat="43.3877918" lon="12.8823199"><ele>522.0</ele><time>2026-04-18T08:41:51.998Z</time></trkpt><trkpt lat="43.3878812" lon="12.8822327"><ele>522.0</ele><time>2026-04-18T08:41:54.021Z</time></trkpt><trkpt lat="43.387979" lon="12.8821404"><ele>522.0</ele><time>2026-04-18T08:41:55.993Z</time></trkpt><trkpt lat="43.388035" lon="12.8820887"><ele>522.0</ele><time>2026-04-18T08:41:57.01Z</time></trkpt><trkpt lat="43.3881294" lon="12.8820106"><ele>522.0</ele><time>2026-04-18T08:41:58.998Z</time></trkpt><trkpt lat="43.3881925" lon="12.8819785"><ele>522.0</ele><time>2026-04-18T08:42:01.994Z</time></trkpt><trkpt lat="43.3882472" lon="12.8819322"><ele>522.0</ele><time>2026-04-18T08:42:07.019Z</time></trkpt><trkpt lat="43.3883549" lon="12.8818912"><ele>522.0</ele><time>2026-04-18T08:42:34.01Z</time></trkpt><trkpt lat="43.3884599" lon="12.881882"><ele>522.0</ele><time>2026-04-18T08:42:36.017Z</time></trkpt><trkpt lat="43.3885917" lon="12.8818667"><ele>522.0</ele><time>2026-04-18T08:42:38.013Z</time></trkpt><trkpt lat="43.388661" lon="12.8818657"><ele>522.0</ele><time>2026-04-18T08:42:39.005Z</time></trkpt><trkpt lat="43.3887372" lon="12.8818664"><ele>522.0</ele><time>2026-04-18T08:42:40.008Z</time></trkpt><trkpt lat="43.3888122" lon="12.881872"><ele>522.0</ele><time>2026-04-18T08:42:40.995Z</time></trkpt><trkpt lat="43.3889002" lon="12.881883"><ele>522.0</ele><time>2026-04-18T08:42:42.009Z</time></trkpt><trkpt lat="43.3889915" lon="12.8819089"><ele>522.0</ele><time>2026-04-18T08:42:43Z</time></trkpt><trkpt lat="43.3890789" lon="12.8819182"><ele>523.6666666666666</ele><time>2026-04-18T08:42:44.009Z</time></trkpt><trkpt lat="43.3891597" lon="12.8819238"><ele>525.3333333333334</ele><time>2026-04-18T08:42:45.004Z</time></trkpt><trkpt lat="43.3892299" lon="12.881928"><ele>527.0</ele><time>2026-04-18T08:42:46.007Z</time></trkpt><trkpt lat="43.3892933" lon="12.8819359"><ele>528.6666666666667</ele><time>2026-04-18T08:42:48.002Z</time></trkpt><trkpt lat="43.3893906" lon="12.8819316"><ele>530.3333333333334</ele><time>2026-04-18T08:42:53.003Z</time></trkpt><trkpt lat="43.3895017" lon="12.8820201"><ele>532.0</ele><time>2026-04-18T08:42:54.996Z</time></trkpt><trkpt lat="43.389572" lon="12.8820571"><ele>532.0</ele><time>2026-04-18T08:42:56.002Z</time></trkpt><trkpt lat="43.3896373" lon="12.8820887"><ele>532.0</ele><time>2026-04-18T08:42:56.998Z</time></trkpt><trkpt lat="43.3896993" lon="12.8821206"><ele>532.0</ele><time>2026-04-18T08:42:57.999Z</time></trkpt><trkpt lat="43.3898119" lon="12.8821679"><ele>532.0</ele><time>2026-04-18T08:43:00Z</time></trkpt><trkpt lat="43.3899263" lon="12.8822181"><ele>532.0</ele><time>2026-04-18T08:43:02.001Z</time></trkpt><trkpt lat="43.3899896" lon="12.8822616"><ele>532.0</ele><time>2026-04-18T08:43:02.998Z</time></trkpt><trkpt lat="43.3900586" lon="12.8823144"><ele>533.8333333333334</ele><time>2026-04-18T08:43:03.997Z</time></trkpt><trkpt lat="43.3901347" lon="12.8823706"><ele>535.6666666666667</ele><time>2026-04-18T08:43:04.99Z</time></trkpt><trkpt lat="43.3902132" lon="12.8824393"><ele>537.5</ele><time>2026-04-18T08:43:06.006Z</time></trkpt><trkpt lat="43.3902879" lon="12.8824983"><ele>539.3333333333334</ele><time>2026-04-18T08:43:07Z</time></trkpt><trkpt lat="43.3903583" lon="12.8825645"><ele>541.1666666666666</ele><time>2026-04-18T08:43:08.009Z</time></trkpt><trkpt lat="43.3904314" lon="12.8826319"><ele>543.0</ele><time>2026-04-18T08:43:08.99Z</time></trkpt><trkpt lat="43.3904967" lon="12.882706"><ele>537.5</ele><time>2026-04-18T08:43:10.008Z</time></trkpt><trkpt lat="43.3905666" lon="12.8827949"><ele>532.0</ele><time>2026-04-18T08:43:10.995Z</time></trkpt><trkpt lat="43.3906397" lon="12.8828681"><ele>526.5</ele><time>2026-04-18T08:43:11.993Z</time></trkpt><trkpt lat="43.3907139" lon="12.8829299"><ele>521.0</ele><time>2026-04-18T08:43:12.998Z</time></trkpt><trkpt lat="43.390782" lon="12.8829983"><ele>515.5</ele><time>2026-04-18T08:43:14.005Z</time></trkpt><trkpt lat="43.390851" lon="12.8830754"><ele>510.0</ele><time>2026-04-18T08:43:15.001Z</time></trkpt><trkpt lat="43.3909263" lon="12.8831486"><ele>510.0</ele><time>2026-04-18T08:43:15.995Z</time></trkpt><trkpt lat="43.3910036" lon="12.8832148"><ele>510.0</ele><time>2026-04-18T08:43:16.996Z</time></trkpt><trkpt lat="43.3910879" lon="12.8832848"><ele>510.0</ele><time>2026-04-18T08:43:17.994Z</time></trkpt><trkpt lat="43.3911672" lon="12.8833512"><ele>510.0</ele><time>2026-04-18T08:43:19Z</time></trkpt><trkpt lat="43.3912412" lon="12.8834292"><ele>510.0</ele><time>2026-04-18T08:43:20.002Z</time></trkpt><trkpt lat="43.3913151" lon="12.8834996"><ele>506.5</ele><time>2026-04-18T08:43:21Z</time></trkpt><trkpt lat="43.3913826" lon="12.8835655"><ele>503.0</ele><time>2026-04-18T08:43:21.994Z</time></trkpt><trkpt lat="43.3914547" lon="12.8836322"><ele>499.5</ele><time>2026-04-18T08:43:23.002Z</time></trkpt><trkpt lat="43.3915211" lon="12.8837044"><ele>496.0</ele><time>2026-04-18T08:43:23.998Z</time></trkpt><trkpt lat="43.3915819" lon="12.8837825"><ele>492.5</ele><time>2026-04-18T08:43:24.999Z</time></trkpt><trkpt lat="43.3916454" lon="12.8838595"><ele>489.0</ele><time>2026-04-18T08:43:26.002Z</time></trkpt><trkpt lat="43.3916979" lon="12.8839523"><ele>489.0</ele><time>2026-04-18T08:43:27.006Z</time></trkpt><trkpt lat="43.3917393" lon="12.884054"><ele>489.0</ele><time>2026-04-18T08:43:28.001Z</time></trkpt><trkpt lat="43.3917875" lon="12.8841655"><ele>489.0</ele><time>2026-04-18T08:43:28.995Z</time></trkpt><trkpt lat="43.3918531" lon="12.8842877"><ele>489.0</ele><time>2026-04-18T08:43:29.996Z</time></trkpt><trkpt lat="43.3919204" lon="12.8844021"><ele>489.0</ele><time>2026-04-18T08:43:30.996Z</time></trkpt><trkpt lat="43.3919891" lon="12.8845039"><ele>492.1666666666667</ele><time>2026-04-18T08:43:32.001Z</time></trkpt><trkpt lat="43.3920561" lon="12.8845947"><ele>495.33333333333337</ele><time>2026-04-18T08:43:32.995Z</time></trkpt><trkpt lat="43.3921314" lon="12.8846799"><ele>498.5</ele><time>2026-04-18T08:43:33.999Z</time></trkpt><trkpt lat="43.3922019" lon="12.8847595"><ele>501.6666666666667</ele><time>2026-04-18T08:43:34.999Z</time></trkpt><trkpt lat="43.3922614" lon="12.8848349"><ele>504.83333333333337</ele><time>2026-04-18T08:43:35.991Z</time></trkpt><trkpt lat="43.3923191" lon="12.884922"><ele>508.0</ele><time>2026-04-18T08:43:36.992Z</time></trkpt><trkpt lat="43.3923699" lon="12.8850107"><ele>502.79999999999995</ele><time>2026-04-18T08:43:37.999Z</time></trkpt><trkpt lat="43.3924232" lon="12.8851086"><ele>497.59999999999997</ele><time>2026-04-18T08:43:39.001Z</time></trkpt><trkpt lat="43.3924774" lon="12.8852053"><ele>492.40000000000003</ele><time>2026-04-18T08:43:39.998Z</time></trkpt><trkpt lat="43.3925334" lon="12.8853052"><ele>487.20000000000005</ele><time>2026-04-18T08:43:40.998Z</time></trkpt><trkpt lat="43.3925849" lon="12.8854129"><ele>482.0</ele><time>2026-04-18T08:43:42.008Z</time></trkpt><trkpt lat="43.3926301" lon="12.885518"><ele>482.0</ele><time>2026-04-18T08:43:43.005Z</time></trkpt><trkpt lat="43.3926842" lon="12.8856349"><ele>482.00000000000006</ele><time>2026-04-18T08:43:44Z</time></trkpt><trkpt lat="43.392742" lon="12.8857602"><ele>482.00000000000006</ele><time>2026-04-18T08:43:45.003Z</time></trkpt><trkpt lat="43.3928052" lon="12.885877"><ele>482.0</ele><time>2026-04-18T08:43:45.999Z</time></trkpt><trkpt lat="43.3928594" lon="12.8859834"><ele>482.0</ele><time>2026-04-18T08:43:46.991Z</time></trkpt><trkpt lat="43.3929074" lon="12.8860882"><ele>484.3333333333333</ele><time>2026-04-18T08:43:48.004Z</time></trkpt><trkpt lat="43.3929596" lon="12.8861851"><ele>486.66666666666663</ele><time>2026-04-18T08:43:49Z</time></trkpt><trkpt lat="43.3930078" lon="12.8862715"><ele>489.0</ele><time>2026-04-18T08:43:49.993Z</time></trkpt><trkpt lat="43.3930534" lon="12.8863432"><ele>491.33333333333337</ele><time>2026-04-18T08:43:50.992Z</time></trkpt><trkpt lat="43.3931173" lon="12.886454"><ele>493.6666666666667</ele><time>2026-04-18T08:43:52.995Z</time></trkpt><trkpt lat="43.3931402" lon="12.8865425"><ele>496.0</ele><time>2026-04-18T08:43:55.998Z</time></trkpt><trkpt lat="43.3931995" lon="12.8866445"><ele>491.8</ele><time>2026-04-18T08:44:01.996Z</time></trkpt><trkpt lat="43.3932835" lon="12.8867866"><ele>487.6</ele><time>2026-04-18T08:44:04.003Z</time></trkpt><trkpt lat="43.3933378" lon="12.8868763"><ele>483.4</ele><time>2026-04-18T08:44:04.993Z</time></trkpt><trkpt lat="43.3933919" lon="12.8869688"><ele>479.2</ele><time>2026-04-18T08:44:05.999Z</time></trkpt><trkpt lat="43.393448" lon="12.8870586"><ele>475.0</ele><time>2026-04-18T08:44:06.993Z</time></trkpt><trkpt lat="43.3935016" lon="12.8871513"><ele>475.0</ele><time>2026-04-18T08:44:08.001Z</time></trkpt><trkpt lat="43.3935609" lon="12.8872406"><ele>475.0</ele><time>2026-04-18T08:44:08.994Z</time></trkpt><trkpt lat="43.3936342" lon="12.8873293"><ele>475.0</ele><time>2026-04-18T08:44:10Z</time></trkpt><trkpt lat="43.3937044" lon="12.887421"><ele>475.0</ele><time>2026-04-18T08:44:10.991Z</time></trkpt><trkpt lat="43.3937663" lon="12.8875051"><ele>475.0</ele><time>2026-04-18T08:44:12.002Z</time></trkpt><trkpt lat="43.3938537" lon="12.8875929"><ele>470.00000000000006</ele><time>2026-04-18T08:44:14.015Z</time></trkpt><trkpt lat="43.3939125" lon="12.8876464"><ele>465.0</ele><time>2026-04-18T08:44:15.999Z</time></trkpt><trkpt lat="43.3939719" lon="12.8877032"><ele>460.0</ele><time>2026-04-18T08:44:19.007Z</time></trkpt><trkpt lat="43.3940342" lon="12.8878028"><ele>455.0</ele><time>2026-04-18T08:44:22.002Z</time></trkpt><trkpt lat="43.3941033" lon="12.8878914"><ele>450.00000000000006</ele><time>2026-04-18T08:44:24.025Z</time></trkpt><trkpt lat="43.3941778" lon="12.8879705"><ele>445.0</ele><time>2026-04-18T08:44:26.007Z</time></trkpt><trkpt lat="43.3942778" lon="12.8880333"><ele>445.00000000000006</ele><time>2026-04-18T08:44:28.004Z</time></trkpt><trkpt lat="43.3943422" lon="12.8880748"><ele>445.0</ele><time>2026-04-18T08:44:29.002Z</time></trkpt><trkpt lat="43.3944438" lon="12.8881561"><ele>445.0</ele><time>2026-04-18T08:44:31.02Z</time></trkpt><trkpt lat="43.3945089" lon="12.8882432"><ele>445.0</ele><time>2026-04-18T08:44:33.001Z</time></trkpt><trkpt lat="43.3945019" lon="12.8883303"><ele>445.00000000000006</ele><time>2026-04-18T08:44:51.997Z</time></trkpt><trkpt lat="43.3945241" lon="12.888418"><ele>445.0</ele><time>2026-04-18T08:45:03.016Z</time></trkpt><trkpt lat="43.3945038" lon="12.8883254"><ele>445.0</ele><time>2026-04-18T08:45:36.999Z</time></trkpt><trkpt lat="43.3944566" lon="12.8882619"><ele>445.0</ele><time>2026-04-18T08:45:55.997Z</time></trkpt><trkpt lat="43.3943905" lon="12.888175"><ele>445.0</ele><time>2026-04-18T08:45:58.994Z</time></trkpt><trkpt lat="43.3943293" lon="12.8881212"><ele>445.0</ele><time>2026-04-18T08:46:01.008Z</time></trkpt><trkpt lat="43.3942295" lon="12.8880459"><ele>445.0</ele><time>2026-04-18T08:46:03.013Z</time></trkpt><trkpt lat="43.3941348" lon="12.887966"><ele>445.0</ele><time>2026-04-18T08:46:04.996Z</time></trkpt><trkpt lat="43.3940444" lon="12.8878839"><ele>445.0</ele><time>2026-04-18T08:46:07.001Z</time></trkpt><trkpt lat="43.3939873" lon="12.8878033"><ele>445.0</ele><time>2026-04-18T08:46:09Z</time></trkpt><trkpt lat="43.3939309" lon="12.8877216"><ele>445.0</ele><time>2026-04-18T08:46:11.006Z</time></trkpt><trkpt lat="43.3938721" lon="12.8876323"><ele>445.0</ele><time>2026-04-18T08:46:14.008Z</time></trkpt><trkpt lat="43.3938202" lon="12.8875178"><ele>451.0</ele><time>2026-04-18T08:47:19.006Z</time></trkpt><trkpt lat="43.3937595" lon="12.8874214"><ele>457.0</ele><time>2026-04-18T08:47:23.009Z</time></trkpt><trkpt lat="43.3936764" lon="12.8873095"><ele>463.0</ele><time>2026-04-18T08:47:24.998Z</time></trkpt><trkpt lat="43.3935862" lon="12.887201"><ele>469.0</ele><time>2026-04-18T08:47:26.999Z</time></trkpt><trkpt lat="43.3934956" lon="12.8871071"><ele>475.0</ele><time>2026-04-18T08:47:29.002Z</time></trkpt><trkpt lat="43.393409" lon="12.8869942"><ele>475.00000000000006</ele><time>2026-04-18T08:47:30.997Z</time></trkpt><trkpt lat="43.3933296" lon="12.8868611"><ele>475.0</ele><time>2026-04-18T08:47:32.997Z</time></trkpt><trkpt lat="43.3932819" lon="12.8867958"><ele>475.0</ele><time>2026-04-18T08:47:33.993Z</time></trkpt><trkpt lat="43.3932329" lon="12.886735"><ele>475.0</ele><time>2026-04-18T08:47:34.999Z</time></trkpt><trkpt lat="43.393181" lon="12.8866799"><ele>475.00000000000006</ele><time>2026-04-18T08:47:36.008Z</time></trkpt><trkpt lat="43.3930944" lon="12.8865743"><ele>475.0</ele><time>2026-04-18T08:47:38.004Z</time></trkpt><trkpt lat="43.3930313" lon="12.886453"><ele>476.4</ele><time>2026-04-18T08:47:40.001Z</time></trkpt><trkpt lat="43.3929533" lon="12.8863354"><ele>477.8</ele><time>2026-04-18T08:47:41.999Z</time></trkpt><trkpt lat="43.392885" lon="12.8861664"><ele>479.20000000000005</ele><time>2026-04-18T08:47:43.993Z</time></trkpt><trkpt lat="43.392849" lon="12.8860765"><ele>480.6</ele><time>2026-04-18T08:47:44.998Z</time></trkpt><trkpt lat="43.3928146" lon="12.8859944"><ele>482.0</ele><time>2026-04-18T08:47:45.991Z</time></trkpt><trkpt lat="43.3927803" lon="12.8859091"><ele>481.99999999999994</ele><time>2026-04-18T08:47:46.993Z</time></trkpt><trkpt lat="43.3927469" lon="12.8858126"><ele>482.0</ele><time>2026-04-18T08:47:47.993Z</time></trkpt><trkpt lat="43.3927081" lon="12.8857247"><ele>482.0</ele><time>2026-04-18T08:47:48.999Z</time></trkpt><trkpt lat="43.3926748" lon="12.885641"><ele>482.0</ele><time>2026-04-18T08:47:50.001Z</time></trkpt><trkpt lat="43.3926286" lon="12.8855579"><ele>481.99999999999994</ele><time>2026-04-18T08:47:50.989Z</time></trkpt><trkpt lat="43.3925865" lon="12.885475"><ele>482.0</ele><time>2026-04-18T08:47:52.005Z</time></trkpt><trkpt lat="43.3925255" lon="12.8853482"><ele>482.0</ele><time>2026-04-18T08:47:53.996Z</time></trkpt><trkpt lat="43.3924881" lon="12.8851934"><ele>482.00000000000006</ele><time>2026-04-18T08:47:55.998Z</time></trkpt><trkpt lat="43.392456" lon="12.8850344"><ele>482.00000000000006</ele><time>2026-04-18T08:47:58.006Z</time></trkpt><trkpt lat="43.3924175" lon="12.8848741"><ele>482.0</ele><time>2026-04-18T08:48:00.004Z</time></trkpt><trkpt lat="43.3923942" lon="12.8847876"><ele>482.0</ele><time>2026-04-18T08:48:01.002Z</time></trkpt><trkpt lat="43.3923687" lon="12.8846977"><ele>480.0</ele><time>2026-04-18T08:48:02.005Z</time></trkpt><trkpt lat="43.3923416" lon="12.8846139"><ele>478.00000000000006</ele><time>2026-04-18T08:48:02.99Z</time></trkpt><trkpt lat="43.3923086" lon="12.8845243"><ele>476.0</ele><time>2026-04-18T08:48:04.004Z</time></trkpt><trkpt lat="43.3922752" lon="12.8844307"><ele>474.0</ele><time>2026-04-18T08:48:05.001Z</time></trkpt><trkpt lat="43.3922486" lon="12.8843399"><ele>472.00000000000006</ele><time>2026-04-18T08:48:06.003Z</time></trkpt><trkpt lat="43.3922324" lon="12.8842415"><ele>470.0</ele><time>2026-04-18T08:48:06.994Z</time></trkpt><trkpt lat="43.3922132" lon="12.8841425"><ele>468.0</ele><time>2026-04-18T08:48:08.005Z</time></trkpt><trkpt lat="43.3921805" lon="12.884051"><ele>472.2</ele><time>2026-04-18T08:48:08.995Z</time></trkpt><trkpt lat="43.3921362" lon="12.8839455"><ele>476.4</ele><time>2026-04-18T08:48:09.995Z</time></trkpt><trkpt lat="43.3920856" lon="12.8838364"><ele>480.59999999999997</ele><time>2026-04-18T08:48:11.003Z</time></trkpt><trkpt lat="43.3920321" lon="12.8837282"><ele>484.79999999999995</ele><time>2026-04-18T08:48:12.008Z</time></trkpt><trkpt lat="43.3919788" lon="12.8836204"><ele>489.0</ele><time>2026-04-18T08:48:12.99Z</time></trkpt><trkpt lat="43.3919411" lon="12.8835215"><ele>489.0</ele><time>2026-04-18T08:48:13.995Z</time></trkpt><trkpt lat="43.3919057" lon="12.8834341"><ele>489.0</ele><time>2026-04-18T08:48:14.995Z</time></trkpt><trkpt lat="43.3918696" lon="12.8833525"><ele>489.0</ele><time>2026-04-18T08:48:15.994Z</time></trkpt><trkpt lat="43.3918339" lon="12.883268"><ele>489.0</ele><time>2026-04-18T08:48:17.004Z</time></trkpt><trkpt lat="43.3917812" lon="12.8831355"><ele>489.0</ele><time>2026-04-18T08:48:19.003Z</time></trkpt><trkpt lat="43.3917057" lon="12.8830167"><ele>489.0</ele><time>2026-04-18T08:48:21.002Z</time></trkpt><trkpt lat="43.3916669" lon="12.8829462"><ele>485.3333333333333</ele><time>2026-04-18T08:48:21.996Z</time></trkpt><trkpt lat="43.3916296" lon="12.8828729"><ele>481.66666666666663</ele><time>2026-04-18T08:48:22.993Z</time></trkpt><trkpt lat="43.3915675" lon="12.8827361"><ele>478.0</ele><time>2026-04-18T08:48:25.002Z</time></trkpt><trkpt lat="43.3915107" lon="12.8825938"><ele>474.3333333333333</ele><time>2026-04-18T08:48:27.021Z</time></trkpt><trkpt lat="43.3914873" lon="12.8825036"><ele>470.66666666666663</ele><time>2026-04-18T08:48:28.003Z</time></trkpt><trkpt lat="43.3914674" lon="12.8824135"><ele>467.0</ele><time>2026-04-18T08:48:29.003Z</time></trkpt><trkpt lat="43.3914517" lon="12.8823256"><ele>470.40000000000003</ele><time>2026-04-18T08:48:30.003Z</time></trkpt><trkpt lat="43.3913967" lon="12.8821839"><ele>473.80000000000007</ele><time>2026-04-18T08:48:31.993Z</time></trkpt><trkpt lat="43.3913345" lon="12.8820664"><ele>477.2</ele><time>2026-04-18T08:48:34.003Z</time></trkpt><trkpt lat="43.3912762" lon="12.8819658"><ele>480.6</ele><time>2026-04-18T08:48:35.989Z</time></trkpt><trkpt lat="43.391227" lon="12.8818765"><ele>484.0</ele><time>2026-04-18T08:48:38.015Z</time></trkpt><trkpt lat="43.3911628" lon="12.8818016"><ele>479.2</ele><time>2026-04-18T08:48:40.01Z</time></trkpt><trkpt lat="43.3910728" lon="12.8817255"><ele>474.4</ele><time>2026-04-18T08:48:42.01Z</time></trkpt><trkpt lat="43.3909859" lon="12.8816222"><ele>469.6</ele><time>2026-04-18T08:48:44.011Z</time></trkpt><trkpt lat="43.3908931" lon="12.8815271"><ele>464.8</ele><time>2026-04-18T08:48:46Z</time></trkpt><trkpt lat="43.3908111" lon="12.8814378"><ele>460.0</ele><time>2026-04-18T08:48:47.996Z</time></trkpt><trkpt lat="43.3907506" lon="12.8813432"><ele>460.0</ele><time>2026-04-18T08:48:50Z</time></trkpt><trkpt lat="43.3906792" lon="12.8812651"><ele>460.0</ele><time>2026-04-18T08:48:52.006Z</time></trkpt><trkpt lat="43.3906059" lon="12.881168"><ele>460.0</ele><time>2026-04-18T08:48:53.993Z</time></trkpt><trkpt lat="43.3905231" lon="12.8810533"><ele>460.0</ele><time>2026-04-18T08:48:56.001Z</time></trkpt><trkpt lat="43.3904433" lon="12.8809323"><ele>460.0</ele><time>2026-04-18T08:48:58.021Z</time></trkpt><trkpt lat="43.3903453" lon="12.8808107"><ele>461.50000000000006</ele><time>2026-04-18T08:49:00.003Z</time></trkpt><trkpt lat="43.3902601" lon="12.8806874"><ele>463.0</ele><time>2026-04-18T08:49:02.007Z</time></trkpt><trkpt lat="43.3902184" lon="12.8806136"><ele>464.5</ele><time>2026-04-18T08:49:03.004Z</time></trkpt><trkpt lat="43.3901773" lon="12.8805291"><ele>466.0</ele><time>2026-04-18T08:49:04.003Z</time></trkpt><trkpt lat="43.3901381" lon="12.8804419"><ele>467.50000000000006</ele><time>2026-04-18T08:49:05.004Z</time></trkpt><trkpt lat="43.3900955" lon="12.880349"><ele>469.0</ele><time>2026-04-18T08:49:06.004Z</time></trkpt><trkpt lat="43.3900482" lon="12.8802626"><ele>469.00000000000006</ele><time>2026-04-18T08:49:06.997Z</time></trkpt><trkpt lat="43.3900022" lon="12.8801751"><ele>469.0</ele><time>2026-04-18T08:49:08.001Z</time></trkpt><trkpt lat="43.3899561" lon="12.8800948"><ele>469.0</ele><time>2026-04-18T08:49:09.006Z</time></trkpt><trkpt lat="43.3899121" lon="12.8800211"><ele>469.0</ele><time>2026-04-18T08:49:09.999Z</time></trkpt><trkpt lat="43.3898711" lon="12.8799493"><ele>469.00000000000006</ele><time>2026-04-18T08:49:10.999Z</time></trkpt><trkpt lat="43.3898139" lon="12.8798178"><ele>469.0</ele><time>2026-04-18T08:49:12.988Z</time></trkpt><trkpt lat="43.3897627" lon="12.8797597"><ele>468.4</ele><time>2026-04-18T08:49:15.004Z</time></trkpt><trkpt lat="43.3897036" lon="12.8796705"><ele>467.79999999999995</ele><time>2026-04-18T08:49:18.016Z</time></trkpt><trkpt lat="43.3896569" lon="12.879599"><ele>467.20000000000005</ele><time>2026-04-18T08:49:20.002Z</time></trkpt><trkpt lat="43.3896116" lon="12.8794593"><ele>466.6</ele><time>2026-04-18T08:49:21.996Z</time></trkpt><trkpt lat="43.3895727" lon="12.8793843"><ele>466.0</ele><time>2026-04-18T08:49:22.996Z</time></trkpt><trkpt lat="43.3894803" lon="12.8792606"><ele>463.1666666666667</ele><time>2026-04-18T08:49:25.004Z</time></trkpt><trkpt lat="43.3893896" lon="12.8791287"><ele>460.33333333333337</ele><time>2026-04-18T08:49:27.001Z</time></trkpt><trkpt lat="43.3893374" lon="12.8790607"><ele>457.5</ele><time>2026-04-18T08:49:28.019Z</time></trkpt><trkpt lat="43.3892847" lon="12.8790003"><ele>454.66666666666663</ele><time>2026-04-18T08:49:29.006Z</time></trkpt><trkpt lat="43.3892365" lon="12.8789378"><ele>451.8333333333333</ele><time>2026-04-18T08:49:30.009Z</time></trkpt><trkpt lat="43.3891879" lon="12.8788611"><ele>449.0</ele><time>2026-04-18T08:49:30.99Z</time></trkpt><trkpt lat="43.3891428" lon="12.8787837"><ele>449.0</ele><time>2026-04-18T08:49:31.995Z</time></trkpt><trkpt lat="43.389088" lon="12.8787043"><ele>448.99999999999994</ele><time>2026-04-18T08:49:32.994Z</time></trkpt><trkpt lat="43.3890396" lon="12.8786263"><ele>449.0</ele><time>2026-04-18T08:49:34.002Z</time></trkpt><trkpt lat="43.3889886" lon="12.8785538"><ele>449.0</ele><time>2026-04-18T08:49:35.001Z</time></trkpt><trkpt lat="43.3889383" lon="12.8784793"><ele>448.99999999999994</ele><time>2026-04-18T08:49:36.014Z</time></trkpt><trkpt lat="43.3888857" lon="12.8784059"><ele>449.0</ele><time>2026-04-18T08:49:36.995Z</time></trkpt><trkpt lat="43.3888391" lon="12.8783413"><ele>449.0</ele><time>2026-04-18T08:49:38.004Z</time></trkpt><trkpt lat="43.388739" lon="12.8782879"><ele>446.49999999999994</ele><time>2026-04-18T08:49:40.001Z</time></trkpt><trkpt lat="43.3886702" lon="12.8782219"><ele>444.0</ele><time>2026-04-18T08:49:42.01Z</time></trkpt><trkpt lat="43.3886939" lon="12.8781255"><ele>441.5</ele><time>2026-04-18T08:49:43.999Z</time></trkpt><trkpt lat="43.3887564" lon="12.8779844"><ele>439.0</ele><time>2026-04-18T08:49:46.009Z</time></trkpt><trkpt lat="43.3888026" lon="12.8778952"><ele>436.49999999999994</ele><time>2026-04-18T08:49:47Z</time></trkpt><trkpt lat="43.3888537" lon="12.8778103"><ele>434.0</ele><time>2026-04-18T08:49:48.006Z</time></trkpt><trkpt lat="43.388902" lon="12.8777296"><ele>433.8333333333333</ele><time>2026-04-18T08:49:48.99Z</time></trkpt><trkpt lat="43.3889545" lon="12.8776546"><ele>433.66666666666663</ele><time>2026-04-18T08:49:50.011Z</time></trkpt><trkpt lat="43.3889999" lon="12.8775638"><ele>433.5</ele><time>2026-04-18T08:49:51.001Z</time></trkpt><trkpt lat="43.3890347" lon="12.8774592"><ele>433.33333333333337</ele><time>2026-04-18T08:49:52.019Z</time></trkpt><trkpt lat="43.3890639" lon="12.8773483"><ele>433.1666666666667</ele><time>2026-04-18T08:49:53.002Z</time></trkpt><trkpt lat="43.3891021" lon="12.8772415"><ele>433.0</ele><time>2026-04-18T08:49:54.012Z</time></trkpt><trkpt lat="43.3891395" lon="12.8771578"><ele>431.79999999999995</ele><time>2026-04-18T08:49:55.004Z</time></trkpt><trkpt lat="43.3891962" lon="12.8771057"><ele>430.59999999999997</ele><time>2026-04-18T08:49:56.007Z</time></trkpt><trkpt lat="43.3893196" lon="12.8771006"><ele>429.40000000000003</ele><time>2026-04-18T08:49:58.003Z</time></trkpt><trkpt lat="43.3893979" lon="12.877138"><ele>428.20000000000005</ele><time>2026-04-18T08:49:58.99Z</time></trkpt><trkpt lat="43.3894738" lon="12.877182"><ele>427.0</ele><time>2026-04-18T08:50:00Z</time></trkpt><trkpt lat="43.3895597" lon="12.8772346"><ele>427.00000000000006</ele><time>2026-04-18T08:50:00.996Z</time></trkpt><trkpt lat="43.3896475" lon="12.8772851"><ele>427.0</ele><time>2026-04-18T08:50:02Z</time></trkpt><trkpt lat="43.3897267" lon="12.8773343"><ele>427.0</ele><time>2026-04-18T08:50:02.996Z</time></trkpt><trkpt lat="43.3898095" lon="12.877369"><ele>427.0</ele><time>2026-04-18T08:50:04.006Z</time></trkpt><trkpt lat="43.3898892" lon="12.8774036"><ele>427.00000000000006</ele><time>2026-04-18T08:50:04.997Z</time></trkpt><trkpt lat="43.3899555" lon="12.8774382"><ele>427.0</ele><time>2026-04-18T08:50:05.997Z</time></trkpt><trkpt lat="43.3900501" lon="12.87738"><ele>430.0</ele><time>2026-04-18T08:50:08.003Z</time></trkpt><trkpt lat="43.3901132" lon="12.8772389"><ele>433.00000000000006</ele><time>2026-04-18T08:50:09.988Z</time></trkpt><trkpt lat="43.3901247" lon="12.8770863"><ele>436.00000000000006</ele><time>2026-04-18T08:50:11.999Z</time></trkpt><trkpt lat="43.3900575" lon="12.8769659"><ele>439.0</ele><time>2026-04-18T08:50:14.012Z</time></trkpt><trkpt lat="43.3900879" lon="12.8768304"><ele>442.0</ele><time>2026-04-18T08:50:16.003Z</time></trkpt><trkpt lat="43.3901815" lon="12.8767406"><ele>444.0</ele><time>2026-04-18T08:50:18.008Z</time></trkpt><trkpt lat="43.3903098" lon="12.8766811"><ele>446.00000000000006</ele><time>2026-04-18T08:50:20.022Z</time></trkpt><trkpt lat="43.3903935" lon="12.8766603"><ele>448.00000000000006</ele><time>2026-04-18T08:50:21.011Z</time></trkpt><trkpt lat="43.3904756" lon="12.8766767"><ele>450.0</ele><time>2026-04-18T08:50:22.015Z</time></trkpt><trkpt lat="43.3905435" lon="12.8767112"><ele>452.0</ele><time>2026-04-18T08:50:22.998Z</time></trkpt><trkpt lat="43.3906686" lon="12.8767076"><ele>456.40000000000003</ele><time>2026-04-18T08:50:25.012Z</time></trkpt><trkpt lat="43.3907575" lon="12.8766691"><ele>460.80000000000007</ele><time>2026-04-18T08:50:25.995Z</time></trkpt><trkpt lat="43.3908517" lon="12.8766109"><ele>465.2</ele><time>2026-04-18T08:50:27.015Z</time></trkpt><trkpt lat="43.39094" lon="12.8765444"><ele>469.6</ele><time>2026-04-18T08:50:28.017Z</time></trkpt><trkpt lat="43.3910141" lon="12.876489"><ele>474.0</ele><time>2026-04-18T08:50:29.012Z</time></trkpt><trkpt lat="43.3910866" lon="12.8764226"><ele>474.0</ele><time>2026-04-18T08:50:30.01Z</time></trkpt><trkpt lat="43.3911568" lon="12.8763552"><ele>474.0</ele><time>2026-04-18T08:50:31Z</time></trkpt><trkpt lat="43.3912278" lon="12.8762962"><ele>474.0</ele><time>2026-04-18T08:50:32.011Z</time></trkpt><trkpt lat="43.3912843" lon="12.8762387"><ele>474.0</ele><time>2026-04-18T08:50:33.002Z</time></trkpt><trkpt lat="43.3913666" lon="12.8761309"><ele>474.0</ele><time>2026-04-18T08:50:35.001Z</time></trkpt><trkpt lat="43.391418" lon="12.8760741"><ele>474.0</ele><time>2026-04-18T08:50:36.009Z</time></trkpt><trkpt lat="43.3915148" lon="12.8759733"><ele>474.3333333333333</ele><time>2026-04-18T08:50:38.016Z</time></trkpt><trkpt lat="43.3915752" lon="12.8759445"><ele>474.66666666666663</ele><time>2026-04-18T08:50:39.001Z</time></trkpt><trkpt lat="43.3916471" lon="12.8759308"><ele>475.0</ele><time>2026-04-18T08:50:39.999Z</time></trkpt><trkpt lat="43.3917212" lon="12.8759157"><ele>475.3333333333333</ele><time>2026-04-18T08:50:41Z</time></trkpt><trkpt lat="43.3917994" lon="12.8758984"><ele>475.66666666666663</ele><time>2026-04-18T08:50:42.001Z</time></trkpt><trkpt lat="43.3918971" lon="12.8758673"><ele>476.0</ele><time>2026-04-18T08:50:44.003Z</time></trkpt><trkpt lat="43.3919659" lon="12.8758541"><ele>478.8333333333333</ele><time>2026-04-18T08:50:58.007Z</time></trkpt><trkpt lat="43.3920186" lon="12.8758066"><ele>481.66666666666663</ele><time>2026-04-18T08:50:59Z</time></trkpt><trkpt lat="43.39208" lon="12.8757574"><ele>484.5</ele><time>2026-04-18T08:51:00Z</time></trkpt><trkpt lat="43.3921511" lon="12.8757005"><ele>487.33333333333337</ele><time>2026-04-18T08:51:00.985Z</time></trkpt><trkpt lat="43.3922268" lon="12.8756432"><ele>490.1666666666667</ele><time>2026-04-18T08:51:02.015Z</time></trkpt><trkpt lat="43.3922974" lon="12.8755783"><ele>493.0</ele><time>2026-04-18T08:51:03.027Z</time></trkpt><trkpt lat="43.3923822" lon="12.875513"><ele>493.00000000000006</ele><time>2026-04-18T08:51:04.008Z</time></trkpt><trkpt lat="43.3924702" lon="12.8754615"><ele>493.0</ele><time>2026-04-18T08:51:05.004Z</time></trkpt><trkpt lat="43.3925528" lon="12.8754324"><ele>493.0</ele><time>2026-04-18T08:51:06.018Z</time></trkpt><trkpt lat="43.3926332" lon="12.8754248"><ele>493.0</ele><time>2026-04-18T08:51:06.997Z</time></trkpt><trkpt lat="43.3927053" lon="12.8754147"><ele>493.00000000000006</ele><time>2026-04-18T08:51:08.011Z</time></trkpt><trkpt lat="43.3927812" lon="12.8754055"><ele>493.0</ele><time>2026-04-18T08:51:09.001Z</time></trkpt><trkpt lat="43.3928461" lon="12.8753768"><ele>493.00000000000006</ele><time>2026-04-18T08:51:10.012Z</time></trkpt><trkpt lat="43.3929103" lon="12.875349"><ele>493.0</ele><time>2026-04-18T08:51:11.005Z</time></trkpt><trkpt lat="43.3929821" lon="12.8753037"><ele>493.0</ele><time>2026-04-18T08:52:50.009Z</time></trkpt><trkpt lat="43.3930561" lon="12.8752298"><ele>493.0</ele><time>2026-04-18T08:52:52.002Z</time></trkpt><trkpt lat="43.3931092" lon="12.8751647"><ele>493.00000000000006</ele><time>2026-04-18T08:52:53Z</time></trkpt><trkpt lat="43.3931684" lon="12.8750944"><ele>493.0</ele><time>2026-04-18T08:52:54.003Z</time></trkpt><trkpt lat="43.3932416" lon="12.8750205"><ele>494.4</ele><time>2026-04-18T08:52:54.997Z</time></trkpt><trkpt lat="43.393321" lon="12.8749476"><ele>495.79999999999995</ele><time>2026-04-18T08:52:55.995Z</time></trkpt><trkpt lat="43.3934061" lon="12.8748693"><ele>497.2</ele><time>2026-04-18T08:52:56.991Z</time></trkpt><trkpt lat="43.3934916" lon="12.8747944"><ele>498.6</ele><time>2026-04-18T08:52:58Z</time></trkpt><trkpt lat="43.3935722" lon="12.8747284"><ele>500.0</ele><time>2026-04-18T08:52:59.001Z</time></trkpt><trkpt lat="43.3936474" lon="12.8746674"><ele>500.0</ele><time>2026-04-18T08:53:00.005Z</time></trkpt><trkpt lat="43.3937094" lon="12.8746138"><ele>500.0</ele><time>2026-04-18T08:53:00.999Z</time></trkpt><trkpt lat="43.3937678" lon="12.8745697"><ele>500.0</ele><time>2026-04-18T08:53:02.001Z</time></trkpt><trkpt lat="43.3938269" lon="12.8745216"><ele>500.0</ele><time>2026-04-18T08:53:02.997Z</time></trkpt><trkpt lat="43.3938889" lon="12.8744664"><ele>500.0</ele><time>2026-04-18T08:53:04.005Z</time></trkpt><trkpt lat="43.3939489" lon="12.8744097"><ele>500.0</ele><time>2026-04-18T08:53:05.002Z</time></trkpt><trkpt lat="43.3940166" lon="12.8743459"><ele>500.0</ele><time>2026-04-18T08:53:05.996Z</time></trkpt><trkpt lat="43.3940853" lon="12.8742847"><ele>499.8</ele><time>2026-04-18T08:53:07.002Z</time></trkpt><trkpt lat="43.3941615" lon="12.8742167"><ele>499.6</ele><time>2026-04-18T08:53:07.997Z</time></trkpt><trkpt lat="43.3942413" lon="12.8741456"><ele>499.4</ele><time>2026-04-18T08:53:08.998Z</time></trkpt><trkpt lat="43.3943236" lon="12.8740659"><ele>499.2</ele><time>2026-04-18T08:53:09.995Z</time></trkpt><trkpt lat="43.394419" lon="12.8739688"><ele>499.0</ele><time>2026-04-18T08:53:10.997Z</time></trkpt><trkpt lat="43.3945207" lon="12.8738732"><ele>499.0</ele><time>2026-04-18T08:53:12.007Z</time></trkpt><trkpt lat="43.3946211" lon="12.8737868"><ele>499.0</ele><time>2026-04-18T08:53:12.995Z</time></trkpt><trkpt lat="43.3947224" lon="12.8736979"><ele>499.0</ele><time>2026-04-18T08:53:13.998Z</time></trkpt><trkpt lat="43.3948117" lon="12.8735845"><ele>499.0</ele><time>2026-04-18T08:53:14.994Z</time></trkpt><trkpt lat="43.3948822" lon="12.8734532"><ele>498.75</ele><time>2026-04-18T08:53:16.004Z</time></trkpt><trkpt lat="43.3949556" lon="12.8733184"><ele>498.5</ele><time>2026-04-18T08:53:16.989Z</time></trkpt><trkpt lat="43.3950278" lon="12.8731878"><ele>498.25</ele><time>2026-04-18T08:53:18Z</time></trkpt><trkpt lat="43.395104" lon="12.8730644"><ele>498.0</ele><time>2026-04-18T08:53:18.994Z</time></trkpt><trkpt lat="43.3951774" lon="12.8729514"><ele>498.0</ele><time>2026-04-18T08:53:20.001Z</time></trkpt><trkpt lat="43.3952569" lon="12.8728554"><ele>497.99999999999994</ele><time>2026-04-18T08:53:20.995Z</time></trkpt><trkpt lat="43.3953384" lon="12.8727675"><ele>497.99999999999994</ele><time>2026-04-18T08:53:21.996Z</time></trkpt><trkpt lat="43.3954302" lon="12.872693"><ele>498.0</ele><time>2026-04-18T08:53:23.006Z</time></trkpt><trkpt lat="43.395519" lon="12.8726161"><ele>498.0</ele><time>2026-04-18T08:53:23.995Z</time></trkpt><trkpt lat="43.3956132" lon="12.8725288"><ele>496.75</ele><time>2026-04-18T08:53:24.996Z</time></trkpt><trkpt lat="43.3957034" lon="12.8724415"><ele>495.5</ele><time>2026-04-18T08:53:26.006Z</time></trkpt><trkpt lat="43.3957948" lon="12.8723573"><ele>494.25</ele><time>2026-04-18T08:53:27.008Z</time></trkpt><trkpt lat="43.3958988" lon="12.8722924"><ele>493.0</ele><time>2026-04-18T08:53:28.01Z</time></trkpt><trkpt lat="43.3960088" lon="12.8722381"><ele>493.0</ele><time>2026-04-18T08:53:28.995Z</time></trkpt><trkpt lat="43.3961188" lon="12.8721708"><ele>493.0</ele><time>2026-04-18T08:53:30.011Z</time></trkpt><trkpt lat="43.3962286" lon="12.8721143"><ele>493.0</ele><time>2026-04-18T08:53:30.996Z</time></trkpt><trkpt lat="43.396344" lon="12.8720414"><ele>493.0</ele><time>2026-04-18T08:53:32.001Z</time></trkpt><trkpt lat="43.3964412" lon="12.8719424"><ele>494.5</ele><time>2026-04-18T08:53:32.998Z</time></trkpt><trkpt lat="43.3965271" lon="12.8718271"><ele>496.0</ele><time>2026-04-18T08:53:34.006Z</time></trkpt><trkpt lat="43.3966152" lon="12.8717139"><ele>497.5</ele><time>2026-04-18T08:53:34.99Z</time></trkpt><trkpt lat="43.3967041" lon="12.8716133"><ele>499.0</ele><time>2026-04-18T08:53:35.997Z</time></trkpt><trkpt lat="43.3967961" lon="12.871515"><ele>500.0</ele><time>2026-04-18T08:53:36.998Z</time></trkpt><trkpt lat="43.3968784" lon="12.8714227"><ele>501.0</ele><time>2026-04-18T08:53:37.996Z</time></trkpt><trkpt lat="43.3969609" lon="12.8713166"><ele>502.0</ele><time>2026-04-18T08:53:38.997Z</time></trkpt><trkpt lat="43.3970344" lon="12.8712097"><ele>503.0</ele><time>2026-04-18T08:53:39.999Z</time></trkpt><trkpt lat="43.3971058" lon="12.8710974"><ele>504.0</ele><time>2026-04-18T08:53:41.002Z</time></trkpt><trkpt lat="43.3971745" lon="12.8709737"><ele>501.79999999999995</ele><time>2026-04-18T08:53:41.994Z</time></trkpt><trkpt lat="43.3972426" lon="12.8708392"><ele>499.59999999999997</ele><time>2026-04-18T08:53:42.986Z</time></trkpt><trkpt lat="43.3973061" lon="12.8707136"><ele>497.4</ele><time>2026-04-18T08:53:44Z</time></trkpt><trkpt lat="43.3973688" lon="12.8706077"><ele>495.2</ele><time>2026-04-18T08:53:44.985Z</time></trkpt><trkpt lat="43.3974483" lon="12.870535"><ele>493.0</ele><time>2026-04-18T08:53:46.013Z</time></trkpt><trkpt lat="43.397524" lon="12.8704977"><ele>493.00000000000006</ele><time>2026-04-18T08:53:46.987Z</time></trkpt><trkpt lat="43.3976438" lon="12.8704338"><ele>493.0</ele><time>2026-04-18T08:53:48.986Z</time></trkpt><trkpt lat="43.3977036" lon="12.8704024"><ele>493.0</ele><time>2026-04-18T08:53:49.986Z</time></trkpt><trkpt lat="43.3977724" lon="12.8703749"><ele>493.0</ele><time>2026-04-18T08:53:50.997Z</time></trkpt><trkpt lat="43.3978534" lon="12.8703563"><ele>493.00000000000006</ele><time>2026-04-18T08:53:51.984Z</time></trkpt><trkpt lat="43.3979379" lon="12.8703475"><ele>493.0</ele><time>2026-04-18T08:53:53.008Z</time></trkpt><trkpt lat="43.3980248" lon="12.8703492"><ele>493.1666666666667</ele><time>2026-04-18T08:53:53.985Z</time></trkpt><trkpt lat="43.3981071" lon="12.8703668"><ele>493.33333333333337</ele><time>2026-04-18T08:53:54.986Z</time></trkpt><trkpt lat="43.3981855" lon="12.8703913"><ele>493.5</ele><time>2026-04-18T08:53:56.005Z</time></trkpt><trkpt lat="43.398261" lon="12.8704196"><ele>493.66666666666663</ele><time>2026-04-18T08:53:56.992Z</time></trkpt><trkpt lat="43.3983261" lon="12.8704625"><ele>493.8333333333333</ele><time>2026-04-18T08:53:57.999Z</time></trkpt><trkpt lat="43.3983921" lon="12.8705144"><ele>494.0</ele><time>2026-04-18T08:53:58.99Z</time></trkpt><trkpt lat="43.3984461" lon="12.8705643"><ele>494.0</ele><time>2026-04-18T08:53:59.996Z</time></trkpt><trkpt lat="43.3985108" lon="12.8706338"><ele>494.0</ele><time>2026-04-18T08:54:00.991Z</time></trkpt><trkpt lat="43.398586" lon="12.8707049"><ele>494.0</ele><time>2026-04-18T08:54:01.997Z</time></trkpt><trkpt lat="43.3986675" lon="12.8707717"><ele>494.0</ele><time>2026-04-18T08:54:03Z</time></trkpt><trkpt lat="43.3987553" lon="12.8708338"><ele>494.0</ele><time>2026-04-18T08:54:03.996Z</time></trkpt><trkpt lat="43.3988428" lon="12.870882"><ele>493.2</ele><time>2026-04-18T08:54:05.003Z</time></trkpt><trkpt lat="43.3989337" lon="12.8709036"><ele>492.4</ele><time>2026-04-18T08:54:05.991Z</time></trkpt><trkpt lat="43.3990374" lon="12.8708858"><ele>491.6</ele><time>2026-04-18T08:54:06.986Z</time></trkpt><trkpt lat="43.3991386" lon="12.8708421"><ele>490.8</ele><time>2026-04-18T08:54:07.999Z</time></trkpt><trkpt lat="43.3992412" lon="12.8707792"><ele>490.0</ele><time>2026-04-18T08:54:08.989Z</time></trkpt><trkpt lat="43.3993426" lon="12.8707064"><ele>490.0</ele><time>2026-04-18T08:54:10.007Z</time></trkpt><trkpt lat="43.399436" lon="12.8706275"><ele>490.0</ele><time>2026-04-18T08:54:10.996Z</time></trkpt><trkpt lat="43.3995243" lon="12.8705478"><ele>490.0</ele><time>2026-04-18T08:54:12.002Z</time></trkpt><trkpt lat="43.3996095" lon="12.8704709"><ele>490.0</ele><time>2026-04-18T08:54:13.003Z</time></trkpt><trkpt lat="43.3996963" lon="12.8704004"><ele>490.0</ele><time>2026-04-18T08:54:14.014Z</time></trkpt><trkpt lat="43.3997889" lon="12.8703333"><ele>491.6</ele><time>2026-04-18T08:54:15.008Z</time></trkpt><trkpt lat="43.3998747" lon="12.8702687"><ele>493.2</ele><time>2026-04-18T08:54:16.017Z</time></trkpt><trkpt lat="43.3999646" lon="12.8702081"><ele>494.79999999999995</ele><time>2026-04-18T08:54:16.996Z</time></trkpt><trkpt lat="43.4000492" lon="12.8701462"><ele>496.4</ele><time>2026-04-18T08:54:17.997Z</time></trkpt><trkpt lat="43.4001342" lon="12.8700817"><ele>498.0</ele><time>2026-04-18T08:54:19.006Z</time></trkpt><trkpt lat="43.4002268" lon="12.8700132"><ele>494.79999999999995</ele><time>2026-04-18T08:54:20.001Z</time></trkpt><trkpt lat="43.4003205" lon="12.8699369"><ele>491.59999999999997</ele><time>2026-04-18T08:54:20.994Z</time></trkpt><trkpt lat="43.4004154" lon="12.8698695"><ele>488.40000000000003</ele><time>2026-04-18T08:54:21.993Z</time></trkpt><trkpt lat="43.4005064" lon="12.8698161"><ele>485.20000000000005</ele><time>2026-04-18T08:54:22.997Z</time></trkpt><trkpt lat="43.4005976" lon="12.8697643"><ele>482.0</ele><time>2026-04-18T08:54:23.998Z</time></trkpt><trkpt lat="43.4006964" lon="12.8697183"><ele>481.99999999999994</ele><time>2026-04-18T08:54:25.016Z</time></trkpt><trkpt lat="43.4007905" lon="12.8696773"><ele>482.0</ele><time>2026-04-18T08:54:26.006Z</time></trkpt><trkpt lat="43.4008722" lon="12.8696374"><ele>482.0</ele><time>2026-04-18T08:54:27.012Z</time></trkpt><trkpt lat="43.400948" lon="12.869597"><ele>482.0</ele><time>2026-04-18T08:54:27.986Z</time></trkpt><trkpt lat="43.401021" lon="12.8695579"><ele>481.99999999999994</ele><time>2026-04-18T08:54:28.996Z</time></trkpt><trkpt lat="43.4010935" lon="12.8695083"><ele>482.0</ele><time>2026-04-18T08:54:29.998Z</time></trkpt><trkpt lat="43.401171" lon="12.8694631"><ele>481.99999999999994</ele><time>2026-04-18T08:54:30.991Z</time></trkpt><trkpt lat="43.4012537" lon="12.8694273"><ele>482.0</ele><time>2026-04-18T08:54:31.999Z</time></trkpt><trkpt lat="43.4013346" lon="12.8693958"><ele>482.0</ele><time>2026-04-18T08:54:33.002Z</time></trkpt><trkpt lat="43.401415" lon="12.8693594"><ele>482.0</ele><time>2026-04-18T08:54:33.996Z</time></trkpt><trkpt lat="43.4014879" lon="12.8693176"><ele>481.99999999999994</ele><time>2026-04-18T08:54:34.995Z</time></trkpt><trkpt lat="43.4015671" lon="12.8692725"><ele>482.0</ele><time>2026-04-18T08:54:36Z</time></trkpt><trkpt lat="43.4016364" lon="12.8692114"><ele>480.66666666666663</ele><time>2026-04-18T08:54:37.005Z</time></trkpt><trkpt lat="43.4017025" lon="12.869142"><ele>479.3333333333333</ele><time>2026-04-18T08:54:38.012Z</time></trkpt><trkpt lat="43.4017423" lon="12.8690438"><ele>478.0</ele><time>2026-04-18T08:54:38.991Z</time></trkpt><trkpt lat="43.4017594" lon="12.8689152"><ele>476.66666666666663</ele><time>2026-04-18T08:54:39.996Z</time></trkpt><trkpt lat="43.4017673" lon="12.8687863"><ele>475.3333333333333</ele><time>2026-04-18T08:54:40.991Z</time></trkpt><trkpt lat="43.4017646" lon="12.8686642"><ele>474.0</ele><time>2026-04-18T08:54:42.001Z</time></trkpt><trkpt lat="43.4017568" lon="12.8685305"><ele>471.4</ele><time>2026-04-18T08:54:43.002Z</time></trkpt><trkpt lat="43.4017478" lon="12.8683846"><ele>468.79999999999995</ele><time>2026-04-18T08:54:43.993Z</time></trkpt><trkpt lat="43.4017413" lon="12.8682466"><ele>466.20000000000005</ele><time>2026-04-18T08:54:44.998Z</time></trkpt><trkpt lat="43.4017361" lon="12.8681127"><ele>463.6</ele><time>2026-04-18T08:54:45.992Z</time></trkpt><trkpt lat="43.4017352" lon="12.86798"><ele>461.0</ele><time>2026-04-18T08:54:46.996Z</time></trkpt><trkpt lat="43.4017321" lon="12.867858"><ele>460.99999999999994</ele><time>2026-04-18T08:54:48.006Z</time></trkpt><trkpt lat="43.4017283" lon="12.8677406"><ele>461.0</ele><time>2026-04-18T08:54:48.997Z</time></trkpt><trkpt lat="43.4017253" lon="12.8676273"><ele>461.0</ele><time>2026-04-18T08:54:49.998Z</time></trkpt><trkpt lat="43.4017218" lon="12.8675281"><ele>461.0</ele><time>2026-04-18T08:54:50.995Z</time></trkpt><trkpt lat="43.401721" lon="12.8674191"><ele>460.99999999999994</ele><time>2026-04-18T08:54:51.99Z</time></trkpt><trkpt lat="43.4017098" lon="12.8673032"><ele>461.0</ele><time>2026-04-18T08:54:52.995Z</time></trkpt><trkpt lat="43.4017074" lon="12.8671954"><ele>459.49999999999994</ele><time>2026-04-18T08:54:53.994Z</time></trkpt><trkpt lat="43.4017098" lon="12.8670865"><ele>458.0</ele><time>2026-04-18T08:54:55.005Z</time></trkpt><trkpt lat="43.4017053" lon="12.8669814"><ele>456.5</ele><time>2026-04-18T08:54:56.01Z</time></trkpt><trkpt lat="43.4016993" lon="12.8668707"><ele>455.0</ele><time>2026-04-18T08:54:56.992Z</time></trkpt><trkpt lat="43.40169" lon="12.8667451"><ele>453.49999999999994</ele><time>2026-04-18T08:54:57.996Z</time></trkpt><trkpt lat="43.4016825" lon="12.8666338"><ele>452.0</ele><time>2026-04-18T08:54:59.004Z</time></trkpt><trkpt lat="43.4016815" lon="12.8665203"><ele>451.16666666666663</ele><time>2026-04-18T08:54:59.994Z</time></trkpt><trkpt lat="43.4016981" lon="12.8664218"><ele>450.3333333333333</ele><time>2026-04-18T08:55:01Z</time></trkpt><trkpt lat="43.4017203" lon="12.8662826"><ele>449.5</ele><time>2026-04-18T08:55:02.996Z</time></trkpt><trkpt lat="43.4016411" lon="12.8662863"><ele>448.66666666666663</ele><time>2026-04-18T08:55:05.998Z</time></trkpt><trkpt lat="43.4015695" lon="12.8662705"><ele>447.8333333333333</ele><time>2026-04-18T08:55:07.997Z</time></trkpt><trkpt lat="43.4015046" lon="12.8662111"><ele>447.0</ele><time>2026-04-18T08:55:09.999Z</time></trkpt><trkpt lat="43.4014295" lon="12.8662094"><ele>446.99999999999994</ele><time>2026-04-18T08:55:12.995Z</time></trkpt><trkpt lat="43.4013807" lon="12.8662779"><ele>447.0</ele><time>2026-04-18T08:55:15.001Z</time></trkpt><trkpt lat="43.4013392" lon="12.8663479"><ele>447.0</ele><time>2026-04-18T08:55:16.991Z</time></trkpt><trkpt lat="43.4013101" lon="12.8664273"><ele>447.0</ele><time>2026-04-18T08:55:18.998Z</time></trkpt><trkpt lat="43.4012656" lon="12.8665093"><ele>447.0</ele><time>2026-04-18T08:55:20.992Z</time></trkpt><trkpt lat="43.4012062" lon="12.8665547"><ele>446.99999999999994</ele><time>2026-04-18T08:55:23.001Z</time></trkpt><trkpt lat="43.4011422" lon="12.8665304"><ele>447.0</ele><time>2026-04-18T08:55:25.994Z</time></trkpt><trkpt lat="43.4011056" lon="12.8664513"><ele>445.2857142857143</ele><time>2026-04-18T08:55:28.004Z</time></trkpt><trkpt lat="43.4011108" lon="12.8663611"><ele>443.57142857142856</ele><time>2026-04-18T08:55:29.996Z</time></trkpt><trkpt lat="43.4011517" lon="12.8662847"><ele>441.8571428571429</ele><time>2026-04-18T08:55:31.992Z</time></trkpt><trkpt lat="43.4010964" lon="12.8662194"><ele>440.1428571428571</ele><time>2026-04-18T08:55:34.995Z</time></trkpt><trkpt lat="43.4010308" lon="12.8662119"><ele>438.42857142857144</ele><time>2026-04-18T08:55:37.995Z</time></trkpt><trkpt lat="43.4009754" lon="12.8662923"><ele>436.7142857142857</ele><time>2026-04-18T08:55:41.995Z</time></trkpt><trkpt lat="43.4009323" lon="12.8663909"><ele>435.0</ele><time>2026-04-18T08:55:44.998Z</time></trkpt><trkpt lat="43.4008701" lon="12.8664318"><ele>435.0</ele><time>2026-04-18T08:55:46.997Z</time></trkpt><trkpt lat="43.4007668" lon="12.8663813"><ele>435.0</ele><time>2026-04-18T08:55:48.996Z</time></trkpt><trkpt lat="43.4006617" lon="12.8663048"><ele>435.0</ele><time>2026-04-18T08:55:50.995Z</time></trkpt><trkpt lat="43.4005704" lon="12.8662135"><ele>435.0</ele><time>2026-04-18T08:55:53.004Z</time></trkpt><trkpt lat="43.4004927" lon="12.8661222"><ele>435.0</ele><time>2026-04-18T08:55:55.01Z</time></trkpt><trkpt lat="43.4004155" lon="12.8659853"><ele>433.6666666666667</ele><time>2026-04-18T08:55:57.003Z</time></trkpt><trkpt lat="43.4003858" lon="12.8658827"><ele>432.33333333333337</ele><time>2026-04-18T08:55:57.991Z</time></trkpt><trkpt lat="43.4003533" lon="12.865786"><ele>431.0</ele><time>2026-04-18T08:55:58.998Z</time></trkpt><trkpt lat="43.4003059" lon="12.8656884"><ele>429.6666666666667</ele><time>2026-04-18T08:56:00.008Z</time></trkpt><trkpt lat="43.4002614" lon="12.865594"><ele>428.33333333333337</ele><time>2026-04-18T08:56:00.991Z</time></trkpt><trkpt lat="43.4002156" lon="12.8654988"><ele>427.0</ele><time>2026-04-18T08:56:01.997Z</time></trkpt><trkpt lat="43.4001805" lon="12.8654039"><ele>427.00000000000006</ele><time>2026-04-18T08:56:02.986Z</time></trkpt><trkpt lat="43.4001516" lon="12.8653112"><ele>427.0</ele><time>2026-04-18T08:56:03.994Z</time></trkpt><trkpt lat="43.4001285" lon="12.8652248"><ele>427.0</ele><time>2026-04-18T08:56:04.987Z</time></trkpt><trkpt lat="43.4001141" lon="12.8650654"><ele>427.0</ele><time>2026-04-18T08:56:07.004Z</time></trkpt><trkpt lat="43.4001106" lon="12.8649761"><ele>427.00000000000006</ele><time>2026-04-18T08:56:07.995Z</time></trkpt><trkpt lat="43.4001132" lon="12.864882"><ele>427.0</ele><time>2026-04-18T08:56:08.991Z</time></trkpt><trkpt lat="43.4001157" lon="12.864787"><ele>426.85714285714283</ele><time>2026-04-18T08:56:09.994Z</time></trkpt><trkpt lat="43.4001202" lon="12.8646856"><ele>426.7142857142857</ele><time>2026-04-18T08:56:10.991Z</time></trkpt><trkpt lat="43.4001274" lon="12.8645895"><ele>426.57142857142856</ele><time>2026-04-18T08:56:11.997Z</time></trkpt><trkpt lat="43.4001287" lon="12.8644944"><ele>426.42857142857144</ele><time>2026-04-18T08:56:12.987Z</time></trkpt><trkpt lat="43.4001235" lon="12.8643929"><ele>426.2857142857143</ele><time>2026-04-18T08:56:13.996Z</time></trkpt><trkpt lat="43.4001078" lon="12.8642795"><ele>426.1428571428571</ele><time>2026-04-18T08:56:15.008Z</time></trkpt><trkpt lat="43.400078" lon="12.864183"><ele>426.0</ele><time>2026-04-18T08:56:15.994Z</time></trkpt><trkpt lat="43.4000619" lon="12.8640947"><ele>425.4</ele><time>2026-04-18T08:56:16.99Z</time></trkpt><trkpt lat="43.4000295" lon="12.8639376"><ele>424.8</ele><time>2026-04-18T08:56:18.995Z</time></trkpt><trkpt lat="43.3999932" lon="12.8637861"><ele>424.2</ele><time>2026-04-18T08:56:21.003Z</time></trkpt><trkpt lat="43.3999704" lon="12.8636196"><ele>423.59999999999997</ele><time>2026-04-18T08:56:23.006Z</time></trkpt><trkpt lat="43.3999596" lon="12.8635262"><ele>423.0</ele><time>2026-04-18T08:56:23.996Z</time></trkpt><trkpt lat="43.3999518" lon="12.863433"><ele>422.3333333333333</ele><time>2026-04-18T08:56:24.999Z</time></trkpt><trkpt lat="43.399944" lon="12.8633301"><ele>421.66666666666663</ele><time>2026-04-18T08:56:26.009Z</time></trkpt><trkpt lat="43.3999299" lon="12.863222"><ele>421.0</ele><time>2026-04-18T08:56:26.999Z</time></trkpt><trkpt lat="43.3999122" lon="12.8631092"><ele>420.3333333333333</ele><time>2026-04-18T08:56:27.998Z</time></trkpt><trkpt lat="43.3998949" lon="12.8630021"><ele>419.66666666666663</ele><time>2026-04-18T08:56:28.993Z</time></trkpt><trkpt lat="43.399883" lon="12.8628906"><ele>419.0</ele><time>2026-04-18T08:56:29.998Z</time></trkpt><trkpt lat="43.3998749" lon="12.862778"><ele>418.99999999999994</ele><time>2026-04-18T08:56:31.002Z</time></trkpt><trkpt lat="43.399855" lon="12.862662"><ele>419.0</ele><time>2026-04-18T08:56:31.998Z</time></trkpt><trkpt lat="43.3998253" lon="12.8625429"><ele>419.0</ele><time>2026-04-18T08:56:32.993Z</time></trkpt><trkpt lat="43.3997981" lon="12.8624524"><ele>419.0</ele><time>2026-04-18T08:56:34.009Z</time></trkpt><trkpt lat="43.3997623" lon="12.8623383"><ele>418.99999999999994</ele><time>2026-04-18T08:56:36.007Z</time></trkpt><trkpt lat="43.399733" lon="12.8622267"><ele>419.0</ele><time>2026-04-18T08:56:38.002Z</time></trkpt><trkpt lat="43.3997121" lon="12.8620926"><ele>419.66666666666663</ele><time>2026-04-18T08:56:40.002Z</time></trkpt><trkpt lat="43.3996851" lon="12.8619847"><ele>420.3333333333333</ele><time>2026-04-18T08:56:42.019Z</time></trkpt><trkpt lat="43.3996666" lon="12.8618907"><ele>421.0</ele><time>2026-04-18T08:56:44.001Z</time></trkpt><trkpt lat="43.3996416" lon="12.8618107"><ele>421.66666666666663</ele><time>2026-04-18T08:56:46.006Z</time></trkpt><trkpt lat="43.3996257" lon="12.8616934"><ele>422.3333333333333</ele><time>2026-04-18T08:56:49.009Z</time></trkpt><trkpt lat="43.3996518" lon="12.8615873"><ele>423.0</ele><time>2026-04-18T08:56:50.998Z</time></trkpt><trkpt lat="43.3997015" lon="12.8614957"><ele>419.4</ele><time>2026-04-18T08:56:53.002Z</time></trkpt><trkpt lat="43.3997366" lon="12.8613675"><ele>415.79999999999995</ele><time>2026-04-18T08:56:55.004Z</time></trkpt><trkpt lat="43.3997732" lon="12.8612385"><ele>412.2</ele><time>2026-04-18T08:56:56.998Z</time></trkpt><trkpt lat="43.3998187" lon="12.8610834"><ele>408.6</ele><time>2026-04-18T08:56:58.987Z</time></trkpt><trkpt lat="43.3998361" lon="12.8609907"><ele>405.0</ele><time>2026-04-18T08:57:00.01Z</time></trkpt><trkpt lat="43.3998562" lon="12.8608939"><ele>404.5</ele><time>2026-04-18T08:57:01.008Z</time></trkpt><trkpt lat="43.3998697" lon="12.8607943"><ele>404.0</ele><time>2026-04-18T08:57:02.005Z</time></trkpt><trkpt lat="43.3998868" lon="12.860677"><ele>403.5</ele><time>2026-04-18T08:57:03.003Z</time></trkpt><trkpt lat="43.3999079" lon="12.8605605"><ele>403.0</ele><time>2026-04-18T08:57:03.999Z</time></trkpt><trkpt lat="43.3999249" lon="12.8604392"><ele>402.5</ele><time>2026-04-18T08:57:04.999Z</time></trkpt><trkpt lat="43.3999321" lon="12.8603353"><ele>402.0</ele><time>2026-04-18T08:57:06.001Z</time></trkpt><trkpt lat="43.3999384" lon="12.8602322"><ele>402.0</ele><time>2026-04-18T08:57:07.007Z</time></trkpt><trkpt lat="43.3999399" lon="12.860121"><ele>402.0</ele><time>2026-04-18T08:57:07.998Z</time></trkpt><trkpt lat="43.3999369" lon="12.8600069"><ele>402.0</ele><time>2026-04-18T08:57:08.996Z</time></trkpt><trkpt lat="43.3999293" lon="12.8598947"><ele>402.0</ele><time>2026-04-18T08:57:10.001Z</time></trkpt><trkpt lat="43.3999508" lon="12.8597702"><ele>402.0</ele><time>2026-04-18T08:57:11.995Z</time></trkpt><trkpt lat="43.4000109" lon="12.8596868"><ele>402.0</ele><time>2026-04-18T08:57:19Z</time></trkpt><trkpt lat="43.4000508" lon="12.8595676"><ele>401.8333333333333</ele><time>2026-04-18T08:57:21Z</time></trkpt><trkpt lat="43.4000883" lon="12.8594355"><ele>401.66666666666663</ele><time>2026-04-18T08:57:23.004Z</time></trkpt><trkpt lat="43.40013" lon="12.8593175"><ele>401.5</ele><time>2026-04-18T08:57:25.009Z</time></trkpt><trkpt lat="43.4001658" lon="12.8592209"><ele>401.3333333333333</ele><time>2026-04-18T08:57:27.011Z</time></trkpt><trkpt lat="43.4002124" lon="12.8591613"><ele>401.16666666666663</ele><time>2026-04-18T08:57:30.004Z</time></trkpt><trkpt lat="43.4001571" lon="12.8592276"><ele>401.0</ele><time>2026-04-18T08:57:50.002Z</time></trkpt><trkpt lat="43.4000995" lon="12.8593527"><ele>401.0</ele><time>2026-04-18T08:57:52Z</time></trkpt><trkpt lat="43.4000695" lon="12.8594421"><ele>401.0</ele><time>2026-04-18T08:57:52.996Z</time></trkpt><trkpt lat="43.4000447" lon="12.8595385"><ele>401.0</ele><time>2026-04-18T08:57:54.001Z</time></trkpt><trkpt lat="43.4000214" lon="12.8596211"><ele>401.0</ele><time>2026-04-18T08:57:55.014Z</time></trkpt><trkpt lat="43.3999917" lon="12.8597059"><ele>401.0</ele><time>2026-04-18T08:57:56.998Z</time></trkpt><trkpt lat="43.399925" lon="12.8596962"><ele>401.0</ele><time>2026-04-18T08:58:00.994Z</time></trkpt><trkpt lat="43.3999215" lon="12.8595987"><ele>401.0</ele><time>2026-04-18T08:58:04.003Z</time></trkpt><trkpt lat="43.3999076" lon="12.8594905"><ele>401.0</ele><time>2026-04-18T08:58:06.995Z</time></trkpt><trkpt lat="43.3998798" lon="12.8593938"><ele>401.0</ele><time>2026-04-18T08:58:08.999Z</time></trkpt><trkpt lat="43.399828" lon="12.8592782"><ele>401.0</ele><time>2026-04-18T08:58:10.992Z</time></trkpt><trkpt lat="43.3997767" lon="12.8591557"><ele>401.0</ele><time>2026-04-18T08:58:12.998Z</time></trkpt><trkpt lat="43.3997101" lon="12.8590453"><ele>401.0</ele><time>2026-04-18T08:58:15.011Z</time></trkpt><trkpt lat="43.3996411" lon="12.8589239"><ele>399.49999999999994</ele><time>2026-04-18T08:58:17.001Z</time></trkpt><trkpt lat="43.3995833" lon="12.8588005"><ele>398.0</ele><time>2026-04-18T08:58:19.008Z</time></trkpt><trkpt lat="43.3995351" lon="12.8586528"><ele>396.5</ele><time>2026-04-18T08:58:21.009Z</time></trkpt><trkpt lat="43.3995167" lon="12.8585622"><ele>395.0</ele><time>2026-04-18T08:58:22.013Z</time></trkpt><trkpt lat="43.3995055" lon="12.85847"><ele>393.49999999999994</ele><time>2026-04-18T08:58:22.991Z</time></trkpt><trkpt lat="43.3994952" lon="12.8583781"><ele>392.0</ele><time>2026-04-18T08:58:23.997Z</time></trkpt><trkpt lat="43.3994884" lon="12.8582893"><ele>390.16666666666663</ele><time>2026-04-18T08:58:24.993Z</time></trkpt><trkpt lat="43.3994845" lon="12.8581231"><ele>388.3333333333333</ele><time>2026-04-18T08:58:26.996Z</time></trkpt><trkpt lat="43.3994828" lon="12.8580349"><ele>386.5</ele><time>2026-04-18T08:58:28.004Z</time></trkpt><trkpt lat="43.3994872" lon="12.8579425"><ele>384.66666666666663</ele><time>2026-04-18T08:58:29.009Z</time></trkpt><trkpt lat="43.3994878" lon="12.8578511"><ele>382.8333333333333</ele><time>2026-04-18T08:58:29.997Z</time></trkpt><trkpt lat="43.399488" lon="12.8577526"><ele>381.0</ele><time>2026-04-18T08:58:30.999Z</time></trkpt><trkpt lat="43.3994938" lon="12.8576634"><ele>379.8333333333333</ele><time>2026-04-18T08:58:31.996Z</time></trkpt><trkpt lat="43.3994924" lon="12.857572"><ele>378.6666666666667</ele><time>2026-04-18T08:58:32.999Z</time></trkpt><trkpt lat="43.3994931" lon="12.857434"><ele>377.5</ele><time>2026-04-18T08:58:35.004Z</time></trkpt><trkpt lat="43.3994925" lon="12.8573431"><ele>376.33333333333337</ele><time>2026-04-18T08:58:38.008Z</time></trkpt><trkpt lat="43.3995164" lon="12.8572351"><ele>375.1666666666667</ele><time>2026-04-18T08:58:42.004Z</time></trkpt><trkpt lat="43.3995536" lon="12.8571296"><ele>374.0</ele><time>2026-04-18T08:58:45.006Z</time></trkpt><trkpt lat="43.3995829" lon="12.8570498"><ele>374.0</ele><time>2026-04-18T08:58:47.999Z</time></trkpt><trkpt lat="43.3996132" lon="12.8569429"><ele>374.0</ele><time>2026-04-18T08:58:51.004Z</time></trkpt><trkpt lat="43.3996565" lon="12.8568483"><ele>374.0</ele><time>2026-04-18T08:58:53.012Z</time></trkpt><trkpt lat="43.3997099" lon="12.8567555"><ele>374.0</ele><time>2026-04-18T08:58:55Z</time></trkpt><trkpt lat="43.3997758" lon="12.8566778"><ele>374.0</ele><time>2026-04-18T08:58:56.997Z</time></trkpt><trkpt lat="43.3998357" lon="12.8565738"><ele>374.0</ele><time>2026-04-18T08:58:59.009Z</time></trkpt><trkpt lat="43.3998899" lon="12.8564656"><ele>374.1666666666667</ele><time>2026-04-18T08:59:00.999Z</time></trkpt><trkpt lat="43.3999556" lon="12.8563338"><ele>374.33333333333337</ele><time>2026-04-18T08:59:03.003Z</time></trkpt><trkpt lat="43.3999917" lon="12.856262"><ele>374.5</ele><time>2026-04-18T08:59:03.998Z</time></trkpt><trkpt lat="43.4000255" lon="12.8561843"><ele>374.6666666666667</ele><time>2026-04-18T08:59:04.998Z</time></trkpt><trkpt lat="43.4000604" lon="12.8560997"><ele>374.8333333333333</ele><time>2026-04-18T08:59:06.012Z</time></trkpt><trkpt lat="43.4000903" lon="12.8560217"><ele>375.0</ele><time>2026-04-18T08:59:06.997Z</time></trkpt><trkpt lat="43.4001572" lon="12.8558902"><ele>375.0</ele><time>2026-04-18T08:59:08.998Z</time></trkpt><trkpt lat="43.4002314" lon="12.855776"><ele>375.0</ele><time>2026-04-18T08:59:11.004Z</time></trkpt><trkpt lat="43.4002963" lon="12.8557198"><ele>375.0</ele><time>2026-04-18T08:59:14.008Z</time></trkpt><trkpt lat="43.4003069" lon="12.8556325"><ele>375.0</ele><time>2026-04-18T08:59:18.001Z</time></trkpt><trkpt lat="43.4002437" lon="12.8556496"><ele>375.0</ele><time>2026-04-18T08:59:22Z</time></trkpt><trkpt lat="43.4002131" lon="12.8557514"><ele>375.0</ele><time>2026-04-18T08:59:24.001Z</time></trkpt><trkpt lat="43.4001737" lon="12.8558378"><ele>375.0</ele><time>2026-04-18T08:59:27.004Z</time></trkpt><trkpt lat="43.4001148" lon="12.8558055"><ele>375.0</ele><time>2026-04-18T08:59:34.003Z</time></trkpt><trkpt lat="43.4000629" lon="12.855749"><ele>375.0</ele><time>2026-04-18T08:59:37.999Z</time></trkpt><trkpt lat="43.3999902" lon="12.8557092"><ele>375.0</ele><time>2026-04-18T08:59:42.002Z</time></trkpt><trkpt lat="43.3999127" lon="12.8556812"><ele>375.0</ele><time>2026-04-18T08:59:46Z</time></trkpt><trkpt lat="43.3998379" lon="12.8556572"><ele>375.0</ele><time>2026-04-18T08:59:48.995Z</time></trkpt><trkpt lat="43.3997718" lon="12.8556482"><ele>375.0</ele><time>2026-04-18T08:59:50.996Z</time></trkpt><trkpt lat="43.3997073" lon="12.8556679"><ele>373.0</ele><time>2026-04-18T08:59:53.001Z</time></trkpt><trkpt lat="43.3996303" lon="12.8556939"><ele>371.0</ele><time>2026-04-18T08:59:56.004Z</time></trkpt><trkpt lat="43.3995827" lon="12.8557657"><ele>369.0</ele><time>2026-04-18T09:00:00Z</time></trkpt><trkpt lat="43.3995008" lon="12.8557815"><ele>367.0</ele><time>2026-04-18T09:00:02.999Z</time></trkpt><trkpt lat="43.3994241" lon="12.8557649"><ele>365.0</ele><time>2026-04-18T09:00:05.007Z</time></trkpt><trkpt lat="43.3993589" lon="12.8557453"><ele>363.0</ele><time>2026-04-18T09:00:07.001Z</time></trkpt><trkpt lat="43.3992992" lon="12.8556918"><ele>361.0</ele><time>2026-04-18T09:00:09.012Z</time></trkpt><trkpt lat="43.3992269" lon="12.8556674"><ele>361.0</ele><time>2026-04-18T09:00:12.002Z</time></trkpt><trkpt lat="43.3991604" lon="12.8556991"><ele>361.0</ele><time>2026-04-18T09:00:14.999Z</time></trkpt><trkpt lat="43.3990869" lon="12.8557537"><ele>361.0</ele><time>2026-04-18T09:00:18Z</time></trkpt><trkpt lat="43.3990071" lon="12.8557607"><ele>361.0</ele><time>2026-04-18T09:00:21.004Z</time></trkpt><trkpt lat="43.3989426" lon="12.8556811"><ele>361.0</ele><time>2026-04-18T09:00:23.997Z</time></trkpt><trkpt lat="43.3988982" lon="12.8555727"><ele>361.0</ele><time>2026-04-18T09:00:27.005Z</time></trkpt><trkpt lat="43.3988609" lon="12.8554735"><ele>361.0</ele><time>2026-04-18T09:00:28.995Z</time></trkpt><trkpt lat="43.3988402" lon="12.8553696"><ele>361.0</ele><time>2026-04-18T09:00:30.996Z</time></trkpt><trkpt lat="43.3988155" lon="12.8552491"><ele>361.0</ele><time>2026-04-18T09:00:33.008Z</time></trkpt><trkpt lat="43.3988005" lon="12.8551117"><ele>361.0</ele><time>2026-04-18T09:00:34.996Z</time></trkpt><trkpt lat="43.3987817" lon="12.8549685"><ele>361.0</ele><time>2026-04-18T09:00:36.999Z</time></trkpt><trkpt lat="43.3987571" lon="12.8548383"><ele>358.0</ele><time>2026-04-18T09:00:38.994Z</time></trkpt><trkpt lat="43.3987324" lon="12.8547045"><ele>355.0</ele><time>2026-04-18T09:00:40.989Z</time></trkpt><trkpt lat="43.3987014" lon="12.8545554"><ele>352.0</ele><time>2026-04-18T09:00:43Z</time></trkpt><trkpt lat="43.3986715" lon="12.8544366"><ele>349.0</ele><time>2026-04-18T09:00:44.992Z</time></trkpt><trkpt lat="43.3986487" lon="12.8543549"><ele>346.0</ele><time>2026-04-18T09:00:47.001Z</time></trkpt><trkpt lat="43.3986468" lon="12.8542316"><ele>345.0</ele><time>2026-04-18T09:00:49.996Z</time></trkpt><trkpt lat="43.3985914" lon="12.8541297"><ele>344.0</ele><time>2026-04-18T09:00:53Z</time></trkpt><trkpt lat="43.3984641" lon="12.8540915"><ele>343.0</ele><time>2026-04-18T09:00:54.994Z</time></trkpt><trkpt lat="43.398389" lon="12.8540451"><ele>342.0</ele><time>2026-04-18T09:00:56.002Z</time></trkpt><trkpt lat="43.398309" lon="12.8540036"><ele>341.0</ele><time>2026-04-18T09:00:56.996Z</time></trkpt><trkpt lat="43.3982325" lon="12.8539527"><ele>341.0</ele><time>2026-04-18T09:00:57.998Z</time></trkpt><trkpt lat="43.3981646" lon="12.8539003"><ele>341.0</ele><time>2026-04-18T09:00:59.001Z</time></trkpt><trkpt lat="43.3981051" lon="12.8538272"><ele>341.0</ele><time>2026-04-18T09:01:00.001Z</time></trkpt><trkpt lat="43.398044" lon="12.8537443"><ele>341.0</ele><time>2026-04-18T09:01:00.999Z</time></trkpt><trkpt lat="43.3979745" lon="12.8536558"><ele>341.0</ele><time>2026-04-18T09:01:02.002Z</time></trkpt><trkpt lat="43.3979078" lon="12.8535713"><ele>341.0</ele><time>2026-04-18T09:01:02.999Z</time></trkpt><trkpt lat="43.3978295" lon="12.8534909"><ele>339.6666666666667</ele><time>2026-04-18T09:01:04.008Z</time></trkpt><trkpt lat="43.3977581" lon="12.8534107"><ele>338.33333333333337</ele><time>2026-04-18T09:01:04.996Z</time></trkpt><trkpt lat="43.3976937" lon="12.8533242"><ele>337.0</ele><time>2026-04-18T09:01:05.996Z</time></trkpt><trkpt lat="43.3976492" lon="12.8532278"><ele>335.6666666666667</ele><time>2026-04-18T09:01:06.999Z</time></trkpt><trkpt lat="43.3976144" lon="12.8531216"><ele>334.3333333333333</ele><time>2026-04-18T09:01:07.997Z</time></trkpt><trkpt lat="43.3975975" lon="12.8530052"><ele>333.0</ele><time>2026-04-18T09:01:08.999Z</time></trkpt><trkpt lat="43.397592" lon="12.8528814"><ele>333.0</ele><time>2026-04-18T09:01:10.006Z</time></trkpt><trkpt lat="43.3975988" lon="12.852752"><ele>333.0</ele><time>2026-04-18T09:01:10.998Z</time></trkpt><trkpt lat="43.3975971" lon="12.8526325"><ele>333.0</ele><time>2026-04-18T09:01:12.002Z</time></trkpt><trkpt lat="43.3975871" lon="12.8525273"><ele>333.0</ele><time>2026-04-18T09:01:12.988Z</time></trkpt><trkpt lat="43.3975654" lon="12.852428"><ele>333.0</ele><time>2026-04-18T09:01:13.997Z</time></trkpt><trkpt lat="43.3975477" lon="12.8523301"><ele>333.0</ele><time>2026-04-18T09:01:14.993Z</time></trkpt><trkpt lat="43.397528" lon="12.8522188"><ele>332.3333333333333</ele><time>2026-04-18T09:01:15.996Z</time></trkpt><trkpt lat="43.3975213" lon="12.852093"><ele>331.6666666666667</ele><time>2026-04-18T09:01:17.017Z</time></trkpt><trkpt lat="43.3975121" lon="12.8519746"><ele>331.0</ele><time>2026-04-18T09:01:17.994Z</time></trkpt><trkpt lat="43.397511" lon="12.8518558"><ele>330.33333333333337</ele><time>2026-04-18T09:01:18.994Z</time></trkpt><trkpt lat="43.3974954" lon="12.8517353"><ele>329.6666666666667</ele><time>2026-04-18T09:01:20.006Z</time></trkpt><trkpt lat="43.3974952" lon="12.8516348"><ele>329.0</ele><time>2026-04-18T09:01:20.989Z</time></trkpt><trkpt lat="43.3975046" lon="12.8515304"><ele>328.83333333333337</ele><time>2026-04-18T09:01:21.99Z</time></trkpt><trkpt lat="43.3975212" lon="12.8513935"><ele>328.6666666666667</ele><time>2026-04-18T09:01:24.002Z</time></trkpt><trkpt lat="43.3975496" lon="12.8513022"><ele>328.5</ele><time>2026-04-18T09:01:34.997Z</time></trkpt><trkpt lat="43.3975954" lon="12.851222"><ele>328.3333333333333</ele><time>2026-04-18T09:01:39.008Z</time></trkpt><trkpt lat="43.3976437" lon="12.8511282"><ele>328.16666666666663</ele><time>2026-04-18T09:01:42.992Z</time></trkpt><trkpt lat="43.3977084" lon="12.8510496"><ele>328.0</ele><time>2026-04-18T09:01:46.002Z</time></trkpt><trkpt lat="43.3977773" lon="12.8509738"><ele>327.8333333333333</ele><time>2026-04-18T09:01:47.994Z</time></trkpt><trkpt lat="43.3978375" lon="12.8509059"><ele>327.66666666666663</ele><time>2026-04-18T09:01:49.996Z</time></trkpt><trkpt lat="43.397864" lon="12.8507668"><ele>327.5</ele><time>2026-04-18T09:01:52.01Z</time></trkpt><trkpt lat="43.3978516" lon="12.850668"><ele>327.3333333333333</ele><time>2026-04-18T09:01:52.989Z</time></trkpt><trkpt lat="43.3978408" lon="12.8505682"><ele>327.1666666666667</ele><time>2026-04-18T09:01:54.003Z</time></trkpt><trkpt lat="43.397856" lon="12.8504618"><ele>327.0</ele><time>2026-04-18T09:01:55.002Z</time></trkpt><trkpt lat="43.3978749" lon="12.8503711"><ele>327.0</ele><time>2026-04-18T09:01:56.006Z</time></trkpt><trkpt lat="43.3978684" lon="12.8502422"><ele>327.0</ele><time>2026-04-18T09:01:58.014Z</time></trkpt><trkpt lat="43.3977678" lon="12.8501826"><ele>327.0</ele><time>2026-04-18T09:02:00.045Z</time></trkpt><trkpt lat="43.3976938" lon="12.8501527"><ele>327.0</ele><time>2026-04-18T09:02:00.995Z</time></trkpt><trkpt lat="43.3976142" lon="12.8501315"><ele>327.0</ele><time>2026-04-18T09:02:01.995Z</time></trkpt><trkpt lat="43.3975439" lon="12.8501052"><ele>327.0</ele><time>2026-04-18T09:02:02.995Z</time></trkpt><trkpt lat="43.3975428" lon="12.8500169"><ele>326.8333333333333</ele><time>2026-04-18T09:02:12.005Z</time></trkpt><trkpt lat="43.3976169" lon="12.8500197"><ele>326.6666666666667</ele><time>2026-04-18T09:02:15Z</time></trkpt><trkpt lat="43.3976889" lon="12.8499791"><ele>326.5</ele><time>2026-04-18T09:02:35.994Z</time></trkpt><trkpt lat="43.3977654" lon="12.8499752"><ele>326.33333333333337</ele><time>2026-04-18T09:02:40.002Z</time></trkpt><trkpt lat="43.3978637" lon="12.8499572"><ele>326.1666666666667</ele><time>2026-04-18T09:02:42Z</time></trkpt><trkpt lat="43.3979313" lon="12.8499409"><ele>326.0</ele><time>2026-04-18T09:02:43.015Z</time></trkpt><trkpt lat="43.3980125" lon="12.8499225"><ele>326.4</ele><time>2026-04-18T09:02:44.039Z</time></trkpt><trkpt lat="43.3981026" lon="12.8498983"><ele>326.8</ele><time>2026-04-18T09:02:44.997Z</time></trkpt><trkpt lat="43.3981937" lon="12.8498778"><ele>327.2</ele><time>2026-04-18T09:02:45.998Z</time></trkpt><trkpt lat="43.39829" lon="12.8498495"><ele>327.59999999999997</ele><time>2026-04-18T09:02:46.998Z</time></trkpt><trkpt lat="43.3983826" lon="12.8498106"><ele>328.0</ele><time>2026-04-18T09:02:47.994Z</time></trkpt><trkpt lat="43.3984807" lon="12.8497831"><ele>328.0</ele><time>2026-04-18T09:02:48.986Z</time></trkpt><trkpt lat="43.3985815" lon="12.8497525"><ele>328.0</ele><time>2026-04-18T09:02:50.005Z</time></trkpt><trkpt lat="43.398693" lon="12.8497181"><ele>328.0</ele><time>2026-04-18T09:02:50.977Z</time></trkpt><trkpt lat="43.3988016" lon="12.8496812"><ele>328.0</ele><time>2026-04-18T09:02:51.995Z</time></trkpt><trkpt lat="43.3989134" lon="12.8496519"><ele>328.0</ele><time>2026-04-18T09:02:53.003Z</time></trkpt><trkpt lat="43.3990192" lon="12.8496291"><ele>328.4</ele><time>2026-04-18T09:02:53.998Z</time></trkpt><trkpt lat="43.3991176" lon="12.8496021"><ele>328.79999999999995</ele><time>2026-04-18T09:02:54.991Z</time></trkpt><trkpt lat="43.3992247" lon="12.8495801"><ele>329.2</ele><time>2026-04-18T09:02:55.996Z</time></trkpt><trkpt lat="43.3993264" lon="12.8495605"><ele>329.6</ele><time>2026-04-18T09:02:57.005Z</time></trkpt><trkpt lat="43.3994291" lon="12.8495402"><ele>330.0</ele><time>2026-04-18T09:02:57.996Z</time></trkpt><trkpt lat="43.3995321" lon="12.8495121"><ele>330.0</ele><time>2026-04-18T09:02:58.999Z</time></trkpt><trkpt lat="43.3996336" lon="12.849479"><ele>330.0</ele><time>2026-04-18T09:02:59.997Z</time></trkpt><trkpt lat="43.3997398" lon="12.8494482"><ele>330.0</ele><time>2026-04-18T09:03:01Z</time></trkpt><trkpt lat="43.3998485" lon="12.8494141"><ele>330.0</ele><time>2026-04-18T09:03:01.991Z</time></trkpt><trkpt lat="43.3999518" lon="12.8493861"><ele>330.0</ele><time>2026-04-18T09:03:03Z</time></trkpt><trkpt lat="43.4000582" lon="12.8493602"><ele>329.6</ele><time>2026-04-18T09:03:04.005Z</time></trkpt><trkpt lat="43.4001602" lon="12.8493287"><ele>329.2</ele><time>2026-04-18T09:03:04.991Z</time></trkpt><trkpt lat="43.400265" lon="12.8492983"><ele>328.79999999999995</ele><time>2026-04-18T09:03:05.994Z</time></trkpt><trkpt lat="43.4003717" lon="12.8492667"><ele>328.4</ele><time>2026-04-18T09:03:06.995Z</time></trkpt><trkpt lat="43.4004687" lon="12.8492374"><ele>328.0</ele><time>2026-04-18T09:03:08Z</time></trkpt><trkpt lat="43.4005601" lon="12.8492116"><ele>329.2</ele><time>2026-04-18T09:03:09.002Z</time></trkpt><trkpt lat="43.4006497" lon="12.8491884"><ele>330.4</ele><time>2026-04-18T09:03:09.998Z</time></trkpt><trkpt lat="43.4007411" lon="12.8491558"><ele>331.59999999999997</ele><time>2026-04-18T09:03:10.997Z</time></trkpt><trkpt lat="43.4008459" lon="12.8491208"><ele>332.79999999999995</ele><time>2026-04-18T09:03:11.999Z</time></trkpt><trkpt lat="43.4009551" lon="12.8490909"><ele>334.0</ele><time>2026-04-18T09:03:12.993Z</time></trkpt><trkpt lat="43.4010643" lon="12.8490634"><ele>334.0</ele><time>2026-04-18T09:03:14.006Z</time></trkpt><trkpt lat="43.4011806" lon="12.8490282"><ele>334.0</ele><time>2026-04-18T09:03:15Z</time></trkpt><trkpt lat="43.4012852" lon="12.8489941"><ele>334.0</ele><time>2026-04-18T09:03:15.993Z</time></trkpt><trkpt lat="43.4013715" lon="12.8489636"><ele>334.0</ele><time>2026-04-18T09:03:16.998Z</time></trkpt><trkpt lat="43.4014383" lon="12.8489361"><ele>334.0</ele><time>2026-04-18T09:03:18.003Z</time></trkpt><trkpt lat="43.401517" lon="12.8488636"><ele>334.0</ele><time>2026-04-18T09:03:20.001Z</time></trkpt><trkpt lat="43.4014981" lon="12.8487413"><ele>334.0</ele><time>2026-04-18T09:03:22.998Z</time></trkpt><trkpt lat="43.4013683" lon="12.8487317"><ele>334.0</ele><time>2026-04-18T09:03:25.01Z</time></trkpt><trkpt lat="43.4012771" lon="12.8487363"><ele>334.0</ele><time>2026-04-18T09:03:25.998Z</time></trkpt><trkpt lat="43.40118" lon="12.8487417"><ele>334.0</ele><time>2026-04-18T09:03:26.991Z</time></trkpt><trkpt lat="43.4010741" lon="12.8487437"><ele>334.0</ele><time>2026-04-18T09:03:27.994Z</time></trkpt><trkpt lat="43.4009622" lon="12.8487475"><ele>334.0</ele><time>2026-04-18T09:03:28.991Z</time></trkpt><trkpt lat="43.4008488" lon="12.8487487"><ele>334.0</ele><time>2026-04-18T09:03:30Z</time></trkpt><trkpt lat="43.400722" lon="12.8487447"><ele>334.0</ele><time>2026-04-18T09:03:30.996Z</time></trkpt><trkpt lat="43.400592" lon="12.848747"><ele>335.5</ele><time>2026-04-18T09:03:31.997Z</time></trkpt><trkpt lat="43.40046" lon="12.8487459"><ele>337.0</ele><time>2026-04-18T09:03:32.999Z</time></trkpt><trkpt lat="43.4003267" lon="12.8487533"><ele>338.5</ele><time>2026-04-18T09:03:34.004Z</time></trkpt><trkpt lat="43.4001915" lon="12.8487575"><ele>340.0</ele><time>2026-04-18T09:03:34.997Z</time></trkpt><trkpt lat="43.4000499" lon="12.8487555"><ele>340.0</ele><time>2026-04-18T09:03:35.991Z</time></trkpt><trkpt lat="43.3999031" lon="12.8487614"><ele>340.0</ele><time>2026-04-18T09:03:36.994Z</time></trkpt><trkpt lat="43.3997534" lon="12.8487538"><ele>340.0</ele><time>2026-04-18T09:03:38.003Z</time></trkpt><trkpt lat="43.3995969" lon="12.8487598"><ele>339.66666666666663</ele><time>2026-04-18T09:03:38.996Z</time></trkpt><trkpt lat="43.3994385" lon="12.8487568"><ele>339.3333333333333</ele><time>2026-04-18T09:03:39.998Z</time></trkpt><trkpt lat="43.3992841" lon="12.8487622"><ele>339.0</ele><time>2026-04-18T09:03:40.991Z</time></trkpt><trkpt lat="43.3991403" lon="12.8487646"><ele>339.0</ele><time>2026-04-18T09:03:41.995Z</time></trkpt><trkpt lat="43.3990047" lon="12.8487674"><ele>339.0</ele><time>2026-04-18T09:03:42.993Z</time></trkpt><trkpt lat="43.3988698" lon="12.8487711"><ele>339.0</ele><time>2026-04-18T09:03:44.007Z</time></trkpt><trkpt lat="43.3987333" lon="12.8487709"><ele>339.0</ele><time>2026-04-18T09:03:44.991Z</time></trkpt><trkpt lat="43.3985947" lon="12.8487616"><ele>338.5</ele><time>2026-04-18T09:03:46.002Z</time></trkpt><trkpt lat="43.3984489" lon="12.8487596"><ele>338.0</ele><time>2026-04-18T09:03:46.996Z</time></trkpt><trkpt lat="43.3983027" lon="12.84875"><ele>337.5</ele><time>2026-04-18T09:03:48.004Z</time></trkpt><trkpt lat="43.3981482" lon="12.8487263"><ele>337.0</ele><time>2026-04-18T09:03:48.985Z</time></trkpt><trkpt lat="43.3979938" lon="12.8486813"><ele>334.66666666666663</ele><time>2026-04-18T09:03:50.002Z</time></trkpt><trkpt lat="43.3978363" lon="12.8486164"><ele>332.3333333333333</ele><time>2026-04-18T09:03:50.994Z</time></trkpt><trkpt lat="43.3976816" lon="12.8485398"><ele>330.0</ele><time>2026-04-18T09:03:51.998Z</time></trkpt><trkpt lat="43.3975229" lon="12.8484636"><ele>330.5</ele><time>2026-04-18T09:03:52.995Z</time></trkpt><trkpt lat="43.3973768" lon="12.8483858"><ele>331.0</ele><time>2026-04-18T09:03:53.993Z</time></trkpt><trkpt lat="43.3972488" lon="12.8483196"><ele>331.5</ele><time>2026-04-18T09:03:55.004Z</time></trkpt><trkpt lat="43.3971218" lon="12.8482562"><ele>332.0</ele><time>2026-04-18T09:03:55.991Z</time></trkpt><trkpt lat="43.3970041" lon="12.8481949"><ele>332.0</ele><time>2026-04-18T09:03:56.999Z</time></trkpt><trkpt lat="43.3968808" lon="12.8481376"><ele>332.0</ele><time>2026-04-18T09:03:58.005Z</time></trkpt><trkpt lat="43.39676" lon="12.8480741"><ele>332.0</ele><time>2026-04-18T09:03:58.999Z</time></trkpt><trkpt lat="43.3966346" lon="12.8480033"><ele>332.0</ele><time>2026-04-18T09:04:00.006Z</time></trkpt><trkpt lat="43.3965034" lon="12.8479298"><ele>332.0</ele><time>2026-04-18T09:04:00.995Z</time></trkpt><trkpt lat="43.3963718" lon="12.8478622"><ele>332.0</ele><time>2026-04-18T09:04:02.002Z</time></trkpt><trkpt lat="43.3962458" lon="12.8477891"><ele>332.0</ele><time>2026-04-18T09:04:02.999Z</time></trkpt><trkpt lat="43.3961257" lon="12.8477207"><ele>332.0</ele><time>2026-04-18T09:04:04.002Z</time></trkpt><trkpt lat="43.3960025" lon="12.8476575"><ele>334.75</ele><time>2026-04-18T09:04:04.991Z</time></trkpt><trkpt lat="43.3958759" lon="12.8475888"><ele>337.5</ele><time>2026-04-18T09:04:06Z</time></trkpt><trkpt lat="43.3957473" lon="12.8475224"><ele>340.25</ele><time>2026-04-18T09:04:06.999Z</time></trkpt><trkpt lat="43.3956142" lon="12.8474499"><ele>343.0</ele><time>2026-04-18T09:04:07.992Z</time></trkpt><trkpt lat="43.3954769" lon="12.8473747"><ele>344.0</ele><time>2026-04-18T09:04:08.992Z</time></trkpt><trkpt lat="43.395334" lon="12.847304"><ele>345.0</ele><time>2026-04-18T09:04:09.999Z</time></trkpt><trkpt lat="43.39519" lon="12.8472276"><ele>346.0</ele><time>2026-04-18T09:04:11.009Z</time></trkpt><trkpt lat="43.3950462" lon="12.8471519"><ele>346.0</ele><time>2026-04-18T09:04:12.022Z</time></trkpt><trkpt lat="43.3948976" lon="12.8470774"><ele>346.0</ele><time>2026-04-18T09:04:13.011Z</time></trkpt><trkpt lat="43.3947539" lon="12.8469998"><ele>346.0</ele><time>2026-04-18T09:04:14Z</time></trkpt><trkpt lat="43.3946165" lon="12.8469282"><ele>345.75</ele><time>2026-04-18T09:04:14.992Z</time></trkpt><trkpt lat="43.3944758" lon="12.8468531"><ele>345.5</ele><time>2026-04-18T09:04:15.995Z</time></trkpt><trkpt lat="43.3943366" lon="12.8467765"><ele>345.25</ele><time>2026-04-18T09:04:16.999Z</time></trkpt><trkpt lat="43.394199" lon="12.8467066"><ele>345.0</ele><time>2026-04-18T09:04:18.003Z</time></trkpt><trkpt lat="43.3940603" lon="12.846635"><ele>346.25</ele><time>2026-04-18T09:04:19.001Z</time></trkpt><trkpt lat="43.3939192" lon="12.8465635"><ele>347.5</ele><time>2026-04-18T09:04:19.993Z</time></trkpt><trkpt lat="43.3937853" lon="12.8464879"><ele>348.75</ele><time>2026-04-18T09:04:21.009Z</time></trkpt><trkpt lat="43.3936533" lon="12.8464169"><ele>350.0</ele><time>2026-04-18T09:04:22.011Z</time></trkpt><trkpt lat="43.3935212" lon="12.8463445"><ele>351.33333333333337</ele><time>2026-04-18T09:04:22.999Z</time></trkpt><trkpt lat="43.393385" lon="12.8462696"><ele>352.6666666666667</ele><time>2026-04-18T09:04:23.996Z</time></trkpt><trkpt lat="43.3932469" lon="12.8461981"><ele>354.0</ele><time>2026-04-18T09:04:25.007Z</time></trkpt><trkpt lat="43.3931008" lon="12.846123"><ele>354.0</ele><time>2026-04-18T09:04:25.999Z</time></trkpt><trkpt lat="43.3929551" lon="12.846046"><ele>354.0</ele><time>2026-04-18T09:04:26.998Z</time></trkpt><trkpt lat="43.3928093" lon="12.8459736"><ele>354.0</ele><time>2026-04-18T09:04:27.997Z</time></trkpt><trkpt lat="43.3926651" lon="12.8458985"><ele>355.0</ele><time>2026-04-18T09:04:29.001Z</time></trkpt><trkpt lat="43.3925267" lon="12.8458312"><ele>356.0</ele><time>2026-04-18T09:04:29.994Z</time></trkpt><trkpt lat="43.3923887" lon="12.8457605"><ele>357.0</ele><time>2026-04-18T09:04:30.993Z</time></trkpt><trkpt lat="43.3922498" lon="12.8456896"><ele>358.0</ele><time>2026-04-18T09:04:31.996Z</time></trkpt><trkpt lat="43.3921113" lon="12.8456208"><ele>358.0</ele><time>2026-04-18T09:04:32.992Z</time></trkpt><trkpt lat="43.3919813" lon="12.8455509"><ele>358.0</ele><time>2026-04-18T09:04:33.998Z</time></trkpt><trkpt lat="43.3918558" lon="12.8454769"><ele>358.0</ele><time>2026-04-18T09:04:34.994Z</time></trkpt><trkpt lat="43.3917343" lon="12.8454095"><ele>358.0</ele><time>2026-04-18T09:04:35.998Z</time></trkpt><trkpt lat="43.391609" lon="12.8453394"><ele>358.0</ele><time>2026-04-18T09:04:36.998Z</time></trkpt><trkpt lat="43.391473" lon="12.8452684"><ele>358.0</ele><time>2026-04-18T09:04:37.994Z</time></trkpt><trkpt lat="43.3913342" lon="12.845197"><ele>358.0</ele><time>2026-04-18T09:04:38.996Z</time></trkpt><trkpt lat="43.391193" lon="12.8451242"><ele>358.0</ele><time>2026-04-18T09:04:39.996Z</time></trkpt><trkpt lat="43.3910458" lon="12.8450452"><ele>358.66666666666663</ele><time>2026-04-18T09:04:40.993Z</time></trkpt><trkpt lat="43.3908985" lon="12.8449685"><ele>359.3333333333333</ele><time>2026-04-18T09:04:41.996Z</time></trkpt><trkpt lat="43.3907496" lon="12.844889"><ele>360.0</ele><time>2026-04-18T09:04:42.998Z</time></trkpt><trkpt lat="43.3905986" lon="12.8448123"><ele>359.75</ele><time>2026-04-18T09:04:44.004Z</time></trkpt><trkpt lat="43.3904527" lon="12.8447406"><ele>359.5</ele><time>2026-04-18T09:04:44.997Z</time></trkpt><trkpt lat="43.3903131" lon="12.8446685"><ele>359.25</ele><time>2026-04-18T09:04:46.002Z</time></trkpt><trkpt lat="43.3901777" lon="12.8446006"><ele>359.0</ele><time>2026-04-18T09:04:47.001Z</time></trkpt><trkpt lat="43.3900477" lon="12.844536"><ele>359.0</ele><time>2026-04-18T09:04:47.996Z</time></trkpt><trkpt lat="43.3899173" lon="12.8444649"><ele>359.0</ele><time>2026-04-18T09:04:48.998Z</time></trkpt><trkpt lat="43.3897906" lon="12.8444005"><ele>359.0</ele><time>2026-04-18T09:04:49.997Z</time></trkpt><trkpt lat="43.3896675" lon="12.8443343"><ele>359.0</ele><time>2026-04-18T09:04:51.001Z</time></trkpt><trkpt lat="43.3895373" lon="12.8442677"><ele>359.25</ele><time>2026-04-18T09:04:51.998Z</time></trkpt><trkpt lat="43.3894025" lon="12.8442007"><ele>359.5</ele><time>2026-04-18T09:04:52.995Z</time></trkpt><trkpt lat="43.3892656" lon="12.8441305"><ele>359.75</ele><time>2026-04-18T09:04:53.998Z</time></trkpt><trkpt lat="43.389127" lon="12.8440606"><ele>360.0</ele><time>2026-04-18T09:04:54.996Z</time></trkpt><trkpt lat="43.3889931" lon="12.8439885"><ele>360.0</ele><time>2026-04-18T09:04:56.003Z</time></trkpt><trkpt lat="43.3888687" lon="12.8439222"><ele>360.0</ele><time>2026-04-18T09:04:56.989Z</time></trkpt><trkpt lat="43.3887508" lon="12.84386"><ele>360.0</ele><time>2026-04-18T09:04:58.004Z</time></trkpt><trkpt lat="43.3886345" lon="12.8437999"><ele>360.0</ele><time>2026-04-18T09:04:58.995Z</time></trkpt><trkpt lat="43.3885135" lon="12.8437374"><ele>360.0</ele><time>2026-04-18T09:05:00.001Z</time></trkpt><trkpt lat="43.3883946" lon="12.8436751"><ele>360.0</ele><time>2026-04-18T09:05:00.994Z</time></trkpt><trkpt lat="43.3882715" lon="12.8436082"><ele>360.0</ele><time>2026-04-18T09:05:01.991Z</time></trkpt><trkpt lat="43.3881423" lon="12.843542"><ele>360.0</ele><time>2026-04-18T09:05:02.991Z</time></trkpt><trkpt lat="43.3880101" lon="12.8434747"><ele>360.75</ele><time>2026-04-18T09:05:04.001Z</time></trkpt><trkpt lat="43.3878818" lon="12.8434078"><ele>361.5</ele><time>2026-04-18T09:05:04.994Z</time></trkpt><trkpt lat="43.3877559" lon="12.8433321"><ele>362.25</ele><time>2026-04-18T09:05:06Z</time></trkpt><trkpt lat="43.3876284" lon="12.8432697"><ele>363.0</ele><time>2026-04-18T09:05:06.999Z</time></trkpt><trkpt lat="43.3875126" lon="12.8432151"><ele>363.0</ele><time>2026-04-18T09:05:07.998Z</time></trkpt><trkpt lat="43.387402" lon="12.8431559"><ele>363.0</ele><time>2026-04-18T09:05:08.989Z</time></trkpt><trkpt lat="43.3873006" lon="12.8431053"><ele>363.0</ele><time>2026-04-18T09:05:09.989Z</time></trkpt><trkpt lat="43.3872059" lon="12.8430597"><ele>363.0</ele><time>2026-04-18T09:05:10.992Z</time></trkpt><trkpt lat="43.3871219" lon="12.8430117"><ele>363.0</ele><time>2026-04-18T09:05:11.995Z</time></trkpt><trkpt lat="43.3870453" lon="12.8429673"><ele>363.0</ele><time>2026-04-18T09:05:12.989Z</time></trkpt><trkpt lat="43.3869601" lon="12.8429224"><ele>363.0</ele><time>2026-04-18T09:05:14.005Z</time></trkpt><trkpt lat="43.3868661" lon="12.8428756"><ele>363.0</ele><time>2026-04-18T09:05:14.994Z</time></trkpt><trkpt lat="43.3867678" lon="12.8428208"><ele>363.0</ele><time>2026-04-18T09:05:15.992Z</time></trkpt><trkpt lat="43.3866665" lon="12.8427674"><ele>363.0</ele><time>2026-04-18T09:05:16.992Z</time></trkpt><trkpt lat="43.3865583" lon="12.8427085"><ele>363.0</ele><time>2026-04-18T09:05:18Z</time></trkpt><trkpt lat="43.3864514" lon="12.8426515"><ele>363.0</ele><time>2026-04-18T09:05:18.989Z</time></trkpt><trkpt lat="43.38634" lon="12.8425981"><ele>363.0</ele><time>2026-04-18T09:05:20.01Z</time></trkpt><trkpt lat="43.3862267" lon="12.8425396"><ele>363.0</ele><time>2026-04-18T09:05:20.993Z</time></trkpt><trkpt lat="43.3861076" lon="12.8424766"><ele>364.5</ele><time>2026-04-18T09:05:22.008Z</time></trkpt><trkpt lat="43.3859796" lon="12.8424175"><ele>366.0</ele><time>2026-04-18T09:05:22.998Z</time></trkpt><trkpt lat="43.3858551" lon="12.8423483"><ele>367.5</ele><time>2026-04-18T09:05:24.012Z</time></trkpt><trkpt lat="43.3857332" lon="12.8422843"><ele>369.0</ele><time>2026-04-18T09:05:24.998Z</time></trkpt><trkpt lat="43.3856065" lon="12.8422143"><ele>369.0</ele><time>2026-04-18T09:05:26Z</time></trkpt><trkpt lat="43.3854807" lon="12.8421451"><ele>369.0</ele><time>2026-04-18T09:05:27Z</time></trkpt><trkpt lat="43.3853533" lon="12.8420679"><ele>369.0</ele><time>2026-04-18T09:05:28.004Z</time></trkpt><trkpt lat="43.3852228" lon="12.841988"><ele>369.0</ele><time>2026-04-18T09:05:29.003Z</time></trkpt><trkpt lat="43.3850958" lon="12.8419022"><ele>369.0</ele><time>2026-04-18T09:05:29.99Z</time></trkpt><trkpt lat="43.3849663" lon="12.8418098"><ele>369.0</ele><time>2026-04-18T09:05:31.002Z</time></trkpt><trkpt lat="43.3848446" lon="12.8417092"><ele>369.0</ele><time>2026-04-18T09:05:31.991Z</time></trkpt><trkpt lat="43.3847222" lon="12.8416061"><ele>369.0</ele><time>2026-04-18T09:05:33.002Z</time></trkpt><trkpt lat="43.384598" lon="12.8414986"><ele>369.25</ele><time>2026-04-18T09:05:33.995Z</time></trkpt><trkpt lat="43.3844771" lon="12.8413833"><ele>369.5</ele><time>2026-04-18T09:05:35.003Z</time></trkpt><trkpt lat="43.3843619" lon="12.8412676"><ele>369.75</ele><time>2026-04-18T09:05:36.006Z</time></trkpt><trkpt lat="43.3842471" lon="12.8411534"><ele>370.0</ele><time>2026-04-18T09:05:36.996Z</time></trkpt><trkpt lat="43.3841421" lon="12.8410475"><ele>370.0</ele><time>2026-04-18T09:05:38.004Z</time></trkpt><trkpt lat="43.3840443" lon="12.8409426"><ele>370.0</ele><time>2026-04-18T09:05:38.994Z</time></trkpt><trkpt lat="43.3839561" lon="12.8408505"><ele>370.0</ele><time>2026-04-18T09:05:40.002Z</time></trkpt><trkpt lat="43.3838764" lon="12.8407566"><ele>370.0</ele><time>2026-04-18T09:05:41Z</time></trkpt><trkpt lat="43.3837992" lon="12.8406686"><ele>370.0</ele><time>2026-04-18T09:05:41.997Z</time></trkpt><trkpt lat="43.3837368" lon="12.8406031"><ele>370.2</ele><time>2026-04-18T09:05:43Z</time></trkpt><trkpt lat="43.3836356" lon="12.8405316"><ele>370.4</ele><time>2026-04-18T09:05:44.993Z</time></trkpt><trkpt lat="43.3835916" lon="12.840638"><ele>370.6</ele><time>2026-04-18T09:05:46.993Z</time></trkpt><trkpt lat="43.3835158" lon="12.8406524"><ele>370.8</ele><time>2026-04-18T09:05:49.993Z</time></trkpt><trkpt lat="43.3834742" lon="12.8405543"><ele>371.0</ele><time>2026-04-18T09:05:52.029Z</time></trkpt><trkpt lat="43.3835295" lon="12.8404159"><ele>371.0</ele><time>2026-04-18T09:05:54.009Z</time></trkpt><trkpt lat="43.3835746" lon="12.8403371"><ele>371.0</ele><time>2026-04-18T09:05:54.999Z</time></trkpt><trkpt lat="43.3836256" lon="12.8402479"><ele>371.0</ele><time>2026-04-18T09:05:55.996Z</time></trkpt><trkpt lat="43.3836725" lon="12.8401718"><ele>371.0</ele><time>2026-04-18T09:05:57.004Z</time></trkpt><trkpt lat="43.383708" lon="12.8400942"><ele>371.0</ele><time>2026-04-18T09:05:58.007Z</time></trkpt><trkpt lat="43.3837314" lon="12.839939"><ele>371.0</ele><time>2026-04-18T09:06:00.003Z</time></trkpt><trkpt lat="43.3837292" lon="12.8398446"><ele>371.1666666666667</ele><time>2026-04-18T09:06:00.996Z</time></trkpt><trkpt lat="43.3837392" lon="12.8397451"><ele>371.33333333333337</ele><time>2026-04-18T09:06:01.994Z</time></trkpt><trkpt lat="43.3837515" lon="12.8396409"><ele>371.5</ele><time>2026-04-18T09:06:02.991Z</time></trkpt><trkpt lat="43.3837757" lon="12.8395491"><ele>371.6666666666667</ele><time>2026-04-18T09:06:03.99Z</time></trkpt><trkpt lat="43.3838003" lon="12.8394523"><ele>371.8333333333333</ele><time>2026-04-18T09:06:05.003Z</time></trkpt><trkpt lat="43.3838253" lon="12.8393521"><ele>372.0</ele><time>2026-04-18T09:06:06.008Z</time></trkpt><trkpt lat="43.3838503" lon="12.8392462"><ele>372.5</ele><time>2026-04-18T09:06:07.013Z</time></trkpt><trkpt lat="43.3838779" lon="12.8391215"><ele>373.0</ele><time>2026-04-18T09:06:08.003Z</time></trkpt><trkpt lat="43.3839135" lon="12.8390031"><ele>373.5</ele><time>2026-04-18T09:06:09.013Z</time></trkpt><trkpt lat="43.3839544" lon="12.8389032"><ele>374.0</ele><time>2026-04-18T09:06:09.997Z</time></trkpt><trkpt lat="43.3839993" lon="12.8388136"><ele>374.5</ele><time>2026-04-18T09:06:10.995Z</time></trkpt><trkpt lat="43.3840486" lon="12.8387312"><ele>375.0</ele><time>2026-04-18T09:06:12.001Z</time></trkpt><trkpt lat="43.3840997" lon="12.8386609"><ele>375.0</ele><time>2026-04-18T09:06:13Z</time></trkpt><trkpt lat="43.3841477" lon="12.8385837"><ele>375.0</ele><time>2026-04-18T09:06:13.998Z</time></trkpt><trkpt lat="43.3842002" lon="12.8385077"><ele>375.0</ele><time>2026-04-18T09:06:14.994Z</time></trkpt><trkpt lat="43.3842637" lon="12.8384519"><ele>375.0</ele><time>2026-04-18T09:06:15.994Z</time></trkpt><trkpt lat="43.3843476" lon="12.8384181"><ele>375.0</ele><time>2026-04-18T09:06:16.986Z</time></trkpt><trkpt lat="43.3844418" lon="12.8383987"><ele>375.0</ele><time>2026-04-18T09:06:18.002Z</time></trkpt><trkpt lat="43.3845377" lon="12.8383862"><ele>376.0</ele><time>2026-04-18T09:06:18.99Z</time></trkpt><trkpt lat="43.3846286" lon="12.8383772"><ele>377.0</ele><time>2026-04-18T09:06:20.007Z</time></trkpt><trkpt lat="43.384728" lon="12.8383629"><ele>378.0</ele><time>2026-04-18T09:06:20.997Z</time></trkpt><trkpt lat="43.3848163" lon="12.8383577"><ele>379.0</ele><time>2026-04-18T09:06:21.996Z</time></trkpt><trkpt lat="43.3849028" lon="12.8383456"><ele>380.0</ele><time>2026-04-18T09:06:22.999Z</time></trkpt><trkpt lat="43.3849763" lon="12.8383278"><ele>381.0</ele><time>2026-04-18T09:06:24.006Z</time></trkpt><trkpt lat="43.3850507" lon="12.838286"><ele>383.3333333333333</ele><time>2026-04-18T09:06:24.993Z</time></trkpt><trkpt lat="43.3851203" lon="12.8382281"><ele>385.66666666666663</ele><time>2026-04-18T09:06:25.999Z</time></trkpt><trkpt lat="43.3851901" lon="12.8381603"><ele>388.0</ele><time>2026-04-18T09:06:26.997Z</time></trkpt><trkpt lat="43.3852437" lon="12.8380973"><ele>390.3333333333333</ele><time>2026-04-18T09:06:27.992Z</time></trkpt><trkpt lat="43.3853344" lon="12.8380111"><ele>392.66666666666663</ele><time>2026-04-18T09:06:29.999Z</time></trkpt><trkpt lat="43.3853946" lon="12.8379133"><ele>395.0</ele><time>2026-04-18T09:06:31.999Z</time></trkpt><trkpt lat="43.3854442" lon="12.8377931"><ele>395.0</ele><time>2026-04-18T09:06:34.003Z</time></trkpt><trkpt lat="43.3854663" lon="12.8377119"><ele>395.0</ele><time>2026-04-18T09:06:34.987Z</time></trkpt><trkpt lat="43.3854773" lon="12.8376129"><ele>395.0</ele><time>2026-04-18T09:06:36.001Z</time></trkpt><trkpt lat="43.3854781" lon="12.8375087"><ele>395.0</ele><time>2026-04-18T09:06:36.994Z</time></trkpt><trkpt lat="43.3854739" lon="12.8374082"><ele>395.0</ele><time>2026-04-18T09:06:37.995Z</time></trkpt><trkpt lat="43.38548" lon="12.8373079"><ele>395.0</ele><time>2026-04-18T09:06:38.997Z</time></trkpt><trkpt lat="43.3854939" lon="12.8372129"><ele>395.0</ele><time>2026-04-18T09:06:39.992Z</time></trkpt><trkpt lat="43.385511" lon="12.8371127"><ele>398.6</ele><time>2026-04-18T09:06:40.983Z</time></trkpt><trkpt lat="43.3855158" lon="12.8369885"><ele>402.2</ele><time>2026-04-18T09:06:41.987Z</time></trkpt><trkpt lat="43.3855189" lon="12.8368696"><ele>405.79999999999995</ele><time>2026-04-18T09:06:42.99Z</time></trkpt><trkpt lat="43.3855352" lon="12.836749"><ele>409.4</ele><time>2026-04-18T09:06:43.99Z</time></trkpt><trkpt lat="43.3855566" lon="12.8366076"><ele>413.0</ele><time>2026-04-18T09:06:44.989Z</time></trkpt><trkpt lat="43.3855637" lon="12.8364666"><ele>413.3333333333333</ele><time>2026-04-18T09:06:45.982Z</time></trkpt><trkpt lat="43.3855566" lon="12.8363518"><ele>413.66666666666663</ele><time>2026-04-18T09:06:46.988Z</time></trkpt><trkpt lat="43.3855511" lon="12.8362294"><ele>414.0</ele><time>2026-04-18T09:06:47.988Z</time></trkpt><trkpt lat="43.3855552" lon="12.8361067"><ele>414.33333333333337</ele><time>2026-04-18T09:06:48.986Z</time></trkpt><trkpt lat="43.385557" lon="12.8359901"><ele>414.6666666666667</ele><time>2026-04-18T09:06:50.002Z</time></trkpt><trkpt lat="43.3855544" lon="12.8358717"><ele>415.0</ele><time>2026-04-18T09:06:50.991Z</time></trkpt><trkpt lat="43.3855371" lon="12.8357581"><ele>415.1666666666667</ele><time>2026-04-18T09:06:51.99Z</time></trkpt><trkpt lat="43.3855093" lon="12.8356493"><ele>415.33333333333337</ele><time>2026-04-18T09:06:52.997Z</time></trkpt><trkpt lat="43.3854836" lon="12.8355397"><ele>415.5</ele><time>2026-04-18T09:06:53.992Z</time></trkpt><trkpt lat="43.3854667" lon="12.8354421"><ele>415.66666666666663</ele><time>2026-04-18T09:06:54.991Z</time></trkpt><trkpt lat="43.3854548" lon="12.8353533"><ele>415.8333333333333</ele><time>2026-04-18T09:06:55.999Z</time></trkpt><trkpt lat="43.3854796" lon="12.8352427"><ele>416.0</ele><time>2026-04-18T09:06:57.995Z</time></trkpt><trkpt lat="43.3855335" lon="12.8351222"><ele>416.0</ele><time>2026-04-18T09:06:59.999Z</time></trkpt><trkpt lat="43.3855615" lon="12.8350361"><ele>416.0</ele><time>2026-04-18T09:07:00.992Z</time></trkpt><trkpt lat="43.3855794" lon="12.8349501"><ele>416.0</ele><time>2026-04-18T09:07:01.994Z</time></trkpt><trkpt lat="43.3856131" lon="12.8348744"><ele>416.0</ele><time>2026-04-18T09:07:02.995Z</time></trkpt><trkpt lat="43.3856441" lon="12.834794"><ele>416.0</ele><time>2026-04-18T09:07:03.994Z</time></trkpt><trkpt lat="43.3856723" lon="12.8346961"><ele>416.0</ele><time>2026-04-18T09:07:04.999Z</time></trkpt><trkpt lat="43.385693" lon="12.834593"><ele>416.0</ele><time>2026-04-18T09:07:05.999Z</time></trkpt><trkpt lat="43.3857112" lon="12.8344809"><ele>415.99999999999994</ele><time>2026-04-18T09:07:06.999Z</time></trkpt><trkpt lat="43.3857364" lon="12.8343586"><ele>416.0</ele><time>2026-04-18T09:07:08.004Z</time></trkpt><trkpt lat="43.385756" lon="12.8342303"><ele>416.0</ele><time>2026-04-18T09:07:08.998Z</time></trkpt><trkpt lat="43.3857614" lon="12.8341111"><ele>416.0</ele><time>2026-04-18T09:07:10Z</time></trkpt><trkpt lat="43.3857549" lon="12.8339948"><ele>415.99999999999994</ele><time>2026-04-18T09:07:11.001Z</time></trkpt><trkpt lat="43.3857418" lon="12.833878"><ele>416.0</ele><time>2026-04-18T09:07:12.002Z</time></trkpt><trkpt lat="43.3857185" lon="12.8337754"><ele>416.3333333333333</ele><time>2026-04-18T09:07:12.998Z</time></trkpt><trkpt lat="43.385735" lon="12.8336481"><ele>416.66666666666663</ele><time>2026-04-18T09:07:14.996Z</time></trkpt><trkpt lat="43.3858131" lon="12.833547"><ele>417.0</ele><time>2026-04-18T09:07:16.983Z</time></trkpt><trkpt lat="43.3858666" lon="12.8334913"><ele>417.33333333333337</ele><time>2026-04-18T09:07:17.997Z</time></trkpt><trkpt lat="43.3859201" lon="12.8334117"><ele>417.6666666666667</ele><time>2026-04-18T09:07:18.999Z</time></trkpt><trkpt lat="43.3859706" lon="12.833299"><ele>418.0</ele><time>2026-04-18T09:07:19.994Z</time></trkpt><trkpt lat="43.3860301" lon="12.8332031"><ele>419.0</ele><time>2026-04-18T09:07:20.995Z</time></trkpt><trkpt lat="43.3860916" lon="12.8331091"><ele>420.0</ele><time>2026-04-18T09:07:21.989Z</time></trkpt><trkpt lat="43.3861562" lon="12.8330113"><ele>421.0</ele><time>2026-04-18T09:07:22.994Z</time></trkpt><trkpt lat="43.3862169" lon="12.8329135"><ele>422.0</ele><time>2026-04-18T09:07:23.992Z</time></trkpt><trkpt lat="43.386276" lon="12.8328143"><ele>423.0</ele><time>2026-04-18T09:07:24.994Z</time></trkpt><trkpt lat="43.3863296" lon="12.8327101"><ele>424.6666666666667</ele><time>2026-04-18T09:07:25.997Z</time></trkpt><trkpt lat="43.3863502" lon="12.8326025"><ele>426.33333333333337</ele><time>2026-04-18T09:07:26.992Z</time></trkpt><trkpt lat="43.3863687" lon="12.8324824"><ele>428.0</ele><time>2026-04-18T09:07:27.998Z</time></trkpt><trkpt lat="43.3863906" lon="12.8323567"><ele>429.6666666666667</ele><time>2026-04-18T09:07:28.998Z</time></trkpt><trkpt lat="43.3864096" lon="12.8322285"><ele>431.33333333333337</ele><time>2026-04-18T09:07:30.019Z</time></trkpt><trkpt lat="43.3864336" lon="12.8321193"><ele>433.0</ele><time>2026-04-18T09:07:30.991Z</time></trkpt><trkpt lat="43.3864631" lon="12.8320221"><ele>433.00000000000006</ele><time>2026-04-18T09:07:32.005Z</time></trkpt><trkpt lat="43.386504" lon="12.831917"><ele>433.0</ele><time>2026-04-18T09:07:32.992Z</time></trkpt><trkpt lat="43.3865354" lon="12.8318377"><ele>433.0</ele><time>2026-04-18T09:07:33.996Z</time></trkpt><trkpt lat="43.3865848" lon="12.8317444"><ele>433.0</ele><time>2026-04-18T09:07:36.007Z</time></trkpt><trkpt lat="43.3866387" lon="12.8316194"><ele>433.00000000000006</ele><time>2026-04-18T09:07:37.993Z</time></trkpt><trkpt lat="43.3866803" lon="12.8314833"><ele>433.0</ele><time>2026-04-18T09:07:39.997Z</time></trkpt><trkpt lat="43.3867397" lon="12.8313413"><ele>432.79999999999995</ele><time>2026-04-18T09:07:42.005Z</time></trkpt><trkpt lat="43.38682" lon="12.8311911"><ele>432.59999999999997</ele><time>2026-04-18T09:07:43.998Z</time></trkpt><trkpt lat="43.3868816" lon="12.8311019"><ele>432.40000000000003</ele><time>2026-04-18T09:07:44.99Z</time></trkpt><trkpt lat="43.3869432" lon="12.8310123"><ele>432.20000000000005</ele><time>2026-04-18T09:07:45.994Z</time></trkpt><trkpt lat="43.3870132" lon="12.8309212"><ele>432.0</ele><time>2026-04-18T09:07:46.996Z</time></trkpt><trkpt lat="43.3870814" lon="12.8308175"><ele>432.0</ele><time>2026-04-18T09:07:47.993Z</time></trkpt><trkpt lat="43.3871408" lon="12.8307181"><ele>432.0</ele><time>2026-04-18T09:07:48.994Z</time></trkpt><trkpt lat="43.3871965" lon="12.8306133"><ele>432.0</ele><time>2026-04-18T09:07:49.998Z</time></trkpt><trkpt lat="43.3872406" lon="12.8305078"><ele>432.0</ele><time>2026-04-18T09:07:50.999Z</time></trkpt><trkpt lat="43.3872811" lon="12.8304051"><ele>432.0</ele><time>2026-04-18T09:07:52.001Z</time></trkpt><trkpt lat="43.3873074" lon="12.8303092"><ele>432.0</ele><time>2026-04-18T09:07:52.999Z</time></trkpt><trkpt lat="43.387315" lon="12.8302167"><ele>432.6666666666667</ele><time>2026-04-18T09:07:53.993Z</time></trkpt><trkpt lat="43.3873121" lon="12.8301236"><ele>433.33333333333337</ele><time>2026-04-18T09:07:54.987Z</time></trkpt><trkpt lat="43.3872873" lon="12.8300276"><ele>434.0</ele><time>2026-04-18T09:07:55.995Z</time></trkpt><trkpt lat="43.387253" lon="12.8299192"><ele>434.6666666666667</ele><time>2026-04-18T09:07:56.982Z</time></trkpt><trkpt lat="43.387219" lon="12.8298207"><ele>435.33333333333337</ele><time>2026-04-18T09:07:57.992Z</time></trkpt><trkpt lat="43.3872034" lon="12.8297218"><ele>436.0</ele><time>2026-04-18T09:07:58.988Z</time></trkpt><trkpt lat="43.3872072" lon="12.8296266"><ele>436.0</ele><time>2026-04-18T09:07:59.995Z</time></trkpt><trkpt lat="43.3872326" lon="12.8295292"><ele>436.0</ele><time>2026-04-18T09:08:01Z</time></trkpt><trkpt lat="43.3872759" lon="12.8294166"><ele>436.0</ele><time>2026-04-18T09:08:01.998Z</time></trkpt><trkpt lat="43.3873166" lon="12.8292957"><ele>436.0</ele><time>2026-04-18T09:08:02.989Z</time></trkpt><trkpt lat="43.3873496" lon="12.8291637"><ele>436.0</ele><time>2026-04-18T09:08:03.998Z</time></trkpt><trkpt lat="43.3873775" lon="12.8290315"><ele>436.20000000000005</ele><time>2026-04-18T09:08:04.995Z</time></trkpt><trkpt lat="43.3873999" lon="12.8288937"><ele>436.40000000000003</ele><time>2026-04-18T09:08:05.993Z</time></trkpt><trkpt lat="43.3874219" lon="12.8287559"><ele>436.6</ele><time>2026-04-18T09:08:06.998Z</time></trkpt><trkpt lat="43.3874308" lon="12.828629"><ele>436.8</ele><time>2026-04-18T09:08:08.004Z</time></trkpt><trkpt lat="43.3874475" lon="12.8285009"><ele>437.0</ele><time>2026-04-18T09:08:09Z</time></trkpt><trkpt lat="43.3874528" lon="12.8283764"><ele>436.99999999999994</ele><time>2026-04-18T09:08:10.006Z</time></trkpt><trkpt lat="43.3874391" lon="12.8282772"><ele>437.0</ele><time>2026-04-18T09:08:11.001Z</time></trkpt><trkpt lat="43.3874004" lon="12.8281962"><ele>437.0</ele><time>2026-04-18T09:08:12.003Z</time></trkpt><trkpt lat="43.3873416" lon="12.8281193"><ele>437.0</ele><time>2026-04-18T09:08:13.006Z</time></trkpt><trkpt lat="43.3872968" lon="12.8280307"><ele>436.99999999999994</ele><time>2026-04-18T09:08:13.997Z</time></trkpt><trkpt lat="43.3872859" lon="12.8279226"><ele>437.0</ele><time>2026-04-18T09:08:15Z</time></trkpt><trkpt lat="43.3872956" lon="12.8278302"><ele>437.0</ele><time>2026-04-18T09:08:15.998Z</time></trkpt><trkpt lat="43.3873434" lon="12.8277347"><ele>437.00000000000006</ele><time>2026-04-18T09:08:17.002Z</time></trkpt><trkpt lat="43.3874223" lon="12.8276453"><ele>437.00000000000006</ele><time>2026-04-18T09:08:17.995Z</time></trkpt><trkpt lat="43.3875123" lon="12.8275586"><ele>437.0</ele><time>2026-04-18T09:08:18.995Z</time></trkpt><trkpt lat="43.3875991" lon="12.8274846"><ele>437.0</ele><time>2026-04-18T09:08:19.997Z</time></trkpt><trkpt lat="43.3876786" lon="12.8274195"><ele>436.66666666666663</ele><time>2026-04-18T09:08:20.987Z</time></trkpt><trkpt lat="43.3877456" lon="12.8273508"><ele>436.3333333333333</ele><time>2026-04-18T09:08:22.006Z</time></trkpt><trkpt lat="43.3877952" lon="12.8272704"><ele>436.0</ele><time>2026-04-18T09:08:22.998Z</time></trkpt><trkpt lat="43.387836" lon="12.8271974"><ele>435.66666666666663</ele><time>2026-04-18T09:08:24Z</time></trkpt><trkpt lat="43.3878803" lon="12.8270765"><ele>435.3333333333333</ele><time>2026-04-18T09:08:26.001Z</time></trkpt><trkpt lat="43.3878994" lon="12.8269723"><ele>435.0</ele><time>2026-04-18T09:09:11.003Z</time></trkpt><trkpt lat="43.3879381" lon="12.8268216"><ele>435.00000000000006</ele><time>2026-04-18T09:09:12.995Z</time></trkpt><trkpt lat="43.3879523" lon="12.8267337"><ele>435.0</ele><time>2026-04-18T09:09:13.999Z</time></trkpt><trkpt lat="43.3879736" lon="12.8266372"><ele>435.0</ele><time>2026-04-18T09:09:14.999Z</time></trkpt><trkpt lat="43.3879944" lon="12.8265392"><ele>435.0</ele><time>2026-04-18T09:09:16.001Z</time></trkpt><trkpt lat="43.3880213" lon="12.8264336"><ele>435.0</ele><time>2026-04-18T09:09:16.988Z</time></trkpt><trkpt lat="43.3880494" lon="12.8263269"><ele>435.00000000000006</ele><time>2026-04-18T09:09:18.008Z</time></trkpt><trkpt lat="43.3880774" lon="12.8262472"><ele>435.0</ele><time>2026-04-18T09:09:18.987Z</time></trkpt><trkpt lat="43.3881234" lon="12.8261529"><ele>435.0</ele><time>2026-04-18T09:09:21.004Z</time></trkpt><trkpt lat="43.3880857" lon="12.8262228"><ele>435.0</ele><time>2026-04-18T09:09:40.007Z</time></trkpt><trkpt lat="43.3880656" lon="12.8263129"><ele>435.0</ele><time>2026-04-18T09:09:41.998Z</time></trkpt><trkpt lat="43.388033" lon="12.8264214"><ele>435.0</ele><time>2026-04-18T09:09:44.001Z</time></trkpt><trkpt lat="43.3879957" lon="12.8265615"><ele>435.0</ele><time>2026-04-18T09:09:45.999Z</time></trkpt><trkpt lat="43.3879736" lon="12.8266522"><ele>435.0</ele><time>2026-04-18T09:09:46.988Z</time></trkpt><trkpt lat="43.3879546" lon="12.8267465"><ele>435.0</ele><time>2026-04-18T09:09:48Z</time></trkpt><trkpt lat="43.3879364" lon="12.8268329"><ele>435.0</ele><time>2026-04-18T09:09:48.985Z</time></trkpt><trkpt lat="43.3879206" lon="12.8269367"><ele>435.0</ele><time>2026-04-18T09:09:50.998Z</time></trkpt><trkpt lat="43.3879902" lon="12.8269403"><ele>435.0</ele><time>2026-04-18T09:09:54.001Z</time></trkpt><trkpt lat="43.3881063" lon="12.8268545"><ele>435.0</ele><time>2026-04-18T09:09:55.991Z</time></trkpt><trkpt lat="43.3881859" lon="12.8268193"><ele>435.0</ele><time>2026-04-18T09:09:56.991Z</time></trkpt><trkpt lat="43.388272" lon="12.8267853"><ele>435.0</ele><time>2026-04-18T09:09:57.994Z</time></trkpt><trkpt lat="43.388357" lon="12.82676"><ele>435.0</ele><time>2026-04-18T09:09:58.993Z</time></trkpt><trkpt lat="43.3884566" lon="12.8267255"><ele>435.0</ele><time>2026-04-18T09:09:59.994Z</time></trkpt><trkpt lat="43.3885642" lon="12.826683"><ele>435.0</ele><time>2026-04-18T09:10:00.993Z</time></trkpt><trkpt lat="43.3886678" lon="12.8266455"><ele>435.0</ele><time>2026-04-18T09:10:01.996Z</time></trkpt><trkpt lat="43.3887791" lon="12.8266021"><ele>436.75</ele><time>2026-04-18T09:10:02.997Z</time></trkpt><trkpt lat="43.388893" lon="12.8265522"><ele>438.5</ele><time>2026-04-18T09:10:03.992Z</time></trkpt><trkpt lat="43.3890067" lon="12.8265074"><ele>440.25</ele><time>2026-04-18T09:10:04.986Z</time></trkpt><trkpt lat="43.3891251" lon="12.8264658"><ele>442.0</ele><time>2026-04-18T09:10:05.999Z</time></trkpt><trkpt lat="43.3892407" lon="12.8264313"><ele>442.0</ele><time>2026-04-18T09:10:06.991Z</time></trkpt><trkpt lat="43.389349" lon="12.8263943"><ele>442.00000000000006</ele><time>2026-04-18T09:10:07.992Z</time></trkpt><trkpt lat="43.3894542" lon="12.8263597"><ele>442.00000000000006</ele><time>2026-04-18T09:10:08.994Z</time></trkpt><trkpt lat="43.389547" lon="12.826321"><ele>442.0</ele><time>2026-04-18T09:10:09.991Z</time></trkpt><trkpt lat="43.3896266" lon="12.8262852"><ele>442.0</ele><time>2026-04-18T09:10:10.993Z</time></trkpt><trkpt lat="43.3896933" lon="12.826256"><ele>442.6</ele><time>2026-04-18T09:10:11.983Z</time></trkpt><trkpt lat="43.3897537" lon="12.8261335"><ele>443.20000000000005</ele><time>2026-04-18T09:10:13.995Z</time></trkpt><trkpt lat="43.3896823" lon="12.8259866"><ele>443.8</ele><time>2026-04-18T09:10:15.997Z</time></trkpt><trkpt lat="43.3896359" lon="12.8258794"><ele>444.4</ele><time>2026-04-18T09:10:16.993Z</time></trkpt><trkpt lat="43.3895885" lon="12.8257635"><ele>445.0</ele><time>2026-04-18T09:10:17.997Z</time></trkpt><trkpt lat="43.3895383" lon="12.8256386"><ele>445.0</ele><time>2026-04-18T09:10:18.995Z</time></trkpt><trkpt lat="43.3894896" lon="12.8255097"><ele>445.0</ele><time>2026-04-18T09:10:20.003Z</time></trkpt><trkpt lat="43.3894419" lon="12.8253781"><ele>445.0</ele><time>2026-04-18T09:10:20.998Z</time></trkpt><trkpt lat="43.3893924" lon="12.8252318"><ele>445.0</ele><time>2026-04-18T09:10:22.001Z</time></trkpt><trkpt lat="43.3893365" lon="12.8250841"><ele>447.5</ele><time>2026-04-18T09:10:22.993Z</time></trkpt><trkpt lat="43.38927" lon="12.8249278"><ele>450.0</ele><time>2026-04-18T09:10:24.001Z</time></trkpt><trkpt lat="43.3892088" lon="12.824766"><ele>452.5</ele><time>2026-04-18T09:10:25.002Z</time></trkpt><trkpt lat="43.3891497" lon="12.8245998"><ele>455.0</ele><time>2026-04-18T09:10:25.997Z</time></trkpt><trkpt lat="43.3890951" lon="12.8244471"><ele>457.2</ele><time>2026-04-18T09:10:26.991Z</time></trkpt><trkpt lat="43.3890476" lon="12.8243024"><ele>459.4</ele><time>2026-04-18T09:10:27.993Z</time></trkpt><trkpt lat="43.3890164" lon="12.8241747"><ele>461.6</ele><time>2026-04-18T09:10:28.991Z</time></trkpt><trkpt lat="43.389" lon="12.8240686"><ele>463.8</ele><time>2026-04-18T09:10:30.002Z</time></trkpt><trkpt lat="43.3889921" lon="12.8239617"><ele>466.0</ele><time>2026-04-18T09:10:30.984Z</time></trkpt><trkpt lat="43.3890059" lon="12.823842"><ele>466.0</ele><time>2026-04-18T09:10:31.989Z</time></trkpt><trkpt lat="43.3890435" lon="12.8237172"><ele>466.0</ele><time>2026-04-18T09:10:32.988Z</time></trkpt><trkpt lat="43.3890806" lon="12.823596"><ele>466.0</ele><time>2026-04-18T09:10:33.994Z</time></trkpt><trkpt lat="43.3891052" lon="12.8234478"><ele>466.0</ele><time>2026-04-18T09:10:34.986Z</time></trkpt><trkpt lat="43.389116" lon="12.8232762"><ele>466.0</ele><time>2026-04-18T09:10:35.994Z</time></trkpt><trkpt lat="43.389123" lon="12.8231319"><ele>466.4</ele><time>2026-04-18T09:10:36.988Z</time></trkpt><trkpt lat="43.3890976" lon="12.8230055"><ele>466.8</ele><time>2026-04-18T09:10:37.992Z</time></trkpt><trkpt lat="43.3890444" lon="12.8228924"><ele>467.19999999999993</ele><time>2026-04-18T09:10:38.989Z</time></trkpt><trkpt lat="43.388943" lon="12.8228231"><ele>467.59999999999997</ele><time>2026-04-18T09:10:39.992Z</time></trkpt><trkpt lat="43.3888118" lon="12.8228076"><ele>468.0</ele><time>2026-04-18T09:10:40.994Z</time></trkpt><trkpt lat="43.3886982" lon="12.822805"><ele>468.0</ele><time>2026-04-18T09:10:42.002Z</time></trkpt><trkpt lat="43.3885943" lon="12.8228082"><ele>467.99999999999994</ele><time>2026-04-18T09:10:42.994Z</time></trkpt><trkpt lat="43.388499" lon="12.8228102"><ele>467.99999999999994</ele><time>2026-04-18T09:10:44.001Z</time></trkpt><trkpt lat="43.3884373" lon="12.8227197"><ele>468.0</ele><time>2026-04-18T09:10:45.998Z</time></trkpt><trkpt lat="43.388507" lon="12.8226837"><ele>468.0</ele><time>2026-04-18T09:10:47.999Z</time></trkpt><trkpt lat="43.3886236" lon="12.8226468"><ele>471.5</ele><time>2026-04-18T09:10:49.999Z</time></trkpt><trkpt lat="43.3887024" lon="12.8226125"><ele>475.0</ele><time>2026-04-18T09:10:50.991Z</time></trkpt><trkpt lat="43.3887888" lon="12.8225863"><ele>478.5</ele><time>2026-04-18T09:10:51.994Z</time></trkpt><trkpt lat="43.3888695" lon="12.8225681"><ele>482.0</ele><time>2026-04-18T09:10:52.997Z</time></trkpt><trkpt lat="43.3889533" lon="12.8225508"><ele>485.5</ele><time>2026-04-18T09:10:54.004Z</time></trkpt><trkpt lat="43.3890365" lon="12.822528"><ele>489.0</ele><time>2026-04-18T09:10:54.999Z</time></trkpt><trkpt lat="43.3891036" lon="12.8225205"><ele>489.4</ele><time>2026-04-18T09:10:55.996Z</time></trkpt><trkpt lat="43.3892151" lon="12.8225081"><ele>489.79999999999995</ele><time>2026-04-18T09:10:57.994Z</time></trkpt><trkpt lat="43.3892873" lon="12.82243"><ele>490.20000000000005</ele><time>2026-04-18T09:11:00.002Z</time></trkpt><trkpt lat="43.3893198" lon="12.8223065"><ele>490.6</ele><time>2026-04-18T09:11:01.991Z</time></trkpt><trkpt lat="43.3893133" lon="12.8221754"><ele>491.0</ele><time>2026-04-18T09:11:03.994Z</time></trkpt><trkpt lat="43.3893183" lon="12.8220082"><ele>491.0</ele><time>2026-04-18T09:11:06.003Z</time></trkpt><trkpt lat="43.3893259" lon="12.8219109"><ele>491.0</ele><time>2026-04-18T09:11:06.994Z</time></trkpt><trkpt lat="43.3893449" lon="12.8218232"><ele>491.0</ele><time>2026-04-18T09:11:07.996Z</time></trkpt><trkpt lat="43.3894308" lon="12.8216977"><ele>491.0</ele><time>2026-04-18T09:11:09.992Z</time></trkpt><trkpt lat="43.3895384" lon="12.8216003"><ele>491.0</ele><time>2026-04-18T09:11:11.986Z</time></trkpt><trkpt lat="43.3895902" lon="12.8215437"><ele>494.71428571428567</ele><time>2026-04-18T09:11:12.987Z</time></trkpt><trkpt lat="43.3896419" lon="12.8214804"><ele>498.4285714285714</ele><time>2026-04-18T09:11:14.001Z</time></trkpt><trkpt lat="43.3896918" lon="12.821423"><ele>502.1428571428571</ele><time>2026-04-18T09:11:14.994Z</time></trkpt><trkpt lat="43.3897457" lon="12.8213651"><ele>505.8571428571429</ele><time>2026-04-18T09:11:15.991Z</time></trkpt><trkpt lat="43.3897933" lon="12.8213043"><ele>509.5714285714286</ele><time>2026-04-18T09:11:16.993Z</time></trkpt><trkpt lat="43.389883" lon="12.8212017"><ele>513.2857142857143</ele><time>2026-04-18T09:11:18.991Z</time></trkpt><trkpt lat="43.3899344" lon="12.8211466"><ele>517.0</ele><time>2026-04-18T09:11:19.997Z</time></trkpt><trkpt lat="43.3899909" lon="12.8210946"><ele>517.0</ele><time>2026-04-18T09:11:20.993Z</time></trkpt><trkpt lat="43.3900959" lon="12.8210067"><ele>517.0</ele><time>2026-04-18T09:11:22.988Z</time></trkpt><trkpt lat="43.3901644" lon="12.8209775"><ele>517.0</ele><time>2026-04-18T09:11:23.992Z</time></trkpt><trkpt lat="43.3902345" lon="12.8209541"><ele>517.0</ele><time>2026-04-18T09:11:24.989Z</time></trkpt><trkpt lat="43.390301" lon="12.8209243"><ele>517.0</ele><time>2026-04-18T09:11:26.004Z</time></trkpt><trkpt lat="43.390362" lon="12.8208894"><ele>517.0</ele><time>2026-04-18T09:11:26.989Z</time></trkpt><trkpt lat="43.3904253" lon="12.8208434"><ele>522.8333333333334</ele><time>2026-04-18T09:11:27.999Z</time></trkpt><trkpt lat="43.3904945" lon="12.8208076"><ele>528.6666666666667</ele><time>2026-04-18T09:11:28.993Z</time></trkpt><trkpt lat="43.390565" lon="12.8207862"><ele>534.5</ele><time>2026-04-18T09:11:29.994Z</time></trkpt><trkpt lat="43.390636" lon="12.8207746"><ele>540.3333333333334</ele><time>2026-04-18T09:11:30.991Z</time></trkpt><trkpt lat="43.3907065" lon="12.8207635"><ele>546.1666666666666</ele><time>2026-04-18T09:11:31.991Z</time></trkpt><trkpt lat="43.3907719" lon="12.8207436"><ele>552.0</ele><time>2026-04-18T09:11:32.994Z</time></trkpt><trkpt lat="43.3908824" lon="12.8206491"><ele>552.0</ele><time>2026-04-18T09:11:34.989Z</time></trkpt><trkpt lat="43.3909386" lon="12.8205837"><ele>552.0</ele><time>2026-04-18T09:11:35.99Z</time></trkpt><trkpt lat="43.391001" lon="12.8205112"><ele>552.0</ele><time>2026-04-18T09:11:36.988Z</time></trkpt><trkpt lat="43.391053" lon="12.8204515"><ele>552.0</ele><time>2026-04-18T09:11:38.004Z</time></trkpt><trkpt lat="43.3910976" lon="12.8203882"><ele>552.0</ele><time>2026-04-18T09:11:39Z</time></trkpt><trkpt lat="43.3911747" lon="12.8202547"><ele>552.0</ele><time>2026-04-18T09:11:40.987Z</time></trkpt><trkpt lat="43.3912172" lon="12.8201833"><ele>556.3333333333334</ele><time>2026-04-18T09:11:41.989Z</time></trkpt><trkpt lat="43.3912842" lon="12.8201033"><ele>560.6666666666666</ele><time>2026-04-18T09:11:42.986Z</time></trkpt><trkpt lat="43.3913393" lon="12.8200311"><ele>565.0</ele><time>2026-04-18T09:11:43.994Z</time></trkpt><trkpt lat="43.3913972" lon="12.8199782"><ele>569.3333333333333</ele><time>2026-04-18T09:11:44.997Z</time></trkpt><trkpt lat="43.3914546" lon="12.8199341"><ele>573.6666666666666</ele><time>2026-04-18T09:11:45.991Z</time></trkpt><trkpt lat="43.3915133" lon="12.819901"><ele>578.0</ele><time>2026-04-18T09:11:46.995Z</time></trkpt><trkpt lat="43.3916373" lon="12.8198292"><ele>578.0</ele><time>2026-04-18T09:11:48.994Z</time></trkpt><trkpt lat="43.3917173" lon="12.8197789"><ele>578.0</ele><time>2026-04-18T09:11:49.986Z</time></trkpt><trkpt lat="43.3917962" lon="12.8197242"><ele>578.0</ele><time>2026-04-18T09:11:50.989Z</time></trkpt><trkpt lat="43.3918784" lon="12.8196631"><ele>578.0</ele><time>2026-04-18T09:11:51.992Z</time></trkpt><trkpt lat="43.3919631" lon="12.8196002"><ele>578.0</ele><time>2026-04-18T09:11:52.999Z</time></trkpt><trkpt lat="43.3920348" lon="12.8195385"><ele>578.0</ele><time>2026-04-18T09:11:53.994Z</time></trkpt><trkpt lat="43.3920996" lon="12.8194714"><ele>578.0</ele><time>2026-04-18T09:11:54.987Z</time></trkpt><trkpt lat="43.392159" lon="12.8194004"><ele>578.0</ele><time>2026-04-18T09:11:55.995Z</time></trkpt><trkpt lat="43.3922274" lon="12.8193255"><ele>578.0</ele><time>2026-04-18T09:11:56.991Z</time></trkpt><trkpt lat="43.3923004" lon="12.8192509"><ele>578.0</ele><time>2026-04-18T09:11:57.998Z</time></trkpt><trkpt lat="43.3923683" lon="12.8191905"><ele>578.0</ele><time>2026-04-18T09:11:58.996Z</time></trkpt><trkpt lat="43.3924644" lon="12.8191352"><ele>583.1666666666666</ele><time>2026-04-18T09:12:00.985Z</time></trkpt><trkpt lat="43.3925423" lon="12.8190802"><ele>588.3333333333333</ele><time>2026-04-18T09:12:02.992Z</time></trkpt><trkpt lat="43.3926416" lon="12.8190176"><ele>593.5</ele><time>2026-04-18T09:12:04.994Z</time></trkpt><trkpt lat="43.3926976" lon="12.8189742"><ele>598.6666666666666</ele><time>2026-04-18T09:12:05.991Z</time></trkpt><trkpt lat="43.3927516" lon="12.8189292"><ele>603.8333333333334</ele><time>2026-04-18T09:12:06.99Z</time></trkpt><trkpt lat="43.3928151" lon="12.8188791"><ele>609.0</ele><time>2026-04-18T09:12:07.999Z</time></trkpt><trkpt lat="43.3928812" lon="12.8188184"><ele>609.0</ele><time>2026-04-18T09:12:08.987Z</time></trkpt><trkpt lat="43.3929522" lon="12.8187499"><ele>609.0</ele><time>2026-04-18T09:12:09.991Z</time></trkpt><trkpt lat="43.3930302" lon="12.8186762"><ele>609.0</ele><time>2026-04-18T09:12:10.985Z</time></trkpt><trkpt lat="43.3931206" lon="12.8186074"><ele>609.0</ele><time>2026-04-18T09:12:11.998Z</time></trkpt><trkpt lat="43.3932202" lon="12.8185483"><ele>609.0</ele><time>2026-04-18T09:12:12.993Z</time></trkpt><trkpt lat="43.3933172" lon="12.8184816"><ele>614.2</ele><time>2026-04-18T09:12:13.991Z</time></trkpt><trkpt lat="43.3934131" lon="12.8184104"><ele>619.4</ele><time>2026-04-18T09:12:14.989Z</time></trkpt><trkpt lat="43.3935082" lon="12.818339"><ele>624.6</ele><time>2026-04-18T09:12:15.992Z</time></trkpt><trkpt lat="43.3935992" lon="12.8182643"><ele>629.8</ele><time>2026-04-18T09:12:16.99Z</time></trkpt><trkpt lat="43.3936905" lon="12.8181868"><ele>635.0</ele><time>2026-04-18T09:12:17.996Z</time></trkpt><trkpt lat="43.3937737" lon="12.8181197"><ele>634.1428571428571</ele><time>2026-04-18T09:12:18.988Z</time></trkpt><trkpt lat="43.393847" lon="12.8180559"><ele>633.2857142857142</ele><time>2026-04-18T09:12:19.989Z</time></trkpt><trkpt lat="43.3939138" lon="12.8179937"><ele>632.4285714285713</ele><time>2026-04-18T09:12:20.982Z</time></trkpt><trkpt lat="43.3939661" lon="12.8179222"><ele>631.5714285714286</ele><time>2026-04-18T09:12:21.996Z</time></trkpt><trkpt lat="43.3940131" lon="12.8178556"><ele>630.7142857142858</ele><time>2026-04-18T09:12:22.982Z</time></trkpt><trkpt lat="43.3940486" lon="12.8177813"><ele>629.8571428571428</ele><time>2026-04-18T09:12:24.003Z</time></trkpt><trkpt lat="43.3940754" lon="12.8176876"><ele>629.0</ele><time>2026-04-18T09:12:24.999Z</time></trkpt><trkpt lat="43.3940931" lon="12.8175876"><ele>631.3333333333333</ele><time>2026-04-18T09:12:25.987Z</time></trkpt><trkpt lat="43.3941054" lon="12.8174772"><ele>633.6666666666666</ele><time>2026-04-18T09:12:26.984Z</time></trkpt><trkpt lat="43.3940735" lon="12.8173545"><ele>636.0</ele><time>2026-04-18T09:12:28.99Z</time></trkpt><trkpt lat="43.3940073" lon="12.8172706"><ele>638.3333333333334</ele><time>2026-04-18T09:12:31.99Z</time></trkpt><trkpt lat="43.3939396" lon="12.8172115"><ele>640.6666666666667</ele><time>2026-04-18T09:12:33.993Z</time></trkpt><trkpt lat="43.3938623" lon="12.817153"><ele>643.0</ele><time>2026-04-18T09:12:35.999Z</time></trkpt><trkpt lat="43.3937652" lon="12.8171012"><ele>645.8</ele><time>2026-04-18T09:12:37.998Z</time></trkpt><trkpt lat="43.393655" lon="12.817053"><ele>648.5999999999999</ele><time>2026-04-18T09:12:39.992Z</time></trkpt><trkpt lat="43.3935523" lon="12.8169785"><ele>651.4000000000001</ele><time>2026-04-18T09:12:41.991Z</time></trkpt><trkpt lat="43.3934524" lon="12.8168901"><ele>654.2</ele><time>2026-04-18T09:12:43.997Z</time></trkpt><trkpt lat="43.3934014" lon="12.8168378"><ele>657.0</ele><time>2026-04-18T09:12:44.989Z</time></trkpt><trkpt lat="43.3933132" lon="12.816752"><ele>658.8333333333334</ele><time>2026-04-18T09:12:46.991Z</time></trkpt><trkpt lat="43.3932433" lon="12.8166118"><ele>660.6666666666666</ele><time>2026-04-18T09:12:48.985Z</time></trkpt><trkpt lat="43.3932074" lon="12.8165347"><ele>662.5</ele><time>2026-04-18T09:12:49.995Z</time></trkpt><trkpt lat="43.3931567" lon="12.8164571"><ele>664.3333333333333</ele><time>2026-04-18T09:12:50.988Z</time></trkpt><trkpt lat="43.3930941" lon="12.8163837"><ele>666.1666666666666</ele><time>2026-04-18T09:12:51.991Z</time></trkpt><trkpt lat="43.3930178" lon="12.8163129"><ele>668.0</ele><time>2026-04-18T09:12:52.997Z</time></trkpt><trkpt lat="43.3929501" lon="12.8162348"><ele>668.1666666666666</ele><time>2026-04-18T09:12:53.999Z</time></trkpt><trkpt lat="43.3928889" lon="12.8161626"><ele>668.3333333333333</ele><time>2026-04-18T09:12:54.991Z</time></trkpt><trkpt lat="43.3928282" lon="12.8160809"><ele>668.5</ele><time>2026-04-18T09:12:56.003Z</time></trkpt><trkpt lat="43.3927706" lon="12.8159849"><ele>668.6666666666666</ele><time>2026-04-18T09:12:56.991Z</time></trkpt><trkpt lat="43.3927155" lon="12.8158764"><ele>668.8333333333334</ele><time>2026-04-18T09:12:57.989Z</time></trkpt><trkpt lat="43.3926654" lon="12.8157675"><ele>669.0</ele><time>2026-04-18T09:12:58.987Z</time></trkpt><trkpt lat="43.3926206" lon="12.8156512"><ele>671.8000000000001</ele><time>2026-04-18T09:12:59.998Z</time></trkpt><trkpt lat="43.3925793" lon="12.8155404"><ele>674.6</ele><time>2026-04-18T09:13:00.994Z</time></trkpt><trkpt lat="43.3925314" lon="12.8154272"><ele>677.4</ele><time>2026-04-18T09:13:01.999Z</time></trkpt><trkpt lat="43.3924797" lon="12.8153104"><ele>680.2</ele><time>2026-04-18T09:13:02.994Z</time></trkpt><trkpt lat="43.3924277" lon="12.8151944"><ele>683.0</ele><time>2026-04-18T09:13:04.005Z</time></trkpt><trkpt lat="43.3923864" lon="12.815075"><ele>684.2</ele><time>2026-04-18T09:13:04.987Z</time></trkpt><trkpt lat="43.392345" lon="12.8149468"><ele>685.4</ele><time>2026-04-18T09:13:05.993Z</time></trkpt><trkpt lat="43.3923001" lon="12.8148276"><ele>686.6</ele><time>2026-04-18T09:13:06.993Z</time></trkpt><trkpt lat="43.3922566" lon="12.8147107"><ele>687.8000000000001</ele><time>2026-04-18T09:13:08.001Z</time></trkpt><trkpt lat="43.3922112" lon="12.8145957"><ele>689.0</ele><time>2026-04-18T09:13:08.992Z</time></trkpt><trkpt lat="43.3921651" lon="12.8144818"><ele>689.0</ele><time>2026-04-18T09:13:09.987Z</time></trkpt><trkpt lat="43.3921221" lon="12.814363"><ele>689.0</ele><time>2026-04-18T09:13:11.001Z</time></trkpt><trkpt lat="43.3920847" lon="12.8142521"><ele>689.0</ele><time>2026-04-18T09:13:11.984Z</time></trkpt><trkpt lat="43.3920473" lon="12.8141349"><ele>689.0</ele><time>2026-04-18T09:13:13.004Z</time></trkpt><trkpt lat="43.3920162" lon="12.8140097"><ele>689.0</ele><time>2026-04-18T09:13:13.993Z</time></trkpt><trkpt lat="43.3919864" lon="12.8138831"><ele>690.6666666666666</ele><time>2026-04-18T09:13:14.985Z</time></trkpt><trkpt lat="43.3919485" lon="12.8137587"><ele>692.3333333333333</ele><time>2026-04-18T09:13:15.994Z</time></trkpt><trkpt lat="43.3919025" lon="12.8136434"><ele>694.0</ele><time>2026-04-18T09:13:16.992Z</time></trkpt><trkpt lat="43.3918435" lon="12.8135409"><ele>695.6666666666666</ele><time>2026-04-18T09:13:18Z</time></trkpt><trkpt lat="43.3917986" lon="12.813455"><ele>697.3333333333334</ele><time>2026-04-18T09:13:18.99Z</time></trkpt><trkpt lat="43.391755" lon="12.8133589"><ele>699.0</ele><time>2026-04-18T09:13:19.993Z</time></trkpt><trkpt lat="43.3917075" lon="12.8132552"><ele>699.6</ele><time>2026-04-18T09:13:20.993Z</time></trkpt><trkpt lat="43.3916579" lon="12.8131402"><ele>700.2</ele><time>2026-04-18T09:13:21.989Z</time></trkpt><trkpt lat="43.3916004" lon="12.8130198"><ele>700.8000000000001</ele><time>2026-04-18T09:13:23.003Z</time></trkpt><trkpt lat="43.3915484" lon="12.8129052"><ele>701.4000000000001</ele><time>2026-04-18T09:13:23.997Z</time></trkpt><trkpt lat="43.3915023" lon="12.8128022"><ele>702.0</ele><time>2026-04-18T09:13:24.994Z</time></trkpt><trkpt lat="43.3914508" lon="12.8126958"><ele>702.1666666666666</ele><time>2026-04-18T09:13:25.992Z</time></trkpt><trkpt lat="43.3914032" lon="12.8125883"><ele>702.3333333333334</ele><time>2026-04-18T09:13:26.996Z</time></trkpt><trkpt lat="43.3913562" lon="12.8124936"><ele>702.5</ele><time>2026-04-18T09:13:27.991Z</time></trkpt><trkpt lat="43.3913082" lon="12.8123976"><ele>702.6666666666667</ele><time>2026-04-18T09:13:28.995Z</time></trkpt><trkpt lat="43.3912631" lon="12.8122944"><ele>702.8333333333334</ele><time>2026-04-18T09:13:30.003Z</time></trkpt><trkpt lat="43.3912193" lon="12.8121961"><ele>703.0</ele><time>2026-04-18T09:13:30.987Z</time></trkpt><trkpt lat="43.3911659" lon="12.8120946"><ele>703.0</ele><time>2026-04-18T09:13:31.988Z</time></trkpt><trkpt lat="43.3911086" lon="12.8119792"><ele>703.0</ele><time>2026-04-18T09:13:32.993Z</time></trkpt><trkpt lat="43.3910554" lon="12.8118693"><ele>703.0</ele><time>2026-04-18T09:13:33.995Z</time></trkpt><trkpt lat="43.3910027" lon="12.8117506"><ele>703.0</ele><time>2026-04-18T09:13:35.002Z</time></trkpt><trkpt lat="43.3909479" lon="12.8116334"><ele>703.0</ele><time>2026-04-18T09:13:35.997Z</time></trkpt><trkpt lat="43.3908881" lon="12.8115144"><ele>704.2</ele><time>2026-04-18T09:13:36.981Z</time></trkpt><trkpt lat="43.3908343" lon="12.811394"><ele>705.4</ele><time>2026-04-18T09:13:37.995Z</time></trkpt><trkpt lat="43.390788" lon="12.8112724"><ele>706.6</ele><time>2026-04-18T09:13:38.99Z</time></trkpt><trkpt lat="43.3907403" lon="12.8111428"><ele>707.8000000000001</ele><time>2026-04-18T09:13:40.008Z</time></trkpt><trkpt lat="43.390689" lon="12.8110112"><ele>709.0</ele><time>2026-04-18T09:13:40.992Z</time></trkpt><trkpt lat="43.3906303" lon="12.8108669"><ele>709.25</ele><time>2026-04-18T09:13:41.995Z</time></trkpt><trkpt lat="43.3905685" lon="12.8107223"><ele>709.5</ele><time>2026-04-18T09:13:42.984Z</time></trkpt><trkpt lat="43.3905237" lon="12.8105758"><ele>709.75</ele><time>2026-04-18T09:13:43.991Z</time></trkpt><trkpt lat="43.3904889" lon="12.8104209"><ele>710.0</ele><time>2026-04-18T09:13:44.988Z</time></trkpt><trkpt lat="43.3904516" lon="12.8102702"><ele>710.4</ele><time>2026-04-18T09:13:45.993Z</time></trkpt><trkpt lat="43.3904077" lon="12.8101259"><ele>710.8</ele><time>2026-04-18T09:13:47.009Z</time></trkpt><trkpt lat="43.3903604" lon="12.8099807"><ele>711.2</ele><time>2026-04-18T09:13:48Z</time></trkpt><trkpt lat="43.3903109" lon="12.8098367"><ele>711.6</ele><time>2026-04-18T09:13:48.99Z</time></trkpt><trkpt lat="43.3902666" lon="12.8097079"><ele>712.0</ele><time>2026-04-18T09:13:49.992Z</time></trkpt><trkpt lat="43.390227" lon="12.8096028"><ele>712.0</ele><time>2026-04-18T09:13:50.993Z</time></trkpt><trkpt lat="43.3901749" lon="12.8095144"><ele>712.0</ele><time>2026-04-18T09:13:51.994Z</time></trkpt><trkpt lat="43.3901282" lon="12.8094253"><ele>712.0</ele><time>2026-04-18T09:13:52.982Z</time></trkpt><trkpt lat="43.3900778" lon="12.8093347"><ele>712.0</ele><time>2026-04-18T09:13:54Z</time></trkpt><trkpt lat="43.3900129" lon="12.8092285"><ele>712.0</ele><time>2026-04-18T09:13:54.994Z</time></trkpt><trkpt lat="43.3899414" lon="12.8091208"><ele>712.1666666666667</ele><time>2026-04-18T09:13:56.012Z</time></trkpt><trkpt lat="43.3898689" lon="12.8090223"><ele>712.3333333333334</ele><time>2026-04-18T09:13:56.992Z</time></trkpt><trkpt lat="43.3898141" lon="12.8089415"><ele>712.5</ele><time>2026-04-18T09:13:57.991Z</time></trkpt><trkpt lat="43.3897592" lon="12.8088849"><ele>712.6666666666666</ele><time>2026-04-18T09:13:58.99Z</time></trkpt><trkpt lat="43.3897023" lon="12.8088212"><ele>712.8333333333333</ele><time>2026-04-18T09:13:59.993Z</time></trkpt><trkpt lat="43.3896516" lon="12.8087461"><ele>713.0</ele><time>2026-04-18T09:14:01.005Z</time></trkpt><trkpt lat="43.3896116" lon="12.8086543"><ele>712.5</ele><time>2026-04-18T09:14:02Z</time></trkpt><trkpt lat="43.3895757" lon="12.8085504"><ele>712.0</ele><time>2026-04-18T09:14:02.996Z</time></trkpt><trkpt lat="43.3895479" lon="12.8084367"><ele>711.5</ele><time>2026-04-18T09:14:03.994Z</time></trkpt><trkpt lat="43.3895287" lon="12.8083189"><ele>711.0</ele><time>2026-04-18T09:14:04.985Z</time></trkpt><trkpt lat="43.3895054" lon="12.8082171"><ele>710.5</ele><time>2026-04-18T09:14:05.995Z</time></trkpt><trkpt lat="43.3894684" lon="12.8081277"><ele>710.0</ele><time>2026-04-18T09:14:06.997Z</time></trkpt><trkpt lat="43.3894276" lon="12.8080517"><ele>710.0</ele><time>2026-04-18T09:14:07.992Z</time></trkpt><trkpt lat="43.3893786" lon="12.8079952"><ele>710.0</ele><time>2026-04-18T09:14:08.995Z</time></trkpt><trkpt lat="43.3892722" lon="12.8078911"><ele>710.0</ele><time>2026-04-18T09:14:10.992Z</time></trkpt><trkpt lat="43.3892239" lon="12.8078105"><ele>710.0</ele><time>2026-04-18T09:14:11.991Z</time></trkpt><trkpt lat="43.3891778" lon="12.8077166"><ele>710.0</ele><time>2026-04-18T09:14:12.984Z</time></trkpt><trkpt lat="43.3891277" lon="12.8076123"><ele>710.0</ele><time>2026-04-18T09:14:13.991Z</time></trkpt><trkpt lat="43.3890778" lon="12.8075089"><ele>710.8</ele><time>2026-04-18T09:14:14.995Z</time></trkpt><trkpt lat="43.3890321" lon="12.8074081"><ele>711.6</ele><time>2026-04-18T09:14:15.996Z</time></trkpt><trkpt lat="43.3889924" lon="12.8072979"><ele>712.4000000000001</ele><time>2026-04-18T09:14:16.988Z</time></trkpt><trkpt lat="43.3889624" lon="12.8071731"><ele>713.2</ele><time>2026-04-18T09:14:18.006Z</time></trkpt><trkpt lat="43.3889209" lon="12.8070325"><ele>714.0</ele><time>2026-04-18T09:14:18.995Z</time></trkpt><trkpt lat="43.3888799" lon="12.8069003"><ele>712.6</ele><time>2026-04-18T09:14:19.995Z</time></trkpt><trkpt lat="43.3888422" lon="12.8067732"><ele>711.2</ele><time>2026-04-18T09:14:20.994Z</time></trkpt><trkpt lat="43.3887965" lon="12.80666"><ele>709.8000000000001</ele><time>2026-04-18T09:14:21.993Z</time></trkpt><trkpt lat="43.388748" lon="12.8065728"><ele>708.4000000000001</ele><time>2026-04-18T09:14:22.985Z</time></trkpt><trkpt lat="43.3886844" lon="12.806497"><ele>707.0</ele><time>2026-04-18T09:14:23.988Z</time></trkpt><trkpt lat="43.3886105" lon="12.806408"><ele>707.0</ele><time>2026-04-18T09:14:24.983Z</time></trkpt><trkpt lat="43.3885457" lon="12.8063277"><ele>707.0</ele><time>2026-04-18T09:14:25.995Z</time></trkpt><trkpt lat="43.3884792" lon="12.806248"><ele>707.0</ele><time>2026-04-18T09:14:26.989Z</time></trkpt><trkpt lat="43.3884206" lon="12.8061668"><ele>707.0</ele><time>2026-04-18T09:14:27.988Z</time></trkpt><trkpt lat="43.388369" lon="12.8060878"><ele>707.0</ele><time>2026-04-18T09:14:28.993Z</time></trkpt><trkpt lat="43.3883229" lon="12.8060063"><ele>707.0</ele><time>2026-04-18T09:14:29.991Z</time></trkpt><trkpt lat="43.3882805" lon="12.805921"><ele>707.0</ele><time>2026-04-18T09:14:30.994Z</time></trkpt><trkpt lat="43.3882231" lon="12.8058503"><ele>707.0</ele><time>2026-04-18T09:14:31.999Z</time></trkpt><trkpt lat="43.3881633" lon="12.8057847"><ele>707.0</ele><time>2026-04-18T09:14:32.99Z</time></trkpt><trkpt lat="43.3881052" lon="12.8057083"><ele>707.0</ele><time>2026-04-18T09:14:33.996Z</time></trkpt><trkpt lat="43.3880393" lon="12.8056063"><ele>707.0</ele><time>2026-04-18T09:14:34.999Z</time></trkpt><trkpt lat="43.3879713" lon="12.8054967"><ele>707.0</ele><time>2026-04-18T09:14:35.997Z</time></trkpt><trkpt lat="43.3878998" lon="12.8053857"><ele>706.2</ele><time>2026-04-18T09:14:36.99Z</time></trkpt><trkpt lat="43.3878373" lon="12.8052804"><ele>705.4000000000001</ele><time>2026-04-18T09:14:38.001Z</time></trkpt><trkpt lat="43.3877649" lon="12.8051742"><ele>704.5999999999999</ele><time>2026-04-18T09:14:38.99Z</time></trkpt><trkpt lat="43.3876896" lon="12.8050688"><ele>703.8</ele><time>2026-04-18T09:14:39.992Z</time></trkpt><trkpt lat="43.3876028" lon="12.804987"><ele>703.0</ele><time>2026-04-18T09:14:40.985Z</time></trkpt><trkpt lat="43.3875053" lon="12.8049254"><ele>704.3333333333334</ele><time>2026-04-18T09:14:41.995Z</time></trkpt><trkpt lat="43.387426" lon="12.8048789"><ele>705.6666666666667</ele><time>2026-04-18T09:14:42.99Z</time></trkpt><trkpt lat="43.3873542" lon="12.8048194"><ele>707.0</ele><time>2026-04-18T09:14:43.995Z</time></trkpt><trkpt lat="43.3872916" lon="12.8047647"><ele>708.3333333333334</ele><time>2026-04-18T09:14:44.995Z</time></trkpt><trkpt lat="43.387229" lon="12.8046959"><ele>709.6666666666666</ele><time>2026-04-18T09:14:45.991Z</time></trkpt><trkpt lat="43.3871605" lon="12.804613"><ele>711.0</ele><time>2026-04-18T09:14:46.987Z</time></trkpt><trkpt lat="43.3870906" lon="12.8045276"><ele>711.5</ele><time>2026-04-18T09:14:47.99Z</time></trkpt><trkpt lat="43.3870177" lon="12.8044348"><ele>712.0</ele><time>2026-04-18T09:14:48.987Z</time></trkpt><trkpt lat="43.3869528" lon="12.8043519"><ele>712.5</ele><time>2026-04-18T09:14:49.991Z</time></trkpt><trkpt lat="43.3868931" lon="12.8042766"><ele>713.0</ele><time>2026-04-18T09:14:50.99Z</time></trkpt><trkpt lat="43.3868494" lon="12.804203"><ele>713.5</ele><time>2026-04-18T09:14:51.988Z</time></trkpt><trkpt lat="43.3868078" lon="12.8041213"><ele>714.0</ele><time>2026-04-18T09:14:54.002Z</time></trkpt><trkpt lat="43.3867513" lon="12.8040432"><ele>718.2</ele><time>2026-04-18T09:15:16.99Z</time></trkpt><trkpt lat="43.3867043" lon="12.8039147"><ele>722.4000000000001</ele><time>2026-04-18T09:15:18.99Z</time></trkpt><trkpt lat="43.3866434" lon="12.8037827"><ele>726.6</ele><time>2026-04-18T09:15:20.987Z</time></trkpt><trkpt lat="43.3865963" lon="12.8036545"><ele>730.8</ele><time>2026-04-18T09:15:22.988Z</time></trkpt><trkpt lat="43.386557" lon="12.8035386"><ele>735.0</ele><time>2026-04-18T09:15:25.005Z</time></trkpt><trkpt lat="43.3865116" lon="12.8034491"><ele>735.0</ele><time>2026-04-18T09:15:26.994Z</time></trkpt><trkpt lat="43.3864408" lon="12.803417"><ele>735.0</ele><time>2026-04-18T09:15:29.995Z</time></trkpt><trkpt lat="43.3863624" lon="12.8034614"><ele>735.0</ele><time>2026-04-18T09:15:32.99Z</time></trkpt><trkpt lat="43.3862876" lon="12.8034768"><ele>735.0</ele><time>2026-04-18T09:15:34.996Z</time></trkpt><trkpt lat="43.3862006" lon="12.8034819"><ele>735.0</ele><time>2026-04-18T09:15:37.004Z</time></trkpt><trkpt lat="43.3861364" lon="12.8034736"><ele>735.0</ele><time>2026-04-18T09:15:37.985Z</time></trkpt><trkpt lat="43.3860208" lon="12.8034703"><ele>741.2</ele><time>2026-04-18T09:15:39.997Z</time></trkpt><trkpt lat="43.3859554" lon="12.803469"><ele>747.4</ele><time>2026-04-18T09:15:40.986Z</time></trkpt><trkpt lat="43.3858443" lon="12.803453"><ele>753.5999999999999</ele><time>2026-04-18T09:15:42.99Z</time></trkpt><trkpt lat="43.3857399" lon="12.8034331"><ele>759.8</ele><time>2026-04-18T09:15:44.994Z</time></trkpt><trkpt lat="43.3856232" lon="12.8034096"><ele>766.0</ele><time>2026-04-18T09:15:46.998Z</time></trkpt><trkpt lat="43.3854935" lon="12.8034022"><ele>768.5714285714286</ele><time>2026-04-18T09:15:48.995Z</time></trkpt><trkpt lat="43.38543" lon="12.8033915"><ele>771.1428571428571</ele><time>2026-04-18T09:15:50.002Z</time></trkpt><trkpt lat="43.3853639" lon="12.8033763"><ele>773.7142857142858</ele><time>2026-04-18T09:15:51Z</time></trkpt><trkpt lat="43.3852927" lon="12.8033554"><ele>776.2857142857142</ele><time>2026-04-18T09:15:51.995Z</time></trkpt><trkpt lat="43.3852215" lon="12.8033316"><ele>778.8571428571429</ele><time>2026-04-18T09:15:52.995Z</time></trkpt><trkpt lat="43.3851603" lon="12.8033057"><ele>781.4285714285714</ele><time>2026-04-18T09:15:54.011Z</time></trkpt><trkpt lat="43.3851001" lon="12.8032761"><ele>784.0</ele><time>2026-04-18T09:15:54.991Z</time></trkpt><trkpt lat="43.3850005" lon="12.8032361"><ele>784.0</ele><time>2026-04-18T09:15:56.993Z</time></trkpt><trkpt lat="43.3849015" lon="12.8031892"><ele>784.0</ele><time>2026-04-18T09:15:59.006Z</time></trkpt><trkpt lat="43.3848096" lon="12.8031137"><ele>784.0</ele><time>2026-04-18T09:16:00.996Z</time></trkpt><trkpt lat="43.3847089" lon="12.8030421"><ele>784.0</ele><time>2026-04-18T09:16:02.996Z</time></trkpt><trkpt lat="43.3845917" lon="12.8029951"><ele>784.0</ele><time>2026-04-18T09:16:04.992Z</time></trkpt><trkpt lat="43.3845299" lon="12.8029749"><ele>784.6</ele><time>2026-04-18T09:16:05.998Z</time></trkpt><trkpt lat="43.3844621" lon="12.8029529"><ele>785.2</ele><time>2026-04-18T09:16:06.994Z</time></trkpt><trkpt lat="43.3843548" lon="12.8029082"><ele>785.8000000000001</ele><time>2026-04-18T09:16:08.987Z</time></trkpt><trkpt lat="43.3842318" lon="12.8028666"><ele>786.4000000000001</ele><time>2026-04-18T09:16:10.996Z</time></trkpt><trkpt lat="43.3841595" lon="12.8028447"><ele>787.0</ele><time>2026-04-18T09:16:11.997Z</time></trkpt><trkpt lat="43.3840832" lon="12.8028257"><ele>786.9999999999999</ele><time>2026-04-18T09:16:12.997Z</time></trkpt><trkpt lat="43.3840033" lon="12.8028081"><ele>787.0</ele><time>2026-04-18T09:16:14.003Z</time></trkpt><trkpt lat="43.3839213" lon="12.8027902"><ele>787.0</ele><time>2026-04-18T09:16:14.986Z</time></trkpt><trkpt lat="43.3838392" lon="12.8027647"><ele>787.0</ele><time>2026-04-18T09:16:16.003Z</time></trkpt><trkpt lat="43.3837583" lon="12.8027254"><ele>786.9999999999999</ele><time>2026-04-18T09:16:16.995Z</time></trkpt><trkpt lat="43.383681" lon="12.8026767"><ele>787.0</ele><time>2026-04-18T09:16:18.006Z</time></trkpt><trkpt lat="43.3836068" lon="12.8026212"><ele>787.3333333333333</ele><time>2026-04-18T09:16:19.005Z</time></trkpt><trkpt lat="43.3835337" lon="12.8025609"><ele>787.6666666666666</ele><time>2026-04-18T09:16:19.994Z</time></trkpt><trkpt lat="43.383474" lon="12.8024943"><ele>788.0</ele><time>2026-04-18T09:16:20.995Z</time></trkpt><trkpt lat="43.3834209" lon="12.8024401"><ele>788.3333333333333</ele><time>2026-04-18T09:16:21.994Z</time></trkpt><trkpt lat="43.383358" lon="12.8023847"><ele>788.6666666666666</ele><time>2026-04-18T09:16:22.997Z</time></trkpt><trkpt lat="43.3832905" lon="12.8023233"><ele>789.0</ele><time>2026-04-18T09:16:23.995Z</time></trkpt><trkpt lat="43.3832251" lon="12.8022529"><ele>788.9999999999999</ele><time>2026-04-18T09:16:24.989Z</time></trkpt><trkpt lat="43.3831599" lon="12.8021856"><ele>789.0</ele><time>2026-04-18T09:16:25.996Z</time></trkpt><trkpt lat="43.3831" lon="12.8021164"><ele>789.0</ele><time>2026-04-18T09:16:26.999Z</time></trkpt><trkpt lat="43.3830393" lon="12.8020411"><ele>789.0</ele><time>2026-04-18T09:16:27.998Z</time></trkpt><trkpt lat="43.3829899" lon="12.8019722"><ele>789.0</ele><time>2026-04-18T09:16:28.999Z</time></trkpt><trkpt lat="43.3829487" lon="12.8019026"><ele>788.9999999999999</ele><time>2026-04-18T09:16:30.003Z</time></trkpt><trkpt lat="43.3829047" lon="12.8018261"><ele>789.0</ele><time>2026-04-18T09:16:30.991Z</time></trkpt><trkpt lat="43.3828613" lon="12.8017477"><ele>789.0</ele><time>2026-04-18T09:16:31.992Z</time></trkpt><trkpt lat="43.382812" lon="12.8016743"><ele>789.0</ele><time>2026-04-18T09:16:32.996Z</time></trkpt><trkpt lat="43.3827692" lon="12.8016011"><ele>789.0</ele><time>2026-04-18T09:16:33.995Z</time></trkpt><trkpt lat="43.382691" lon="12.801475"><ele>789.0</ele><time>2026-04-18T09:16:35.988Z</time></trkpt><trkpt lat="43.382614" lon="12.8013226"><ele>789.0</ele><time>2026-04-18T09:16:37.997Z</time></trkpt><trkpt lat="43.3825721" lon="12.8012532"><ele>789.0</ele><time>2026-04-18T09:16:38.991Z</time></trkpt><trkpt lat="43.3825074" lon="12.8011506"><ele>789.0</ele><time>2026-04-18T09:16:40.989Z</time></trkpt><trkpt lat="43.3824333" lon="12.8010191"><ele>789.0</ele><time>2026-04-18T09:16:42.999Z</time></trkpt><trkpt lat="43.3823908" lon="12.8009507"><ele>789.0</ele><time>2026-04-18T09:16:43.989Z</time></trkpt><trkpt lat="43.3823167" lon="12.8008502"><ele>789.0</ele><time>2026-04-18T09:16:45.998Z</time></trkpt><trkpt lat="43.3822693" lon="12.8007684"><ele>789.0</ele><time>2026-04-18T09:16:47.994Z</time></trkpt><trkpt lat="43.3822532" lon="12.8006706"><ele>789.0</ele><time>2026-04-18T09:16:50.99Z</time></trkpt><trkpt lat="43.3822915" lon="12.8005543"><ele>789.0</ele><time>2026-04-18T09:16:53.993Z</time></trkpt><trkpt lat="43.3823524" lon="12.8005298"><ele>789.0</ele><time>2026-04-18T09:27:13.03Z</time></trkpt><trkpt lat="43.3824107" lon="12.8006382"><ele>789.0</ele><time>2026-04-18T09:27:15.994Z</time></trkpt><trkpt lat="43.3824504" lon="12.8007538"><ele>789.0</ele><time>2026-04-18T09:27:18.007Z</time></trkpt><trkpt lat="43.3824952" lon="12.8008875"><ele>789.0</ele><time>2026-04-18T09:27:20Z</time></trkpt><trkpt lat="43.3825446" lon="12.800994"><ele>789.0</ele><time>2026-04-18T09:27:22.02Z</time></trkpt><trkpt lat="43.3825824" lon="12.801107"><ele>789.0</ele><time>2026-04-18T09:27:23.988Z</time></trkpt><trkpt lat="43.3826272" lon="12.801201"><ele>789.0</ele><time>2026-04-18T09:27:25.996Z</time></trkpt><trkpt lat="43.3826834" lon="12.8012797"><ele>789.0</ele><time>2026-04-18T09:27:28.01Z</time></trkpt><trkpt lat="43.382756" lon="12.8013596"><ele>789.0</ele><time>2026-04-18T09:27:30.997Z</time></trkpt><trkpt lat="43.3828099" lon="12.8014171"><ele>788.9999999999999</ele><time>2026-04-18T09:27:32.992Z</time></trkpt><trkpt lat="43.3828885" lon="12.801454"><ele>789.0</ele><time>2026-04-18T09:27:35.021Z</time></trkpt><trkpt lat="43.382963" lon="12.8014672"><ele>789.0</ele><time>2026-04-18T09:27:37.054Z</time></trkpt><trkpt lat="43.3830318" lon="12.8014779"><ele>789.0</ele><time>2026-04-18T09:27:39.023Z</time></trkpt><trkpt lat="43.383097" lon="12.80147"><ele>789.0</ele><time>2026-04-18T09:27:41.032Z</time></trkpt><trkpt lat="43.3831706" lon="12.801455"><ele>788.9999999999999</ele><time>2026-04-18T09:27:43.028Z</time></trkpt><trkpt lat="43.3832288" lon="12.8014156"><ele>789.0</ele><time>2026-04-18T09:27:44.991Z</time></trkpt><trkpt lat="43.3832651" lon="12.8013376"><ele>788.8333333333334</ele><time>2026-04-18T09:27:47.015Z</time></trkpt><trkpt lat="43.3832794" lon="12.8012257"><ele>788.6666666666667</ele><time>2026-04-18T09:27:49.996Z</time></trkpt><trkpt lat="43.3832668" lon="12.8011193"><ele>788.5</ele><time>2026-04-18T09:27:53.024Z</time></trkpt><trkpt lat="43.3832368" lon="12.8010343"><ele>788.3333333333334</ele><time>2026-04-18T09:27:54.987Z</time></trkpt><trkpt lat="43.3832035" lon="12.8009404"><ele>788.1666666666667</ele><time>2026-04-18T09:27:57.013Z</time></trkpt><trkpt lat="43.3831614" lon="12.800837"><ele>788.0</ele><time>2026-04-18T09:27:58.997Z</time></trkpt><trkpt lat="43.3831391" lon="12.800705"><ele>786.0</ele><time>2026-04-18T09:28:00.996Z</time></trkpt><trkpt lat="43.383116" lon="12.8005796"><ele>784.0</ele><time>2026-04-18T09:28:03.015Z</time></trkpt><trkpt lat="43.3830937" lon="12.8004445"><ele>782.0</ele><time>2026-04-18T09:28:05.016Z</time></trkpt><trkpt lat="43.3830629" lon="12.8003073"><ele>780.0</ele><time>2026-04-18T09:28:07.048Z</time></trkpt><trkpt lat="43.3830246" lon="12.8001711"><ele>778.0</ele><time>2026-04-18T09:28:09.012Z</time></trkpt><trkpt lat="43.3829833" lon="12.8000365"><ele>776.5</ele><time>2026-04-18T09:28:11.015Z</time></trkpt><trkpt lat="43.3829334" lon="12.7998793"><ele>775.0</ele><time>2026-04-18T09:28:13.023Z</time></trkpt><trkpt lat="43.3828925" lon="12.7997338"><ele>773.5</ele><time>2026-04-18T09:28:15.009Z</time></trkpt><trkpt lat="43.382852" lon="12.7995867"><ele>772.0</ele><time>2026-04-18T09:28:16.982Z</time></trkpt><trkpt lat="43.3828149" lon="12.7994361"><ele>767.8</ele><time>2026-04-18T09:28:19.021Z</time></trkpt><trkpt lat="43.3827712" lon="12.7992984"><ele>763.6</ele><time>2026-04-18T09:28:21.026Z</time></trkpt><trkpt lat="43.3827227" lon="12.799167"><ele>759.4</ele><time>2026-04-18T09:28:23.041Z</time></trkpt><trkpt lat="43.3826875" lon="12.7990683"><ele>755.1999999999999</ele><time>2026-04-18T09:28:25.016Z</time></trkpt><trkpt lat="43.3826543" lon="12.7989386"><ele>751.0</ele><time>2026-04-18T09:28:27.99Z</time></trkpt><trkpt lat="43.3826156" lon="12.7988266"><ele>751.0</ele><time>2026-04-18T09:28:29.987Z</time></trkpt><trkpt lat="43.382568" lon="12.7987196"><ele>751.0</ele><time>2026-04-18T09:28:31.989Z</time></trkpt><trkpt lat="43.382512" lon="12.798601"><ele>751.0</ele><time>2026-04-18T09:28:34.02Z</time></trkpt><trkpt lat="43.382466" lon="12.7984929"><ele>751.0</ele><time>2026-04-18T09:28:36.015Z</time></trkpt><trkpt lat="43.3824373" lon="12.7983942"><ele>751.0</ele><time>2026-04-18T09:28:38.012Z</time></trkpt><trkpt lat="43.3825021" lon="12.7983115"><ele>747.5999999999999</ele><time>2026-04-18T09:28:41.012Z</time></trkpt><trkpt lat="43.3825785" lon="12.7982307"><ele>744.2</ele><time>2026-04-18T09:28:43.018Z</time></trkpt><trkpt lat="43.3826485" lon="12.7981496"><ele>740.8</ele><time>2026-04-18T09:28:44.988Z</time></trkpt><trkpt lat="43.3827291" lon="12.798042"><ele>737.4000000000001</ele><time>2026-04-18T09:28:47.009Z</time></trkpt><trkpt lat="43.3828271" lon="12.7979528"><ele>734.0</ele><time>2026-04-18T09:28:49.021Z</time></trkpt><trkpt lat="43.3829175" lon="12.797902"><ele>734.0</ele><time>2026-04-18T09:28:50.985Z</time></trkpt><trkpt lat="43.382983" lon="12.7978731"><ele>734.0</ele><time>2026-04-18T09:28:53.005Z</time></trkpt><trkpt lat="43.3830592" lon="12.7978383"><ele>734.0</ele><time>2026-04-18T09:28:55.993Z</time></trkpt><trkpt lat="43.3831341" lon="12.7979262"><ele>734.0</ele><time>2026-04-18T09:28:59.006Z</time></trkpt><trkpt lat="43.3831746" lon="12.7980012"><ele>734.0</ele><time>2026-04-18T09:29:01.03Z</time></trkpt><trkpt lat="43.3832214" lon="12.7980703"><ele>734.0</ele><time>2026-04-18T09:29:02.994Z</time></trkpt><trkpt lat="43.3832872" lon="12.7981043"><ele>733.1666666666666</ele><time>2026-04-18T09:29:05.023Z</time></trkpt><trkpt lat="43.3833614" lon="12.7980725"><ele>732.3333333333333</ele><time>2026-04-18T09:29:07.009Z</time></trkpt><trkpt lat="43.3834271" lon="12.7979872"><ele>731.5</ele><time>2026-04-18T09:29:09.006Z</time></trkpt><trkpt lat="43.3834609" lon="12.7979041"><ele>730.6666666666666</ele><time>2026-04-18T09:29:11.016Z</time></trkpt><trkpt lat="43.3835066" lon="12.7978264"><ele>729.8333333333334</ele><time>2026-04-18T09:29:14.989Z</time></trkpt><trkpt lat="43.3835676" lon="12.79776"><ele>729.0</ele><time>2026-04-18T09:29:18.024Z</time></trkpt><trkpt lat="43.3836578" lon="12.7976268"><ele>729.0</ele><time>2026-04-18T09:29:20.019Z</time></trkpt><trkpt lat="43.3837104" lon="12.7975424"><ele>729.0</ele><time>2026-04-18T09:29:21.018Z</time></trkpt><trkpt lat="43.3837591" lon="12.7974473"><ele>729.0</ele><time>2026-04-18T09:29:22.032Z</time></trkpt><trkpt lat="43.3838079" lon="12.797348"><ele>729.0</ele><time>2026-04-18T09:29:23.025Z</time></trkpt><trkpt lat="43.3838571" lon="12.7972499"><ele>729.0</ele><time>2026-04-18T09:29:24.019Z</time></trkpt><trkpt lat="43.3839194" lon="12.797165"><ele>729.0</ele><time>2026-04-18T09:29:25.035Z</time></trkpt><trkpt lat="43.3839934" lon="12.797089"><ele>728.8333333333334</ele><time>2026-04-18T09:29:25.998Z</time></trkpt><trkpt lat="43.384064" lon="12.7970146"><ele>728.6666666666666</ele><time>2026-04-18T09:29:27.018Z</time></trkpt><trkpt lat="43.3841346" lon="12.7969586"><ele>728.5</ele><time>2026-04-18T09:29:28.04Z</time></trkpt><trkpt lat="43.3842109" lon="12.7969189"><ele>728.3333333333333</ele><time>2026-04-18T09:29:29.018Z</time></trkpt><trkpt lat="43.384279" lon="12.7968781"><ele>728.1666666666666</ele><time>2026-04-18T09:29:30.06Z</time></trkpt><trkpt lat="43.3843652" lon="12.796805"><ele>728.0</ele><time>2026-04-18T09:29:31.984Z</time></trkpt><trkpt lat="43.3844281" lon="12.7967838"><ele>728.0</ele><time>2026-04-18T09:29:49.029Z</time></trkpt><trkpt lat="43.3845119" lon="12.7967201"><ele>728.0</ele><time>2026-04-18T09:29:51.011Z</time></trkpt><trkpt lat="43.3846178" lon="12.7966567"><ele>728.0</ele><time>2026-04-18T09:29:53.025Z</time></trkpt><trkpt lat="43.3847207" lon="12.7966507"><ele>728.0</ele><time>2026-04-18T09:29:55.008Z</time></trkpt><trkpt lat="43.3847947" lon="12.7966759"><ele>728.0</ele><time>2026-04-18T09:29:57.004Z</time></trkpt><trkpt lat="43.384896" lon="12.7967283"><ele>728.5999999999999</ele><time>2026-04-18T09:29:59.005Z</time></trkpt><trkpt lat="43.3850102" lon="12.7967454"><ele>729.1999999999999</ele><time>2026-04-18T09:30:01.026Z</time></trkpt><trkpt lat="43.3851202" lon="12.7967256"><ele>729.8</ele><time>2026-04-18T09:30:03.01Z</time></trkpt><trkpt lat="43.3852415" lon="12.7967289"><ele>730.4</ele><time>2026-04-18T09:30:05.02Z</time></trkpt><trkpt lat="43.3853063" lon="12.7967368"><ele>731.0</ele><time>2026-04-18T09:30:06.032Z</time></trkpt><trkpt lat="43.3854002" lon="12.7967536"><ele>731.0</ele><time>2026-04-18T09:30:08.031Z</time></trkpt><trkpt lat="43.3854769" lon="12.7967694"><ele>731.0</ele><time>2026-04-18T09:30:10.019Z</time></trkpt><trkpt lat="43.3855639" lon="12.7968004"><ele>731.0</ele><time>2026-04-18T09:30:12.023Z</time></trkpt><trkpt lat="43.3856404" lon="12.7968436"><ele>731.0</ele><time>2026-04-18T09:30:14.999Z</time></trkpt><trkpt lat="43.3857238" lon="12.7969173"><ele>731.0</ele><time>2026-04-18T09:30:17.989Z</time></trkpt><trkpt lat="43.3857822" lon="12.7969946"><ele>731.0</ele><time>2026-04-18T09:30:19.997Z</time></trkpt><trkpt lat="43.3858387" lon="12.7970916"><ele>731.4</ele><time>2026-04-18T09:30:22.019Z</time></trkpt><trkpt lat="43.3859021" lon="12.7971961"><ele>731.8</ele><time>2026-04-18T09:30:24.015Z</time></trkpt><trkpt lat="43.3859784" lon="12.7972999"><ele>732.1999999999999</ele><time>2026-04-18T09:30:26.036Z</time></trkpt><trkpt lat="43.3860754" lon="12.7973943"><ele>732.5999999999999</ele><time>2026-04-18T09:30:27.992Z</time></trkpt><trkpt lat="43.386149" lon="12.7974902"><ele>733.0</ele><time>2026-04-18T09:30:30.024Z</time></trkpt><trkpt lat="43.3862383" lon="12.7975785"><ele>733.0</ele><time>2026-04-18T09:30:31.994Z</time></trkpt><trkpt lat="43.3863414" lon="12.7976277"><ele>733.0</ele><time>2026-04-18T09:30:34.058Z</time></trkpt><trkpt lat="43.3864559" lon="12.7976475"><ele>733.0</ele><time>2026-04-18T09:30:36.061Z</time></trkpt><trkpt lat="43.3865512" lon="12.7976548"><ele>733.0</ele><time>2026-04-18T09:30:38.021Z</time></trkpt><trkpt lat="43.3866135" lon="12.7976733"><ele>733.0</ele><time>2026-04-18T09:30:39.027Z</time></trkpt><trkpt lat="43.386724" lon="12.797736"><ele>730.5714285714286</ele><time>2026-04-18T09:30:41.03Z</time></trkpt><trkpt lat="43.3867841" lon="12.7977709"><ele>728.1428571428571</ele><time>2026-04-18T09:30:42.027Z</time></trkpt><trkpt lat="43.386842" lon="12.7978083"><ele>725.7142857142858</ele><time>2026-04-18T09:30:43.028Z</time></trkpt><trkpt lat="43.3869065" lon="12.7978397"><ele>723.2857142857142</ele><time>2026-04-18T09:30:43.992Z</time></trkpt><trkpt lat="43.3869831" lon="12.7978571"><ele>720.8571428571429</ele><time>2026-04-18T09:30:45.036Z</time></trkpt><trkpt lat="43.3870682" lon="12.7978727"><ele>718.4285714285714</ele><time>2026-04-18T09:30:46.03Z</time></trkpt><trkpt lat="43.3871538" lon="12.7978794"><ele>716.0</ele><time>2026-04-18T09:30:47.021Z</time></trkpt><trkpt lat="43.3872449" lon="12.7978775"><ele>712.1666666666666</ele><time>2026-04-18T09:30:48.024Z</time></trkpt><trkpt lat="43.3873339" lon="12.7978613"><ele>708.3333333333333</ele><time>2026-04-18T09:30:49.038Z</time></trkpt><trkpt lat="43.3874164" lon="12.7978309"><ele>704.5</ele><time>2026-04-18T09:30:50.031Z</time></trkpt><trkpt lat="43.387498" lon="12.7977972"><ele>700.6666666666666</ele><time>2026-04-18T09:30:50.998Z</time></trkpt><trkpt lat="43.3875737" lon="12.7977663"><ele>696.8333333333334</ele><time>2026-04-18T09:30:52.032Z</time></trkpt><trkpt lat="43.3876445" lon="12.7977358"><ele>693.0</ele><time>2026-04-18T09:30:53.04Z</time></trkpt><trkpt lat="43.387712" lon="12.797702"><ele>693.0</ele><time>2026-04-18T09:30:54.045Z</time></trkpt><trkpt lat="43.387778" lon="12.7976774"><ele>693.0</ele><time>2026-04-18T09:30:55.026Z</time></trkpt><trkpt lat="43.3878452" lon="12.7976586"><ele>693.0</ele><time>2026-04-18T09:30:56.008Z</time></trkpt><trkpt lat="43.3879099" lon="12.797639"><ele>693.0</ele><time>2026-04-18T09:30:57.011Z</time></trkpt><trkpt lat="43.3879735" lon="12.7976276"><ele>693.0</ele><time>2026-04-18T09:30:58.044Z</time></trkpt><trkpt lat="43.3880379" lon="12.7976178"><ele>693.0</ele><time>2026-04-18T09:30:59.019Z</time></trkpt><trkpt lat="43.3881013" lon="12.7976013"><ele>693.0</ele><time>2026-04-18T09:31:00.029Z</time></trkpt><trkpt lat="43.3882269" lon="12.7975735"><ele>690.8333333333334</ele><time>2026-04-18T09:31:02.026Z</time></trkpt><trkpt lat="43.3882907" lon="12.7975582"><ele>688.6666666666666</ele><time>2026-04-18T09:31:03.021Z</time></trkpt><trkpt lat="43.3884196" lon="12.797524"><ele>686.5</ele><time>2026-04-18T09:31:05.1Z</time></trkpt><trkpt lat="43.3884943" lon="12.7975047"><ele>684.3333333333333</ele><time>2026-04-18T09:31:06.012Z</time></trkpt><trkpt lat="43.3885581" lon="12.7974748"><ele>682.1666666666666</ele><time>2026-04-18T09:31:07.03Z</time></trkpt><trkpt lat="43.3886525" lon="12.7974016"><ele>680.0</ele><time>2026-04-18T09:31:09.019Z</time></trkpt><trkpt lat="43.3887196" lon="12.7973429"><ele>680.0</ele><time>2026-04-18T09:31:11.005Z</time></trkpt><trkpt lat="43.3887892" lon="12.7972718"><ele>680.0</ele><time>2026-04-18T09:31:15.008Z</time></trkpt><trkpt lat="43.3888584" lon="12.7972378"><ele>680.0</ele><time>2026-04-18T09:31:18.016Z</time></trkpt><trkpt lat="43.3889306" lon="12.7972136"><ele>680.0</ele><time>2026-04-18T09:31:19.992Z</time></trkpt><trkpt lat="43.3890048" lon="12.7970581"><ele>680.0</ele><time>2026-04-18T09:31:22.01Z</time></trkpt><trkpt lat="43.3890351" lon="12.7969811"><ele>680.0</ele><time>2026-04-18T09:31:23.015Z</time></trkpt><trkpt lat="43.3890796" lon="12.7968116"><ele>680.7142857142858</ele><time>2026-04-18T09:31:25.034Z</time></trkpt><trkpt lat="43.3891052" lon="12.7967136"><ele>681.4285714285713</ele><time>2026-04-18T09:31:26.023Z</time></trkpt><trkpt lat="43.3891407" lon="12.7966275"><ele>682.1428571428571</ele><time>2026-04-18T09:31:27.028Z</time></trkpt><trkpt lat="43.3891824" lon="12.7965476"><ele>682.8571428571429</ele><time>2026-04-18T09:31:28.015Z</time></trkpt><trkpt lat="43.3892225" lon="12.7964662"><ele>683.5714285714287</ele><time>2026-04-18T09:31:29.022Z</time></trkpt><trkpt lat="43.38926" lon="12.7963813"><ele>684.2857142857142</ele><time>2026-04-18T09:31:30.031Z</time></trkpt><trkpt lat="43.3892998" lon="12.7962834"><ele>685.0</ele><time>2026-04-18T09:31:30.995Z</time></trkpt><trkpt lat="43.3893409" lon="12.7961984"><ele>685.0</ele><time>2026-04-18T09:31:31.987Z</time></trkpt><trkpt lat="43.3893827" lon="12.7961161"><ele>685.0</ele><time>2026-04-18T09:31:33.024Z</time></trkpt><trkpt lat="43.3894217" lon="12.7960345"><ele>685.0</ele><time>2026-04-18T09:31:34.033Z</time></trkpt><trkpt lat="43.3894551" lon="12.7959487"><ele>685.0</ele><time>2026-04-18T09:31:35.04Z</time></trkpt><trkpt lat="43.3894882" lon="12.7958735"><ele>685.0</ele><time>2026-04-18T09:31:35.979Z</time></trkpt><trkpt lat="43.3895931" lon="12.7957964"><ele>685.0</ele><time>2026-04-18T09:31:38.035Z</time></trkpt><trkpt lat="43.3896585" lon="12.7957719"><ele>688.7142857142857</ele><time>2026-04-18T09:31:39.04Z</time></trkpt><trkpt lat="43.3897263" lon="12.7957571"><ele>692.4285714285714</ele><time>2026-04-18T09:31:40.016Z</time></trkpt><trkpt lat="43.3897924" lon="12.7957276"><ele>696.1428571428571</ele><time>2026-04-18T09:31:41.008Z</time></trkpt><trkpt lat="43.3898567" lon="12.7956841"><ele>699.8571428571429</ele><time>2026-04-18T09:31:41.986Z</time></trkpt><trkpt lat="43.3899245" lon="12.7956403"><ele>703.5714285714286</ele><time>2026-04-18T09:31:43.003Z</time></trkpt><trkpt lat="43.3899871" lon="12.7956034"><ele>707.2857142857143</ele><time>2026-04-18T09:31:44.014Z</time></trkpt><trkpt lat="43.3900451" lon="12.7955545"><ele>711.0</ele><time>2026-04-18T09:31:45.003Z</time></trkpt><trkpt lat="43.390115" lon="12.7954965"><ele>711.0</ele><time>2026-04-18T09:31:45.99Z</time></trkpt><trkpt lat="43.3901902" lon="12.795443"><ele>711.0</ele><time>2026-04-18T09:31:47Z</time></trkpt><trkpt lat="43.3902674" lon="12.7953974"><ele>711.0</ele><time>2026-04-18T09:31:48.003Z</time></trkpt><trkpt lat="43.3903422" lon="12.7953443"><ele>711.0</ele><time>2026-04-18T09:31:48.998Z</time></trkpt><trkpt lat="43.3904112" lon="12.7952743"><ele>711.0</ele><time>2026-04-18T09:31:50.012Z</time></trkpt><trkpt lat="43.3904695" lon="12.7952026"><ele>711.0</ele><time>2026-04-18T09:31:51.001Z</time></trkpt><trkpt lat="43.390515" lon="12.7951234"><ele>714.3333333333334</ele><time>2026-04-18T09:31:52.021Z</time></trkpt><trkpt lat="43.3905567" lon="12.7950433"><ele>717.6666666666666</ele><time>2026-04-18T09:31:53.019Z</time></trkpt><trkpt lat="43.3906002" lon="12.7949526"><ele>721.0</ele><time>2026-04-18T09:31:54.016Z</time></trkpt><trkpt lat="43.3906452" lon="12.7948543"><ele>724.3333333333333</ele><time>2026-04-18T09:31:55.034Z</time></trkpt><trkpt lat="43.3906827" lon="12.7947469"><ele>727.6666666666666</ele><time>2026-04-18T09:31:56.043Z</time></trkpt><trkpt lat="43.3907213" lon="12.7946371"><ele>731.0</ele><time>2026-04-18T09:31:57.032Z</time></trkpt><trkpt lat="43.3907634" lon="12.7945332"><ele>731.0</ele><time>2026-04-18T09:31:58.035Z</time></trkpt><trkpt lat="43.3908165" lon="12.7944402"><ele>731.0</ele><time>2026-04-18T09:31:58.992Z</time></trkpt><trkpt lat="43.3908793" lon="12.7943501"><ele>731.0</ele><time>2026-04-18T09:32:00.031Z</time></trkpt><trkpt lat="43.390943" lon="12.7942676"><ele>731.0</ele><time>2026-04-18T09:32:01.021Z</time></trkpt><trkpt lat="43.3910035" lon="12.794177"><ele>731.0</ele><time>2026-04-18T09:32:02.043Z</time></trkpt><trkpt lat="43.3910714" lon="12.7940834"><ele>730.6666666666666</ele><time>2026-04-18T09:32:03.045Z</time></trkpt><trkpt lat="43.3911395" lon="12.7939881"><ele>730.3333333333333</ele><time>2026-04-18T09:32:03.999Z</time></trkpt><trkpt lat="43.3912066" lon="12.7938939"><ele>730.0</ele><time>2026-04-18T09:32:05.035Z</time></trkpt><trkpt lat="43.3912703" lon="12.7938096"><ele>729.6666666666666</ele><time>2026-04-18T09:32:06.044Z</time></trkpt><trkpt lat="43.391329" lon="12.7937337"><ele>729.3333333333334</ele><time>2026-04-18T09:32:07.021Z</time></trkpt><trkpt lat="43.3913829" lon="12.7936583"><ele>729.0</ele><time>2026-04-18T09:32:08.027Z</time></trkpt><trkpt lat="43.3914354" lon="12.7935829"><ele>729.0</ele><time>2026-04-18T09:32:09.005Z</time></trkpt><trkpt lat="43.3914929" lon="12.79351"><ele>729.0</ele><time>2026-04-18T09:32:10.038Z</time></trkpt><trkpt lat="43.3915615" lon="12.7934304"><ele>729.0</ele><time>2026-04-18T09:32:11.033Z</time></trkpt><trkpt lat="43.3916326" lon="12.7933483"><ele>729.0</ele><time>2026-04-18T09:32:12.02Z</time></trkpt><trkpt lat="43.3917004" lon="12.7932722"><ele>729.0</ele><time>2026-04-18T09:32:12.997Z</time></trkpt><trkpt lat="43.3917595" lon="12.7931991"><ele>729.0</ele><time>2026-04-18T09:32:14.055Z</time></trkpt><trkpt lat="43.3918255" lon="12.7931279"><ele>730.3333333333334</ele><time>2026-04-18T09:32:15.016Z</time></trkpt><trkpt lat="43.3918882" lon="12.7930656"><ele>731.6666666666666</ele><time>2026-04-18T09:32:16.01Z</time></trkpt><trkpt lat="43.3919437" lon="12.7930072"><ele>733.0</ele><time>2026-04-18T09:32:17.035Z</time></trkpt><trkpt lat="43.3920044" lon="12.7929439"><ele>734.3333333333333</ele><time>2026-04-18T09:32:17.991Z</time></trkpt><trkpt lat="43.3920584" lon="12.7928723"><ele>735.6666666666666</ele><time>2026-04-18T09:32:19.013Z</time></trkpt><trkpt lat="43.392095" lon="12.7927956"><ele>737.0</ele><time>2026-04-18T09:32:19.979Z</time></trkpt><trkpt lat="43.392158" lon="12.7926713"><ele>737.7142857142858</ele><time>2026-04-18T09:32:22.049Z</time></trkpt><trkpt lat="43.3921952" lon="12.7925991"><ele>738.4285714285714</ele><time>2026-04-18T09:32:24.004Z</time></trkpt><trkpt lat="43.3922806" lon="12.7925876"><ele>739.1428571428571</ele><time>2026-04-18T09:32:26.981Z</time></trkpt><trkpt lat="43.3923249" lon="12.7926772"><ele>739.8571428571429</ele><time>2026-04-18T09:32:29.005Z</time></trkpt><trkpt lat="43.3923529" lon="12.7927643"><ele>740.5714285714286</ele><time>2026-04-18T09:32:31.98Z</time></trkpt><trkpt lat="43.3924123" lon="12.7928393"><ele>741.2857142857143</ele><time>2026-04-18T09:32:49.038Z</time></trkpt><trkpt lat="43.3924767" lon="12.7928759"><ele>742.0</ele><time>2026-04-18T09:32:53.02Z</time></trkpt><trkpt lat="43.3925712" lon="12.7928723"><ele>742.0</ele><time>2026-04-18T09:33:13.036Z</time></trkpt><trkpt lat="43.3926912" lon="12.7928418"><ele>742.0</ele><time>2026-04-18T09:33:15.041Z</time></trkpt><trkpt lat="43.3927633" lon="12.7928348"><ele>742.0</ele><time>2026-04-18T09:33:16.029Z</time></trkpt><trkpt lat="43.3928474" lon="12.7928328"><ele>742.0</ele><time>2026-04-18T09:33:17.012Z</time></trkpt><trkpt lat="43.3929356" lon="12.7928353"><ele>742.0</ele><time>2026-04-18T09:33:18.031Z</time></trkpt><trkpt lat="43.3930311" lon="12.7928521"><ele>742.0</ele><time>2026-04-18T09:33:19Z</time></trkpt><trkpt lat="43.3931345" lon="12.7928682"><ele>742.0</ele><time>2026-04-18T09:33:20.04Z</time></trkpt><trkpt lat="43.3932335" lon="12.7928859"><ele>742.0</ele><time>2026-04-18T09:33:21.033Z</time></trkpt><trkpt lat="43.3933265" lon="12.7928998"><ele>742.0</ele><time>2026-04-18T09:33:22.036Z</time></trkpt><trkpt lat="43.3934052" lon="12.7928963"><ele>742.0</ele><time>2026-04-18T09:33:23.034Z</time></trkpt><trkpt lat="43.3934817" lon="12.7928798"><ele>742.0</ele><time>2026-04-18T09:33:24.041Z</time></trkpt><trkpt lat="43.3935561" lon="12.7928485"><ele>742.0</ele><time>2026-04-18T09:33:25.05Z</time></trkpt><trkpt lat="43.3936261" lon="12.7928013"><ele>742.0</ele><time>2026-04-18T09:33:25.99Z</time></trkpt><trkpt lat="43.3937029" lon="12.7927474"><ele>742.0</ele><time>2026-04-18T09:33:26.999Z</time></trkpt><trkpt lat="43.3937832" lon="12.7926822"><ele>742.0</ele><time>2026-04-18T09:33:27.992Z</time></trkpt><trkpt lat="43.3938708" lon="12.7926133"><ele>742.0</ele><time>2026-04-18T09:33:29.031Z</time></trkpt><trkpt lat="43.393959" lon="12.7925422"><ele>747.5</ele><time>2026-04-18T09:33:30.054Z</time></trkpt><trkpt lat="43.3940342" lon="12.7924781"><ele>753.0</ele><time>2026-04-18T09:33:31.018Z</time></trkpt><trkpt lat="43.39411" lon="12.7924239"><ele>758.5</ele><time>2026-04-18T09:33:31.981Z</time></trkpt><trkpt lat="43.3941761" lon="12.7923736"><ele>764.0</ele><time>2026-04-18T09:33:33.007Z</time></trkpt><trkpt lat="43.3942396" lon="12.7923289"><ele>769.4999999999999</ele><time>2026-04-18T09:33:34.007Z</time></trkpt><trkpt lat="43.3942996" lon="12.7922857"><ele>775.0</ele><time>2026-04-18T09:33:35.023Z</time></trkpt><trkpt lat="43.3943581" lon="12.7922373"><ele>774.9999999999999</ele><time>2026-04-18T09:33:36.012Z</time></trkpt><trkpt lat="43.3944221" lon="12.792188"><ele>775.0</ele><time>2026-04-18T09:33:36.994Z</time></trkpt><trkpt lat="43.3944898" lon="12.7921512"><ele>775.0</ele><time>2026-04-18T09:33:37.993Z</time></trkpt><trkpt lat="43.3945664" lon="12.7921299"><ele>775.0</ele><time>2026-04-18T09:33:39.031Z</time></trkpt><trkpt lat="43.3946395" lon="12.7921293"><ele>775.0</ele><time>2026-04-18T09:33:40.016Z</time></trkpt><trkpt lat="43.3947136" lon="12.7921295"><ele>774.9999999999999</ele><time>2026-04-18T09:33:41.039Z</time></trkpt><trkpt lat="43.3947778" lon="12.7921444"><ele>775.0</ele><time>2026-04-18T09:33:42.038Z</time></trkpt><trkpt lat="43.3949095" lon="12.7921518"><ele>778.1666666666666</ele><time>2026-04-18T09:33:44.034Z</time></trkpt><trkpt lat="43.3949748" lon="12.792144"><ele>781.3333333333333</ele><time>2026-04-18T09:33:45.025Z</time></trkpt><trkpt lat="43.3950407" lon="12.7921262"><ele>784.5</ele><time>2026-04-18T09:33:46.022Z</time></trkpt><trkpt lat="43.3951072" lon="12.7921158"><ele>787.6666666666667</ele><time>2026-04-18T09:33:46.995Z</time></trkpt><trkpt lat="43.3952091" lon="12.7921113"><ele>790.8333333333334</ele><time>2026-04-18T09:33:49.016Z</time></trkpt><trkpt lat="43.3953211" lon="12.7921421"><ele>794.0</ele><time>2026-04-18T09:33:51.011Z</time></trkpt><trkpt lat="43.3953912" lon="12.7921608"><ele>794.0</ele><time>2026-04-18T09:33:52.035Z</time></trkpt><trkpt lat="43.3954609" lon="12.7921703"><ele>794.0</ele><time>2026-04-18T09:33:52.979Z</time></trkpt><trkpt lat="43.3955343" lon="12.7921822"><ele>794.0</ele><time>2026-04-18T09:33:54.019Z</time></trkpt><trkpt lat="43.3956037" lon="12.7922027"><ele>794.0</ele><time>2026-04-18T09:33:55.03Z</time></trkpt><trkpt lat="43.3956731" lon="12.7922186"><ele>794.0</ele><time>2026-04-18T09:33:56.028Z</time></trkpt><trkpt lat="43.3957385" lon="12.7922328"><ele>794.0</ele><time>2026-04-18T09:33:56.985Z</time></trkpt><trkpt lat="43.3958045" lon="12.7922502"><ele>794.0</ele><time>2026-04-18T09:33:58.013Z</time></trkpt><trkpt lat="43.395871" lon="12.7922701"><ele>795.3333333333334</ele><time>2026-04-18T09:33:59.015Z</time></trkpt><trkpt lat="43.3959913" lon="12.7923221"><ele>796.6666666666667</ele><time>2026-04-18T09:34:00.999Z</time></trkpt><trkpt lat="43.3960515" lon="12.7923498"><ele>798.0</ele><time>2026-04-18T09:34:02.017Z</time></trkpt><trkpt lat="43.3961148" lon="12.7923807"><ele>799.3333333333333</ele><time>2026-04-18T09:34:03.026Z</time></trkpt><trkpt lat="43.3961787" lon="12.7924164"><ele>800.6666666666666</ele><time>2026-04-18T09:34:04.018Z</time></trkpt><trkpt lat="43.3962408" lon="12.7924572"><ele>802.0</ele><time>2026-04-18T09:34:05.014Z</time></trkpt><trkpt lat="43.3963043" lon="12.7925053"><ele>802.9999999999999</ele><time>2026-04-18T09:34:06.058Z</time></trkpt><trkpt lat="43.3963651" lon="12.7925697"><ele>804.0</ele><time>2026-04-18T09:34:07.023Z</time></trkpt><trkpt lat="43.3964188" lon="12.7926513"><ele>805.0</ele><time>2026-04-18T09:34:08.023Z</time></trkpt><trkpt lat="43.396466" lon="12.7927334"><ele>806.0</ele><time>2026-04-18T09:34:09.054Z</time></trkpt><trkpt lat="43.3965206" lon="12.7928086"><ele>806.9999999999999</ele><time>2026-04-18T09:34:10.029Z</time></trkpt><trkpt lat="43.3965747" lon="12.7928878"><ele>808.0</ele><time>2026-04-18T09:34:11.038Z</time></trkpt><trkpt lat="43.3966248" lon="12.7929724"><ele>807.9999999999999</ele><time>2026-04-18T09:34:12.029Z</time></trkpt><trkpt lat="43.3966713" lon="12.7930627"><ele>808.0</ele><time>2026-04-18T09:34:13.02Z</time></trkpt><trkpt lat="43.3967191" lon="12.7931537"><ele>808.0</ele><time>2026-04-18T09:34:14.015Z</time></trkpt><trkpt lat="43.3967619" lon="12.7932454"><ele>808.0</ele><time>2026-04-18T09:34:15.025Z</time></trkpt><trkpt lat="43.3968056" lon="12.7933397"><ele>807.9999999999999</ele><time>2026-04-18T09:34:16.035Z</time></trkpt><trkpt lat="43.3968498" lon="12.793439"><ele>808.0</ele><time>2026-04-18T09:34:17.014Z</time></trkpt><trkpt lat="43.3968945" lon="12.7935405"><ele>807.8333333333333</ele><time>2026-04-18T09:34:18.037Z</time></trkpt><trkpt lat="43.3969422" lon="12.7936368"><ele>807.6666666666666</ele><time>2026-04-18T09:34:19.043Z</time></trkpt><trkpt lat="43.3969937" lon="12.7937372"><ele>807.5</ele><time>2026-04-18T09:34:20.047Z</time></trkpt><trkpt lat="43.3970472" lon="12.7938332"><ele>807.3333333333333</ele><time>2026-04-18T09:34:21.042Z</time></trkpt><trkpt lat="43.3971057" lon="12.7939376"><ele>807.1666666666666</ele><time>2026-04-18T09:34:22.039Z</time></trkpt><trkpt lat="43.3971585" lon="12.7940302"><ele>807.0</ele><time>2026-04-18T09:34:23.022Z</time></trkpt><trkpt lat="43.3972081" lon="12.7941145"><ele>807.0</ele><time>2026-04-18T09:34:24.04Z</time></trkpt><trkpt lat="43.3972523" lon="12.7941842"><ele>807.0</ele><time>2026-04-18T09:34:25.039Z</time></trkpt><trkpt lat="43.3973376" lon="12.7943066"><ele>807.0</ele><time>2026-04-18T09:34:26.987Z</time></trkpt><trkpt lat="43.3973781" lon="12.7943818"><ele>807.0</ele><time>2026-04-18T09:34:28.047Z</time></trkpt><trkpt lat="43.3974172" lon="12.7944595"><ele>807.0</ele><time>2026-04-18T09:34:29.045Z</time></trkpt><trkpt lat="43.397464" lon="12.7945491"><ele>807.0</ele><time>2026-04-18T09:34:30.024Z</time></trkpt><trkpt lat="43.3975088" lon="12.7946395"><ele>807.5</ele><time>2026-04-18T09:34:30.996Z</time></trkpt><trkpt lat="43.3975485" lon="12.7947274"><ele>808.0</ele><time>2026-04-18T09:34:31.988Z</time></trkpt><trkpt lat="43.3975877" lon="12.7948098"><ele>808.5</ele><time>2026-04-18T09:34:33.021Z</time></trkpt><trkpt lat="43.3976345" lon="12.7948928"><ele>809.0</ele><time>2026-04-18T09:34:34.024Z</time></trkpt><trkpt lat="43.3976803" lon="12.7949768"><ele>809.5</ele><time>2026-04-18T09:34:35.026Z</time></trkpt><trkpt lat="43.3977293" lon="12.79506"><ele>810.0</ele><time>2026-04-18T09:34:36.026Z</time></trkpt><trkpt lat="43.3977766" lon="12.7951419"><ele>809.6666666666666</ele><time>2026-04-18T09:34:37.034Z</time></trkpt><trkpt lat="43.3978262" lon="12.7952303"><ele>809.3333333333333</ele><time>2026-04-18T09:34:38.029Z</time></trkpt><trkpt lat="43.3978798" lon="12.7953273"><ele>809.0</ele><time>2026-04-18T09:34:39.028Z</time></trkpt><trkpt lat="43.3979378" lon="12.7954209"><ele>808.6666666666666</ele><time>2026-04-18T09:34:40.033Z</time></trkpt><trkpt lat="43.3979983" lon="12.795508"><ele>808.3333333333333</ele><time>2026-04-18T09:34:41.027Z</time></trkpt><trkpt lat="43.3980546" lon="12.7955971"><ele>808.0</ele><time>2026-04-18T09:34:42Z</time></trkpt><trkpt lat="43.3981116" lon="12.7956795"><ele>808.0</ele><time>2026-04-18T09:34:43.027Z</time></trkpt><trkpt lat="43.3981667" lon="12.7957577"><ele>808.0</ele><time>2026-04-18T09:34:44.024Z</time></trkpt><trkpt lat="43.3982179" lon="12.7958267"><ele>808.0</ele><time>2026-04-18T09:34:45.032Z</time></trkpt><trkpt lat="43.3982699" lon="12.7958935"><ele>808.0</ele><time>2026-04-18T09:34:46.03Z</time></trkpt><trkpt lat="43.3983294" lon="12.7959469"><ele>808.0</ele><time>2026-04-18T09:34:46.986Z</time></trkpt><trkpt lat="43.3983827" lon="12.7959996"><ele>808.0</ele><time>2026-04-18T09:34:47.986Z</time></trkpt><trkpt lat="43.3984381" lon="12.7960567"><ele>808.0</ele><time>2026-04-18T09:34:49.028Z</time></trkpt><trkpt lat="43.3984912" lon="12.7961223"><ele>806.5714285714286</ele><time>2026-04-18T09:34:50.029Z</time></trkpt><trkpt lat="43.398553" lon="12.7961881"><ele>805.1428571428571</ele><time>2026-04-18T09:34:51.025Z</time></trkpt><trkpt lat="43.398616" lon="12.7962497"><ele>803.7142857142858</ele><time>2026-04-18T09:34:52.04Z</time></trkpt><trkpt lat="43.3986777" lon="12.7962995"><ele>802.2857142857142</ele><time>2026-04-18T09:34:53.029Z</time></trkpt><trkpt lat="43.3987436" lon="12.7963295"><ele>800.8571428571429</ele><time>2026-04-18T09:34:54.032Z</time></trkpt><trkpt lat="43.3988136" lon="12.7963457"><ele>799.4285714285714</ele><time>2026-04-18T09:34:55.003Z</time></trkpt><trkpt lat="43.3988817" lon="12.7963575"><ele>798.0</ele><time>2026-04-18T09:34:55.99Z</time></trkpt><trkpt lat="43.3989564" lon="12.7963585"><ele>797.7142857142857</ele><time>2026-04-18T09:34:57.02Z</time></trkpt><trkpt lat="43.3990288" lon="12.7963509"><ele>797.4285714285714</ele><time>2026-04-18T09:34:58.02Z</time></trkpt><trkpt lat="43.3990996" lon="12.7963393"><ele>797.1428571428571</ele><time>2026-04-18T09:34:59.001Z</time></trkpt><trkpt lat="43.3991664" lon="12.7963308"><ele>796.8571428571429</ele><time>2026-04-18T09:35:00.017Z</time></trkpt><trkpt lat="43.3992361" lon="12.7963165"><ele>796.5714285714286</ele><time>2026-04-18T09:35:00.998Z</time></trkpt><trkpt lat="43.3993063" lon="12.7963059"><ele>796.2857142857142</ele><time>2026-04-18T09:35:02.013Z</time></trkpt><trkpt lat="43.3993797" lon="12.7962989"><ele>796.0</ele><time>2026-04-18T09:35:03.021Z</time></trkpt><trkpt lat="43.3994461" lon="12.7962835"><ele>795.9999999999999</ele><time>2026-04-18T09:35:04.02Z</time></trkpt><trkpt lat="43.3995141" lon="12.7962704"><ele>796.0</ele><time>2026-04-18T09:35:05.027Z</time></trkpt><trkpt lat="43.39959" lon="12.7962519"><ele>796.0</ele><time>2026-04-18T09:35:06.028Z</time></trkpt><trkpt lat="43.3996625" lon="12.796219"><ele>796.0</ele><time>2026-04-18T09:35:07.026Z</time></trkpt><trkpt lat="43.3997321" lon="12.7961806"><ele>796.0</ele><time>2026-04-18T09:35:07.995Z</time></trkpt><trkpt lat="43.3997926" lon="12.7961416"><ele>795.9999999999999</ele><time>2026-04-18T09:35:09.004Z</time></trkpt><trkpt lat="43.3998557" lon="12.7961022"><ele>796.0</ele><time>2026-04-18T09:35:09.998Z</time></trkpt><trkpt lat="43.3999616" lon="12.7960513"><ele>793.0</ele><time>2026-04-18T09:35:12.021Z</time></trkpt><trkpt lat="43.4000606" lon="12.7960229"><ele>790.0</ele><time>2026-04-18T09:35:13.998Z</time></trkpt><trkpt lat="43.4001355" lon="12.796028"><ele>787.0</ele><time>2026-04-18T09:35:16.011Z</time></trkpt><trkpt lat="43.4002455" lon="12.7959935"><ele>784.0</ele><time>2026-04-18T09:35:18.004Z</time></trkpt><trkpt lat="43.4003577" lon="12.795958"><ele>781.0</ele><time>2026-04-18T09:35:20.003Z</time></trkpt><trkpt lat="43.4004779" lon="12.7959261"><ele>776.4</ele><time>2026-04-18T09:35:22.042Z</time></trkpt><trkpt lat="43.4005422" lon="12.795908"><ele>771.8</ele><time>2026-04-18T09:35:22.986Z</time></trkpt><trkpt lat="43.4006491" lon="12.795858"><ele>767.1999999999999</ele><time>2026-04-18T09:35:25.032Z</time></trkpt><trkpt lat="43.4007376" lon="12.7957649"><ele>762.5999999999999</ele><time>2026-04-18T09:35:27.022Z</time></trkpt><trkpt lat="43.4007777" lon="12.7956937"><ele>758.0</ele><time>2026-04-18T09:35:28.02Z</time></trkpt><trkpt lat="43.4008227" lon="12.7955576"><ele>758.0</ele><time>2026-04-18T09:35:30.031Z</time></trkpt><trkpt lat="43.4008618" lon="12.7954063"><ele>758.0</ele><time>2026-04-18T09:35:31.992Z</time></trkpt><trkpt lat="43.4009198" lon="12.7952797"><ele>758.0</ele><time>2026-04-18T09:35:34.01Z</time></trkpt><trkpt lat="43.4009796" lon="12.7951754"><ele>758.0</ele><time>2026-04-18T09:35:36.027Z</time></trkpt><trkpt lat="43.401055" lon="12.7951332"><ele>758.0</ele><time>2026-04-18T09:35:38.015Z</time></trkpt><trkpt lat="43.4011164" lon="12.7950829"><ele>757.0</ele><time>2026-04-18T09:35:40.021Z</time></trkpt><trkpt lat="43.40118" lon="12.795016"><ele>756.0</ele><time>2026-04-18T09:35:43.012Z</time></trkpt><trkpt lat="43.4012412" lon="12.7949398"><ele>755.0</ele><time>2026-04-18T09:35:45.988Z</time></trkpt><trkpt lat="43.4013643" lon="12.7949966"><ele>754.0</ele><time>2026-04-18T09:35:49.001Z</time></trkpt><trkpt lat="43.401463" lon="12.7950652"><ele>753.0</ele><time>2026-04-18T09:35:51.014Z</time></trkpt><trkpt lat="43.4015684" lon="12.7951221"><ele>749.0</ele><time>2026-04-18T09:35:52.989Z</time></trkpt><trkpt lat="43.4016367" lon="12.7951159"><ele>745.0</ele><time>2026-04-18T09:35:54.018Z</time></trkpt><trkpt lat="43.4017027" lon="12.7951097"><ele>741.0</ele><time>2026-04-18T09:35:55.021Z</time></trkpt><trkpt lat="43.4018112" lon="12.7951156"><ele>737.0</ele><time>2026-04-18T09:35:57.012Z</time></trkpt><trkpt lat="43.4019169" lon="12.7951361"><ele>733.0</ele><time>2026-04-18T09:35:59.004Z</time></trkpt><trkpt lat="43.4019835" lon="12.7951531"><ele>729.0</ele><time>2026-04-18T09:36:00.035Z</time></trkpt><trkpt lat="43.4020977" lon="12.7951885"><ele>725.6666666666666</ele><time>2026-04-18T09:36:02.036Z</time></trkpt><trkpt lat="43.4021684" lon="12.7952169"><ele>722.3333333333334</ele><time>2026-04-18T09:36:03.014Z</time></trkpt><trkpt lat="43.4022368" lon="12.7952462"><ele>719.0</ele><time>2026-04-18T09:36:04Z</time></trkpt><trkpt lat="43.4022984" lon="12.7952717"><ele>715.6666666666667</ele><time>2026-04-18T09:36:05.041Z</time></trkpt><trkpt lat="43.4024065" lon="12.7953196"><ele>712.3333333333334</ele><time>2026-04-18T09:36:06.992Z</time></trkpt><trkpt lat="43.4024692" lon="12.79534"><ele>709.0</ele><time>2026-04-18T09:36:07.998Z</time></trkpt><trkpt lat="43.4025462" lon="12.795352"><ele>709.0</ele><time>2026-04-18T09:36:08.997Z</time></trkpt><trkpt lat="43.4026239" lon="12.7953671"><ele>709.0</ele><time>2026-04-18T09:36:09.979Z</time></trkpt><trkpt lat="43.4027022" lon="12.7953768"><ele>709.0</ele><time>2026-04-18T09:36:10.973Z</time></trkpt><trkpt lat="43.4028117" lon="12.7953983"><ele>709.0</ele><time>2026-04-18T09:36:13.021Z</time></trkpt><trkpt lat="43.4029375" lon="12.7954218"><ele>709.0</ele><time>2026-04-18T09:36:15.003Z</time></trkpt><trkpt lat="43.4029985" lon="12.7954441"><ele>706.8333333333334</ele><time>2026-04-18T09:36:16.006Z</time></trkpt><trkpt lat="43.4030681" lon="12.7954631"><ele>704.6666666666667</ele><time>2026-04-18T09:36:17.024Z</time></trkpt><trkpt lat="43.4031858" lon="12.7954813"><ele>702.5</ele><time>2026-04-18T09:36:18.998Z</time></trkpt><trkpt lat="43.4032733" lon="12.7955099"><ele>700.3333333333334</ele><time>2026-04-18T09:36:20.999Z</time></trkpt><trkpt lat="43.4033378" lon="12.7955473"><ele>698.1666666666666</ele><time>2026-04-18T09:36:23.01Z</time></trkpt><trkpt lat="43.4033997" lon="12.7955751"><ele>696.0</ele><time>2026-04-18T09:36:27.023Z</time></trkpt><trkpt lat="43.4034975" lon="12.7956191"><ele>696.0</ele><time>2026-04-18T09:36:38.037Z</time></trkpt><trkpt lat="43.4036178" lon="12.7956837"><ele>696.0</ele><time>2026-04-18T09:36:40.034Z</time></trkpt><trkpt lat="43.4036876" lon="12.7957395"><ele>696.0</ele><time>2026-04-18T09:36:41.031Z</time></trkpt><trkpt lat="43.403752" lon="12.7957917"><ele>696.0</ele><time>2026-04-18T09:36:42.032Z</time></trkpt><trkpt lat="43.403808" lon="12.7958462"><ele>696.0</ele><time>2026-04-18T09:36:43.042Z</time></trkpt><trkpt lat="43.4038641" lon="12.7958959"><ele>696.0</ele><time>2026-04-18T09:36:44.037Z</time></trkpt><trkpt lat="43.4039208" lon="12.7959451"><ele>691.3333333333334</ele><time>2026-04-18T09:36:45.01Z</time></trkpt><trkpt lat="43.4039921" lon="12.7960472"><ele>686.6666666666666</ele><time>2026-04-18T09:36:47.045Z</time></trkpt><trkpt lat="43.4041065" lon="12.7960804"><ele>682.0</ele><time>2026-04-18T09:36:48.979Z</time></trkpt><trkpt lat="43.4041793" lon="12.7960776"><ele>677.3333333333333</ele><time>2026-04-18T09:36:50.031Z</time></trkpt><trkpt lat="43.4042505" lon="12.7960636"><ele>672.6666666666666</ele><time>2026-04-18T09:36:51.005Z</time></trkpt><trkpt lat="43.4043278" lon="12.7960518"><ele>668.0</ele><time>2026-04-18T09:36:52.024Z</time></trkpt><trkpt lat="43.4043951" lon="12.7960434"><ele>668.0</ele><time>2026-04-18T09:36:53.032Z</time></trkpt><trkpt lat="43.4044634" lon="12.7960506"><ele>668.0</ele><time>2026-04-18T09:36:53.983Z</time></trkpt><trkpt lat="43.4045282" lon="12.7960607"><ele>668.0</ele><time>2026-04-18T09:36:55.033Z</time></trkpt><trkpt lat="43.4046047" lon="12.7960705"><ele>668.0</ele><time>2026-04-18T09:36:57.022Z</time></trkpt><trkpt lat="43.4047018" lon="12.7960764"><ele>668.0</ele><time>2026-04-18T09:38:16.039Z</time></trkpt><trkpt lat="43.4048194" lon="12.7960213"><ele>668.0</ele><time>2026-04-18T09:38:18.015Z</time></trkpt><trkpt lat="43.4048949" lon="12.7960162"><ele>668.2</ele><time>2026-04-18T09:38:19.038Z</time></trkpt><trkpt lat="43.4049781" lon="12.7960326"><ele>668.4</ele><time>2026-04-18T09:38:20.018Z</time></trkpt><trkpt lat="43.4050644" lon="12.7960656"><ele>668.6</ele><time>2026-04-18T09:38:21.03Z</time></trkpt><trkpt lat="43.4051597" lon="12.7961176"><ele>668.8000000000001</ele><time>2026-04-18T09:38:22.041Z</time></trkpt><trkpt lat="43.4052705" lon="12.7961887"><ele>669.0</ele><time>2026-04-18T09:38:23.025Z</time></trkpt><trkpt lat="43.405377" lon="12.7962839"><ele>669.0</ele><time>2026-04-18T09:38:23.986Z</time></trkpt><trkpt lat="43.4054742" lon="12.796397"><ele>669.0</ele><time>2026-04-18T09:38:25.012Z</time></trkpt><trkpt lat="43.4055677" lon="12.7965041"><ele>669.0</ele><time>2026-04-18T09:38:25.985Z</time></trkpt><trkpt lat="43.4056621" lon="12.7966094"><ele>669.0</ele><time>2026-04-18T09:38:27.021Z</time></trkpt><trkpt lat="43.4057567" lon="12.7967001"><ele>669.8000000000001</ele><time>2026-04-18T09:38:27.996Z</time></trkpt><trkpt lat="43.4058426" lon="12.7967763"><ele>670.6</ele><time>2026-04-18T09:38:28.976Z</time></trkpt><trkpt lat="43.4059223" lon="12.7968289"><ele>671.4</ele><time>2026-04-18T09:38:29.982Z</time></trkpt><trkpt lat="43.4059762" lon="12.7969097"><ele>672.2</ele><time>2026-04-18T09:38:30.981Z</time></trkpt><trkpt lat="43.4060491" lon="12.7969922"><ele>673.0</ele><time>2026-04-18T09:38:32.001Z</time></trkpt><trkpt lat="43.4061066" lon="12.7970923"><ele>673.0</ele><time>2026-04-18T09:38:32.969Z</time></trkpt><trkpt lat="43.4061737" lon="12.7971961"><ele>673.0</ele><time>2026-04-18T09:38:33.997Z</time></trkpt><trkpt lat="43.4062529" lon="12.7973181"><ele>673.0</ele><time>2026-04-18T09:38:34.971Z</time></trkpt><trkpt lat="43.4063374" lon="12.7974444"><ele>673.0</ele><time>2026-04-18T09:38:35.979Z</time></trkpt><trkpt lat="43.4063989" lon="12.7975867"><ele>676.0</ele><time>2026-04-18T09:38:36.99Z</time></trkpt><trkpt lat="43.4064549" lon="12.7977266"><ele>679.0</ele><time>2026-04-18T09:38:37.973Z</time></trkpt><trkpt lat="43.4065001" lon="12.7978364"><ele>682.0</ele><time>2026-04-18T09:38:38.971Z</time></trkpt><trkpt lat="43.4065628" lon="12.7979652"><ele>685.0</ele><time>2026-04-18T09:38:40.976Z</time></trkpt><trkpt lat="43.4065911" lon="12.7980584"><ele>688.0</ele><time>2026-04-18T09:38:42.967Z</time></trkpt><trkpt lat="43.4065562" lon="12.7981349"><ele>688.0</ele><time>2026-04-18T09:38:46.973Z</time></trkpt><trkpt lat="43.4066207" lon="12.7982272"><ele>688.0</ele><time>2026-04-18T09:38:58.976Z</time></trkpt><trkpt lat="43.4066699" lon="12.7982903"><ele>688.0</ele><time>2026-04-18T09:38:59.972Z</time></trkpt><trkpt lat="43.4067106" lon="12.7983819"><ele>688.0</ele><time>2026-04-18T09:39:00.986Z</time></trkpt><trkpt lat="43.4067519" lon="12.7985124"><ele>688.0</ele><time>2026-04-18T09:39:01.982Z</time></trkpt><trkpt lat="43.4068095" lon="12.7986596"><ele>683.25</ele><time>2026-04-18T09:39:02.972Z</time></trkpt><trkpt lat="43.4068705" lon="12.7988023"><ele>678.5</ele><time>2026-04-18T09:39:03.975Z</time></trkpt><trkpt lat="43.4069141" lon="12.7989432"><ele>673.75</ele><time>2026-04-18T09:39:04.971Z</time></trkpt><trkpt lat="43.4069616" lon="12.7990728"><ele>669.0</ele><time>2026-04-18T09:39:05.985Z</time></trkpt><trkpt lat="43.4070221" lon="12.7992277"><ele>672.75</ele><time>2026-04-18T09:39:06.972Z</time></trkpt><trkpt lat="43.4070833" lon="12.7993972"><ele>676.5</ele><time>2026-04-18T09:39:07.971Z</time></trkpt><trkpt lat="43.4071536" lon="12.7995683"><ele>680.25</ele><time>2026-04-18T09:39:08.984Z</time></trkpt><trkpt lat="43.40722" lon="12.7997295"><ele>684.0</ele><time>2026-04-18T09:39:09.986Z</time></trkpt><trkpt lat="43.4072846" lon="12.7998804"><ele>684.0</ele><time>2026-04-18T09:39:10.967Z</time></trkpt><trkpt lat="43.4073346" lon="12.8000387"><ele>684.0</ele><time>2026-04-18T09:39:11.972Z</time></trkpt><trkpt lat="43.4073935" lon="12.8001944"><ele>684.0</ele><time>2026-04-18T09:39:12.975Z</time></trkpt><trkpt lat="43.4074728" lon="12.8003561"><ele>684.0</ele><time>2026-04-18T09:39:13.988Z</time></trkpt><trkpt lat="43.407557" lon="12.800532"><ele>678.25</ele><time>2026-04-18T09:39:14.987Z</time></trkpt><trkpt lat="43.4076373" lon="12.8007074"><ele>672.5</ele><time>2026-04-18T09:39:15.982Z</time></trkpt><trkpt lat="43.4077191" lon="12.8008889"><ele>666.75</ele><time>2026-04-18T09:39:16.982Z</time></trkpt><trkpt lat="43.407785" lon="12.8010592"><ele>661.0</ele><time>2026-04-18T09:39:17.975Z</time></trkpt><trkpt lat="43.407849" lon="12.8012362"><ele>663.75</ele><time>2026-04-18T09:39:18.974Z</time></trkpt><trkpt lat="43.4079054" lon="12.8014116"><ele>666.5</ele><time>2026-04-18T09:39:19.996Z</time></trkpt><trkpt lat="43.4079706" lon="12.801576"><ele>669.25</ele><time>2026-04-18T09:39:21.003Z</time></trkpt><trkpt lat="43.4080359" lon="12.8017277"><ele>672.0</ele><time>2026-04-18T09:39:21.989Z</time></trkpt><trkpt lat="43.4080871" lon="12.8018617"><ele>666.0</ele><time>2026-04-18T09:39:22.995Z</time></trkpt><trkpt lat="43.4081353" lon="12.8019672"><ele>660.0</ele><time>2026-04-18T09:39:23.989Z</time></trkpt><trkpt lat="43.4081799" lon="12.802104"><ele>654.0</ele><time>2026-04-18T09:39:24.981Z</time></trkpt><trkpt lat="43.4082218" lon="12.8022705"><ele>648.0</ele><time>2026-04-18T09:39:26.004Z</time></trkpt><trkpt lat="43.4082592" lon="12.8024381"><ele>648.0</ele><time>2026-04-18T09:39:26.99Z</time></trkpt><trkpt lat="43.4082929" lon="12.802594"><ele>648.0</ele><time>2026-04-18T09:39:27.984Z</time></trkpt><trkpt lat="43.4083405" lon="12.8027405"><ele>648.0</ele><time>2026-04-18T09:39:28.966Z</time></trkpt><trkpt lat="43.408377" lon="12.8028802"><ele>648.0</ele><time>2026-04-18T09:39:30Z</time></trkpt><trkpt lat="43.4084135" lon="12.8030004"><ele>648.0</ele><time>2026-04-18T09:39:30.994Z</time></trkpt><trkpt lat="43.4084529" lon="12.8031036"><ele>644.6666666666666</ele><time>2026-04-18T09:39:31.99Z</time></trkpt><trkpt lat="43.4085214" lon="12.8031939"><ele>641.3333333333334</ele><time>2026-04-18T09:39:32.991Z</time></trkpt><trkpt lat="43.4085884" lon="12.8032626"><ele>638.0</ele><time>2026-04-18T09:39:33.989Z</time></trkpt><trkpt lat="43.4086415" lon="12.8033516"><ele>634.6666666666667</ele><time>2026-04-18T09:39:34.988Z</time></trkpt><trkpt lat="43.4086784" lon="12.8034679"><ele>631.3333333333334</ele><time>2026-04-18T09:39:36.001Z</time></trkpt><trkpt lat="43.4087021" lon="12.8035925"><ele>628.0</ele><time>2026-04-18T09:39:36.981Z</time></trkpt><trkpt lat="43.4087296" lon="12.8037337"><ele>624.8</ele><time>2026-04-18T09:39:38.021Z</time></trkpt><trkpt lat="43.4087366" lon="12.8038681"><ele>621.5999999999999</ele><time>2026-04-18T09:39:38.987Z</time></trkpt><trkpt lat="43.4087251" lon="12.8040042"><ele>618.4000000000001</ele><time>2026-04-18T09:39:40.018Z</time></trkpt><trkpt lat="43.4087173" lon="12.8041359"><ele>615.2</ele><time>2026-04-18T09:39:40.988Z</time></trkpt><trkpt lat="43.4087111" lon="12.8042649"><ele>612.0</ele><time>2026-04-18T09:39:41.998Z</time></trkpt><trkpt lat="43.4087157" lon="12.8043887"><ele>611.8000000000001</ele><time>2026-04-18T09:39:43.004Z</time></trkpt><trkpt lat="43.4087269" lon="12.8045036"><ele>611.6</ele><time>2026-04-18T09:39:43.999Z</time></trkpt><trkpt lat="43.4087177" lon="12.8046322"><ele>611.4000000000001</ele><time>2026-04-18T09:39:44.999Z</time></trkpt><trkpt lat="43.4087153" lon="12.8047689"><ele>611.2</ele><time>2026-04-18T09:39:45.992Z</time></trkpt><trkpt lat="43.408702" lon="12.8049306"><ele>611.0</ele><time>2026-04-18T09:39:46.994Z</time></trkpt><trkpt lat="43.4086718" lon="12.8050943"><ele>609.0</ele><time>2026-04-18T09:39:48.005Z</time></trkpt><trkpt lat="43.4086486" lon="12.8052748"><ele>607.0</ele><time>2026-04-18T09:39:48.995Z</time></trkpt><trkpt lat="43.4086401" lon="12.8054594"><ele>605.0</ele><time>2026-04-18T09:39:49.987Z</time></trkpt><trkpt lat="43.4086151" lon="12.8056175"><ele>603.0</ele><time>2026-04-18T09:39:50.99Z</time></trkpt><trkpt lat="43.4086014" lon="12.8057508"><ele>603.0</ele><time>2026-04-18T09:39:52.014Z</time></trkpt><trkpt lat="43.4085751" lon="12.8058681"><ele>603.0</ele><time>2026-04-18T09:39:52.996Z</time></trkpt><trkpt lat="43.4085356" lon="12.805944"><ele>603.0</ele><time>2026-04-18T09:39:53.979Z</time></trkpt><trkpt lat="43.4084797" lon="12.8060231"><ele>603.0</ele><time>2026-04-18T09:39:54.973Z</time></trkpt><trkpt lat="43.4084115" lon="12.8060984"><ele>603.0</ele><time>2026-04-18T09:39:55.999Z</time></trkpt><trkpt lat="43.4083485" lon="12.8061669"><ele>603.0</ele><time>2026-04-18T09:39:56.998Z</time></trkpt><trkpt lat="43.4082923" lon="12.8062282"><ele>601.1666666666666</ele><time>2026-04-18T09:39:58.016Z</time></trkpt><trkpt lat="43.4082153" lon="12.8063009"><ele>599.3333333333334</ele><time>2026-04-18T09:39:59.993Z</time></trkpt><trkpt lat="43.4081425" lon="12.8063929"><ele>597.5</ele><time>2026-04-18T09:40:02.014Z</time></trkpt><trkpt lat="43.4080659" lon="12.8064754"><ele>595.6666666666667</ele><time>2026-04-18T09:40:04.002Z</time></trkpt><trkpt lat="43.4080191" lon="12.80654"><ele>593.8333333333334</ele><time>2026-04-18T09:40:04.992Z</time></trkpt><trkpt lat="43.4079578" lon="12.8066301"><ele>592.0</ele><time>2026-04-18T09:40:06.01Z</time></trkpt><trkpt lat="43.4078988" lon="12.8067245"><ele>590.0</ele><time>2026-04-18T09:40:06.996Z</time></trkpt><trkpt lat="43.407838" lon="12.8068322"><ele>588.0</ele><time>2026-04-18T09:40:08.014Z</time></trkpt><trkpt lat="43.4077691" lon="12.8069368"><ele>586.0</ele><time>2026-04-18T09:40:08.989Z</time></trkpt><trkpt lat="43.4076956" lon="12.8070541"><ele>584.0</ele><time>2026-04-18T09:40:09.987Z</time></trkpt><trkpt lat="43.4076197" lon="12.8071767"><ele>582.0</ele><time>2026-04-18T09:40:10.988Z</time></trkpt><trkpt lat="43.4075624" lon="12.8072834"><ele>582.0</ele><time>2026-04-18T09:40:12.005Z</time></trkpt><trkpt lat="43.4074924" lon="12.8073992"><ele>582.0</ele><time>2026-04-18T09:40:12.994Z</time></trkpt><trkpt lat="43.4074159" lon="12.8075212"><ele>582.0</ele><time>2026-04-18T09:40:14.024Z</time></trkpt><trkpt lat="43.4073489" lon="12.8076291"><ele>582.0</ele><time>2026-04-18T09:40:15.047Z</time></trkpt><trkpt lat="43.4072825" lon="12.8077373"><ele>582.0</ele><time>2026-04-18T09:40:16.004Z</time></trkpt><trkpt lat="43.4072093" lon="12.8078521"><ele>582.75</ele><time>2026-04-18T09:40:17.007Z</time></trkpt><trkpt lat="43.4071298" lon="12.8079937"><ele>583.5</ele><time>2026-04-18T09:40:18.02Z</time></trkpt><trkpt lat="43.4070363" lon="12.8081418"><ele>584.25</ele><time>2026-04-18T09:40:18.987Z</time></trkpt><trkpt lat="43.4069628" lon="12.808266"><ele>585.0</ele><time>2026-04-18T09:40:20.007Z</time></trkpt><trkpt lat="43.4069029" lon="12.8084034"><ele>583.2</ele><time>2026-04-18T09:40:21.002Z</time></trkpt><trkpt lat="43.406837" lon="12.8085265"><ele>581.4</ele><time>2026-04-18T09:40:21.991Z</time></trkpt><trkpt lat="43.4067849" lon="12.8086309"><ele>579.6</ele><time>2026-04-18T09:40:23.001Z</time></trkpt><trkpt lat="43.4067194" lon="12.8087285"><ele>577.8</ele><time>2026-04-18T09:40:23.998Z</time></trkpt><trkpt lat="43.4066449" lon="12.8088445"><ele>576.0</ele><time>2026-04-18T09:40:24.991Z</time></trkpt><trkpt lat="43.406576" lon="12.8089394"><ele>576.0</ele><time>2026-04-18T09:40:25.997Z</time></trkpt><trkpt lat="43.40649" lon="12.8090214"><ele>576.0</ele><time>2026-04-18T09:40:27.005Z</time></trkpt><trkpt lat="43.4064098" lon="12.8090928"><ele>576.0</ele><time>2026-04-18T09:40:28.005Z</time></trkpt><trkpt lat="43.4063194" lon="12.8091749"><ele>576.0</ele><time>2026-04-18T09:40:28.982Z</time></trkpt><trkpt lat="43.4062356" lon="12.8092577"><ele>576.0</ele><time>2026-04-18T09:40:29.999Z</time></trkpt><trkpt lat="43.4061456" lon="12.8093398"><ele>573.6666666666666</ele><time>2026-04-18T09:40:31.029Z</time></trkpt><trkpt lat="43.4060886" lon="12.8094206"><ele>571.3333333333334</ele><time>2026-04-18T09:40:31.991Z</time></trkpt><trkpt lat="43.4060281" lon="12.8095056"><ele>569.0</ele><time>2026-04-18T09:40:32.989Z</time></trkpt><trkpt lat="43.405975" lon="12.8096008"><ele>566.6666666666667</ele><time>2026-04-18T09:40:34.041Z</time></trkpt><trkpt lat="43.4059191" lon="12.8096771"><ele>564.3333333333334</ele><time>2026-04-18T09:40:35.019Z</time></trkpt><trkpt lat="43.4058709" lon="12.8097653"><ele>562.0</ele><time>2026-04-18T09:40:36.014Z</time></trkpt><trkpt lat="43.4058264" lon="12.8098501"><ele>562.0</ele><time>2026-04-18T09:40:37.026Z</time></trkpt><trkpt lat="43.4057841" lon="12.8099174"><ele>562.0</ele><time>2026-04-18T09:40:37.989Z</time></trkpt><trkpt lat="43.4057334" lon="12.810018"><ele>562.0</ele><time>2026-04-18T09:40:39.985Z</time></trkpt><trkpt lat="43.4056823" lon="12.8101087"><ele>562.0</ele><time>2026-04-18T09:40:42.006Z</time></trkpt><trkpt lat="43.4056303" lon="12.8101801"><ele>562.0</ele><time>2026-04-18T09:40:44.03Z</time></trkpt><trkpt lat="43.4055845" lon="12.8102924"><ele>562.0</ele><time>2026-04-18T09:40:46.002Z</time></trkpt><trkpt lat="43.4055962" lon="12.8104321"><ele>560.8000000000001</ele><time>2026-04-18T09:40:48Z</time></trkpt><trkpt lat="43.405609" lon="12.8105803"><ele>559.6</ele><time>2026-04-18T09:40:50.018Z</time></trkpt><trkpt lat="43.4056048" lon="12.8106927"><ele>558.4000000000001</ele><time>2026-04-18T09:40:52.975Z</time></trkpt><trkpt lat="43.4055912" lon="12.8107837"><ele>557.2</ele><time>2026-04-18T09:40:59.017Z</time></trkpt><trkpt lat="43.4056078" lon="12.8108909"><ele>556.0</ele><time>2026-04-18T09:41:26.024Z</time></trkpt><trkpt lat="43.4056904" lon="12.8110166"><ele>554.1666666666667</ele><time>2026-04-18T09:41:28.026Z</time></trkpt><trkpt lat="43.4057387" lon="12.811099"><ele>552.3333333333334</ele><time>2026-04-18T09:41:29.007Z</time></trkpt><trkpt lat="43.4057826" lon="12.8112052"><ele>550.5</ele><time>2026-04-18T09:41:30Z</time></trkpt><trkpt lat="43.4058193" lon="12.81131"><ele>548.6666666666666</ele><time>2026-04-18T09:41:31.019Z</time></trkpt><trkpt lat="43.4058575" lon="12.8113987"><ele>546.8333333333333</ele><time>2026-04-18T09:41:32.002Z</time></trkpt><trkpt lat="43.4058979" lon="12.811479"><ele>545.0</ele><time>2026-04-18T09:41:32.985Z</time></trkpt><trkpt lat="43.4059425" lon="12.8115631"><ele>545.0</ele><time>2026-04-18T09:41:34.023Z</time></trkpt><trkpt lat="43.4059989" lon="12.8116534"><ele>545.0</ele><time>2026-04-18T09:41:34.986Z</time></trkpt><trkpt lat="43.4060474" lon="12.8117455"><ele>545.0</ele><time>2026-04-18T09:41:35.998Z</time></trkpt><trkpt lat="43.4060931" lon="12.8118351"><ele>545.0</ele><time>2026-04-18T09:41:36.993Z</time></trkpt><trkpt lat="43.40613" lon="12.8119116"><ele>545.0</ele><time>2026-04-18T09:41:37.993Z</time></trkpt><trkpt lat="43.4061598" lon="12.8120067"><ele>545.0</ele><time>2026-04-18T09:41:39.001Z</time></trkpt><trkpt lat="43.4061864" lon="12.8121097"><ele>543.6666666666666</ele><time>2026-04-18T09:41:39.994Z</time></trkpt><trkpt lat="43.4062044" lon="12.812206"><ele>542.3333333333333</ele><time>2026-04-18T09:41:41.012Z</time></trkpt><trkpt lat="43.4062386" lon="12.8122981"><ele>541.0</ele><time>2026-04-18T09:41:41.989Z</time></trkpt><trkpt lat="43.4062716" lon="12.8123764"><ele>539.6666666666666</ele><time>2026-04-18T09:41:43.002Z</time></trkpt><trkpt lat="43.4063683" lon="12.8124531"><ele>538.3333333333334</ele><time>2026-04-18T09:41:44.978Z</time></trkpt><trkpt lat="43.4064437" lon="12.812547"><ele>537.0</ele><time>2026-04-18T09:41:46.988Z</time></trkpt><trkpt lat="43.4065003" lon="12.8126267"><ele>532.8333333333334</ele><time>2026-04-18T09:41:48.999Z</time></trkpt><trkpt lat="43.4065734" lon="12.8126504"><ele>528.6666666666666</ele><time>2026-04-18T09:41:51Z</time></trkpt><trkpt lat="43.4066375" lon="12.8127062"><ele>524.5</ele><time>2026-04-18T09:41:51.997Z</time></trkpt><trkpt lat="43.4066936" lon="12.8127565"><ele>520.3333333333333</ele><time>2026-04-18T09:41:52.993Z</time></trkpt><trkpt lat="43.4067497" lon="12.812796"><ele>516.1666666666666</ele><time>2026-04-18T09:41:53.999Z</time></trkpt><trkpt lat="43.4068452" lon="12.8127659"><ele>512.0</ele><time>2026-04-18T09:41:55.984Z</time></trkpt><trkpt lat="43.4069126" lon="12.8127219"><ele>509.49999999999994</ele><time>2026-04-18T09:41:57.987Z</time></trkpt><trkpt lat="43.4069388" lon="12.8128111"><ele>507.0</ele><time>2026-04-18T09:42:00Z</time></trkpt><trkpt lat="43.4069425" lon="12.8129004"><ele>504.5</ele><time>2026-04-18T09:42:01.001Z</time></trkpt><trkpt lat="43.4069339" lon="12.8129967"><ele>502.0</ele><time>2026-04-18T09:42:01.996Z</time></trkpt><trkpt lat="43.4069218" lon="12.8130963"><ele>499.49999999999994</ele><time>2026-04-18T09:42:03.002Z</time></trkpt><trkpt lat="43.4069035" lon="12.8131817"><ele>497.0</ele><time>2026-04-18T09:42:04.013Z</time></trkpt><trkpt lat="43.4068167" lon="12.8133073"><ele>497.0</ele><time>2026-04-18T09:42:06.003Z</time></trkpt><trkpt lat="43.4067737" lon="12.813384"><ele>497.00000000000006</ele><time>2026-04-18T09:42:07.99Z</time></trkpt><trkpt lat="43.406809" lon="12.81358"><ele>497.00000000000006</ele><time>2026-04-18T09:42:10.003Z</time></trkpt><trkpt lat="43.4068406" lon="12.8137008"><ele>497.0</ele><time>2026-04-18T09:42:10.99Z</time></trkpt><trkpt lat="43.4068757" lon="12.8138354"><ele>497.0</ele><time>2026-04-18T09:42:12.004Z</time></trkpt><trkpt lat="43.4069104" lon="12.8139468"><ele>496.8333333333333</ele><time>2026-04-18T09:42:12.982Z</time></trkpt><trkpt lat="43.4069455" lon="12.8140514"><ele>496.66666666666663</ele><time>2026-04-18T09:42:14.006Z</time></trkpt><trkpt lat="43.4069793" lon="12.81415"><ele>496.5</ele><time>2026-04-18T09:42:14.988Z</time></trkpt><trkpt lat="43.4070161" lon="12.8142574"><ele>496.33333333333337</ele><time>2026-04-18T09:42:16.012Z</time></trkpt><trkpt lat="43.4070416" lon="12.8143584"><ele>496.1666666666667</ele><time>2026-04-18T09:42:16.989Z</time></trkpt><trkpt lat="43.4070422" lon="12.8144626"><ele>496.0</ele><time>2026-04-18T09:42:17.994Z</time></trkpt><trkpt lat="43.407057" lon="12.8145716"><ele>496.00000000000006</ele><time>2026-04-18T09:42:18.989Z</time></trkpt><trkpt lat="43.407089" lon="12.8146732"><ele>496.0</ele><time>2026-04-18T09:42:19.997Z</time></trkpt><trkpt lat="43.4071273" lon="12.8147708"><ele>496.0</ele><time>2026-04-18T09:42:21.003Z</time></trkpt><trkpt lat="43.4071815" lon="12.814846"><ele>496.0</ele><time>2026-04-18T09:42:22.009Z</time></trkpt><trkpt lat="43.4072536" lon="12.8149084"><ele>496.00000000000006</ele><time>2026-04-18T09:42:22.997Z</time></trkpt><trkpt lat="43.4073236" lon="12.8149998"><ele>496.0</ele><time>2026-04-18T09:42:24.002Z</time></trkpt><trkpt lat="43.407402" lon="12.8150984"><ele>490.20000000000005</ele><time>2026-04-18T09:42:24.989Z</time></trkpt><trkpt lat="43.4074694" lon="12.8152058"><ele>484.40000000000003</ele><time>2026-04-18T09:42:25.988Z</time></trkpt><trkpt lat="43.407537" lon="12.8153005"><ele>478.6</ele><time>2026-04-18T09:42:26.979Z</time></trkpt><trkpt lat="43.407601" lon="12.8153916"><ele>472.8</ele><time>2026-04-18T09:42:27.976Z</time></trkpt><trkpt lat="43.4076623" lon="12.8154719"><ele>467.0</ele><time>2026-04-18T09:42:28.997Z</time></trkpt><trkpt lat="43.4077266" lon="12.815536"><ele>467.0</ele><time>2026-04-18T09:42:29.983Z</time></trkpt><trkpt lat="43.4078047" lon="12.8156145"><ele>467.00000000000006</ele><time>2026-04-18T09:42:30.974Z</time></trkpt><trkpt lat="43.4078872" lon="12.8157098"><ele>467.00000000000006</ele><time>2026-04-18T09:42:31.989Z</time></trkpt><trkpt lat="43.4079717" lon="12.8157919"><ele>467.0</ele><time>2026-04-18T09:42:32.996Z</time></trkpt><trkpt lat="43.4080546" lon="12.8158814"><ele>467.0</ele><time>2026-04-18T09:42:33.98Z</time></trkpt><trkpt lat="43.4081315" lon="12.8159717"><ele>461.8</ele><time>2026-04-18T09:42:34.987Z</time></trkpt><trkpt lat="43.4082167" lon="12.8160636"><ele>456.6</ele><time>2026-04-18T09:42:36.002Z</time></trkpt><trkpt lat="43.4082919" lon="12.8161538"><ele>451.40000000000003</ele><time>2026-04-18T09:42:36.977Z</time></trkpt><trkpt lat="43.4083701" lon="12.8162504"><ele>446.20000000000005</ele><time>2026-04-18T09:42:38.001Z</time></trkpt><trkpt lat="43.408447" lon="12.8163419"><ele>441.0</ele><time>2026-04-18T09:42:38.969Z</time></trkpt><trkpt lat="43.4085243" lon="12.8164311"><ele>441.0</ele><time>2026-04-18T09:42:39.981Z</time></trkpt><trkpt lat="43.4085896" lon="12.81654"><ele>441.0</ele><time>2026-04-18T09:42:40.983Z</time></trkpt><trkpt lat="43.4086384" lon="12.8166627"><ele>441.0</ele><time>2026-04-18T09:42:41.983Z</time></trkpt><trkpt lat="43.4086935" lon="12.8167963"><ele>441.0</ele><time>2026-04-18T09:42:42.978Z</time></trkpt><trkpt lat="43.4087386" lon="12.8169267"><ele>441.0</ele><time>2026-04-18T09:42:43.983Z</time></trkpt><trkpt lat="43.40877" lon="12.8170658"><ele>441.8333333333333</ele><time>2026-04-18T09:42:44.984Z</time></trkpt><trkpt lat="43.4087845" lon="12.8171837"><ele>442.66666666666663</ele><time>2026-04-18T09:42:45.987Z</time></trkpt><trkpt lat="43.4087935" lon="12.8172956"><ele>443.5</ele><time>2026-04-18T09:42:46.997Z</time></trkpt><trkpt lat="43.4088008" lon="12.817412"><ele>444.3333333333333</ele><time>2026-04-18T09:42:47.988Z</time></trkpt><trkpt lat="43.4087982" lon="12.8175251"><ele>445.16666666666663</ele><time>2026-04-18T09:42:48.982Z</time></trkpt><trkpt lat="43.4088079" lon="12.8176143"><ele>446.0</ele><time>2026-04-18T09:42:50.011Z</time></trkpt><trkpt lat="43.4088046" lon="12.8177108"><ele>442.8333333333333</ele><time>2026-04-18T09:42:50.992Z</time></trkpt><trkpt lat="43.4088051" lon="12.8177978"><ele>439.66666666666663</ele><time>2026-04-18T09:42:51.994Z</time></trkpt><trkpt lat="43.4088297" lon="12.8179457"><ele>436.5</ele><time>2026-04-18T09:42:53.986Z</time></trkpt><trkpt lat="43.4088976" lon="12.8178989"><ele>433.33333333333337</ele><time>2026-04-18T09:42:56.007Z</time></trkpt><trkpt lat="43.4089415" lon="12.8178313"><ele>430.1666666666667</ele><time>2026-04-18T09:42:58.011Z</time></trkpt><trkpt lat="43.4089947" lon="12.8177532"><ele>427.0</ele><time>2026-04-18T09:42:58.987Z</time></trkpt><trkpt lat="43.4090514" lon="12.8176655"><ele>421.20000000000005</ele><time>2026-04-18T09:43:00.029Z</time></trkpt><trkpt lat="43.4091014" lon="12.8175845"><ele>415.40000000000003</ele><time>2026-04-18T09:43:00.98Z</time></trkpt><trkpt lat="43.4091474" lon="12.8174757"><ele>409.6</ele><time>2026-04-18T09:43:01.979Z</time></trkpt><trkpt lat="43.4091942" lon="12.8173413"><ele>403.79999999999995</ele><time>2026-04-18T09:43:02.99Z</time></trkpt><trkpt lat="43.4092483" lon="12.8171968"><ele>398.0</ele><time>2026-04-18T09:43:03.996Z</time></trkpt><trkpt lat="43.4092848" lon="12.8170753"><ele>397.99999999999994</ele><time>2026-04-18T09:43:05.034Z</time></trkpt><trkpt lat="43.4093097" lon="12.8169846"><ele>398.0</ele><time>2026-04-18T09:43:06.014Z</time></trkpt><trkpt lat="43.4093123" lon="12.8168914"><ele>398.0</ele><time>2026-04-18T09:43:07.017Z</time></trkpt><trkpt lat="43.4093099" lon="12.816741"><ele>398.0</ele><time>2026-04-18T09:43:09.002Z</time></trkpt><trkpt lat="43.4093285" lon="12.8166546"><ele>397.99999999999994</ele><time>2026-04-18T09:43:09.979Z</time></trkpt><trkpt lat="43.4093524" lon="12.8165494"><ele>398.0</ele><time>2026-04-18T09:43:12.007Z</time></trkpt><trkpt lat="43.4094444" lon="12.8165246"><ele>398.0</ele><time>2026-04-18T09:43:14.988Z</time></trkpt><trkpt lat="43.409506" lon="12.8165793"><ele>398.0</ele><time>2026-04-18T09:43:15.997Z</time></trkpt><trkpt lat="43.4095853" lon="12.8166967"><ele>398.0</ele><time>2026-04-18T09:43:17.988Z</time></trkpt><trkpt lat="43.409679" lon="12.8167935"><ele>398.0</ele><time>2026-04-18T09:43:19.984Z</time></trkpt><trkpt lat="43.4097622" lon="12.8167408"><ele>398.0</ele><time>2026-04-18T09:43:22.013Z</time></trkpt><trkpt lat="43.4097865" lon="12.8166473"><ele>390.59999999999997</ele><time>2026-04-18T09:43:22.99Z</time></trkpt><trkpt lat="43.4097846" lon="12.8164735"><ele>383.2</ele><time>2026-04-18T09:43:25.029Z</time></trkpt><trkpt lat="43.4098477" lon="12.8163475"><ele>375.8</ele><time>2026-04-18T09:43:27.003Z</time></trkpt><trkpt lat="43.4099108" lon="12.8163109"><ele>368.4</ele><time>2026-04-18T09:43:29.03Z</time></trkpt><trkpt lat="43.4099853" lon="12.8163212"><ele>361.0</ele><time>2026-04-18T09:43:30.973Z</time></trkpt><trkpt lat="43.4100675" lon="12.8163345"><ele>361.0</ele><time>2026-04-18T09:43:33.988Z</time></trkpt><trkpt lat="43.409997" lon="12.8163244"><ele>361.0</ele><time>2026-04-18T09:43:39.018Z</time></trkpt><trkpt lat="43.4099694" lon="12.8164425"><ele>361.0</ele><time>2026-04-18T09:43:57.017Z</time></trkpt><trkpt lat="43.4100322" lon="12.8165524"><ele>361.0</ele><time>2026-04-18T09:43:59.003Z</time></trkpt><trkpt lat="43.410071" lon="12.8166288"><ele>361.0</ele><time>2026-04-18T09:44:00.038Z</time></trkpt><trkpt lat="43.4101476" lon="12.8167645"><ele>360.20000000000005</ele><time>2026-04-18T09:44:01.994Z</time></trkpt><trkpt lat="43.410183" lon="12.8168415"><ele>359.40000000000003</ele><time>2026-04-18T09:44:03.023Z</time></trkpt><trkpt lat="43.4102233" lon="12.8169085"><ele>358.6</ele><time>2026-04-18T09:44:04.004Z</time></trkpt><trkpt lat="43.4102899" lon="12.8170348"><ele>357.8</ele><time>2026-04-18T09:44:06.022Z</time></trkpt><trkpt lat="43.4103374" lon="12.8172"><ele>357.0</ele><time>2026-04-18T09:44:08.019Z</time></trkpt><trkpt lat="43.4103719" lon="12.8173051"><ele>357.0</ele><time>2026-04-18T09:44:09.033Z</time></trkpt><trkpt lat="43.4104122" lon="12.8174169"><ele>357.0</ele><time>2026-04-18T09:44:10.028Z</time></trkpt><trkpt lat="43.4104634" lon="12.8175451"><ele>357.0</ele><time>2026-04-18T09:44:11.018Z</time></trkpt><trkpt lat="43.4105031" lon="12.8176838"><ele>357.0</ele><time>2026-04-18T09:44:12.031Z</time></trkpt><trkpt lat="43.4105362" lon="12.8178189"><ele>357.0</ele><time>2026-04-18T09:44:13.022Z</time></trkpt><trkpt lat="43.4105719" lon="12.817944"><ele>354.0</ele><time>2026-04-18T09:44:14.019Z</time></trkpt><trkpt lat="43.4106183" lon="12.8180565"><ele>351.0</ele><time>2026-04-18T09:44:15.027Z</time></trkpt><trkpt lat="43.4106627" lon="12.8181708"><ele>348.0</ele><time>2026-04-18T09:44:16.024Z</time></trkpt><trkpt lat="43.4107158" lon="12.818266"><ele>345.0</ele><time>2026-04-18T09:44:17.038Z</time></trkpt><trkpt lat="43.4107783" lon="12.8183557"><ele>342.0</ele><time>2026-04-18T09:44:18.029Z</time></trkpt><trkpt lat="43.4108448" lon="12.8184387"><ele>341.6</ele><time>2026-04-18T09:44:19.024Z</time></trkpt><trkpt lat="43.4109105" lon="12.8185361"><ele>341.20000000000005</ele><time>2026-04-18T09:44:19.998Z</time></trkpt><trkpt lat="43.4109814" lon="12.8186267"><ele>340.8</ele><time>2026-04-18T09:44:21.013Z</time></trkpt><trkpt lat="43.4110543" lon="12.8187206"><ele>340.4</ele><time>2026-04-18T09:44:22.02Z</time></trkpt><trkpt lat="43.411127" lon="12.8188055"><ele>340.0</ele><time>2026-04-18T09:44:23.03Z</time></trkpt><trkpt lat="43.4111908" lon="12.8188769"><ele>340.0</ele><time>2026-04-18T09:44:24.028Z</time></trkpt><trkpt lat="43.4112512" lon="12.8189401"><ele>340.0</ele><time>2026-04-18T09:44:24.985Z</time></trkpt><trkpt lat="43.4113051" lon="12.8189933"><ele>340.0</ele><time>2026-04-18T09:44:26.018Z</time></trkpt><trkpt lat="43.4113824" lon="12.8190722"><ele>340.0</ele><time>2026-04-18T09:44:28.015Z</time></trkpt><trkpt lat="43.4114449" lon="12.8190906"><ele>340.0</ele><time>2026-04-18T09:44:30.015Z</time></trkpt><trkpt lat="43.4114936" lon="12.8190106"><ele>340.0</ele><time>2026-04-18T09:44:32.006Z</time></trkpt><trkpt lat="43.4115216" lon="12.8189305"><ele>340.0</ele><time>2026-04-18T09:44:32.987Z</time></trkpt><trkpt lat="43.4115472" lon="12.8188409"><ele>339.4</ele><time>2026-04-18T09:44:34.037Z</time></trkpt><trkpt lat="43.411565" lon="12.8187357"><ele>338.8</ele><time>2026-04-18T09:44:34.993Z</time></trkpt><trkpt lat="43.4115909" lon="12.8186116"><ele>338.20000000000005</ele><time>2026-04-18T09:44:36.007Z</time></trkpt><trkpt lat="43.4116214" lon="12.8184822"><ele>337.6</ele><time>2026-04-18T09:44:36.997Z</time></trkpt><trkpt lat="43.4116583" lon="12.8183417"><ele>337.0</ele><time>2026-04-18T09:44:38.034Z</time></trkpt><trkpt lat="43.4116957" lon="12.8181776"><ele>336.75</ele><time>2026-04-18T09:44:39.018Z</time></trkpt><trkpt lat="43.4117435" lon="12.8180178"><ele>336.5</ele><time>2026-04-18T09:44:40.013Z</time></trkpt><trkpt lat="43.4117853" lon="12.8178352"><ele>336.25</ele><time>2026-04-18T09:44:40.98Z</time></trkpt><trkpt lat="43.4118286" lon="12.8176357"><ele>336.0</ele><time>2026-04-18T09:44:42.024Z</time></trkpt><trkpt lat="43.411872" lon="12.81744"><ele>336.0</ele><time>2026-04-18T09:44:43.011Z</time></trkpt><trkpt lat="43.4119204" lon="12.8172606"><ele>336.0</ele><time>2026-04-18T09:44:44.021Z</time></trkpt><trkpt lat="43.4119664" lon="12.817087"><ele>336.0</ele><time>2026-04-18T09:44:45.009Z</time></trkpt><trkpt lat="43.4120059" lon="12.8169178"><ele>336.0</ele><time>2026-04-18T09:44:46.024Z</time></trkpt><trkpt lat="43.4120442" lon="12.81676"><ele>337.4</ele><time>2026-04-18T09:44:47.052Z</time></trkpt><trkpt lat="43.4120734" lon="12.8166044"><ele>338.8</ele><time>2026-04-18T09:44:48.027Z</time></trkpt><trkpt lat="43.412095" lon="12.8164621"><ele>340.2</ele><time>2026-04-18T09:44:49.043Z</time></trkpt><trkpt lat="43.4121046" lon="12.8163265"><ele>341.59999999999997</ele><time>2026-04-18T09:44:49.995Z</time></trkpt><trkpt lat="43.4121038" lon="12.8162001"><ele>343.0</ele><time>2026-04-18T09:44:51.015Z</time></trkpt><trkpt lat="43.4121134" lon="12.8160954"><ele>343.0</ele><time>2026-04-18T09:44:52.011Z</time></trkpt><trkpt lat="43.4121476" lon="12.8160133"><ele>343.0</ele><time>2026-04-18T09:44:53.011Z</time></trkpt><trkpt lat="43.4122098" lon="12.8159507"><ele>343.0</ele><time>2026-04-18T09:44:54.023Z</time></trkpt><trkpt lat="43.4122826" lon="12.8158952"><ele>343.0</ele><time>2026-04-18T09:44:55.01Z</time></trkpt><trkpt lat="43.4123559" lon="12.8158315"><ele>343.0</ele><time>2026-04-18T09:44:56.029Z</time></trkpt><trkpt lat="43.4124473" lon="12.8157673"><ele>343.0</ele><time>2026-04-18T09:44:57.043Z</time></trkpt><trkpt lat="43.4125414" lon="12.8157063"><ele>339.5</ele><time>2026-04-18T09:44:58.005Z</time></trkpt><trkpt lat="43.4126379" lon="12.8156368"><ele>336.0</ele><time>2026-04-18T09:44:59.038Z</time></trkpt><trkpt lat="43.4127308" lon="12.8155598"><ele>332.5</ele><time>2026-04-18T09:44:59.986Z</time></trkpt><trkpt lat="43.4128223" lon="12.8154641"><ele>329.0</ele><time>2026-04-18T09:45:01.012Z</time></trkpt><trkpt lat="43.4129146" lon="12.815354"><ele>331.75</ele><time>2026-04-18T09:45:02.032Z</time></trkpt><trkpt lat="43.4130003" lon="12.8152474"><ele>334.5</ele><time>2026-04-18T09:45:03.031Z</time></trkpt><trkpt lat="43.4130912" lon="12.8151395"><ele>337.25</ele><time>2026-04-18T09:45:04.015Z</time></trkpt><trkpt lat="43.4131784" lon="12.8150402"><ele>340.0</ele><time>2026-04-18T09:45:05.039Z</time></trkpt><trkpt lat="43.4132664" lon="12.8149526"><ele>340.0</ele><time>2026-04-18T09:45:06.017Z</time></trkpt><trkpt lat="43.413358" lon="12.8148672"><ele>340.0</ele><time>2026-04-18T09:45:07.043Z</time></trkpt><trkpt lat="43.4134532" lon="12.8147842"><ele>340.0</ele><time>2026-04-18T09:45:08.038Z</time></trkpt><trkpt lat="43.4135451" lon="12.814703"><ele>340.0</ele><time>2026-04-18T09:45:09.017Z</time></trkpt><trkpt lat="43.4136423" lon="12.8146205"><ele>340.0</ele><time>2026-04-18T09:45:10.039Z</time></trkpt><trkpt lat="43.4137391" lon="12.8145333"><ele>341.5</ele><time>2026-04-18T09:45:11.029Z</time></trkpt><trkpt lat="43.4138355" lon="12.8144429"><ele>343.0</ele><time>2026-04-18T09:45:12.029Z</time></trkpt><trkpt lat="43.4139306" lon="12.8143491"><ele>344.5</ele><time>2026-04-18T09:45:13.026Z</time></trkpt><trkpt lat="43.4140314" lon="12.8142527"><ele>346.0</ele><time>2026-04-18T09:45:13.985Z</time></trkpt><trkpt lat="43.4141375" lon="12.8141586"><ele>346.0</ele><time>2026-04-18T09:45:14.993Z</time></trkpt><trkpt lat="43.4142515" lon="12.8140543"><ele>346.0</ele><time>2026-04-18T09:45:15.983Z</time></trkpt><trkpt lat="43.4143623" lon="12.8139628"><ele>346.0</ele><time>2026-04-18T09:45:16.996Z</time></trkpt><trkpt lat="43.4144725" lon="12.8138842"><ele>346.0</ele><time>2026-04-18T09:45:18.016Z</time></trkpt><trkpt lat="43.4145907" lon="12.8138099"><ele>350.5</ele><time>2026-04-18T09:45:19.019Z</time></trkpt><trkpt lat="43.4147088" lon="12.8137432"><ele>355.0</ele><time>2026-04-18T09:45:20.023Z</time></trkpt><trkpt lat="43.4148289" lon="12.8136735"><ele>359.5</ele><time>2026-04-18T09:45:21.024Z</time></trkpt><trkpt lat="43.4149477" lon="12.8136025"><ele>364.0</ele><time>2026-04-18T09:45:22.032Z</time></trkpt><trkpt lat="43.4150722" lon="12.8135374"><ele>361.5</ele><time>2026-04-18T09:45:23.026Z</time></trkpt><trkpt lat="43.4151947" lon="12.8134636"><ele>359.0</ele><time>2026-04-18T09:45:24.016Z</time></trkpt><trkpt lat="43.41532" lon="12.8133927"><ele>356.5</ele><time>2026-04-18T09:45:25.012Z</time></trkpt><trkpt lat="43.4154463" lon="12.8133161"><ele>354.0</ele><time>2026-04-18T09:45:26.002Z</time></trkpt><trkpt lat="43.4155772" lon="12.813235"><ele>354.0</ele><time>2026-04-18T09:45:27.009Z</time></trkpt><trkpt lat="43.4157023" lon="12.8131566"><ele>354.0</ele><time>2026-04-18T09:45:27.98Z</time></trkpt><trkpt lat="43.4158298" lon="12.813072"><ele>354.0</ele><time>2026-04-18T09:45:28.997Z</time></trkpt><trkpt lat="43.4159499" lon="12.812979"><ele>354.0</ele><time>2026-04-18T09:45:30.006Z</time></trkpt><trkpt lat="43.4160648" lon="12.8128868"><ele>354.0</ele><time>2026-04-18T09:45:31.007Z</time></trkpt><trkpt lat="43.4161734" lon="12.8127896"><ele>354.0</ele><time>2026-04-18T09:45:32.022Z</time></trkpt><trkpt lat="43.4162747" lon="12.8126976"><ele>354.0</ele><time>2026-04-18T09:45:32.971Z</time></trkpt><trkpt lat="43.416365" lon="12.8126131"><ele>354.0</ele><time>2026-04-18T09:45:34.017Z</time></trkpt><trkpt lat="43.4164521" lon="12.8125383"><ele>352.6666666666667</ele><time>2026-04-18T09:45:35.025Z</time></trkpt><trkpt lat="43.4165368" lon="12.8124888"><ele>351.3333333333333</ele><time>2026-04-18T09:45:36.022Z</time></trkpt><trkpt lat="43.4166173" lon="12.8124543"><ele>350.0</ele><time>2026-04-18T09:45:37.027Z</time></trkpt><trkpt lat="43.4166932" lon="12.8124312"><ele>348.66666666666663</ele><time>2026-04-18T09:45:38.036Z</time></trkpt><trkpt lat="43.4167792" lon="12.8124075"><ele>347.3333333333333</ele><time>2026-04-18T09:45:39.031Z</time></trkpt><trkpt lat="43.4168519" lon="12.8123807"><ele>346.0</ele><time>2026-04-18T09:45:40.027Z</time></trkpt><trkpt lat="43.4169676" lon="12.8123495"><ele>346.0</ele><time>2026-04-18T09:45:42.014Z</time></trkpt><trkpt lat="43.4170645" lon="12.8123778"><ele>346.0</ele><time>2026-04-18T09:45:44.043Z</time></trkpt><trkpt lat="43.4171416" lon="12.8124182"><ele>346.0</ele><time>2026-04-18T09:45:46.014Z</time></trkpt><trkpt lat="43.4172017" lon="12.8125063"><ele>346.0</ele><time>2026-04-18T09:45:48.005Z</time></trkpt><trkpt lat="43.4171932" lon="12.8126013"><ele>346.0</ele><time>2026-04-18T09:45:49.007Z</time></trkpt><trkpt lat="43.4171798" lon="12.8126902"><ele>346.0</ele><time>2026-04-18T09:45:50.015Z</time></trkpt><trkpt lat="43.4172015" lon="12.8128072"><ele>348.20000000000005</ele><time>2026-04-18T09:45:51.978Z</time></trkpt><trkpt lat="43.4173031" lon="12.8127252"><ele>350.40000000000003</ele><time>2026-04-18T09:45:55.014Z</time></trkpt><trkpt lat="43.4173782" lon="12.8126207"><ele>352.6</ele><time>2026-04-18T09:45:56.996Z</time></trkpt><trkpt lat="43.4174268" lon="12.8125013"><ele>354.8</ele><time>2026-04-18T09:45:59.034Z</time></trkpt><trkpt lat="43.4174365" lon="12.8123563"><ele>357.0</ele><time>2026-04-18T09:46:01.025Z</time></trkpt><trkpt lat="43.4174827" lon="12.8122031"><ele>357.0</ele><time>2026-04-18T09:46:03.042Z</time></trkpt><trkpt lat="43.4175266" lon="12.8121329"><ele>357.0</ele><time>2026-04-18T09:46:04.03Z</time></trkpt><trkpt lat="43.4175826" lon="12.8120729"><ele>357.0</ele><time>2026-04-18T09:46:05.011Z</time></trkpt><trkpt lat="43.4176354" lon="12.8120053"><ele>357.0</ele><time>2026-04-18T09:46:06.032Z</time></trkpt><trkpt lat="43.4176995" lon="12.8119216"><ele>357.0</ele><time>2026-04-18T09:46:06.988Z</time></trkpt><trkpt lat="43.4177618" lon="12.8118415"><ele>357.0</ele><time>2026-04-18T09:46:08.021Z</time></trkpt><trkpt lat="43.4178272" lon="12.811761"><ele>355.3333333333333</ele><time>2026-04-18T09:46:09.034Z</time></trkpt><trkpt lat="43.4178934" lon="12.8116687"><ele>353.6666666666667</ele><time>2026-04-18T09:46:09.997Z</time></trkpt><trkpt lat="43.4179528" lon="12.8115708"><ele>352.0</ele><time>2026-04-18T09:46:11.007Z</time></trkpt><trkpt lat="43.4180088" lon="12.8114793"><ele>350.33333333333337</ele><time>2026-04-18T09:46:12.001Z</time></trkpt><trkpt lat="43.41806" lon="12.8113837"><ele>348.6666666666667</ele><time>2026-04-18T09:46:13.002Z</time></trkpt><trkpt lat="43.418112" lon="12.8112933"><ele>347.0</ele><time>2026-04-18T09:46:14.013Z</time></trkpt><trkpt lat="43.4181597" lon="12.8112053"><ele>352.0</ele><time>2026-04-18T09:46:15.029Z</time></trkpt><trkpt lat="43.4182042" lon="12.811143"><ele>357.0</ele><time>2026-04-18T09:46:16.034Z</time></trkpt><trkpt lat="43.4183246" lon="12.8111333"><ele>362.0</ele><time>2026-04-18T09:46:18.015Z</time></trkpt><trkpt lat="43.4183925" lon="12.8111558"><ele>367.0</ele><time>2026-04-18T09:46:19.024Z</time></trkpt><trkpt lat="43.418505" lon="12.8111637"><ele>372.0</ele><time>2026-04-18T09:46:21.013Z</time></trkpt><trkpt lat="43.4185717" lon="12.8110355"><ele>368.8333333333333</ele><time>2026-04-18T09:46:22.999Z</time></trkpt><trkpt lat="43.4185693" lon="12.810941"><ele>365.6666666666667</ele><time>2026-04-18T09:46:24.016Z</time></trkpt><trkpt lat="43.4185595" lon="12.8108457"><ele>362.5</ele><time>2026-04-18T09:46:25.003Z</time></trkpt><trkpt lat="43.4185683" lon="12.8106748"><ele>359.33333333333337</ele><time>2026-04-18T09:46:27.03Z</time></trkpt><trkpt lat="43.4185756" lon="12.8105729"><ele>356.1666666666667</ele><time>2026-04-18T09:46:28.025Z</time></trkpt><trkpt lat="43.4185877" lon="12.8104785"><ele>353.0</ele><time>2026-04-18T09:46:29.025Z</time></trkpt><trkpt lat="43.4186164" lon="12.8103945"><ele>353.0</ele><time>2026-04-18T09:46:30.025Z</time></trkpt><trkpt lat="43.4186663" lon="12.8103345"><ele>353.0</ele><time>2026-04-18T09:46:31.018Z</time></trkpt><trkpt lat="43.4187285" lon="12.8102868"><ele>353.0</ele><time>2026-04-18T09:46:32.011Z</time></trkpt><trkpt lat="43.4187898" lon="12.8102473"><ele>353.0</ele><time>2026-04-18T09:46:32.994Z</time></trkpt><trkpt lat="43.4188594" lon="12.8102007"><ele>353.0</ele><time>2026-04-18T09:46:33.978Z</time></trkpt><trkpt lat="43.4189215" lon="12.8101611"><ele>353.0</ele><time>2026-04-18T09:46:35.034Z</time></trkpt><trkpt lat="43.4190006" lon="12.8101309"><ele>353.0</ele><time>2026-04-18T09:46:35.981Z</time></trkpt><trkpt lat="43.419083" lon="12.8100885"><ele>355.33333333333337</ele><time>2026-04-18T09:46:37.01Z</time></trkpt><trkpt lat="43.4191736" lon="12.8100352"><ele>357.6666666666667</ele><time>2026-04-18T09:46:37.983Z</time></trkpt><trkpt lat="43.4192584" lon="12.8099916"><ele>360.0</ele><time>2026-04-18T09:46:39.025Z</time></trkpt><trkpt lat="43.4193403" lon="12.8099469"><ele>362.3333333333333</ele><time>2026-04-18T09:46:40.024Z</time></trkpt><trkpt lat="43.4194236" lon="12.8099081"><ele>364.66666666666663</ele><time>2026-04-18T09:46:41.029Z</time></trkpt><trkpt lat="43.4194991" lon="12.8098679"><ele>367.0</ele><time>2026-04-18T09:46:42.031Z</time></trkpt><trkpt lat="43.4195748" lon="12.8098113"><ele>367.0</ele><time>2026-04-18T09:46:42.984Z</time></trkpt><trkpt lat="43.4196366" lon="12.8097585"><ele>367.0</ele><time>2026-04-18T09:46:44.019Z</time></trkpt><trkpt lat="43.4196766" lon="12.8096435"><ele>367.0</ele><time>2026-04-18T09:46:46.024Z</time></trkpt><trkpt lat="43.4195945" lon="12.8095699"><ele>367.0</ele><time>2026-04-18T09:46:48.025Z</time></trkpt><trkpt lat="43.4195009" lon="12.80949"><ele>367.0</ele><time>2026-04-18T09:46:50.023Z</time></trkpt><trkpt lat="43.4194546" lon="12.8093808"><ele>369.16666666666663</ele><time>2026-04-18T09:46:52.028Z</time></trkpt><trkpt lat="43.4195084" lon="12.8092622"><ele>371.3333333333333</ele><time>2026-04-18T09:46:54.019Z</time></trkpt><trkpt lat="43.4195538" lon="12.8091928"><ele>373.5</ele><time>2026-04-18T09:46:54.976Z</time></trkpt><trkpt lat="43.4196082" lon="12.809121"><ele>375.6666666666667</ele><time>2026-04-18T09:46:56.023Z</time></trkpt><trkpt lat="43.4196577" lon="12.8090547"><ele>377.83333333333337</ele><time>2026-04-18T09:46:57.001Z</time></trkpt><trkpt lat="43.4197067" lon="12.8089801"><ele>380.0</ele><time>2026-04-18T09:46:58.001Z</time></trkpt><trkpt lat="43.4197574" lon="12.8089177"><ele>380.0</ele><time>2026-04-18T09:46:59.019Z</time></trkpt><trkpt lat="43.4198205" lon="12.8088077"><ele>380.0</ele><time>2026-04-18T09:47:01.003Z</time></trkpt><trkpt lat="43.4198317" lon="12.8087062"><ele>380.0</ele><time>2026-04-18T09:47:02.977Z</time></trkpt><trkpt lat="43.4198804" lon="12.8086213"><ele>380.0</ele><time>2026-04-18T09:47:05.036Z</time></trkpt><trkpt lat="43.4199608" lon="12.8085338"><ele>380.0</ele><time>2026-04-18T09:47:07.033Z</time></trkpt><trkpt lat="43.4200475" lon="12.8084198"><ele>376.0</ele><time>2026-04-18T09:47:09.003Z</time></trkpt><trkpt lat="43.4200699" lon="12.8082457"><ele>372.0</ele><time>2026-04-18T09:47:11.02Z</time></trkpt><trkpt lat="43.4200817" lon="12.8081599"><ele>368.0</ele><time>2026-04-18T09:47:12.039Z</time></trkpt><trkpt lat="43.4201125" lon="12.808073"><ele>364.0</ele><time>2026-04-18T09:47:13.011Z</time></trkpt><trkpt lat="43.4201468" lon="12.8079697"><ele>360.0</ele><time>2026-04-18T09:47:14.022Z</time></trkpt><trkpt lat="43.4201667" lon="12.8078501"><ele>356.0</ele><time>2026-04-18T09:47:15Z</time></trkpt><trkpt lat="43.4201827" lon="12.807745"><ele>353.83333333333337</ele><time>2026-04-18T09:47:16.009Z</time></trkpt><trkpt lat="43.4201983" lon="12.8076553"><ele>351.6666666666667</ele><time>2026-04-18T09:47:17.018Z</time></trkpt><trkpt lat="43.4202412" lon="12.8075636"><ele>349.5</ele><time>2026-04-18T09:47:18.021Z</time></trkpt><trkpt lat="43.4202803" lon="12.8074584"><ele>347.3333333333333</ele><time>2026-04-18T09:47:19.011Z</time></trkpt><trkpt lat="43.4203038" lon="12.8073494"><ele>345.16666666666663</ele><time>2026-04-18T09:47:20.03Z</time></trkpt><trkpt lat="43.4203187" lon="12.807236"><ele>343.0</ele><time>2026-04-18T09:47:21.015Z</time></trkpt><trkpt lat="43.4203215" lon="12.8071357"><ele>343.0</ele><time>2026-04-18T09:47:22.014Z</time></trkpt><trkpt lat="43.4203389" lon="12.8070253"><ele>343.0</ele><time>2026-04-18T09:47:23.027Z</time></trkpt><trkpt lat="43.4203649" lon="12.8069121"><ele>343.0</ele><time>2026-04-18T09:47:24.035Z</time></trkpt><trkpt lat="43.4203968" lon="12.8067998"><ele>343.0</ele><time>2026-04-18T09:47:25.016Z</time></trkpt><trkpt lat="43.4204437" lon="12.8066789"><ele>343.0</ele><time>2026-04-18T09:47:26.028Z</time></trkpt><trkpt lat="43.4204662" lon="12.8065547"><ele>343.0</ele><time>2026-04-18T09:47:27.021Z</time></trkpt><trkpt lat="43.4204884" lon="12.8064408"><ele>343.79999999999995</ele><time>2026-04-18T09:47:28.007Z</time></trkpt><trkpt lat="43.4204974" lon="12.8063127"><ele>344.6</ele><time>2026-04-18T09:47:28.992Z</time></trkpt><trkpt lat="43.4204955" lon="12.8061812"><ele>345.4</ele><time>2026-04-18T09:47:30.032Z</time></trkpt><trkpt lat="43.4204899" lon="12.8060587"><ele>346.20000000000005</ele><time>2026-04-18T09:47:31.015Z</time></trkpt><trkpt lat="43.420478" lon="12.8059318"><ele>347.0</ele><time>2026-04-18T09:47:32.03Z</time></trkpt><trkpt lat="43.4204618" lon="12.8058153"><ele>347.0</ele><time>2026-04-18T09:47:32.975Z</time></trkpt><trkpt lat="43.4204435" lon="12.8056983"><ele>347.0</ele><time>2026-04-18T09:47:34.022Z</time></trkpt><trkpt lat="43.4204133" lon="12.8055764"><ele>347.0</ele><time>2026-04-18T09:47:35.015Z</time></trkpt><trkpt lat="43.4203796" lon="12.8054571"><ele>347.0</ele><time>2026-04-18T09:47:36.04Z</time></trkpt><trkpt lat="43.4203308" lon="12.8053404"><ele>347.0</ele><time>2026-04-18T09:47:37.025Z</time></trkpt><trkpt lat="43.4202802" lon="12.805217"><ele>347.1666666666667</ele><time>2026-04-18T09:47:38.029Z</time></trkpt><trkpt lat="43.4202341" lon="12.8051138"><ele>347.33333333333337</ele><time>2026-04-18T09:47:39.015Z</time></trkpt><trkpt lat="43.4202004" lon="12.8050168"><ele>347.5</ele><time>2026-04-18T09:47:40.032Z</time></trkpt><trkpt lat="43.4201692" lon="12.8049198"><ele>347.6666666666667</ele><time>2026-04-18T09:47:41.019Z</time></trkpt><trkpt lat="43.42015" lon="12.8048308"><ele>347.8333333333333</ele><time>2026-04-18T09:47:42.029Z</time></trkpt><trkpt lat="43.4201079" lon="12.8047516"><ele>348.0</ele><time>2026-04-18T09:47:43.038Z</time></trkpt><trkpt lat="43.4200507" lon="12.804691"><ele>348.0</ele><time>2026-04-18T09:47:44.011Z</time></trkpt><trkpt lat="43.4199728" lon="12.8046529"><ele>348.0</ele><time>2026-04-18T09:47:45.001Z</time></trkpt><trkpt lat="43.4198981" lon="12.8045963"><ele>348.0</ele><time>2026-04-18T09:47:46.014Z</time></trkpt><trkpt lat="43.419831" lon="12.8045279"><ele>348.0</ele><time>2026-04-18T09:47:47.015Z</time></trkpt><trkpt lat="43.4197732" lon="12.8044468"><ele>348.0</ele><time>2026-04-18T09:47:48.025Z</time></trkpt><trkpt lat="43.4197338" lon="12.8043491"><ele>348.0</ele><time>2026-04-18T09:47:48.996Z</time></trkpt><trkpt lat="43.4197157" lon="12.8042385"><ele>350.3333333333333</ele><time>2026-04-18T09:47:50.003Z</time></trkpt><trkpt lat="43.4197058" lon="12.8041238"><ele>352.6666666666667</ele><time>2026-04-18T09:47:51.02Z</time></trkpt><trkpt lat="43.4197024" lon="12.8040081"><ele>355.0</ele><time>2026-04-18T09:47:52.016Z</time></trkpt><trkpt lat="43.4197084" lon="12.8038935"><ele>357.33333333333337</ele><time>2026-04-18T09:47:52.994Z</time></trkpt><trkpt lat="43.4197182" lon="12.8037799"><ele>359.6666666666667</ele><time>2026-04-18T09:47:54.028Z</time></trkpt><trkpt lat="43.4197327" lon="12.8036714"><ele>362.0</ele><time>2026-04-18T09:47:55.025Z</time></trkpt><trkpt lat="43.419752" lon="12.8035706"><ele>361.5</ele><time>2026-04-18T09:47:56.02Z</time></trkpt><trkpt lat="43.4197782" lon="12.8034697"><ele>361.0</ele><time>2026-04-18T09:47:57.007Z</time></trkpt><trkpt lat="43.4198144" lon="12.8033439"><ele>360.5</ele><time>2026-04-18T09:47:58.007Z</time></trkpt><trkpt lat="43.4198414" lon="12.803237"><ele>360.0</ele><time>2026-04-18T09:47:59.016Z</time></trkpt><trkpt lat="43.4198663" lon="12.8031457"><ele>359.5</ele><time>2026-04-18T09:47:59.99Z</time></trkpt><trkpt lat="43.4199014" lon="12.8030682"><ele>359.0</ele><time>2026-04-18T09:48:01.005Z</time></trkpt><trkpt lat="43.4199542" lon="12.8030077"><ele>359.0</ele><time>2026-04-18T09:48:02.008Z</time></trkpt><trkpt lat="43.4200085" lon="12.8029425"><ele>359.0</ele><time>2026-04-18T09:48:03.01Z</time></trkpt><trkpt lat="43.4201016" lon="12.8028476"><ele>359.0</ele><time>2026-04-18T09:48:05.017Z</time></trkpt><trkpt lat="43.4201911" lon="12.802739"><ele>359.0</ele><time>2026-04-18T09:48:07.048Z</time></trkpt><trkpt lat="43.4202435" lon="12.8026864"><ele>359.0</ele><time>2026-04-18T09:48:08.023Z</time></trkpt><trkpt lat="43.4202959" lon="12.8026278"><ele>359.0</ele><time>2026-04-18T09:48:09.031Z</time></trkpt><trkpt lat="43.4203563" lon="12.8025769"><ele>357.5</ele><time>2026-04-18T09:48:10.02Z</time></trkpt><trkpt lat="43.4204179" lon="12.8025314"><ele>356.0</ele><time>2026-04-18T09:48:11.027Z</time></trkpt><trkpt lat="43.4204848" lon="12.8024873"><ele>354.5</ele><time>2026-04-18T09:48:12.009Z</time></trkpt><trkpt lat="43.4205592" lon="12.8024483"><ele>353.0</ele><time>2026-04-18T09:48:13.015Z</time></trkpt><trkpt lat="43.4206305" lon="12.8024092"><ele>351.5</ele><time>2026-04-18T09:48:14.013Z</time></trkpt><trkpt lat="43.4207026" lon="12.8023726"><ele>350.0</ele><time>2026-04-18T09:48:14.993Z</time></trkpt><trkpt lat="43.4207772" lon="12.8023391"><ele>353.33333333333337</ele><time>2026-04-18T09:48:16.016Z</time></trkpt><trkpt lat="43.4208525" lon="12.8022964"><ele>356.6666666666667</ele><time>2026-04-18T09:48:17.03Z</time></trkpt><trkpt lat="43.4209141" lon="12.8022537"><ele>360.0</ele><time>2026-04-18T09:48:18.028Z</time></trkpt><trkpt lat="43.42099" lon="12.8022053"><ele>363.3333333333333</ele><time>2026-04-18T09:48:20.001Z</time></trkpt><trkpt lat="43.4210553" lon="12.802217"><ele>366.66666666666663</ele><time>2026-04-18T09:48:22.028Z</time></trkpt><trkpt lat="43.4211593" lon="12.8021559"><ele>370.0</ele><time>2026-04-18T09:48:25.004Z</time></trkpt><trkpt lat="43.4212452" lon="12.8020848"><ele>374.5</ele><time>2026-04-18T09:48:27.007Z</time></trkpt><trkpt lat="43.4213652" lon="12.8020215"><ele>379.0</ele><time>2026-04-18T09:48:29.01Z</time></trkpt><trkpt lat="43.4214308" lon="12.8019878"><ele>383.5</ele><time>2026-04-18T09:48:30.014Z</time></trkpt><trkpt lat="43.4214994" lon="12.8019691"><ele>388.0</ele><time>2026-04-18T09:48:31.01Z</time></trkpt><trkpt lat="43.4215662" lon="12.8019638"><ele>392.50000000000006</ele><time>2026-04-18T09:48:32.005Z</time></trkpt><trkpt lat="43.4216291" lon="12.80197"><ele>397.0</ele><time>2026-04-18T09:48:32.972Z</time></trkpt><trkpt lat="43.4217218" lon="12.801954"><ele>397.0</ele><time>2026-04-18T09:48:35.012Z</time></trkpt><trkpt lat="43.4217849" lon="12.8018867"><ele>397.0</ele><time>2026-04-18T09:48:37.017Z</time></trkpt><trkpt lat="43.4218744" lon="12.8018532"><ele>397.0</ele><time>2026-04-18T09:48:39.015Z</time></trkpt><trkpt lat="43.4219763" lon="12.8019089"><ele>397.0</ele><time>2026-04-18T09:48:41.011Z</time></trkpt><trkpt lat="43.4220656" lon="12.8019919"><ele>397.0</ele><time>2026-04-18T09:48:42.986Z</time></trkpt><trkpt lat="43.4221625" lon="12.8020701"><ele>401.75</ele><time>2026-04-18T09:48:45.01Z</time></trkpt><trkpt lat="43.4222789" lon="12.80208"><ele>406.5</ele><time>2026-04-18T09:48:47.019Z</time></trkpt><trkpt lat="43.4223923" lon="12.8020131"><ele>411.25</ele><time>2026-04-18T09:48:49.012Z</time></trkpt><trkpt lat="43.4224981" lon="12.801925"><ele>416.0</ele><time>2026-04-18T09:48:50.991Z</time></trkpt><trkpt lat="43.4226" lon="12.801846"><ele>415.85714285714283</ele><time>2026-04-18T09:48:53.015Z</time></trkpt><trkpt lat="43.4226546" lon="12.8017989"><ele>415.7142857142857</ele><time>2026-04-18T09:48:54.01Z</time></trkpt><trkpt lat="43.4227222" lon="12.8017526"><ele>415.57142857142856</ele><time>2026-04-18T09:48:54.982Z</time></trkpt><trkpt lat="43.4227927" lon="12.8017072"><ele>415.42857142857144</ele><time>2026-04-18T09:48:56.01Z</time></trkpt><trkpt lat="43.4228614" lon="12.8016673"><ele>415.28571428571433</ele><time>2026-04-18T09:48:57.003Z</time></trkpt><trkpt lat="43.422925" lon="12.8016289"><ele>415.14285714285717</ele><time>2026-04-18T09:48:58.013Z</time></trkpt><trkpt lat="43.4229922" lon="12.8015883"><ele>415.0</ele><time>2026-04-18T09:48:59.017Z</time></trkpt><trkpt lat="43.4230638" lon="12.8015586"><ele>415.00000000000006</ele><time>2026-04-18T09:49:00.022Z</time></trkpt><trkpt lat="43.4231271" lon="12.8015562"><ele>415.0</ele><time>2026-04-18T09:49:01.011Z</time></trkpt><trkpt lat="43.423194" lon="12.8015719"><ele>415.0</ele><time>2026-04-18T09:49:02.037Z</time></trkpt><trkpt lat="43.4232684" lon="12.801603"><ele>415.0</ele><time>2026-04-18T09:49:03.017Z</time></trkpt><trkpt lat="43.4233503" lon="12.8016355"><ele>415.00000000000006</ele><time>2026-04-18T09:49:04.002Z</time></trkpt><trkpt lat="43.4234312" lon="12.8016657"><ele>415.0</ele><time>2026-04-18T09:49:05.027Z</time></trkpt><trkpt lat="43.4235107" lon="12.8017021"><ele>415.00000000000006</ele><time>2026-04-18T09:49:06.033Z</time></trkpt><trkpt lat="43.4235845" lon="12.801734"><ele>415.0</ele><time>2026-04-18T09:49:07.004Z</time></trkpt><trkpt lat="43.4236645" lon="12.8017585"><ele>415.0</ele><time>2026-04-18T09:49:08.007Z</time></trkpt><trkpt lat="43.4237427" lon="12.8017855"><ele>415.0</ele><time>2026-04-18T09:49:08.976Z</time></trkpt><trkpt lat="43.4238196" lon="12.8018211"><ele>415.00000000000006</ele><time>2026-04-18T09:49:10.007Z</time></trkpt><trkpt lat="43.4238993" lon="12.8018401"><ele>415.0</ele><time>2026-04-18T09:49:10.996Z</time></trkpt><trkpt lat="43.4239782" lon="12.8018362"><ele>417.6</ele><time>2026-04-18T09:49:12.011Z</time></trkpt><trkpt lat="43.4240514" lon="12.801823"><ele>420.2</ele><time>2026-04-18T09:49:13.021Z</time></trkpt><trkpt lat="43.4241258" lon="12.8018216"><ele>422.79999999999995</ele><time>2026-04-18T09:49:14.011Z</time></trkpt><trkpt lat="43.4241947" lon="12.8018324"><ele>425.4</ele><time>2026-04-18T09:49:15.029Z</time></trkpt><trkpt lat="43.4243219" lon="12.8018611"><ele>428.0</ele><time>2026-04-18T09:49:17.018Z</time></trkpt><trkpt lat="43.4244398" lon="12.8019238"><ele>431.16666666666663</ele><time>2026-04-18T09:49:19.031Z</time></trkpt><trkpt lat="43.4245047" lon="12.8019579"><ele>434.3333333333333</ele><time>2026-04-18T09:49:20.018Z</time></trkpt><trkpt lat="43.4245768" lon="12.8019862"><ele>437.5</ele><time>2026-04-18T09:49:20.996Z</time></trkpt><trkpt lat="43.4246593" lon="12.8020115"><ele>440.66666666666663</ele><time>2026-04-18T09:49:22.006Z</time></trkpt><trkpt lat="43.4247409" lon="12.8020394"><ele>443.8333333333333</ele><time>2026-04-18T09:49:23.009Z</time></trkpt><trkpt lat="43.4248239" lon="12.8020608"><ele>447.0</ele><time>2026-04-18T09:49:24.001Z</time></trkpt><trkpt lat="43.4249066" lon="12.8020721"><ele>448.6666666666667</ele><time>2026-04-18T09:49:25.024Z</time></trkpt><trkpt lat="43.4249955" lon="12.8020878"><ele>450.33333333333337</ele><time>2026-04-18T09:49:26.005Z</time></trkpt><trkpt lat="43.4250826" lon="12.8020967"><ele>452.0</ele><time>2026-04-18T09:49:27.02Z</time></trkpt><trkpt lat="43.42516" lon="12.8021097"><ele>453.6666666666667</ele><time>2026-04-18T09:49:28.009Z</time></trkpt><trkpt lat="43.4252411" lon="12.8021136"><ele>455.33333333333337</ele><time>2026-04-18T09:49:29.002Z</time></trkpt><trkpt lat="43.4253178" lon="12.802119"><ele>457.0</ele><time>2026-04-18T09:49:30.012Z</time></trkpt><trkpt lat="43.4253952" lon="12.8021219"><ele>457.00000000000006</ele><time>2026-04-18T09:49:31.012Z</time></trkpt><trkpt lat="43.4254747" lon="12.8021246"><ele>457.0</ele><time>2026-04-18T09:49:32.005Z</time></trkpt><trkpt lat="43.4255542" lon="12.8021306"><ele>457.0</ele><time>2026-04-18T09:49:32.978Z</time></trkpt><trkpt lat="43.4256387" lon="12.8021258"><ele>457.0</ele><time>2026-04-18T09:49:34.007Z</time></trkpt><trkpt lat="43.4257049" lon="12.8021317"><ele>457.00000000000006</ele><time>2026-04-18T09:49:35.014Z</time></trkpt><trkpt lat="43.4257807" lon="12.8021535"><ele>457.0</ele><time>2026-04-18T09:49:36.019Z</time></trkpt><trkpt lat="43.4258423" lon="12.8021908"><ele>460.40000000000003</ele><time>2026-04-18T09:49:37.017Z</time></trkpt><trkpt lat="43.4258971" lon="12.8022496"><ele>463.80000000000007</ele><time>2026-04-18T09:49:38.018Z</time></trkpt><trkpt lat="43.4259643" lon="12.8023345"><ele>467.2</ele><time>2026-04-18T09:49:39.016Z</time></trkpt><trkpt lat="43.4260252" lon="12.802446"><ele>470.6</ele><time>2026-04-18T09:49:40.027Z</time></trkpt><trkpt lat="43.4261026" lon="12.8025637"><ele>474.0</ele><time>2026-04-18T09:49:40.991Z</time></trkpt><trkpt lat="43.4261761" lon="12.8026808"><ele>479.1666666666667</ele><time>2026-04-18T09:49:42.001Z</time></trkpt><trkpt lat="43.4262383" lon="12.8027657"><ele>484.33333333333337</ele><time>2026-04-18T09:49:42.977Z</time></trkpt><trkpt lat="43.4263052" lon="12.8028483"><ele>489.5</ele><time>2026-04-18T09:49:44.012Z</time></trkpt><trkpt lat="43.4263652" lon="12.8029265"><ele>494.6666666666667</ele><time>2026-04-18T09:49:45.019Z</time></trkpt><trkpt lat="43.4264256" lon="12.802993"><ele>499.83333333333337</ele><time>2026-04-18T09:49:46.01Z</time></trkpt><trkpt lat="43.4264838" lon="12.8030668"><ele>505.0</ele><time>2026-04-18T09:49:47.011Z</time></trkpt><trkpt lat="43.4265371" lon="12.8031395"><ele>508.50000000000006</ele><time>2026-04-18T09:49:48.017Z</time></trkpt><trkpt lat="43.4265995" lon="12.8032042"><ele>512.0</ele><time>2026-04-18T09:49:49.003Z</time></trkpt><trkpt lat="43.4266608" lon="12.8032664"><ele>515.5</ele><time>2026-04-18T09:49:50.016Z</time></trkpt><trkpt lat="43.4267249" lon="12.8033264"><ele>519.0</ele><time>2026-04-18T09:49:50.999Z</time></trkpt><trkpt lat="43.426796" lon="12.8033823"><ele>522.5</ele><time>2026-04-18T09:49:51.996Z</time></trkpt><trkpt lat="43.4268764" lon="12.8034271"><ele>526.0</ele><time>2026-04-18T09:49:53.028Z</time></trkpt><trkpt lat="43.4269763" lon="12.8034424"><ele>526.0</ele><time>2026-04-18T09:49:54.014Z</time></trkpt><trkpt lat="43.4270955" lon="12.8034246"><ele>526.0</ele><time>2026-04-18T09:49:55.021Z</time></trkpt><trkpt lat="43.4272153" lon="12.8033833"><ele>526.0</ele><time>2026-04-18T09:49:56.015Z</time></trkpt><trkpt lat="43.4273105" lon="12.803339"><ele>526.0</ele><time>2026-04-18T09:49:56.986Z</time></trkpt><trkpt lat="43.4273905" lon="12.8032832"><ele>526.0</ele><time>2026-04-18T09:49:58.012Z</time></trkpt><trkpt lat="43.4274712" lon="12.8032214"><ele>530.1666666666667</ele><time>2026-04-18T09:49:59.004Z</time></trkpt><trkpt lat="43.4275438" lon="12.8031522"><ele>534.3333333333334</ele><time>2026-04-18T09:50:00.011Z</time></trkpt><trkpt lat="43.4276097" lon="12.8030896"><ele>538.5</ele><time>2026-04-18T09:50:01.011Z</time></trkpt><trkpt lat="43.4276763" lon="12.803028"><ele>542.6666666666666</ele><time>2026-04-18T09:50:01.979Z</time></trkpt><trkpt lat="43.4277496" lon="12.8029631"><ele>546.8333333333333</ele><time>2026-04-18T09:50:03.008Z</time></trkpt><trkpt lat="43.4278181" lon="12.802901"><ele>551.0</ele><time>2026-04-18T09:50:04.02Z</time></trkpt><trkpt lat="43.4279034" lon="12.8028263"><ele>555.2</ele><time>2026-04-18T09:50:05.021Z</time></trkpt><trkpt lat="43.4279864" lon="12.8027525"><ele>559.4000000000001</ele><time>2026-04-18T09:50:06.013Z</time></trkpt><trkpt lat="43.42807" lon="12.8026698"><ele>563.6</ele><time>2026-04-18T09:50:07.022Z</time></trkpt><trkpt lat="43.4281409" lon="12.802595"><ele>567.8000000000001</ele><time>2026-04-18T09:50:08.01Z</time></trkpt><trkpt lat="43.4282028" lon="12.802521"><ele>572.0</ele><time>2026-04-18T09:50:09.004Z</time></trkpt><trkpt lat="43.4282543" lon="12.8024204"><ele>571.9999999999999</ele><time>2026-04-18T09:50:10.018Z</time></trkpt><trkpt lat="43.4282817" lon="12.8023249"><ele>572.0</ele><time>2026-04-18T09:50:11.02Z</time></trkpt><trkpt lat="43.4282832" lon="12.8022303"><ele>572.0</ele><time>2026-04-18T09:50:12.007Z</time></trkpt><trkpt lat="43.4282914" lon="12.8021393"><ele>572.0</ele><time>2026-04-18T09:50:13.024Z</time></trkpt><trkpt lat="43.4282966" lon="12.8020405"><ele>572.0</ele><time>2026-04-18T09:50:14.021Z</time></trkpt><trkpt lat="43.4282934" lon="12.8019336"><ele>571.9999999999999</ele><time>2026-04-18T09:50:15.009Z</time></trkpt><trkpt lat="43.4282702" lon="12.80182"><ele>572.0</ele><time>2026-04-18T09:50:16.016Z</time></trkpt><trkpt lat="43.4282508" lon="12.8017001"><ele>572.8333333333333</ele><time>2026-04-18T09:50:17.014Z</time></trkpt><trkpt lat="43.4282238" lon="12.8015707"><ele>573.6666666666666</ele><time>2026-04-18T09:50:18.008Z</time></trkpt><trkpt lat="43.4281965" lon="12.8014307"><ele>574.5</ele><time>2026-04-18T09:50:19.019Z</time></trkpt><trkpt lat="43.4281679" lon="12.8013175"><ele>575.3333333333334</ele><time>2026-04-18T09:50:20.019Z</time></trkpt><trkpt lat="43.4281384" lon="12.8012247"><ele>576.1666666666667</ele><time>2026-04-18T09:50:21.034Z</time></trkpt><trkpt lat="43.4281201" lon="12.8011165"><ele>577.0</ele><time>2026-04-18T09:50:23.013Z</time></trkpt><trkpt lat="43.4281951" lon="12.8011784"><ele>577.0</ele><time>2026-04-18T09:50:26.02Z</time></trkpt><trkpt lat="43.4282624" lon="12.801213"><ele>577.0</ele><time>2026-04-18T09:50:28.016Z</time></trkpt><trkpt lat="43.4283388" lon="12.8012424"><ele>577.0</ele><time>2026-04-18T09:50:30.029Z</time></trkpt><trkpt lat="43.4284207" lon="12.8012781"><ele>577.0</ele><time>2026-04-18T09:50:32.039Z</time></trkpt><trkpt lat="43.4285051" lon="12.8012929"><ele>577.0</ele><time>2026-04-18T09:50:33.977Z</time></trkpt><trkpt lat="43.4285784" lon="12.8013489"><ele>577.0</ele><time>2026-04-18T09:50:36.037Z</time></trkpt><trkpt lat="43.4286623" lon="12.8014263"><ele>577.0</ele><time>2026-04-18T09:50:38.021Z</time></trkpt><trkpt lat="43.4287711" lon="12.8015152"><ele>577.0</ele><time>2026-04-18T09:50:40.009Z</time></trkpt><trkpt lat="43.428821" lon="12.8015831"><ele>577.0</ele><time>2026-04-18T09:50:41.014Z</time></trkpt><trkpt lat="43.428868" lon="12.8016578"><ele>577.0</ele><time>2026-04-18T09:50:42.012Z</time></trkpt><trkpt lat="43.4289134" lon="12.8017354"><ele>577.0</ele><time>2026-04-18T09:50:43.003Z</time></trkpt><trkpt lat="43.4289564" lon="12.8018053"><ele>577.0</ele><time>2026-04-18T09:50:44.033Z</time></trkpt><trkpt lat="43.4289975" lon="12.8018869"><ele>583.8333333333334</ele><time>2026-04-18T09:50:45.019Z</time></trkpt><trkpt lat="43.4290376" lon="12.8019791"><ele>590.6666666666667</ele><time>2026-04-18T09:50:46.012Z</time></trkpt><trkpt lat="43.4290761" lon="12.802069"><ele>597.5</ele><time>2026-04-18T09:50:47.025Z</time></trkpt><trkpt lat="43.4291069" lon="12.8021604"><ele>604.3333333333334</ele><time>2026-04-18T09:50:48.019Z</time></trkpt><trkpt lat="43.4291321" lon="12.8022517"><ele>611.1666666666666</ele><time>2026-04-18T09:50:49.023Z</time></trkpt><trkpt lat="43.4291523" lon="12.8023389"><ele>618.0</ele><time>2026-04-18T09:50:50.014Z</time></trkpt><trkpt lat="43.4291657" lon="12.8024995"><ele>618.0</ele><time>2026-04-18T09:50:52.002Z</time></trkpt><trkpt lat="43.4291531" lon="12.8026566"><ele>618.0</ele><time>2026-04-18T09:50:54.027Z</time></trkpt><trkpt lat="43.4291427" lon="12.8027518"><ele>618.0</ele><time>2026-04-18T09:50:55.041Z</time></trkpt><trkpt lat="43.4291284" lon="12.8028545"><ele>618.0</ele><time>2026-04-18T09:50:56.019Z</time></trkpt><trkpt lat="43.429108" lon="12.8029528"><ele>618.0</ele><time>2026-04-18T09:50:57.023Z</time></trkpt><trkpt lat="43.4290809" lon="12.803056"><ele>618.0</ele><time>2026-04-18T09:50:58.011Z</time></trkpt><trkpt lat="43.4290526" lon="12.8031544"><ele>619.5</ele><time>2026-04-18T09:50:59.04Z</time></trkpt><trkpt lat="43.4290223" lon="12.803253"><ele>621.0</ele><time>2026-04-18T09:51:00.01Z</time></trkpt><trkpt lat="43.4289917" lon="12.8033687"><ele>622.5</ele><time>2026-04-18T09:51:01.009Z</time></trkpt><trkpt lat="43.428956" lon="12.8034734"><ele>624.0</ele><time>2026-04-18T09:51:02.03Z</time></trkpt><trkpt lat="43.4289314" lon="12.8035746"><ele>625.5</ele><time>2026-04-18T09:51:03Z</time></trkpt><trkpt lat="43.4289024" lon="12.8036672"><ele>627.0</ele><time>2026-04-18T09:51:04.03Z</time></trkpt><trkpt lat="43.4288814" lon="12.8037564"><ele>629.3333333333334</ele><time>2026-04-18T09:51:04.995Z</time></trkpt><trkpt lat="43.4288574" lon="12.8039087"><ele>631.6666666666666</ele><time>2026-04-18T09:51:07.024Z</time></trkpt><trkpt lat="43.4288656" lon="12.8040403"><ele>634.0</ele><time>2026-04-18T09:51:08.973Z</time></trkpt><trkpt lat="43.4288863" lon="12.8041424"><ele>636.3333333333333</ele><time>2026-04-18T09:51:11.015Z</time></trkpt><trkpt lat="43.4289426" lon="12.8041915"><ele>638.6666666666666</ele><time>2026-04-18T09:51:14.028Z</time></trkpt><trkpt lat="43.4290031" lon="12.80415"><ele>641.0</ele><time>2026-04-18T09:51:21.011Z</time></trkpt><trkpt lat="43.4290256" lon="12.8040541"><ele>641.0</ele><time>2026-04-18T09:51:23.002Z</time></trkpt><trkpt lat="43.4290653" lon="12.8039411"><ele>641.0</ele><time>2026-04-18T09:51:24.996Z</time></trkpt><trkpt lat="43.429129" lon="12.8039403"><ele>641.0</ele><time>2026-04-18T09:51:42.012Z</time></trkpt><trkpt lat="43.429114" lon="12.8040272"><ele>641.0</ele><time>2026-04-18T09:51:48.019Z</time></trkpt><trkpt lat="43.429159" lon="12.8040941"><ele>641.0</ele><time>2026-04-18T09:51:54.009Z</time></trkpt><trkpt lat="43.4292491" lon="12.804068"><ele>641.0</ele><time>2026-04-18T09:52:19.006Z</time></trkpt><trkpt lat="43.4293182" lon="12.8040207"><ele>641.0</ele><time>2026-04-18T09:52:21Z</time></trkpt><trkpt lat="43.4293896" lon="12.80396"><ele>641.0</ele><time>2026-04-18T09:52:22.995Z</time></trkpt><trkpt lat="43.429458" lon="12.8038986"><ele>641.0</ele><time>2026-04-18T09:52:24.996Z</time></trkpt><trkpt lat="43.4295324" lon="12.8038426"><ele>641.0</ele><time>2026-04-18T09:52:26.994Z</time></trkpt><trkpt lat="43.4296084" lon="12.8037656"><ele>641.0</ele><time>2026-04-18T09:52:28.995Z</time></trkpt><trkpt lat="43.4296822" lon="12.8036685"><ele>641.0</ele><time>2026-04-18T09:52:30.981Z</time></trkpt><trkpt lat="43.4297709" lon="12.8035823"><ele>639.0</ele><time>2026-04-18T09:52:32.992Z</time></trkpt><trkpt lat="43.4298449" lon="12.8034854"><ele>637.0</ele><time>2026-04-18T09:52:34.98Z</time></trkpt><trkpt lat="43.4298984" lon="12.8033862"><ele>635.0</ele><time>2026-04-18T09:52:36.972Z</time></trkpt><trkpt lat="43.4299702" lon="12.8032817"><ele>633.0</ele><time>2026-04-18T09:52:38.988Z</time></trkpt><trkpt lat="43.4300376" lon="12.8031833"><ele>631.0</ele><time>2026-04-18T09:52:40.98Z</time></trkpt><trkpt lat="43.4301066" lon="12.8030611"><ele>631.0</ele><time>2026-04-18T09:52:42.989Z</time></trkpt><trkpt lat="43.4301869" lon="12.8029682"><ele>631.0</ele><time>2026-04-18T09:52:45.02Z</time></trkpt><trkpt lat="43.4302619" lon="12.8028828"><ele>631.0</ele><time>2026-04-18T09:52:46.985Z</time></trkpt><trkpt lat="43.4303448" lon="12.8028261"><ele>631.0</ele><time>2026-04-18T09:52:48.987Z</time></trkpt><trkpt lat="43.4304178" lon="12.802777"><ele>631.0</ele><time>2026-04-18T09:52:52.017Z</time></trkpt><trkpt lat="43.4304682" lon="12.8027148"><ele>631.0</ele><time>2026-04-18T09:52:59.99Z</time></trkpt><trkpt lat="43.4305358" lon="12.8027668"><ele>631.8333333333334</ele><time>2026-04-18T09:56:03.989Z</time></trkpt><trkpt lat="43.4306151" lon="12.8027378"><ele>632.6666666666667</ele><time>2026-04-18T09:56:07.014Z</time></trkpt><trkpt lat="43.4307023" lon="12.8026814"><ele>633.5</ele><time>2026-04-18T09:56:08.989Z</time></trkpt><trkpt lat="43.4307646" lon="12.8026424"><ele>634.3333333333334</ele><time>2026-04-18T09:56:10.01Z</time></trkpt><trkpt lat="43.4308283" lon="12.8025959"><ele>635.1666666666666</ele><time>2026-04-18T09:56:11.019Z</time></trkpt><trkpt lat="43.4309333" lon="12.8024914"><ele>636.0</ele><time>2026-04-18T09:56:13.012Z</time></trkpt><trkpt lat="43.43099" lon="12.802428"><ele>633.3333333333334</ele><time>2026-04-18T09:56:14Z</time></trkpt><trkpt lat="43.4310478" lon="12.8023634"><ele>630.6666666666666</ele><time>2026-04-18T09:56:15.011Z</time></trkpt><trkpt lat="43.4311423" lon="12.802254"><ele>628.0</ele><time>2026-04-18T09:56:16.981Z</time></trkpt><trkpt lat="43.4311996" lon="12.8021842"><ele>625.3333333333333</ele><time>2026-04-18T09:56:17.985Z</time></trkpt><trkpt lat="43.431256" lon="12.8021203"><ele>622.6666666666666</ele><time>2026-04-18T09:56:18.993Z</time></trkpt><trkpt lat="43.4313197" lon="12.8020478"><ele>620.0</ele><time>2026-04-18T09:56:20.007Z</time></trkpt><trkpt lat="43.4313876" lon="12.8019748"><ele>620.0</ele><time>2026-04-18T09:56:20.981Z</time></trkpt><trkpt lat="43.4314565" lon="12.8019038"><ele>620.0</ele><time>2026-04-18T09:56:22.004Z</time></trkpt><trkpt lat="43.4315372" lon="12.8018314"><ele>620.0</ele><time>2026-04-18T09:56:22.97Z</time></trkpt><trkpt lat="43.4316061" lon="12.8017611"><ele>620.0</ele><time>2026-04-18T09:56:23.964Z</time></trkpt><trkpt lat="43.4316829" lon="12.8017152"><ele>620.0</ele><time>2026-04-18T09:56:24.962Z</time></trkpt><trkpt lat="43.4317653" lon="12.8016798"><ele>620.0</ele><time>2026-04-18T09:56:25.97Z</time></trkpt><trkpt lat="43.4318435" lon="12.8016207"><ele>617.6666666666666</ele><time>2026-04-18T09:56:26.971Z</time></trkpt><trkpt lat="43.4318985" lon="12.8015527"><ele>615.3333333333333</ele><time>2026-04-18T09:56:27.974Z</time></trkpt><trkpt lat="43.4319678" lon="12.8014999"><ele>613.0</ele><time>2026-04-18T09:56:28.966Z</time></trkpt><trkpt lat="43.4320486" lon="12.8014453"><ele>610.6666666666666</ele><time>2026-04-18T09:56:29.984Z</time></trkpt><trkpt lat="43.4321114" lon="12.8013913"><ele>608.3333333333334</ele><time>2026-04-18T09:56:30.997Z</time></trkpt><trkpt lat="43.4321732" lon="12.8013171"><ele>606.0</ele><time>2026-04-18T09:56:31.992Z</time></trkpt><trkpt lat="43.4322362" lon="12.8012344"><ele>605.5</ele><time>2026-04-18T09:56:32.989Z</time></trkpt><trkpt lat="43.4322824" lon="12.8011492"><ele>605.0</ele><time>2026-04-18T09:56:33.986Z</time></trkpt><trkpt lat="43.4323272" lon="12.8010848"><ele>604.5</ele><time>2026-04-18T09:56:34.984Z</time></trkpt><trkpt lat="43.4323785" lon="12.8010214"><ele>604.0</ele><time>2026-04-18T09:56:36.013Z</time></trkpt><trkpt lat="43.4324586" lon="12.8009334"><ele>603.5</ele><time>2026-04-18T09:56:37.981Z</time></trkpt><trkpt lat="43.4325407" lon="12.8008474"><ele>603.0</ele><time>2026-04-18T09:56:39.981Z</time></trkpt><trkpt lat="43.4326618" lon="12.8008078"><ele>600.3333333333334</ele><time>2026-04-18T09:56:42.013Z</time></trkpt><trkpt lat="43.4327416" lon="12.8007885"><ele>597.6666666666666</ele><time>2026-04-18T09:56:42.976Z</time></trkpt><trkpt lat="43.4328169" lon="12.8007871"><ele>595.0</ele><time>2026-04-18T09:56:44.021Z</time></trkpt><trkpt lat="43.4328834" lon="12.8007787"><ele>592.3333333333333</ele><time>2026-04-18T09:56:45.013Z</time></trkpt><trkpt lat="43.4330031" lon="12.8007684"><ele>589.6666666666666</ele><time>2026-04-18T09:56:46.984Z</time></trkpt><trkpt lat="43.4330746" lon="12.8007617"><ele>587.0</ele><time>2026-04-18T09:56:47.982Z</time></trkpt><trkpt lat="43.4331431" lon="12.8007523"><ele>585.8571428571429</ele><time>2026-04-18T09:56:48.978Z</time></trkpt><trkpt lat="43.4332103" lon="12.8007267"><ele>584.7142857142858</ele><time>2026-04-18T09:56:49.99Z</time></trkpt><trkpt lat="43.4332796" lon="12.8007032"><ele>583.5714285714286</ele><time>2026-04-18T09:56:51.008Z</time></trkpt><trkpt lat="43.4333594" lon="12.8006745"><ele>582.4285714285714</ele><time>2026-04-18T09:56:51.988Z</time></trkpt><trkpt lat="43.4334316" lon="12.8006461"><ele>581.2857142857142</ele><time>2026-04-18T09:56:53.008Z</time></trkpt><trkpt lat="43.4334982" lon="12.800629"><ele>580.1428571428571</ele><time>2026-04-18T09:56:54.015Z</time></trkpt><trkpt lat="43.4335707" lon="12.8006377"><ele>579.0</ele><time>2026-04-18T09:56:55.008Z</time></trkpt><trkpt lat="43.4336375" lon="12.8006457"><ele>579.0</ele><time>2026-04-18T09:56:55.979Z</time></trkpt><trkpt lat="43.4337093" lon="12.8006731"><ele>579.0</ele><time>2026-04-18T09:56:56.987Z</time></trkpt><trkpt lat="43.433767" lon="12.8007201"><ele>579.0</ele><time>2026-04-18T09:56:57.997Z</time></trkpt><trkpt lat="43.4338315" lon="12.8007778"><ele>579.0</ele><time>2026-04-18T09:56:59.008Z</time></trkpt><trkpt lat="43.4338793" lon="12.8008667"><ele>579.0</ele><time>2026-04-18T09:56:59.98Z</time></trkpt><trkpt lat="43.4339426" lon="12.800949"><ele>579.0</ele><time>2026-04-18T09:57:00.993Z</time></trkpt><trkpt lat="43.4340124" lon="12.8010237"><ele>580.0</ele><time>2026-04-18T09:57:01.99Z</time></trkpt><trkpt lat="43.4340809" lon="12.8010967"><ele>581.0</ele><time>2026-04-18T09:57:02.992Z</time></trkpt><trkpt lat="43.4341417" lon="12.8011765"><ele>582.0</ele><time>2026-04-18T09:57:03.992Z</time></trkpt><trkpt lat="43.4341985" lon="12.8012682"><ele>583.0</ele><time>2026-04-18T09:57:05.002Z</time></trkpt><trkpt lat="43.4342635" lon="12.8013564"><ele>584.0</ele><time>2026-04-18T09:57:06.004Z</time></trkpt><trkpt lat="43.4343282" lon="12.8014467"><ele>585.0</ele><time>2026-04-18T09:57:06.985Z</time></trkpt><trkpt lat="43.434404" lon="12.8015174"><ele>585.0</ele><time>2026-04-18T09:57:07.992Z</time></trkpt><trkpt lat="43.4344897" lon="12.8015777"><ele>585.0</ele><time>2026-04-18T09:57:08.973Z</time></trkpt><trkpt lat="43.4345636" lon="12.8016148"><ele>585.0</ele><time>2026-04-18T09:57:10.019Z</time></trkpt><trkpt lat="43.4346449" lon="12.8016516"><ele>585.0</ele><time>2026-04-18T09:57:10.984Z</time></trkpt><trkpt lat="43.4347163" lon="12.8017036"><ele>585.0</ele><time>2026-04-18T09:57:12.014Z</time></trkpt><trkpt lat="43.4347654" lon="12.8017721"><ele>585.0</ele><time>2026-04-18T09:57:13.008Z</time></trkpt><trkpt lat="43.4348036" lon="12.8018448"><ele>583.3333333333334</ele><time>2026-04-18T09:57:14.012Z</time></trkpt><trkpt lat="43.4348525" lon="12.8019315"><ele>581.6666666666666</ele><time>2026-04-18T09:57:15.034Z</time></trkpt><trkpt lat="43.4349206" lon="12.8019957"><ele>580.0</ele><time>2026-04-18T09:57:16.022Z</time></trkpt><trkpt lat="43.4350003" lon="12.8020504"><ele>578.3333333333333</ele><time>2026-04-18T09:57:16.992Z</time></trkpt><trkpt lat="43.4350654" lon="12.8021213"><ele>576.6666666666666</ele><time>2026-04-18T09:57:18.018Z</time></trkpt><trkpt lat="43.4351317" lon="12.8021811"><ele>575.0</ele><time>2026-04-18T09:57:18.974Z</time></trkpt><trkpt lat="43.4352007" lon="12.8022955"><ele>575.0</ele><time>2026-04-18T09:57:21.007Z</time></trkpt><trkpt lat="43.4351882" lon="12.8024555"><ele>575.0</ele><time>2026-04-18T09:57:22.994Z</time></trkpt><trkpt lat="43.4351594" lon="12.8026272"><ele>575.0</ele><time>2026-04-18T09:57:24.991Z</time></trkpt><trkpt lat="43.4351467" lon="12.8027145"><ele>575.0</ele><time>2026-04-18T09:57:25.991Z</time></trkpt><trkpt lat="43.4351349" lon="12.802811"><ele>575.0</ele><time>2026-04-18T09:57:26.981Z</time></trkpt><trkpt lat="43.435144" lon="12.8029029"><ele>575.0</ele><time>2026-04-18T09:57:27.997Z</time></trkpt><trkpt lat="43.4352206" lon="12.8030312"><ele>574.6</ele><time>2026-04-18T09:57:29.977Z</time></trkpt><trkpt lat="43.4352763" lon="12.8030874"><ele>574.2</ele><time>2026-04-18T09:57:30.987Z</time></trkpt><trkpt lat="43.4352932" lon="12.8032061"><ele>573.8</ele><time>2026-04-18T09:57:33Z</time></trkpt><trkpt lat="43.4352513" lon="12.8033771"><ele>573.4</ele><time>2026-04-18T09:57:34.991Z</time></trkpt><trkpt lat="43.4352143" lon="12.8034735"><ele>573.0</ele><time>2026-04-18T09:57:35.989Z</time></trkpt><trkpt lat="43.4351741" lon="12.8035946"><ele>569.5</ele><time>2026-04-18T09:57:37.027Z</time></trkpt><trkpt lat="43.4351385" lon="12.8037215"><ele>566.0</ele><time>2026-04-18T09:57:37.991Z</time></trkpt><trkpt lat="43.435122" lon="12.8038203"><ele>562.5</ele><time>2026-04-18T09:57:38.979Z</time></trkpt><trkpt lat="43.4350836" lon="12.8039618"><ele>559.0</ele><time>2026-04-18T09:57:40.978Z</time></trkpt><trkpt lat="43.4350356" lon="12.8040248"><ele>555.5</ele><time>2026-04-18T09:57:42.014Z</time></trkpt><trkpt lat="43.4349967" lon="12.8041288"><ele>552.0</ele><time>2026-04-18T09:57:42.997Z</time></trkpt><trkpt lat="43.4349595" lon="12.8042354"><ele>552.8333333333334</ele><time>2026-04-18T09:57:44.018Z</time></trkpt><trkpt lat="43.4349135" lon="12.8043312"><ele>553.6666666666666</ele><time>2026-04-18T09:57:45.014Z</time></trkpt><trkpt lat="43.4348756" lon="12.8044041"><ele>554.5</ele><time>2026-04-18T09:57:46.008Z</time></trkpt><trkpt lat="43.434825" lon="12.8044603"><ele>555.3333333333333</ele><time>2026-04-18T09:57:47.01Z</time></trkpt><trkpt lat="43.4347804" lon="12.8045219"><ele>556.1666666666666</ele><time>2026-04-18T09:57:48.005Z</time></trkpt><trkpt lat="43.4347586" lon="12.8046353"><ele>557.0</ele><time>2026-04-18T09:57:50.013Z</time></trkpt><trkpt lat="43.4348496" lon="12.8046868"><ele>557.0</ele><time>2026-04-18T09:57:54.012Z</time></trkpt><trkpt lat="43.4349368" lon="12.8046645"><ele>557.0</ele><time>2026-04-18T09:57:54.974Z</time></trkpt><trkpt lat="43.4350181" lon="12.8046303"><ele>557.0</ele><time>2026-04-18T09:57:56.019Z</time></trkpt><trkpt lat="43.4351078" lon="12.804603"><ele>557.0</ele><time>2026-04-18T09:57:57.021Z</time></trkpt><trkpt lat="43.4351796" lon="12.8045894"><ele>557.0</ele><time>2026-04-18T09:57:58.009Z</time></trkpt><trkpt lat="43.43525" lon="12.8046136"><ele>557.0</ele><time>2026-04-18T09:57:59.021Z</time></trkpt><trkpt lat="43.435327" lon="12.8046536"><ele>557.0</ele><time>2026-04-18T09:57:59.995Z</time></trkpt><trkpt lat="43.4354035" lon="12.8047103"><ele>557.0</ele><time>2026-04-18T09:58:00.986Z</time></trkpt><trkpt lat="43.4354801" lon="12.8047844"><ele>557.0</ele><time>2026-04-18T09:58:01.996Z</time></trkpt><trkpt lat="43.4355585" lon="12.8048519"><ele>557.0</ele><time>2026-04-18T09:58:02.976Z</time></trkpt><trkpt lat="43.4356252" lon="12.8049288"><ele>557.0</ele><time>2026-04-18T09:58:03.998Z</time></trkpt><trkpt lat="43.4356751" lon="12.8050118"><ele>557.0</ele><time>2026-04-18T09:58:05.014Z</time></trkpt><trkpt lat="43.4357275" lon="12.8051163"><ele>555.0</ele><time>2026-04-18T09:58:06.015Z</time></trkpt><trkpt lat="43.4357685" lon="12.805217"><ele>553.0</ele><time>2026-04-18T09:58:06.981Z</time></trkpt><trkpt lat="43.4358021" lon="12.8053135"><ele>551.0</ele><time>2026-04-18T09:58:08.011Z</time></trkpt><trkpt lat="43.4358311" lon="12.8053936"><ele>549.0</ele><time>2026-04-18T09:58:09.004Z</time></trkpt><trkpt lat="43.4358434" lon="12.805564"><ele>547.0</ele><time>2026-04-18T09:58:11.02Z</time></trkpt><trkpt lat="43.4358635" lon="12.8056554"><ele>545.0</ele><time>2026-04-18T09:58:11.984Z</time></trkpt><trkpt lat="43.4359061" lon="12.805747"><ele>545.0</ele><time>2026-04-18T09:58:13.016Z</time></trkpt><trkpt lat="43.4359561" lon="12.8058339"><ele>545.0</ele><time>2026-04-18T09:58:14.008Z</time></trkpt><trkpt lat="43.4359994" lon="12.8059186"><ele>545.0</ele><time>2026-04-18T09:58:15.009Z</time></trkpt><trkpt lat="43.4360236" lon="12.8060018"><ele>545.0</ele><time>2026-04-18T09:58:16.005Z</time></trkpt><trkpt lat="43.4360429" lon="12.8061024"><ele>545.0</ele><time>2026-04-18T09:58:16.983Z</time></trkpt><trkpt lat="43.4360851" lon="12.806197"><ele>545.0</ele><time>2026-04-18T09:58:17.977Z</time></trkpt><trkpt lat="43.4361402" lon="12.8062908"><ele>549.0</ele><time>2026-04-18T09:58:18.986Z</time></trkpt><trkpt lat="43.4361917" lon="12.8063843"><ele>553.0</ele><time>2026-04-18T09:58:19.999Z</time></trkpt><trkpt lat="43.4362238" lon="12.8065045"><ele>557.0</ele><time>2026-04-18T09:58:20.988Z</time></trkpt><trkpt lat="43.4362784" lon="12.8066435"><ele>561.0</ele><time>2026-04-18T09:58:22.971Z</time></trkpt><trkpt lat="43.4363301" lon="12.8067431"><ele>565.0</ele><time>2026-04-18T09:58:24.997Z</time></trkpt><trkpt lat="43.4363379" lon="12.8066337"><ele>564.9999999999999</ele><time>2026-04-18T09:58:36.022Z</time></trkpt><trkpt lat="43.4363029" lon="12.8065125"><ele>565.0</ele><time>2026-04-18T09:58:38.976Z</time></trkpt><trkpt lat="43.436289" lon="12.8064274"><ele>565.0</ele><time>2026-04-18T09:58:40.009Z</time></trkpt><trkpt lat="43.4362736" lon="12.8063389"><ele>565.0</ele><time>2026-04-18T09:58:40.988Z</time></trkpt><trkpt lat="43.4362504" lon="12.8062522"><ele>565.0</ele><time>2026-04-18T09:58:41.984Z</time></trkpt><trkpt lat="43.4362234" lon="12.8061654"><ele>564.9999999999999</ele><time>2026-04-18T09:58:43.001Z</time></trkpt><trkpt lat="43.4361936" lon="12.8060614"><ele>565.0</ele><time>2026-04-18T09:58:43.993Z</time></trkpt><trkpt lat="43.4361812" lon="12.8059564"><ele>562.1428571428571</ele><time>2026-04-18T09:58:44.978Z</time></trkpt><trkpt lat="43.4361722" lon="12.8058475"><ele>559.2857142857142</ele><time>2026-04-18T09:58:46.004Z</time></trkpt><trkpt lat="43.4361565" lon="12.805758"><ele>556.4285714285714</ele><time>2026-04-18T09:58:46.984Z</time></trkpt><trkpt lat="43.4361279" lon="12.8056678"><ele>553.5714285714286</ele><time>2026-04-18T09:58:47.993Z</time></trkpt><trkpt lat="43.4360895" lon="12.8055852"><ele>550.7142857142858</ele><time>2026-04-18T09:58:48.996Z</time></trkpt><trkpt lat="43.4360625" lon="12.8054983"><ele>547.8571428571429</ele><time>2026-04-18T09:58:49.981Z</time></trkpt><trkpt lat="43.4360421" lon="12.8053929"><ele>545.0</ele><time>2026-04-18T09:58:50.975Z</time></trkpt><trkpt lat="43.4360348" lon="12.8052911"><ele>545.0</ele><time>2026-04-18T09:58:52.017Z</time></trkpt><trkpt lat="43.436014" lon="12.8052002"><ele>545.0</ele><time>2026-04-18T09:58:53.01Z</time></trkpt><trkpt lat="43.4359875" lon="12.8050925"><ele>545.0</ele><time>2026-04-18T09:58:54.015Z</time></trkpt><trkpt lat="43.4359465" lon="12.8049882"><ele>545.0</ele><time>2026-04-18T09:58:54.984Z</time></trkpt><trkpt lat="43.43591" lon="12.8048775"><ele>545.0</ele><time>2026-04-18T09:58:56.006Z</time></trkpt><trkpt lat="43.4358762" lon="12.8047692"><ele>545.0</ele><time>2026-04-18T09:58:56.986Z</time></trkpt><trkpt lat="43.4358423" lon="12.8046579"><ele>542.3333333333333</ele><time>2026-04-18T09:58:57.977Z</time></trkpt><trkpt lat="43.4358232" lon="12.8045553"><ele>539.6666666666666</ele><time>2026-04-18T09:58:58.999Z</time></trkpt><trkpt lat="43.4358088" lon="12.8044545"><ele>537.0</ele><time>2026-04-18T09:59:00.013Z</time></trkpt><trkpt lat="43.4357854" lon="12.8043486"><ele>534.3333333333334</ele><time>2026-04-18T09:59:00.967Z</time></trkpt><trkpt lat="43.4357629" lon="12.8042428"><ele>531.6666666666667</ele><time>2026-04-18T09:59:02.026Z</time></trkpt><trkpt lat="43.4357295" lon="12.8041612"><ele>529.0</ele><time>2026-04-18T09:59:02.991Z</time></trkpt><trkpt lat="43.4356666" lon="12.8040665"><ele>526.2</ele><time>2026-04-18T09:59:05.012Z</time></trkpt><trkpt lat="43.4356646" lon="12.8039429"><ele>523.4</ele><time>2026-04-18T09:59:07.001Z</time></trkpt><trkpt lat="43.435744" lon="12.8038154"><ele>520.6</ele><time>2026-04-18T09:59:09.015Z</time></trkpt><trkpt lat="43.4358122" lon="12.8037372"><ele>517.8</ele><time>2026-04-18T09:59:10.009Z</time></trkpt><trkpt lat="43.4358795" lon="12.803664"><ele>515.0</ele><time>2026-04-18T09:59:11.024Z</time></trkpt><trkpt lat="43.4359153" lon="12.8035813"><ele>516.0</ele><time>2026-04-18T09:59:12.025Z</time></trkpt><trkpt lat="43.4359201" lon="12.8034118"><ele>517.0</ele><time>2026-04-18T09:59:14.012Z</time></trkpt><trkpt lat="43.4358984" lon="12.8032454"><ele>518.0</ele><time>2026-04-18T09:59:16.021Z</time></trkpt><trkpt lat="43.435905" lon="12.8031489"><ele>519.0</ele><time>2026-04-18T09:59:17.01Z</time></trkpt><trkpt lat="43.4359086" lon="12.8030507"><ele>520.0</ele><time>2026-04-18T09:59:18.011Z</time></trkpt><trkpt lat="43.4359147" lon="12.8029522"><ele>520.0</ele><time>2026-04-18T09:59:18.996Z</time></trkpt><trkpt lat="43.435926" lon="12.80286"><ele>520.0</ele><time>2026-04-18T09:59:20.003Z</time></trkpt><trkpt lat="43.4359416" lon="12.8026993"><ele>520.0</ele><time>2026-04-18T09:59:22.002Z</time></trkpt><trkpt lat="43.4359425" lon="12.8025254"><ele>520.0</ele><time>2026-04-18T09:59:24Z</time></trkpt><trkpt lat="43.4359294" lon="12.8023518"><ele>520.0</ele><time>2026-04-18T09:59:25.977Z</time></trkpt><trkpt lat="43.4359431" lon="12.8021985"><ele>519.7142857142858</ele><time>2026-04-18T09:59:28.023Z</time></trkpt><trkpt lat="43.4360006" lon="12.8021035"><ele>519.4285714285714</ele><time>2026-04-18T09:59:29.984Z</time></trkpt><trkpt lat="43.4360423" lon="12.802012"><ele>519.1428571428571</ele><time>2026-04-18T09:59:32.007Z</time></trkpt><trkpt lat="43.4360804" lon="12.8019366"><ele>518.8571428571429</ele><time>2026-04-18T10:01:27.996Z</time></trkpt><trkpt lat="43.4361455" lon="12.8019347"><ele>518.5714285714286</ele><time>2026-04-18T10:12:17.98Z</time></trkpt><trkpt lat="43.4361779" lon="12.8020163"><ele>518.2857142857143</ele><time>2026-04-18T10:12:29.976Z</time></trkpt><trkpt lat="43.4361589" lon="12.8021198"><ele>518.0</ele><time>2026-04-18T10:12:33.98Z</time></trkpt><trkpt lat="43.4361835" lon="12.8022286"><ele>518.0</ele><time>2026-04-18T10:12:36.997Z</time></trkpt><trkpt lat="43.4362382" lon="12.8022895"><ele>518.0</ele><time>2026-04-18T10:12:37.986Z</time></trkpt><trkpt lat="43.4363053" lon="12.8023876"><ele>518.0</ele><time>2026-04-18T10:12:39.995Z</time></trkpt><trkpt lat="43.4363589" lon="12.8024903"><ele>518.0</ele><time>2026-04-18T10:12:41.988Z</time></trkpt><trkpt lat="43.436453" lon="12.8025943"><ele>518.0</ele><time>2026-04-18T10:12:43.985Z</time></trkpt><trkpt lat="43.4365049" lon="12.8026493"><ele>518.0</ele><time>2026-04-18T10:12:44.982Z</time></trkpt><trkpt lat="43.4365576" lon="12.8027032"><ele>513.5</ele><time>2026-04-18T10:12:45.985Z</time></trkpt><trkpt lat="43.4366385" lon="12.8028042"><ele>509.0</ele><time>2026-04-18T10:12:47.984Z</time></trkpt><trkpt lat="43.4366798" lon="12.8028748"><ele>504.5</ele><time>2026-04-18T10:12:48.974Z</time></trkpt><trkpt lat="43.436725" lon="12.8029403"><ele>500.0</ele><time>2026-04-18T10:12:49.985Z</time></trkpt><trkpt lat="43.4368011" lon="12.8030521"><ele>495.49999999999994</ele><time>2026-04-18T10:12:51.979Z</time></trkpt><trkpt lat="43.4368533" lon="12.8031295"><ele>491.0</ele><time>2026-04-18T10:12:52.979Z</time></trkpt><trkpt lat="43.4368998" lon="12.803216"><ele>490.99999999999994</ele><time>2026-04-18T10:12:53.979Z</time></trkpt><trkpt lat="43.4369386" lon="12.8033216"><ele>491.0</ele><time>2026-04-18T10:12:54.98Z</time></trkpt><trkpt lat="43.4369697" lon="12.8034319"><ele>491.0</ele><time>2026-04-18T10:12:55.976Z</time></trkpt><trkpt lat="43.4370047" lon="12.8035423"><ele>491.0</ele><time>2026-04-18T10:12:56.988Z</time></trkpt><trkpt lat="43.4370491" lon="12.8036553"><ele>490.99999999999994</ele><time>2026-04-18T10:12:57.985Z</time></trkpt><trkpt lat="43.4371048" lon="12.8037565"><ele>491.0</ele><time>2026-04-18T10:12:58.986Z</time></trkpt><trkpt lat="43.4371619" lon="12.803851"><ele>491.49999999999994</ele><time>2026-04-18T10:12:59.983Z</time></trkpt><trkpt lat="43.4372134" lon="12.8039477"><ele>492.0</ele><time>2026-04-18T10:13:00.979Z</time></trkpt><trkpt lat="43.4372655" lon="12.8040382"><ele>492.5</ele><time>2026-04-18T10:13:01.975Z</time></trkpt><trkpt lat="43.4373195" lon="12.8041246"><ele>493.0</ele><time>2026-04-18T10:13:02.975Z</time></trkpt><trkpt lat="43.4373805" lon="12.8042167"><ele>493.49999999999994</ele><time>2026-04-18T10:13:03.985Z</time></trkpt><trkpt lat="43.437446" lon="12.8043131"><ele>494.0</ele><time>2026-04-18T10:13:04.981Z</time></trkpt><trkpt lat="43.4375091" lon="12.8044058"><ele>491.16666666666663</ele><time>2026-04-18T10:13:05.984Z</time></trkpt><trkpt lat="43.4375613" lon="12.8044927"><ele>488.3333333333333</ele><time>2026-04-18T10:13:06.983Z</time></trkpt><trkpt lat="43.4376154" lon="12.8045759"><ele>485.5</ele><time>2026-04-18T10:13:07.979Z</time></trkpt><trkpt lat="43.4376653" lon="12.804668"><ele>482.66666666666663</ele><time>2026-04-18T10:13:08.982Z</time></trkpt><trkpt lat="43.4377184" lon="12.8047652"><ele>479.8333333333333</ele><time>2026-04-18T10:13:09.985Z</time></trkpt><trkpt lat="43.4377616" lon="12.8048665"><ele>477.0</ele><time>2026-04-18T10:13:10.992Z</time></trkpt><trkpt lat="43.4378026" lon="12.8049604"><ele>477.0</ele><time>2026-04-18T10:13:11.993Z</time></trkpt><trkpt lat="43.4378376" lon="12.8050518"><ele>477.0</ele><time>2026-04-18T10:13:12.987Z</time></trkpt><trkpt lat="43.437873" lon="12.8051294"><ele>477.0</ele><time>2026-04-18T10:13:13.978Z</time></trkpt><trkpt lat="43.4379215" lon="12.8052514"><ele>477.0</ele><time>2026-04-18T10:13:15.992Z</time></trkpt><trkpt lat="43.437982" lon="12.8053548"><ele>477.0</ele><time>2026-04-18T10:13:17.981Z</time></trkpt><trkpt lat="43.4380183" lon="12.8054318"><ele>477.0</ele><time>2026-04-18T10:13:18.979Z</time></trkpt><trkpt lat="43.438056" lon="12.8055176"><ele>477.8333333333333</ele><time>2026-04-18T10:13:19.982Z</time></trkpt><trkpt lat="43.4380981" lon="12.805607"><ele>478.66666666666663</ele><time>2026-04-18T10:13:20.986Z</time></trkpt><trkpt lat="43.4381454" lon="12.8056832"><ele>479.5</ele><time>2026-04-18T10:13:21.976Z</time></trkpt><trkpt lat="43.4382078" lon="12.8057546"><ele>480.3333333333333</ele><time>2026-04-18T10:13:22.98Z</time></trkpt><trkpt lat="43.4382736" lon="12.8058247"><ele>481.16666666666663</ele><time>2026-04-18T10:13:23.989Z</time></trkpt><trkpt lat="43.4383383" lon="12.8058918"><ele>482.0</ele><time>2026-04-18T10:13:24.98Z</time></trkpt><trkpt lat="43.4384119" lon="12.8059553"><ele>479.3333333333333</ele><time>2026-04-18T10:13:25.985Z</time></trkpt><trkpt lat="43.4384797" lon="12.8060122"><ele>476.66666666666663</ele><time>2026-04-18T10:13:27.01Z</time></trkpt><trkpt lat="43.4385514" lon="12.8060772"><ele>474.0</ele><time>2026-04-18T10:13:27.992Z</time></trkpt><trkpt lat="43.4386184" lon="12.8061367"><ele>471.33333333333337</ele><time>2026-04-18T10:13:28.979Z</time></trkpt><trkpt lat="43.4386809" lon="12.8061895"><ele>468.6666666666667</ele><time>2026-04-18T10:13:29.981Z</time></trkpt><trkpt lat="43.4387401" lon="12.8062356"><ele>466.0</ele><time>2026-04-18T10:13:30.991Z</time></trkpt><trkpt lat="43.4387974" lon="12.8062757"><ele>467.42857142857144</ele><time>2026-04-18T10:13:31.978Z</time></trkpt><trkpt lat="43.4388604" lon="12.806304"><ele>468.85714285714283</ele><time>2026-04-18T10:13:32.976Z</time></trkpt><trkpt lat="43.4389227" lon="12.8063278"><ele>470.2857142857143</ele><time>2026-04-18T10:13:33.977Z</time></trkpt><trkpt lat="43.4389941" lon="12.8063333"><ele>471.7142857142857</ele><time>2026-04-18T10:13:34.981Z</time></trkpt><trkpt lat="43.439072" lon="12.8063407"><ele>473.1428571428571</ele><time>2026-04-18T10:13:35.978Z</time></trkpt><trkpt lat="43.4391476" lon="12.8063472"><ele>474.57142857142856</ele><time>2026-04-18T10:13:36.983Z</time></trkpt><trkpt lat="43.4392266" lon="12.8063514"><ele>476.0</ele><time>2026-04-18T10:13:37.985Z</time></trkpt><trkpt lat="43.439299" lon="12.8063616"><ele>475.99999999999994</ele><time>2026-04-18T10:13:38.983Z</time></trkpt><trkpt lat="43.4393687" lon="12.8063859"><ele>476.0</ele><time>2026-04-18T10:13:39.984Z</time></trkpt><trkpt lat="43.4394387" lon="12.8064358"><ele>476.0</ele><time>2026-04-18T10:13:40.989Z</time></trkpt><trkpt lat="43.4395" lon="12.8064942"><ele>476.0</ele><time>2026-04-18T10:13:41.988Z</time></trkpt><trkpt lat="43.4395608" lon="12.8065485"><ele>475.99999999999994</ele><time>2026-04-18T10:13:42.978Z</time></trkpt><trkpt lat="43.439618" lon="12.8065912"><ele>476.0</ele><time>2026-04-18T10:13:43.984Z</time></trkpt><trkpt lat="43.4396916" lon="12.806655"><ele>475.99999999999994</ele><time>2026-04-18T10:13:45.985Z</time></trkpt><trkpt lat="43.4397478" lon="12.8067064"><ele>476.0</ele><time>2026-04-18T10:14:50.984Z</time></trkpt><trkpt lat="43.4397566" lon="12.8066098"><ele>476.0</ele><time>2026-04-18T10:14:52.987Z</time></trkpt><trkpt lat="43.4397073" lon="12.8064641"><ele>476.0</ele><time>2026-04-18T10:14:54.982Z</time></trkpt><trkpt lat="43.4396841" lon="12.8063807"><ele>475.99999999999994</ele><time>2026-04-18T10:14:55.987Z</time></trkpt><trkpt lat="43.4396543" lon="12.8062974"><ele>476.0</ele><time>2026-04-18T10:14:56.981Z</time></trkpt><trkpt lat="43.439627" lon="12.8061992"><ele>475.99999999999994</ele><time>2026-04-18T10:14:57.994Z</time></trkpt><trkpt lat="43.4395854" lon="12.8060976"><ele>476.0</ele><time>2026-04-18T10:14:58.982Z</time></trkpt><trkpt lat="43.4395425" lon="12.8060003"><ele>476.0</ele><time>2026-04-18T10:14:59.989Z</time></trkpt><trkpt lat="43.4394926" lon="12.8059242"><ele>476.0</ele><time>2026-04-18T10:15:00.982Z</time></trkpt><trkpt lat="43.4394369" lon="12.8058691"><ele>475.99999999999994</ele><time>2026-04-18T10:15:01.976Z</time></trkpt><trkpt lat="43.4393642" lon="12.8058557"><ele>476.0</ele><time>2026-04-18T10:15:02.979Z</time></trkpt><trkpt lat="43.439279" lon="12.8058638"><ele>479.4</ele><time>2026-04-18T10:15:03.981Z</time></trkpt><trkpt lat="43.439194" lon="12.8058772"><ele>482.8</ele><time>2026-04-18T10:15:04.987Z</time></trkpt><trkpt lat="43.439095" lon="12.8058853"><ele>486.19999999999993</ele><time>2026-04-18T10:15:05.994Z</time></trkpt><trkpt lat="43.4390001" lon="12.8058536"><ele>489.59999999999997</ele><time>2026-04-18T10:15:06.987Z</time></trkpt><trkpt lat="43.4389056" lon="12.8057951"><ele>493.0</ele><time>2026-04-18T10:15:07.995Z</time></trkpt><trkpt lat="43.4388183" lon="12.8057086"><ele>490.25</ele><time>2026-04-18T10:15:08.993Z</time></trkpt><trkpt lat="43.4387319" lon="12.8056181"><ele>487.5</ele><time>2026-04-18T10:15:09.999Z</time></trkpt><trkpt lat="43.4386458" lon="12.8055068"><ele>484.75</ele><time>2026-04-18T10:15:10.983Z</time></trkpt><trkpt lat="43.4385498" lon="12.8054175"><ele>482.0</ele><time>2026-04-18T10:15:11.985Z</time></trkpt><trkpt lat="43.4384518" lon="12.8053475"><ele>482.0</ele><time>2026-04-18T10:15:13.004Z</time></trkpt><trkpt lat="43.4383506" lon="12.8052836"><ele>482.00000000000006</ele><time>2026-04-18T10:15:13.991Z</time></trkpt><trkpt lat="43.4382639" lon="12.8052061"><ele>482.00000000000006</ele><time>2026-04-18T10:15:14.981Z</time></trkpt><trkpt lat="43.4382045" lon="12.8051036"><ele>482.0</ele><time>2026-04-18T10:15:15.987Z</time></trkpt><trkpt lat="43.4381628" lon="12.8049774"><ele>482.0</ele><time>2026-04-18T10:15:16.98Z</time></trkpt><trkpt lat="43.4381191" lon="12.8048497"><ele>480.75</ele><time>2026-04-18T10:15:17.983Z</time></trkpt><trkpt lat="43.4380598" lon="12.8047306"><ele>479.5</ele><time>2026-04-18T10:15:18.983Z</time></trkpt><trkpt lat="43.4380054" lon="12.8046001"><ele>478.25</ele><time>2026-04-18T10:15:19.984Z</time></trkpt><trkpt lat="43.4379395" lon="12.8044599"><ele>477.0</ele><time>2026-04-18T10:15:20.979Z</time></trkpt><trkpt lat="43.4378639" lon="12.8043204"><ele>481.25</ele><time>2026-04-18T10:15:21.998Z</time></trkpt><trkpt lat="43.4377889" lon="12.8041822"><ele>485.5</ele><time>2026-04-18T10:15:22.979Z</time></trkpt><trkpt lat="43.4377153" lon="12.8040487"><ele>489.75</ele><time>2026-04-18T10:15:23.984Z</time></trkpt><trkpt lat="43.437642" lon="12.8039147"><ele>494.0</ele><time>2026-04-18T10:15:24.981Z</time></trkpt><trkpt lat="43.4375699" lon="12.8037731"><ele>494.0</ele><time>2026-04-18T10:15:25.981Z</time></trkpt><trkpt lat="43.4374926" lon="12.8036282"><ele>494.0</ele><time>2026-04-18T10:15:26.983Z</time></trkpt><trkpt lat="43.4374123" lon="12.8034821"><ele>494.0</ele><time>2026-04-18T10:15:27.979Z</time></trkpt><trkpt lat="43.4373351" lon="12.8033344"><ele>494.0</ele><time>2026-04-18T10:15:28.985Z</time></trkpt><trkpt lat="43.4372539" lon="12.8031817"><ele>493.25</ele><time>2026-04-18T10:15:29.976Z</time></trkpt><trkpt lat="43.4371738" lon="12.8030279"><ele>492.5</ele><time>2026-04-18T10:15:30.981Z</time></trkpt><trkpt lat="43.4370924" lon="12.8028743"><ele>491.75</ele><time>2026-04-18T10:15:31.985Z</time></trkpt><trkpt lat="43.4370115" lon="12.8027232"><ele>491.0</ele><time>2026-04-18T10:15:32.977Z</time></trkpt><trkpt lat="43.4369281" lon="12.8025846"><ele>496.0</ele><time>2026-04-18T10:15:33.989Z</time></trkpt><trkpt lat="43.4368383" lon="12.8024508"><ele>501.0</ele><time>2026-04-18T10:15:34.971Z</time></trkpt><trkpt lat="43.4367522" lon="12.802316"><ele>506.0</ele><time>2026-04-18T10:15:35.981Z</time></trkpt><trkpt lat="43.4366764" lon="12.8021632"><ele>511.0</ele><time>2026-04-18T10:15:36.977Z</time></trkpt><trkpt lat="43.4366073" lon="12.8019996"><ele>511.0</ele><time>2026-04-18T10:15:37.975Z</time></trkpt><trkpt lat="43.4365426" lon="12.8018327"><ele>511.0</ele><time>2026-04-18T10:15:38.979Z</time></trkpt><trkpt lat="43.4364785" lon="12.8016669"><ele>511.0</ele><time>2026-04-18T10:15:39.987Z</time></trkpt><trkpt lat="43.4364175" lon="12.8014915"><ele>511.0</ele><time>2026-04-18T10:15:40.986Z</time></trkpt><trkpt lat="43.4363586" lon="12.8013113"><ele>512.0</ele><time>2026-04-18T10:15:41.983Z</time></trkpt><trkpt lat="43.4362988" lon="12.8011293"><ele>513.0</ele><time>2026-04-18T10:15:42.987Z</time></trkpt><trkpt lat="43.436247" lon="12.8009599"><ele>514.0</ele><time>2026-04-18T10:15:43.981Z</time></trkpt><trkpt lat="43.4362147" lon="12.8007828"><ele>515.0</ele><time>2026-04-18T10:15:44.981Z</time></trkpt><trkpt lat="43.4361812" lon="12.8006152"><ele>516.2</ele><time>2026-04-18T10:15:45.987Z</time></trkpt><trkpt lat="43.4361242" lon="12.8004677"><ele>517.4</ele><time>2026-04-18T10:15:46.982Z</time></trkpt><trkpt lat="43.4360514" lon="12.8003474"><ele>518.6</ele><time>2026-04-18T10:15:47.987Z</time></trkpt><trkpt lat="43.4359802" lon="12.800245"><ele>519.8</ele><time>2026-04-18T10:15:48.979Z</time></trkpt><trkpt lat="43.4359234" lon="12.8001345"><ele>521.0</ele><time>2026-04-18T10:15:49.985Z</time></trkpt><trkpt lat="43.4358986" lon="12.8000146"><ele>522.6</ele><time>2026-04-18T10:15:50.977Z</time></trkpt><trkpt lat="43.4359131" lon="12.7998882"><ele>524.2</ele><time>2026-04-18T10:15:51.988Z</time></trkpt><trkpt lat="43.4359533" lon="12.7997535"><ele>525.8</ele><time>2026-04-18T10:15:52.977Z</time></trkpt><trkpt lat="43.4359986" lon="12.7996202"><ele>527.4</ele><time>2026-04-18T10:15:53.985Z</time></trkpt><trkpt lat="43.4360499" lon="12.7994901"><ele>529.0</ele><time>2026-04-18T10:15:54.981Z</time></trkpt><trkpt lat="43.4361146" lon="12.7993648"><ele>531.5</ele><time>2026-04-18T10:15:55.981Z</time></trkpt><trkpt lat="43.4361882" lon="12.7992446"><ele>534.0</ele><time>2026-04-18T10:15:56.984Z</time></trkpt><trkpt lat="43.4362475" lon="12.7991276"><ele>536.5</ele><time>2026-04-18T10:15:57.987Z</time></trkpt><trkpt lat="43.4362845" lon="12.7990203"><ele>539.0</ele><time>2026-04-18T10:15:58.98Z</time></trkpt><trkpt lat="43.4363045" lon="12.7989178"><ele>541.5</ele><time>2026-04-18T10:15:59.992Z</time></trkpt><trkpt lat="43.436292" lon="12.7988274"><ele>544.0</ele><time>2026-04-18T10:16:00.974Z</time></trkpt><trkpt lat="43.4362436" lon="12.7987553"><ele>544.0</ele><time>2026-04-18T10:16:01.977Z</time></trkpt><trkpt lat="43.4361776" lon="12.7987029"><ele>544.0</ele><time>2026-04-18T10:16:02.99Z</time></trkpt><trkpt lat="43.4360762" lon="12.7987698"><ele>544.0</ele><time>2026-04-18T10:16:04.983Z</time></trkpt><trkpt lat="43.4360088" lon="12.7988486"><ele>544.0</ele><time>2026-04-18T10:16:05.979Z</time></trkpt><trkpt lat="43.4359301" lon="12.7989234"><ele>544.0</ele><time>2026-04-18T10:16:06.978Z</time></trkpt><trkpt lat="43.4358468" lon="12.7989953"><ele>544.0</ele><time>2026-04-18T10:16:07.984Z</time></trkpt><trkpt lat="43.4357561" lon="12.7990708"><ele>544.0</ele><time>2026-04-18T10:16:08.975Z</time></trkpt><trkpt lat="43.4356606" lon="12.7991097"><ele>544.0</ele><time>2026-04-18T10:16:09.982Z</time></trkpt><trkpt lat="43.435567" lon="12.7991091"><ele>544.0</ele><time>2026-04-18T10:16:10.98Z</time></trkpt><trkpt lat="43.4354696" lon="12.799064"><ele>544.0</ele><time>2026-04-18T10:16:11.977Z</time></trkpt><trkpt lat="43.4353735" lon="12.7990035"><ele>544.8</ele><time>2026-04-18T10:16:12.983Z</time></trkpt><trkpt lat="43.4352765" lon="12.798952"><ele>545.5999999999999</ele><time>2026-04-18T10:16:13.976Z</time></trkpt><trkpt lat="43.4351779" lon="12.7989078"><ele>546.4</ele><time>2026-04-18T10:16:14.985Z</time></trkpt><trkpt lat="43.4350725" lon="12.79888"><ele>547.1999999999999</ele><time>2026-04-18T10:16:15.982Z</time></trkpt><trkpt lat="43.4349681" lon="12.7988914"><ele>548.0</ele><time>2026-04-18T10:16:16.98Z</time></trkpt><trkpt lat="43.4348693" lon="12.7989381"><ele>548.0</ele><time>2026-04-18T10:16:17.988Z</time></trkpt><trkpt lat="43.4347764" lon="12.7989867"><ele>548.0</ele><time>2026-04-18T10:16:18.981Z</time></trkpt><trkpt lat="43.4346845" lon="12.7990402"><ele>548.0</ele><time>2026-04-18T10:16:19.982Z</time></trkpt><trkpt lat="43.434593" lon="12.7990826"><ele>548.0</ele><time>2026-04-18T10:16:20.979Z</time></trkpt><trkpt lat="43.4344968" lon="12.7990887"><ele>548.0</ele><time>2026-04-18T10:16:21.987Z</time></trkpt><trkpt lat="43.4344079" lon="12.7990606"><ele>550.1999999999999</ele><time>2026-04-18T10:16:22.977Z</time></trkpt><trkpt lat="43.4343191" lon="12.7990199"><ele>552.4</ele><time>2026-04-18T10:16:23.982Z</time></trkpt><trkpt lat="43.4342237" lon="12.7989938"><ele>554.5999999999999</ele><time>2026-04-18T10:16:24.98Z</time></trkpt><trkpt lat="43.4341281" lon="12.7989915"><ele>556.8</ele><time>2026-04-18T10:16:25.981Z</time></trkpt><trkpt lat="43.4340391" lon="12.7990197"><ele>559.0</ele><time>2026-04-18T10:16:26.984Z</time></trkpt><trkpt lat="43.4339483" lon="12.799067"><ele>559.0</ele><time>2026-04-18T10:16:27.981Z</time></trkpt><trkpt lat="43.4338704" lon="12.7991549"><ele>559.0</ele><time>2026-04-18T10:16:28.98Z</time></trkpt><trkpt lat="43.4337953" lon="12.7992529"><ele>559.0</ele><time>2026-04-18T10:16:29.99Z</time></trkpt><trkpt lat="43.4337278" lon="12.7993335"><ele>559.0</ele><time>2026-04-18T10:16:30.977Z</time></trkpt><trkpt lat="43.4336555" lon="12.7994093"><ele>559.0</ele><time>2026-04-18T10:16:31.982Z</time></trkpt><trkpt lat="43.433582" lon="12.7994839"><ele>561.2</ele><time>2026-04-18T10:16:32.986Z</time></trkpt><trkpt lat="43.4335171" lon="12.7995642"><ele>563.4</ele><time>2026-04-18T10:16:33.993Z</time></trkpt><trkpt lat="43.4334777" lon="12.7996427"><ele>565.6</ele><time>2026-04-18T10:16:34.99Z</time></trkpt><trkpt lat="43.4334299" lon="12.7997874"><ele>567.8</ele><time>2026-04-18T10:16:36.981Z</time></trkpt><trkpt lat="43.4333793" lon="12.7998928"><ele>570.0</ele><time>2026-04-18T10:16:38.98Z</time></trkpt><trkpt lat="43.4333069" lon="12.800012"><ele>570.0</ele><time>2026-04-18T10:16:41.002Z</time></trkpt><trkpt lat="43.4332283" lon="12.8000652"><ele>570.0</ele><time>2026-04-18T10:16:42.012Z</time></trkpt><trkpt lat="43.4331501" lon="12.8001161"><ele>570.0</ele><time>2026-04-18T10:16:42.997Z</time></trkpt><trkpt lat="43.4330602" lon="12.8001585"><ele>570.0</ele><time>2026-04-18T10:16:43.985Z</time></trkpt><trkpt lat="43.4329705" lon="12.8002092"><ele>570.0</ele><time>2026-04-18T10:16:44.987Z</time></trkpt><trkpt lat="43.4328824" lon="12.8002634"><ele>572.8333333333334</ele><time>2026-04-18T10:16:45.986Z</time></trkpt><trkpt lat="43.4328043" lon="12.8003232"><ele>575.6666666666666</ele><time>2026-04-18T10:16:46.977Z</time></trkpt><trkpt lat="43.432728" lon="12.80039"><ele>578.5</ele><time>2026-04-18T10:16:47.997Z</time></trkpt><trkpt lat="43.4326538" lon="12.8004492"><ele>581.3333333333333</ele><time>2026-04-18T10:16:48.978Z</time></trkpt><trkpt lat="43.4325867" lon="12.8005134"><ele>584.1666666666666</ele><time>2026-04-18T10:16:49.984Z</time></trkpt><trkpt lat="43.4325265" lon="12.8005849"><ele>587.0</ele><time>2026-04-18T10:16:50.991Z</time></trkpt><trkpt lat="43.4324886" lon="12.8006754"><ele>587.0</ele><time>2026-04-18T10:16:51.98Z</time></trkpt><trkpt lat="43.4324795" lon="12.8007635"><ele>587.0</ele><time>2026-04-18T10:16:52.983Z</time></trkpt><trkpt lat="43.4324802" lon="12.8008978"><ele>587.0</ele><time>2026-04-18T10:16:54.997Z</time></trkpt><trkpt lat="43.4325068" lon="12.8008185"><ele>587.0</ele><time>2026-04-18T10:18:30.98Z</time></trkpt><trkpt lat="43.432479" lon="12.8007119"><ele>587.0</ele><time>2026-04-18T10:18:32.986Z</time></trkpt><trkpt lat="43.4325272" lon="12.8006013"><ele>587.0</ele><time>2026-04-18T10:18:34.98Z</time></trkpt><trkpt lat="43.4325921" lon="12.8005179"><ele>587.0</ele><time>2026-04-18T10:18:36.979Z</time></trkpt><trkpt lat="43.4326765" lon="12.8004496"><ele>587.0</ele><time>2026-04-18T10:18:38.979Z</time></trkpt><trkpt lat="43.4327627" lon="12.8003762"><ele>587.0</ele><time>2026-04-18T10:18:40.987Z</time></trkpt><trkpt lat="43.4328704" lon="12.8002923"><ele>587.0</ele><time>2026-04-18T10:18:42.98Z</time></trkpt><trkpt lat="43.4329338" lon="12.8002512"><ele>587.0</ele><time>2026-04-18T10:18:43.979Z</time></trkpt><trkpt lat="43.4329996" lon="12.8002037"><ele>584.1666666666666</ele><time>2026-04-18T10:18:44.98Z</time></trkpt><trkpt lat="43.4330721" lon="12.8001617"><ele>581.3333333333333</ele><time>2026-04-18T10:18:45.99Z</time></trkpt><trkpt lat="43.4331475" lon="12.8001223"><ele>578.5</ele><time>2026-04-18T10:18:46.976Z</time></trkpt><trkpt lat="43.433227" lon="12.8000712"><ele>575.6666666666666</ele><time>2026-04-18T10:18:47.983Z</time></trkpt><trkpt lat="43.4332975" lon="12.8000162"><ele>572.8333333333334</ele><time>2026-04-18T10:18:48.977Z</time></trkpt><trkpt lat="43.4333613" lon="12.7999506"><ele>570.0</ele><time>2026-04-18T10:18:49.987Z</time></trkpt><trkpt lat="43.4334102" lon="12.7998686"><ele>570.0</ele><time>2026-04-18T10:18:50.984Z</time></trkpt><trkpt lat="43.4334478" lon="12.7997703"><ele>570.0</ele><time>2026-04-18T10:18:51.981Z</time></trkpt><trkpt lat="43.4334858" lon="12.7996683"><ele>570.0</ele><time>2026-04-18T10:18:52.985Z</time></trkpt><trkpt lat="43.4335202" lon="12.7995686"><ele>570.0</ele><time>2026-04-18T10:18:53.993Z</time></trkpt><trkpt lat="43.433569" lon="12.7994897"><ele>570.0</ele><time>2026-04-18T10:18:54.995Z</time></trkpt><trkpt lat="43.4336412" lon="12.7994308"><ele>570.0</ele><time>2026-04-18T10:18:55.985Z</time></trkpt><trkpt lat="43.4337072" lon="12.7993679"><ele>567.8</ele><time>2026-04-18T10:18:56.989Z</time></trkpt><trkpt lat="43.4337797" lon="12.7992918"><ele>565.6</ele><time>2026-04-18T10:18:57.991Z</time></trkpt><trkpt lat="43.4338459" lon="12.7992115"><ele>563.4</ele><time>2026-04-18T10:18:58.985Z</time></trkpt><trkpt lat="43.4339128" lon="12.7991302"><ele>561.2</ele><time>2026-04-18T10:18:59.989Z</time></trkpt><trkpt lat="43.4339927" lon="12.7990615"><ele>559.0</ele><time>2026-04-18T10:19:00.986Z</time></trkpt><trkpt lat="43.434085" lon="12.7990431"><ele>559.0</ele><time>2026-04-18T10:19:02.002Z</time></trkpt><trkpt lat="43.4341778" lon="12.7990475"><ele>559.0</ele><time>2026-04-18T10:19:02.978Z</time></trkpt><trkpt lat="43.434277" lon="12.799069"><ele>559.0</ele><time>2026-04-18T10:19:03.988Z</time></trkpt><trkpt lat="43.4343797" lon="12.7990879"><ele>559.0</ele><time>2026-04-18T10:19:04.983Z</time></trkpt><trkpt lat="43.4344775" lon="12.7991241"><ele>559.0</ele><time>2026-04-18T10:19:05.975Z</time></trkpt><trkpt lat="43.4345771" lon="12.7991236"><ele>556.25</ele><time>2026-04-18T10:19:06.972Z</time></trkpt><trkpt lat="43.4346841" lon="12.7990753"><ele>553.5</ele><time>2026-04-18T10:19:07.987Z</time></trkpt><trkpt lat="43.4347875" lon="12.7990196"><ele>550.75</ele><time>2026-04-18T10:19:08.978Z</time></trkpt><trkpt lat="43.434895" lon="12.7989654"><ele>548.0</ele><time>2026-04-18T10:19:09.969Z</time></trkpt><trkpt lat="43.4350097" lon="12.7989257"><ele>548.0</ele><time>2026-04-18T10:19:10.983Z</time></trkpt><trkpt lat="43.435127" lon="12.7989275"><ele>548.0</ele><time>2026-04-18T10:19:11.98Z</time></trkpt><trkpt lat="43.435243" lon="12.7989543"><ele>548.0</ele><time>2026-04-18T10:19:12.975Z</time></trkpt><trkpt lat="43.4353442" lon="12.7990121"><ele>548.0</ele><time>2026-04-18T10:19:13.977Z</time></trkpt><trkpt lat="43.4354419" lon="12.7990746"><ele>547.1999999999999</ele><time>2026-04-18T10:19:14.975Z</time></trkpt><trkpt lat="43.4355376" lon="12.7991331"><ele>546.4</ele><time>2026-04-18T10:19:15.979Z</time></trkpt><trkpt lat="43.4356319" lon="12.7991415"><ele>545.5999999999999</ele><time>2026-04-18T10:19:16.979Z</time></trkpt><trkpt lat="43.4357234" lon="12.7990894"><ele>544.8</ele><time>2026-04-18T10:19:17.983Z</time></trkpt><trkpt lat="43.4358169" lon="12.7990328"><ele>544.0</ele><time>2026-04-18T10:19:18.97Z</time></trkpt><trkpt lat="43.4359056" lon="12.798965"><ele>544.0</ele><time>2026-04-18T10:19:19.993Z</time></trkpt><trkpt lat="43.4359869" lon="12.7988862"><ele>544.0</ele><time>2026-04-18T10:19:20.975Z</time></trkpt><trkpt lat="43.4360545" lon="12.7987988"><ele>544.0</ele><time>2026-04-18T10:19:21.983Z</time></trkpt><trkpt lat="43.4361284" lon="12.798726"><ele>544.0</ele><time>2026-04-18T10:19:22.978Z</time></trkpt><trkpt lat="43.4361931" lon="12.7987068"><ele>544.0</ele><time>2026-04-18T10:19:23.984Z</time></trkpt><trkpt lat="43.4362595" lon="12.7987428"><ele>544.0</ele><time>2026-04-18T10:19:24.971Z</time></trkpt><trkpt lat="43.4363044" lon="12.7988537"><ele>544.0</ele><time>2026-04-18T10:19:25.982Z</time></trkpt><trkpt lat="43.4362897" lon="12.7989773"><ele>544.0</ele><time>2026-04-18T10:19:26.986Z</time></trkpt><trkpt lat="43.4362506" lon="12.7990986"><ele>544.0</ele><time>2026-04-18T10:19:27.982Z</time></trkpt><trkpt lat="43.436203" lon="12.7992262"><ele>544.0</ele><time>2026-04-18T10:19:28.978Z</time></trkpt><trkpt lat="43.4361457" lon="12.7993451"><ele>544.0</ele><time>2026-04-18T10:19:29.976Z</time></trkpt><trkpt lat="43.4360681" lon="12.7994759"><ele>541.0</ele><time>2026-04-18T10:19:30.976Z</time></trkpt><trkpt lat="43.4360049" lon="12.7996075"><ele>538.0</ele><time>2026-04-18T10:19:31.979Z</time></trkpt><trkpt lat="43.4359486" lon="12.7997415"><ele>535.0</ele><time>2026-04-18T10:19:32.981Z</time></trkpt><trkpt lat="43.435903" lon="12.7998789"><ele>532.0</ele><time>2026-04-18T10:19:33.98Z</time></trkpt><trkpt lat="43.4358798" lon="12.8000185"><ele>529.0</ele><time>2026-04-18T10:19:34.971Z</time></trkpt><trkpt lat="43.4358943" lon="12.8001524"><ele>527.0</ele><time>2026-04-18T10:19:35.985Z</time></trkpt><trkpt lat="43.4359497" lon="12.8002731"><ele>525.0</ele><time>2026-04-18T10:19:36.972Z</time></trkpt><trkpt lat="43.436017" lon="12.80039"><ele>523.0</ele><time>2026-04-18T10:19:37.981Z</time></trkpt><trkpt lat="43.4360918" lon="12.8005112"><ele>521.0</ele><time>2026-04-18T10:19:38.986Z</time></trkpt><trkpt lat="43.4361578" lon="12.800658"><ele>521.0</ele><time>2026-04-18T10:19:39.984Z</time></trkpt><trkpt lat="43.4362023" lon="12.8008223"><ele>521.0</ele><time>2026-04-18T10:19:40.977Z</time></trkpt><trkpt lat="43.43624" lon="12.8009833"><ele>521.0</ele><time>2026-04-18T10:19:41.974Z</time></trkpt><trkpt lat="43.4362764" lon="12.8011412"><ele>521.0</ele><time>2026-04-18T10:19:42.974Z</time></trkpt><trkpt lat="43.436322" lon="12.8012926"><ele>518.5</ele><time>2026-04-18T10:19:43.976Z</time></trkpt><trkpt lat="43.4363681" lon="12.8014559"><ele>516.0</ele><time>2026-04-18T10:19:44.973Z</time></trkpt><trkpt lat="43.4364131" lon="12.8016296"><ele>513.5</ele><time>2026-04-18T10:19:45.975Z</time></trkpt><trkpt lat="43.4364664" lon="12.8017957"><ele>511.0</ele><time>2026-04-18T10:19:46.972Z</time></trkpt><trkpt lat="43.4365261" lon="12.8019606"><ele>511.0</ele><time>2026-04-18T10:19:47.976Z</time></trkpt><trkpt lat="43.436591" lon="12.8021277"><ele>511.0</ele><time>2026-04-18T10:19:48.97Z</time></trkpt><trkpt lat="43.4366734" lon="12.8022864"><ele>511.0</ele><time>2026-04-18T10:19:49.983Z</time></trkpt><trkpt lat="43.4367677" lon="12.8024252"><ele>511.0</ele><time>2026-04-18T10:19:50.974Z</time></trkpt><trkpt lat="43.4368603" lon="12.80256"><ele>512.75</ele><time>2026-04-18T10:19:51.978Z</time></trkpt><trkpt lat="43.4369484" lon="12.8026875"><ele>514.5</ele><time>2026-04-18T10:19:52.977Z</time></trkpt><trkpt lat="43.4370323" lon="12.8028176"><ele>516.25</ele><time>2026-04-18T10:19:53.973Z</time></trkpt><trkpt lat="43.4371183" lon="12.8029596"><ele>518.0</ele><time>2026-04-18T10:19:54.976Z</time></trkpt><trkpt lat="43.4371938" lon="12.8031163"><ele>518.0</ele><time>2026-04-18T10:19:55.978Z</time></trkpt><trkpt lat="43.4372711" lon="12.8032682"><ele>518.0</ele><time>2026-04-18T10:19:56.98Z</time></trkpt><trkpt lat="43.4373515" lon="12.8034112"><ele>518.0</ele><time>2026-04-18T10:19:57.976Z</time></trkpt><trkpt lat="43.4374242" lon="12.803551"><ele>518.0</ele><time>2026-04-18T10:19:58.976Z</time></trkpt><trkpt lat="43.4374985" lon="12.8036796"><ele>512.0</ele><time>2026-04-18T10:19:59.978Z</time></trkpt><trkpt lat="43.4375667" lon="12.803823"><ele>506.0</ele><time>2026-04-18T10:20:00.976Z</time></trkpt><trkpt lat="43.4376332" lon="12.8039686"><ele>500.0</ele><time>2026-04-18T10:20:01.977Z</time></trkpt><trkpt lat="43.4377078" lon="12.804119"><ele>494.0</ele><time>2026-04-18T10:20:02.977Z</time></trkpt><trkpt lat="43.4377884" lon="12.8042681"><ele>497.25</ele><time>2026-04-18T10:20:03.978Z</time></trkpt><trkpt lat="43.4378702" lon="12.8044103"><ele>500.5</ele><time>2026-04-18T10:20:04.972Z</time></trkpt><trkpt lat="43.4379471" lon="12.8045519"><ele>503.75</ele><time>2026-04-18T10:20:05.985Z</time></trkpt><trkpt lat="43.4380129" lon="12.8046965"><ele>507.0</ele><time>2026-04-18T10:20:06.978Z</time></trkpt><trkpt lat="43.4380739" lon="12.8048378"><ele>507.0</ele><time>2026-04-18T10:20:07.974Z</time></trkpt><trkpt lat="43.4381229" lon="12.8049786"><ele>507.00000000000006</ele><time>2026-04-18T10:20:08.978Z</time></trkpt><trkpt lat="43.4381752" lon="12.8051136"><ele>507.00000000000006</ele><time>2026-04-18T10:20:09.987Z</time></trkpt><trkpt lat="43.4382395" lon="12.8052286"><ele>507.0</ele><time>2026-04-18T10:20:10.979Z</time></trkpt><trkpt lat="43.4383359" lon="12.805306"><ele>507.0</ele><time>2026-04-18T10:20:11.983Z</time></trkpt><trkpt lat="43.4384344" lon="12.8053701"><ele>503.5</ele><time>2026-04-18T10:20:12.967Z</time></trkpt><trkpt lat="43.4385342" lon="12.8054473"><ele>500.0</ele><time>2026-04-18T10:20:13.979Z</time></trkpt><trkpt lat="43.438633" lon="12.8055464"><ele>496.5</ele><time>2026-04-18T10:20:14.979Z</time></trkpt><trkpt lat="43.4387277" lon="12.8056545"><ele>493.0</ele><time>2026-04-18T10:20:15.986Z</time></trkpt><trkpt lat="43.4388169" lon="12.8057529"><ele>493.0</ele><time>2026-04-18T10:20:16.977Z</time></trkpt><trkpt lat="43.4389056" lon="12.8058506"><ele>492.99999999999994</ele><time>2026-04-18T10:20:17.976Z</time></trkpt><trkpt lat="43.4389889" lon="12.8059057"><ele>492.99999999999994</ele><time>2026-04-18T10:20:18.981Z</time></trkpt><trkpt lat="43.4390826" lon="12.8059291"><ele>493.0</ele><time>2026-04-18T10:20:19.992Z</time></trkpt><trkpt lat="43.439176" lon="12.8059147"><ele>493.0</ele><time>2026-04-18T10:20:20.977Z</time></trkpt><trkpt lat="43.4392672" lon="12.8058899"><ele>493.0</ele><time>2026-04-18T10:20:21.982Z</time></trkpt><trkpt lat="43.4393581" lon="12.8058702"><ele>492.99999999999994</ele><time>2026-04-18T10:20:22.982Z</time></trkpt><trkpt lat="43.4394487" lon="12.8058527"><ele>492.99999999999994</ele><time>2026-04-18T10:20:23.982Z</time></trkpt><trkpt lat="43.4395409" lon="12.8058239"><ele>493.0</ele><time>2026-04-18T10:20:24.989Z</time></trkpt><trkpt lat="43.4396347" lon="12.8058001"><ele>493.0</ele><time>2026-04-18T10:20:25.982Z</time></trkpt><trkpt lat="43.4397297" lon="12.8057849"><ele>493.59999999999997</ele><time>2026-04-18T10:20:26.982Z</time></trkpt><trkpt lat="43.4398286" lon="12.8057723"><ele>494.19999999999993</ele><time>2026-04-18T10:20:27.986Z</time></trkpt><trkpt lat="43.439929" lon="12.8057583"><ele>494.8</ele><time>2026-04-18T10:20:28.973Z</time></trkpt><trkpt lat="43.4400328" lon="12.8057378"><ele>495.4</ele><time>2026-04-18T10:20:29.982Z</time></trkpt><trkpt lat="43.4401362" lon="12.8057175"><ele>496.0</ele><time>2026-04-18T10:20:30.977Z</time></trkpt><trkpt lat="43.4402412" lon="12.805701"><ele>496.0</ele><time>2026-04-18T10:20:31.97Z</time></trkpt><trkpt lat="43.4403445" lon="12.805698"><ele>496.0</ele><time>2026-04-18T10:20:32.978Z</time></trkpt><trkpt lat="43.4404391" lon="12.8057199"><ele>496.0</ele><time>2026-04-18T10:20:33.979Z</time></trkpt><trkpt lat="43.4405355" lon="12.8057832"><ele>496.0</ele><time>2026-04-18T10:20:34.977Z</time></trkpt><trkpt lat="43.4406217" lon="12.8058666"><ele>496.0</ele><time>2026-04-18T10:20:35.983Z</time></trkpt><trkpt lat="43.4406661" lon="12.8060075"><ele>497.0</ele><time>2026-04-18T10:20:36.991Z</time></trkpt><trkpt lat="43.4407058" lon="12.8061471"><ele>498.0</ele><time>2026-04-18T10:20:37.985Z</time></trkpt><trkpt lat="43.4407498" lon="12.8062763"><ele>499.0</ele><time>2026-04-18T10:20:38.985Z</time></trkpt><trkpt lat="43.4407943" lon="12.8064148"><ele>500.0</ele><time>2026-04-18T10:20:39.987Z</time></trkpt><trkpt lat="43.4408278" lon="12.8065591"><ele>501.0</ele><time>2026-04-18T10:20:40.993Z</time></trkpt><trkpt lat="43.4408679" lon="12.8067012"><ele>499.6</ele><time>2026-04-18T10:20:41.991Z</time></trkpt><trkpt lat="43.4409148" lon="12.8068373"><ele>498.20000000000005</ele><time>2026-04-18T10:20:42.981Z</time></trkpt><trkpt lat="43.4409617" lon="12.8069713"><ele>496.79999999999995</ele><time>2026-04-18T10:20:43.993Z</time></trkpt><trkpt lat="43.4410129" lon="12.8070951"><ele>495.4</ele><time>2026-04-18T10:20:44.979Z</time></trkpt><trkpt lat="43.4410773" lon="12.8072206"><ele>494.0</ele><time>2026-04-18T10:20:46Z</time></trkpt><trkpt lat="43.4411419" lon="12.8073354"><ele>494.0</ele><time>2026-04-18T10:20:46.969Z</time></trkpt><trkpt lat="43.4412032" lon="12.8074399"><ele>494.0</ele><time>2026-04-18T10:20:47.971Z</time></trkpt><trkpt lat="43.4412699" lon="12.8075399"><ele>494.0</ele><time>2026-04-18T10:20:48.971Z</time></trkpt><trkpt lat="43.4413464" lon="12.8076238"><ele>494.0</ele><time>2026-04-18T10:20:49.982Z</time></trkpt><trkpt lat="43.441416" lon="12.8076985"><ele>494.0</ele><time>2026-04-18T10:20:50.974Z</time></trkpt><trkpt lat="43.4414812" lon="12.8077462"><ele>495.6</ele><time>2026-04-18T10:20:51.975Z</time></trkpt><trkpt lat="43.4415923" lon="12.8077899"><ele>497.2</ele><time>2026-04-18T10:20:53.981Z</time></trkpt><trkpt lat="43.4417193" lon="12.8078433"><ele>498.80000000000007</ele><time>2026-04-18T10:20:55.993Z</time></trkpt><trkpt lat="43.4417998" lon="12.807862"><ele>500.40000000000003</ele><time>2026-04-18T10:20:56.972Z</time></trkpt><trkpt lat="43.4418835" lon="12.8078842"><ele>502.0</ele><time>2026-04-18T10:20:57.982Z</time></trkpt><trkpt lat="43.4419524" lon="12.8079012"><ele>502.0</ele><time>2026-04-18T10:20:58.97Z</time></trkpt><trkpt lat="43.4420473" lon="12.807955"><ele>502.00000000000006</ele><time>2026-04-18T10:21:00.994Z</time></trkpt><trkpt lat="43.4421083" lon="12.8080547"><ele>502.00000000000006</ele><time>2026-04-18T10:21:02.981Z</time></trkpt><trkpt lat="43.4421631" lon="12.8081181"><ele>502.0</ele><time>2026-04-18T10:21:04.987Z</time></trkpt><trkpt lat="43.4422379" lon="12.8081054"><ele>502.0</ele><time>2026-04-18T10:21:06.99Z</time></trkpt><trkpt lat="43.4423593" lon="12.8080677"><ele>501.33333333333337</ele><time>2026-04-18T10:21:08.984Z</time></trkpt><trkpt lat="43.4424267" lon="12.8080381"><ele>500.6666666666667</ele><time>2026-04-18T10:21:09.996Z</time></trkpt><trkpt lat="43.4424987" lon="12.8080085"><ele>500.0</ele><time>2026-04-18T10:21:11.006Z</time></trkpt><trkpt lat="43.4425636" lon="12.8079806"><ele>499.33333333333337</ele><time>2026-04-18T10:21:11.984Z</time></trkpt><trkpt lat="43.4426246" lon="12.8079497"><ele>498.6666666666667</ele><time>2026-04-18T10:21:12.975Z</time></trkpt><trkpt lat="43.4427238" lon="12.8078951"><ele>498.0</ele><time>2026-04-18T10:21:14.989Z</time></trkpt><trkpt lat="43.4427888" lon="12.8078488"><ele>498.0</ele><time>2026-04-18T10:21:16.98Z</time></trkpt><trkpt lat="43.4429009" lon="12.8077894"><ele>497.99999999999994</ele><time>2026-04-18T10:21:18.995Z</time></trkpt><trkpt lat="43.442971" lon="12.8077451"><ele>497.99999999999994</ele><time>2026-04-18T10:21:19.987Z</time></trkpt><trkpt lat="43.4430452" lon="12.807694"><ele>498.0</ele><time>2026-04-18T10:21:20.991Z</time></trkpt><trkpt lat="43.4431267" lon="12.8076346"><ele>498.0</ele><time>2026-04-18T10:21:21.998Z</time></trkpt><trkpt lat="43.4432115" lon="12.8075721"><ele>497.59999999999997</ele><time>2026-04-18T10:21:23.006Z</time></trkpt><trkpt lat="43.443297" lon="12.8075205"><ele>497.19999999999993</ele><time>2026-04-18T10:21:23.982Z</time></trkpt><trkpt lat="43.4433783" lon="12.8074672"><ele>496.8</ele><time>2026-04-18T10:21:24.98Z</time></trkpt><trkpt lat="43.4434621" lon="12.8074131"><ele>496.4</ele><time>2026-04-18T10:21:25.985Z</time></trkpt><trkpt lat="43.4435483" lon="12.8073515"><ele>496.0</ele><time>2026-04-18T10:21:26.985Z</time></trkpt><trkpt lat="43.4436379" lon="12.8072932"><ele>496.0</ele><time>2026-04-18T10:21:27.992Z</time></trkpt><trkpt lat="43.4437317" lon="12.80723"><ele>496.0</ele><time>2026-04-18T10:21:28.991Z</time></trkpt><trkpt lat="43.4438254" lon="12.8071554"><ele>496.0</ele><time>2026-04-18T10:21:29.993Z</time></trkpt><trkpt lat="43.4439214" lon="12.8070838"><ele>496.0</ele><time>2026-04-18T10:21:31.001Z</time></trkpt><trkpt lat="43.4440164" lon="12.8070174"><ele>496.0</ele><time>2026-04-18T10:21:31.99Z</time></trkpt><trkpt lat="43.444112" lon="12.8069468"><ele>495.4</ele><time>2026-04-18T10:21:32.983Z</time></trkpt><trkpt lat="43.4442059" lon="12.8068791"><ele>494.8</ele><time>2026-04-18T10:21:33.979Z</time></trkpt><trkpt lat="43.4442876" lon="12.8068231"><ele>494.19999999999993</ele><time>2026-04-18T10:21:34.983Z</time></trkpt><trkpt lat="43.444372" lon="12.8067688"><ele>493.59999999999997</ele><time>2026-04-18T10:21:35.988Z</time></trkpt><trkpt lat="43.4444551" lon="12.8067084"><ele>493.0</ele><time>2026-04-18T10:21:36.984Z</time></trkpt><trkpt lat="43.4445377" lon="12.8066448"><ele>493.0</ele><time>2026-04-18T10:21:37.992Z</time></trkpt><trkpt lat="43.4446267" lon="12.8065824"><ele>492.99999999999994</ele><time>2026-04-18T10:21:38.987Z</time></trkpt><trkpt lat="43.4447113" lon="12.8065191"><ele>492.99999999999994</ele><time>2026-04-18T10:21:39.991Z</time></trkpt><trkpt lat="43.4447988" lon="12.8064561"><ele>493.0</ele><time>2026-04-18T10:21:40.989Z</time></trkpt><trkpt lat="43.4448866" lon="12.8064013"><ele>493.0</ele><time>2026-04-18T10:21:41.997Z</time></trkpt><trkpt lat="43.4449711" lon="12.80635"><ele>491.83333333333337</ele><time>2026-04-18T10:21:42.995Z</time></trkpt><trkpt lat="43.4450545" lon="12.8062985"><ele>490.6666666666667</ele><time>2026-04-18T10:21:43.987Z</time></trkpt><trkpt lat="43.4451335" lon="12.8062546"><ele>489.5</ele><time>2026-04-18T10:21:44.983Z</time></trkpt><trkpt lat="43.4452023" lon="12.8062081"><ele>488.33333333333337</ele><time>2026-04-18T10:21:45.984Z</time></trkpt><trkpt lat="43.4452546" lon="12.806112"><ele>487.1666666666667</ele><time>2026-04-18T10:21:48Z</time></trkpt><trkpt lat="43.4451947" lon="12.8060099"><ele>486.0</ele><time>2026-04-18T10:21:49.98Z</time></trkpt><trkpt lat="43.4451011" lon="12.8059169"><ele>486.0</ele><time>2026-04-18T10:21:51.985Z</time></trkpt><trkpt lat="43.4450403" lon="12.8058428"><ele>486.0</ele><time>2026-04-18T10:21:53.998Z</time></trkpt><trkpt lat="43.4450518" lon="12.8057489"><ele>486.0</ele><time>2026-04-18T10:21:56.983Z</time></trkpt><trkpt lat="43.4451263" lon="12.8057904"><ele>486.0</ele><time>2026-04-18T10:22:02.001Z</time></trkpt><trkpt lat="43.4451734" lon="12.8058611"><ele>486.0</ele><time>2026-04-18T10:22:02.99Z</time></trkpt><trkpt lat="43.4452241" lon="12.8059281"><ele>486.0</ele><time>2026-04-18T10:22:03.981Z</time></trkpt><trkpt lat="43.445278" lon="12.8060054"><ele>486.0</ele><time>2026-04-18T10:22:04.979Z</time></trkpt><trkpt lat="43.4453342" lon="12.8060883"><ele>485.1666666666667</ele><time>2026-04-18T10:22:05.986Z</time></trkpt><trkpt lat="43.4453844" lon="12.8061729"><ele>484.33333333333337</ele><time>2026-04-18T10:22:06.979Z</time></trkpt><trkpt lat="43.4454374" lon="12.8062483"><ele>483.5</ele><time>2026-04-18T10:22:07.99Z</time></trkpt><trkpt lat="43.4454903" lon="12.8063258"><ele>482.6666666666667</ele><time>2026-04-18T10:22:08.985Z</time></trkpt><trkpt lat="43.4455356" lon="12.8064063"><ele>481.83333333333337</ele><time>2026-04-18T10:22:09.994Z</time></trkpt><trkpt lat="43.4455712" lon="12.806498"><ele>481.0</ele><time>2026-04-18T10:22:10.983Z</time></trkpt><trkpt lat="43.4456035" lon="12.806582"><ele>481.00000000000006</ele><time>2026-04-18T10:22:11.987Z</time></trkpt><trkpt lat="43.4456364" lon="12.8066687"><ele>481.0</ele><time>2026-04-18T10:22:12.987Z</time></trkpt><trkpt lat="43.4456657" lon="12.8067622"><ele>481.0</ele><time>2026-04-18T10:22:13.987Z</time></trkpt><trkpt lat="43.4457009" lon="12.8068591"><ele>481.0</ele><time>2026-04-18T10:22:14.981Z</time></trkpt><trkpt lat="43.445733" lon="12.8069515"><ele>481.00000000000006</ele><time>2026-04-18T10:22:15.989Z</time></trkpt><trkpt lat="43.4457647" lon="12.807032"><ele>481.0</ele><time>2026-04-18T10:22:16.993Z</time></trkpt><trkpt lat="43.4458307" lon="12.8071673"><ele>479.8</ele><time>2026-04-18T10:22:18.986Z</time></trkpt><trkpt lat="43.4459235" lon="12.8072608"><ele>478.6</ele><time>2026-04-18T10:22:20.983Z</time></trkpt><trkpt lat="43.4460358" lon="12.8073131"><ele>477.4</ele><time>2026-04-18T10:22:22.983Z</time></trkpt><trkpt lat="43.4461168" lon="12.8073552"><ele>476.2</ele><time>2026-04-18T10:22:24.982Z</time></trkpt><trkpt lat="43.4461389" lon="12.8074698"><ele>475.0</ele><time>2026-04-18T10:22:27.988Z</time></trkpt><trkpt lat="43.4461419" lon="12.8075641"><ele>475.00000000000006</ele><time>2026-04-18T10:22:28.971Z</time></trkpt><trkpt lat="43.4461552" lon="12.8076539"><ele>475.0</ele><time>2026-04-18T10:22:29.985Z</time></trkpt><trkpt lat="43.4461689" lon="12.8077469"><ele>475.0</ele><time>2026-04-18T10:22:30.988Z</time></trkpt><trkpt lat="43.4462058" lon="12.8078308"><ele>475.0</ele><time>2026-04-18T10:22:31.982Z</time></trkpt><trkpt lat="43.4463234" lon="12.8078866"><ele>475.00000000000006</ele><time>2026-04-18T10:22:33.98Z</time></trkpt><trkpt lat="43.4463838" lon="12.8079232"><ele>475.0</ele><time>2026-04-18T10:22:34.981Z</time></trkpt><trkpt lat="43.4464692" lon="12.8080091"><ele>474.50000000000006</ele><time>2026-04-18T10:22:36.98Z</time></trkpt><trkpt lat="43.4464864" lon="12.8080944"><ele>474.0</ele><time>2026-04-18T10:22:37.989Z</time></trkpt><trkpt lat="43.4465092" lon="12.8082553"><ele>473.5</ele><time>2026-04-18T10:22:39.991Z</time></trkpt><trkpt lat="43.4465062" lon="12.8083538"><ele>473.0</ele><time>2026-04-18T10:22:40.991Z</time></trkpt><trkpt lat="43.4465255" lon="12.8084447"><ele>472.50000000000006</ele><time>2026-04-18T10:22:41.99Z</time></trkpt><trkpt lat="43.446541" lon="12.8085406"><ele>472.0</ele><time>2026-04-18T10:22:42.988Z</time></trkpt><trkpt lat="43.4465546" lon="12.8086476"><ele>471.1666666666667</ele><time>2026-04-18T10:22:43.981Z</time></trkpt><trkpt lat="43.4465747" lon="12.8087595"><ele>470.33333333333337</ele><time>2026-04-18T10:22:45.002Z</time></trkpt><trkpt lat="43.4466012" lon="12.8088648"><ele>469.5</ele><time>2026-04-18T10:22:45.99Z</time></trkpt><trkpt lat="43.4466299" lon="12.8089741"><ele>468.66666666666663</ele><time>2026-04-18T10:22:47.002Z</time></trkpt><trkpt lat="43.446663" lon="12.8090825"><ele>467.8333333333333</ele><time>2026-04-18T10:22:47.982Z</time></trkpt><trkpt lat="43.4466947" lon="12.8091891"><ele>467.0</ele><time>2026-04-18T10:22:48.987Z</time></trkpt><trkpt lat="43.4467296" lon="12.8093061"><ele>465.66666666666663</ele><time>2026-04-18T10:22:49.981Z</time></trkpt><trkpt lat="43.4467566" lon="12.8094243"><ele>464.3333333333333</ele><time>2026-04-18T10:22:50.973Z</time></trkpt><trkpt lat="43.4467788" lon="12.8095418"><ele>463.0</ele><time>2026-04-18T10:22:51.977Z</time></trkpt><trkpt lat="43.4467932" lon="12.8096537"><ele>461.66666666666663</ele><time>2026-04-18T10:22:52.987Z</time></trkpt><trkpt lat="43.4468126" lon="12.8097572"><ele>460.3333333333333</ele><time>2026-04-18T10:22:53.987Z</time></trkpt><trkpt lat="43.4468309" lon="12.8098672"><ele>459.0</ele><time>2026-04-18T10:22:54.989Z</time></trkpt><trkpt lat="43.4468494" lon="12.8099806"><ele>459.0</ele><time>2026-04-18T10:22:55.986Z</time></trkpt><trkpt lat="43.4468748" lon="12.8101052"><ele>459.0</ele><time>2026-04-18T10:22:56.979Z</time></trkpt><trkpt lat="43.4469089" lon="12.8102411"><ele>459.0</ele><time>2026-04-18T10:22:57.986Z</time></trkpt><trkpt lat="43.4469447" lon="12.8103723"><ele>459.0</ele><time>2026-04-18T10:22:58.988Z</time></trkpt><trkpt lat="43.4469822" lon="12.8105049"><ele>459.0</ele><time>2026-04-18T10:22:59.98Z</time></trkpt><trkpt lat="43.4470186" lon="12.8106245"><ele>458.57142857142856</ele><time>2026-04-18T10:23:00.989Z</time></trkpt><trkpt lat="43.4470552" lon="12.8107287"><ele>458.1428571428571</ele><time>2026-04-18T10:23:01.993Z</time></trkpt><trkpt lat="43.4470874" lon="12.810824"><ele>457.71428571428567</ele><time>2026-04-18T10:23:02.984Z</time></trkpt><trkpt lat="43.4471299" lon="12.8109045"><ele>457.2857142857143</ele><time>2026-04-18T10:23:03.992Z</time></trkpt><trkpt lat="43.4471713" lon="12.8109754"><ele>456.8571428571428</ele><time>2026-04-18T10:23:04.989Z</time></trkpt><trkpt lat="43.447214" lon="12.8110436"><ele>456.4285714285714</ele><time>2026-04-18T10:23:05.991Z</time></trkpt><trkpt lat="43.4472593" lon="12.811129"><ele>456.0</ele><time>2026-04-18T10:23:06.992Z</time></trkpt><trkpt lat="43.4473069" lon="12.8112228"><ele>454.8</ele><time>2026-04-18T10:23:07.992Z</time></trkpt><trkpt lat="43.4473626" lon="12.8113203"><ele>453.6</ele><time>2026-04-18T10:23:08.988Z</time></trkpt><trkpt lat="43.4474231" lon="12.8114305"><ele>452.4</ele><time>2026-04-18T10:23:09.986Z</time></trkpt><trkpt lat="43.4474836" lon="12.8115466"><ele>451.2</ele><time>2026-04-18T10:23:10.988Z</time></trkpt><trkpt lat="43.447551" lon="12.8116625"><ele>450.0</ele><time>2026-04-18T10:23:11.986Z</time></trkpt><trkpt lat="43.4476208" lon="12.8117826"><ele>447.75</ele><time>2026-04-18T10:23:12.983Z</time></trkpt><trkpt lat="43.4476945" lon="12.8118998"><ele>445.5</ele><time>2026-04-18T10:23:13.987Z</time></trkpt><trkpt lat="43.44777" lon="12.8120201"><ele>443.25</ele><time>2026-04-18T10:23:14.986Z</time></trkpt><trkpt lat="43.4478491" lon="12.8121374"><ele>441.0</ele><time>2026-04-18T10:23:15.999Z</time></trkpt><trkpt lat="43.4479323" lon="12.8122524"><ele>442.5</ele><time>2026-04-18T10:23:16.989Z</time></trkpt><trkpt lat="43.4480212" lon="12.8123488"><ele>444.0</ele><time>2026-04-18T10:23:17.987Z</time></trkpt><trkpt lat="43.4481147" lon="12.8124391"><ele>445.5</ele><time>2026-04-18T10:23:18.983Z</time></trkpt><trkpt lat="43.4482151" lon="12.8125332"><ele>447.0</ele><time>2026-04-18T10:23:19.995Z</time></trkpt><trkpt lat="43.4483174" lon="12.8126321"><ele>445.5</ele><time>2026-04-18T10:23:20.994Z</time></trkpt><trkpt lat="43.448411" lon="12.8127299"><ele>444.0</ele><time>2026-04-18T10:23:21.994Z</time></trkpt><trkpt lat="43.4484997" lon="12.8128385"><ele>442.5</ele><time>2026-04-18T10:23:22.987Z</time></trkpt><trkpt lat="43.448585" lon="12.8129499"><ele>441.0</ele><time>2026-04-18T10:23:23.984Z</time></trkpt><trkpt lat="43.4486726" lon="12.8130446"><ele>441.0</ele><time>2026-04-18T10:23:24.983Z</time></trkpt><trkpt lat="43.4487599" lon="12.8131187"><ele>441.0</ele><time>2026-04-18T10:23:25.982Z</time></trkpt><trkpt lat="43.4488627" lon="12.8131829"><ele>441.0</ele><time>2026-04-18T10:23:26.983Z</time></trkpt><trkpt lat="43.4489773" lon="12.8132415"><ele>441.0</ele><time>2026-04-18T10:23:27.988Z</time></trkpt><trkpt lat="43.4490946" lon="12.8133081"><ele>441.25</ele><time>2026-04-18T10:23:28.985Z</time></trkpt><trkpt lat="43.4492161" lon="12.8133793"><ele>441.5</ele><time>2026-04-18T10:23:29.993Z</time></trkpt><trkpt lat="43.4493317" lon="12.8134571"><ele>441.75</ele><time>2026-04-18T10:23:30.986Z</time></trkpt><trkpt lat="43.4494512" lon="12.8135209"><ele>442.0</ele><time>2026-04-18T10:23:31.997Z</time></trkpt><trkpt lat="43.4495684" lon="12.8135972"><ele>440.0</ele><time>2026-04-18T10:23:32.984Z</time></trkpt><trkpt lat="43.449681" lon="12.8136706"><ele>438.0</ele><time>2026-04-18T10:23:33.987Z</time></trkpt><trkpt lat="43.4497958" lon="12.8137443"><ele>436.0</ele><time>2026-04-18T10:23:34.983Z</time></trkpt><trkpt lat="43.4499063" lon="12.8138204"><ele>434.0</ele><time>2026-04-18T10:23:35.985Z</time></trkpt><trkpt lat="43.4500238" lon="12.8138985"><ele>434.0</ele><time>2026-04-18T10:23:36.983Z</time></trkpt><trkpt lat="43.4501393" lon="12.8139793"><ele>434.0</ele><time>2026-04-18T10:23:37.993Z</time></trkpt><trkpt lat="43.4502497" lon="12.8140621"><ele>434.0</ele><time>2026-04-18T10:23:38.983Z</time></trkpt><trkpt lat="43.4503573" lon="12.8141474"><ele>434.0</ele><time>2026-04-18T10:23:39.978Z</time></trkpt><trkpt lat="43.4504627" lon="12.8142299"><ele>432.5</ele><time>2026-04-18T10:23:40.99Z</time></trkpt><trkpt lat="43.4505627" lon="12.8143117"><ele>431.0</ele><time>2026-04-18T10:23:41.99Z</time></trkpt><trkpt lat="43.4506667" lon="12.8144025"><ele>429.5</ele><time>2026-04-18T10:23:42.985Z</time></trkpt><trkpt lat="43.4507699" lon="12.8145129"><ele>428.0</ele><time>2026-04-18T10:23:43.981Z</time></trkpt><trkpt lat="43.4508764" lon="12.8146403"><ele>427.5</ele><time>2026-04-18T10:23:44.988Z</time></trkpt><trkpt lat="43.4509779" lon="12.8147788"><ele>427.0</ele><time>2026-04-18T10:23:45.982Z</time></trkpt><trkpt lat="43.4510769" lon="12.814916"><ele>426.5</ele><time>2026-04-18T10:23:46.983Z</time></trkpt><trkpt lat="43.4511749" lon="12.815037"><ele>426.0</ele><time>2026-04-18T10:23:47.986Z</time></trkpt><trkpt lat="43.4512841" lon="12.8151272"><ele>423.0</ele><time>2026-04-18T10:23:48.992Z</time></trkpt><trkpt lat="43.4514009" lon="12.8151981"><ele>420.0</ele><time>2026-04-18T10:23:49.984Z</time></trkpt><trkpt lat="43.4515179" lon="12.8152787"><ele>417.0</ele><time>2026-04-18T10:23:50.997Z</time></trkpt><trkpt lat="43.4516375" lon="12.8153601"><ele>414.0</ele><time>2026-04-18T10:23:51.994Z</time></trkpt><trkpt lat="43.4517596" lon="12.8154393"><ele>414.0</ele><time>2026-04-18T10:23:52.982Z</time></trkpt><trkpt lat="43.4518772" lon="12.8155222"><ele>414.0</ele><time>2026-04-18T10:23:53.994Z</time></trkpt><trkpt lat="43.4519836" lon="12.8156092"><ele>414.0</ele><time>2026-04-18T10:23:54.983Z</time></trkpt><trkpt lat="43.4520828" lon="12.8156883"><ele>414.0</ele><time>2026-04-18T10:23:55.987Z</time></trkpt><trkpt lat="43.4521645" lon="12.8157808"><ele>413.79999999999995</ele><time>2026-04-18T10:23:56.986Z</time></trkpt><trkpt lat="43.4522268" lon="12.8158955"><ele>413.59999999999997</ele><time>2026-04-18T10:23:57.985Z</time></trkpt><trkpt lat="43.4522662" lon="12.8160351"><ele>413.4</ele><time>2026-04-18T10:23:58.98Z</time></trkpt><trkpt lat="43.4522932" lon="12.8161883"><ele>413.2</ele><time>2026-04-18T10:23:59.983Z</time></trkpt><trkpt lat="43.4523111" lon="12.8163509"><ele>413.0</ele><time>2026-04-18T10:24:00.985Z</time></trkpt><trkpt lat="43.4523172" lon="12.8165186"><ele>413.0</ele><time>2026-04-18T10:24:01.988Z</time></trkpt><trkpt lat="43.4523284" lon="12.8166956"><ele>413.0</ele><time>2026-04-18T10:24:02.981Z</time></trkpt><trkpt lat="43.4523399" lon="12.8168752"><ele>413.0</ele><time>2026-04-18T10:24:03.979Z</time></trkpt><trkpt lat="43.4523517" lon="12.8170564"><ele>413.0</ele><time>2026-04-18T10:24:04.993Z</time></trkpt><trkpt lat="43.4523624" lon="12.8172315"><ele>412.75</ele><time>2026-04-18T10:24:05.986Z</time></trkpt><trkpt lat="43.4523769" lon="12.8174029"><ele>412.5</ele><time>2026-04-18T10:24:06.984Z</time></trkpt><trkpt lat="43.4523917" lon="12.8175711"><ele>412.25</ele><time>2026-04-18T10:24:07.992Z</time></trkpt><trkpt lat="43.4524071" lon="12.817735"><ele>412.0</ele><time>2026-04-18T10:24:08.982Z</time></trkpt><trkpt lat="43.4524269" lon="12.8178885"><ele>411.8</ele><time>2026-04-18T10:24:09.991Z</time></trkpt><trkpt lat="43.4524514" lon="12.8180412"><ele>411.6</ele><time>2026-04-18T10:24:10.982Z</time></trkpt><trkpt lat="43.4524718" lon="12.8181914"><ele>411.40000000000003</ele><time>2026-04-18T10:24:11.986Z</time></trkpt><trkpt lat="43.4524949" lon="12.8183158"><ele>411.20000000000005</ele><time>2026-04-18T10:24:12.975Z</time></trkpt><trkpt lat="43.4525222" lon="12.8184417"><ele>411.0</ele><time>2026-04-18T10:24:13.978Z</time></trkpt><trkpt lat="43.4525541" lon="12.8185606"><ele>410.6666666666667</ele><time>2026-04-18T10:24:15.001Z</time></trkpt><trkpt lat="43.4525803" lon="12.8186812"><ele>410.33333333333337</ele><time>2026-04-18T10:24:15.99Z</time></trkpt><trkpt lat="43.452609" lon="12.818796"><ele>410.0</ele><time>2026-04-18T10:24:16.991Z</time></trkpt><trkpt lat="43.4526286" lon="12.8189005"><ele>409.6666666666667</ele><time>2026-04-18T10:24:17.973Z</time></trkpt><trkpt lat="43.452651" lon="12.8189916"><ele>409.33333333333337</ele><time>2026-04-18T10:24:18.994Z</time></trkpt><trkpt lat="43.4526705" lon="12.8190815"><ele>409.0</ele><time>2026-04-18T10:24:19.987Z</time></trkpt><trkpt lat="43.4526939" lon="12.8191666"><ele>409.00000000000006</ele><time>2026-04-18T10:24:20.992Z</time></trkpt><trkpt lat="43.4528089" lon="12.8192333"><ele>409.0</ele><time>2026-04-18T10:24:22.982Z</time></trkpt><trkpt lat="43.4528714" lon="12.8191968"><ele>409.0</ele><time>2026-04-18T10:24:23.988Z</time></trkpt><trkpt lat="43.4529356" lon="12.8191499"><ele>409.0</ele><time>2026-04-18T10:24:25.038Z</time></trkpt><trkpt lat="43.4530015" lon="12.8191075"><ele>409.00000000000006</ele><time>2026-04-18T10:24:25.988Z</time></trkpt><trkpt lat="43.4530713" lon="12.8190421"><ele>409.0</ele><time>2026-04-18T10:24:27.994Z</time></trkpt><trkpt lat="43.4531437" lon="12.8189666"><ele>408.50000000000006</ele><time>2026-04-18T10:24:29.989Z</time></trkpt><trkpt lat="43.4531995" lon="12.8189198"><ele>408.0</ele><time>2026-04-18T10:24:30.983Z</time></trkpt><trkpt lat="43.4532731" lon="12.8188597"><ele>407.5</ele><time>2026-04-18T10:24:31.989Z</time></trkpt><trkpt lat="43.4533499" lon="12.818794"><ele>407.0</ele><time>2026-04-18T10:24:32.991Z</time></trkpt><trkpt lat="43.4534207" lon="12.8187128"><ele>406.50000000000006</ele><time>2026-04-18T10:24:33.986Z</time></trkpt><trkpt lat="43.4534995" lon="12.8186329"><ele>406.0</ele><time>2026-04-18T10:24:34.991Z</time></trkpt><trkpt lat="43.4535763" lon="12.8185549"><ele>406.0</ele><time>2026-04-18T10:24:35.981Z</time></trkpt><trkpt lat="43.4536577" lon="12.8184698"><ele>406.0</ele><time>2026-04-18T10:24:36.995Z</time></trkpt><trkpt lat="43.4537423" lon="12.8183763"><ele>406.0</ele><time>2026-04-18T10:24:37.996Z</time></trkpt><trkpt lat="43.4538283" lon="12.8182984"><ele>406.0</ele><time>2026-04-18T10:24:38.99Z</time></trkpt><trkpt lat="43.4539186" lon="12.8182403"><ele>406.0</ele><time>2026-04-18T10:24:40.007Z</time></trkpt><trkpt lat="43.4540289" lon="12.8182107"><ele>405.75</ele><time>2026-04-18T10:24:40.982Z</time></trkpt><trkpt lat="43.4541503" lon="12.8181939"><ele>405.5</ele><time>2026-04-18T10:24:42.001Z</time></trkpt><trkpt lat="43.4542706" lon="12.8181935"><ele>405.25</ele><time>2026-04-18T10:24:42.98Z</time></trkpt><trkpt lat="43.4543917" lon="12.8181931"><ele>405.0</ele><time>2026-04-18T10:24:43.984Z</time></trkpt><trkpt lat="43.4545162" lon="12.8181891"><ele>404.5</ele><time>2026-04-18T10:24:44.987Z</time></trkpt><trkpt lat="43.4546411" lon="12.8181907"><ele>404.0</ele><time>2026-04-18T10:24:45.986Z</time></trkpt><trkpt lat="43.4547747" lon="12.8181965"><ele>403.5</ele><time>2026-04-18T10:24:46.998Z</time></trkpt><trkpt lat="43.4549057" lon="12.8182007"><ele>403.0</ele><time>2026-04-18T10:24:47.973Z</time></trkpt><trkpt lat="43.4550417" lon="12.8182062"><ele>403.0</ele><time>2026-04-18T10:24:48.977Z</time></trkpt><trkpt lat="43.4551768" lon="12.8182111"><ele>403.0</ele><time>2026-04-18T10:24:49.977Z</time></trkpt><trkpt lat="43.455309" lon="12.8182175"><ele>403.0</ele><time>2026-04-18T10:24:50.984Z</time></trkpt><trkpt lat="43.4554445" lon="12.8182211"><ele>403.0</ele><time>2026-04-18T10:24:51.982Z</time></trkpt><trkpt lat="43.4555821" lon="12.8182021"><ele>403.75</ele><time>2026-04-18T10:24:52.976Z</time></trkpt><trkpt lat="43.4557242" lon="12.8181734"><ele>404.5</ele><time>2026-04-18T10:24:53.988Z</time></trkpt><trkpt lat="43.4558619" lon="12.8181346"><ele>405.25</ele><time>2026-04-18T10:24:54.976Z</time></trkpt><trkpt lat="43.4560011" lon="12.8180983"><ele>406.0</ele><time>2026-04-18T10:24:55.993Z</time></trkpt><trkpt lat="43.4561365" lon="12.8180625"><ele>406.0</ele><time>2026-04-18T10:24:56.976Z</time></trkpt><trkpt lat="43.4562619" lon="12.8180309"><ele>406.0</ele><time>2026-04-18T10:24:57.992Z</time></trkpt><trkpt lat="43.4563848" lon="12.8180036"><ele>406.0</ele><time>2026-04-18T10:24:58.976Z</time></trkpt><trkpt lat="43.4565158" lon="12.8179966"><ele>406.0</ele><time>2026-04-18T10:24:59.985Z</time></trkpt><trkpt lat="43.4566398" lon="12.8179956"><ele>405.25</ele><time>2026-04-18T10:25:00.983Z</time></trkpt><trkpt lat="43.4567711" lon="12.8179917"><ele>404.5</ele><time>2026-04-18T10:25:01.999Z</time></trkpt><trkpt lat="43.4569042" lon="12.8179883"><ele>403.75</ele><time>2026-04-18T10:25:02.981Z</time></trkpt><trkpt lat="43.4570454" lon="12.8179859"><ele>403.0</ele><time>2026-04-18T10:25:03.997Z</time></trkpt><trkpt lat="43.4571857" lon="12.8179743"><ele>401.75</ele><time>2026-04-18T10:25:04.986Z</time></trkpt><trkpt lat="43.4573288" lon="12.8179748"><ele>400.5</ele><time>2026-04-18T10:25:05.979Z</time></trkpt><trkpt lat="43.4574662" lon="12.8179932"><ele>399.25</ele><time>2026-04-18T10:25:07.002Z</time></trkpt><trkpt lat="43.4576027" lon="12.8180168"><ele>398.0</ele><time>2026-04-18T10:25:07.98Z</time></trkpt><trkpt lat="43.4577397" lon="12.8180305"><ele>398.0</ele><time>2026-04-18T10:25:08.976Z</time></trkpt><trkpt lat="43.4578719" lon="12.8180392"><ele>398.0</ele><time>2026-04-18T10:25:09.982Z</time></trkpt><trkpt lat="43.4580041" lon="12.818051"><ele>398.0</ele><time>2026-04-18T10:25:10.984Z</time></trkpt><trkpt lat="43.4581288" lon="12.8180721"><ele>398.0</ele><time>2026-04-18T10:25:11.988Z</time></trkpt><trkpt lat="43.4582507" lon="12.8181048"><ele>396.75</ele><time>2026-04-18T10:25:12.985Z</time></trkpt><trkpt lat="43.4583759" lon="12.8181411"><ele>395.5</ele><time>2026-04-18T10:25:13.985Z</time></trkpt><trkpt lat="43.4585058" lon="12.8181766"><ele>394.25</ele><time>2026-04-18T10:25:14.98Z</time></trkpt><trkpt lat="43.4586376" lon="12.8182123"><ele>393.0</ele><time>2026-04-18T10:25:15.982Z</time></trkpt><trkpt lat="43.458768" lon="12.8182485"><ele>391.0</ele><time>2026-04-18T10:25:16.977Z</time></trkpt><trkpt lat="43.458904" lon="12.818289"><ele>389.0</ele><time>2026-04-18T10:25:17.991Z</time></trkpt><trkpt lat="43.4590402" lon="12.8183382"><ele>387.0</ele><time>2026-04-18T10:25:18.985Z</time></trkpt><trkpt lat="43.4591742" lon="12.8183843"><ele>385.0</ele><time>2026-04-18T10:25:19.979Z</time></trkpt><trkpt lat="43.459311" lon="12.8184203"><ele>385.0</ele><time>2026-04-18T10:25:20.976Z</time></trkpt><trkpt lat="43.4594473" lon="12.8184516"><ele>385.0</ele><time>2026-04-18T10:25:21.992Z</time></trkpt><trkpt lat="43.4595771" lon="12.8184861"><ele>385.0</ele><time>2026-04-18T10:25:22.986Z</time></trkpt><trkpt lat="43.4596955" lon="12.8185135"><ele>385.0</ele><time>2026-04-18T10:25:23.975Z</time></trkpt><trkpt lat="43.4598175" lon="12.8185348"><ele>384.0</ele><time>2026-04-18T10:25:24.976Z</time></trkpt><trkpt lat="43.4599364" lon="12.8185493"><ele>383.0</ele><time>2026-04-18T10:25:25.989Z</time></trkpt><trkpt lat="43.4600537" lon="12.8185606"><ele>382.0</ele><time>2026-04-18T10:25:26.984Z</time></trkpt><trkpt lat="43.4601641" lon="12.818562"><ele>381.0</ele><time>2026-04-18T10:25:27.99Z</time></trkpt><trkpt lat="43.4602724" lon="12.8185427"><ele>381.0</ele><time>2026-04-18T10:25:28.986Z</time></trkpt><trkpt lat="43.4603808" lon="12.818505"><ele>381.0</ele><time>2026-04-18T10:25:29.995Z</time></trkpt><trkpt lat="43.460478" lon="12.8184811"><ele>381.0</ele><time>2026-04-18T10:25:30.987Z</time></trkpt><trkpt lat="43.4605678" lon="12.8185011"><ele>381.0</ele><time>2026-04-18T10:25:31.979Z</time></trkpt><trkpt lat="43.4606375" lon="12.818554"><ele>381.0</ele><time>2026-04-18T10:25:32.984Z</time></trkpt><trkpt lat="43.4606997" lon="12.8186422"><ele>381.1666666666667</ele><time>2026-04-18T10:25:33.978Z</time></trkpt><trkpt lat="43.460742" lon="12.8187556"><ele>381.3333333333333</ele><time>2026-04-18T10:25:34.978Z</time></trkpt><trkpt lat="43.4607834" lon="12.8188649"><ele>381.5</ele><time>2026-04-18T10:25:35.983Z</time></trkpt><trkpt lat="43.4608261" lon="12.8189662"><ele>381.66666666666663</ele><time>2026-04-18T10:25:36.983Z</time></trkpt><trkpt lat="43.4608805" lon="12.8190645"><ele>381.8333333333333</ele><time>2026-04-18T10:25:37.98Z</time></trkpt><trkpt lat="43.4609289" lon="12.8191447"><ele>382.0</ele><time>2026-04-18T10:25:38.984Z</time></trkpt><trkpt lat="43.4609776" lon="12.81921"><ele>382.0</ele><time>2026-04-18T10:25:39.996Z</time></trkpt><trkpt lat="43.4610382" lon="12.8192601"><ele>382.0</ele><time>2026-04-18T10:25:41.991Z</time></trkpt><trkpt lat="43.4610668" lon="12.8193699"><ele>382.0</ele><time>2026-04-18T10:28:53.998Z</time></trkpt><trkpt lat="43.4611145" lon="12.819515"><ele>382.0</ele><time>2026-04-18T10:28:55.994Z</time></trkpt><trkpt lat="43.4611289" lon="12.8196063"><ele>382.0</ele><time>2026-04-18T10:28:56.981Z</time></trkpt><trkpt lat="43.4611442" lon="12.8197026"><ele>382.0</ele><time>2026-04-18T10:28:57.986Z</time></trkpt><trkpt lat="43.4611611" lon="12.8198052"><ele>381.42857142857144</ele><time>2026-04-18T10:28:58.979Z</time></trkpt><trkpt lat="43.4611765" lon="12.8199054"><ele>380.85714285714283</ele><time>2026-04-18T10:28:59.992Z</time></trkpt><trkpt lat="43.4611954" lon="12.82"><ele>380.2857142857143</ele><time>2026-04-18T10:29:00.991Z</time></trkpt><trkpt lat="43.4612123" lon="12.8200959"><ele>379.7142857142857</ele><time>2026-04-18T10:29:01.977Z</time></trkpt><trkpt lat="43.4612264" lon="12.8201936"><ele>379.1428571428571</ele><time>2026-04-18T10:29:02.986Z</time></trkpt><trkpt lat="43.4612383" lon="12.8202875"><ele>378.57142857142856</ele><time>2026-04-18T10:29:03.985Z</time></trkpt><trkpt lat="43.4612489" lon="12.8203767"><ele>378.0</ele><time>2026-04-18T10:29:04.981Z</time></trkpt><trkpt lat="43.461264" lon="12.8204621"><ele>377.8333333333333</ele><time>2026-04-18T10:29:05.987Z</time></trkpt><trkpt lat="43.4612807" lon="12.820556"><ele>377.6666666666667</ele><time>2026-04-18T10:29:06.992Z</time></trkpt><trkpt lat="43.4612994" lon="12.8206568"><ele>377.5</ele><time>2026-04-18T10:29:07.988Z</time></trkpt><trkpt lat="43.4613211" lon="12.8207604"><ele>377.33333333333337</ele><time>2026-04-18T10:29:08.976Z</time></trkpt><trkpt lat="43.4613449" lon="12.8208686"><ele>377.1666666666667</ele><time>2026-04-18T10:29:09.989Z</time></trkpt><trkpt lat="43.4613638" lon="12.8209823"><ele>377.0</ele><time>2026-04-18T10:29:10.982Z</time></trkpt><trkpt lat="43.4613828" lon="12.8211026"><ele>378.0</ele><time>2026-04-18T10:29:11.975Z</time></trkpt><trkpt lat="43.4614117" lon="12.8212384"><ele>379.0</ele><time>2026-04-18T10:29:12.973Z</time></trkpt><trkpt lat="43.4614358" lon="12.821373"><ele>380.0</ele><time>2026-04-18T10:29:13.987Z</time></trkpt><trkpt lat="43.4614655" lon="12.8215198"><ele>381.0</ele><time>2026-04-18T10:29:14.977Z</time></trkpt><trkpt lat="43.4614921" lon="12.8216673"><ele>382.0</ele><time>2026-04-18T10:29:15.989Z</time></trkpt><trkpt lat="43.4615181" lon="12.8218174"><ele>382.0</ele><time>2026-04-18T10:29:16.984Z</time></trkpt><trkpt lat="43.4615442" lon="12.8219771"><ele>382.0</ele><time>2026-04-18T10:29:17.992Z</time></trkpt><trkpt lat="43.4615717" lon="12.8221371"><ele>382.0</ele><time>2026-04-18T10:29:18.987Z</time></trkpt><trkpt lat="43.4616036" lon="12.822304"><ele>382.0</ele><time>2026-04-18T10:29:19.984Z</time></trkpt><trkpt lat="43.4616336" lon="12.8224648"><ele>382.0</ele><time>2026-04-18T10:29:20.986Z</time></trkpt><trkpt lat="43.4616654" lon="12.8226231"><ele>382.0</ele><time>2026-04-18T10:29:21.985Z</time></trkpt><trkpt lat="43.4616983" lon="12.8227782"><ele>382.0</ele><time>2026-04-18T10:29:22.984Z</time></trkpt><trkpt lat="43.4617325" lon="12.8229312"><ele>382.0</ele><time>2026-04-18T10:29:23.984Z</time></trkpt><trkpt lat="43.4617656" lon="12.8230885"><ele>380.75</ele><time>2026-04-18T10:29:24.986Z</time></trkpt><trkpt lat="43.4617987" lon="12.8232463"><ele>379.5</ele><time>2026-04-18T10:29:25.983Z</time></trkpt><trkpt lat="43.4618318" lon="12.8234057"><ele>378.25</ele><time>2026-04-18T10:29:26.992Z</time></trkpt><trkpt lat="43.4618656" lon="12.8235608"><ele>377.0</ele><time>2026-04-18T10:29:27.98Z</time></trkpt><trkpt lat="43.4619066" lon="12.8237167"><ele>376.0</ele><time>2026-04-18T10:29:28.986Z</time></trkpt><trkpt lat="43.4619575" lon="12.8238632"><ele>375.0</ele><time>2026-04-18T10:29:29.987Z</time></trkpt><trkpt lat="43.4620215" lon="12.8239941"><ele>374.0</ele><time>2026-04-18T10:29:30.99Z</time></trkpt><trkpt lat="43.4620967" lon="12.8241164"><ele>373.0</ele><time>2026-04-18T10:29:32.004Z</time></trkpt><trkpt lat="43.4621701" lon="12.824243"><ele>377.75</ele><time>2026-04-18T10:29:32.978Z</time></trkpt><trkpt lat="43.4622272" lon="12.8243828"><ele>382.5</ele><time>2026-04-18T10:29:33.992Z</time></trkpt><trkpt lat="43.4622533" lon="12.824535"><ele>387.25</ele><time>2026-04-18T10:29:34.975Z</time></trkpt><trkpt lat="43.4622727" lon="12.8246989"><ele>392.0</ele><time>2026-04-18T10:29:35.979Z</time></trkpt><trkpt lat="43.4622964" lon="12.8248558"><ele>392.0</ele><time>2026-04-18T10:29:36.993Z</time></trkpt><trkpt lat="43.4623191" lon="12.8250111"><ele>392.0</ele><time>2026-04-18T10:29:37.99Z</time></trkpt><trkpt lat="43.4623511" lon="12.8251701"><ele>392.0</ele><time>2026-04-18T10:29:38.989Z</time></trkpt><trkpt lat="43.4623788" lon="12.8253335"><ele>392.0</ele><time>2026-04-18T10:29:39.988Z</time></trkpt><trkpt lat="43.4624019" lon="12.8254972"><ele>392.0</ele><time>2026-04-18T10:29:40.988Z</time></trkpt><trkpt lat="43.4624188" lon="12.8256659"><ele>392.0</ele><time>2026-04-18T10:29:42Z</time></trkpt><trkpt lat="43.4624247" lon="12.8258415"><ele>392.0</ele><time>2026-04-18T10:29:42.978Z</time></trkpt><trkpt lat="43.4624329" lon="12.826007"><ele>392.0</ele><time>2026-04-18T10:29:43.977Z</time></trkpt><trkpt lat="43.4624454" lon="12.8261787"><ele>392.0</ele><time>2026-04-18T10:29:44.99Z</time></trkpt><trkpt lat="43.4624605" lon="12.826358"><ele>392.0</ele><time>2026-04-18T10:29:45.985Z</time></trkpt><trkpt lat="43.462464" lon="12.8265431"><ele>392.0</ele><time>2026-04-18T10:29:46.978Z</time></trkpt><trkpt lat="43.4624624" lon="12.8267289"><ele>392.0</ele><time>2026-04-18T10:29:47.984Z</time></trkpt><trkpt lat="43.4624608" lon="12.8269128"><ele>392.0</ele><time>2026-04-18T10:29:48.985Z</time></trkpt><trkpt lat="43.4624597" lon="12.8270967"><ele>392.0</ele><time>2026-04-18T10:29:49.985Z</time></trkpt><trkpt lat="43.4624676" lon="12.827282"><ele>392.0</ele><time>2026-04-18T10:29:50.984Z</time></trkpt><trkpt lat="43.4624945" lon="12.8274698"><ele>392.0</ele><time>2026-04-18T10:29:51.987Z</time></trkpt><trkpt lat="43.4625296" lon="12.827658"><ele>392.25</ele><time>2026-04-18T10:29:52.99Z</time></trkpt><trkpt lat="43.4625627" lon="12.8278423"><ele>392.5</ele><time>2026-04-18T10:29:53.983Z</time></trkpt><trkpt lat="43.4625979" lon="12.8280173"><ele>392.75</ele><time>2026-04-18T10:29:54.984Z</time></trkpt><trkpt lat="43.4626376" lon="12.828197"><ele>393.0</ele><time>2026-04-18T10:29:55.983Z</time></trkpt><trkpt lat="43.4626873" lon="12.8283793"><ele>394.25</ele><time>2026-04-18T10:29:56.991Z</time></trkpt><trkpt lat="43.46275" lon="12.828551"><ele>395.5</ele><time>2026-04-18T10:29:57.991Z</time></trkpt><trkpt lat="43.4628161" lon="12.8287042"><ele>396.75</ele><time>2026-04-18T10:29:58.975Z</time></trkpt><trkpt lat="43.4628862" lon="12.8288316"><ele>398.0</ele><time>2026-04-18T10:29:59.981Z</time></trkpt><trkpt lat="43.4629621" lon="12.8289318"><ele>398.59999999999997</ele><time>2026-04-18T10:30:00.987Z</time></trkpt><trkpt lat="43.4630376" lon="12.829005"><ele>399.2</ele><time>2026-04-18T10:30:01.984Z</time></trkpt><trkpt lat="43.4631173" lon="12.8290465"><ele>399.8</ele><time>2026-04-18T10:30:02.981Z</time></trkpt><trkpt lat="43.4632107" lon="12.8290627"><ele>400.4</ele><time>2026-04-18T10:30:04.001Z</time></trkpt><trkpt lat="43.4633107" lon="12.8290525"><ele>401.0</ele><time>2026-04-18T10:30:04.981Z</time></trkpt><trkpt lat="43.4634114" lon="12.8290433"><ele>401.0</ele><time>2026-04-18T10:30:05.988Z</time></trkpt><trkpt lat="43.4635282" lon="12.8290204"><ele>401.0</ele><time>2026-04-18T10:30:06.995Z</time></trkpt><trkpt lat="43.4636445" lon="12.8289833"><ele>401.0</ele><time>2026-04-18T10:30:07.992Z</time></trkpt><trkpt lat="43.4637583" lon="12.8289427"><ele>401.0</ele><time>2026-04-18T10:30:08.98Z</time></trkpt><trkpt lat="43.4638703" lon="12.8288991"><ele>401.8</ele><time>2026-04-18T10:30:09.983Z</time></trkpt><trkpt lat="43.4639809" lon="12.8288533"><ele>402.6</ele><time>2026-04-18T10:30:10.995Z</time></trkpt><trkpt lat="43.464086" lon="12.8288118"><ele>403.4</ele><time>2026-04-18T10:30:11.977Z</time></trkpt><trkpt lat="43.4641954" lon="12.8287791"><ele>404.2</ele><time>2026-04-18T10:30:12.986Z</time></trkpt><trkpt lat="43.4643052" lon="12.82876"><ele>405.0</ele><time>2026-04-18T10:30:13.986Z</time></trkpt><trkpt lat="43.4644241" lon="12.8287532"><ele>405.0</ele><time>2026-04-18T10:30:14.982Z</time></trkpt><trkpt lat="43.4645448" lon="12.8287524"><ele>405.0</ele><time>2026-04-18T10:30:15.989Z</time></trkpt><trkpt lat="43.4646679" lon="12.8287486"><ele>405.0</ele><time>2026-04-18T10:30:16.981Z</time></trkpt><trkpt lat="43.464795" lon="12.8287459"><ele>405.0</ele><time>2026-04-18T10:30:17.975Z</time></trkpt><trkpt lat="43.4649208" lon="12.8287413"><ele>406.25</ele><time>2026-04-18T10:30:18.981Z</time></trkpt><trkpt lat="43.4650424" lon="12.8287375"><ele>407.5</ele><time>2026-04-18T10:30:19.99Z</time></trkpt><trkpt lat="43.4651603" lon="12.8287341"><ele>408.75</ele><time>2026-04-18T10:30:20.982Z</time></trkpt><trkpt lat="43.4652783" lon="12.8287279"><ele>410.0</ele><time>2026-04-18T10:30:21.994Z</time></trkpt><trkpt lat="43.4653946" lon="12.8287218"><ele>411.0</ele><time>2026-04-18T10:30:22.985Z</time></trkpt><trkpt lat="43.4655105" lon="12.8287164"><ele>412.0</ele><time>2026-04-18T10:30:23.994Z</time></trkpt><trkpt lat="43.4656223" lon="12.8287107"><ele>413.0</ele><time>2026-04-18T10:30:24.982Z</time></trkpt><trkpt lat="43.46573" lon="12.8287082"><ele>414.0</ele><time>2026-04-18T10:30:25.986Z</time></trkpt><trkpt lat="43.4658416" lon="12.8287046"><ele>415.0</ele><time>2026-04-18T10:30:26.981Z</time></trkpt><trkpt lat="43.4659575" lon="12.828702"><ele>415.0</ele><time>2026-04-18T10:30:27.99Z</time></trkpt><trkpt lat="43.4660822" lon="12.8286989"><ele>415.0</ele><time>2026-04-18T10:30:28.992Z</time></trkpt><trkpt lat="43.4662044" lon="12.8286921"><ele>415.0</ele><time>2026-04-18T10:30:29.993Z</time></trkpt><trkpt lat="43.4663283" lon="12.8286741"><ele>415.0</ele><time>2026-04-18T10:30:30.979Z</time></trkpt><trkpt lat="43.4664369" lon="12.8286454"><ele>416.2</ele><time>2026-04-18T10:30:31.991Z</time></trkpt><trkpt lat="43.466531" lon="12.8286093"><ele>417.4</ele><time>2026-04-18T10:30:32.978Z</time></trkpt><trkpt lat="43.4666163" lon="12.8285498"><ele>418.6</ele><time>2026-04-18T10:30:33.991Z</time></trkpt><trkpt lat="43.466691" lon="12.8284632"><ele>419.8</ele><time>2026-04-18T10:30:34.984Z</time></trkpt><trkpt lat="43.4667658" lon="12.8283669"><ele>421.0</ele><time>2026-04-18T10:30:35.984Z</time></trkpt><trkpt lat="43.4668386" lon="12.8282699"><ele>423.0</ele><time>2026-04-18T10:30:36.981Z</time></trkpt><trkpt lat="43.466915" lon="12.8281725"><ele>425.0</ele><time>2026-04-18T10:30:37.982Z</time></trkpt><trkpt lat="43.4670165" lon="12.8281166"><ele>427.0</ele><time>2026-04-18T10:30:38.987Z</time></trkpt><trkpt lat="43.4671284" lon="12.8280898"><ele>429.0</ele><time>2026-04-18T10:30:39.98Z</time></trkpt><trkpt lat="43.4672382" lon="12.8280849"><ele>431.0</ele><time>2026-04-18T10:30:40.982Z</time></trkpt><trkpt lat="43.4673535" lon="12.8280965"><ele>431.6</ele><time>2026-04-18T10:30:41.999Z</time></trkpt><trkpt lat="43.4674646" lon="12.8281061"><ele>432.20000000000005</ele><time>2026-04-18T10:30:42.985Z</time></trkpt><trkpt lat="43.4675728" lon="12.8281167"><ele>432.79999999999995</ele><time>2026-04-18T10:30:43.983Z</time></trkpt><trkpt lat="43.4676841" lon="12.8281265"><ele>433.4</ele><time>2026-04-18T10:30:44.974Z</time></trkpt><trkpt lat="43.4677998" lon="12.828138"><ele>434.0</ele><time>2026-04-18T10:30:45.984Z</time></trkpt><trkpt lat="43.4679199" lon="12.8281537"><ele>436.0</ele><time>2026-04-18T10:30:46.988Z</time></trkpt><trkpt lat="43.4680443" lon="12.828169"><ele>438.0</ele><time>2026-04-18T10:30:47.984Z</time></trkpt><trkpt lat="43.4681779" lon="12.8281892"><ele>440.0</ele><time>2026-04-18T10:30:48.979Z</time></trkpt><trkpt lat="43.4683136" lon="12.8282101"><ele>442.0</ele><time>2026-04-18T10:30:49.981Z</time></trkpt><trkpt lat="43.4684483" lon="12.8282266"><ele>442.0</ele><time>2026-04-18T10:30:50.986Z</time></trkpt><trkpt lat="43.468583" lon="12.8282451"><ele>442.0</ele><time>2026-04-18T10:30:51.982Z</time></trkpt><trkpt lat="43.4687189" lon="12.8282679"><ele>442.0</ele><time>2026-04-18T10:30:52.984Z</time></trkpt><trkpt lat="43.4688486" lon="12.8283082"><ele>442.0</ele><time>2026-04-18T10:30:53.987Z</time></trkpt><trkpt lat="43.4689696" lon="12.8283627"><ele>441.0</ele><time>2026-04-18T10:30:54.979Z</time></trkpt><trkpt lat="43.4690818" lon="12.8284281"><ele>440.0</ele><time>2026-04-18T10:30:55.984Z</time></trkpt><trkpt lat="43.4691928" lon="12.8285026"><ele>439.0</ele><time>2026-04-18T10:30:56.974Z</time></trkpt><trkpt lat="43.4693058" lon="12.8285815"><ele>438.0</ele><time>2026-04-18T10:30:57.979Z</time></trkpt><trkpt lat="43.4694213" lon="12.8286664"><ele>438.0</ele><time>2026-04-18T10:30:58.982Z</time></trkpt><trkpt lat="43.4695399" lon="12.8287587"><ele>438.0</ele><time>2026-04-18T10:30:59.984Z</time></trkpt><trkpt lat="43.4696568" lon="12.8288552"><ele>438.0</ele><time>2026-04-18T10:31:00.988Z</time></trkpt><trkpt lat="43.4697746" lon="12.8289497"><ele>438.0</ele><time>2026-04-18T10:31:01.994Z</time></trkpt><trkpt lat="43.4698895" lon="12.8290506"><ele>437.5</ele><time>2026-04-18T10:31:02.979Z</time></trkpt><trkpt lat="43.470001" lon="12.8291449"><ele>437.0</ele><time>2026-04-18T10:31:03.99Z</time></trkpt><trkpt lat="43.4701113" lon="12.8292356"><ele>436.5</ele><time>2026-04-18T10:31:04.99Z</time></trkpt><trkpt lat="43.4702155" lon="12.8293308"><ele>436.0</ele><time>2026-04-18T10:31:05.982Z</time></trkpt><trkpt lat="43.4703175" lon="12.8294245"><ele>436.0</ele><time>2026-04-18T10:31:06.989Z</time></trkpt><trkpt lat="43.4704269" lon="12.8295087"><ele>436.0</ele><time>2026-04-18T10:31:07.982Z</time></trkpt><trkpt lat="43.4705331" lon="12.8295949"><ele>436.0</ele><time>2026-04-18T10:31:08.996Z</time></trkpt><trkpt lat="43.4706272" lon="12.8296752"><ele>436.0</ele><time>2026-04-18T10:31:09.987Z</time></trkpt><trkpt lat="43.4707177" lon="12.8297589"><ele>437.4</ele><time>2026-04-18T10:31:10.996Z</time></trkpt><trkpt lat="43.4708026" lon="12.8298495"><ele>438.8</ele><time>2026-04-18T10:31:11.986Z</time></trkpt><trkpt lat="43.4708914" lon="12.829941"><ele>440.19999999999993</ele><time>2026-04-18T10:31:12.995Z</time></trkpt><trkpt lat="43.4709757" lon="12.8300371"><ele>441.59999999999997</ele><time>2026-04-18T10:31:13.984Z</time></trkpt><trkpt lat="43.4710619" lon="12.8301312"><ele>443.0</ele><time>2026-04-18T10:31:14.982Z</time></trkpt><trkpt lat="43.4711526" lon="12.8302265"><ele>443.0</ele><time>2026-04-18T10:31:15.987Z</time></trkpt><trkpt lat="43.4712459" lon="12.8303212"><ele>443.0</ele><time>2026-04-18T10:31:16.983Z</time></trkpt><trkpt lat="43.4713434" lon="12.8304216"><ele>443.0</ele><time>2026-04-18T10:31:17.991Z</time></trkpt><trkpt lat="43.4714383" lon="12.8305148"><ele>443.0</ele><time>2026-04-18T10:31:18.989Z</time></trkpt><trkpt lat="43.4715196" lon="12.8305997"><ele>443.4</ele><time>2026-04-18T10:31:19.98Z</time></trkpt><trkpt lat="43.471589" lon="12.8306792"><ele>443.79999999999995</ele><time>2026-04-18T10:31:20.994Z</time></trkpt><trkpt lat="43.4716652" lon="12.8307625"><ele>444.2</ele><time>2026-04-18T10:31:21.985Z</time></trkpt><trkpt lat="43.4717392" lon="12.8308461"><ele>444.6</ele><time>2026-04-18T10:31:22.988Z</time></trkpt><trkpt lat="43.471812" lon="12.8309218"><ele>445.0</ele><time>2026-04-18T10:31:23.983Z</time></trkpt><trkpt lat="43.4718777" lon="12.8309897"><ele>445.0</ele><time>2026-04-18T10:31:24.998Z</time></trkpt><trkpt lat="43.4719293" lon="12.8310599"><ele>445.0</ele><time>2026-04-18T10:31:25.99Z</time></trkpt><trkpt lat="43.4719711" lon="12.83113"><ele>445.0</ele><time>2026-04-18T10:31:26.994Z</time></trkpt><trkpt lat="43.4720092" lon="12.831208"><ele>445.0</ele><time>2026-04-18T10:31:27.993Z</time></trkpt><trkpt lat="43.4720462" lon="12.8312786"><ele>445.0</ele><time>2026-04-18T10:31:28.98Z</time></trkpt><trkpt lat="43.4720304" lon="12.8311923"><ele>445.0</ele><time>2026-04-18T10:31:37.997Z</time></trkpt><trkpt lat="43.4720087" lon="12.8311106"><ele>445.0</ele><time>2026-04-18T10:31:39.984Z</time></trkpt><trkpt lat="43.4719328" lon="12.8310385"><ele>445.00000000000006</ele><time>2026-04-18T10:31:42.007Z</time></trkpt><trkpt lat="43.4718682" lon="12.8309808"><ele>445.0</ele><time>2026-04-18T10:31:43.995Z</time></trkpt><trkpt lat="43.4717789" lon="12.8308877"><ele>445.0</ele><time>2026-04-18T10:31:45.991Z</time></trkpt><trkpt lat="43.4717285" lon="12.8308233"><ele>445.0</ele><time>2026-04-18T10:31:46.979Z</time></trkpt><trkpt lat="43.471672" lon="12.8307567"><ele>445.00000000000006</ele><time>2026-04-18T10:31:47.984Z</time></trkpt><trkpt lat="43.4716086" lon="12.8306925"><ele>445.0</ele><time>2026-04-18T10:31:48.986Z</time></trkpt><trkpt lat="43.4715368" lon="12.8306195"><ele>444.6666666666667</ele><time>2026-04-18T10:31:49.985Z</time></trkpt><trkpt lat="43.4714629" lon="12.8305425"><ele>444.33333333333337</ele><time>2026-04-18T10:31:50.985Z</time></trkpt><trkpt lat="43.4713857" lon="12.8304692"><ele>444.0</ele><time>2026-04-18T10:31:51.99Z</time></trkpt><trkpt lat="43.4713144" lon="12.8303909"><ele>443.66666666666663</ele><time>2026-04-18T10:31:52.976Z</time></trkpt><trkpt lat="43.4712427" lon="12.8303224"><ele>443.3333333333333</ele><time>2026-04-18T10:31:53.986Z</time></trkpt><trkpt lat="43.4711788" lon="12.8302549"><ele>443.0</ele><time>2026-04-18T10:31:54.983Z</time></trkpt><trkpt lat="43.4711153" lon="12.8301904"><ele>443.2</ele><time>2026-04-18T10:31:55.988Z</time></trkpt><trkpt lat="43.471051" lon="12.8301227"><ele>443.4</ele><time>2026-04-18T10:31:56.979Z</time></trkpt><trkpt lat="43.4709852" lon="12.8300413"><ele>443.59999999999997</ele><time>2026-04-18T10:31:57.987Z</time></trkpt><trkpt lat="43.4709104" lon="12.8299623"><ele>443.79999999999995</ele><time>2026-04-18T10:31:58.98Z</time></trkpt><trkpt lat="43.4708376" lon="12.8298793"><ele>444.0</ele><time>2026-04-18T10:31:59.984Z</time></trkpt><trkpt lat="43.4707568" lon="12.8298021"><ele>444.0</ele><time>2026-04-18T10:32:00.987Z</time></trkpt><trkpt lat="43.470664" lon="12.8297223"><ele>444.0</ele><time>2026-04-18T10:32:01.982Z</time></trkpt><trkpt lat="43.4705644" lon="12.8296242"><ele>444.0</ele><time>2026-04-18T10:32:02.983Z</time></trkpt><trkpt lat="43.4704582" lon="12.8295277"><ele>444.0</ele><time>2026-04-18T10:32:03.985Z</time></trkpt><trkpt lat="43.4703416" lon="12.8294345"><ele>444.25</ele><time>2026-04-18T10:32:04.986Z</time></trkpt><trkpt lat="43.4702197" lon="12.8293342"><ele>444.5</ele><time>2026-04-18T10:32:05.99Z</time></trkpt><trkpt lat="43.4700932" lon="12.8292306"><ele>444.75</ele><time>2026-04-18T10:32:06.99Z</time></trkpt><trkpt lat="43.4699625" lon="12.8291209"><ele>445.0</ele><time>2026-04-18T10:32:07.986Z</time></trkpt><trkpt lat="43.4698326" lon="12.8290127"><ele>445.0</ele><time>2026-04-18T10:32:08.987Z</time></trkpt><trkpt lat="43.4697021" lon="12.8289076"><ele>445.0</ele><time>2026-04-18T10:32:09.993Z</time></trkpt><trkpt lat="43.4695709" lon="12.8288004"><ele>445.0</ele><time>2026-04-18T10:32:10.983Z</time></trkpt><trkpt lat="43.46944" lon="12.8286953"><ele>445.5</ele><time>2026-04-18T10:32:11.994Z</time></trkpt><trkpt lat="43.4693156" lon="12.8285967"><ele>446.0</ele><time>2026-04-18T10:32:12.975Z</time></trkpt><trkpt lat="43.469198" lon="12.8284991"><ele>446.5</ele><time>2026-04-18T10:32:13.987Z</time></trkpt><trkpt lat="43.4690793" lon="12.8284104"><ele>447.0</ele><time>2026-04-18T10:32:14.987Z</time></trkpt><trkpt lat="43.4689615" lon="12.8283371"><ele>447.0</ele><time>2026-04-18T10:32:15.98Z</time></trkpt><trkpt lat="43.4688375" lon="12.8282811"><ele>447.0</ele><time>2026-04-18T10:32:16.99Z</time></trkpt><trkpt lat="43.4687023" lon="12.8282393"><ele>447.0</ele><time>2026-04-18T10:32:17.983Z</time></trkpt><trkpt lat="43.4685651" lon="12.8282123"><ele>447.0</ele><time>2026-04-18T10:32:18.99Z</time></trkpt><trkpt lat="43.4684277" lon="12.8281932"><ele>445.75</ele><time>2026-04-18T10:32:19.992Z</time></trkpt><trkpt lat="43.468288" lon="12.8281742"><ele>444.5</ele><time>2026-04-18T10:32:20.981Z</time></trkpt><trkpt lat="43.4681447" lon="12.8281448"><ele>443.25</ele><time>2026-04-18T10:32:21.988Z</time></trkpt><trkpt lat="43.467994" lon="12.8281241"><ele>442.0</ele><time>2026-04-18T10:32:22.981Z</time></trkpt><trkpt lat="43.467838" lon="12.8281105"><ele>439.33333333333337</ele><time>2026-04-18T10:32:23.982Z</time></trkpt><trkpt lat="43.467683" lon="12.8280961"><ele>436.66666666666663</ele><time>2026-04-18T10:32:24.975Z</time></trkpt><trkpt lat="43.4675338" lon="12.8280811"><ele>434.0</ele><time>2026-04-18T10:32:25.988Z</time></trkpt><trkpt lat="43.4673879" lon="12.828068"><ele>434.0</ele><time>2026-04-18T10:32:26.975Z</time></trkpt><trkpt lat="43.4672472" lon="12.8280655"><ele>434.0</ele><time>2026-04-18T10:32:27.978Z</time></trkpt><trkpt lat="43.4671088" lon="12.8280882"><ele>434.0</ele><time>2026-04-18T10:32:28.995Z</time></trkpt><trkpt lat="43.4669806" lon="12.8281394"><ele>434.0</ele><time>2026-04-18T10:32:29.986Z</time></trkpt><trkpt lat="43.4668671" lon="12.8282151"><ele>433.25</ele><time>2026-04-18T10:32:30.992Z</time></trkpt><trkpt lat="43.4667639" lon="12.8283377"><ele>432.5</ele><time>2026-04-18T10:32:31.987Z</time></trkpt><trkpt lat="43.466665" lon="12.8284646"><ele>431.75</ele><time>2026-04-18T10:32:32.982Z</time></trkpt><trkpt lat="43.4665406" lon="12.8285584"><ele>431.0</ele><time>2026-04-18T10:32:33.98Z</time></trkpt><trkpt lat="43.4663823" lon="12.8286073"><ele>425.66666666666663</ele><time>2026-04-18T10:32:34.986Z</time></trkpt><trkpt lat="43.4662259" lon="12.8286296"><ele>420.33333333333337</ele><time>2026-04-18T10:32:35.986Z</time></trkpt><trkpt lat="43.4660644" lon="12.828645"><ele>415.0</ele><time>2026-04-18T10:32:36.985Z</time></trkpt><trkpt lat="43.4659004" lon="12.8286515"><ele>415.0</ele><time>2026-04-18T10:32:37.991Z</time></trkpt><trkpt lat="43.4657426" lon="12.8286631"><ele>415.0</ele><time>2026-04-18T10:32:38.983Z</time></trkpt><trkpt lat="43.4655791" lon="12.8286704"><ele>415.0</ele><time>2026-04-18T10:32:39.984Z</time></trkpt><trkpt lat="43.4654148" lon="12.8286891"><ele>413.33333333333337</ele><time>2026-04-18T10:32:40.979Z</time></trkpt><trkpt lat="43.4652536" lon="12.8286901"><ele>411.66666666666663</ele><time>2026-04-18T10:32:41.983Z</time></trkpt><trkpt lat="43.4650997" lon="12.8286933"><ele>410.0</ele><time>2026-04-18T10:32:42.987Z</time></trkpt><trkpt lat="43.4649464" lon="12.8287"><ele>410.0</ele><time>2026-04-18T10:32:43.988Z</time></trkpt><trkpt lat="43.4647979" lon="12.8287109"><ele>410.0</ele><time>2026-04-18T10:32:44.979Z</time></trkpt><trkpt lat="43.4646491" lon="12.8287103"><ele>410.0</ele><time>2026-04-18T10:32:45.982Z</time></trkpt><trkpt lat="43.4645025" lon="12.8287126"><ele>410.0</ele><time>2026-04-18T10:32:46.983Z</time></trkpt><trkpt lat="43.4643607" lon="12.8287254"><ele>408.75</ele><time>2026-04-18T10:32:47.985Z</time></trkpt><trkpt lat="43.4642187" lon="12.8287552"><ele>407.5</ele><time>2026-04-18T10:32:48.986Z</time></trkpt><trkpt lat="43.464086" lon="12.8288079"><ele>406.25</ele><time>2026-04-18T10:32:49.985Z</time></trkpt><trkpt lat="43.4639601" lon="12.8288605"><ele>405.0</ele><time>2026-04-18T10:32:50.982Z</time></trkpt><trkpt lat="43.4638387" lon="12.8289071"><ele>404.2</ele><time>2026-04-18T10:32:51.981Z</time></trkpt><trkpt lat="43.4637181" lon="12.828953"><ele>403.4</ele><time>2026-04-18T10:32:52.982Z</time></trkpt><trkpt lat="43.463604" lon="12.8289931"><ele>402.6</ele><time>2026-04-18T10:32:53.981Z</time></trkpt><trkpt lat="43.4634958" lon="12.8290195"><ele>401.8</ele><time>2026-04-18T10:32:54.982Z</time></trkpt><trkpt lat="43.463402" lon="12.8290346"><ele>401.0</ele><time>2026-04-18T10:32:55.983Z</time></trkpt><trkpt lat="43.463321" lon="12.8290486"><ele>401.0</ele><time>2026-04-18T10:32:56.98Z</time></trkpt><trkpt lat="43.4632561" lon="12.8290555"><ele>401.0</ele><time>2026-04-18T10:32:57.978Z</time></trkpt><trkpt lat="43.4631788" lon="12.82906"><ele>401.0</ele><time>2026-04-18T10:32:59.987Z</time></trkpt><trkpt lat="43.463219" lon="12.8291951"><ele>401.0</ele><time>2026-04-18T10:33:09.992Z</time></trkpt><trkpt lat="43.4633311" lon="12.8292891"><ele>401.0</ele><time>2026-04-18T10:33:11.986Z</time></trkpt><trkpt lat="43.4633905" lon="12.8293432"><ele>399.99999999999994</ele><time>2026-04-18T10:33:12.98Z</time></trkpt><trkpt lat="43.4634476" lon="12.8294166"><ele>399.0</ele><time>2026-04-18T10:33:13.984Z</time></trkpt><trkpt lat="43.4635063" lon="12.829492"><ele>398.0</ele><time>2026-04-18T10:33:15Z</time></trkpt><trkpt lat="43.4635767" lon="12.8295568"><ele>397.0</ele><time>2026-04-18T10:33:15.978Z</time></trkpt><trkpt lat="43.4636476" lon="12.8296226"><ele>395.99999999999994</ele><time>2026-04-18T10:33:16.975Z</time></trkpt><trkpt lat="43.4637062" lon="12.8296873"><ele>395.0</ele><time>2026-04-18T10:33:17.984Z</time></trkpt><trkpt lat="43.463763" lon="12.8297513"><ele>395.16666666666663</ele><time>2026-04-18T10:33:18.976Z</time></trkpt><trkpt lat="43.4638256" lon="12.8298165"><ele>395.3333333333333</ele><time>2026-04-18T10:33:19.992Z</time></trkpt><trkpt lat="43.4638952" lon="12.8298853"><ele>395.5</ele><time>2026-04-18T10:33:20.991Z</time></trkpt><trkpt lat="43.4639689" lon="12.8299403"><ele>395.66666666666663</ele><time>2026-04-18T10:33:21.991Z</time></trkpt><trkpt lat="43.4640456" lon="12.8299893"><ele>395.8333333333333</ele><time>2026-04-18T10:33:22.987Z</time></trkpt><trkpt lat="43.4641291" lon="12.8300431"><ele>396.0</ele><time>2026-04-18T10:33:24.003Z</time></trkpt><trkpt lat="43.4642046" lon="12.8301021"><ele>394.6</ele><time>2026-04-18T10:33:24.993Z</time></trkpt><trkpt lat="43.4642858" lon="12.8301669"><ele>393.20000000000005</ele><time>2026-04-18T10:33:25.998Z</time></trkpt><trkpt lat="43.4643677" lon="12.8302504"><ele>391.79999999999995</ele><time>2026-04-18T10:33:26.991Z</time></trkpt><trkpt lat="43.4644612" lon="12.8303467"><ele>390.4</ele><time>2026-04-18T10:33:28.002Z</time></trkpt><trkpt lat="43.4645485" lon="12.830443"><ele>389.0</ele><time>2026-04-18T10:33:28.985Z</time></trkpt><trkpt lat="43.4646392" lon="12.8305387"><ele>389.0</ele><time>2026-04-18T10:33:29.981Z</time></trkpt><trkpt lat="43.4647312" lon="12.8306337"><ele>389.0</ele><time>2026-04-18T10:33:30.976Z</time></trkpt><trkpt lat="43.4648342" lon="12.8307182"><ele>389.0</ele><time>2026-04-18T10:33:31.978Z</time></trkpt><trkpt lat="43.4649453" lon="12.8307961"><ele>389.0</ele><time>2026-04-18T10:33:32.978Z</time></trkpt><trkpt lat="43.4650567" lon="12.8308777"><ele>389.0</ele><time>2026-04-18T10:33:33.994Z</time></trkpt><trkpt lat="43.4651659" lon="12.8309659"><ele>389.0</ele><time>2026-04-18T10:33:34.978Z</time></trkpt><trkpt lat="43.4652782" lon="12.8310501"><ele>389.0</ele><time>2026-04-18T10:33:35.983Z</time></trkpt><trkpt lat="43.4653926" lon="12.8311314"><ele>389.0</ele><time>2026-04-18T10:33:36.986Z</time></trkpt><trkpt lat="43.4655063" lon="12.8312208"><ele>388.5</ele><time>2026-04-18T10:33:37.998Z</time></trkpt><trkpt lat="43.4656221" lon="12.8312999"><ele>388.0</ele><time>2026-04-18T10:33:39Z</time></trkpt><trkpt lat="43.465732" lon="12.8313766"><ele>387.5</ele><time>2026-04-18T10:33:39.985Z</time></trkpt><trkpt lat="43.4658298" lon="12.8314532"><ele>387.0</ele><time>2026-04-18T10:33:40.976Z</time></trkpt><trkpt lat="43.4659248" lon="12.8315304"><ele>387.0</ele><time>2026-04-18T10:33:41.981Z</time></trkpt><trkpt lat="43.4660228" lon="12.8316086"><ele>387.0</ele><time>2026-04-18T10:33:42.992Z</time></trkpt><trkpt lat="43.4661242" lon="12.8316843"><ele>387.0</ele><time>2026-04-18T10:33:43.986Z</time></trkpt><trkpt lat="43.4662379" lon="12.8317489"><ele>387.0</ele><time>2026-04-18T10:33:44.98Z</time></trkpt><trkpt lat="43.4663574" lon="12.8317955"><ele>386.75</ele><time>2026-04-18T10:33:45.985Z</time></trkpt><trkpt lat="43.4664881" lon="12.8318322"><ele>386.5</ele><time>2026-04-18T10:33:46.982Z</time></trkpt><trkpt lat="43.466621" lon="12.8318734"><ele>386.25</ele><time>2026-04-18T10:33:47.983Z</time></trkpt><trkpt lat="43.4667361" lon="12.8319358"><ele>386.0</ele><time>2026-04-18T10:33:48.993Z</time></trkpt><trkpt lat="43.4668391" lon="12.8320121"><ele>386.0</ele><time>2026-04-18T10:33:49.995Z</time></trkpt><trkpt lat="43.4669323" lon="12.8320891"><ele>386.0</ele><time>2026-04-18T10:33:50.978Z</time></trkpt><trkpt lat="43.4670347" lon="12.8321585"><ele>386.0</ele><time>2026-04-18T10:33:51.989Z</time></trkpt><trkpt lat="43.4671489" lon="12.8322172"><ele>386.0</ele><time>2026-04-18T10:33:52.988Z</time></trkpt><trkpt lat="43.4672665" lon="12.8322679"><ele>388.25</ele><time>2026-04-18T10:33:53.981Z</time></trkpt><trkpt lat="43.4673797" lon="12.8323213"><ele>390.5</ele><time>2026-04-18T10:33:54.986Z</time></trkpt><trkpt lat="43.4675008" lon="12.832381"><ele>392.75</ele><time>2026-04-18T10:33:55.995Z</time></trkpt><trkpt lat="43.4676213" lon="12.832439"><ele>395.0</ele><time>2026-04-18T10:33:56.988Z</time></trkpt><trkpt lat="43.4677346" lon="12.8324918"><ele>395.0</ele><time>2026-04-18T10:33:57.984Z</time></trkpt><trkpt lat="43.4678466" lon="12.8325467"><ele>395.0</ele><time>2026-04-18T10:33:58.988Z</time></trkpt><trkpt lat="43.4679484" lon="12.8326074"><ele>395.0</ele><time>2026-04-18T10:33:59.999Z</time></trkpt><trkpt lat="43.4680375" lon="12.8326626"><ele>395.0</ele><time>2026-04-18T10:34:00.976Z</time></trkpt><trkpt lat="43.4681346" lon="12.8326995"><ele>395.0</ele><time>2026-04-18T10:34:01.985Z</time></trkpt><trkpt lat="43.4682469" lon="12.8327291"><ele>394.75</ele><time>2026-04-18T10:34:02.983Z</time></trkpt><trkpt lat="43.4683627" lon="12.8327581"><ele>394.5</ele><time>2026-04-18T10:34:03.992Z</time></trkpt><trkpt lat="43.4684703" lon="12.8328049"><ele>394.25</ele><time>2026-04-18T10:34:04.991Z</time></trkpt><trkpt lat="43.4685729" lon="12.832858"><ele>394.0</ele><time>2026-04-18T10:34:05.989Z</time></trkpt><trkpt lat="43.4686723" lon="12.8329466"><ele>394.0</ele><time>2026-04-18T10:34:06.994Z</time></trkpt><trkpt lat="43.4687664" lon="12.8330528"><ele>394.0</ele><time>2026-04-18T10:34:07.991Z</time></trkpt><trkpt lat="43.4688605" lon="12.8331702"><ele>394.0</ele><time>2026-04-18T10:34:08.988Z</time></trkpt><trkpt lat="43.4689523" lon="12.8332961"><ele>394.0</ele><time>2026-04-18T10:34:09.984Z</time></trkpt><trkpt lat="43.4690518" lon="12.8334064"><ele>394.5</ele><time>2026-04-18T10:34:10.987Z</time></trkpt><trkpt lat="43.4691491" lon="12.8334977"><ele>395.0</ele><time>2026-04-18T10:34:11.986Z</time></trkpt><trkpt lat="43.4692466" lon="12.8335826"><ele>395.5</ele><time>2026-04-18T10:34:12.993Z</time></trkpt><trkpt lat="43.4693498" lon="12.8336748"><ele>396.0</ele><time>2026-04-18T10:34:13.98Z</time></trkpt><trkpt lat="43.4694592" lon="12.8337717"><ele>396.0</ele><time>2026-04-18T10:34:14.99Z</time></trkpt><trkpt lat="43.469568" lon="12.8338712"><ele>396.0</ele><time>2026-04-18T10:34:15.982Z</time></trkpt><trkpt lat="43.4696734" lon="12.8339839"><ele>396.0</ele><time>2026-04-18T10:34:16.98Z</time></trkpt><trkpt lat="43.4697701" lon="12.8341027"><ele>396.0</ele><time>2026-04-18T10:34:17.985Z</time></trkpt><trkpt lat="43.4698601" lon="12.8342199"><ele>397.25</ele><time>2026-04-18T10:34:18.985Z</time></trkpt><trkpt lat="43.4699462" lon="12.8343219"><ele>398.5</ele><time>2026-04-18T10:34:19.996Z</time></trkpt><trkpt lat="43.4700358" lon="12.8344177"><ele>399.75</ele><time>2026-04-18T10:34:20.979Z</time></trkpt><trkpt lat="43.4701279" lon="12.8345114"><ele>401.0</ele><time>2026-04-18T10:34:21.986Z</time></trkpt><trkpt lat="43.4702207" lon="12.8346006"><ele>401.0</ele><time>2026-04-18T10:34:22.985Z</time></trkpt><trkpt lat="43.4703071" lon="12.8346833"><ele>401.0</ele><time>2026-04-18T10:34:23.989Z</time></trkpt><trkpt lat="43.4703862" lon="12.8347549"><ele>401.0</ele><time>2026-04-18T10:34:24.989Z</time></trkpt><trkpt lat="43.4704445" lon="12.8347969"><ele>401.0</ele><time>2026-04-18T10:34:25.991Z</time></trkpt><trkpt lat="43.4705258" lon="12.8348881"><ele>401.0</ele><time>2026-04-18T10:34:27.99Z</time></trkpt><trkpt lat="43.4705017" lon="12.8350179"><ele>400.4</ele><time>2026-04-18T10:34:29.982Z</time></trkpt><trkpt lat="43.4704626" lon="12.8350984"><ele>399.8</ele><time>2026-04-18T10:34:30.99Z</time></trkpt><trkpt lat="43.4704037" lon="12.8351795"><ele>399.2</ele><time>2026-04-18T10:34:31.975Z</time></trkpt><trkpt lat="43.4703387" lon="12.8352751"><ele>398.59999999999997</ele><time>2026-04-18T10:34:32.988Z</time></trkpt><trkpt lat="43.4702615" lon="12.8353689"><ele>398.0</ele><time>2026-04-18T10:34:34.01Z</time></trkpt><trkpt lat="43.4701828" lon="12.8354748"><ele>398.0</ele><time>2026-04-18T10:34:34.98Z</time></trkpt><trkpt lat="43.4700911" lon="12.8355708"><ele>398.0</ele><time>2026-04-18T10:34:35.992Z</time></trkpt><trkpt lat="43.4699938" lon="12.8356749"><ele>398.0</ele><time>2026-04-18T10:34:36.984Z</time></trkpt><trkpt lat="43.469895" lon="12.8357792"><ele>398.0</ele><time>2026-04-18T10:34:37.989Z</time></trkpt><trkpt lat="43.4697931" lon="12.8358822"><ele>397.75</ele><time>2026-04-18T10:34:38.988Z</time></trkpt><trkpt lat="43.4696992" lon="12.8359836"><ele>397.5</ele><time>2026-04-18T10:34:39.984Z</time></trkpt><trkpt lat="43.4696108" lon="12.8360786"><ele>397.25</ele><time>2026-04-18T10:34:41.001Z</time></trkpt><trkpt lat="43.4695198" lon="12.8361762"><ele>397.0</ele><time>2026-04-18T10:34:42.006Z</time></trkpt><trkpt lat="43.4694333" lon="12.8362696"><ele>396.6</ele><time>2026-04-18T10:34:42.984Z</time></trkpt><trkpt lat="43.4693495" lon="12.8363546"><ele>396.20000000000005</ele><time>2026-04-18T10:34:43.984Z</time></trkpt><trkpt lat="43.4692604" lon="12.8364274"><ele>395.8</ele><time>2026-04-18T10:34:44.982Z</time></trkpt><trkpt lat="43.4691699" lon="12.8364977"><ele>395.4</ele><time>2026-04-18T10:34:45.995Z</time></trkpt><trkpt lat="43.4690715" lon="12.8365668"><ele>395.0</ele><time>2026-04-18T10:34:46.993Z</time></trkpt><trkpt lat="43.4689734" lon="12.8366434"><ele>395.0</ele><time>2026-04-18T10:34:47.983Z</time></trkpt><trkpt lat="43.4688671" lon="12.8367187"><ele>395.0</ele><time>2026-04-18T10:34:48.99Z</time></trkpt><trkpt lat="43.4687597" lon="12.8367877"><ele>395.0</ele><time>2026-04-18T10:34:50.003Z</time></trkpt><trkpt lat="43.4686669" lon="12.8368465"><ele>395.0</ele><time>2026-04-18T10:34:50.984Z</time></trkpt><trkpt lat="43.4685748" lon="12.8368922"><ele>395.0</ele><time>2026-04-18T10:34:52.005Z</time></trkpt><trkpt lat="43.4684909" lon="12.8369361"><ele>394.0</ele><time>2026-04-18T10:34:52.982Z</time></trkpt><trkpt lat="43.4684113" lon="12.8369745"><ele>393.0</ele><time>2026-04-18T10:34:53.987Z</time></trkpt><trkpt lat="43.468333" lon="12.8369991"><ele>392.0</ele><time>2026-04-18T10:34:55.006Z</time></trkpt><trkpt lat="43.4682469" lon="12.8370173"><ele>391.0</ele><time>2026-04-18T10:34:55.981Z</time></trkpt><trkpt lat="43.4681483" lon="12.8370297"><ele>390.0</ele><time>2026-04-18T10:34:56.975Z</time></trkpt><trkpt lat="43.4680362" lon="12.8370375"><ele>389.75</ele><time>2026-04-18T10:34:57.983Z</time></trkpt><trkpt lat="43.4679234" lon="12.8370428"><ele>389.5</ele><time>2026-04-18T10:34:58.979Z</time></trkpt><trkpt lat="43.4678008" lon="12.8370477"><ele>389.25</ele><time>2026-04-18T10:34:59.98Z</time></trkpt><trkpt lat="43.4676798" lon="12.8370576"><ele>389.0</ele><time>2026-04-18T10:35:00.984Z</time></trkpt><trkpt lat="43.4675699" lon="12.837087"><ele>389.0</ele><time>2026-04-18T10:35:01.992Z</time></trkpt><trkpt lat="43.4674741" lon="12.8371471"><ele>389.0</ele><time>2026-04-18T10:35:02.988Z</time></trkpt><trkpt lat="43.4673712" lon="12.837232"><ele>389.0</ele><time>2026-04-18T10:35:03.985Z</time></trkpt><trkpt lat="43.4672719" lon="12.8373312"><ele>389.0</ele><time>2026-04-18T10:35:04.977Z</time></trkpt><trkpt lat="43.4671641" lon="12.8374266"><ele>388.0</ele><time>2026-04-18T10:35:05.993Z</time></trkpt><trkpt lat="43.4670528" lon="12.837508"><ele>387.0</ele><time>2026-04-18T10:35:06.992Z</time></trkpt><trkpt lat="43.4669427" lon="12.8375869"><ele>386.0</ele><time>2026-04-18T10:35:07.99Z</time></trkpt><trkpt lat="43.4668423" lon="12.8376681"><ele>385.0</ele><time>2026-04-18T10:35:08.978Z</time></trkpt><trkpt lat="43.4667453" lon="12.8377501"><ele>384.0</ele><time>2026-04-18T10:35:09.987Z</time></trkpt><trkpt lat="43.4666508" lon="12.8378413"><ele>383.0</ele><time>2026-04-18T10:35:10.983Z</time></trkpt><trkpt lat="43.4665605" lon="12.8379377"><ele>382.0</ele><time>2026-04-18T10:35:11.987Z</time></trkpt><trkpt lat="43.4664734" lon="12.8380561"><ele>381.0</ele><time>2026-04-18T10:35:12.982Z</time></trkpt><trkpt lat="43.4663875" lon="12.838183"><ele>381.0</ele><time>2026-04-18T10:35:13.983Z</time></trkpt><trkpt lat="43.4663074" lon="12.8383101"><ele>381.0</ele><time>2026-04-18T10:35:14.985Z</time></trkpt><trkpt lat="43.4662312" lon="12.8384389"><ele>381.0</ele><time>2026-04-18T10:35:15.978Z</time></trkpt><trkpt lat="43.4661514" lon="12.8385722"><ele>381.0</ele><time>2026-04-18T10:35:16.993Z</time></trkpt><trkpt lat="43.4660721" lon="12.8386889"><ele>379.25</ele><time>2026-04-18T10:35:17.982Z</time></trkpt><trkpt lat="43.4659897" lon="12.8388001"><ele>377.5</ele><time>2026-04-18T10:35:18.985Z</time></trkpt><trkpt lat="43.4659101" lon="12.8389068"><ele>375.75</ele><time>2026-04-18T10:35:19.988Z</time></trkpt><trkpt lat="43.4658387" lon="12.8390226"><ele>374.0</ele><time>2026-04-18T10:35:20.989Z</time></trkpt><trkpt lat="43.4657718" lon="12.8391591"><ele>373.0</ele><time>2026-04-18T10:35:21.987Z</time></trkpt><trkpt lat="43.4657054" lon="12.8393168"><ele>372.0</ele><time>2026-04-18T10:35:22.985Z</time></trkpt><trkpt lat="43.4656449" lon="12.8394841"><ele>371.0</ele><time>2026-04-18T10:35:23.987Z</time></trkpt><trkpt lat="43.4655816" lon="12.8396507"><ele>370.0</ele><time>2026-04-18T10:35:24.976Z</time></trkpt><trkpt lat="43.465515" lon="12.839819"><ele>370.0</ele><time>2026-04-18T10:35:25.987Z</time></trkpt><trkpt lat="43.4654476" lon="12.8399863"><ele>370.0</ele><time>2026-04-18T10:35:26.974Z</time></trkpt><trkpt lat="43.4653824" lon="12.8401536"><ele>370.0</ele><time>2026-04-18T10:35:27.985Z</time></trkpt><trkpt lat="43.4653237" lon="12.8403146"><ele>370.0</ele><time>2026-04-18T10:35:28.986Z</time></trkpt><trkpt lat="43.4652736" lon="12.8404565"><ele>370.0</ele><time>2026-04-18T10:35:29.99Z</time></trkpt><trkpt lat="43.4652237" lon="12.8405896"><ele>370.0</ele><time>2026-04-18T10:35:30.984Z</time></trkpt><trkpt lat="43.4651778" lon="12.8407212"><ele>370.0</ele><time>2026-04-18T10:35:31.985Z</time></trkpt><trkpt lat="43.4651286" lon="12.8408503"><ele>370.0</ele><time>2026-04-18T10:35:32.986Z</time></trkpt><trkpt lat="43.4650817" lon="12.84098"><ele>370.0</ele><time>2026-04-18T10:35:33.988Z</time></trkpt><trkpt lat="43.4650408" lon="12.8410992"><ele>370.0</ele><time>2026-04-18T10:35:34.985Z</time></trkpt><trkpt lat="43.4650049" lon="12.8411965"><ele>370.0</ele><time>2026-04-18T10:35:35.976Z</time></trkpt><trkpt lat="43.4649732" lon="12.8412719"><ele>370.0</ele><time>2026-04-18T10:35:36.979Z</time></trkpt><trkpt lat="43.4649154" lon="12.8413515"><ele>370.0</ele><time>2026-04-18T10:35:38.989Z</time></trkpt><trkpt lat="43.4648876" lon="12.841472"><ele>370.0</ele><time>2026-04-18T10:35:42.992Z</time></trkpt><trkpt lat="43.4648725" lon="12.8416043"><ele>370.0</ele><time>2026-04-18T10:35:44.985Z</time></trkpt><trkpt lat="43.4648051" lon="12.8417423"><ele>368.0</ele><time>2026-04-18T10:35:46.986Z</time></trkpt><trkpt lat="43.4647629" lon="12.8418067"><ele>366.0</ele><time>2026-04-18T10:35:47.987Z</time></trkpt><trkpt lat="43.4647092" lon="12.8418751"><ele>364.0</ele><time>2026-04-18T10:35:48.989Z</time></trkpt><trkpt lat="43.4646016" lon="12.841932"><ele>362.0</ele><time>2026-04-18T10:35:50.983Z</time></trkpt><trkpt lat="43.4644783" lon="12.8419589"><ele>360.0</ele><time>2026-04-18T10:35:52.986Z</time></trkpt><trkpt lat="43.4643957" lon="12.8419854"><ele>359.6</ele><time>2026-04-18T10:35:53.991Z</time></trkpt><trkpt lat="43.4643115" lon="12.8420085"><ele>359.2</ele><time>2026-04-18T10:35:54.986Z</time></trkpt><trkpt lat="43.4642271" lon="12.8420251"><ele>358.79999999999995</ele><time>2026-04-18T10:35:55.992Z</time></trkpt><trkpt lat="43.4641439" lon="12.842049"><ele>358.4</ele><time>2026-04-18T10:35:56.99Z</time></trkpt><trkpt lat="43.4640491" lon="12.842078"><ele>358.0</ele><time>2026-04-18T10:35:57.982Z</time></trkpt><trkpt lat="43.4639494" lon="12.842108"><ele>358.0</ele><time>2026-04-18T10:35:58.989Z</time></trkpt><trkpt lat="43.4638456" lon="12.842137"><ele>358.0</ele><time>2026-04-18T10:35:59.991Z</time></trkpt><trkpt lat="43.4637354" lon="12.8421672"><ele>358.0</ele><time>2026-04-18T10:36:00.973Z</time></trkpt><trkpt lat="43.4636225" lon="12.8421921"><ele>358.0</ele><time>2026-04-18T10:36:01.977Z</time></trkpt><trkpt lat="43.463516" lon="12.8422152"><ele>358.0</ele><time>2026-04-18T10:36:02.99Z</time></trkpt><trkpt lat="43.4634099" lon="12.8422327"><ele>358.2</ele><time>2026-04-18T10:36:03.975Z</time></trkpt><trkpt lat="43.4633115" lon="12.8422593"><ele>358.4</ele><time>2026-04-18T10:36:04.977Z</time></trkpt><trkpt lat="43.4632168" lon="12.8422901"><ele>358.59999999999997</ele><time>2026-04-18T10:36:05.998Z</time></trkpt><trkpt lat="43.4631151" lon="12.8423323"><ele>358.79999999999995</ele><time>2026-04-18T10:36:06.979Z</time></trkpt><trkpt lat="43.4630161" lon="12.842378"><ele>359.0</ele><time>2026-04-18T10:36:07.981Z</time></trkpt><trkpt lat="43.4629207" lon="12.8424383"><ele>359.0</ele><time>2026-04-18T10:36:08.992Z</time></trkpt><trkpt lat="43.4628414" lon="12.8425154"><ele>359.0</ele><time>2026-04-18T10:36:09.992Z</time></trkpt><trkpt lat="43.4627553" lon="12.8426012"><ele>359.0</ele><time>2026-04-18T10:36:10.983Z</time></trkpt><trkpt lat="43.4626536" lon="12.8426747"><ele>359.0</ele><time>2026-04-18T10:36:11.987Z</time></trkpt><trkpt lat="43.4625468" lon="12.8427354"><ele>359.0</ele><time>2026-04-18T10:36:12.979Z</time></trkpt><trkpt lat="43.4624388" lon="12.8427942"><ele>358.25</ele><time>2026-04-18T10:36:13.986Z</time></trkpt><trkpt lat="43.4623296" lon="12.8428426"><ele>357.5</ele><time>2026-04-18T10:36:14.968Z</time></trkpt><trkpt lat="43.4622141" lon="12.8428981"><ele>356.75</ele><time>2026-04-18T10:36:15.985Z</time></trkpt><trkpt lat="43.4621003" lon="12.8429509"><ele>356.0</ele><time>2026-04-18T10:36:16.977Z</time></trkpt><trkpt lat="43.4619787" lon="12.84301"><ele>356.0</ele><time>2026-04-18T10:36:17.986Z</time></trkpt><trkpt lat="43.4618555" lon="12.8430682"><ele>356.0</ele><time>2026-04-18T10:36:18.975Z</time></trkpt><trkpt lat="43.4617293" lon="12.8431295"><ele>356.0</ele><time>2026-04-18T10:36:19.975Z</time></trkpt><trkpt lat="43.4616043" lon="12.8431879"><ele>356.0</ele><time>2026-04-18T10:36:20.98Z</time></trkpt><trkpt lat="43.4614822" lon="12.8432398"><ele>356.0</ele><time>2026-04-18T10:36:21.986Z</time></trkpt><trkpt lat="43.4613653" lon="12.8433012"><ele>356.0</ele><time>2026-04-18T10:36:22.978Z</time></trkpt><trkpt lat="43.4612531" lon="12.8433588"><ele>356.0</ele><time>2026-04-18T10:36:23.991Z</time></trkpt><trkpt lat="43.4611428" lon="12.8434147"><ele>356.0</ele><time>2026-04-18T10:36:24.97Z</time></trkpt><trkpt lat="43.4610294" lon="12.8434767"><ele>354.20000000000005</ele><time>2026-04-18T10:36:25.974Z</time></trkpt><trkpt lat="43.4609207" lon="12.8435343"><ele>352.40000000000003</ele><time>2026-04-18T10:36:26.971Z</time></trkpt><trkpt lat="43.4608177" lon="12.8435801"><ele>350.6</ele><time>2026-04-18T10:36:27.987Z</time></trkpt><trkpt lat="43.4607291" lon="12.8436356"><ele>348.8</ele><time>2026-04-18T10:36:28.978Z</time></trkpt><trkpt lat="43.4606265" lon="12.843673"><ele>347.0</ele><time>2026-04-18T10:36:29.983Z</time></trkpt><trkpt lat="43.4605349" lon="12.8437127"><ele>347.0</ele><time>2026-04-18T10:36:30.98Z</time></trkpt><trkpt lat="43.4604526" lon="12.8437375"><ele>347.0</ele><time>2026-04-18T10:36:31.986Z</time></trkpt><trkpt lat="43.460367" lon="12.8437701"><ele>347.0</ele><time>2026-04-18T10:36:32.974Z</time></trkpt><trkpt lat="43.4602796" lon="12.8438091"><ele>347.0</ele><time>2026-04-18T10:36:33.985Z</time></trkpt><trkpt lat="43.4602007" lon="12.8438522"><ele>347.0</ele><time>2026-04-18T10:36:34.977Z</time></trkpt><trkpt lat="43.460126" lon="12.8438937"><ele>347.0</ele><time>2026-04-18T10:36:35.981Z</time></trkpt><trkpt lat="43.4600528" lon="12.8439391"><ele>347.6</ele><time>2026-04-18T10:36:36.974Z</time></trkpt><trkpt lat="43.4599751" lon="12.8439919"><ele>348.20000000000005</ele><time>2026-04-18T10:36:37.996Z</time></trkpt><trkpt lat="43.4598908" lon="12.8440508"><ele>348.8</ele><time>2026-04-18T10:36:38.98Z</time></trkpt><trkpt lat="43.4598061" lon="12.8441013"><ele>349.4</ele><time>2026-04-18T10:36:39.981Z</time></trkpt><trkpt lat="43.4597156" lon="12.8441424"><ele>350.0</ele><time>2026-04-18T10:36:40.985Z</time></trkpt><trkpt lat="43.459619" lon="12.8441802"><ele>348.6666666666667</ele><time>2026-04-18T10:36:41.996Z</time></trkpt><trkpt lat="43.4595303" lon="12.844219"><ele>347.33333333333337</ele><time>2026-04-18T10:36:42.99Z</time></trkpt><trkpt lat="43.4594453" lon="12.844276"><ele>346.0</ele><time>2026-04-18T10:36:43.989Z</time></trkpt><trkpt lat="43.4593695" lon="12.8443426"><ele>344.6666666666667</ele><time>2026-04-18T10:36:44.99Z</time></trkpt><trkpt lat="43.4593036" lon="12.844413"><ele>343.3333333333333</ele><time>2026-04-18T10:36:45.983Z</time></trkpt><trkpt lat="43.4592379" lon="12.8444813"><ele>342.0</ele><time>2026-04-18T10:36:46.995Z</time></trkpt><trkpt lat="43.45917" lon="12.8445475"><ele>342.0</ele><time>2026-04-18T10:36:47.977Z</time></trkpt><trkpt lat="43.4591062" lon="12.8446023"><ele>342.0</ele><time>2026-04-18T10:36:48.983Z</time></trkpt><trkpt lat="43.4590479" lon="12.8446682"><ele>342.0</ele><time>2026-04-18T10:36:49.992Z</time></trkpt><trkpt lat="43.4589891" lon="12.8447273"><ele>342.0</ele><time>2026-04-18T10:36:50.98Z</time></trkpt><trkpt lat="43.458919" lon="12.8447992"><ele>342.0</ele><time>2026-04-18T10:36:51.999Z</time></trkpt><trkpt lat="43.4588578" lon="12.8448776"><ele>342.0</ele><time>2026-04-18T10:36:52.983Z</time></trkpt><trkpt lat="43.4587969" lon="12.844958"><ele>341.40000000000003</ele><time>2026-04-18T10:36:53.986Z</time></trkpt><trkpt lat="43.4587384" lon="12.8450591"><ele>340.8</ele><time>2026-04-18T10:36:54.978Z</time></trkpt><trkpt lat="43.4586794" lon="12.8451507"><ele>340.2</ele><time>2026-04-18T10:36:55.979Z</time></trkpt><trkpt lat="43.4586128" lon="12.8452406"><ele>339.6</ele><time>2026-04-18T10:36:56.988Z</time></trkpt><trkpt lat="43.45854" lon="12.84533"><ele>339.0</ele><time>2026-04-18T10:36:57.982Z</time></trkpt><trkpt lat="43.4584682" lon="12.8454201"><ele>339.0</ele><time>2026-04-18T10:36:58.981Z</time></trkpt><trkpt lat="43.458391" lon="12.8455291"><ele>339.0</ele><time>2026-04-18T10:36:59.992Z</time></trkpt><trkpt lat="43.4583167" lon="12.845639"><ele>339.0</ele><time>2026-04-18T10:37:00.978Z</time></trkpt><trkpt lat="43.4582443" lon="12.8457443"><ele>339.0</ele><time>2026-04-18T10:37:01.982Z</time></trkpt><trkpt lat="43.4581809" lon="12.8458543"><ele>339.0</ele><time>2026-04-18T10:37:02.988Z</time></trkpt><trkpt lat="43.4581164" lon="12.8459563"><ele>338.6</ele><time>2026-04-18T10:37:03.982Z</time></trkpt><trkpt lat="43.4580556" lon="12.8460526"><ele>338.2</ele><time>2026-04-18T10:37:04.983Z</time></trkpt><trkpt lat="43.4579922" lon="12.8461422"><ele>337.8</ele><time>2026-04-18T10:37:05.983Z</time></trkpt><trkpt lat="43.4579328" lon="12.8462317"><ele>337.40000000000003</ele><time>2026-04-18T10:37:06.976Z</time></trkpt><trkpt lat="43.457867" lon="12.8463301"><ele>337.0</ele><time>2026-04-18T10:37:07.992Z</time></trkpt><trkpt lat="43.4578103" lon="12.8464171"><ele>335.8333333333333</ele><time>2026-04-18T10:37:08.994Z</time></trkpt><trkpt lat="43.4577443" lon="12.8464994"><ele>334.66666666666663</ele><time>2026-04-18T10:37:09.982Z</time></trkpt><trkpt lat="43.4576828" lon="12.8465781"><ele>333.5</ele><time>2026-04-18T10:37:10.979Z</time></trkpt><trkpt lat="43.4576279" lon="12.8466667"><ele>332.3333333333333</ele><time>2026-04-18T10:37:11.991Z</time></trkpt><trkpt lat="43.4575734" lon="12.8467516"><ele>331.1666666666667</ele><time>2026-04-18T10:37:12.983Z</time></trkpt><trkpt lat="43.4575228" lon="12.8468437"><ele>330.0</ele><time>2026-04-18T10:37:13.991Z</time></trkpt><trkpt lat="43.4574731" lon="12.8469246"><ele>330.0</ele><time>2026-04-18T10:37:14.979Z</time></trkpt><trkpt lat="43.4574117" lon="12.8469948"><ele>330.0</ele><time>2026-04-18T10:37:15.986Z</time></trkpt><trkpt lat="43.4573571" lon="12.8470782"><ele>330.0</ele><time>2026-04-18T10:37:16.982Z</time></trkpt><trkpt lat="43.4572946" lon="12.8471598"><ele>330.0</ele><time>2026-04-18T10:37:17.993Z</time></trkpt><trkpt lat="43.4572276" lon="12.8472426"><ele>330.0</ele><time>2026-04-18T10:37:18.977Z</time></trkpt><trkpt lat="43.4571582" lon="12.8473233"><ele>330.0</ele><time>2026-04-18T10:37:19.979Z</time></trkpt><trkpt lat="43.4570863" lon="12.8474111"><ele>328.4</ele><time>2026-04-18T10:37:20.981Z</time></trkpt><trkpt lat="43.4570198" lon="12.8475016"><ele>326.8</ele><time>2026-04-18T10:37:21.988Z</time></trkpt><trkpt lat="43.4569524" lon="12.8475974"><ele>325.20000000000005</ele><time>2026-04-18T10:37:22.979Z</time></trkpt><trkpt lat="43.4568894" lon="12.8477073"><ele>323.6</ele><time>2026-04-18T10:37:23.981Z</time></trkpt><trkpt lat="43.4568343" lon="12.8478213"><ele>322.0</ele><time>2026-04-18T10:37:24.977Z</time></trkpt><trkpt lat="43.4567757" lon="12.8479388"><ele>321.66666666666663</ele><time>2026-04-18T10:37:25.982Z</time></trkpt><trkpt lat="43.4567176" lon="12.848044"><ele>321.3333333333333</ele><time>2026-04-18T10:37:26.987Z</time></trkpt><trkpt lat="43.456652" lon="12.8481434"><ele>321.0</ele><time>2026-04-18T10:37:27.979Z</time></trkpt><trkpt lat="43.4565846" lon="12.8482232"><ele>320.6666666666667</ele><time>2026-04-18T10:37:28.983Z</time></trkpt><trkpt lat="43.456523" lon="12.848292"><ele>320.33333333333337</ele><time>2026-04-18T10:37:29.99Z</time></trkpt><trkpt lat="43.4564661" lon="12.8483545"><ele>320.0</ele><time>2026-04-18T10:37:30.979Z</time></trkpt><trkpt lat="43.4564152" lon="12.8484263"><ele>320.1666666666667</ele><time>2026-04-18T10:37:31.983Z</time></trkpt><trkpt lat="43.4563717" lon="12.8484946"><ele>320.33333333333337</ele><time>2026-04-18T10:37:32.986Z</time></trkpt><trkpt lat="43.4563325" lon="12.8485887"><ele>320.5</ele><time>2026-04-18T10:37:34.984Z</time></trkpt><trkpt lat="43.4563407" lon="12.8486756"><ele>320.6666666666667</ele><time>2026-04-18T10:37:36.988Z</time></trkpt><trkpt lat="43.456392" lon="12.8487847"><ele>320.8333333333333</ele><time>2026-04-18T10:37:38.981Z</time></trkpt><trkpt lat="43.4564641" lon="12.8489173"><ele>321.0</ele><time>2026-04-18T10:37:40.988Z</time></trkpt><trkpt lat="43.4565208" lon="12.8490791"><ele>321.0</ele><time>2026-04-18T10:37:42.983Z</time></trkpt><trkpt lat="43.4565414" lon="12.8491769"><ele>321.0</ele><time>2026-04-18T10:37:43.982Z</time></trkpt><trkpt lat="43.4565534" lon="12.849271"><ele>321.0</ele><time>2026-04-18T10:37:44.972Z</time></trkpt><trkpt lat="43.4565563" lon="12.8493589"><ele>321.0</ele><time>2026-04-18T10:37:45.975Z</time></trkpt><trkpt lat="43.4565441" lon="12.8495049"><ele>321.0</ele><time>2026-04-18T10:37:47.986Z</time></trkpt><trkpt lat="43.4564724" lon="12.8496363"><ele>321.0</ele><time>2026-04-18T10:37:49.974Z</time></trkpt><trkpt lat="43.4564278" lon="12.849706"><ele>321.0</ele><time>2026-04-18T10:37:50.985Z</time></trkpt><trkpt lat="43.4563764" lon="12.8497808"><ele>321.0</ele><time>2026-04-18T10:37:51.989Z</time></trkpt><trkpt lat="43.4563094" lon="12.8498467"><ele>321.0</ele><time>2026-04-18T10:37:52.98Z</time></trkpt><trkpt lat="43.4562463" lon="12.8499091"><ele>321.0</ele><time>2026-04-18T10:37:53.981Z</time></trkpt><trkpt lat="43.4561817" lon="12.8499742"><ele>321.0</ele><time>2026-04-18T10:37:54.983Z</time></trkpt><trkpt lat="43.4561207" lon="12.8500346"><ele>321.0</ele><time>2026-04-18T10:37:55.985Z</time></trkpt><trkpt lat="43.4560662" lon="12.8501136"><ele>322.5</ele><time>2026-04-18T10:37:56.982Z</time></trkpt><trkpt lat="43.4560256" lon="12.8502145"><ele>324.0</ele><time>2026-04-18T10:37:57.984Z</time></trkpt><trkpt lat="43.4559846" lon="12.8503268"><ele>325.5</ele><time>2026-04-18T10:37:58.976Z</time></trkpt><trkpt lat="43.4559308" lon="12.8504385"><ele>327.0</ele><time>2026-04-18T10:37:59.984Z</time></trkpt><trkpt lat="43.4558629" lon="12.8505278"><ele>328.5</ele><time>2026-04-18T10:38:00.986Z</time></trkpt><trkpt lat="43.4558027" lon="12.8505937"><ele>330.0</ele><time>2026-04-18T10:38:01.99Z</time></trkpt><trkpt lat="43.4557179" lon="12.8506201"><ele>330.0</ele><time>2026-04-18T10:38:02.987Z</time></trkpt><trkpt lat="43.4556384" lon="12.850614"><ele>330.0</ele><time>2026-04-18T10:38:03.98Z</time></trkpt><trkpt lat="43.4555553" lon="12.8506054"><ele>330.0</ele><time>2026-04-18T10:38:04.988Z</time></trkpt><trkpt lat="43.4554733" lon="12.8506202"><ele>330.0</ele><time>2026-04-18T10:38:05.992Z</time></trkpt><trkpt lat="43.4554048" lon="12.8506822"><ele>330.0</ele><time>2026-04-18T10:38:06.984Z</time></trkpt><trkpt lat="43.4553362" lon="12.8507822"><ele>330.0</ele><time>2026-04-18T10:38:07.983Z</time></trkpt><trkpt lat="43.455272" lon="12.8508897"><ele>329.4</ele><time>2026-04-18T10:38:08.995Z</time></trkpt><trkpt lat="43.4552078" lon="12.8510039"><ele>328.8</ele><time>2026-04-18T10:38:09.985Z</time></trkpt><trkpt lat="43.455145" lon="12.8511146"><ele>328.20000000000005</ele><time>2026-04-18T10:38:10.998Z</time></trkpt><trkpt lat="43.4550873" lon="12.8512127"><ele>327.6</ele><time>2026-04-18T10:38:11.986Z</time></trkpt><trkpt lat="43.4550398" lon="12.8513011"><ele>327.0</ele><time>2026-04-18T10:38:12.978Z</time></trkpt><trkpt lat="43.4549938" lon="12.8514012"><ele>327.0</ele><time>2026-04-18T10:38:13.979Z</time></trkpt><trkpt lat="43.4549448" lon="12.8514913"><ele>327.0</ele><time>2026-04-18T10:38:14.981Z</time></trkpt><trkpt lat="43.4548903" lon="12.8515603"><ele>327.0</ele><time>2026-04-18T10:38:15.99Z</time></trkpt><trkpt lat="43.4548241" lon="12.851626"><ele>327.0</ele><time>2026-04-18T10:38:16.98Z</time></trkpt><trkpt lat="43.4547617" lon="12.8516851"><ele>327.0</ele><time>2026-04-18T10:38:17.983Z</time></trkpt><trkpt lat="43.4546962" lon="12.8517373"><ele>327.0</ele><time>2026-04-18T10:38:18.982Z</time></trkpt><trkpt lat="43.4546293" lon="12.8517602"><ele>326.6666666666667</ele><time>2026-04-18T10:38:19.985Z</time></trkpt><trkpt lat="43.4545643" lon="12.8517542"><ele>326.3333333333333</ele><time>2026-04-18T10:38:20.984Z</time></trkpt><trkpt lat="43.4544983" lon="12.8517221"><ele>326.0</ele><time>2026-04-18T10:38:21.976Z</time></trkpt><trkpt lat="43.4544307" lon="12.8516654"><ele>325.66666666666663</ele><time>2026-04-18T10:38:22.982Z</time></trkpt><trkpt lat="43.4543562" lon="12.8516161"><ele>325.3333333333333</ele><time>2026-04-18T10:38:23.981Z</time></trkpt><trkpt lat="43.4542765" lon="12.8515868"><ele>325.0</ele><time>2026-04-18T10:38:24.974Z</time></trkpt><trkpt lat="43.454207" lon="12.851566"><ele>325.0</ele><time>2026-04-18T10:38:25.985Z</time></trkpt><trkpt lat="43.4541476" lon="12.8515363"><ele>325.0</ele><time>2026-04-18T10:38:26.986Z</time></trkpt><trkpt lat="43.4540878" lon="12.8515043"><ele>325.0</ele><time>2026-04-18T10:38:27.985Z</time></trkpt><trkpt lat="43.4540144" lon="12.851494"><ele>325.0</ele><time>2026-04-18T10:38:28.983Z</time></trkpt><trkpt lat="43.4539374" lon="12.8514919"><ele>325.0</ele><time>2026-04-18T10:38:29.988Z</time></trkpt><trkpt lat="43.4538568" lon="12.8515034"><ele>325.0</ele><time>2026-04-18T10:38:30.99Z</time></trkpt><trkpt lat="43.453765" lon="12.8515127"><ele>324.8</ele><time>2026-04-18T10:38:31.983Z</time></trkpt><trkpt lat="43.4536643" lon="12.8515185"><ele>324.6</ele><time>2026-04-18T10:38:32.994Z</time></trkpt><trkpt lat="43.4535667" lon="12.8515225"><ele>324.4</ele><time>2026-04-18T10:38:33.98Z</time></trkpt><trkpt lat="43.4534708" lon="12.8515278"><ele>324.2</ele><time>2026-04-18T10:38:34.984Z</time></trkpt><trkpt lat="43.4533718" lon="12.85153"><ele>324.0</ele><time>2026-04-18T10:38:35.988Z</time></trkpt><trkpt lat="43.4532676" lon="12.8515296"><ele>324.0</ele><time>2026-04-18T10:38:36.99Z</time></trkpt><trkpt lat="43.4531614" lon="12.8515273"><ele>324.0</ele><time>2026-04-18T10:38:37.987Z</time></trkpt><trkpt lat="43.4530485" lon="12.8515294"><ele>324.0</ele><time>2026-04-18T10:38:38.987Z</time></trkpt><trkpt lat="43.452933" lon="12.8515328"><ele>324.0</ele><time>2026-04-18T10:38:39.983Z</time></trkpt><trkpt lat="43.4528182" lon="12.8515434"><ele>324.2</ele><time>2026-04-18T10:38:40.979Z</time></trkpt><trkpt lat="43.4527068" lon="12.8515621"><ele>324.4</ele><time>2026-04-18T10:38:41.996Z</time></trkpt><trkpt lat="43.4525962" lon="12.8515918"><ele>324.6</ele><time>2026-04-18T10:38:42.992Z</time></trkpt><trkpt lat="43.4524934" lon="12.8516252"><ele>324.8</ele><time>2026-04-18T10:38:43.992Z</time></trkpt><trkpt lat="43.4523974" lon="12.8516501"><ele>325.0</ele><time>2026-04-18T10:38:44.981Z</time></trkpt><trkpt lat="43.4523136" lon="12.8516645"><ele>325.0</ele><time>2026-04-18T10:38:45.999Z</time></trkpt><trkpt lat="43.4522367" lon="12.8516583"><ele>325.0</ele><time>2026-04-18T10:38:46.986Z</time></trkpt><trkpt lat="43.4521592" lon="12.8516382"><ele>325.0</ele><time>2026-04-18T10:38:47.982Z</time></trkpt><trkpt lat="43.4520735" lon="12.8516044"><ele>325.0</ele><time>2026-04-18T10:38:48.979Z</time></trkpt><trkpt lat="43.4519886" lon="12.851574"><ele>325.0</ele><time>2026-04-18T10:38:49.989Z</time></trkpt><trkpt lat="43.4519108" lon="12.8515815"><ele>325.0</ele><time>2026-04-18T10:38:50.983Z</time></trkpt><trkpt lat="43.451838" lon="12.8516068"><ele>324.0</ele><time>2026-04-18T10:38:52.002Z</time></trkpt><trkpt lat="43.4517472" lon="12.851638"><ele>323.0</ele><time>2026-04-18T10:38:52.978Z</time></trkpt><trkpt lat="43.4516467" lon="12.8516647"><ele>322.0</ele><time>2026-04-18T10:38:53.993Z</time></trkpt><trkpt lat="43.4515454" lon="12.8516801"><ele>321.0</ele><time>2026-04-18T10:38:54.987Z</time></trkpt><trkpt lat="43.4514586" lon="12.8516933"><ele>320.0</ele><time>2026-04-18T10:38:55.984Z</time></trkpt><trkpt lat="43.4513748" lon="12.8516968"><ele>320.0</ele><time>2026-04-18T10:38:56.973Z</time></trkpt><trkpt lat="43.4512984" lon="12.8517141"><ele>320.0</ele><time>2026-04-18T10:38:57.994Z</time></trkpt><trkpt lat="43.4512389" lon="12.8517525"><ele>320.0</ele><time>2026-04-18T10:38:58.993Z</time></trkpt><trkpt lat="43.4511812" lon="12.8518356"><ele>320.0</ele><time>2026-04-18T10:38:59.978Z</time></trkpt><trkpt lat="43.4511225" lon="12.8519369"><ele>320.0</ele><time>2026-04-18T10:39:00.971Z</time></trkpt><trkpt lat="43.4510626" lon="12.8520529"><ele>320.0</ele><time>2026-04-18T10:39:01.98Z</time></trkpt><trkpt lat="43.4509995" lon="12.8521521"><ele>319.2</ele><time>2026-04-18T10:39:02.98Z</time></trkpt><trkpt lat="43.4509335" lon="12.8522471"><ele>318.4</ele><time>2026-04-18T10:39:03.98Z</time></trkpt><trkpt lat="43.4508646" lon="12.852344"><ele>317.6</ele><time>2026-04-18T10:39:04.983Z</time></trkpt><trkpt lat="43.4507981" lon="12.8524312"><ele>316.8</ele><time>2026-04-18T10:39:05.983Z</time></trkpt><trkpt lat="43.4507267" lon="12.8525212"><ele>316.0</ele><time>2026-04-18T10:39:06.983Z</time></trkpt><trkpt lat="43.4506521" lon="12.852603"><ele>316.0</ele><time>2026-04-18T10:39:07.985Z</time></trkpt><trkpt lat="43.4505773" lon="12.8526745"><ele>316.0</ele><time>2026-04-18T10:39:08.979Z</time></trkpt><trkpt lat="43.450508" lon="12.8527106"><ele>316.0</ele><time>2026-04-18T10:39:09.987Z</time></trkpt><trkpt lat="43.4504383" lon="12.8527087"><ele>316.0</ele><time>2026-04-18T10:39:10.978Z</time></trkpt><trkpt lat="43.4503108" lon="12.8526765"><ele>316.0</ele><time>2026-04-18T10:39:12.981Z</time></trkpt><trkpt lat="43.4502348" lon="12.852673"><ele>316.0</ele><time>2026-04-18T10:39:13.993Z</time></trkpt><trkpt lat="43.450158" lon="12.8526633"><ele>316.0</ele><time>2026-04-18T10:39:14.988Z</time></trkpt><trkpt lat="43.4500856" lon="12.8526362"><ele>316.0</ele><time>2026-04-18T10:39:15.986Z</time></trkpt><trkpt lat="43.450006" lon="12.8526102"><ele>316.0</ele><time>2026-04-18T10:39:16.98Z</time></trkpt><trkpt lat="43.4499227" lon="12.8525852"><ele>316.0</ele><time>2026-04-18T10:39:17.972Z</time></trkpt><trkpt lat="43.4498457" lon="12.8525677"><ele>316.0</ele><time>2026-04-18T10:39:18.988Z</time></trkpt><trkpt lat="43.4497479" lon="12.852543"><ele>316.0</ele><time>2026-04-18T10:39:20.985Z</time></trkpt><trkpt lat="43.4496686" lon="12.8525125"><ele>315.5714285714286</ele><time>2026-04-18T10:39:23.983Z</time></trkpt><trkpt lat="43.4495894" lon="12.8524895"><ele>315.14285714285717</ele><time>2026-04-18T10:39:27.008Z</time></trkpt><trkpt lat="43.4495329" lon="12.8524445"><ele>314.7142857142857</ele><time>2026-04-18T10:39:29.983Z</time></trkpt><trkpt lat="43.4494962" lon="12.8523639"><ele>314.28571428571433</ele><time>2026-04-18T10:39:34.985Z</time></trkpt><trkpt lat="43.4494527" lon="12.852276"><ele>313.8571428571429</ele><time>2026-04-18T10:39:39.981Z</time></trkpt><trkpt lat="43.4494216" lon="12.8522005"><ele>313.42857142857144</ele><time>2026-04-18T10:39:42.981Z</time></trkpt><trkpt lat="43.4493964" lon="12.85208"><ele>313.0</ele><time>2026-04-18T10:39:46.992Z</time></trkpt><trkpt lat="43.4493695" lon="12.8519942"><ele>313.0</ele><time>2026-04-18T10:39:48.987Z</time></trkpt><trkpt lat="43.4493396" lon="12.8519053"><ele>313.0</ele><time>2026-04-18T10:39:50.99Z</time></trkpt><trkpt lat="43.4493002" lon="12.8518201"><ele>313.0</ele><time>2026-04-18T10:39:52.989Z</time></trkpt><trkpt lat="43.4492604" lon="12.851727"><ele>313.0</ele><time>2026-04-18T10:39:55.988Z</time></trkpt><trkpt lat="43.4492027" lon="12.8516364"><ele>313.0</ele><time>2026-04-18T10:40:22.98Z</time></trkpt><trkpt lat="43.4491252" lon="12.8515172"><ele>313.0</ele><time>2026-04-18T10:40:24.974Z</time></trkpt><trkpt lat="43.4490564" lon="12.851467"><ele>311.2</ele><time>2026-04-18T10:40:26.978Z</time></trkpt><trkpt lat="43.4489448" lon="12.8514737"><ele>309.4</ele><time>2026-04-18T10:40:28.981Z</time></trkpt><trkpt lat="43.4488673" lon="12.8514913"><ele>307.59999999999997</ele><time>2026-04-18T10:40:29.983Z</time></trkpt><trkpt lat="43.4487796" lon="12.851512"><ele>305.8</ele><time>2026-04-18T10:40:30.98Z</time></trkpt><trkpt lat="43.4486908" lon="12.8515307"><ele>304.0</ele><time>2026-04-18T10:40:31.976Z</time></trkpt><trkpt lat="43.4486" lon="12.8515591"><ele>304.0</ele><time>2026-04-18T10:40:32.977Z</time></trkpt><trkpt lat="43.448506" lon="12.8515884"><ele>304.0</ele><time>2026-04-18T10:40:33.982Z</time></trkpt><trkpt lat="43.4484182" lon="12.8516177"><ele>304.0</ele><time>2026-04-18T10:40:34.984Z</time></trkpt><trkpt lat="43.4483429" lon="12.8516509"><ele>304.0</ele><time>2026-04-18T10:40:35.98Z</time></trkpt><trkpt lat="43.4482739" lon="12.8516817"><ele>304.0</ele><time>2026-04-18T10:40:36.981Z</time></trkpt><trkpt lat="43.4482126" lon="12.8517176"><ele>304.0</ele><time>2026-04-18T10:40:37.987Z</time></trkpt><trkpt lat="43.4481511" lon="12.8517772"><ele>304.2</ele><time>2026-04-18T10:40:38.989Z</time></trkpt><trkpt lat="43.4480966" lon="12.8518325"><ele>304.4</ele><time>2026-04-18T10:40:39.988Z</time></trkpt><trkpt lat="43.4480452" lon="12.8518913"><ele>304.6</ele><time>2026-04-18T10:40:40.972Z</time></trkpt><trkpt lat="43.4479512" lon="12.8520042"><ele>304.8</ele><time>2026-04-18T10:40:42.99Z</time></trkpt><trkpt lat="43.447881" lon="12.852114"><ele>305.0</ele><time>2026-04-18T10:40:44.979Z</time></trkpt><trkpt lat="43.4478279" lon="12.8522167"><ele>305.0</ele><time>2026-04-18T10:40:46.978Z</time></trkpt><trkpt lat="43.4477896" lon="12.8523146"><ele>305.0</ele><time>2026-04-18T10:40:49.98Z</time></trkpt><trkpt lat="43.447728" lon="12.8523737"><ele>305.0</ele><time>2026-04-18T10:40:54.988Z</time></trkpt><trkpt lat="43.4476626" lon="12.8523792"><ele>305.0</ele><time>2026-04-18T10:41:04.979Z</time></trkpt><trkpt lat="43.4476031" lon="12.8523468"><ele>305.0</ele><time>2026-04-18T10:41:07.978Z</time></trkpt><trkpt lat="43.4475671" lon="12.8522695"><ele>305.0</ele><time>2026-04-18T10:41:12.983Z</time></trkpt><trkpt lat="43.4475405" lon="12.8521771"><ele>305.0</ele><time>2026-04-18T10:41:14.986Z</time></trkpt><trkpt lat="43.4475089" lon="12.8520663"><ele>305.0</ele><time>2026-04-18T10:41:16.979Z</time></trkpt><trkpt lat="43.4474365" lon="12.8519635"><ele>305.0</ele><time>2026-04-18T10:41:18.986Z</time></trkpt><trkpt lat="43.4474001" lon="12.8518078"><ele>305.0</ele><time>2026-04-18T10:41:20.988Z</time></trkpt><trkpt lat="43.4473973" lon="12.8517161"><ele>305.0</ele><time>2026-04-18T10:41:21.987Z</time></trkpt><trkpt lat="43.4473909" lon="12.85162"><ele>305.0</ele><time>2026-04-18T10:41:22.98Z</time></trkpt><trkpt lat="43.4473638" lon="12.851511"><ele>305.0</ele><time>2026-04-18T10:41:23.979Z</time></trkpt><trkpt lat="43.4473231" lon="12.8514088"><ele>305.1666666666667</ele><time>2026-04-18T10:41:24.982Z</time></trkpt><trkpt lat="43.447271" lon="12.8513276"><ele>305.33333333333337</ele><time>2026-04-18T10:41:25.98Z</time></trkpt><trkpt lat="43.4472144" lon="12.8512488"><ele>305.5</ele><time>2026-04-18T10:41:26.981Z</time></trkpt><trkpt lat="43.4471666" lon="12.8511852"><ele>305.6666666666667</ele><time>2026-04-18T10:41:27.987Z</time></trkpt><trkpt lat="43.447116" lon="12.8511251"><ele>305.8333333333333</ele><time>2026-04-18T10:41:28.977Z</time></trkpt><trkpt lat="43.4470212" lon="12.8510099"><ele>306.0</ele><time>2026-04-18T10:41:30.976Z</time></trkpt><trkpt lat="43.44697" lon="12.850959"><ele>306.0</ele><time>2026-04-18T10:41:31.988Z</time></trkpt><trkpt lat="43.4469052" lon="12.850928"><ele>306.0</ele><time>2026-04-18T10:41:33.987Z</time></trkpt><trkpt lat="43.4468245" lon="12.8509451"><ele>306.0</ele><time>2026-04-18T10:42:34.985Z</time></trkpt><trkpt lat="43.446743" lon="12.8509736"><ele>306.0</ele><time>2026-04-18T10:42:37.984Z</time></trkpt><trkpt lat="43.4466552" lon="12.8509511"><ele>306.0</ele><time>2026-04-18T10:42:41.983Z</time></trkpt><trkpt lat="43.4465518" lon="12.8509834"><ele>306.0</ele><time>2026-04-18T10:42:43.99Z</time></trkpt><trkpt lat="43.4464809" lon="12.8510059"><ele>306.0</ele><time>2026-04-18T10:42:44.985Z</time></trkpt><trkpt lat="43.4464038" lon="12.8510188"><ele>306.0</ele><time>2026-04-18T10:42:45.984Z</time></trkpt><trkpt lat="43.44633" lon="12.8510391"><ele>306.0</ele><time>2026-04-18T10:42:46.984Z</time></trkpt><trkpt lat="43.446264" lon="12.8510549"><ele>306.0</ele><time>2026-04-18T10:42:47.98Z</time></trkpt><trkpt lat="43.4461447" lon="12.8510771"><ele>306.0</ele><time>2026-04-18T10:42:49.989Z</time></trkpt><trkpt lat="43.4460747" lon="12.8510814"><ele>306.0</ele><time>2026-04-18T10:42:50.974Z</time></trkpt><trkpt lat="43.4459971" lon="12.8510959"><ele>306.1666666666667</ele><time>2026-04-18T10:42:51.983Z</time></trkpt><trkpt lat="43.4459224" lon="12.8511131"><ele>306.3333333333333</ele><time>2026-04-18T10:42:52.979Z</time></trkpt><trkpt lat="43.4458489" lon="12.8511415"><ele>306.5</ele><time>2026-04-18T10:42:53.982Z</time></trkpt><trkpt lat="43.4457666" lon="12.8511723"><ele>306.66666666666663</ele><time>2026-04-18T10:42:54.978Z</time></trkpt><trkpt lat="43.4456747" lon="12.8512115"><ele>306.8333333333333</ele><time>2026-04-18T10:42:55.986Z</time></trkpt><trkpt lat="43.4455902" lon="12.8512616"><ele>307.0</ele><time>2026-04-18T10:42:56.979Z</time></trkpt><trkpt lat="43.4455072" lon="12.8513019"><ele>307.0</ele><time>2026-04-18T10:42:57.993Z</time></trkpt><trkpt lat="43.4454235" lon="12.851356"><ele>307.0</ele><time>2026-04-18T10:42:58.983Z</time></trkpt><trkpt lat="43.4453375" lon="12.8514049"><ele>307.0</ele><time>2026-04-18T10:42:59.981Z</time></trkpt><trkpt lat="43.4452559" lon="12.8514336"><ele>307.0</ele><time>2026-04-18T10:43:00.985Z</time></trkpt><trkpt lat="43.4451914" lon="12.8514397"><ele>307.0</ele><time>2026-04-18T10:43:01.98Z</time></trkpt><trkpt lat="43.445093" lon="12.8514132"><ele>307.0</ele><time>2026-04-18T10:43:03.985Z</time></trkpt><trkpt lat="43.4449874" lon="12.8513499"><ele>306.99999999999994</ele><time>2026-04-18T10:43:05.997Z</time></trkpt><trkpt lat="43.4449234" lon="12.8512934"><ele>307.0</ele><time>2026-04-18T10:43:06.978Z</time></trkpt><trkpt lat="43.4448657" lon="12.8512293"><ele>307.0</ele><time>2026-04-18T10:43:07.978Z</time></trkpt><trkpt lat="43.4448097" lon="12.8511526"><ele>307.0</ele><time>2026-04-18T10:43:08.976Z</time></trkpt><trkpt lat="43.4447663" lon="12.8510881"><ele>307.0</ele><time>2026-04-18T10:43:09.989Z</time></trkpt><trkpt lat="43.4447246" lon="12.8510227"><ele>306.99999999999994</ele><time>2026-04-18T10:43:10.98Z</time></trkpt><trkpt lat="43.4446749" lon="12.850934"><ele>307.0</ele><time>2026-04-18T10:43:12.982Z</time></trkpt><trkpt lat="43.4446162" lon="12.8508757"><ele>306.85714285714283</ele><time>2026-04-18T10:43:22.987Z</time></trkpt><trkpt lat="43.4445424" lon="12.850801"><ele>306.7142857142857</ele><time>2026-04-18T10:43:24.982Z</time></trkpt><trkpt lat="43.4444856" lon="12.8507621"><ele>306.57142857142856</ele><time>2026-04-18T10:43:26.992Z</time></trkpt><trkpt lat="43.4444191" lon="12.8507159"><ele>306.42857142857144</ele><time>2026-04-18T10:43:30.981Z</time></trkpt><trkpt lat="43.444476" lon="12.8506646"><ele>306.2857142857143</ele><time>2026-04-18T10:43:39.987Z</time></trkpt><trkpt lat="43.4445285" lon="12.8507185"><ele>306.1428571428571</ele><time>2026-04-18T10:43:42.983Z</time></trkpt><trkpt lat="43.4444627" lon="12.8507164"><ele>306.0</ele><time>2026-04-18T10:43:50.982Z</time></trkpt><trkpt lat="43.4443853" lon="12.8506625"><ele>306.0</ele><time>2026-04-18T10:43:53.986Z</time></trkpt><trkpt lat="43.4443354" lon="12.8505734"><ele>306.0</ele><time>2026-04-18T10:43:55.987Z</time></trkpt><trkpt lat="43.4443273" lon="12.8504694"><ele>306.0</ele><time>2026-04-18T10:43:57.989Z</time></trkpt><trkpt lat="43.4443958" lon="12.8504185"><ele>306.0</ele><time>2026-04-18T10:44:00.978Z</time></trkpt><trkpt lat="43.4444494" lon="12.8503548"><ele>306.0</ele><time>2026-04-18T10:44:03.991Z</time></trkpt><trkpt lat="43.4444599" lon="12.8502468"><ele>306.0</ele><time>2026-04-18T10:44:06.982Z</time></trkpt><trkpt lat="43.4444349" lon="12.8501327"><ele>306.3333333333333</ele><time>2026-04-18T10:44:09.992Z</time></trkpt><trkpt lat="43.444409" lon="12.8500431"><ele>306.6666666666667</ele><time>2026-04-18T10:44:11.983Z</time></trkpt><trkpt lat="43.4443916" lon="12.8499505"><ele>307.0</ele><time>2026-04-18T10:44:13.979Z</time></trkpt><trkpt lat="43.4443628" lon="12.8498255"><ele>307.33333333333337</ele><time>2026-04-18T10:44:15.99Z</time></trkpt><trkpt lat="43.4443437" lon="12.8497264"><ele>307.6666666666667</ele><time>2026-04-18T10:44:17.985Z</time></trkpt><trkpt lat="43.4443295" lon="12.8496361"><ele>308.0</ele><time>2026-04-18T10:44:44.973Z</time></trkpt><trkpt lat="43.4442894" lon="12.849726"><ele>308.0</ele><time>2026-04-18T10:45:28.979Z</time></trkpt><trkpt lat="43.4443075" lon="12.8498106"><ele>308.0</ele><time>2026-04-18T10:45:30.985Z</time></trkpt><trkpt lat="43.4443534" lon="12.8499398"><ele>308.0</ele><time>2026-04-18T10:45:32.986Z</time></trkpt><trkpt lat="43.4444089" lon="12.8500684"><ele>308.0</ele><time>2026-04-18T10:45:34.988Z</time></trkpt><trkpt lat="43.4444566" lon="12.8502093"><ele>308.0</ele><time>2026-04-18T10:45:36.987Z</time></trkpt><trkpt lat="43.4444562" lon="12.8503598"><ele>307.6666666666667</ele><time>2026-04-18T10:45:38.976Z</time></trkpt><trkpt lat="43.4444088" lon="12.8504279"><ele>307.33333333333337</ele><time>2026-04-18T10:45:40.978Z</time></trkpt><trkpt lat="43.4443354" lon="12.8504677"><ele>307.0</ele><time>2026-04-18T10:45:42.977Z</time></trkpt><trkpt lat="43.444329" lon="12.8505834"><ele>306.6666666666667</ele><time>2026-04-18T10:45:45.987Z</time></trkpt><trkpt lat="43.4444035" lon="12.8506645"><ele>306.3333333333333</ele><time>2026-04-18T10:45:47.987Z</time></trkpt><trkpt lat="43.4444932" lon="12.8507246"><ele>306.0</ele><time>2026-04-18T10:45:49.987Z</time></trkpt><trkpt lat="43.4445892" lon="12.8508048"><ele>307.5</ele><time>2026-04-18T10:45:51.984Z</time></trkpt><trkpt lat="43.4447016" lon="12.8508386"><ele>309.0</ele><time>2026-04-18T10:45:54.006Z</time></trkpt><trkpt lat="43.4447615" lon="12.8508062"><ele>310.5</ele><time>2026-04-18T10:45:54.99Z</time></trkpt><trkpt lat="43.4448169" lon="12.8507377"><ele>312.0</ele><time>2026-04-18T10:45:55.988Z</time></trkpt><trkpt lat="43.4448743" lon="12.8506676"><ele>313.5</ele><time>2026-04-18T10:45:56.978Z</time></trkpt><trkpt lat="43.4449351" lon="12.8506263"><ele>315.0</ele><time>2026-04-18T10:45:57.983Z</time></trkpt><trkpt lat="43.4450168" lon="12.8506302"><ele>315.0</ele><time>2026-04-18T10:45:58.98Z</time></trkpt><trkpt lat="43.4450988" lon="12.8506496"><ele>315.0</ele><time>2026-04-18T10:45:59.985Z</time></trkpt><trkpt lat="43.4451894" lon="12.8506715"><ele>315.0</ele><time>2026-04-18T10:46:00.988Z</time></trkpt><trkpt lat="43.4452925" lon="12.8506791"><ele>315.0</ele><time>2026-04-18T10:46:01.996Z</time></trkpt><trkpt lat="43.4453794" lon="12.8506573"><ele>315.0</ele><time>2026-04-18T10:46:02.986Z</time></trkpt><trkpt lat="43.4454576" lon="12.8506068"><ele>315.5</ele><time>2026-04-18T10:46:03.986Z</time></trkpt><trkpt lat="43.4455415" lon="12.8505515"><ele>316.0</ele><time>2026-04-18T10:46:04.979Z</time></trkpt><trkpt lat="43.4456235" lon="12.8504953"><ele>316.5</ele><time>2026-04-18T10:46:05.985Z</time></trkpt><trkpt lat="43.4457015" lon="12.8504336"><ele>317.0</ele><time>2026-04-18T10:46:06.983Z</time></trkpt><trkpt lat="43.4457747" lon="12.8503831"><ele>317.5</ele><time>2026-04-18T10:46:07.981Z</time></trkpt><trkpt lat="43.4458576" lon="12.8503579"><ele>318.0</ele><time>2026-04-18T10:46:08.983Z</time></trkpt><trkpt lat="43.44595" lon="12.8503502"><ele>318.0</ele><time>2026-04-18T10:46:09.993Z</time></trkpt><trkpt lat="43.4460474" lon="12.8503549"><ele>318.0</ele><time>2026-04-18T10:46:10.978Z</time></trkpt><trkpt lat="43.4461343" lon="12.850354"><ele>318.0</ele><time>2026-04-18T10:46:11.984Z</time></trkpt><trkpt lat="43.44623" lon="12.8503637"><ele>318.0</ele><time>2026-04-18T10:46:12.972Z</time></trkpt><trkpt lat="43.4463223" lon="12.8503726"><ele>318.0</ele><time>2026-04-18T10:46:13.978Z</time></trkpt><trkpt lat="43.4464127" lon="12.8503792"><ele>317.8</ele><time>2026-04-18T10:46:14.984Z</time></trkpt><trkpt lat="43.4465009" lon="12.8503796"><ele>317.6</ele><time>2026-04-18T10:46:15.991Z</time></trkpt><trkpt lat="43.4465798" lon="12.8503791"><ele>317.4</ele><time>2026-04-18T10:46:16.99Z</time></trkpt><trkpt lat="43.446688" lon="12.8503745"><ele>317.2</ele><time>2026-04-18T10:46:18.984Z</time></trkpt><trkpt lat="43.4467583" lon="12.8503473"><ele>317.0</ele><time>2026-04-18T10:46:20.984Z</time></trkpt><trkpt lat="43.4468192" lon="12.8502271"><ele>317.8</ele><time>2026-04-18T10:46:22.972Z</time></trkpt><trkpt lat="43.4468426" lon="12.8501201"><ele>318.6</ele><time>2026-04-18T10:46:23.977Z</time></trkpt><trkpt lat="43.4468305" lon="12.8499831"><ele>319.40000000000003</ele><time>2026-04-18T10:46:24.972Z</time></trkpt><trkpt lat="43.4468235" lon="12.8498555"><ele>320.2</ele><time>2026-04-18T10:46:25.982Z</time></trkpt><trkpt lat="43.4468152" lon="12.8497213"><ele>321.0</ele><time>2026-04-18T10:46:26.979Z</time></trkpt><trkpt lat="43.4468109" lon="12.8495695"><ele>321.0</ele><time>2026-04-18T10:46:27.976Z</time></trkpt><trkpt lat="43.4468049" lon="12.849418"><ele>321.0</ele><time>2026-04-18T10:46:28.985Z</time></trkpt><trkpt lat="43.446795" lon="12.8492556"><ele>321.0</ele><time>2026-04-18T10:46:29.991Z</time></trkpt><trkpt lat="43.446787" lon="12.8490867"><ele>321.0</ele><time>2026-04-18T10:46:30.98Z</time></trkpt><trkpt lat="43.4467828" lon="12.8489187"><ele>321.0</ele><time>2026-04-18T10:46:31.99Z</time></trkpt><trkpt lat="43.4467786" lon="12.8487574"><ele>321.0</ele><time>2026-04-18T10:46:32.982Z</time></trkpt><trkpt lat="43.4467769" lon="12.848613"><ele>321.0</ele><time>2026-04-18T10:46:33.979Z</time></trkpt><trkpt lat="43.4467753" lon="12.8484781"><ele>321.0</ele><time>2026-04-18T10:46:34.98Z</time></trkpt><trkpt lat="43.4467696" lon="12.8483537"><ele>321.0</ele><time>2026-04-18T10:46:35.98Z</time></trkpt><trkpt lat="43.4467623" lon="12.8482387"><ele>321.1666666666667</ele><time>2026-04-18T10:46:36.982Z</time></trkpt><trkpt lat="43.4467642" lon="12.8481338"><ele>321.3333333333333</ele><time>2026-04-18T10:46:37.99Z</time></trkpt><trkpt lat="43.4467661" lon="12.8480429"><ele>321.5</ele><time>2026-04-18T10:46:38.978Z</time></trkpt><trkpt lat="43.4467623" lon="12.8479007"><ele>321.66666666666663</ele><time>2026-04-18T10:46:40.976Z</time></trkpt><trkpt lat="43.446747" lon="12.8478045"><ele>321.8333333333333</ele><time>2026-04-18T10:46:48.992Z</time></trkpt><trkpt lat="43.4466498" lon="12.8476905"><ele>322.0</ele><time>2026-04-18T10:46:50.989Z</time></trkpt><trkpt lat="43.4465689" lon="12.8476322"><ele>321.75</ele><time>2026-04-18T10:46:51.985Z</time></trkpt><trkpt lat="43.4464744" lon="12.8475602"><ele>321.5</ele><time>2026-04-18T10:46:52.981Z</time></trkpt><trkpt lat="43.4463731" lon="12.8474897"><ele>321.25</ele><time>2026-04-18T10:46:53.987Z</time></trkpt><trkpt lat="43.4462553" lon="12.8474044"><ele>321.0</ele><time>2026-04-18T10:46:54.986Z</time></trkpt><trkpt lat="43.4461163" lon="12.847327"><ele>318.6666666666667</ele><time>2026-04-18T10:46:55.986Z</time></trkpt><trkpt lat="43.4459626" lon="12.8472711"><ele>316.33333333333337</ele><time>2026-04-18T10:46:56.977Z</time></trkpt><trkpt lat="43.4458012" lon="12.8472525"><ele>314.0</ele><time>2026-04-18T10:46:57.976Z</time></trkpt><trkpt lat="43.4456295" lon="12.8472589"><ele>314.0</ele><time>2026-04-18T10:46:58.982Z</time></trkpt><trkpt lat="43.4454647" lon="12.8472941"><ele>314.0</ele><time>2026-04-18T10:46:59.985Z</time></trkpt><trkpt lat="43.4453022" lon="12.8473721"><ele>314.0</ele><time>2026-04-18T10:47:00.978Z</time></trkpt><trkpt lat="43.4451365" lon="12.8474761"><ele>313.33333333333337</ele><time>2026-04-18T10:47:01.979Z</time></trkpt><trkpt lat="43.4449802" lon="12.8476163"><ele>312.6666666666667</ele><time>2026-04-18T10:47:02.994Z</time></trkpt><trkpt lat="43.4448323" lon="12.847758"><ele>312.0</ele><time>2026-04-18T10:47:03.982Z</time></trkpt><trkpt lat="43.4446917" lon="12.8478933"><ele>313.3333333333333</ele><time>2026-04-18T10:47:04.977Z</time></trkpt><trkpt lat="43.4445527" lon="12.8480244"><ele>314.66666666666663</ele><time>2026-04-18T10:47:05.983Z</time></trkpt><trkpt lat="43.4444114" lon="12.8481557"><ele>316.0</ele><time>2026-04-18T10:47:06.981Z</time></trkpt><trkpt lat="43.4442675" lon="12.8482894"><ele>316.0</ele><time>2026-04-18T10:47:07.984Z</time></trkpt><trkpt lat="43.4441248" lon="12.8484157"><ele>316.0</ele><time>2026-04-18T10:47:08.984Z</time></trkpt><trkpt lat="43.4439787" lon="12.8485454"><ele>316.0</ele><time>2026-04-18T10:47:09.989Z</time></trkpt><trkpt lat="43.4438361" lon="12.8486754"><ele>315.0</ele><time>2026-04-18T10:47:10.982Z</time></trkpt><trkpt lat="43.4437006" lon="12.8488003"><ele>314.0</ele><time>2026-04-18T10:47:11.984Z</time></trkpt><trkpt lat="43.4435585" lon="12.8489127"><ele>313.0</ele><time>2026-04-18T10:47:12.982Z</time></trkpt><trkpt lat="43.4434211" lon="12.8490127"><ele>313.0</ele><time>2026-04-18T10:47:13.979Z</time></trkpt><trkpt lat="43.4432851" lon="12.8491002"><ele>313.0</ele><time>2026-04-18T10:47:14.984Z</time></trkpt><trkpt lat="43.4431545" lon="12.8491727"><ele>313.0</ele><time>2026-04-18T10:47:15.975Z</time></trkpt><trkpt lat="43.4430293" lon="12.8492236"><ele>313.0</ele><time>2026-04-18T10:47:16.975Z</time></trkpt><trkpt lat="43.4429064" lon="12.8492706"><ele>313.0</ele><time>2026-04-18T10:47:17.988Z</time></trkpt><trkpt lat="43.4427791" lon="12.8493115"><ele>313.0</ele><time>2026-04-18T10:47:18.977Z</time></trkpt><trkpt lat="43.4426426" lon="12.849345"><ele>313.0</ele><time>2026-04-18T10:47:19.989Z</time></trkpt><trkpt lat="43.4425002" lon="12.8493853"><ele>313.0</ele><time>2026-04-18T10:47:20.984Z</time></trkpt><trkpt lat="43.4423535" lon="12.849426"><ele>313.0</ele><time>2026-04-18T10:47:21.986Z</time></trkpt><trkpt lat="43.442206" lon="12.8494654"><ele>313.0</ele><time>2026-04-18T10:47:22.979Z</time></trkpt><trkpt lat="43.4420591" lon="12.8495034"><ele>313.0</ele><time>2026-04-18T10:47:23.987Z</time></trkpt><trkpt lat="43.4419042" lon="12.849544"><ele>313.3333333333333</ele><time>2026-04-18T10:47:24.98Z</time></trkpt><trkpt lat="43.4417564" lon="12.8495814"><ele>313.6666666666667</ele><time>2026-04-18T10:47:25.991Z</time></trkpt><trkpt lat="43.4416075" lon="12.8496302"><ele>314.0</ele><time>2026-04-18T10:47:26.98Z</time></trkpt><trkpt lat="43.4414571" lon="12.8496787"><ele>314.0</ele><time>2026-04-18T10:47:27.983Z</time></trkpt><trkpt lat="43.4413053" lon="12.849728"><ele>314.0</ele><time>2026-04-18T10:47:28.99Z</time></trkpt><trkpt lat="43.4411473" lon="12.8497788"><ele>314.0</ele><time>2026-04-18T10:47:29.99Z</time></trkpt><trkpt lat="43.4409969" lon="12.8498276"><ele>313.75</ele><time>2026-04-18T10:47:30.986Z</time></trkpt><trkpt lat="43.4408516" lon="12.8498694"><ele>313.5</ele><time>2026-04-18T10:47:31.987Z</time></trkpt><trkpt lat="43.4407176" lon="12.8499127"><ele>313.25</ele><time>2026-04-18T10:47:32.973Z</time></trkpt><trkpt lat="43.4405878" lon="12.849955"><ele>313.0</ele><time>2026-04-18T10:47:33.983Z</time></trkpt><trkpt lat="43.4404533" lon="12.8499897"><ele>312.75</ele><time>2026-04-18T10:47:34.978Z</time></trkpt><trkpt lat="43.440313" lon="12.8500379"><ele>312.5</ele><time>2026-04-18T10:47:35.982Z</time></trkpt><trkpt lat="43.4401753" lon="12.8500897"><ele>312.25</ele><time>2026-04-18T10:47:36.974Z</time></trkpt><trkpt lat="43.4400387" lon="12.8501414"><ele>312.0</ele><time>2026-04-18T10:47:37.985Z</time></trkpt><trkpt lat="43.439909" lon="12.8501923"><ele>310.75</ele><time>2026-04-18T10:47:38.989Z</time></trkpt><trkpt lat="43.4397779" lon="12.850232"><ele>309.5</ele><time>2026-04-18T10:47:39.98Z</time></trkpt><trkpt lat="43.4396442" lon="12.8502693"><ele>308.25</ele><time>2026-04-18T10:47:40.985Z</time></trkpt><trkpt lat="43.4395016" lon="12.8503059"><ele>307.0</ele><time>2026-04-18T10:47:41.972Z</time></trkpt><trkpt lat="43.4393563" lon="12.8503476"><ele>307.0</ele><time>2026-04-18T10:47:42.987Z</time></trkpt><trkpt lat="43.43921" lon="12.850396"><ele>307.0</ele><time>2026-04-18T10:47:43.989Z</time></trkpt><trkpt lat="43.4390615" lon="12.8504324"><ele>307.0</ele><time>2026-04-18T10:47:44.977Z</time></trkpt><trkpt lat="43.4389135" lon="12.8504737"><ele>306.75</ele><time>2026-04-18T10:47:45.981Z</time></trkpt><trkpt lat="43.4387744" lon="12.850513"><ele>306.5</ele><time>2026-04-18T10:47:46.979Z</time></trkpt><trkpt lat="43.4386442" lon="12.8505518"><ele>306.25</ele><time>2026-04-18T10:47:47.99Z</time></trkpt><trkpt lat="43.4385136" lon="12.8505992"><ele>306.0</ele><time>2026-04-18T10:47:48.978Z</time></trkpt><trkpt lat="43.4383852" lon="12.8506555"><ele>306.0</ele><time>2026-04-18T10:47:49.986Z</time></trkpt><trkpt lat="43.4382549" lon="12.8507274"><ele>306.0</ele><time>2026-04-18T10:47:50.979Z</time></trkpt><trkpt lat="43.4381297" lon="12.8508094"><ele>306.0</ele><time>2026-04-18T10:47:51.982Z</time></trkpt><trkpt lat="43.438002" lon="12.850914"><ele>306.0</ele><time>2026-04-18T10:47:53.004Z</time></trkpt><trkpt lat="43.4378788" lon="12.8510245"><ele>305.25</ele><time>2026-04-18T10:47:53.995Z</time></trkpt><trkpt lat="43.4377626" lon="12.851124"><ele>304.5</ele><time>2026-04-18T10:47:54.988Z</time></trkpt><trkpt lat="43.4376482" lon="12.8512239"><ele>303.75</ele><time>2026-04-18T10:47:55.984Z</time></trkpt><trkpt lat="43.4375354" lon="12.8513186"><ele>303.0</ele><time>2026-04-18T10:47:56.98Z</time></trkpt><trkpt lat="43.4374176" lon="12.8513984"><ele>303.0</ele><time>2026-04-18T10:47:57.974Z</time></trkpt><trkpt lat="43.4372872" lon="12.8514618"><ele>303.0</ele><time>2026-04-18T10:47:58.981Z</time></trkpt><trkpt lat="43.4371521" lon="12.8515203"><ele>303.0</ele><time>2026-04-18T10:47:59.98Z</time></trkpt><trkpt lat="43.4370135" lon="12.8515789"><ele>303.0</ele><time>2026-04-18T10:48:00.987Z</time></trkpt><trkpt lat="43.4368705" lon="12.8516427"><ele>302.75</ele><time>2026-04-18T10:48:01.986Z</time></trkpt><trkpt lat="43.4367325" lon="12.8517068"><ele>302.5</ele><time>2026-04-18T10:48:02.972Z</time></trkpt><trkpt lat="43.4366065" lon="12.8517747"><ele>302.25</ele><time>2026-04-18T10:48:03.984Z</time></trkpt><trkpt lat="43.4364805" lon="12.8518442"><ele>302.0</ele><time>2026-04-18T10:48:04.975Z</time></trkpt><trkpt lat="43.4363538" lon="12.8519191"><ele>300.75</ele><time>2026-04-18T10:48:05.979Z</time></trkpt><trkpt lat="43.4362195" lon="12.8519966"><ele>299.5</ele><time>2026-04-18T10:48:06.979Z</time></trkpt><trkpt lat="43.4360838" lon="12.8520628"><ele>298.25</ele><time>2026-04-18T10:48:07.981Z</time></trkpt><trkpt lat="43.4359486" lon="12.8521182"><ele>297.0</ele><time>2026-04-18T10:48:08.988Z</time></trkpt><trkpt lat="43.4358188" lon="12.8521693"><ele>297.0</ele><time>2026-04-18T10:48:09.983Z</time></trkpt><trkpt lat="43.4356868" lon="12.8522238"><ele>297.0</ele><time>2026-04-18T10:48:10.987Z</time></trkpt><trkpt lat="43.4355675" lon="12.8522674"><ele>297.0</ele><time>2026-04-18T10:48:11.981Z</time></trkpt><trkpt lat="43.435459" lon="12.8523108"><ele>297.0</ele><time>2026-04-18T10:48:12.97Z</time></trkpt><trkpt lat="43.4353521" lon="12.8523534"><ele>297.4</ele><time>2026-04-18T10:48:13.974Z</time></trkpt><trkpt lat="43.4352417" lon="12.8523953"><ele>297.79999999999995</ele><time>2026-04-18T10:48:14.974Z</time></trkpt><trkpt lat="43.4351333" lon="12.8524407"><ele>298.2</ele><time>2026-04-18T10:48:15.984Z</time></trkpt><trkpt lat="43.435031" lon="12.852474"><ele>298.59999999999997</ele><time>2026-04-18T10:48:16.982Z</time></trkpt><trkpt lat="43.4349252" lon="12.8524701"><ele>299.0</ele><time>2026-04-18T10:48:17.98Z</time></trkpt><trkpt lat="43.4348111" lon="12.8524263"><ele>299.0</ele><time>2026-04-18T10:48:18.973Z</time></trkpt><trkpt lat="43.434698" lon="12.8523988"><ele>299.0</ele><time>2026-04-18T10:48:19.984Z</time></trkpt><trkpt lat="43.4345885" lon="12.8523734"><ele>299.0</ele><time>2026-04-18T10:48:20.979Z</time></trkpt><trkpt lat="43.4344805" lon="12.852349"><ele>299.0</ele><time>2026-04-18T10:48:21.98Z</time></trkpt><trkpt lat="43.4343778" lon="12.852359"><ele>299.0</ele><time>2026-04-18T10:48:22.978Z</time></trkpt><trkpt lat="43.4342753" lon="12.8523807"><ele>299.5</ele><time>2026-04-18T10:48:23.98Z</time></trkpt><trkpt lat="43.4341674" lon="12.8524053"><ele>300.0</ele><time>2026-04-18T10:48:24.978Z</time></trkpt><trkpt lat="43.4340566" lon="12.8524272"><ele>300.5</ele><time>2026-04-18T10:48:25.983Z</time></trkpt><trkpt lat="43.4339426" lon="12.8524547"><ele>301.0</ele><time>2026-04-18T10:48:26.975Z</time></trkpt><trkpt lat="43.4338324" lon="12.852494"><ele>300.25</ele><time>2026-04-18T10:48:27.979Z</time></trkpt><trkpt lat="43.4337194" lon="12.8525491"><ele>299.5</ele><time>2026-04-18T10:48:28.979Z</time></trkpt><trkpt lat="43.4336102" lon="12.8526222"><ele>298.75</ele><time>2026-04-18T10:48:29.987Z</time></trkpt><trkpt lat="43.4335037" lon="12.8527191"><ele>298.0</ele><time>2026-04-18T10:48:30.983Z</time></trkpt><trkpt lat="43.4333957" lon="12.85282"><ele>298.0</ele><time>2026-04-18T10:48:31.985Z</time></trkpt><trkpt lat="43.4332859" lon="12.8529438"><ele>298.0</ele><time>2026-04-18T10:48:32.976Z</time></trkpt><trkpt lat="43.4331788" lon="12.8530487"><ele>298.0</ele><time>2026-04-18T10:48:33.984Z</time></trkpt><trkpt lat="43.4330804" lon="12.8531484"><ele>298.0</ele><time>2026-04-18T10:48:34.978Z</time></trkpt><trkpt lat="43.4329819" lon="12.8532505"><ele>297.5</ele><time>2026-04-18T10:48:35.987Z</time></trkpt><trkpt lat="43.432886" lon="12.8533517"><ele>297.0</ele><time>2026-04-18T10:48:36.984Z</time></trkpt><trkpt lat="43.4327914" lon="12.8534415"><ele>296.5</ele><time>2026-04-18T10:48:37.981Z</time></trkpt><trkpt lat="43.4326942" lon="12.8535234"><ele>296.0</ele><time>2026-04-18T10:48:38.986Z</time></trkpt><trkpt lat="43.4326031" lon="12.8536124"><ele>296.0</ele><time>2026-04-18T10:48:39.984Z</time></trkpt><trkpt lat="43.4325202" lon="12.8536938"><ele>296.0</ele><time>2026-04-18T10:48:40.98Z</time></trkpt><trkpt lat="43.4324401" lon="12.8537708"><ele>296.0</ele><time>2026-04-18T10:48:41.986Z</time></trkpt><trkpt lat="43.4323592" lon="12.8538474"><ele>296.0</ele><time>2026-04-18T10:48:42.986Z</time></trkpt><trkpt lat="43.4322878" lon="12.8539275"><ele>296.0</ele><time>2026-04-18T10:48:44Z</time></trkpt><trkpt lat="43.4322174" lon="12.8540113"><ele>296.0</ele><time>2026-04-18T10:48:44.978Z</time></trkpt><trkpt lat="43.4321443" lon="12.8540856"><ele>296.0</ele><time>2026-04-18T10:48:45.987Z</time></trkpt><trkpt lat="43.4320818" lon="12.8541596"><ele>296.0</ele><time>2026-04-18T10:48:46.983Z</time></trkpt><trkpt lat="43.4320198" lon="12.8542255"><ele>296.0</ele><time>2026-04-18T10:48:47.981Z</time></trkpt><trkpt lat="43.4319873" lon="12.854378"><ele>296.0</ele><time>2026-04-18T10:48:49.984Z</time></trkpt><trkpt lat="43.4320199" lon="12.8544711"><ele>296.0</ele><time>2026-04-18T10:48:50.972Z</time></trkpt><trkpt lat="43.432065" lon="12.8545682"><ele>296.0</ele><time>2026-04-18T10:48:51.981Z</time></trkpt><trkpt lat="43.4321202" lon="12.8546735"><ele>296.0</ele><time>2026-04-18T10:48:52.979Z</time></trkpt><trkpt lat="43.4321861" lon="12.8547819"><ele>296.0</ele><time>2026-04-18T10:48:53.986Z</time></trkpt><trkpt lat="43.432252" lon="12.8548982"><ele>296.0</ele><time>2026-04-18T10:48:54.977Z</time></trkpt><trkpt lat="43.4323083" lon="12.8550138"><ele>296.0</ele><time>2026-04-18T10:48:55.985Z</time></trkpt><trkpt lat="43.4323624" lon="12.8551132"><ele>295.83333333333337</ele><time>2026-04-18T10:48:56.993Z</time></trkpt><trkpt lat="43.4324111" lon="12.8552094"><ele>295.6666666666667</ele><time>2026-04-18T10:48:57.986Z</time></trkpt><trkpt lat="43.4324588" lon="12.8552904"><ele>295.5</ele><time>2026-04-18T10:48:58.978Z</time></trkpt><trkpt lat="43.4324984" lon="12.855366"><ele>295.3333333333333</ele><time>2026-04-18T10:48:59.983Z</time></trkpt><trkpt lat="43.432534" lon="12.8554728"><ele>295.16666666666663</ele><time>2026-04-18T10:49:01.982Z</time></trkpt><trkpt lat="43.4325007" lon="12.8555769"><ele>295.0</ele><time>2026-04-18T10:49:03.984Z</time></trkpt><trkpt lat="43.4323934" lon="12.8557026"><ele>295.0</ele><time>2026-04-18T10:49:05.983Z</time></trkpt><trkpt lat="43.4323374" lon="12.8557758"><ele>295.0</ele><time>2026-04-18T10:49:06.988Z</time></trkpt><trkpt lat="43.4322834" lon="12.8558603"><ele>295.0</ele><time>2026-04-18T10:49:07.98Z</time></trkpt><trkpt lat="43.4322271" lon="12.8559502"><ele>295.0</ele><time>2026-04-18T10:49:08.983Z</time></trkpt><trkpt lat="43.4321618" lon="12.8560534"><ele>295.0</ele><time>2026-04-18T10:49:09.988Z</time></trkpt><trkpt lat="43.432092" lon="12.8561579"><ele>295.0</ele><time>2026-04-18T10:49:10.976Z</time></trkpt><trkpt lat="43.4320238" lon="12.8562571"><ele>293.4</ele><time>2026-04-18T10:49:11.977Z</time></trkpt><trkpt lat="43.4319576" lon="12.8563633"><ele>291.8</ele><time>2026-04-18T10:49:12.968Z</time></trkpt><trkpt lat="43.4318943" lon="12.8564604"><ele>290.2</ele><time>2026-04-18T10:49:13.987Z</time></trkpt><trkpt lat="43.4318291" lon="12.8565511"><ele>288.6</ele><time>2026-04-18T10:49:14.974Z</time></trkpt><trkpt lat="43.4317687" lon="12.8566426"><ele>287.0</ele><time>2026-04-18T10:49:15.982Z</time></trkpt><trkpt lat="43.4317078" lon="12.8567263"><ele>286.0</ele><time>2026-04-18T10:49:16.975Z</time></trkpt><trkpt lat="43.4316392" lon="12.8568044"><ele>285.0</ele><time>2026-04-18T10:49:17.982Z</time></trkpt><trkpt lat="43.4315681" lon="12.8568836"><ele>284.0</ele><time>2026-04-18T10:49:18.979Z</time></trkpt><trkpt lat="43.4314799" lon="12.8569607"><ele>283.0</ele><time>2026-04-18T10:49:19.988Z</time></trkpt><trkpt lat="43.431382" lon="12.8570278"><ele>282.0</ele><time>2026-04-18T10:49:20.979Z</time></trkpt><trkpt lat="43.431292" lon="12.8570978"><ele>282.0</ele><time>2026-04-18T10:49:21.973Z</time></trkpt><trkpt lat="43.4312065" lon="12.8571553"><ele>282.0</ele><time>2026-04-18T10:49:22.981Z</time></trkpt><trkpt lat="43.4311232" lon="12.8572103"><ele>282.0</ele><time>2026-04-18T10:49:23.983Z</time></trkpt><trkpt lat="43.4310488" lon="12.8572671"><ele>282.0</ele><time>2026-04-18T10:49:24.973Z</time></trkpt><trkpt lat="43.4309765" lon="12.8573202"><ele>282.0</ele><time>2026-04-18T10:49:25.983Z</time></trkpt><trkpt lat="43.4309107" lon="12.8573689"><ele>282.0</ele><time>2026-04-18T10:49:26.974Z</time></trkpt><trkpt lat="43.4308592" lon="12.8574239"><ele>282.0</ele><time>2026-04-18T10:49:27.996Z</time></trkpt><trkpt lat="43.4308011" lon="12.8574656"><ele>282.0</ele><time>2026-04-18T10:49:28.973Z</time></trkpt><trkpt lat="43.4307398" lon="12.8575144"><ele>282.0</ele><time>2026-04-18T10:49:29.977Z</time></trkpt><trkpt lat="43.4306871" lon="12.8575649"><ele>282.0</ele><time>2026-04-18T10:49:30.973Z</time></trkpt><trkpt lat="43.4306146" lon="12.8576551"><ele>282.0</ele><time>2026-04-18T10:49:32.985Z</time></trkpt><trkpt lat="43.4305611" lon="12.8577329"><ele>282.0</ele><time>2026-04-18T10:49:42.992Z</time></trkpt><trkpt lat="43.4304564" lon="12.8577129"><ele>282.2</ele><time>2026-04-18T10:49:44.985Z</time></trkpt><trkpt lat="43.4303567" lon="12.857636"><ele>282.4</ele><time>2026-04-18T10:49:46.98Z</time></trkpt><trkpt lat="43.4302693" lon="12.8575853"><ele>282.6</ele><time>2026-04-18T10:49:48.985Z</time></trkpt><trkpt lat="43.4302218" lon="12.8577054"><ele>282.8</ele><time>2026-04-18T10:49:50.979Z</time></trkpt><trkpt lat="43.4302227" lon="12.8578564"><ele>283.0</ele><time>2026-04-18T10:49:52.979Z</time></trkpt><trkpt lat="43.4302104" lon="12.8580214"><ele>283.0</ele><time>2026-04-18T10:49:54.975Z</time></trkpt><trkpt lat="43.4302032" lon="12.8581123"><ele>283.0</ele><time>2026-04-18T10:49:55.991Z</time></trkpt><trkpt lat="43.4302048" lon="12.8582078"><ele>283.0</ele><time>2026-04-18T10:49:56.987Z</time></trkpt><trkpt lat="43.4302155" lon="12.8583058"><ele>283.0</ele><time>2026-04-18T10:49:57.984Z</time></trkpt><trkpt lat="43.430233" lon="12.858407"><ele>283.0</ele><time>2026-04-18T10:49:58.983Z</time></trkpt><trkpt lat="43.4302635" lon="12.858513"><ele>283.0</ele><time>2026-04-18T10:49:59.972Z</time></trkpt><trkpt lat="43.4303069" lon="12.8586265"><ele>282.6</ele><time>2026-04-18T10:50:00.978Z</time></trkpt><trkpt lat="43.4303487" lon="12.8587424"><ele>282.20000000000005</ele><time>2026-04-18T10:50:01.983Z</time></trkpt><trkpt lat="43.4303893" lon="12.8588706"><ele>281.8</ele><time>2026-04-18T10:50:02.98Z</time></trkpt><trkpt lat="43.430437" lon="12.8589939"><ele>281.40000000000003</ele><time>2026-04-18T10:50:03.975Z</time></trkpt><trkpt lat="43.4304903" lon="12.859108"><ele>281.0</ele><time>2026-04-18T10:50:04.977Z</time></trkpt><trkpt lat="43.4305403" lon="12.8592283"><ele>281.8</ele><time>2026-04-18T10:50:05.978Z</time></trkpt><trkpt lat="43.4305994" lon="12.8593544"><ele>282.6</ele><time>2026-04-18T10:50:06.976Z</time></trkpt><trkpt lat="43.4306582" lon="12.8594806"><ele>283.4</ele><time>2026-04-18T10:50:07.986Z</time></trkpt><trkpt lat="43.4307235" lon="12.8596018"><ele>284.2</ele><time>2026-04-18T10:50:08.976Z</time></trkpt><trkpt lat="43.4307812" lon="12.8597337"><ele>285.0</ele><time>2026-04-18T10:50:09.98Z</time></trkpt><trkpt lat="43.4308322" lon="12.8598668"><ele>285.0</ele><time>2026-04-18T10:50:10.981Z</time></trkpt><trkpt lat="43.4308668" lon="12.8600143"><ele>285.0</ele><time>2026-04-18T10:50:11.981Z</time></trkpt><trkpt lat="43.4308928" lon="12.8601693"><ele>285.0</ele><time>2026-04-18T10:50:12.972Z</time></trkpt><trkpt lat="43.4309094" lon="12.8603312"><ele>285.0</ele><time>2026-04-18T10:50:13.984Z</time></trkpt><trkpt lat="43.4309203" lon="12.8604955"><ele>287.25</ele><time>2026-04-18T10:50:14.984Z</time></trkpt><trkpt lat="43.4309274" lon="12.8606704"><ele>289.5</ele><time>2026-04-18T10:50:15.98Z</time></trkpt><trkpt lat="43.4309334" lon="12.8608493"><ele>291.75</ele><time>2026-04-18T10:50:16.98Z</time></trkpt><trkpt lat="43.4309374" lon="12.8610409"><ele>294.0</ele><time>2026-04-18T10:50:17.982Z</time></trkpt><trkpt lat="43.4309385" lon="12.8612405"><ele>294.75</ele><time>2026-04-18T10:50:18.967Z</time></trkpt><trkpt lat="43.4309473" lon="12.8614365"><ele>295.5</ele><time>2026-04-18T10:50:19.974Z</time></trkpt><trkpt lat="43.4309646" lon="12.8616371"><ele>296.25</ele><time>2026-04-18T10:50:20.977Z</time></trkpt><trkpt lat="43.4309815" lon="12.8618318"><ele>297.0</ele><time>2026-04-18T10:50:21.972Z</time></trkpt><trkpt lat="43.4310032" lon="12.8620292"><ele>297.75</ele><time>2026-04-18T10:50:22.968Z</time></trkpt><trkpt lat="43.4310344" lon="12.8622202"><ele>298.5</ele><time>2026-04-18T10:50:23.995Z</time></trkpt><trkpt lat="43.4310724" lon="12.8623923"><ele>299.25</ele><time>2026-04-18T10:50:24.977Z</time></trkpt><trkpt lat="43.431115" lon="12.8625524"><ele>300.0</ele><time>2026-04-18T10:50:25.973Z</time></trkpt><trkpt lat="43.4311629" lon="12.8627153"><ele>301.25</ele><time>2026-04-18T10:50:26.97Z</time></trkpt><trkpt lat="43.4312172" lon="12.862877"><ele>302.5</ele><time>2026-04-18T10:50:27.983Z</time></trkpt><trkpt lat="43.4312756" lon="12.8630414"><ele>303.75</ele><time>2026-04-18T10:50:28.966Z</time></trkpt><trkpt lat="43.4313389" lon="12.8631956"><ele>305.0</ele><time>2026-04-18T10:50:29.978Z</time></trkpt><trkpt lat="43.431404" lon="12.8633663"><ele>301.0</ele><time>2026-04-18T10:50:30.972Z</time></trkpt><trkpt lat="43.4314683" lon="12.8635471"><ele>297.0</ele><time>2026-04-18T10:50:31.983Z</time></trkpt><trkpt lat="43.4315383" lon="12.8637315"><ele>293.0</ele><time>2026-04-18T10:50:32.964Z</time></trkpt><trkpt lat="43.4316062" lon="12.8639179"><ele>289.0</ele><time>2026-04-18T10:50:33.994Z</time></trkpt><trkpt lat="43.4316777" lon="12.8641049"><ele>290.5</ele><time>2026-04-18T10:50:34.974Z</time></trkpt><trkpt lat="43.4317427" lon="12.8642877"><ele>292.0</ele><time>2026-04-18T10:50:35.972Z</time></trkpt><trkpt lat="43.4318024" lon="12.864472"><ele>293.5</ele><time>2026-04-18T10:50:36.971Z</time></trkpt><trkpt lat="43.4318485" lon="12.8646598"><ele>295.0</ele><time>2026-04-18T10:50:37.979Z</time></trkpt><trkpt lat="43.4318696" lon="12.8648508"><ele>295.0</ele><time>2026-04-18T10:50:38.978Z</time></trkpt><trkpt lat="43.4318683" lon="12.8650465"><ele>295.0</ele><time>2026-04-18T10:50:39.975Z</time></trkpt><trkpt lat="43.4318627" lon="12.8652446"><ele>295.0</ele><time>2026-04-18T10:50:40.982Z</time></trkpt><trkpt lat="43.4318637" lon="12.8654479"><ele>295.0</ele><time>2026-04-18T10:50:41.979Z</time></trkpt><trkpt lat="43.431869" lon="12.8656548"><ele>295.3333333333333</ele><time>2026-04-18T10:50:42.978Z</time></trkpt><trkpt lat="43.4318742" lon="12.8658657"><ele>295.6666666666667</ele><time>2026-04-18T10:50:43.98Z</time></trkpt><trkpt lat="43.4318811" lon="12.8660787"><ele>296.0</ele><time>2026-04-18T10:50:44.971Z</time></trkpt><trkpt lat="43.4318943" lon="12.866291"><ele>298.33333333333337</ele><time>2026-04-18T10:50:45.971Z</time></trkpt><trkpt lat="43.4319087" lon="12.8665059"><ele>300.6666666666667</ele><time>2026-04-18T10:50:46.971Z</time></trkpt><trkpt lat="43.4319245" lon="12.8667156"><ele>303.0</ele><time>2026-04-18T10:50:47.981Z</time></trkpt><trkpt lat="43.4319411" lon="12.8669142"><ele>303.5</ele><time>2026-04-18T10:50:48.98Z</time></trkpt><trkpt lat="43.4319536" lon="12.8671017"><ele>304.0</ele><time>2026-04-18T10:50:49.973Z</time></trkpt><trkpt lat="43.4319585" lon="12.8672766"><ele>304.5</ele><time>2026-04-18T10:50:50.974Z</time></trkpt><trkpt lat="43.4319718" lon="12.8674582"><ele>305.0</ele><time>2026-04-18T10:50:51.976Z</time></trkpt><trkpt lat="43.4319833" lon="12.8676358"><ele>305.0</ele><time>2026-04-18T10:50:52.98Z</time></trkpt><trkpt lat="43.4319919" lon="12.8678175"><ele>305.0</ele><time>2026-04-18T10:50:53.973Z</time></trkpt><trkpt lat="43.4320008" lon="12.868003"><ele>305.0</ele><time>2026-04-18T10:50:54.979Z</time></trkpt><trkpt lat="43.4320082" lon="12.8681899"><ele>305.0</ele><time>2026-04-18T10:50:55.978Z</time></trkpt><trkpt lat="43.4320138" lon="12.8683724"><ele>306.75</ele><time>2026-04-18T10:50:56.974Z</time></trkpt><trkpt lat="43.432019" lon="12.8685606"><ele>308.5</ele><time>2026-04-18T10:50:57.965Z</time></trkpt><trkpt lat="43.4320319" lon="12.8687545"><ele>310.25</ele><time>2026-04-18T10:50:58.972Z</time></trkpt><trkpt lat="43.4320552" lon="12.8689458"><ele>312.0</ele><time>2026-04-18T10:50:59.975Z</time></trkpt><trkpt lat="43.4320786" lon="12.8691419"><ele>314.5</ele><time>2026-04-18T10:51:00.975Z</time></trkpt><trkpt lat="43.4320972" lon="12.8693398"><ele>317.0</ele><time>2026-04-18T10:51:01.98Z</time></trkpt><trkpt lat="43.4321169" lon="12.8695417"><ele>319.5</ele><time>2026-04-18T10:51:02.978Z</time></trkpt><trkpt lat="43.4321405" lon="12.8697408"><ele>322.0</ele><time>2026-04-18T10:51:03.979Z</time></trkpt><trkpt lat="43.4321597" lon="12.8699297"><ele>312.75</ele><time>2026-04-18T10:51:04.976Z</time></trkpt><trkpt lat="43.4321832" lon="12.8701146"><ele>303.5</ele><time>2026-04-18T10:51:05.984Z</time></trkpt><trkpt lat="43.4322066" lon="12.8702956"><ele>294.25</ele><time>2026-04-18T10:51:06.974Z</time></trkpt><trkpt lat="43.4322422" lon="12.8704784"><ele>285.0</ele><time>2026-04-18T10:51:07.976Z</time></trkpt><trkpt lat="43.4322832" lon="12.8706567"><ele>285.0</ele><time>2026-04-18T10:51:08.985Z</time></trkpt><trkpt lat="43.432324" lon="12.8708334"><ele>285.0</ele><time>2026-04-18T10:51:09.98Z</time></trkpt><trkpt lat="43.4323583" lon="12.8710056"><ele>285.0</ele><time>2026-04-18T10:51:10.983Z</time></trkpt><trkpt lat="43.4324033" lon="12.8711815"><ele>285.0</ele><time>2026-04-18T10:51:11.983Z</time></trkpt><trkpt lat="43.432439" lon="12.8713553"><ele>285.25</ele><time>2026-04-18T10:51:12.977Z</time></trkpt><trkpt lat="43.4324706" lon="12.8715245"><ele>285.5</ele><time>2026-04-18T10:51:13.981Z</time></trkpt><trkpt lat="43.4324949" lon="12.8716879"><ele>285.75</ele><time>2026-04-18T10:51:14.977Z</time></trkpt><trkpt lat="43.4325245" lon="12.8718517"><ele>286.0</ele><time>2026-04-18T10:51:15.982Z</time></trkpt><trkpt lat="43.4325525" lon="12.8720162"><ele>286.0</ele><time>2026-04-18T10:51:16.981Z</time></trkpt><trkpt lat="43.4325785" lon="12.8721789"><ele>286.0</ele><time>2026-04-18T10:51:17.993Z</time></trkpt><trkpt lat="43.4326023" lon="12.8723445"><ele>286.0</ele><time>2026-04-18T10:51:18.979Z</time></trkpt><trkpt lat="43.4326329" lon="12.8725148"><ele>286.0</ele><time>2026-04-18T10:51:19.982Z</time></trkpt><trkpt lat="43.432663" lon="12.8726874"><ele>286.0</ele><time>2026-04-18T10:51:20.975Z</time></trkpt><trkpt lat="43.4326949" lon="12.8728619"><ele>286.0</ele><time>2026-04-18T10:51:21.995Z</time></trkpt><trkpt lat="43.4327302" lon="12.8730459"><ele>286.0</ele><time>2026-04-18T10:51:22.993Z</time></trkpt><trkpt lat="43.4327618" lon="12.873231"><ele>286.0</ele><time>2026-04-18T10:51:23.976Z</time></trkpt><trkpt lat="43.432792" lon="12.8734202"><ele>286.75</ele><time>2026-04-18T10:51:24.976Z</time></trkpt><trkpt lat="43.4328178" lon="12.8736043"><ele>287.5</ele><time>2026-04-18T10:51:25.969Z</time></trkpt><trkpt lat="43.4328486" lon="12.8737892"><ele>288.25</ele><time>2026-04-18T10:51:26.977Z</time></trkpt><trkpt lat="43.4328885" lon="12.8739771"><ele>289.0</ele><time>2026-04-18T10:51:27.976Z</time></trkpt><trkpt lat="43.4329247" lon="12.8741598"><ele>288.75</ele><time>2026-04-18T10:51:28.978Z</time></trkpt><trkpt lat="43.4329643" lon="12.8743325"><ele>288.5</ele><time>2026-04-18T10:51:29.979Z</time></trkpt><trkpt lat="43.4330086" lon="12.8745065"><ele>288.25</ele><time>2026-04-18T10:51:30.976Z</time></trkpt><trkpt lat="43.4330507" lon="12.8746855"><ele>288.0</ele><time>2026-04-18T10:51:31.978Z</time></trkpt><trkpt lat="43.4331001" lon="12.8748709"><ele>287.25</ele><time>2026-04-18T10:51:32.974Z</time></trkpt><trkpt lat="43.433148" lon="12.8750549"><ele>286.5</ele><time>2026-04-18T10:51:33.981Z</time></trkpt><trkpt lat="43.4331979" lon="12.875234"><ele>285.75</ele><time>2026-04-18T10:51:34.976Z</time></trkpt><trkpt lat="43.4332496" lon="12.8754151"><ele>285.0</ele><time>2026-04-18T10:51:35.998Z</time></trkpt><trkpt lat="43.4332925" lon="12.875594"><ele>284.5</ele><time>2026-04-18T10:51:36.978Z</time></trkpt><trkpt lat="43.433334" lon="12.8757713"><ele>284.0</ele><time>2026-04-18T10:51:37.98Z</time></trkpt><trkpt lat="43.4333731" lon="12.8759479"><ele>283.5</ele><time>2026-04-18T10:51:38.971Z</time></trkpt><trkpt lat="43.4334117" lon="12.8761218"><ele>283.0</ele><time>2026-04-18T10:51:39.979Z</time></trkpt><trkpt lat="43.4334487" lon="12.8762964"><ele>283.0</ele><time>2026-04-18T10:51:40.976Z</time></trkpt><trkpt lat="43.4334845" lon="12.8764693"><ele>283.0</ele><time>2026-04-18T10:51:41.977Z</time></trkpt><trkpt lat="43.433519" lon="12.8766327"><ele>283.0</ele><time>2026-04-18T10:51:42.976Z</time></trkpt><trkpt lat="43.4335609" lon="12.8767922"><ele>283.0</ele><time>2026-04-18T10:51:43.979Z</time></trkpt><trkpt lat="43.4336106" lon="12.8769481"><ele>283.75</ele><time>2026-04-18T10:51:44.982Z</time></trkpt><trkpt lat="43.4336661" lon="12.8770934"><ele>284.5</ele><time>2026-04-18T10:51:45.979Z</time></trkpt><trkpt lat="43.4337321" lon="12.8772352"><ele>285.25</ele><time>2026-04-18T10:51:46.978Z</time></trkpt><trkpt lat="43.4337911" lon="12.8773699"><ele>286.0</ele><time>2026-04-18T10:51:47.985Z</time></trkpt><trkpt lat="43.4338446" lon="12.8775102"><ele>284.5</ele><time>2026-04-18T10:51:48.976Z</time></trkpt><trkpt lat="43.4338854" lon="12.877652"><ele>283.0</ele><time>2026-04-18T10:51:49.981Z</time></trkpt><trkpt lat="43.4339143" lon="12.8778065"><ele>281.5</ele><time>2026-04-18T10:51:50.979Z</time></trkpt><trkpt lat="43.4339374" lon="12.8779694"><ele>280.0</ele><time>2026-04-18T10:51:51.977Z</time></trkpt><trkpt lat="43.433953" lon="12.8781394"><ele>280.0</ele><time>2026-04-18T10:51:52.972Z</time></trkpt><trkpt lat="43.4339569" lon="12.8783112"><ele>280.0</ele><time>2026-04-18T10:51:53.979Z</time></trkpt><trkpt lat="43.4339507" lon="12.8784891"><ele>280.0</ele><time>2026-04-18T10:51:54.985Z</time></trkpt><trkpt lat="43.4339289" lon="12.8786639"><ele>280.0</ele><time>2026-04-18T10:51:55.98Z</time></trkpt><trkpt lat="43.4338897" lon="12.878836"><ele>280.25</ele><time>2026-04-18T10:51:56.969Z</time></trkpt><trkpt lat="43.4338382" lon="12.8790017"><ele>280.5</ele><time>2026-04-18T10:51:57.977Z</time></trkpt><trkpt lat="43.4337862" lon="12.8791593"><ele>280.75</ele><time>2026-04-18T10:51:58.971Z</time></trkpt><trkpt lat="43.4337356" lon="12.8793192"><ele>281.0</ele><time>2026-04-18T10:51:59.966Z</time></trkpt><trkpt lat="43.4336908" lon="12.8794803"><ele>284.75</ele><time>2026-04-18T10:52:00.974Z</time></trkpt><trkpt lat="43.4336414" lon="12.8796394"><ele>288.5</ele><time>2026-04-18T10:52:01.979Z</time></trkpt><trkpt lat="43.4335951" lon="12.8797987"><ele>292.25</ele><time>2026-04-18T10:52:02.982Z</time></trkpt><trkpt lat="43.4335473" lon="12.8799487"><ele>296.0</ele><time>2026-04-18T10:52:03.975Z</time></trkpt><trkpt lat="43.4335113" lon="12.8800868"><ele>297.0</ele><time>2026-04-18T10:52:04.972Z</time></trkpt><trkpt lat="43.4334822" lon="12.8802113"><ele>298.0</ele><time>2026-04-18T10:52:05.972Z</time></trkpt><trkpt lat="43.4334627" lon="12.8803334"><ele>299.0</ele><time>2026-04-18T10:52:06.987Z</time></trkpt><trkpt lat="43.4334578" lon="12.8804565"><ele>300.0</ele><time>2026-04-18T10:52:07.983Z</time></trkpt><trkpt lat="43.4334593" lon="12.8805771"><ele>301.0</ele><time>2026-04-18T10:52:08.98Z</time></trkpt><trkpt lat="43.4334746" lon="12.8806973"><ele>301.0</ele><time>2026-04-18T10:52:09.983Z</time></trkpt><trkpt lat="43.4334881" lon="12.8808259"><ele>301.0</ele><time>2026-04-18T10:52:10.98Z</time></trkpt><trkpt lat="43.4335078" lon="12.880963"><ele>301.0</ele><time>2026-04-18T10:52:11.979Z</time></trkpt><trkpt lat="43.4335226" lon="12.8811167"><ele>301.0</ele><time>2026-04-18T10:52:12.969Z</time></trkpt><trkpt lat="43.433534" lon="12.8812795"><ele>301.0</ele><time>2026-04-18T10:52:13.973Z</time></trkpt><trkpt lat="43.4335482" lon="12.8814554"><ele>302.0</ele><time>2026-04-18T10:52:14.984Z</time></trkpt><trkpt lat="43.4335705" lon="12.881626"><ele>303.0</ele><time>2026-04-18T10:52:15.982Z</time></trkpt><trkpt lat="43.433598" lon="12.8817871"><ele>304.0</ele><time>2026-04-18T10:52:16.975Z</time></trkpt><trkpt lat="43.4336251" lon="12.8819419"><ele>305.0</ele><time>2026-04-18T10:52:17.982Z</time></trkpt><trkpt lat="43.4336519" lon="12.8820897"><ele>306.75</ele><time>2026-04-18T10:52:18.974Z</time></trkpt><trkpt lat="43.4336795" lon="12.8822422"><ele>308.5</ele><time>2026-04-18T10:52:19.985Z</time></trkpt><trkpt lat="43.4337086" lon="12.882401"><ele>310.25</ele><time>2026-04-18T10:52:20.978Z</time></trkpt><trkpt lat="43.4337259" lon="12.8825659"><ele>312.0</ele><time>2026-04-18T10:52:21.989Z</time></trkpt><trkpt lat="43.4337456" lon="12.8827344"><ele>313.25</ele><time>2026-04-18T10:52:22.98Z</time></trkpt><trkpt lat="43.4337537" lon="12.8829016"><ele>314.5</ele><time>2026-04-18T10:52:23.978Z</time></trkpt><trkpt lat="43.433746" lon="12.8830688"><ele>315.75</ele><time>2026-04-18T10:52:24.986Z</time></trkpt><trkpt lat="43.4337217" lon="12.8832398"><ele>317.0</ele><time>2026-04-18T10:52:25.992Z</time></trkpt><trkpt lat="43.4336922" lon="12.883409"><ele>317.75</ele><time>2026-04-18T10:52:26.991Z</time></trkpt><trkpt lat="43.4336652" lon="12.8835738"><ele>318.5</ele><time>2026-04-18T10:52:27.976Z</time></trkpt><trkpt lat="43.4336448" lon="12.8837481"><ele>319.25</ele><time>2026-04-18T10:52:28.975Z</time></trkpt><trkpt lat="43.4336362" lon="12.8839261"><ele>320.0</ele><time>2026-04-18T10:52:30Z</time></trkpt><trkpt lat="43.4336484" lon="12.8841073"><ele>320.5</ele><time>2026-04-18T10:52:30.994Z</time></trkpt><trkpt lat="43.4336631" lon="12.8842882"><ele>321.0</ele><time>2026-04-18T10:52:31.995Z</time></trkpt><trkpt lat="43.4336804" lon="12.8844699"><ele>321.5</ele><time>2026-04-18T10:52:32.984Z</time></trkpt><trkpt lat="43.4336892" lon="12.8846415"><ele>322.0</ele><time>2026-04-18T10:52:33.98Z</time></trkpt><trkpt lat="43.4336832" lon="12.8847923"><ele>322.0</ele><time>2026-04-18T10:52:34.99Z</time></trkpt><trkpt lat="43.433657" lon="12.884933"><ele>322.0</ele><time>2026-04-18T10:52:35.98Z</time></trkpt><trkpt lat="43.4336009" lon="12.8850479"><ele>322.0</ele><time>2026-04-18T10:52:36.982Z</time></trkpt><trkpt lat="43.4335411" lon="12.8851479"><ele>322.0</ele><time>2026-04-18T10:52:37.981Z</time></trkpt><trkpt lat="43.4334711" lon="12.8852365"><ele>322.0</ele><time>2026-04-18T10:52:38.984Z</time></trkpt><trkpt lat="43.433382" lon="12.8852962"><ele>319.5</ele><time>2026-04-18T10:52:39.989Z</time></trkpt><trkpt lat="43.4332778" lon="12.8853207"><ele>317.0</ele><time>2026-04-18T10:52:40.985Z</time></trkpt><trkpt lat="43.4331633" lon="12.8853391"><ele>314.5</ele><time>2026-04-18T10:52:41.987Z</time></trkpt><trkpt lat="43.4330474" lon="12.8853562"><ele>312.0</ele><time>2026-04-18T10:52:42.98Z</time></trkpt><trkpt lat="43.4329296" lon="12.8853732"><ele>311.75</ele><time>2026-04-18T10:52:43.991Z</time></trkpt><trkpt lat="43.4328156" lon="12.8853955"><ele>311.5</ele><time>2026-04-18T10:52:44.983Z</time></trkpt><trkpt lat="43.432697" lon="12.8854142"><ele>311.25</ele><time>2026-04-18T10:52:45.991Z</time></trkpt><trkpt lat="43.4325847" lon="12.8854329"><ele>311.0</ele><time>2026-04-18T10:52:46.985Z</time></trkpt><trkpt lat="43.4324717" lon="12.8854472"><ele>311.0</ele><time>2026-04-18T10:52:47.983Z</time></trkpt><trkpt lat="43.432348" lon="12.8854629"><ele>311.0</ele><time>2026-04-18T10:52:48.973Z</time></trkpt><trkpt lat="43.4322283" lon="12.8854728"><ele>311.0</ele><time>2026-04-18T10:52:49.976Z</time></trkpt><trkpt lat="43.4321115" lon="12.8854842"><ele>311.0</ele><time>2026-04-18T10:52:50.979Z</time></trkpt><trkpt lat="43.431993" lon="12.885493"><ele>310.75</ele><time>2026-04-18T10:52:51.987Z</time></trkpt><trkpt lat="43.4318754" lon="12.8855001"><ele>310.5</ele><time>2026-04-18T10:52:52.975Z</time></trkpt><trkpt lat="43.4317528" lon="12.8855095"><ele>310.25</ele><time>2026-04-18T10:52:53.975Z</time></trkpt><trkpt lat="43.4316331" lon="12.8855146"><ele>310.0</ele><time>2026-04-18T10:52:54.977Z</time></trkpt><trkpt lat="43.4315121" lon="12.8855417"><ele>310.0</ele><time>2026-04-18T10:52:55.974Z</time></trkpt><trkpt lat="43.4313943" lon="12.885575"><ele>310.0</ele><time>2026-04-18T10:52:56.974Z</time></trkpt><trkpt lat="43.4312803" lon="12.8856108"><ele>310.0</ele><time>2026-04-18T10:52:57.97Z</time></trkpt><trkpt lat="43.4311689" lon="12.8856168"><ele>310.0</ele><time>2026-04-18T10:52:58.972Z</time></trkpt><trkpt lat="43.4310605" lon="12.8856073"><ele>309.4</ele><time>2026-04-18T10:52:59.969Z</time></trkpt><trkpt lat="43.430953" lon="12.8855888"><ele>308.8</ele><time>2026-04-18T10:53:00.972Z</time></trkpt><trkpt lat="43.430848" lon="12.885565"><ele>308.2</ele><time>2026-04-18T10:53:01.977Z</time></trkpt><trkpt lat="43.4307538" lon="12.885542"><ele>307.6</ele><time>2026-04-18T10:53:02.965Z</time></trkpt><trkpt lat="43.430662" lon="12.8855198"><ele>307.0</ele><time>2026-04-18T10:53:03.977Z</time></trkpt><trkpt lat="43.4305701" lon="12.8855033"><ele>307.0</ele><time>2026-04-18T10:53:04.969Z</time></trkpt><trkpt lat="43.4304788" lon="12.8854935"><ele>307.0</ele><time>2026-04-18T10:53:05.971Z</time></trkpt><trkpt lat="43.4303909" lon="12.8855069"><ele>307.0</ele><time>2026-04-18T10:53:06.972Z</time></trkpt><trkpt lat="43.4303251" lon="12.8855517"><ele>307.0</ele><time>2026-04-18T10:53:07.981Z</time></trkpt><trkpt lat="43.4302642" lon="12.8856515"><ele>307.0</ele><time>2026-04-18T10:53:08.963Z</time></trkpt><trkpt lat="43.4302081" lon="12.8857717"><ele>307.0</ele><time>2026-04-18T10:53:09.982Z</time></trkpt><trkpt lat="43.4301579" lon="12.8858785"><ele>307.0</ele><time>2026-04-18T10:53:10.98Z</time></trkpt><trkpt lat="43.4301138" lon="12.8859616"><ele>307.0</ele><time>2026-04-18T10:53:11.981Z</time></trkpt><trkpt lat="43.43007" lon="12.8860425"><ele>307.0</ele><time>2026-04-18T10:53:12.973Z</time></trkpt><trkpt lat="43.4300244" lon="12.886142"><ele>307.0</ele><time>2026-04-18T10:53:14.979Z</time></trkpt><trkpt lat="43.4299918" lon="12.8862316"><ele>307.0</ele><time>2026-04-18T10:54:59.994Z</time></trkpt><trkpt lat="43.4299529" lon="12.8863337"><ele>307.0</ele><time>2026-04-18T10:55:01.982Z</time></trkpt><trkpt lat="43.4298998" lon="12.8864585"><ele>307.0</ele><time>2026-04-18T10:55:03.977Z</time></trkpt><trkpt lat="43.4298603" lon="12.8865385"><ele>307.0</ele><time>2026-04-18T10:55:04.964Z</time></trkpt><trkpt lat="43.4298175" lon="12.8866373"><ele>307.0</ele><time>2026-04-18T10:55:05.97Z</time></trkpt><trkpt lat="43.4297621" lon="12.8867409"><ele>307.0</ele><time>2026-04-18T10:55:06.983Z</time></trkpt><trkpt lat="43.4297048" lon="12.8868489"><ele>307.0</ele><time>2026-04-18T10:55:08Z</time></trkpt><trkpt lat="43.4296429" lon="12.8869781"><ele>309.0</ele><time>2026-04-18T10:55:08.974Z</time></trkpt><trkpt lat="43.4295742" lon="12.8870957"><ele>311.0</ele><time>2026-04-18T10:55:09.976Z</time></trkpt><trkpt lat="43.4295025" lon="12.8871963"><ele>313.0</ele><time>2026-04-18T10:55:10.981Z</time></trkpt><trkpt lat="43.4294235" lon="12.8872852"><ele>315.0</ele><time>2026-04-18T10:55:11.981Z</time></trkpt><trkpt lat="43.4293434" lon="12.8873661"><ele>317.0</ele><time>2026-04-18T10:55:12.974Z</time></trkpt><trkpt lat="43.4292546" lon="12.8874386"><ele>317.0</ele><time>2026-04-18T10:55:13.979Z</time></trkpt><trkpt lat="43.4291702" lon="12.8875251"><ele>317.0</ele><time>2026-04-18T10:55:14.976Z</time></trkpt><trkpt lat="43.4290786" lon="12.887623"><ele>317.0</ele><time>2026-04-18T10:55:15.981Z</time></trkpt><trkpt lat="43.428994" lon="12.8877171"><ele>317.0</ele><time>2026-04-18T10:55:16.997Z</time></trkpt><trkpt lat="43.4289261" lon="12.8877972"><ele>317.0</ele><time>2026-04-18T10:55:17.974Z</time></trkpt><trkpt lat="43.4288791" lon="12.8878808"><ele>319.0</ele><time>2026-04-18T10:55:18.976Z</time></trkpt><trkpt lat="43.4288848" lon="12.8880574"><ele>321.0</ele><time>2026-04-18T10:55:20.977Z</time></trkpt><trkpt lat="43.4289455" lon="12.8881172"><ele>323.0</ele><time>2026-04-18T10:55:21.984Z</time></trkpt><trkpt lat="43.4290245" lon="12.8881074"><ele>325.0</ele><time>2026-04-18T10:55:22.977Z</time></trkpt><trkpt lat="43.4291139" lon="12.8880674"><ele>327.0</ele><time>2026-04-18T10:55:23.975Z</time></trkpt><trkpt lat="43.4292098" lon="12.888022"><ele>327.0</ele><time>2026-04-18T10:55:24.994Z</time></trkpt><trkpt lat="43.4293031" lon="12.8879955"><ele>327.0</ele><time>2026-04-18T10:55:25.977Z</time></trkpt><trkpt lat="43.4293924" lon="12.8880364"><ele>327.0</ele><time>2026-04-18T10:55:26.987Z</time></trkpt><trkpt lat="43.4294491" lon="12.888123"><ele>327.0</ele><time>2026-04-18T10:55:27.977Z</time></trkpt><trkpt lat="43.4294456" lon="12.8882297"><ele>327.0</ele><time>2026-04-18T10:55:28.977Z</time></trkpt><trkpt lat="43.4293992" lon="12.8883347"><ele>327.0</ele><time>2026-04-18T10:55:29.985Z</time></trkpt><trkpt lat="43.4293296" lon="12.888414"><ele>329.6</ele><time>2026-04-18T10:55:30.976Z</time></trkpt><trkpt lat="43.4292456" lon="12.8884943"><ele>332.20000000000005</ele><time>2026-04-18T10:55:31.987Z</time></trkpt><trkpt lat="43.4291513" lon="12.888564"><ele>334.8</ele><time>2026-04-18T10:55:32.972Z</time></trkpt><trkpt lat="43.429054" lon="12.888629"><ele>337.4</ele><time>2026-04-18T10:55:33.977Z</time></trkpt><trkpt lat="43.428946" lon="12.8886974"><ele>340.0</ele><time>2026-04-18T10:55:34.976Z</time></trkpt><trkpt lat="43.4288276" lon="12.8887673"><ele>341.25</ele><time>2026-04-18T10:55:35.973Z</time></trkpt><trkpt lat="43.4287106" lon="12.8888309"><ele>342.5</ele><time>2026-04-18T10:55:36.974Z</time></trkpt><trkpt lat="43.4286019" lon="12.8888939"><ele>343.75</ele><time>2026-04-18T10:55:37.979Z</time></trkpt><trkpt lat="43.4285004" lon="12.8889487"><ele>345.0</ele><time>2026-04-18T10:55:39.004Z</time></trkpt><trkpt lat="43.4283988" lon="12.8890139"><ele>345.0</ele><time>2026-04-18T10:55:39.985Z</time></trkpt><trkpt lat="43.4283036" lon="12.8891025"><ele>345.0</ele><time>2026-04-18T10:55:40.987Z</time></trkpt><trkpt lat="43.4282177" lon="12.8892259"><ele>345.0</ele><time>2026-04-18T10:55:41.981Z</time></trkpt><trkpt lat="43.4281347" lon="12.889357"><ele>345.0</ele><time>2026-04-18T10:55:42.977Z</time></trkpt><trkpt lat="43.4280487" lon="12.8895007"><ele>348.75</ele><time>2026-04-18T10:55:43.989Z</time></trkpt><trkpt lat="43.427954" lon="12.8896277"><ele>352.5</ele><time>2026-04-18T10:55:44.978Z</time></trkpt><trkpt lat="43.4278438" lon="12.889735"><ele>356.25</ele><time>2026-04-18T10:55:45.986Z</time></trkpt><trkpt lat="43.4277268" lon="12.8898474"><ele>360.0</ele><time>2026-04-18T10:55:46.985Z</time></trkpt><trkpt lat="43.4276108" lon="12.8899499"><ele>360.0</ele><time>2026-04-18T10:55:47.979Z</time></trkpt><trkpt lat="43.4275009" lon="12.8900371"><ele>360.0</ele><time>2026-04-18T10:55:48.975Z</time></trkpt><trkpt lat="43.4273799" lon="12.890084"><ele>360.0</ele><time>2026-04-18T10:55:50.001Z</time></trkpt><trkpt lat="43.4272539" lon="12.8901098"><ele>360.0</ele><time>2026-04-18T10:55:50.979Z</time></trkpt><trkpt lat="43.4271448" lon="12.8900958"><ele>361.0</ele><time>2026-04-18T10:55:51.976Z</time></trkpt><trkpt lat="43.4270522" lon="12.8900494"><ele>362.0</ele><time>2026-04-18T10:55:52.987Z</time></trkpt><trkpt lat="43.4269769" lon="12.889977"><ele>363.0</ele><time>2026-04-18T10:55:53.979Z</time></trkpt><trkpt lat="43.4268972" lon="12.889919"><ele>364.0</ele><time>2026-04-18T10:55:54.991Z</time></trkpt><trkpt lat="43.4268054" lon="12.889924"><ele>365.0</ele><time>2026-04-18T10:55:55.984Z</time></trkpt><trkpt lat="43.4267133" lon="12.8899685"><ele>365.0</ele><time>2026-04-18T10:55:56.977Z</time></trkpt><trkpt lat="43.4266217" lon="12.8900414"><ele>365.0</ele><time>2026-04-18T10:55:57.994Z</time></trkpt><trkpt lat="43.4265419" lon="12.8901478"><ele>365.0</ele><time>2026-04-18T10:55:58.978Z</time></trkpt><trkpt lat="43.4264635" lon="12.8902545"><ele>365.0</ele><time>2026-04-18T10:55:59.982Z</time></trkpt><trkpt lat="43.4263814" lon="12.8903659"><ele>365.0</ele><time>2026-04-18T10:56:00.977Z</time></trkpt><trkpt lat="43.4262991" lon="12.8904733"><ele>366.4</ele><time>2026-04-18T10:56:01.983Z</time></trkpt><trkpt lat="43.4262243" lon="12.890558"><ele>367.8</ele><time>2026-04-18T10:56:02.986Z</time></trkpt><trkpt lat="43.4261577" lon="12.890618"><ele>369.20000000000005</ele><time>2026-04-18T10:56:03.984Z</time></trkpt><trkpt lat="43.4260815" lon="12.8906826"><ele>370.6</ele><time>2026-04-18T10:56:04.976Z</time></trkpt><trkpt lat="43.4259956" lon="12.890743"><ele>372.0</ele><time>2026-04-18T10:56:05.981Z</time></trkpt><trkpt lat="43.4259076" lon="12.8907883"><ele>372.0</ele><time>2026-04-18T10:56:06.979Z</time></trkpt><trkpt lat="43.4258158" lon="12.8908079"><ele>372.0</ele><time>2026-04-18T10:56:07.976Z</time></trkpt><trkpt lat="43.4257241" lon="12.8908079"><ele>372.0</ele><time>2026-04-18T10:56:08.982Z</time></trkpt><trkpt lat="43.4256263" lon="12.8907849"><ele>372.0</ele><time>2026-04-18T10:56:09.986Z</time></trkpt><trkpt lat="43.4255275" lon="12.8907582"><ele>372.0</ele><time>2026-04-18T10:56:10.996Z</time></trkpt><trkpt lat="43.4254229" lon="12.8907263"><ele>370.75</ele><time>2026-04-18T10:56:11.998Z</time></trkpt><trkpt lat="43.4253128" lon="12.8906861"><ele>369.5</ele><time>2026-04-18T10:56:12.974Z</time></trkpt><trkpt lat="43.4251997" lon="12.8906439"><ele>368.25</ele><time>2026-04-18T10:56:13.989Z</time></trkpt><trkpt lat="43.4250932" lon="12.8905892"><ele>367.0</ele><time>2026-04-18T10:56:14.993Z</time></trkpt><trkpt lat="43.4249825" lon="12.8905368"><ele>367.0</ele><time>2026-04-18T10:56:15.994Z</time></trkpt><trkpt lat="43.4248715" lon="12.8904944"><ele>367.0</ele><time>2026-04-18T10:56:16.982Z</time></trkpt><trkpt lat="43.4247643" lon="12.8904546"><ele>367.0</ele><time>2026-04-18T10:56:17.986Z</time></trkpt><trkpt lat="43.4246682" lon="12.8904128"><ele>367.0</ele><time>2026-04-18T10:56:18.978Z</time></trkpt><trkpt lat="43.4245848" lon="12.8903734"><ele>367.0</ele><time>2026-04-18T10:56:19.999Z</time></trkpt><trkpt lat="43.4245106" lon="12.8903286"><ele>366.3333333333333</ele><time>2026-04-18T10:56:20.977Z</time></trkpt><trkpt lat="43.4244498" lon="12.8902761"><ele>365.66666666666663</ele><time>2026-04-18T10:56:21.984Z</time></trkpt><trkpt lat="43.4243895" lon="12.8902148"><ele>365.0</ele><time>2026-04-18T10:56:22.979Z</time></trkpt><trkpt lat="43.4243312" lon="12.8901479"><ele>364.3333333333333</ele><time>2026-04-18T10:56:23.983Z</time></trkpt><trkpt lat="43.4242765" lon="12.8900833"><ele>363.6666666666667</ele><time>2026-04-18T10:56:24.974Z</time></trkpt><trkpt lat="43.4241886" lon="12.8899904"><ele>363.0</ele><time>2026-04-18T10:56:26.979Z</time></trkpt><trkpt lat="43.424106" lon="12.88999"><ele>364.59999999999997</ele><time>2026-04-18T10:56:29.98Z</time></trkpt><trkpt lat="43.4240093" lon="12.8900274"><ele>366.2</ele><time>2026-04-18T10:56:32.993Z</time></trkpt><trkpt lat="43.4239191" lon="12.8900569"><ele>367.8</ele><time>2026-04-18T10:56:34.973Z</time></trkpt><trkpt lat="43.4237998" lon="12.8900974"><ele>369.4</ele><time>2026-04-18T10:56:36.973Z</time></trkpt><trkpt lat="43.4237335" lon="12.8901184"><ele>371.0</ele><time>2026-04-18T10:56:37.982Z</time></trkpt><trkpt lat="43.4236644" lon="12.8901456"><ele>371.5</ele><time>2026-04-18T10:56:38.977Z</time></trkpt><trkpt lat="43.423601" lon="12.890168"><ele>372.0</ele><time>2026-04-18T10:56:39.978Z</time></trkpt><trkpt lat="43.4235399" lon="12.8901955"><ele>372.5</ele><time>2026-04-18T10:56:40.993Z</time></trkpt><trkpt lat="43.4234189" lon="12.8902488"><ele>373.0</ele><time>2026-04-18T10:56:42.988Z</time></trkpt><trkpt lat="43.4233503" lon="12.8902806"><ele>373.5</ele><time>2026-04-18T10:56:43.979Z</time></trkpt><trkpt lat="43.4232843" lon="12.890312"><ele>374.0</ele><time>2026-04-18T10:56:44.977Z</time></trkpt><trkpt lat="43.4232211" lon="12.8903557"><ele>374.0</ele><time>2026-04-18T10:56:45.992Z</time></trkpt><trkpt lat="43.4231451" lon="12.890474"><ele>374.0</ele><time>2026-04-18T10:56:47.973Z</time></trkpt><trkpt lat="43.4231595" lon="12.8906389"><ele>374.0</ele><time>2026-04-18T10:56:49.988Z</time></trkpt><trkpt lat="43.4231673" lon="12.8907489"><ele>374.0</ele><time>2026-04-18T10:56:50.983Z</time></trkpt><trkpt lat="43.423186" lon="12.8908534"><ele>374.0</ele><time>2026-04-18T10:56:51.981Z</time></trkpt><trkpt lat="43.4232029" lon="12.8909543"><ele>373.6666666666667</ele><time>2026-04-18T10:56:52.974Z</time></trkpt><trkpt lat="43.423212" lon="12.8910507"><ele>373.33333333333337</ele><time>2026-04-18T10:56:53.976Z</time></trkpt><trkpt lat="43.4232188" lon="12.8911383"><ele>373.0</ele><time>2026-04-18T10:56:54.974Z</time></trkpt><trkpt lat="43.4232367" lon="12.8912422"><ele>372.6666666666667</ele><time>2026-04-18T10:56:55.987Z</time></trkpt><trkpt lat="43.4232589" lon="12.8913579"><ele>372.3333333333333</ele><time>2026-04-18T10:56:56.98Z</time></trkpt><trkpt lat="43.4232734" lon="12.8914659"><ele>372.0</ele><time>2026-04-18T10:56:57.982Z</time></trkpt><trkpt lat="43.4232839" lon="12.891573"><ele>372.0</ele><time>2026-04-18T10:56:58.979Z</time></trkpt><trkpt lat="43.4232934" lon="12.8916793"><ele>372.0</ele><time>2026-04-18T10:56:59.971Z</time></trkpt><trkpt lat="43.4233097" lon="12.8917803"><ele>372.0</ele><time>2026-04-18T10:57:00.991Z</time></trkpt><trkpt lat="43.4233169" lon="12.8918794"><ele>372.0</ele><time>2026-04-18T10:57:01.974Z</time></trkpt><trkpt lat="43.4233118" lon="12.891979"><ele>372.0</ele><time>2026-04-18T10:57:02.98Z</time></trkpt><trkpt lat="43.4232854" lon="12.8920785"><ele>372.0</ele><time>2026-04-18T10:57:03.989Z</time></trkpt><trkpt lat="43.4232464" lon="12.8921802"><ele>370.8333333333333</ele><time>2026-04-18T10:57:04.974Z</time></trkpt><trkpt lat="43.4232154" lon="12.8922832"><ele>369.6666666666667</ele><time>2026-04-18T10:57:05.969Z</time></trkpt><trkpt lat="43.4231861" lon="12.8923797"><ele>368.5</ele><time>2026-04-18T10:57:06.976Z</time></trkpt><trkpt lat="43.4231483" lon="12.8924804"><ele>367.33333333333337</ele><time>2026-04-18T10:57:07.987Z</time></trkpt><trkpt lat="43.423102" lon="12.8925733"><ele>366.1666666666667</ele><time>2026-04-18T10:57:08.968Z</time></trkpt><trkpt lat="43.4230587" lon="12.8926479"><ele>365.0</ele><time>2026-04-18T10:57:09.978Z</time></trkpt><trkpt lat="43.4229456" lon="12.8927249"><ele>362.6666666666667</ele><time>2026-04-18T10:57:11.997Z</time></trkpt><trkpt lat="43.4228757" lon="12.8927467"><ele>360.33333333333337</ele><time>2026-04-18T10:57:12.988Z</time></trkpt><trkpt lat="43.4228065" lon="12.8927634"><ele>358.0</ele><time>2026-04-18T10:57:13.975Z</time></trkpt><trkpt lat="43.42273" lon="12.8927677"><ele>355.6666666666667</ele><time>2026-04-18T10:57:14.981Z</time></trkpt><trkpt lat="43.4226486" lon="12.892769"><ele>353.3333333333333</ele><time>2026-04-18T10:57:15.982Z</time></trkpt><trkpt lat="43.4225651" lon="12.8927644"><ele>351.0</ele><time>2026-04-18T10:57:16.981Z</time></trkpt><trkpt lat="43.4224796" lon="12.8927548"><ele>351.0</ele><time>2026-04-18T10:57:17.991Z</time></trkpt><trkpt lat="43.4223928" lon="12.8927272"><ele>351.0</ele><time>2026-04-18T10:57:18.992Z</time></trkpt><trkpt lat="43.4223118" lon="12.8926683"><ele>351.0</ele><time>2026-04-18T10:57:19.988Z</time></trkpt><trkpt lat="43.4222405" lon="12.8926015"><ele>351.0</ele><time>2026-04-18T10:57:20.976Z</time></trkpt><trkpt lat="43.4221714" lon="12.8925318"><ele>351.0</ele><time>2026-04-18T10:57:21.979Z</time></trkpt><trkpt lat="43.4220984" lon="12.8924643"><ele>351.0</ele><time>2026-04-18T10:57:22.963Z</time></trkpt><trkpt lat="43.4220137" lon="12.8923925"><ele>354.0</ele><time>2026-04-18T10:57:23.984Z</time></trkpt><trkpt lat="43.4219292" lon="12.8923202"><ele>357.0</ele><time>2026-04-18T10:57:24.975Z</time></trkpt><trkpt lat="43.4218435" lon="12.8922659"><ele>360.0</ele><time>2026-04-18T10:57:25.978Z</time></trkpt><trkpt lat="43.4217629" lon="12.8922421"><ele>363.0</ele><time>2026-04-18T10:57:26.975Z</time></trkpt><trkpt lat="43.4216859" lon="12.8922328"><ele>366.0</ele><time>2026-04-18T10:57:27.983Z</time></trkpt><trkpt lat="43.4216128" lon="12.8922332"><ele>369.0</ele><time>2026-04-18T10:57:28.969Z</time></trkpt><trkpt lat="43.4215393" lon="12.8922369"><ele>369.0</ele><time>2026-04-18T10:57:29.972Z</time></trkpt><trkpt lat="43.4214735" lon="12.8922548"><ele>369.0</ele><time>2026-04-18T10:57:30.975Z</time></trkpt><trkpt lat="43.4214047" lon="12.8922748"><ele>369.0</ele><time>2026-04-18T10:57:31.974Z</time></trkpt><trkpt lat="43.421333" lon="12.8922973"><ele>369.0</ele><time>2026-04-18T10:57:33Z</time></trkpt><trkpt lat="43.4212307" lon="12.8923768"><ele>369.0</ele><time>2026-04-18T10:57:34.982Z</time></trkpt><trkpt lat="43.4211679" lon="12.8924937"><ele>369.0</ele><time>2026-04-18T10:57:36.985Z</time></trkpt><trkpt lat="43.4211686" lon="12.8926007"><ele>372.4</ele><time>2026-04-18T10:57:37.985Z</time></trkpt><trkpt lat="43.421175" lon="12.8927197"><ele>375.79999999999995</ele><time>2026-04-18T10:57:38.981Z</time></trkpt><trkpt lat="43.4211784" lon="12.8928429"><ele>379.20000000000005</ele><time>2026-04-18T10:57:39.977Z</time></trkpt><trkpt lat="43.4211877" lon="12.8929708"><ele>382.6</ele><time>2026-04-18T10:57:40.984Z</time></trkpt><trkpt lat="43.421203" lon="12.8930943"><ele>386.0</ele><time>2026-04-18T10:57:41.976Z</time></trkpt><trkpt lat="43.4212125" lon="12.8932233"><ele>386.0</ele><time>2026-04-18T10:57:42.984Z</time></trkpt><trkpt lat="43.4212324" lon="12.8933491"><ele>386.0</ele><time>2026-04-18T10:57:43.976Z</time></trkpt><trkpt lat="43.4212587" lon="12.8934779"><ele>386.0</ele><time>2026-04-18T10:57:44.973Z</time></trkpt><trkpt lat="43.4212806" lon="12.8935972"><ele>386.0</ele><time>2026-04-18T10:57:45.98Z</time></trkpt><trkpt lat="43.4213" lon="12.8937118"><ele>386.0</ele><time>2026-04-18T10:57:46.985Z</time></trkpt><trkpt lat="43.4213267" lon="12.8938249"><ele>380.66666666666663</ele><time>2026-04-18T10:57:47.976Z</time></trkpt><trkpt lat="43.4213539" lon="12.8939352"><ele>375.3333333333333</ele><time>2026-04-18T10:57:48.978Z</time></trkpt><trkpt lat="43.4213797" lon="12.8940454"><ele>370.0</ele><time>2026-04-18T10:57:49.978Z</time></trkpt><trkpt lat="43.4214015" lon="12.8941565"><ele>364.66666666666663</ele><time>2026-04-18T10:57:50.973Z</time></trkpt><trkpt lat="43.4214238" lon="12.8942665"><ele>359.3333333333333</ele><time>2026-04-18T10:57:51.979Z</time></trkpt><trkpt lat="43.4214491" lon="12.894378"><ele>354.0</ele><time>2026-04-18T10:57:52.976Z</time></trkpt><trkpt lat="43.4214659" lon="12.8945028"><ele>353.3333333333333</ele><time>2026-04-18T10:57:53.973Z</time></trkpt><trkpt lat="43.4214821" lon="12.8946262"><ele>352.6666666666667</ele><time>2026-04-18T10:57:54.979Z</time></trkpt><trkpt lat="43.4214909" lon="12.8947434"><ele>352.0</ele><time>2026-04-18T10:57:55.983Z</time></trkpt><trkpt lat="43.4214934" lon="12.8948529"><ele>351.33333333333337</ele><time>2026-04-18T10:57:56.978Z</time></trkpt><trkpt lat="43.4214746" lon="12.8949457"><ele>350.6666666666667</ele><time>2026-04-18T10:57:57.972Z</time></trkpt><trkpt lat="43.421457" lon="12.8950323"><ele>350.0</ele><time>2026-04-18T10:57:58.971Z</time></trkpt><trkpt lat="43.4214117" lon="12.8951878"><ele>349.0</ele><time>2026-04-18T10:58:00.978Z</time></trkpt><trkpt lat="43.421374" lon="12.8952683"><ele>348.0</ele><time>2026-04-18T10:58:01.978Z</time></trkpt><trkpt lat="43.4213154" lon="12.8953408"><ele>347.0</ele><time>2026-04-18T10:58:02.973Z</time></trkpt><trkpt lat="43.4212431" lon="12.8954018"><ele>346.0</ele><time>2026-04-18T10:58:03.978Z</time></trkpt><trkpt lat="43.4211685" lon="12.8954584"><ele>345.0</ele><time>2026-04-18T10:58:04.985Z</time></trkpt><trkpt lat="43.4210947" lon="12.8955062"><ele>344.0</ele><time>2026-04-18T10:58:05.995Z</time></trkpt><trkpt lat="43.4210219" lon="12.895552"><ele>343.83333333333337</ele><time>2026-04-18T10:58:06.994Z</time></trkpt><trkpt lat="43.4209542" lon="12.8955897"><ele>343.6666666666667</ele><time>2026-04-18T10:58:07.987Z</time></trkpt><trkpt lat="43.4208583" lon="12.8956631"><ele>343.5</ele><time>2026-04-18T10:58:09.984Z</time></trkpt><trkpt lat="43.4207921" lon="12.8957944"><ele>343.3333333333333</ele><time>2026-04-18T10:58:11.979Z</time></trkpt><trkpt lat="43.4207494" lon="12.895876"><ele>343.16666666666663</ele><time>2026-04-18T10:58:12.979Z</time></trkpt><trkpt lat="43.4207147" lon="12.8959692"><ele>343.0</ele><time>2026-04-18T10:58:13.981Z</time></trkpt><trkpt lat="43.4206813" lon="12.8960681"><ele>343.0</ele><time>2026-04-18T10:58:14.972Z</time></trkpt><trkpt lat="43.4206406" lon="12.8961721"><ele>343.0</ele><time>2026-04-18T10:58:15.982Z</time></trkpt><trkpt lat="43.4205992" lon="12.8962866"><ele>343.0</ele><time>2026-04-18T10:58:16.977Z</time></trkpt><trkpt lat="43.4205611" lon="12.8964064"><ele>343.0</ele><time>2026-04-18T10:58:17.971Z</time></trkpt><trkpt lat="43.4205272" lon="12.8965053"><ele>343.0</ele><time>2026-04-18T10:58:18.977Z</time></trkpt><trkpt lat="43.4204903" lon="12.8966021"><ele>343.0</ele><time>2026-04-18T10:58:19.983Z</time></trkpt><trkpt lat="43.4204466" lon="12.8967114"><ele>343.16666666666663</ele><time>2026-04-18T10:58:20.969Z</time></trkpt><trkpt lat="43.420392" lon="12.8968097"><ele>343.3333333333333</ele><time>2026-04-18T10:58:21.975Z</time></trkpt><trkpt lat="43.4203422" lon="12.8969012"><ele>343.5</ele><time>2026-04-18T10:58:22.977Z</time></trkpt><trkpt lat="43.4203008" lon="12.8970001"><ele>343.6666666666667</ele><time>2026-04-18T10:58:23.983Z</time></trkpt><trkpt lat="43.4202716" lon="12.8970884"><ele>343.83333333333337</ele><time>2026-04-18T10:58:24.99Z</time></trkpt><trkpt lat="43.4202308" lon="12.8971606"><ele>344.0</ele><time>2026-04-18T10:58:25.972Z</time></trkpt><trkpt lat="43.4201661" lon="12.8972261"><ele>344.00000000000006</ele><time>2026-04-18T10:58:26.979Z</time></trkpt><trkpt lat="43.4201112" lon="12.8972748"><ele>344.0</ele><time>2026-04-18T10:58:27.976Z</time></trkpt><trkpt lat="43.4200566" lon="12.8973431"><ele>344.0</ele><time>2026-04-18T10:58:28.992Z</time></trkpt><trkpt lat="43.4200099" lon="12.8974181"><ele>344.0</ele><time>2026-04-18T10:58:29.978Z</time></trkpt><trkpt lat="43.4199476" lon="12.8974898"><ele>344.0</ele><time>2026-04-18T10:58:30.977Z</time></trkpt><trkpt lat="43.4198911" lon="12.897546"><ele>344.00000000000006</ele><time>2026-04-18T10:58:31.976Z</time></trkpt><trkpt lat="43.4198272" lon="12.8976025"><ele>344.0</ele><time>2026-04-18T10:58:32.969Z</time></trkpt><trkpt lat="43.4197557" lon="12.8976529"><ele>343.1666666666667</ele><time>2026-04-18T10:58:33.988Z</time></trkpt><trkpt lat="43.4196787" lon="12.8976998"><ele>342.33333333333337</ele><time>2026-04-18T10:58:34.976Z</time></trkpt><trkpt lat="43.4196054" lon="12.8977424"><ele>341.5</ele><time>2026-04-18T10:58:35.97Z</time></trkpt><trkpt lat="43.4195277" lon="12.8977947"><ele>340.6666666666667</ele><time>2026-04-18T10:58:36.976Z</time></trkpt><trkpt lat="43.4194547" lon="12.8978413"><ele>339.8333333333333</ele><time>2026-04-18T10:58:37.993Z</time></trkpt><trkpt lat="43.4193925" lon="12.897915"><ele>339.0</ele><time>2026-04-18T10:58:38.966Z</time></trkpt><trkpt lat="43.4193244" lon="12.8979852"><ele>339.0</ele><time>2026-04-18T10:58:39.984Z</time></trkpt><trkpt lat="43.4192616" lon="12.8980473"><ele>339.0</ele><time>2026-04-18T10:58:40.98Z</time></trkpt><trkpt lat="43.4191967" lon="12.8981076"><ele>339.0</ele><time>2026-04-18T10:58:41.982Z</time></trkpt><trkpt lat="43.4191407" lon="12.8981687"><ele>339.0</ele><time>2026-04-18T10:58:42.976Z</time></trkpt><trkpt lat="43.4190628" lon="12.8982584"><ele>339.0</ele><time>2026-04-18T10:58:44.982Z</time></trkpt><trkpt lat="43.4189866" lon="12.8983592"><ele>339.0</ele><time>2026-04-18T10:58:46.976Z</time></trkpt><trkpt lat="43.4188817" lon="12.8984412"><ele>339.2</ele><time>2026-04-18T10:58:48.979Z</time></trkpt><trkpt lat="43.4187736" lon="12.8984924"><ele>339.4</ele><time>2026-04-18T10:58:50.986Z</time></trkpt><trkpt lat="43.4186653" lon="12.8985525"><ele>339.6</ele><time>2026-04-18T10:58:52.974Z</time></trkpt><trkpt lat="43.4185556" lon="12.8986535"><ele>339.8</ele><time>2026-04-18T10:58:54.985Z</time></trkpt><trkpt lat="43.4184938" lon="12.8987038"><ele>340.0</ele><time>2026-04-18T10:58:55.988Z</time></trkpt><trkpt lat="43.4184198" lon="12.8987328"><ele>340.0</ele><time>2026-04-18T10:58:56.98Z</time></trkpt><trkpt lat="43.4183381" lon="12.8987318"><ele>340.0</ele><time>2026-04-18T10:58:57.977Z</time></trkpt><trkpt lat="43.418257" lon="12.8987333"><ele>340.0</ele><time>2026-04-18T10:58:58.971Z</time></trkpt><trkpt lat="43.4181877" lon="12.8987373"><ele>340.0</ele><time>2026-04-18T10:58:59.978Z</time></trkpt><trkpt lat="43.4181089" lon="12.8987453"><ele>340.0</ele><time>2026-04-18T10:59:00.973Z</time></trkpt><trkpt lat="43.4180426" lon="12.8987629"><ele>340.0</ele><time>2026-04-18T10:59:01.989Z</time></trkpt><trkpt lat="43.4179794" lon="12.8987836"><ele>340.0</ele><time>2026-04-18T10:59:02.986Z</time></trkpt><trkpt lat="43.4179103" lon="12.8988022"><ele>341.0</ele><time>2026-04-18T10:59:03.984Z</time></trkpt><trkpt lat="43.4178404" lon="12.898817"><ele>342.0</ele><time>2026-04-18T10:59:04.981Z</time></trkpt><trkpt lat="43.4177766" lon="12.8988282"><ele>343.0</ele><time>2026-04-18T10:59:05.979Z</time></trkpt><trkpt lat="43.4176709" lon="12.8988446"><ele>344.0</ele><time>2026-04-18T10:59:07.977Z</time></trkpt><trkpt lat="43.4175772" lon="12.8988274"><ele>345.0</ele><time>2026-04-18T10:59:09.975Z</time></trkpt><trkpt lat="43.4174982" lon="12.8987951"><ele>346.0</ele><time>2026-04-18T10:59:11.995Z</time></trkpt><trkpt lat="43.417461" lon="12.8987033"><ele>346.0</ele><time>2026-04-18T10:59:13.981Z</time></trkpt><trkpt lat="43.4174521" lon="12.8985664"><ele>346.0</ele><time>2026-04-18T10:59:15.979Z</time></trkpt><trkpt lat="43.417461" lon="12.8984207"><ele>346.0</ele><time>2026-04-18T10:59:17.98Z</time></trkpt><trkpt lat="43.4174641" lon="12.8982616"><ele>346.0</ele><time>2026-04-18T10:59:19.979Z</time></trkpt><trkpt lat="43.4174911" lon="12.8981388"><ele>346.0</ele><time>2026-04-18T10:59:21.982Z</time></trkpt><trkpt lat="43.4175168" lon="12.8979869"><ele>348.16666666666663</ele><time>2026-04-18T10:59:23.971Z</time></trkpt><trkpt lat="43.4175465" lon="12.8978903"><ele>350.3333333333333</ele><time>2026-04-18T10:59:24.98Z</time></trkpt><trkpt lat="43.417574" lon="12.8977968"><ele>352.5</ele><time>2026-04-18T10:59:25.986Z</time></trkpt><trkpt lat="43.417594" lon="12.897696"><ele>354.6666666666667</ele><time>2026-04-18T10:59:26.987Z</time></trkpt><trkpt lat="43.4176147" lon="12.8975927"><ele>356.83333333333337</ele><time>2026-04-18T10:59:27.984Z</time></trkpt><trkpt lat="43.4176396" lon="12.8974853"><ele>359.0</ele><time>2026-04-18T10:59:28.976Z</time></trkpt><trkpt lat="43.417659" lon="12.897359"><ele>362.0</ele><time>2026-04-18T10:59:29.978Z</time></trkpt><trkpt lat="43.4176762" lon="12.8972311"><ele>365.0</ele><time>2026-04-18T10:59:30.983Z</time></trkpt><trkpt lat="43.4176924" lon="12.8971078"><ele>368.0</ele><time>2026-04-18T10:59:31.978Z</time></trkpt><trkpt lat="43.4177043" lon="12.8969955"><ele>371.0</ele><time>2026-04-18T10:59:32.973Z</time></trkpt><trkpt lat="43.4177192" lon="12.896837"><ele>374.0</ele><time>2026-04-18T10:59:34.983Z</time></trkpt><trkpt lat="43.4177201" lon="12.8966758"><ele>378.0</ele><time>2026-04-18T10:59:36.972Z</time></trkpt><trkpt lat="43.4176924" lon="12.8965905"><ele>382.0</ele><time>2026-04-18T10:59:37.977Z</time></trkpt><trkpt lat="43.4176664" lon="12.8965017"><ele>386.0</ele><time>2026-04-18T10:59:38.973Z</time></trkpt><trkpt lat="43.417653" lon="12.8963664"><ele>390.0</ele><time>2026-04-18T10:59:40.972Z</time></trkpt><trkpt lat="43.4176845" lon="12.8962327"><ele>394.0</ele><time>2026-04-18T10:59:42.975Z</time></trkpt><trkpt lat="43.4177207" lon="12.8960723"><ele>394.00000000000006</ele><time>2026-04-18T10:59:44.97Z</time></trkpt><trkpt lat="43.417751" lon="12.8959418"><ele>394.0</ele><time>2026-04-18T10:59:46.975Z</time></trkpt><trkpt lat="43.4177195" lon="12.895844"><ele>394.0</ele><time>2026-04-18T10:59:48.975Z</time></trkpt><trkpt lat="43.4177055" lon="12.8957566"><ele>394.0</ele><time>2026-04-18T10:59:49.984Z</time></trkpt><trkpt lat="43.4177088" lon="12.8956511"><ele>394.00000000000006</ele><time>2026-04-18T10:59:50.984Z</time></trkpt><trkpt lat="43.4177139" lon="12.8955399"><ele>394.0</ele><time>2026-04-18T10:59:51.991Z</time></trkpt><trkpt lat="43.4177136" lon="12.8954357"><ele>398.6</ele><time>2026-04-18T10:59:52.982Z</time></trkpt><trkpt lat="43.4177069" lon="12.8953316"><ele>403.2</ele><time>2026-04-18T10:59:53.985Z</time></trkpt><trkpt lat="43.4177012" lon="12.8951885"><ele>407.8</ele><time>2026-04-18T10:59:55.981Z</time></trkpt><trkpt lat="43.4177331" lon="12.8950772"><ele>412.40000000000003</ele><time>2026-04-18T10:59:57.979Z</time></trkpt><trkpt lat="43.4177635" lon="12.8949363"><ele>417.0</ele><time>2026-04-18T10:59:59.982Z</time></trkpt><trkpt lat="43.4178082" lon="12.8948191"><ele>421.0</ele><time>2026-04-18T11:00:01.988Z</time></trkpt><trkpt lat="43.4178468" lon="12.8946985"><ele>425.0</ele><time>2026-04-18T11:00:03.984Z</time></trkpt><trkpt lat="43.4178381" lon="12.8945276"><ele>429.00000000000006</ele><time>2026-04-18T11:00:05.979Z</time></trkpt><trkpt lat="43.4178126" lon="12.8944476"><ele>433.0</ele><time>2026-04-18T11:00:06.975Z</time></trkpt><trkpt lat="43.417768" lon="12.8943531"><ele>437.0</ele><time>2026-04-18T11:00:07.978Z</time></trkpt><trkpt lat="43.4177122" lon="12.8942569"><ele>439.20000000000005</ele><time>2026-04-18T11:00:08.976Z</time></trkpt><trkpt lat="43.4176737" lon="12.8941708"><ele>441.40000000000003</ele><time>2026-04-18T11:00:09.983Z</time></trkpt><trkpt lat="43.4176522" lon="12.8940096"><ele>443.59999999999997</ele><time>2026-04-18T11:00:11.994Z</time></trkpt><trkpt lat="43.4176579" lon="12.8938708"><ele>445.79999999999995</ele><time>2026-04-18T11:00:13.982Z</time></trkpt><trkpt lat="43.4176869" lon="12.8937496"><ele>448.0</ele><time>2026-04-18T11:05:03.99Z</time></trkpt><trkpt lat="43.4177024" lon="12.893614"><ele>448.0</ele><time>2026-04-18T11:05:05.995Z</time></trkpt><trkpt lat="43.4177084" lon="12.893473"><ele>447.99999999999994</ele><time>2026-04-18T11:05:07.99Z</time></trkpt><trkpt lat="43.4177164" lon="12.8933377"><ele>447.99999999999994</ele><time>2026-04-18T11:05:09.987Z</time></trkpt><trkpt lat="43.4177359" lon="12.8932098"><ele>448.0</ele><time>2026-04-18T11:05:12Z</time></trkpt><trkpt lat="43.4177595" lon="12.8930939"><ele>448.0</ele><time>2026-04-18T11:05:13.999Z</time></trkpt><trkpt lat="43.4177641" lon="12.8929565"><ele>449.4</ele><time>2026-04-18T11:05:15.977Z</time></trkpt><trkpt lat="43.4177636" lon="12.8928216"><ele>450.79999999999995</ele><time>2026-04-18T11:05:17.996Z</time></trkpt><trkpt lat="43.4177673" lon="12.8927103"><ele>452.2</ele><time>2026-04-18T11:05:20.983Z</time></trkpt><trkpt lat="43.4177639" lon="12.892608"><ele>453.6</ele><time>2026-04-18T11:05:22.988Z</time></trkpt><trkpt lat="43.4177655" lon="12.8924364"><ele>455.0</ele><time>2026-04-18T11:05:24.98Z</time></trkpt><trkpt lat="43.4177626" lon="12.8923343"><ele>457.2857142857143</ele><time>2026-04-18T11:05:26.003Z</time></trkpt><trkpt lat="43.4177645" lon="12.8922407"><ele>459.57142857142856</ele><time>2026-04-18T11:05:26.987Z</time></trkpt><trkpt lat="43.4177771" lon="12.8921542"><ele>461.8571428571429</ele><time>2026-04-18T11:05:27.982Z</time></trkpt><trkpt lat="43.4177823" lon="12.8920662"><ele>464.14285714285717</ele><time>2026-04-18T11:05:28.974Z</time></trkpt><trkpt lat="43.4177828" lon="12.8919695"><ele>466.42857142857144</ele><time>2026-04-18T11:05:29.991Z</time></trkpt><trkpt lat="43.4177828" lon="12.8918793"><ele>468.7142857142858</ele><time>2026-04-18T11:05:30.991Z</time></trkpt><trkpt lat="43.4177866" lon="12.8917864"><ele>471.00000000000006</ele><time>2026-04-18T11:05:31.978Z</time></trkpt><trkpt lat="43.417791" lon="12.8916543"><ele>472.0</ele><time>2026-04-18T11:05:33.983Z</time></trkpt><trkpt lat="43.4178273" lon="12.8915496"><ele>473.0</ele><time>2026-04-18T11:05:35.982Z</time></trkpt><trkpt lat="43.4178926" lon="12.8914729"><ele>474.0</ele><time>2026-04-18T11:05:38.978Z</time></trkpt><trkpt lat="43.4179312" lon="12.8913843"><ele>475.0</ele><time>2026-04-18T11:05:40.989Z</time></trkpt><trkpt lat="43.4179635" lon="12.8913074"><ele>476.0</ele><time>2026-04-18T11:05:41.983Z</time></trkpt><trkpt lat="43.4180382" lon="12.8911936"><ele>477.0</ele><time>2026-04-18T11:05:43.996Z</time></trkpt><trkpt lat="43.418126" lon="12.891082"><ele>477.0</ele><time>2026-04-18T11:05:45.981Z</time></trkpt><trkpt lat="43.4181811" lon="12.8910212"><ele>477.0</ele><time>2026-04-18T11:05:46.982Z</time></trkpt><trkpt lat="43.4182311" lon="12.8909662"><ele>477.0</ele><time>2026-04-18T11:05:47.99Z</time></trkpt><trkpt lat="43.4182782" lon="12.8909062"><ele>477.0</ele><time>2026-04-18T11:05:48.977Z</time></trkpt><trkpt lat="43.4183617" lon="12.8907839"><ele>477.0</ele><time>2026-04-18T11:05:50.981Z</time></trkpt><trkpt lat="43.4184034" lon="12.8907099"><ele>477.0</ele><time>2026-04-18T11:05:51.983Z</time></trkpt><trkpt lat="43.4184471" lon="12.8906263"><ele>481.1428571428571</ele><time>2026-04-18T11:05:52.975Z</time></trkpt><trkpt lat="43.4184878" lon="12.8905449"><ele>485.2857142857142</ele><time>2026-04-18T11:05:53.98Z</time></trkpt><trkpt lat="43.4185185" lon="12.8904581"><ele>489.42857142857144</ele><time>2026-04-18T11:05:54.975Z</time></trkpt><trkpt lat="43.4185465" lon="12.8903803"><ele>493.57142857142856</ele><time>2026-04-18T11:05:55.976Z</time></trkpt><trkpt lat="43.4185722" lon="12.8902986"><ele>497.7142857142857</ele><time>2026-04-18T11:05:56.971Z</time></trkpt><trkpt lat="43.4185981" lon="12.8902094"><ele>501.8571428571429</ele><time>2026-04-18T11:05:57.977Z</time></trkpt><trkpt lat="43.4186182" lon="12.8901152"><ele>506.00000000000006</ele><time>2026-04-18T11:05:58.976Z</time></trkpt><trkpt lat="43.4186349" lon="12.8900042"><ele>509.99999999999994</ele><time>2026-04-18T11:05:59.975Z</time></trkpt><trkpt lat="43.4186523" lon="12.8898852"><ele>514.0</ele><time>2026-04-18T11:06:00.981Z</time></trkpt><trkpt lat="43.4186642" lon="12.8897645"><ele>518.0</ele><time>2026-04-18T11:06:01.983Z</time></trkpt><trkpt lat="43.4186763" lon="12.8896443"><ele>522.0</ele><time>2026-04-18T11:06:02.98Z</time></trkpt><trkpt lat="43.4186929" lon="12.8895293"><ele>526.0</ele><time>2026-04-18T11:06:03.98Z</time></trkpt><trkpt lat="43.4187025" lon="12.8894113"><ele>530.0</ele><time>2026-04-18T11:06:04.982Z</time></trkpt><trkpt lat="43.4186997" lon="12.8892793"><ele>533.5</ele><time>2026-04-18T11:06:05.982Z</time></trkpt><trkpt lat="43.4187025" lon="12.8891444"><ele>537.0</ele><time>2026-04-18T11:06:06.987Z</time></trkpt><trkpt lat="43.4187129" lon="12.8890056"><ele>540.5</ele><time>2026-04-18T11:06:07.986Z</time></trkpt><trkpt lat="43.4187326" lon="12.8888848"><ele>544.0</ele><time>2026-04-18T11:06:08.976Z</time></trkpt><trkpt lat="43.4187509" lon="12.8887964"><ele>547.5</ele><time>2026-04-18T11:06:09.983Z</time></trkpt><trkpt lat="43.4187681" lon="12.8886983"><ele>551.0</ele><time>2026-04-18T11:06:10.983Z</time></trkpt><trkpt lat="43.4187828" lon="12.8885529"><ele>553.5</ele><time>2026-04-18T11:06:11.979Z</time></trkpt><trkpt lat="43.418785" lon="12.8883925"><ele>556.0</ele><time>2026-04-18T11:06:12.988Z</time></trkpt><trkpt lat="43.4187803" lon="12.8882334"><ele>558.5</ele><time>2026-04-18T11:06:13.983Z</time></trkpt><trkpt lat="43.4187763" lon="12.8880672"><ele>561.0</ele><time>2026-04-18T11:06:14.979Z</time></trkpt><trkpt lat="43.4187734" lon="12.8879093"><ele>561.0</ele><time>2026-04-18T11:06:15.975Z</time></trkpt><trkpt lat="43.4187669" lon="12.8877652"><ele>561.0</ele><time>2026-04-18T11:06:16.989Z</time></trkpt><trkpt lat="43.4187503" lon="12.8876339"><ele>561.0</ele><time>2026-04-18T11:06:17.975Z</time></trkpt><trkpt lat="43.4187267" lon="12.8875254"><ele>561.0</ele><time>2026-04-18T11:06:18.975Z</time></trkpt><trkpt lat="43.4186658" lon="12.8874169"><ele>561.0</ele><time>2026-04-18T11:06:20.982Z</time></trkpt><trkpt lat="43.4185919" lon="12.887338"><ele>559.8333333333334</ele><time>2026-04-18T11:06:25.994Z</time></trkpt><trkpt lat="43.4184987" lon="12.8872787"><ele>558.6666666666666</ele><time>2026-04-18T11:06:27.987Z</time></trkpt><trkpt lat="43.4184297" lon="12.8872432"><ele>557.5</ele><time>2026-04-18T11:06:28.993Z</time></trkpt><trkpt lat="43.4183544" lon="12.8872057"><ele>556.3333333333333</ele><time>2026-04-18T11:06:29.982Z</time></trkpt><trkpt lat="43.418268" lon="12.8871624"><ele>555.1666666666666</ele><time>2026-04-18T11:06:30.983Z</time></trkpt><trkpt lat="43.4181756" lon="12.8871099"><ele>554.0</ele><time>2026-04-18T11:06:31.986Z</time></trkpt><trkpt lat="43.4180802" lon="12.8870552"><ele>554.0</ele><time>2026-04-18T11:06:32.993Z</time></trkpt><trkpt lat="43.4179881" lon="12.8869966"><ele>554.0</ele><time>2026-04-18T11:06:33.983Z</time></trkpt><trkpt lat="43.4178979" lon="12.8869443"><ele>554.0</ele><time>2026-04-18T11:06:34.991Z</time></trkpt><trkpt lat="43.4178095" lon="12.886896"><ele>554.0</ele><time>2026-04-18T11:06:35.989Z</time></trkpt><trkpt lat="43.4177201" lon="12.8868395"><ele>554.0</ele><time>2026-04-18T11:06:36.978Z</time></trkpt><trkpt lat="43.4176216" lon="12.8867761"><ele>554.6</ele><time>2026-04-18T11:06:37.978Z</time></trkpt><trkpt lat="43.41752" lon="12.8867116"><ele>555.2</ele><time>2026-04-18T11:06:38.981Z</time></trkpt><trkpt lat="43.417421" lon="12.8866456"><ele>555.8000000000001</ele><time>2026-04-18T11:06:39.988Z</time></trkpt><trkpt lat="43.4173201" lon="12.8865927"><ele>556.4</ele><time>2026-04-18T11:06:40.978Z</time></trkpt><trkpt lat="43.4172136" lon="12.8865394"><ele>557.0</ele><time>2026-04-18T11:06:41.98Z</time></trkpt><trkpt lat="43.4170946" lon="12.886486"><ele>566.5</ele><time>2026-04-18T11:06:42.973Z</time></trkpt><trkpt lat="43.4169697" lon="12.8864213"><ele>576.0</ele><time>2026-04-18T11:06:43.978Z</time></trkpt><trkpt lat="43.4168423" lon="12.8863451"><ele>585.5</ele><time>2026-04-18T11:06:44.975Z</time></trkpt><trkpt lat="43.4167075" lon="12.8862647"><ele>595.0</ele><time>2026-04-18T11:06:45.979Z</time></trkpt><trkpt lat="43.4165774" lon="12.8861749"><ele>595.0</ele><time>2026-04-18T11:06:46.978Z</time></trkpt><trkpt lat="43.4164505" lon="12.8860865"><ele>595.0</ele><time>2026-04-18T11:06:47.977Z</time></trkpt><trkpt lat="43.4163262" lon="12.8859901"><ele>595.0</ele><time>2026-04-18T11:06:48.975Z</time></trkpt><trkpt lat="43.4162158" lon="12.88589"><ele>595.0</ele><time>2026-04-18T11:06:49.975Z</time></trkpt><trkpt lat="43.4161059" lon="12.8857705"><ele>596.75</ele><time>2026-04-18T11:06:50.977Z</time></trkpt><trkpt lat="43.4160124" lon="12.8856515"><ele>598.5</ele><time>2026-04-18T11:06:51.98Z</time></trkpt><trkpt lat="43.4159307" lon="12.88553"><ele>600.25</ele><time>2026-04-18T11:06:52.974Z</time></trkpt><trkpt lat="43.4158497" lon="12.8854117"><ele>602.0</ele><time>2026-04-18T11:06:53.978Z</time></trkpt><trkpt lat="43.4157611" lon="12.8852956"><ele>602.0</ele><time>2026-04-18T11:06:54.977Z</time></trkpt><trkpt lat="43.415676" lon="12.8851745"><ele>602.0</ele><time>2026-04-18T11:06:55.983Z</time></trkpt><trkpt lat="43.4155903" lon="12.885061"><ele>602.0</ele><time>2026-04-18T11:06:56.975Z</time></trkpt><trkpt lat="43.4155032" lon="12.8849434"><ele>602.0</ele><time>2026-04-18T11:06:57.983Z</time></trkpt><trkpt lat="43.4154019" lon="12.8848403"><ele>606.2</ele><time>2026-04-18T11:06:58.977Z</time></trkpt><trkpt lat="43.4152978" lon="12.8847391"><ele>610.4000000000001</ele><time>2026-04-18T11:06:59.974Z</time></trkpt><trkpt lat="43.4152112" lon="12.8846459"><ele>614.5999999999999</ele><time>2026-04-18T11:07:00.978Z</time></trkpt><trkpt lat="43.4151495" lon="12.8845753"><ele>618.8</ele><time>2026-04-18T11:07:01.976Z</time></trkpt><trkpt lat="43.4150913" lon="12.8845223"><ele>623.0</ele><time>2026-04-18T11:07:02.974Z</time></trkpt><trkpt lat="43.4150069" lon="12.8844339"><ele>623.0</ele><time>2026-04-18T11:07:04.976Z</time></trkpt><trkpt lat="43.4149565" lon="12.8843755"><ele>623.0</ele><time>2026-04-18T11:07:06.977Z</time></trkpt><trkpt lat="43.4149493" lon="12.8842798"><ele>623.0</ele><time>2026-04-18T11:07:09.988Z</time></trkpt><trkpt lat="43.4150086" lon="12.8842378"><ele>623.0</ele><time>2026-04-18T11:07:11.979Z</time></trkpt><trkpt lat="43.4150896" lon="12.8842309"><ele>623.0</ele><time>2026-04-18T11:07:15.972Z</time></trkpt><trkpt lat="43.4151612" lon="12.8842222"><ele>623.0</ele><time>2026-04-18T11:07:17.981Z</time></trkpt><trkpt lat="43.4152568" lon="12.8841473"><ele>624.5</ele><time>2026-04-18T11:07:19.983Z</time></trkpt><trkpt lat="43.4153204" lon="12.8841202"><ele>626.0</ele><time>2026-04-18T11:07:20.979Z</time></trkpt><trkpt lat="43.4154165" lon="12.8841089"><ele>627.5</ele><time>2026-04-18T11:07:22.981Z</time></trkpt><trkpt lat="43.4155088" lon="12.8840693"><ele>629.0</ele><time>2026-04-18T11:07:24.976Z</time></trkpt><trkpt lat="43.4155693" lon="12.8840307"><ele>630.5</ele><time>2026-04-18T11:07:25.981Z</time></trkpt><trkpt lat="43.415631" lon="12.8840052"><ele>632.0</ele><time>2026-04-18T11:07:26.976Z</time></trkpt><trkpt lat="43.4156905" lon="12.8839757"><ele>626.8333333333333</ele><time>2026-04-18T11:07:27.979Z</time></trkpt><trkpt lat="43.4157522" lon="12.883933"><ele>621.6666666666666</ele><time>2026-04-18T11:07:28.981Z</time></trkpt><trkpt lat="43.4158085" lon="12.8838732"><ele>616.5</ele><time>2026-04-18T11:07:29.974Z</time></trkpt><trkpt lat="43.4158552" lon="12.8837964"><ele>611.3333333333334</ele><time>2026-04-18T11:07:30.992Z</time></trkpt><trkpt lat="43.4158985" lon="12.8837022"><ele>606.1666666666667</ele><time>2026-04-18T11:07:31.976Z</time></trkpt><trkpt lat="43.4159583" lon="12.8835945"><ele>601.0</ele><time>2026-04-18T11:07:32.975Z</time></trkpt><trkpt lat="43.4160285" lon="12.883481"><ele>607.2</ele><time>2026-04-18T11:07:33.977Z</time></trkpt><trkpt lat="43.4161057" lon="12.8833997"><ele>613.4000000000001</ele><time>2026-04-18T11:07:34.976Z</time></trkpt><trkpt lat="43.4161647" lon="12.8833558"><ele>619.6</ele><time>2026-04-18T11:07:35.991Z</time></trkpt><trkpt lat="43.4162492" lon="12.8832576"><ele>625.8000000000001</ele><time>2026-04-18T11:07:37.986Z</time></trkpt><trkpt lat="43.4162881" lon="12.8831263"><ele>632.0</ele><time>2026-04-18T11:07:39.97Z</time></trkpt><trkpt lat="43.4163038" lon="12.8830256"><ele>630.8333333333333</ele><time>2026-04-18T11:07:40.978Z</time></trkpt><trkpt lat="43.4163478" lon="12.882927"><ele>629.6666666666666</ele><time>2026-04-18T11:07:41.974Z</time></trkpt><trkpt lat="43.4164017" lon="12.8828345"><ele>628.5</ele><time>2026-04-18T11:07:42.976Z</time></trkpt><trkpt lat="43.4163922" lon="12.8827198"><ele>627.3333333333334</ele><time>2026-04-18T11:07:44.971Z</time></trkpt><trkpt lat="43.4163813" lon="12.8825684"><ele>626.1666666666667</ele><time>2026-04-18T11:07:46.972Z</time></trkpt><trkpt lat="43.4164033" lon="12.8824575"><ele>625.0</ele><time>2026-04-18T11:07:48.981Z</time></trkpt><trkpt lat="43.4164768" lon="12.8824447"><ele>625.0</ele><time>2026-04-18T11:09:27.978Z</time></trkpt><trkpt lat="43.4165743" lon="12.8824779"><ele>625.0</ele><time>2026-04-18T11:09:30.97Z</time></trkpt><trkpt lat="43.4166377" lon="12.8825021"><ele>625.0</ele><time>2026-04-18T11:09:31.981Z</time></trkpt><trkpt lat="43.4167106" lon="12.8825282"><ele>625.0</ele><time>2026-04-18T11:09:32.971Z</time></trkpt><trkpt lat="43.4167912" lon="12.8825644"><ele>625.0</ele><time>2026-04-18T11:09:33.979Z</time></trkpt><trkpt lat="43.4168687" lon="12.8826064"><ele>625.0</ele><time>2026-04-18T11:09:34.977Z</time></trkpt><trkpt lat="43.4169463" lon="12.8826524"><ele>621.4</ele><time>2026-04-18T11:09:35.976Z</time></trkpt><trkpt lat="43.417019" lon="12.8826916"><ele>617.8</ele><time>2026-04-18T11:09:36.969Z</time></trkpt><trkpt lat="43.417084" lon="12.8827434"><ele>614.2</ele><time>2026-04-18T11:09:37.979Z</time></trkpt><trkpt lat="43.4171449" lon="12.8828272"><ele>610.6</ele><time>2026-04-18T11:09:39.976Z</time></trkpt><trkpt lat="43.4172116" lon="12.8828638"><ele>607.0</ele><time>2026-04-18T11:09:41.983Z</time></trkpt><trkpt lat="43.4173518" lon="12.8828134"><ele>603.25</ele><time>2026-04-18T11:09:43.976Z</time></trkpt><trkpt lat="43.4174468" lon="12.882774"><ele>599.5</ele><time>2026-04-18T11:09:44.97Z</time></trkpt><trkpt lat="43.4175574" lon="12.8827488"><ele>595.75</ele><time>2026-04-18T11:09:45.976Z</time></trkpt><trkpt lat="43.4176763" lon="12.8827305"><ele>592.0</ele><time>2026-04-18T11:09:46.976Z</time></trkpt><trkpt lat="43.4177944" lon="12.882709"><ele>592.0</ele><time>2026-04-18T11:09:47.984Z</time></trkpt><trkpt lat="43.4179174" lon="12.8827004"><ele>592.0</ele><time>2026-04-18T11:09:48.968Z</time></trkpt><trkpt lat="43.4180411" lon="12.8826863"><ele>592.0</ele><time>2026-04-18T11:09:49.985Z</time></trkpt><trkpt lat="43.4181482" lon="12.8826711"><ele>592.0</ele><time>2026-04-18T11:09:50.979Z</time></trkpt><trkpt lat="43.41824" lon="12.8826526"><ele>592.0</ele><time>2026-04-18T11:09:51.985Z</time></trkpt><trkpt lat="43.4183265" lon="12.8826236"><ele>592.1666666666667</ele><time>2026-04-18T11:09:52.984Z</time></trkpt><trkpt lat="43.418409" lon="12.8825899"><ele>592.3333333333334</ele><time>2026-04-18T11:09:53.998Z</time></trkpt><trkpt lat="43.4184979" lon="12.8825459"><ele>592.5</ele><time>2026-04-18T11:09:54.971Z</time></trkpt><trkpt lat="43.418591" lon="12.8824896"><ele>592.6666666666666</ele><time>2026-04-18T11:09:55.975Z</time></trkpt><trkpt lat="43.4186711" lon="12.8824492"><ele>592.8333333333333</ele><time>2026-04-18T11:09:56.968Z</time></trkpt><trkpt lat="43.4187481" lon="12.8824127"><ele>593.0</ele><time>2026-04-18T11:09:57.98Z</time></trkpt><trkpt lat="43.4188224" lon="12.8823652"><ele>590.4285714285713</ele><time>2026-04-18T11:09:58.97Z</time></trkpt><trkpt lat="43.4188943" lon="12.8823111"><ele>587.8571428571429</ele><time>2026-04-18T11:09:59.983Z</time></trkpt><trkpt lat="43.4189517" lon="12.8822421"><ele>585.2857142857142</ele><time>2026-04-18T11:10:00.976Z</time></trkpt><trkpt lat="43.4189933" lon="12.88217"><ele>582.7142857142857</ele><time>2026-04-18T11:10:01.973Z</time></trkpt><trkpt lat="43.4190439" lon="12.8821184"><ele>580.1428571428571</ele><time>2026-04-18T11:10:02.969Z</time></trkpt><trkpt lat="43.419109" lon="12.8820689"><ele>577.5714285714286</ele><time>2026-04-18T11:10:03.97Z</time></trkpt><trkpt lat="43.4191745" lon="12.8820183"><ele>575.0</ele><time>2026-04-18T11:10:04.978Z</time></trkpt><trkpt lat="43.4192492" lon="12.8819866"><ele>575.0</ele><time>2026-04-18T11:10:05.974Z</time></trkpt><trkpt lat="43.4193257" lon="12.8819731"><ele>575.0</ele><time>2026-04-18T11:10:06.98Z</time></trkpt><trkpt lat="43.4194232" lon="12.8819651"><ele>575.0</ele><time>2026-04-18T11:10:07.994Z</time></trkpt><trkpt lat="43.4195259" lon="12.8819731"><ele>575.0</ele><time>2026-04-18T11:10:08.985Z</time></trkpt><trkpt lat="43.4196347" lon="12.881992"><ele>575.0</ele><time>2026-04-18T11:10:09.984Z</time></trkpt><trkpt lat="43.4197483" lon="12.8820161"><ele>571.2</ele><time>2026-04-18T11:10:10.99Z</time></trkpt><trkpt lat="43.4198473" lon="12.8820538"><ele>567.4</ele><time>2026-04-18T11:10:11.978Z</time></trkpt><trkpt lat="43.4199348" lon="12.8820766"><ele>563.6</ele><time>2026-04-18T11:10:12.964Z</time></trkpt><trkpt lat="43.4200364" lon="12.8820895"><ele>559.8</ele><time>2026-04-18T11:10:14.013Z</time></trkpt><trkpt lat="43.4201479" lon="12.88209"><ele>556.0</ele><time>2026-04-18T11:10:14.97Z</time></trkpt><trkpt lat="43.4202565" lon="12.8820886"><ele>556.0</ele><time>2026-04-18T11:10:15.98Z</time></trkpt><trkpt lat="43.4203675" lon="12.8820879"><ele>556.0</ele><time>2026-04-18T11:10:16.979Z</time></trkpt><trkpt lat="43.4204793" lon="12.8820945"><ele>556.0</ele><time>2026-04-18T11:10:17.978Z</time></trkpt><trkpt lat="43.4205855" lon="12.8821038"><ele>556.0</ele><time>2026-04-18T11:10:18.979Z</time></trkpt><trkpt lat="43.4206932" lon="12.8821098"><ele>556.0</ele><time>2026-04-18T11:10:19.986Z</time></trkpt><trkpt lat="43.4208025" lon="12.8821327"><ele>552.5</ele><time>2026-04-18T11:10:20.976Z</time></trkpt><trkpt lat="43.4209113" lon="12.8821565"><ele>549.0</ele><time>2026-04-18T11:10:21.974Z</time></trkpt><trkpt lat="43.4210017" lon="12.8821839"><ele>545.5</ele><time>2026-04-18T11:10:23.018Z</time></trkpt><trkpt lat="43.4210921" lon="12.882196"><ele>542.0</ele><time>2026-04-18T11:10:23.977Z</time></trkpt><trkpt lat="43.4211703" lon="12.8822042"><ele>538.5</ele><time>2026-04-18T11:10:24.968Z</time></trkpt><trkpt lat="43.4212356" lon="12.882232"><ele>535.0</ele><time>2026-04-18T11:10:25.976Z</time></trkpt><trkpt lat="43.4212944" lon="12.8822972"><ele>532.5714285714286</ele><time>2026-04-18T11:10:26.974Z</time></trkpt><trkpt lat="43.4213534" lon="12.8823641"><ele>530.1428571428571</ele><time>2026-04-18T11:10:27.984Z</time></trkpt><trkpt lat="43.4214125" lon="12.88242"><ele>527.7142857142858</ele><time>2026-04-18T11:10:28.983Z</time></trkpt><trkpt lat="43.4214674" lon="12.8824654"><ele>525.2857142857142</ele><time>2026-04-18T11:10:29.994Z</time></trkpt><trkpt lat="43.4215477" lon="12.8825369"><ele>522.8571428571429</ele><time>2026-04-18T11:10:31.977Z</time></trkpt><trkpt lat="43.4216003" lon="12.8825858"><ele>520.4285714285714</ele><time>2026-04-18T11:10:36.97Z</time></trkpt><trkpt lat="43.4216376" lon="12.8825139"><ele>518.0</ele><time>2026-04-18T11:10:58.982Z</time></trkpt><trkpt lat="43.4216613" lon="12.8823621"><ele>518.0</ele><time>2026-04-18T11:11:00.968Z</time></trkpt><trkpt lat="43.4216231" lon="12.8822692"><ele>518.0</ele><time>2026-04-18T11:11:02.012Z</time></trkpt><trkpt lat="43.421552" lon="12.8821679"><ele>518.0</ele><time>2026-04-18T11:11:02.976Z</time></trkpt><trkpt lat="43.4214731" lon="12.8820534"><ele>518.0</ele><time>2026-04-18T11:11:03.976Z</time></trkpt><trkpt lat="43.4213806" lon="12.8819264"><ele>518.0</ele><time>2026-04-18T11:11:04.968Z</time></trkpt><trkpt lat="43.421278" lon="12.8817939"><ele>519.25</ele><time>2026-04-18T11:11:05.973Z</time></trkpt><trkpt lat="43.4211688" lon="12.8816576"><ele>520.5</ele><time>2026-04-18T11:11:06.975Z</time></trkpt><trkpt lat="43.4210722" lon="12.881505"><ele>521.75</ele><time>2026-04-18T11:11:07.969Z</time></trkpt><trkpt lat="43.4209925" lon="12.8813419"><ele>523.0</ele><time>2026-04-18T11:11:08.981Z</time></trkpt><trkpt lat="43.4209126" lon="12.8811824"><ele>523.0</ele><time>2026-04-18T11:11:09.98Z</time></trkpt><trkpt lat="43.4208188" lon="12.8810267"><ele>523.0</ele><time>2026-04-18T11:11:10.971Z</time></trkpt><trkpt lat="43.420714" lon="12.8808718"><ele>523.0</ele><time>2026-04-18T11:11:11.97Z</time></trkpt><trkpt lat="43.4206077" lon="12.8807219"><ele>525.25</ele><time>2026-04-18T11:11:12.982Z</time></trkpt><trkpt lat="43.4205088" lon="12.8805699"><ele>527.5</ele><time>2026-04-18T11:11:14.003Z</time></trkpt><trkpt lat="43.4204235" lon="12.8804244"><ele>529.75</ele><time>2026-04-18T11:11:14.974Z</time></trkpt><trkpt lat="43.4203512" lon="12.8802864"><ele>532.0</ele><time>2026-04-18T11:11:15.98Z</time></trkpt><trkpt lat="43.4202894" lon="12.8801806"><ele>532.0</ele><time>2026-04-18T11:11:16.975Z</time></trkpt><trkpt lat="43.4202306" lon="12.8800979"><ele>532.0</ele><time>2026-04-18T11:11:17.974Z</time></trkpt><trkpt lat="43.4201786" lon="12.8800378"><ele>532.0</ele><time>2026-04-18T11:11:18.982Z</time></trkpt><trkpt lat="43.4201325" lon="12.8799488"><ele>532.0</ele><time>2026-04-18T11:11:20.975Z</time></trkpt><trkpt lat="43.4202534" lon="12.8800155"><ele>532.0</ele><time>2026-04-18T11:11:23.995Z</time></trkpt><trkpt lat="43.4203729" lon="12.8801073"><ele>532.0</ele><time>2026-04-18T11:11:24.968Z</time></trkpt><trkpt lat="43.4204816" lon="12.8801965"><ele>532.0</ele><time>2026-04-18T11:11:25.977Z</time></trkpt><trkpt lat="43.4206145" lon="12.8803016"><ele>532.0</ele><time>2026-04-18T11:11:26.974Z</time></trkpt><trkpt lat="43.4207623" lon="12.8804263"><ele>519.0</ele><time>2026-04-18T11:11:27.978Z</time></trkpt><trkpt lat="43.4209394" lon="12.8805364"><ele>506.0</ele><time>2026-04-18T11:11:28.984Z</time></trkpt><trkpt lat="43.4211144" lon="12.880643"><ele>493.0</ele><time>2026-04-18T11:11:29.979Z</time></trkpt><trkpt lat="43.4212778" lon="12.880749"><ele>491.33333333333337</ele><time>2026-04-18T11:11:30.996Z</time></trkpt><trkpt lat="43.4214395" lon="12.8808545"><ele>489.66666666666663</ele><time>2026-04-18T11:11:31.975Z</time></trkpt><trkpt lat="43.4216097" lon="12.8809531"><ele>488.0</ele><time>2026-04-18T11:11:32.975Z</time></trkpt><trkpt lat="43.4217772" lon="12.8810542"><ele>488.0</ele><time>2026-04-18T11:11:33.979Z</time></trkpt><trkpt lat="43.4219463" lon="12.8811536"><ele>488.0</ele><time>2026-04-18T11:11:34.978Z</time></trkpt><trkpt lat="43.4221187" lon="12.8812464"><ele>488.0</ele><time>2026-04-18T11:11:35.982Z</time></trkpt><trkpt lat="43.422284" lon="12.8813429"><ele>477.3333333333333</ele><time>2026-04-18T11:11:36.968Z</time></trkpt><trkpt lat="43.4224431" lon="12.8814324"><ele>466.66666666666663</ele><time>2026-04-18T11:11:37.975Z</time></trkpt><trkpt lat="43.4226079" lon="12.8815147"><ele>456.0</ele><time>2026-04-18T11:11:38.966Z</time></trkpt><trkpt lat="43.4227774" lon="12.8815923"><ele>456.0</ele><time>2026-04-18T11:11:39.989Z</time></trkpt><trkpt lat="43.4229577" lon="12.8816608"><ele>456.0</ele><time>2026-04-18T11:11:40.976Z</time></trkpt><trkpt lat="43.4231294" lon="12.8817368"><ele>456.0</ele><time>2026-04-18T11:11:41.964Z</time></trkpt><trkpt lat="43.4233001" lon="12.8818168"><ele>457.25</ele><time>2026-04-18T11:11:42.982Z</time></trkpt><trkpt lat="43.4234549" lon="12.8818958"><ele>458.5</ele><time>2026-04-18T11:11:43.98Z</time></trkpt><trkpt lat="43.4235937" lon="12.8819462"><ele>459.75</ele><time>2026-04-18T11:11:44.972Z</time></trkpt><trkpt lat="43.4237148" lon="12.8819729"><ele>461.0</ele><time>2026-04-18T11:11:45.971Z</time></trkpt><trkpt lat="43.4238218" lon="12.8820057"><ele>451.0</ele><time>2026-04-18T11:11:46.968Z</time></trkpt><trkpt lat="43.4239292" lon="12.8820529"><ele>441.0</ele><time>2026-04-18T11:11:47.97Z</time></trkpt><trkpt lat="43.4240111" lon="12.8821301"><ele>431.0</ele><time>2026-04-18T11:11:48.969Z</time></trkpt><trkpt lat="43.4240842" lon="12.8822497"><ele>421.0</ele><time>2026-04-18T11:11:49.967Z</time></trkpt><trkpt lat="43.4241534" lon="12.882396"><ele>421.0</ele><time>2026-04-18T11:11:50.968Z</time></trkpt><trkpt lat="43.4242128" lon="12.8825369"><ele>421.0</ele><time>2026-04-18T11:11:51.975Z</time></trkpt><trkpt lat="43.4242683" lon="12.8826955"><ele>421.0</ele><time>2026-04-18T11:11:52.961Z</time></trkpt><trkpt lat="43.424303" lon="12.882897"><ele>421.0</ele><time>2026-04-18T11:11:53.974Z</time></trkpt><trkpt lat="43.4243195" lon="12.883099"><ele>422.0</ele><time>2026-04-18T11:11:54.979Z</time></trkpt><trkpt lat="43.4243348" lon="12.8832962"><ele>423.0</ele><time>2026-04-18T11:11:55.98Z</time></trkpt><trkpt lat="43.424349" lon="12.8834751"><ele>424.0</ele><time>2026-04-18T11:11:56.971Z</time></trkpt><trkpt lat="43.424371" lon="12.8836347"><ele>425.0</ele><time>2026-04-18T11:11:57.974Z</time></trkpt><trkpt lat="43.4243835" lon="12.8837748"><ele>425.0</ele><time>2026-04-18T11:11:58.985Z</time></trkpt><trkpt lat="43.4244015" lon="12.8838882"><ele>425.0</ele><time>2026-04-18T11:11:59.974Z</time></trkpt><trkpt lat="43.4244428" lon="12.8839864"><ele>425.0</ele><time>2026-04-18T11:12:00.967Z</time></trkpt><trkpt lat="43.4244863" lon="12.8840976"><ele>425.0</ele><time>2026-04-18T11:12:01.981Z</time></trkpt><trkpt lat="43.4245374" lon="12.8842177"><ele>425.0</ele><time>2026-04-18T11:12:02.975Z</time></trkpt><trkpt lat="43.4245944" lon="12.8843303"><ele>419.66666666666663</ele><time>2026-04-18T11:12:03.978Z</time></trkpt><trkpt lat="43.4246467" lon="12.8844475"><ele>414.3333333333333</ele><time>2026-04-18T11:12:04.971Z</time></trkpt><trkpt lat="43.4246983" lon="12.8845509"><ele>409.0</ele><time>2026-04-18T11:12:05.98Z</time></trkpt><trkpt lat="43.4247476" lon="12.8846564"><ele>403.66666666666663</ele><time>2026-04-18T11:12:06.975Z</time></trkpt><trkpt lat="43.4247779" lon="12.8847613"><ele>398.3333333333333</ele><time>2026-04-18T11:12:07.981Z</time></trkpt><trkpt lat="43.4247675" lon="12.8848596"><ele>393.0</ele><time>2026-04-18T11:12:08.978Z</time></trkpt><trkpt lat="43.4247181" lon="12.884915"><ele>393.0</ele><time>2026-04-18T11:12:09.984Z</time></trkpt><trkpt lat="43.4246464" lon="12.8849583"><ele>393.0</ele><time>2026-04-18T11:12:11.975Z</time></trkpt><trkpt lat="43.4245711" lon="12.8850047"><ele>393.0</ele><time>2026-04-18T11:12:17.979Z</time></trkpt><trkpt lat="43.424478" lon="12.8850496"><ele>393.0</ele><time>2026-04-18T11:12:20.973Z</time></trkpt><trkpt lat="43.4243408" lon="12.885118"><ele>393.0</ele><time>2026-04-18T11:12:22.991Z</time></trkpt><trkpt lat="43.4242431" lon="12.8851762"><ele>390.5</ele><time>2026-04-18T11:12:23.972Z</time></trkpt><trkpt lat="43.4241339" lon="12.8852339"><ele>388.0</ele><time>2026-04-18T11:12:24.977Z</time></trkpt><trkpt lat="43.4240214" lon="12.8852899"><ele>385.5</ele><time>2026-04-18T11:12:25.984Z</time></trkpt><trkpt lat="43.4239052" lon="12.8853536"><ele>383.0</ele><time>2026-04-18T11:12:26.979Z</time></trkpt><trkpt lat="43.4237844" lon="12.8854061"><ele>383.0</ele><time>2026-04-18T11:12:27.971Z</time></trkpt><trkpt lat="43.4236689" lon="12.8854719"><ele>383.0</ele><time>2026-04-18T11:12:28.977Z</time></trkpt><trkpt lat="43.4235517" lon="12.8855609"><ele>383.0</ele><time>2026-04-18T11:12:29.985Z</time></trkpt><trkpt lat="43.4234413" lon="12.8856772"><ele>383.0</ele><time>2026-04-18T11:12:30.967Z</time></trkpt><trkpt lat="43.4233423" lon="12.8857996"><ele>383.0</ele><time>2026-04-18T11:12:31.978Z</time></trkpt><trkpt lat="43.4232483" lon="12.8859152"><ele>383.0</ele><time>2026-04-18T11:12:32.973Z</time></trkpt><trkpt lat="43.4231657" lon="12.8860346"><ele>383.0</ele><time>2026-04-18T11:12:33.976Z</time></trkpt><trkpt lat="43.4231217" lon="12.8861776"><ele>383.0</ele><time>2026-04-18T11:12:34.978Z</time></trkpt><trkpt lat="43.4231022" lon="12.8863388"><ele>380.25</ele><time>2026-04-18T11:12:35.97Z</time></trkpt><trkpt lat="43.4231155" lon="12.8865053"><ele>377.5</ele><time>2026-04-18T11:12:36.975Z</time></trkpt><trkpt lat="43.4231724" lon="12.8866741"><ele>374.75</ele><time>2026-04-18T11:12:37.982Z</time></trkpt><trkpt lat="43.4232442" lon="12.8868214"><ele>372.0</ele><time>2026-04-18T11:12:38.964Z</time></trkpt><trkpt lat="43.4233091" lon="12.8869731"><ele>372.0</ele><time>2026-04-18T11:12:39.973Z</time></trkpt><trkpt lat="43.4233759" lon="12.8871423"><ele>372.0</ele><time>2026-04-18T11:12:40.969Z</time></trkpt><trkpt lat="43.4234386" lon="12.8873348"><ele>372.0</ele><time>2026-04-18T11:12:41.97Z</time></trkpt><trkpt lat="43.4235082" lon="12.8875055"><ele>372.0</ele><time>2026-04-18T11:12:43.007Z</time></trkpt><trkpt lat="43.423562" lon="12.887672"><ele>373.75</ele><time>2026-04-18T11:12:43.979Z</time></trkpt><trkpt lat="43.4236087" lon="12.8878321"><ele>375.5</ele><time>2026-04-18T11:12:44.964Z</time></trkpt><trkpt lat="43.4236627" lon="12.8879964"><ele>377.25</ele><time>2026-04-18T11:12:45.985Z</time></trkpt><trkpt lat="43.4237104" lon="12.8881581"><ele>379.0</ele><time>2026-04-18T11:12:46.969Z</time></trkpt><trkpt lat="43.4237276" lon="12.8883258"><ele>380.2</ele><time>2026-04-18T11:12:47.977Z</time></trkpt><trkpt lat="43.4237054" lon="12.8884934"><ele>381.4</ele><time>2026-04-18T11:12:48.98Z</time></trkpt><trkpt lat="43.4236665" lon="12.888631"><ele>382.6</ele><time>2026-04-18T11:12:49.984Z</time></trkpt><trkpt lat="43.4236396" lon="12.8887657"><ele>383.8</ele><time>2026-04-18T11:12:50.979Z</time></trkpt><trkpt lat="43.4236458" lon="12.888917"><ele>385.0</ele><time>2026-04-18T11:12:51.964Z</time></trkpt><trkpt lat="43.4236645" lon="12.8890814"><ele>385.0</ele><time>2026-04-18T11:12:52.962Z</time></trkpt><trkpt lat="43.4237022" lon="12.8892366"><ele>385.0</ele><time>2026-04-18T11:12:53.967Z</time></trkpt><trkpt lat="43.4237363" lon="12.8893765"><ele>385.0</ele><time>2026-04-18T11:12:54.99Z</time></trkpt><trkpt lat="43.4237807" lon="12.8895081"><ele>385.0</ele><time>2026-04-18T11:12:55.97Z</time></trkpt><trkpt lat="43.423843" lon="12.8896224"><ele>385.0</ele><time>2026-04-18T11:12:56.957Z</time></trkpt><trkpt lat="43.4239257" lon="12.8897318"><ele>381.5</ele><time>2026-04-18T11:12:57.97Z</time></trkpt><trkpt lat="43.4240094" lon="12.8898289"><ele>378.0</ele><time>2026-04-18T11:12:58.971Z</time></trkpt><trkpt lat="43.4241055" lon="12.889931"><ele>374.5</ele><time>2026-04-18T11:12:59.986Z</time></trkpt><trkpt lat="43.4242097" lon="12.8900406"><ele>371.0</ele><time>2026-04-18T11:13:00.971Z</time></trkpt><trkpt lat="43.4243011" lon="12.8901544"><ele>370.0</ele><time>2026-04-18T11:13:01.976Z</time></trkpt><trkpt lat="43.4244025" lon="12.8902681"><ele>369.0</ele><time>2026-04-18T11:13:02.974Z</time></trkpt><trkpt lat="43.4245145" lon="12.8903605"><ele>368.0</ele><time>2026-04-18T11:13:03.982Z</time></trkpt><trkpt lat="43.4246338" lon="12.8904353"><ele>367.0</ele><time>2026-04-18T11:13:04.981Z</time></trkpt><trkpt lat="43.424757" lon="12.8904846"><ele>367.0</ele><time>2026-04-18T11:13:05.985Z</time></trkpt><trkpt lat="43.4248745" lon="12.8905306"><ele>367.0</ele><time>2026-04-18T11:13:06.962Z</time></trkpt><trkpt lat="43.4249828" lon="12.8905776"><ele>367.0</ele><time>2026-04-18T11:13:07.977Z</time></trkpt><trkpt lat="43.425096" lon="12.8906247"><ele>367.0</ele><time>2026-04-18T11:13:08.985Z</time></trkpt><trkpt lat="43.4252085" lon="12.8906712"><ele>367.0</ele><time>2026-04-18T11:13:09.985Z</time></trkpt><trkpt lat="43.4253323" lon="12.8907182"><ele>367.0</ele><time>2026-04-18T11:13:10.998Z</time></trkpt><trkpt lat="43.4254503" lon="12.8907619"><ele>367.0</ele><time>2026-04-18T11:13:11.982Z</time></trkpt><trkpt lat="43.4255705" lon="12.8908098"><ele>367.0</ele><time>2026-04-18T11:13:13.047Z</time></trkpt><trkpt lat="43.4256923" lon="12.8908347"><ele>368.0</ele><time>2026-04-18T11:13:13.966Z</time></trkpt><trkpt lat="43.4258101" lon="12.8908316"><ele>369.0</ele><time>2026-04-18T11:13:14.984Z</time></trkpt><trkpt lat="43.4259126" lon="12.8908062"><ele>370.0</ele><time>2026-04-18T11:13:15.976Z</time></trkpt><trkpt lat="43.4260133" lon="12.8907522"><ele>371.0</ele><time>2026-04-18T11:13:16.967Z</time></trkpt><trkpt lat="43.4261075" lon="12.890678"><ele>372.0</ele><time>2026-04-18T11:13:17.976Z</time></trkpt><trkpt lat="43.4261973" lon="12.890585"><ele>372.0</ele><time>2026-04-18T11:13:18.991Z</time></trkpt><trkpt lat="43.4262864" lon="12.8904797"><ele>372.0</ele><time>2026-04-18T11:13:19.984Z</time></trkpt><trkpt lat="43.4263766" lon="12.8903644"><ele>372.0</ele><time>2026-04-18T11:13:20.987Z</time></trkpt><trkpt lat="43.4264761" lon="12.8902496"><ele>372.0</ele><time>2026-04-18T11:13:21.98Z</time></trkpt><trkpt lat="43.4265708" lon="12.8901307"><ele>370.25</ele><time>2026-04-18T11:13:22.987Z</time></trkpt><trkpt lat="43.426663" lon="12.8900276"><ele>368.5</ele><time>2026-04-18T11:13:23.971Z</time></trkpt><trkpt lat="43.426764" lon="12.8899583"><ele>366.75</ele><time>2026-04-18T11:13:24.982Z</time></trkpt><trkpt lat="43.4268772" lon="12.8899448"><ele>365.0</ele><time>2026-04-18T11:13:25.978Z</time></trkpt><trkpt lat="43.4269837" lon="12.8900055"><ele>363.75</ele><time>2026-04-18T11:13:26.974Z</time></trkpt><trkpt lat="43.427075" lon="12.8900954"><ele>362.5</ele><time>2026-04-18T11:13:27.97Z</time></trkpt><trkpt lat="43.4271736" lon="12.8901505"><ele>361.25</ele><time>2026-04-18T11:13:28.976Z</time></trkpt><trkpt lat="43.4273085" lon="12.8901463"><ele>360.0</ele><time>2026-04-18T11:13:29.987Z</time></trkpt><trkpt lat="43.4274587" lon="12.8900815"><ele>360.0</ele><time>2026-04-18T11:13:30.978Z</time></trkpt><trkpt lat="43.4276042" lon="12.8899889"><ele>360.0</ele><time>2026-04-18T11:13:31.968Z</time></trkpt><trkpt lat="43.4277397" lon="12.889866"><ele>360.0</ele><time>2026-04-18T11:13:32.983Z</time></trkpt><trkpt lat="43.4278694" lon="12.8897436"><ele>359.25</ele><time>2026-04-18T11:13:33.986Z</time></trkpt><trkpt lat="43.4279951" lon="12.8896212"><ele>358.5</ele><time>2026-04-18T11:13:34.988Z</time></trkpt><trkpt lat="43.4280884" lon="12.8894818"><ele>357.75</ele><time>2026-04-18T11:13:35.971Z</time></trkpt><trkpt lat="43.4281761" lon="12.8893284"><ele>357.0</ele><time>2026-04-18T11:13:36.978Z</time></trkpt><trkpt lat="43.4282673" lon="12.8891845"><ele>354.0</ele><time>2026-04-18T11:13:37.978Z</time></trkpt><trkpt lat="43.4283737" lon="12.889075"><ele>351.0</ele><time>2026-04-18T11:13:38.97Z</time></trkpt><trkpt lat="43.4284947" lon="12.8889969"><ele>348.0</ele><time>2026-04-18T11:13:39.989Z</time></trkpt><trkpt lat="43.428619" lon="12.888922"><ele>345.0</ele><time>2026-04-18T11:13:40.972Z</time></trkpt><trkpt lat="43.4287465" lon="12.8888647"><ele>343.75</ele><time>2026-04-18T11:13:41.978Z</time></trkpt><trkpt lat="43.4288727" lon="12.8887896"><ele>342.5</ele><time>2026-04-18T11:13:42.987Z</time></trkpt><trkpt lat="43.4289894" lon="12.8887161"><ele>341.25</ele><time>2026-04-18T11:13:43.975Z</time></trkpt><trkpt lat="43.4291044" lon="12.8886393"><ele>340.0</ele><time>2026-04-18T11:13:44.969Z</time></trkpt><trkpt lat="43.4292131" lon="12.8885622"><ele>340.0</ele><time>2026-04-18T11:13:45.976Z</time></trkpt><trkpt lat="43.4293116" lon="12.8884889"><ele>340.0</ele><time>2026-04-18T11:13:46.965Z</time></trkpt><trkpt lat="43.4293884" lon="12.888413"><ele>340.0</ele><time>2026-04-18T11:13:47.969Z</time></trkpt><trkpt lat="43.4294326" lon="12.8883108"><ele>340.0</ele><time>2026-04-18T11:13:48.962Z</time></trkpt><trkpt lat="43.4294499" lon="12.8882041"><ele>340.0</ele><time>2026-04-18T11:13:49.979Z</time></trkpt><trkpt lat="43.4294313" lon="12.8880858"><ele>337.8333333333333</ele><time>2026-04-18T11:13:50.966Z</time></trkpt><trkpt lat="43.4293849" lon="12.8880179"><ele>335.66666666666663</ele><time>2026-04-18T11:13:51.971Z</time></trkpt><trkpt lat="43.4292997" lon="12.8879634"><ele>333.5</ele><time>2026-04-18T11:13:52.963Z</time></trkpt><trkpt lat="43.4292138" lon="12.8879943"><ele>331.3333333333333</ele><time>2026-04-18T11:13:53.979Z</time></trkpt><trkpt lat="43.4291259" lon="12.8880416"><ele>329.1666666666667</ele><time>2026-04-18T11:13:54.968Z</time></trkpt><trkpt lat="43.4290455" lon="12.8880813"><ele>327.0</ele><time>2026-04-18T11:13:55.966Z</time></trkpt><trkpt lat="43.4289717" lon="12.8880931"><ele>327.0</ele><time>2026-04-18T11:13:56.96Z</time></trkpt><trkpt lat="43.4289109" lon="12.888036"><ele>327.0</ele><time>2026-04-18T11:13:57.979Z</time></trkpt><trkpt lat="43.4289001" lon="12.887925"><ele>327.0</ele><time>2026-04-18T11:13:58.986Z</time></trkpt><trkpt lat="43.4289454" lon="12.8878101"><ele>327.0</ele><time>2026-04-18T11:13:59.973Z</time></trkpt><trkpt lat="43.4290272" lon="12.8877062"><ele>327.0</ele><time>2026-04-18T11:14:00.971Z</time></trkpt><trkpt lat="43.4291265" lon="12.8876035"><ele>324.5</ele><time>2026-04-18T11:14:01.97Z</time></trkpt><trkpt lat="43.429232" lon="12.8875034"><ele>322.0</ele><time>2026-04-18T11:14:02.975Z</time></trkpt><trkpt lat="43.4293249" lon="12.8874033"><ele>319.5</ele><time>2026-04-18T11:14:03.975Z</time></trkpt><trkpt lat="43.4294184" lon="12.887308"><ele>317.0</ele><time>2026-04-18T11:14:04.98Z</time></trkpt><trkpt lat="43.4295078" lon="12.887223"><ele>317.0</ele><time>2026-04-18T11:14:05.971Z</time></trkpt><trkpt lat="43.429583" lon="12.8871226"><ele>317.0</ele><time>2026-04-18T11:14:06.966Z</time></trkpt><trkpt lat="43.4296474" lon="12.8870166"><ele>317.0</ele><time>2026-04-18T11:14:07.979Z</time></trkpt><trkpt lat="43.429703" lon="12.8869055"><ele>317.0</ele><time>2026-04-18T11:14:08.962Z</time></trkpt><trkpt lat="43.4297528" lon="12.8867936"><ele>317.0</ele><time>2026-04-18T11:14:09.979Z</time></trkpt><trkpt lat="43.4298012" lon="12.8866865"><ele>315.0</ele><time>2026-04-18T11:14:10.97Z</time></trkpt><trkpt lat="43.4298456" lon="12.886596"><ele>313.0</ele><time>2026-04-18T11:14:11.97Z</time></trkpt><trkpt lat="43.4299076" lon="12.8864819"><ele>311.0</ele><time>2026-04-18T11:14:13.972Z</time></trkpt><trkpt lat="43.4299706" lon="12.8864685"><ele>309.0</ele><time>2026-04-18T11:14:43.977Z</time></trkpt><trkpt lat="43.4300565" lon="12.8864666"><ele>307.0</ele><time>2026-04-18T11:14:45.965Z</time></trkpt><trkpt lat="43.430177" lon="12.886454"><ele>307.0</ele><time>2026-04-18T11:14:47.969Z</time></trkpt><trkpt lat="43.4302463" lon="12.8864576"><ele>307.0</ele><time>2026-04-18T11:14:48.964Z</time></trkpt><trkpt lat="43.4303183" lon="12.8864829"><ele>307.0</ele><time>2026-04-18T11:14:49.983Z</time></trkpt><trkpt lat="43.4303984" lon="12.886517"><ele>307.0</ele><time>2026-04-18T11:14:50.972Z</time></trkpt><trkpt lat="43.4304729" lon="12.8865594"><ele>307.0</ele><time>2026-04-18T11:14:51.967Z</time></trkpt><trkpt lat="43.4305428" lon="12.8866222"><ele>307.0</ele><time>2026-04-18T11:14:52.97Z</time></trkpt><trkpt lat="43.430605" lon="12.8867017"><ele>307.5</ele><time>2026-04-18T11:14:53.974Z</time></trkpt><trkpt lat="43.4306673" lon="12.8868031"><ele>308.0</ele><time>2026-04-18T11:14:54.98Z</time></trkpt><trkpt lat="43.4307239" lon="12.8869017"><ele>308.5</ele><time>2026-04-18T11:14:55.971Z</time></trkpt><trkpt lat="43.4307652" lon="12.8869952"><ele>309.0</ele><time>2026-04-18T11:14:56.972Z</time></trkpt><trkpt lat="43.430792" lon="12.8870988"><ele>309.5</ele><time>2026-04-18T11:14:57.978Z</time></trkpt><trkpt lat="43.4308366" lon="12.8872082"><ele>310.0</ele><time>2026-04-18T11:14:58.985Z</time></trkpt><trkpt lat="43.4308932" lon="12.8873184"><ele>310.0</ele><time>2026-04-18T11:14:59.981Z</time></trkpt><trkpt lat="43.4309599" lon="12.8874358"><ele>310.0</ele><time>2026-04-18T11:15:00.975Z</time></trkpt><trkpt lat="43.431038" lon="12.8875563"><ele>310.0</ele><time>2026-04-18T11:15:01.973Z</time></trkpt><trkpt lat="43.4311176" lon="12.8876837"><ele>310.0</ele><time>2026-04-18T11:15:02.972Z</time></trkpt><trkpt lat="43.4311976" lon="12.8878012"><ele>310.0</ele><time>2026-04-18T11:15:03.98Z</time></trkpt><trkpt lat="43.4312706" lon="12.8879191"><ele>310.0</ele><time>2026-04-18T11:15:04.976Z</time></trkpt><trkpt lat="43.4313522" lon="12.8880413"><ele>310.0</ele><time>2026-04-18T11:15:05.969Z</time></trkpt><trkpt lat="43.4314336" lon="12.8881683"><ele>310.0</ele><time>2026-04-18T11:15:06.97Z</time></trkpt><trkpt lat="43.4315072" lon="12.8882825"><ele>310.0</ele><time>2026-04-18T11:15:07.978Z</time></trkpt><trkpt lat="43.4315891" lon="12.8883586"><ele>310.0</ele><time>2026-04-18T11:15:08.971Z</time></trkpt><trkpt lat="43.4316929" lon="12.8883994"><ele>310.0</ele><time>2026-04-18T11:15:09.979Z</time></trkpt><trkpt lat="43.4317969" lon="12.888449"><ele>310.0</ele><time>2026-04-18T11:15:10.975Z</time></trkpt><trkpt lat="43.4318967" lon="12.8884985"><ele>310.0</ele><time>2026-04-18T11:15:11.972Z</time></trkpt><trkpt lat="43.4319962" lon="12.8885441"><ele>310.0</ele><time>2026-04-18T11:15:12.975Z</time></trkpt><trkpt lat="43.4320956" lon="12.8886109"><ele>310.0</ele><time>2026-04-18T11:15:13.981Z</time></trkpt><trkpt lat="43.4321719" lon="12.8887059"><ele>310.0</ele><time>2026-04-18T11:15:14.982Z</time></trkpt><trkpt lat="43.4322439" lon="12.8888099"><ele>310.0</ele><time>2026-04-18T11:15:15.983Z</time></trkpt><trkpt lat="43.4323276" lon="12.8888965"><ele>310.0</ele><time>2026-04-18T11:15:16.977Z</time></trkpt><trkpt lat="43.4324229" lon="12.8889548"><ele>310.25</ele><time>2026-04-18T11:15:17.986Z</time></trkpt><trkpt lat="43.4325264" lon="12.8889938"><ele>310.5</ele><time>2026-04-18T11:15:18.976Z</time></trkpt><trkpt lat="43.4326303" lon="12.8890197"><ele>310.75</ele><time>2026-04-18T11:15:19.988Z</time></trkpt><trkpt lat="43.4327465" lon="12.8890191"><ele>311.0</ele><time>2026-04-18T11:15:20.973Z</time></trkpt><trkpt lat="43.4328819" lon="12.8889908"><ele>309.2</ele><time>2026-04-18T11:15:21.979Z</time></trkpt><trkpt lat="43.4330075" lon="12.888955"><ele>307.40000000000003</ele><time>2026-04-18T11:15:22.969Z</time></trkpt><trkpt lat="43.4331167" lon="12.8889215"><ele>305.6</ele><time>2026-04-18T11:15:23.988Z</time></trkpt><trkpt lat="43.4332014" lon="12.8889062"><ele>303.8</ele><time>2026-04-18T11:15:24.984Z</time></trkpt><trkpt lat="43.4332775" lon="12.8889227"><ele>302.0</ele><time>2026-04-18T11:15:25.981Z</time></trkpt><trkpt lat="43.4333624" lon="12.8889667"><ele>302.0</ele><time>2026-04-18T11:15:26.971Z</time></trkpt><trkpt lat="43.4334478" lon="12.8890227"><ele>302.0</ele><time>2026-04-18T11:15:27.981Z</time></trkpt><trkpt lat="43.4335105" lon="12.8890816"><ele>302.0</ele><time>2026-04-18T11:15:28.985Z</time></trkpt><trkpt lat="43.4335518" lon="12.8891807"><ele>302.0</ele><time>2026-04-18T11:15:29.991Z</time></trkpt><trkpt lat="43.4335937" lon="12.8892661"><ele>302.0</ele><time>2026-04-18T11:15:30.972Z</time></trkpt><trkpt lat="43.433644" lon="12.8893359"><ele>302.0</ele><time>2026-04-18T11:15:31.98Z</time></trkpt><trkpt lat="43.4337154" lon="12.8893861"><ele>301.8</ele><time>2026-04-18T11:15:32.974Z</time></trkpt><trkpt lat="43.4338053" lon="12.8894319"><ele>301.6</ele><time>2026-04-18T11:15:33.989Z</time></trkpt><trkpt lat="43.4339071" lon="12.8894891"><ele>301.40000000000003</ele><time>2026-04-18T11:15:34.973Z</time></trkpt><trkpt lat="43.4340093" lon="12.8895464"><ele>301.2</ele><time>2026-04-18T11:15:35.985Z</time></trkpt><trkpt lat="43.4341073" lon="12.889597"><ele>301.0</ele><time>2026-04-18T11:15:36.982Z</time></trkpt><trkpt lat="43.4342035" lon="12.8896429"><ele>301.0</ele><time>2026-04-18T11:15:37.979Z</time></trkpt><trkpt lat="43.4342872" lon="12.8897108"><ele>301.0</ele><time>2026-04-18T11:15:38.981Z</time></trkpt><trkpt lat="43.4343476" lon="12.8898068"><ele>301.0</ele><time>2026-04-18T11:15:39.986Z</time></trkpt><trkpt lat="43.4343948" lon="12.889907"><ele>301.0</ele><time>2026-04-18T11:15:40.972Z</time></trkpt><trkpt lat="43.4344183" lon="12.8900017"><ele>301.0</ele><time>2026-04-18T11:15:41.973Z</time></trkpt><trkpt lat="43.4344152" lon="12.8901053"><ele>301.0</ele><time>2026-04-18T11:15:42.979Z</time></trkpt><trkpt lat="43.434392" lon="12.8902041"><ele>300.8</ele><time>2026-04-18T11:15:43.974Z</time></trkpt><trkpt lat="43.4343604" lon="12.8902975"><ele>300.6</ele><time>2026-04-18T11:15:44.97Z</time></trkpt><trkpt lat="43.4343102" lon="12.8903982"><ele>300.4</ele><time>2026-04-18T11:15:45.974Z</time></trkpt><trkpt lat="43.4342405" lon="12.8904978"><ele>300.2</ele><time>2026-04-18T11:15:46.974Z</time></trkpt><trkpt lat="43.4341952" lon="12.8906197"><ele>300.0</ele><time>2026-04-18T11:15:47.972Z</time></trkpt><trkpt lat="43.4341715" lon="12.8907507"><ele>300.0</ele><time>2026-04-18T11:15:48.972Z</time></trkpt><trkpt lat="43.4341563" lon="12.8908909"><ele>300.0</ele><time>2026-04-18T11:15:49.975Z</time></trkpt><trkpt lat="43.4341338" lon="12.8910187"><ele>300.0</ele><time>2026-04-18T11:15:50.969Z</time></trkpt><trkpt lat="43.4341075" lon="12.8911289"><ele>300.0</ele><time>2026-04-18T11:15:51.971Z</time></trkpt><trkpt lat="43.4340979" lon="12.8912183"><ele>300.0</ele><time>2026-04-18T11:15:52.975Z</time></trkpt><trkpt lat="43.4341068" lon="12.891324"><ele>300.0</ele><time>2026-04-18T11:15:53.985Z</time></trkpt><trkpt lat="43.4341296" lon="12.8914397"><ele>300.3333333333333</ele><time>2026-04-18T11:15:54.976Z</time></trkpt><trkpt lat="43.4341196" lon="12.8915321"><ele>300.6666666666667</ele><time>2026-04-18T11:15:55.977Z</time></trkpt><trkpt lat="43.4340923" lon="12.8916335"><ele>301.0</ele><time>2026-04-18T11:15:56.975Z</time></trkpt><trkpt lat="43.4340435" lon="12.8917251"><ele>301.33333333333337</ele><time>2026-04-18T11:15:57.987Z</time></trkpt><trkpt lat="43.4340079" lon="12.8918251"><ele>301.6666666666667</ele><time>2026-04-18T11:15:58.969Z</time></trkpt><trkpt lat="43.4339786" lon="12.8919315"><ele>302.0</ele><time>2026-04-18T11:15:59.972Z</time></trkpt><trkpt lat="43.4339639" lon="12.8920394"><ele>302.0</ele><time>2026-04-18T11:16:00.976Z</time></trkpt><trkpt lat="43.4339721" lon="12.8921591"><ele>302.0</ele><time>2026-04-18T11:16:01.981Z</time></trkpt><trkpt lat="43.4340069" lon="12.8922789"><ele>302.0</ele><time>2026-04-18T11:16:02.969Z</time></trkpt><trkpt lat="43.4340434" lon="12.8923935"><ele>302.0</ele><time>2026-04-18T11:16:03.979Z</time></trkpt><trkpt lat="43.4340794" lon="12.8924995"><ele>302.0</ele><time>2026-04-18T11:16:04.966Z</time></trkpt><trkpt lat="43.4341123" lon="12.8925939"><ele>302.0</ele><time>2026-04-18T11:16:05.982Z</time></trkpt><trkpt lat="43.4341541" lon="12.8926911"><ele>302.2</ele><time>2026-04-18T11:16:06.974Z</time></trkpt><trkpt lat="43.4342016" lon="12.8927773"><ele>302.4</ele><time>2026-04-18T11:16:07.973Z</time></trkpt><trkpt lat="43.4343107" lon="12.892843"><ele>302.6</ele><time>2026-04-18T11:16:09.967Z</time></trkpt><trkpt lat="43.4343899" lon="12.8928403"><ele>302.8</ele><time>2026-04-18T11:16:10.97Z</time></trkpt><trkpt lat="43.4344774" lon="12.8928322"><ele>303.0</ele><time>2026-04-18T11:16:11.974Z</time></trkpt><trkpt lat="43.4345804" lon="12.8928287"><ele>301.1666666666667</ele><time>2026-04-18T11:16:12.968Z</time></trkpt><trkpt lat="43.43467" lon="12.892828"><ele>299.3333333333333</ele><time>2026-04-18T11:16:13.985Z</time></trkpt><trkpt lat="43.4347618" lon="12.8928384"><ele>297.5</ele><time>2026-04-18T11:16:14.972Z</time></trkpt><trkpt lat="43.4348427" lon="12.8928774"><ele>295.66666666666663</ele><time>2026-04-18T11:16:15.971Z</time></trkpt><trkpt lat="43.4349245" lon="12.8929326"><ele>293.8333333333333</ele><time>2026-04-18T11:16:16.967Z</time></trkpt><trkpt lat="43.4349989" lon="12.8930047"><ele>292.0</ele><time>2026-04-18T11:16:17.969Z</time></trkpt><trkpt lat="43.4350653" lon="12.8930878"><ele>292.0</ele><time>2026-04-18T11:16:18.975Z</time></trkpt><trkpt lat="43.435129" lon="12.8931839"><ele>292.0</ele><time>2026-04-18T11:16:19.977Z</time></trkpt><trkpt lat="43.4351941" lon="12.8932854"><ele>292.0</ele><time>2026-04-18T11:16:20.97Z</time></trkpt><trkpt lat="43.4352535" lon="12.8933901"><ele>292.0</ele><time>2026-04-18T11:16:21.974Z</time></trkpt><trkpt lat="43.4353223" lon="12.8934905"><ele>292.0</ele><time>2026-04-18T11:16:22.972Z</time></trkpt><trkpt lat="43.4353978" lon="12.8935725"><ele>289.8</ele><time>2026-04-18T11:16:23.979Z</time></trkpt><trkpt lat="43.4354759" lon="12.8936483"><ele>287.6</ele><time>2026-04-18T11:16:24.974Z</time></trkpt><trkpt lat="43.435554" lon="12.8937271"><ele>285.40000000000003</ele><time>2026-04-18T11:16:25.982Z</time></trkpt><trkpt lat="43.4356271" lon="12.8938061"><ele>283.2</ele><time>2026-04-18T11:16:26.971Z</time></trkpt><trkpt lat="43.4356958" lon="12.8938849"><ele>281.0</ele><time>2026-04-18T11:16:27.981Z</time></trkpt><trkpt lat="43.4357552" lon="12.8939696"><ele>281.0</ele><time>2026-04-18T11:16:28.981Z</time></trkpt><trkpt lat="43.4357897" lon="12.8940749"><ele>281.0</ele><time>2026-04-18T11:16:29.977Z</time></trkpt><trkpt lat="43.4358142" lon="12.8941935"><ele>281.0</ele><time>2026-04-18T11:16:30.98Z</time></trkpt><trkpt lat="43.4358189" lon="12.8943078"><ele>281.0</ele><time>2026-04-18T11:16:31.981Z</time></trkpt><trkpt lat="43.435832" lon="12.894423"><ele>281.0</ele><time>2026-04-18T11:16:32.976Z</time></trkpt><trkpt lat="43.4358552" lon="12.8945281"><ele>281.0</ele><time>2026-04-18T11:16:33.985Z</time></trkpt><trkpt lat="43.435875" lon="12.8946269"><ele>281.33333333333337</ele><time>2026-04-18T11:16:34.974Z</time></trkpt><trkpt lat="43.4358947" lon="12.8947269"><ele>281.6666666666667</ele><time>2026-04-18T11:16:35.973Z</time></trkpt><trkpt lat="43.4359162" lon="12.8948435"><ele>282.0</ele><time>2026-04-18T11:16:36.966Z</time></trkpt><trkpt lat="43.4359336" lon="12.8949748"><ele>282.3333333333333</ele><time>2026-04-18T11:16:37.98Z</time></trkpt><trkpt lat="43.4359421" lon="12.8951006"><ele>282.66666666666663</ele><time>2026-04-18T11:16:38.989Z</time></trkpt><trkpt lat="43.435935" lon="12.8952191"><ele>283.0</ele><time>2026-04-18T11:16:39.972Z</time></trkpt><trkpt lat="43.4359001" lon="12.895332"><ele>283.0</ele><time>2026-04-18T11:16:40.975Z</time></trkpt><trkpt lat="43.4358727" lon="12.8954457"><ele>283.0</ele><time>2026-04-18T11:16:41.984Z</time></trkpt><trkpt lat="43.4358448" lon="12.8955711"><ele>283.0</ele><time>2026-04-18T11:16:42.971Z</time></trkpt><trkpt lat="43.4358129" lon="12.8956965"><ele>283.0</ele><time>2026-04-18T11:16:43.98Z</time></trkpt><trkpt lat="43.4357676" lon="12.8958045"><ele>283.0</ele><time>2026-04-18T11:16:44.976Z</time></trkpt><trkpt lat="43.4357176" lon="12.8959017"><ele>282.66666666666663</ele><time>2026-04-18T11:16:45.972Z</time></trkpt><trkpt lat="43.4356541" lon="12.8959885"><ele>282.3333333333333</ele><time>2026-04-18T11:16:46.963Z</time></trkpt><trkpt lat="43.4355897" lon="12.8960556"><ele>282.0</ele><time>2026-04-18T11:16:47.969Z</time></trkpt><trkpt lat="43.4355245" lon="12.8961115"><ele>281.6666666666667</ele><time>2026-04-18T11:16:48.968Z</time></trkpt><trkpt lat="43.4354805" lon="12.8961826"><ele>281.33333333333337</ele><time>2026-04-18T11:16:49.975Z</time></trkpt><trkpt lat="43.4354945" lon="12.8963518"><ele>281.0</ele><time>2026-04-18T11:16:51.983Z</time></trkpt><trkpt lat="43.4355407" lon="12.8964311"><ele>281.0</ele><time>2026-04-18T11:16:52.977Z</time></trkpt><trkpt lat="43.4356028" lon="12.8965233"><ele>281.0</ele><time>2026-04-18T11:16:53.987Z</time></trkpt><trkpt lat="43.4356649" lon="12.8966322"><ele>281.0</ele><time>2026-04-18T11:16:54.977Z</time></trkpt><trkpt lat="43.4357386" lon="12.8967491"><ele>281.0</ele><time>2026-04-18T11:16:55.989Z</time></trkpt><trkpt lat="43.4358156" lon="12.896863"><ele>281.0</ele><time>2026-04-18T11:16:56.982Z</time></trkpt><trkpt lat="43.4358889" lon="12.8969825"><ele>280.6</ele><time>2026-04-18T11:16:57.998Z</time></trkpt><trkpt lat="43.4359579" lon="12.897113"><ele>280.20000000000005</ele><time>2026-04-18T11:16:58.98Z</time></trkpt><trkpt lat="43.4360126" lon="12.8972506"><ele>279.79999999999995</ele><time>2026-04-18T11:16:59.983Z</time></trkpt><trkpt lat="43.4360671" lon="12.897374"><ele>279.4</ele><time>2026-04-18T11:17:00.99Z</time></trkpt><trkpt lat="43.4361089" lon="12.8974865"><ele>279.0</ele><time>2026-04-18T11:17:01.98Z</time></trkpt><trkpt lat="43.4361364" lon="12.8975984"><ele>279.0</ele><time>2026-04-18T11:17:02.983Z</time></trkpt><trkpt lat="43.4361343" lon="12.8977047"><ele>279.0</ele><time>2026-04-18T11:17:03.986Z</time></trkpt><trkpt lat="43.4361124" lon="12.8978014"><ele>279.0</ele><time>2026-04-18T11:17:04.969Z</time></trkpt><trkpt lat="43.4361002" lon="12.8978939"><ele>279.0</ele><time>2026-04-18T11:17:05.986Z</time></trkpt><trkpt lat="43.4360803" lon="12.8979879"><ele>279.0</ele><time>2026-04-18T11:17:06.991Z</time></trkpt><trkpt lat="43.4360346" lon="12.8980737"><ele>279.0</ele><time>2026-04-18T11:17:07.977Z</time></trkpt><trkpt lat="43.4359748" lon="12.8981536"><ele>279.0</ele><time>2026-04-18T11:17:08.965Z</time></trkpt><trkpt lat="43.4359232" lon="12.8982326"><ele>279.0</ele><time>2026-04-18T11:17:09.979Z</time></trkpt><trkpt lat="43.4358825" lon="12.8983178"><ele>279.0</ele><time>2026-04-18T11:17:10.967Z</time></trkpt><trkpt lat="43.4358291" lon="12.898378"><ele>279.0</ele><time>2026-04-18T11:17:11.977Z</time></trkpt><trkpt lat="43.4357611" lon="12.8983886"><ele>279.0</ele><time>2026-04-18T11:17:12.964Z</time></trkpt><trkpt lat="43.4356429" lon="12.8983852"><ele>279.0</ele><time>2026-04-18T11:17:14.966Z</time></trkpt><trkpt lat="43.4355869" lon="12.89844"><ele>275.8</ele><time>2026-04-18T11:17:15.989Z</time></trkpt><trkpt lat="43.4355388" lon="12.8985089"><ele>272.59999999999997</ele><time>2026-04-18T11:17:16.972Z</time></trkpt><trkpt lat="43.4355158" lon="12.8986302"><ele>269.4</ele><time>2026-04-18T11:17:18.981Z</time></trkpt><trkpt lat="43.435593" lon="12.8987548"><ele>266.2</ele><time>2026-04-18T11:17:20.975Z</time></trkpt><trkpt lat="43.4356369" lon="12.898829"><ele>263.0</ele><time>2026-04-18T11:17:21.974Z</time></trkpt><trkpt lat="43.4355878" lon="12.8989875"><ele>263.0</ele><time>2026-04-18T11:17:23.977Z</time></trkpt><trkpt lat="43.4355117" lon="12.8990677"><ele>263.0</ele><time>2026-04-18T11:17:24.98Z</time></trkpt><trkpt lat="43.4354339" lon="12.8991265"><ele>263.0</ele><time>2026-04-18T11:17:25.972Z</time></trkpt><trkpt lat="43.4353534" lon="12.8991839"><ele>263.0</ele><time>2026-04-18T11:17:26.974Z</time></trkpt><trkpt lat="43.4352745" lon="12.8992429"><ele>263.0</ele><time>2026-04-18T11:17:27.995Z</time></trkpt><trkpt lat="43.4351968" lon="12.8992901"><ele>262.5</ele><time>2026-04-18T11:17:28.975Z</time></trkpt><trkpt lat="43.4351203" lon="12.8993262"><ele>262.0</ele><time>2026-04-18T11:17:29.978Z</time></trkpt><trkpt lat="43.4350532" lon="12.8993655"><ele>261.5</ele><time>2026-04-18T11:17:30.996Z</time></trkpt><trkpt lat="43.4349908" lon="12.8994322"><ele>261.0</ele><time>2026-04-18T11:17:31.975Z</time></trkpt><trkpt lat="43.4349362" lon="12.8995174"><ele>260.5</ele><time>2026-04-18T11:17:32.985Z</time></trkpt><trkpt lat="43.4348867" lon="12.8996058"><ele>260.0</ele><time>2026-04-18T11:17:33.981Z</time></trkpt><trkpt lat="43.4348406" lon="12.8996994"><ele>260.0</ele><time>2026-04-18T11:17:34.98Z</time></trkpt><trkpt lat="43.4347918" lon="12.899796"><ele>260.0</ele><time>2026-04-18T11:17:35.971Z</time></trkpt><trkpt lat="43.4347303" lon="12.8998837"><ele>260.0</ele><time>2026-04-18T11:17:36.967Z</time></trkpt><trkpt lat="43.4346548" lon="12.8999633"><ele>260.0</ele><time>2026-04-18T11:17:37.971Z</time></trkpt><trkpt lat="43.434585" lon="12.9000511"><ele>260.0</ele><time>2026-04-18T11:17:38.97Z</time></trkpt><trkpt lat="43.4345148" lon="12.9001498"><ele>259.6666666666667</ele><time>2026-04-18T11:17:39.977Z</time></trkpt><trkpt lat="43.4344466" lon="12.9002397"><ele>259.33333333333337</ele><time>2026-04-18T11:17:40.968Z</time></trkpt><trkpt lat="43.4343753" lon="12.9002923"><ele>259.0</ele><time>2026-04-18T11:17:41.973Z</time></trkpt><trkpt lat="43.4342994" lon="12.9003183"><ele>258.6666666666667</ele><time>2026-04-18T11:17:42.973Z</time></trkpt><trkpt lat="43.434223" lon="12.900348"><ele>258.3333333333333</ele><time>2026-04-18T11:17:43.981Z</time></trkpt><trkpt lat="43.4341517" lon="12.9003964"><ele>258.0</ele><time>2026-04-18T11:17:44.982Z</time></trkpt><trkpt lat="43.4340838" lon="12.9004648"><ele>258.0</ele><time>2026-04-18T11:17:45.979Z</time></trkpt><trkpt lat="43.434025" lon="12.9005566"><ele>258.0</ele><time>2026-04-18T11:17:46.983Z</time></trkpt><trkpt lat="43.433977" lon="12.9006615"><ele>258.0</ele><time>2026-04-18T11:17:47.977Z</time></trkpt><trkpt lat="43.4339233" lon="12.9007662"><ele>258.0</ele><time>2026-04-18T11:17:48.982Z</time></trkpt><trkpt lat="43.4338572" lon="12.9008827"><ele>258.0</ele><time>2026-04-18T11:17:49.981Z</time></trkpt><trkpt lat="43.433789" lon="12.9010027"><ele>258.6</ele><time>2026-04-18T11:17:50.983Z</time></trkpt><trkpt lat="43.433709" lon="12.9011064"><ele>259.20000000000005</ele><time>2026-04-18T11:17:51.98Z</time></trkpt><trkpt lat="43.4336327" lon="12.9012034"><ele>259.8</ele><time>2026-04-18T11:17:52.971Z</time></trkpt><trkpt lat="43.4335537" lon="12.9013089"><ele>260.40000000000003</ele><time>2026-04-18T11:17:53.984Z</time></trkpt><trkpt lat="43.4334671" lon="12.9014136"><ele>261.0</ele><time>2026-04-18T11:17:54.976Z</time></trkpt><trkpt lat="43.433373" lon="12.9015216"><ele>261.0</ele><time>2026-04-18T11:17:55.985Z</time></trkpt><trkpt lat="43.4332833" lon="12.9016329"><ele>261.0</ele><time>2026-04-18T11:17:56.97Z</time></trkpt><trkpt lat="43.4331899" lon="12.9017318"><ele>261.0</ele><time>2026-04-18T11:17:57.971Z</time></trkpt><trkpt lat="43.4330889" lon="12.9018325"><ele>261.0</ele><time>2026-04-18T11:17:58.974Z</time></trkpt><trkpt lat="43.4329862" lon="12.9019416"><ele>260.0</ele><time>2026-04-18T11:17:59.966Z</time></trkpt><trkpt lat="43.4328807" lon="12.9020426"><ele>259.0</ele><time>2026-04-18T11:18:00.975Z</time></trkpt><trkpt lat="43.4327782" lon="12.9021348"><ele>258.0</ele><time>2026-04-18T11:18:01.969Z</time></trkpt><trkpt lat="43.4326829" lon="12.9022242"><ele>257.0</ele><time>2026-04-18T11:18:02.972Z</time></trkpt><trkpt lat="43.4325937" lon="12.9023311"><ele>257.0</ele><time>2026-04-18T11:18:03.976Z</time></trkpt><trkpt lat="43.4325136" lon="12.9024392"><ele>257.0</ele><time>2026-04-18T11:18:04.968Z</time></trkpt><trkpt lat="43.4324323" lon="12.9025242"><ele>257.0</ele><time>2026-04-18T11:18:05.981Z</time></trkpt><trkpt lat="43.4323368" lon="12.902582"><ele>257.0</ele><time>2026-04-18T11:18:06.971Z</time></trkpt><trkpt lat="43.4322358" lon="12.9026102"><ele>257.0</ele><time>2026-04-18T11:18:07.971Z</time></trkpt><trkpt lat="43.432132" lon="12.902637"><ele>256.6</ele><time>2026-04-18T11:18:08.971Z</time></trkpt><trkpt lat="43.4320273" lon="12.9026756"><ele>256.2</ele><time>2026-04-18T11:18:09.975Z</time></trkpt><trkpt lat="43.4319223" lon="12.9027339"><ele>255.8</ele><time>2026-04-18T11:18:10.982Z</time></trkpt><trkpt lat="43.4318244" lon="12.902811"><ele>255.4</ele><time>2026-04-18T11:18:11.966Z</time></trkpt><trkpt lat="43.4317382" lon="12.9029064"><ele>255.0</ele><time>2026-04-18T11:18:12.966Z</time></trkpt><trkpt lat="43.4316671" lon="12.9030255"><ele>255.0</ele><time>2026-04-18T11:18:13.974Z</time></trkpt><trkpt lat="43.4315986" lon="12.9031657"><ele>255.0</ele><time>2026-04-18T11:18:14.972Z</time></trkpt><trkpt lat="43.4315377" lon="12.9033122"><ele>255.0</ele><time>2026-04-18T11:18:15.975Z</time></trkpt><trkpt lat="43.4314792" lon="12.9034628"><ele>255.0</ele><time>2026-04-18T11:18:16.97Z</time></trkpt><trkpt lat="43.4314303" lon="12.903621"><ele>254.8</ele><time>2026-04-18T11:18:17.982Z</time></trkpt><trkpt lat="43.4313955" lon="12.9037782"><ele>254.6</ele><time>2026-04-18T11:18:18.966Z</time></trkpt><trkpt lat="43.4313669" lon="12.9039246"><ele>254.39999999999998</ele><time>2026-04-18T11:18:19.981Z</time></trkpt><trkpt lat="43.4313357" lon="12.9040611"><ele>254.2</ele><time>2026-04-18T11:18:20.967Z</time></trkpt><trkpt lat="43.4313024" lon="12.9041857"><ele>254.0</ele><time>2026-04-18T11:18:21.982Z</time></trkpt><trkpt lat="43.4312756" lon="12.9043056"><ele>254.00000000000003</ele><time>2026-04-18T11:18:22.968Z</time></trkpt><trkpt lat="43.4312527" lon="12.9044009"><ele>254.0</ele><time>2026-04-18T11:18:23.983Z</time></trkpt><trkpt lat="43.4312291" lon="12.9045205"><ele>254.0</ele><time>2026-04-18T11:18:25.964Z</time></trkpt><trkpt lat="43.4311657" lon="12.9046058"><ele>254.0</ele><time>2026-04-18T11:18:33.986Z</time></trkpt><trkpt lat="43.4310625" lon="12.9046213"><ele>254.00000000000003</ele><time>2026-04-18T11:18:35.967Z</time></trkpt><trkpt lat="43.430985" lon="12.9046407"><ele>254.0</ele><time>2026-04-18T11:18:36.969Z</time></trkpt><trkpt lat="43.4308952" lon="12.9046569"><ele>254.0</ele><time>2026-04-18T11:18:37.974Z</time></trkpt><trkpt lat="43.4307983" lon="12.904672"><ele>253.99999999999997</ele><time>2026-04-18T11:18:38.972Z</time></trkpt><trkpt lat="43.4306898" lon="12.9046911"><ele>253.99999999999997</ele><time>2026-04-18T11:18:39.977Z</time></trkpt><trkpt lat="43.4305751" lon="12.9047164"><ele>254.0</ele><time>2026-04-18T11:18:40.975Z</time></trkpt><trkpt lat="43.430457" lon="12.904747"><ele>254.0</ele><time>2026-04-18T11:18:41.972Z</time></trkpt><trkpt lat="43.4303378" lon="12.9047792"><ele>254.75</ele><time>2026-04-18T11:18:42.975Z</time></trkpt><trkpt lat="43.4302205" lon="12.9048131"><ele>255.5</ele><time>2026-04-18T11:18:43.991Z</time></trkpt><trkpt lat="43.4300987" lon="12.9048413"><ele>256.25</ele><time>2026-04-18T11:18:44.97Z</time></trkpt><trkpt lat="43.4299697" lon="12.9048754"><ele>257.0</ele><time>2026-04-18T11:18:45.979Z</time></trkpt><trkpt lat="43.4298427" lon="12.9049042"><ele>257.0</ele><time>2026-04-18T11:18:46.974Z</time></trkpt><trkpt lat="43.4297143" lon="12.904937"><ele>257.0</ele><time>2026-04-18T11:18:47.979Z</time></trkpt><trkpt lat="43.4295864" lon="12.9049677"><ele>257.0</ele><time>2026-04-18T11:18:48.971Z</time></trkpt><trkpt lat="43.4294604" lon="12.905002"><ele>257.0</ele><time>2026-04-18T11:18:49.965Z</time></trkpt><trkpt lat="43.4293318" lon="12.9050321"><ele>257.25</ele><time>2026-04-18T11:18:50.967Z</time></trkpt><trkpt lat="43.4292034" lon="12.9050645"><ele>257.5</ele><time>2026-04-18T11:18:51.982Z</time></trkpt><trkpt lat="43.42908" lon="12.9050991"><ele>257.75</ele><time>2026-04-18T11:18:52.966Z</time></trkpt><trkpt lat="43.4289546" lon="12.9051291"><ele>258.0</ele><time>2026-04-18T11:18:53.972Z</time></trkpt><trkpt lat="43.4288326" lon="12.9051581"><ele>258.0</ele><time>2026-04-18T11:18:54.975Z</time></trkpt><trkpt lat="43.4287072" lon="12.9051921"><ele>258.0</ele><time>2026-04-18T11:18:55.975Z</time></trkpt><trkpt lat="43.4285858" lon="12.9052206"><ele>258.0</ele><time>2026-04-18T11:18:56.973Z</time></trkpt><trkpt lat="43.4284693" lon="12.9052468"><ele>258.0</ele><time>2026-04-18T11:18:57.979Z</time></trkpt><trkpt lat="43.4283569" lon="12.9052709"><ele>258.0</ele><time>2026-04-18T11:18:58.971Z</time></trkpt><trkpt lat="43.4282474" lon="12.9052857"><ele>258.0</ele><time>2026-04-18T11:18:59.98Z</time></trkpt><trkpt lat="43.428149" lon="12.9052928"><ele>258.0</ele><time>2026-04-18T11:19:00.972Z</time></trkpt><trkpt lat="43.4280562" lon="12.9052794"><ele>258.0</ele><time>2026-04-18T11:19:01.971Z</time></trkpt><trkpt lat="43.427975" lon="12.9052487"><ele>258.0</ele><time>2026-04-18T11:19:02.98Z</time></trkpt><trkpt lat="43.4279029" lon="12.9052071"><ele>258.1666666666667</ele><time>2026-04-18T11:19:03.97Z</time></trkpt><trkpt lat="43.4278412" lon="12.9051679"><ele>258.3333333333333</ele><time>2026-04-18T11:19:04.966Z</time></trkpt><trkpt lat="43.4277625" lon="12.9052175"><ele>258.5</ele><time>2026-04-18T11:19:06.974Z</time></trkpt><trkpt lat="43.4277394" lon="12.9053046"><ele>258.66666666666663</ele><time>2026-04-18T11:19:07.976Z</time></trkpt><trkpt lat="43.4277302" lon="12.9054199"><ele>258.8333333333333</ele><time>2026-04-18T11:19:08.974Z</time></trkpt><trkpt lat="43.4277188" lon="12.9055615"><ele>259.0</ele><time>2026-04-18T11:19:09.968Z</time></trkpt><trkpt lat="43.4277079" lon="12.9057068"><ele>259.0</ele><time>2026-04-18T11:19:10.978Z</time></trkpt><trkpt lat="43.4276947" lon="12.9058648"><ele>259.0</ele><time>2026-04-18T11:19:11.97Z</time></trkpt><trkpt lat="43.4277065" lon="12.9060424"><ele>259.0</ele><time>2026-04-18T11:19:12.963Z</time></trkpt><trkpt lat="43.4277326" lon="12.9062274"><ele>259.0</ele><time>2026-04-18T11:19:13.972Z</time></trkpt><trkpt lat="43.4277498" lon="12.9063999"><ele>259.0</ele><time>2026-04-18T11:19:14.988Z</time></trkpt><trkpt lat="43.4277358" lon="12.9065519"><ele>259.0</ele><time>2026-04-18T11:19:15.983Z</time></trkpt><trkpt lat="43.4276808" lon="12.9066938"><ele>259.0</ele><time>2026-04-18T11:19:16.976Z</time></trkpt><trkpt lat="43.4276024" lon="12.906822"><ele>259.0</ele><time>2026-04-18T11:19:17.975Z</time></trkpt><trkpt lat="43.4275249" lon="12.9069422"><ele>259.0</ele><time>2026-04-18T11:19:18.976Z</time></trkpt><trkpt lat="43.427459" lon="12.9070694"><ele>259.0</ele><time>2026-04-18T11:19:19.984Z</time></trkpt><trkpt lat="43.427404" lon="12.9072178"><ele>259.0</ele><time>2026-04-18T11:19:20.964Z</time></trkpt><trkpt lat="43.4273343" lon="12.9073484"><ele>259.0</ele><time>2026-04-18T11:19:21.971Z</time></trkpt><trkpt lat="43.4272447" lon="12.9074439"><ele>259.5</ele><time>2026-04-18T11:19:22.973Z</time></trkpt><trkpt lat="43.4271268" lon="12.9075001"><ele>260.0</ele><time>2026-04-18T11:19:23.984Z</time></trkpt><trkpt lat="43.4270071" lon="12.9075576"><ele>260.5</ele><time>2026-04-18T11:19:24.968Z</time></trkpt><trkpt lat="43.4269116" lon="12.9076304"><ele>261.0</ele><time>2026-04-18T11:19:25.978Z</time></trkpt><trkpt lat="43.4268313" lon="12.9077516"><ele>261.0</ele><time>2026-04-18T11:19:26.989Z</time></trkpt><trkpt lat="43.4267513" lon="12.9078856"><ele>261.0</ele><time>2026-04-18T11:19:27.974Z</time></trkpt><trkpt lat="43.4266727" lon="12.9080414"><ele>261.0</ele><time>2026-04-18T11:19:28.985Z</time></trkpt><trkpt lat="43.4265788" lon="12.9081946"><ele>261.0</ele><time>2026-04-18T11:19:29.972Z</time></trkpt><trkpt lat="43.4264809" lon="12.9083428"><ele>260.0</ele><time>2026-04-18T11:19:30.96Z</time></trkpt><trkpt lat="43.4263781" lon="12.908502"><ele>259.0</ele><time>2026-04-18T11:19:31.979Z</time></trkpt><trkpt lat="43.4262718" lon="12.9086527"><ele>258.0</ele><time>2026-04-18T11:19:32.973Z</time></trkpt><trkpt lat="43.426169" lon="12.9087958"><ele>260.3333333333333</ele><time>2026-04-18T11:19:33.981Z</time></trkpt><trkpt lat="43.4260659" lon="12.9089474"><ele>262.66666666666663</ele><time>2026-04-18T11:19:34.968Z</time></trkpt><trkpt lat="43.4259631" lon="12.9091001"><ele>265.0</ele><time>2026-04-18T11:19:35.966Z</time></trkpt><trkpt lat="43.4258775" lon="12.909271"><ele>265.0</ele><time>2026-04-18T11:19:36.973Z</time></trkpt><trkpt lat="43.4258021" lon="12.9094523"><ele>265.0</ele><time>2026-04-18T11:19:37.98Z</time></trkpt><trkpt lat="43.4257349" lon="12.9096409"><ele>265.0</ele><time>2026-04-18T11:19:38.967Z</time></trkpt><trkpt lat="43.4256832" lon="12.9098332"><ele>265.0</ele><time>2026-04-18T11:19:39.974Z</time></trkpt><trkpt lat="43.4256315" lon="12.9100171"><ele>265.0</ele><time>2026-04-18T11:19:40.982Z</time></trkpt><trkpt lat="43.4255893" lon="12.9101983"><ele>265.0</ele><time>2026-04-18T11:19:41.974Z</time></trkpt><trkpt lat="43.4255641" lon="12.9103798"><ele>265.0</ele><time>2026-04-18T11:19:42.981Z</time></trkpt><trkpt lat="43.4255481" lon="12.9105707"><ele>263.0</ele><time>2026-04-18T11:19:43.982Z</time></trkpt><trkpt lat="43.4255288" lon="12.9107656"><ele>261.0</ele><time>2026-04-18T11:19:44.985Z</time></trkpt><trkpt lat="43.4255018" lon="12.9109703"><ele>259.0</ele><time>2026-04-18T11:19:45.977Z</time></trkpt><trkpt lat="43.4254734" lon="12.9111887"><ele>260.3333333333333</ele><time>2026-04-18T11:19:46.977Z</time></trkpt><trkpt lat="43.4254345" lon="12.9114015"><ele>261.6666666666667</ele><time>2026-04-18T11:19:47.974Z</time></trkpt><trkpt lat="43.4253918" lon="12.9116042"><ele>263.0</ele><time>2026-04-18T11:19:48.975Z</time></trkpt><trkpt lat="43.425336" lon="12.9117795"><ele>263.0</ele><time>2026-04-18T11:19:49.97Z</time></trkpt><trkpt lat="43.4252771" lon="12.9119406"><ele>263.0</ele><time>2026-04-18T11:19:50.976Z</time></trkpt><trkpt lat="43.4252329" lon="12.9120944"><ele>263.0</ele><time>2026-04-18T11:19:51.98Z</time></trkpt><trkpt lat="43.4252116" lon="12.9122563"><ele>263.0</ele><time>2026-04-18T11:19:52.965Z</time></trkpt><trkpt lat="43.4252047" lon="12.9124363"><ele>263.0</ele><time>2026-04-18T11:19:53.971Z</time></trkpt><trkpt lat="43.425218" lon="12.912622"><ele>263.0</ele><time>2026-04-18T11:19:54.984Z</time></trkpt><trkpt lat="43.4252434" lon="12.9128098"><ele>263.0</ele><time>2026-04-18T11:19:55.97Z</time></trkpt><trkpt lat="43.4252731" lon="12.9129904"><ele>263.0</ele><time>2026-04-18T11:19:56.967Z</time></trkpt><trkpt lat="43.4253306" lon="12.9131485"><ele>263.0</ele><time>2026-04-18T11:19:57.973Z</time></trkpt><trkpt lat="43.4254087" lon="12.9132931"><ele>263.0</ele><time>2026-04-18T11:19:58.973Z</time></trkpt><trkpt lat="43.4254931" lon="12.9134292"><ele>263.0</ele><time>2026-04-18T11:19:59.967Z</time></trkpt><trkpt lat="43.425582" lon="12.9135627"><ele>263.0</ele><time>2026-04-18T11:20:00.975Z</time></trkpt><trkpt lat="43.4256794" lon="12.9137021"><ele>260.5</ele><time>2026-04-18T11:20:01.982Z</time></trkpt><trkpt lat="43.425776" lon="12.9138454"><ele>258.0</ele><time>2026-04-18T11:20:02.969Z</time></trkpt><trkpt lat="43.4258723" lon="12.9139899"><ele>255.5</ele><time>2026-04-18T11:20:03.98Z</time></trkpt><trkpt lat="43.4259644" lon="12.914125"><ele>253.0</ele><time>2026-04-18T11:20:04.978Z</time></trkpt><trkpt lat="43.4260392" lon="12.9142526"><ele>252.60000000000002</ele><time>2026-04-18T11:20:05.977Z</time></trkpt><trkpt lat="43.4260911" lon="12.9143734"><ele>252.20000000000002</ele><time>2026-04-18T11:20:06.975Z</time></trkpt><trkpt lat="43.4260971" lon="12.9145142"><ele>251.8</ele><time>2026-04-18T11:20:07.982Z</time></trkpt><trkpt lat="43.4260544" lon="12.9146501"><ele>251.4</ele><time>2026-04-18T11:20:08.975Z</time></trkpt><trkpt lat="43.4259815" lon="12.9147738"><ele>251.0</ele><time>2026-04-18T11:20:09.975Z</time></trkpt><trkpt lat="43.4259099" lon="12.9148977"><ele>251.0</ele><time>2026-04-18T11:20:10.972Z</time></trkpt><trkpt lat="43.4258349" lon="12.9150305"><ele>251.0</ele><time>2026-04-18T11:20:11.975Z</time></trkpt><trkpt lat="43.4257539" lon="12.9151685"><ele>251.0</ele><time>2026-04-18T11:20:12.969Z</time></trkpt><trkpt lat="43.4256677" lon="12.9153031"><ele>251.0</ele><time>2026-04-18T11:20:13.981Z</time></trkpt><trkpt lat="43.4255776" lon="12.9154489"><ele>252.66666666666669</ele><time>2026-04-18T11:20:14.969Z</time></trkpt><trkpt lat="43.4254905" lon="12.915617"><ele>254.33333333333331</ele><time>2026-04-18T11:20:15.971Z</time></trkpt><trkpt lat="43.4254108" lon="12.9157971"><ele>256.0</ele><time>2026-04-18T11:20:16.971Z</time></trkpt><trkpt lat="43.4253404" lon="12.9159797"><ele>256.0</ele><time>2026-04-18T11:20:17.985Z</time></trkpt><trkpt lat="43.4252723" lon="12.9161618"><ele>256.0</ele><time>2026-04-18T11:20:18.968Z</time></trkpt><trkpt lat="43.4252012" lon="12.9163483"><ele>256.0</ele><time>2026-04-18T11:20:19.985Z</time></trkpt><trkpt lat="43.4251362" lon="12.9165331"><ele>256.0</ele><time>2026-04-18T11:20:20.989Z</time></trkpt><trkpt lat="43.4250701" lon="12.9167217"><ele>256.0</ele><time>2026-04-18T11:20:21.975Z</time></trkpt><trkpt lat="43.425007" lon="12.9169212"><ele>256.0</ele><time>2026-04-18T11:20:22.976Z</time></trkpt><trkpt lat="43.4249412" lon="12.9171253"><ele>253.33333333333331</ele><time>2026-04-18T11:20:23.971Z</time></trkpt><trkpt lat="43.4248787" lon="12.917332"><ele>250.66666666666669</ele><time>2026-04-18T11:20:24.967Z</time></trkpt><trkpt lat="43.4248266" lon="12.9175314"><ele>248.0</ele><time>2026-04-18T11:20:25.972Z</time></trkpt><trkpt lat="43.4247821" lon="12.9177219"><ele>247.33333333333334</ele><time>2026-04-18T11:20:26.975Z</time></trkpt><trkpt lat="43.4247325" lon="12.9179271"><ele>246.66666666666669</ele><time>2026-04-18T11:20:27.986Z</time></trkpt><trkpt lat="43.4246833" lon="12.9181386"><ele>246.0</ele><time>2026-04-18T11:20:28.968Z</time></trkpt><trkpt lat="43.4246475" lon="12.9183593"><ele>253.75</ele><time>2026-04-18T11:20:29.967Z</time></trkpt><trkpt lat="43.424619" lon="12.918569"><ele>261.5</ele><time>2026-04-18T11:20:30.977Z</time></trkpt><trkpt lat="43.4245983" lon="12.9187652"><ele>269.25</ele><time>2026-04-18T11:20:31.974Z</time></trkpt><trkpt lat="43.424578" lon="12.9189541"><ele>277.0</ele><time>2026-04-18T11:20:32.969Z</time></trkpt><trkpt lat="43.4245599" lon="12.9191389"><ele>274.75</ele><time>2026-04-18T11:20:33.967Z</time></trkpt><trkpt lat="43.4245366" lon="12.9193291"><ele>272.5</ele><time>2026-04-18T11:20:34.978Z</time></trkpt><trkpt lat="43.4245092" lon="12.9195211"><ele>270.25</ele><time>2026-04-18T11:20:35.969Z</time></trkpt><trkpt lat="43.4244828" lon="12.9197097"><ele>268.0</ele><time>2026-04-18T11:20:36.966Z</time></trkpt><trkpt lat="43.4244568" lon="12.9199073"><ele>268.0</ele><time>2026-04-18T11:20:37.976Z</time></trkpt><trkpt lat="43.4244377" lon="12.9201043"><ele>268.0</ele><time>2026-04-18T11:20:38.967Z</time></trkpt><trkpt lat="43.4244216" lon="12.9203112"><ele>268.0</ele><time>2026-04-18T11:20:39.969Z</time></trkpt><trkpt lat="43.4244255" lon="12.9205156"><ele>268.0</ele><time>2026-04-18T11:20:40.964Z</time></trkpt><trkpt lat="43.424459" lon="12.9207147"><ele>268.0</ele><time>2026-04-18T11:20:41.974Z</time></trkpt><trkpt lat="43.4245225" lon="12.9208848"><ele>268.0</ele><time>2026-04-18T11:20:42.968Z</time></trkpt><trkpt lat="43.424585" lon="12.9210402"><ele>268.0</ele><time>2026-04-18T11:20:43.969Z</time></trkpt><trkpt lat="43.4246282" lon="12.9211971"><ele>268.0</ele><time>2026-04-18T11:20:44.972Z</time></trkpt><trkpt lat="43.4246479" lon="12.92136"><ele>269.0</ele><time>2026-04-18T11:20:45.971Z</time></trkpt><trkpt lat="43.4246254" lon="12.9215295"><ele>270.0</ele><time>2026-04-18T11:20:46.974Z</time></trkpt><trkpt lat="43.4245915" lon="12.9217169"><ele>271.0</ele><time>2026-04-18T11:20:47.97Z</time></trkpt><trkpt lat="43.4245624" lon="12.9219065"><ele>272.0</ele><time>2026-04-18T11:20:48.967Z</time></trkpt><trkpt lat="43.4245687" lon="12.9221038"><ele>275.33333333333337</ele><time>2026-04-18T11:20:49.987Z</time></trkpt><trkpt lat="43.4246053" lon="12.9223017"><ele>278.6666666666667</ele><time>2026-04-18T11:20:50.965Z</time></trkpt><trkpt lat="43.4246591" lon="12.922496"><ele>282.0</ele><time>2026-04-18T11:20:51.969Z</time></trkpt><trkpt lat="43.4247249" lon="12.9226878"><ele>273.0</ele><time>2026-04-18T11:20:52.964Z</time></trkpt><trkpt lat="43.4247914" lon="12.9228858"><ele>264.0</ele><time>2026-04-18T11:20:53.98Z</time></trkpt><trkpt lat="43.4248616" lon="12.9230864"><ele>255.0</ele><time>2026-04-18T11:20:54.966Z</time></trkpt><trkpt lat="43.4249295" lon="12.9232901"><ele>259.3333333333333</ele><time>2026-04-18T11:20:55.977Z</time></trkpt><trkpt lat="43.4249981" lon="12.9234895"><ele>263.66666666666663</ele><time>2026-04-18T11:20:56.978Z</time></trkpt><trkpt lat="43.4250692" lon="12.9236833"><ele>268.0</ele><time>2026-04-18T11:20:57.967Z</time></trkpt><trkpt lat="43.4251409" lon="12.9238693"><ele>268.0</ele><time>2026-04-18T11:20:58.974Z</time></trkpt><trkpt lat="43.4252175" lon="12.92405"><ele>268.0</ele><time>2026-04-18T11:20:59.968Z</time></trkpt><trkpt lat="43.4252974" lon="12.924229"><ele>268.0</ele><time>2026-04-18T11:21:00.966Z</time></trkpt><trkpt lat="43.4253677" lon="12.9244072"><ele>262.0</ele><time>2026-04-18T11:21:01.977Z</time></trkpt><trkpt lat="43.4254334" lon="12.9245909"><ele>256.0</ele><time>2026-04-18T11:21:02.959Z</time></trkpt><trkpt lat="43.4254923" lon="12.9247782"><ele>250.0</ele><time>2026-04-18T11:21:03.972Z</time></trkpt><trkpt lat="43.4255534" lon="12.9249756"><ele>251.66666666666666</ele><time>2026-04-18T11:21:04.973Z</time></trkpt><trkpt lat="43.4256104" lon="12.9251746"><ele>253.33333333333331</ele><time>2026-04-18T11:21:05.965Z</time></trkpt><trkpt lat="43.4256612" lon="12.9253827"><ele>255.0</ele><time>2026-04-18T11:21:06.969Z</time></trkpt><trkpt lat="43.4257351" lon="12.9255829"><ele>255.0</ele><time>2026-04-18T11:21:07.968Z</time></trkpt><trkpt lat="43.4258104" lon="12.9257766"><ele>255.0</ele><time>2026-04-18T11:21:08.972Z</time></trkpt><trkpt lat="43.4258796" lon="12.925976"><ele>255.0</ele><time>2026-04-18T11:21:09.973Z</time></trkpt><trkpt lat="43.4259443" lon="12.9261765"><ele>259.3333333333333</ele><time>2026-04-18T11:21:10.964Z</time></trkpt><trkpt lat="43.4260079" lon="12.9263795"><ele>263.66666666666663</ele><time>2026-04-18T11:21:11.973Z</time></trkpt><trkpt lat="43.4260779" lon="12.9265731"><ele>268.0</ele><time>2026-04-18T11:21:12.962Z</time></trkpt><trkpt lat="43.4261455" lon="12.9267567"><ele>273.3333333333333</ele><time>2026-04-18T11:21:13.981Z</time></trkpt><trkpt lat="43.4262253" lon="12.9269353"><ele>278.6666666666667</ele><time>2026-04-18T11:21:14.985Z</time></trkpt><trkpt lat="43.4263099" lon="12.9271173"><ele>284.0</ele><time>2026-04-18T11:21:15.977Z</time></trkpt><trkpt lat="43.4263979" lon="12.9273071"><ele>274.0</ele><time>2026-04-18T11:21:16.965Z</time></trkpt><trkpt lat="43.4264811" lon="12.9274951"><ele>264.0</ele><time>2026-04-18T11:21:17.965Z</time></trkpt><trkpt lat="43.4265525" lon="12.9276851"><ele>254.0</ele><time>2026-04-18T11:21:18.975Z</time></trkpt><trkpt lat="43.4266116" lon="12.9278775"><ele>254.0</ele><time>2026-04-18T11:21:19.974Z</time></trkpt><trkpt lat="43.426663" lon="12.9280766"><ele>254.0</ele><time>2026-04-18T11:21:20.971Z</time></trkpt><trkpt lat="43.4267086" lon="12.928287"><ele>254.0</ele><time>2026-04-18T11:21:21.978Z</time></trkpt><trkpt lat="43.4267607" lon="12.9285008"><ele>255.75</ele><time>2026-04-18T11:21:22.965Z</time></trkpt><trkpt lat="43.4268095" lon="12.9286982"><ele>257.5</ele><time>2026-04-18T11:21:23.969Z</time></trkpt><trkpt lat="43.4268493" lon="12.9288912"><ele>259.25</ele><time>2026-04-18T11:21:24.967Z</time></trkpt><trkpt lat="43.4268859" lon="12.929072"><ele>261.0</ele><time>2026-04-18T11:21:25.979Z</time></trkpt><trkpt lat="43.4269118" lon="12.9292468"><ele>262.75</ele><time>2026-04-18T11:21:26.968Z</time></trkpt><trkpt lat="43.4269453" lon="12.9294114"><ele>264.5</ele><time>2026-04-18T11:21:27.961Z</time></trkpt><trkpt lat="43.4269818" lon="12.9295699"><ele>266.25</ele><time>2026-04-18T11:21:28.969Z</time></trkpt><trkpt lat="43.4270161" lon="12.9297324"><ele>268.0</ele><time>2026-04-18T11:21:29.966Z</time></trkpt><trkpt lat="43.4270388" lon="12.9298978"><ele>264.75</ele><time>2026-04-18T11:21:30.968Z</time></trkpt><trkpt lat="43.4270383" lon="12.9300653"><ele>261.5</ele><time>2026-04-18T11:21:31.961Z</time></trkpt><trkpt lat="43.4269931" lon="12.9302355"><ele>258.25</ele><time>2026-04-18T11:21:32.98Z</time></trkpt><trkpt lat="43.4269273" lon="12.9303955"><ele>255.0</ele><time>2026-04-18T11:21:33.965Z</time></trkpt><trkpt lat="43.4268557" lon="12.9305574"><ele>255.0</ele><time>2026-04-18T11:21:34.964Z</time></trkpt><trkpt lat="43.4267954" lon="12.9307355"><ele>255.0</ele><time>2026-04-18T11:21:35.976Z</time></trkpt><trkpt lat="43.4267385" lon="12.9309167"><ele>255.0</ele><time>2026-04-18T11:21:36.975Z</time></trkpt><trkpt lat="43.4266845" lon="12.9311032"><ele>255.0</ele><time>2026-04-18T11:21:37.973Z</time></trkpt><trkpt lat="43.4266231" lon="12.9312902"><ele>251.75</ele><time>2026-04-18T11:21:38.978Z</time></trkpt><trkpt lat="43.4265546" lon="12.9314633"><ele>248.5</ele><time>2026-04-18T11:21:39.971Z</time></trkpt><trkpt lat="43.4264806" lon="12.931612"><ele>245.25</ele><time>2026-04-18T11:21:40.966Z</time></trkpt><trkpt lat="43.4264069" lon="12.931757"><ele>242.0</ele><time>2026-04-18T11:21:41.981Z</time></trkpt><trkpt lat="43.4263378" lon="12.9318836"><ele>243.8</ele><time>2026-04-18T11:21:42.974Z</time></trkpt><trkpt lat="43.42628" lon="12.9319968"><ele>245.6</ele><time>2026-04-18T11:21:43.972Z</time></trkpt><trkpt lat="43.4262232" lon="12.9320972"><ele>247.40000000000003</ele><time>2026-04-18T11:21:44.97Z</time></trkpt><trkpt lat="43.4261732" lon="12.932187"><ele>249.20000000000002</ele><time>2026-04-18T11:21:45.984Z</time></trkpt><trkpt lat="43.4261209" lon="12.9323035"><ele>251.0</ele><time>2026-04-18T11:21:47.975Z</time></trkpt><trkpt lat="43.4261616" lon="12.9324071"><ele>251.0</ele><time>2026-04-18T11:21:50.972Z</time></trkpt><trkpt lat="43.4262621" lon="12.9323894"><ele>251.00000000000003</ele><time>2026-04-18T11:21:52.968Z</time></trkpt><trkpt lat="43.426329" lon="12.9323822"><ele>251.00000000000003</ele><time>2026-04-18T11:21:53.968Z</time></trkpt><trkpt lat="43.4264118" lon="12.9323861"><ele>251.0</ele><time>2026-04-18T11:21:54.971Z</time></trkpt><trkpt lat="43.426503" lon="12.9324013"><ele>251.0</ele><time>2026-04-18T11:21:55.973Z</time></trkpt><trkpt lat="43.4266081" lon="12.9324293"><ele>247.5</ele><time>2026-04-18T11:21:56.975Z</time></trkpt><trkpt lat="43.4267182" lon="12.9324542"><ele>244.0</ele><time>2026-04-18T11:21:57.972Z</time></trkpt><trkpt lat="43.4268358" lon="12.9324757"><ele>240.5</ele><time>2026-04-18T11:21:58.974Z</time></trkpt><trkpt lat="43.4269529" lon="12.9324996"><ele>237.0</ele><time>2026-04-18T11:21:59.972Z</time></trkpt><trkpt lat="43.4270666" lon="12.9325164"><ele>237.33333333333334</ele><time>2026-04-18T11:22:00.973Z</time></trkpt><trkpt lat="43.4271677" lon="12.9325332"><ele>237.66666666666669</ele><time>2026-04-18T11:22:01.98Z</time></trkpt><trkpt lat="43.4272616" lon="12.9325498"><ele>238.0</ele><time>2026-04-18T11:22:02.98Z</time></trkpt><trkpt lat="43.4273459" lon="12.9325634"><ele>238.33333333333334</ele><time>2026-04-18T11:22:03.974Z</time></trkpt><trkpt lat="43.4274256" lon="12.9325759"><ele>238.66666666666669</ele><time>2026-04-18T11:22:04.974Z</time></trkpt><trkpt lat="43.4274958" lon="12.9325868"><ele>239.0</ele><time>2026-04-18T11:22:05.977Z</time></trkpt><trkpt lat="43.4276086" lon="12.9326482"><ele>239.6</ele><time>2026-04-18T11:22:07.972Z</time></trkpt><trkpt lat="43.4276564" lon="12.9327558"><ele>240.2</ele><time>2026-04-18T11:22:09.968Z</time></trkpt><trkpt lat="43.427653" lon="12.9328593"><ele>240.79999999999998</ele><time>2026-04-18T11:22:11.972Z</time></trkpt><trkpt lat="43.4276164" lon="12.9329917"><ele>241.39999999999998</ele><time>2026-04-18T11:22:13.976Z</time></trkpt><trkpt lat="43.4275841" lon="12.9331541"><ele>242.0</ele><time>2026-04-18T11:22:15.976Z</time></trkpt><trkpt lat="43.4275838" lon="12.9332835"><ele>242.0</ele><time>2026-04-18T11:22:17.982Z</time></trkpt><trkpt lat="43.4275668" lon="12.9333978"><ele>246.0</ele><time>2026-04-18T11:22:20.976Z</time></trkpt><trkpt lat="43.4275605" lon="12.9335068"><ele>246.0</ele><time>2026-04-18T11:22:23.971Z</time></trkpt><trkpt lat="43.4275611" lon="12.9336037"><ele>246.0</ele><time>2026-04-18T11:22:26.967Z</time></trkpt></trkseg></trk></gpx>